<?xml version='1.0' encoding='UTF-8'?><gpx version="1.1" creator="JPX - https://github.com/jenetics/jpx" xmlns="http://www.topografix.com/GPX/1/1"><trk><trkseg><trkpt lat="42.5958578" lon="12.7707238"><ele>228.99999999999997</ele><time>2026-05-03T07:50:45.993Z</time></trkpt><trkpt lat="42.5958517" lon="12.7706117"><ele>229.0</ele><time>2026-05-03T07:52:24.991Z</time></trkpt><trkpt lat="42.5958117" lon="12.77052"><ele>229.0</ele><time>2026-05-03T07:52:27.99Z</time></trkpt><trkpt lat="42.5958" lon="12.77042"><ele>229.0</ele><time>2026-05-03T07:52:30.983Z</time></trkpt><trkpt lat="42.5958117" lon="12.7703317"><ele>228.99999999999997</ele><time>2026-05-03T07:52:34.991Z</time></trkpt><trkpt lat="42.5957517" lon="12.770235"><ele>229.0</ele><time>2026-05-03T07:54:08.987Z</time></trkpt><trkpt lat="42.5956417" lon="12.7702167"><ele>228.99999999999997</ele><time>2026-05-03T07:54:10.987Z</time></trkpt><trkpt lat="42.59557" lon="12.7702133"><ele>229.0</ele><time>2026-05-03T07:54:11.983Z</time></trkpt><trkpt lat="42.5954917" lon="12.77021"><ele>229.0</ele><time>2026-05-03T07:54:12.989Z</time></trkpt><trkpt lat="42.5954133" lon="12.770205"><ele>229.0</ele><time>2026-05-03T07:54:13.988Z</time></trkpt><trkpt lat="42.5953333" lon="12.7701967"><ele>228.99999999999997</ele><time>2026-05-03T07:54:14.987Z</time></trkpt><trkpt lat="42.59525" lon="12.7701883"><ele>229.0</ele><time>2026-05-03T07:54:15.987Z</time></trkpt><trkpt lat="42.5951583" lon="12.7701833"><ele>231.0</ele><time>2026-05-03T07:54:16.985Z</time></trkpt><trkpt lat="42.5950633" lon="12.77018"><ele>232.99999999999997</ele><time>2026-05-03T07:54:17.984Z</time></trkpt><trkpt lat="42.594965" lon="12.7701667"><ele>234.99999999999997</ele><time>2026-05-03T07:54:18.982Z</time></trkpt><trkpt lat="42.5948683" lon="12.7701533"><ele>237.0</ele><time>2026-05-03T07:54:19.988Z</time></trkpt><trkpt lat="42.59477" lon="12.7701433"><ele>239.0</ele><time>2026-05-03T07:54:20.987Z</time></trkpt><trkpt lat="42.5946683" lon="12.7701267"><ele>239.0</ele><time>2026-05-03T07:54:21.985Z</time></trkpt><trkpt lat="42.59457" lon="12.7701067"><ele>238.99999999999997</ele><time>2026-05-03T07:54:22.985Z</time></trkpt><trkpt lat="42.5944733" lon="12.7700817"><ele>238.99999999999997</ele><time>2026-05-03T07:54:23.984Z</time></trkpt><trkpt lat="42.5943783" lon="12.770045"><ele>239.0</ele><time>2026-05-03T07:54:24.985Z</time></trkpt><trkpt lat="42.5942883" lon="12.77"><ele>239.0</ele><time>2026-05-03T07:54:25.987Z</time></trkpt><trkpt lat="42.5942" lon="12.7699417"><ele>237.79999999999998</ele><time>2026-05-03T07:54:26.986Z</time></trkpt><trkpt lat="42.5941117" lon="12.76988"><ele>236.59999999999997</ele><time>2026-05-03T07:54:27.986Z</time></trkpt><trkpt lat="42.5940233" lon="12.7698133"><ele>235.4</ele><time>2026-05-03T07:54:28.988Z</time></trkpt><trkpt lat="42.593935" lon="12.769745"><ele>234.2</ele><time>2026-05-03T07:54:29.987Z</time></trkpt><trkpt lat="42.593845" lon="12.76968"><ele>233.0</ele><time>2026-05-03T07:54:30.985Z</time></trkpt><trkpt lat="42.5937533" lon="12.769615"><ele>233.8</ele><time>2026-05-03T07:54:31.99Z</time></trkpt><trkpt lat="42.5936617" lon="12.7695483"><ele>234.60000000000002</ele><time>2026-05-03T07:54:32.989Z</time></trkpt><trkpt lat="42.5935683" lon="12.7694833"><ele>235.39999999999998</ele><time>2026-05-03T07:54:33.997Z</time></trkpt><trkpt lat="42.5934767" lon="12.7694183"><ele>236.2</ele><time>2026-05-03T07:54:34.99Z</time></trkpt><trkpt lat="42.5933833" lon="12.7693533"><ele>237.0</ele><time>2026-05-03T07:54:35.986Z</time></trkpt><trkpt lat="42.5932883" lon="12.769285"><ele>237.0</ele><time>2026-05-03T07:54:36.984Z</time></trkpt><trkpt lat="42.5931917" lon="12.7692233"><ele>237.0</ele><time>2026-05-03T07:54:37.991Z</time></trkpt><trkpt lat="42.5930967" lon="12.76916"><ele>237.0</ele><time>2026-05-03T07:54:38.986Z</time></trkpt><trkpt lat="42.5930017" lon="12.7691"><ele>237.0</ele><time>2026-05-03T07:54:39.982Z</time></trkpt><trkpt lat="42.5929067" lon="12.7690367"><ele>237.0</ele><time>2026-05-03T07:54:40.989Z</time></trkpt><trkpt lat="42.5928133" lon="12.7689717"><ele>234.8</ele><time>2026-05-03T07:54:41.987Z</time></trkpt><trkpt lat="42.5927183" lon="12.7689067"><ele>232.6</ele><time>2026-05-03T07:54:42.995Z</time></trkpt><trkpt lat="42.59262" lon="12.7688367"><ele>230.40000000000003</ele><time>2026-05-03T07:54:43.989Z</time></trkpt><trkpt lat="42.5925217" lon="12.7687617"><ele>228.20000000000002</ele><time>2026-05-03T07:54:44.987Z</time></trkpt><trkpt lat="42.59242" lon="12.7686833"><ele>226.0</ele><time>2026-05-03T07:54:45.993Z</time></trkpt><trkpt lat="42.5923183" lon="12.7686083"><ele>226.0</ele><time>2026-05-03T07:54:46.984Z</time></trkpt><trkpt lat="42.59222" lon="12.7685383"><ele>226.00000000000003</ele><time>2026-05-03T07:54:47.985Z</time></trkpt><trkpt lat="42.592125" lon="12.768475"><ele>226.00000000000003</ele><time>2026-05-03T07:54:48.985Z</time></trkpt><trkpt lat="42.5920267" lon="12.7684133"><ele>226.0</ele><time>2026-05-03T07:54:49.988Z</time></trkpt><trkpt lat="42.591925" lon="12.768345"><ele>226.0</ele><time>2026-05-03T07:54:50.986Z</time></trkpt><trkpt lat="42.59182" lon="12.76827"><ele>225.75</ele><time>2026-05-03T07:54:51.986Z</time></trkpt><trkpt lat="42.59171" lon="12.7681967"><ele>225.5</ele><time>2026-05-03T07:54:52.986Z</time></trkpt><trkpt lat="42.5915967" lon="12.768125"><ele>225.25</ele><time>2026-05-03T07:54:53.99Z</time></trkpt><trkpt lat="42.5914817" lon="12.76805"><ele>225.0</ele><time>2026-05-03T07:54:54.994Z</time></trkpt><trkpt lat="42.591365" lon="12.7679717"><ele>225.0</ele><time>2026-05-03T07:54:55.987Z</time></trkpt><trkpt lat="42.5912467" lon="12.7678917"><ele>225.0</ele><time>2026-05-03T07:54:56.982Z</time></trkpt><trkpt lat="42.5911233" lon="12.7678117"><ele>225.0</ele><time>2026-05-03T07:54:57.983Z</time></trkpt><trkpt lat="42.591" lon="12.7677267"><ele>225.0</ele><time>2026-05-03T07:54:58.987Z</time></trkpt><trkpt lat="42.590875" lon="12.7676383"><ele>226.0</ele><time>2026-05-03T07:54:59.988Z</time></trkpt><trkpt lat="42.59075" lon="12.76755"><ele>227.0</ele><time>2026-05-03T07:55:00.993Z</time></trkpt><trkpt lat="42.59063" lon="12.7674567"><ele>228.0</ele><time>2026-05-03T07:55:01.987Z</time></trkpt><trkpt lat="42.59052" lon="12.767345"><ele>229.0</ele><time>2026-05-03T07:55:02.994Z</time></trkpt><trkpt lat="42.5904167" lon="12.76722"><ele>229.0</ele><time>2026-05-03T07:55:03.984Z</time></trkpt><trkpt lat="42.5903217" lon="12.7670817"><ele>229.0</ele><time>2026-05-03T07:55:04.981Z</time></trkpt><trkpt lat="42.5902283" lon="12.7669417"><ele>229.0</ele><time>2026-05-03T07:55:05.991Z</time></trkpt><trkpt lat="42.5901367" lon="12.7668"><ele>229.0</ele><time>2026-05-03T07:55:06.993Z</time></trkpt><trkpt lat="42.5900417" lon="12.76666"><ele>229.0</ele><time>2026-05-03T07:55:07.984Z</time></trkpt><trkpt lat="42.58995" lon="12.76652"><ele>229.0</ele><time>2026-05-03T07:55:08.993Z</time></trkpt><trkpt lat="42.5898583" lon="12.7663767"><ele>229.0</ele><time>2026-05-03T07:55:09.989Z</time></trkpt><trkpt lat="42.589765" lon="12.7662367"><ele>229.0</ele><time>2026-05-03T07:55:10.99Z</time></trkpt><trkpt lat="42.58967" lon="12.766095"><ele>228.5</ele><time>2026-05-03T07:55:11.987Z</time></trkpt><trkpt lat="42.5895733" lon="12.7659533"><ele>228.0</ele><time>2026-05-03T07:55:12.985Z</time></trkpt><trkpt lat="42.5894767" lon="12.7658117"><ele>227.5</ele><time>2026-05-03T07:55:13.992Z</time></trkpt><trkpt lat="42.5893767" lon="12.7656733"><ele>227.0</ele><time>2026-05-03T07:55:14.987Z</time></trkpt><trkpt lat="42.589275" lon="12.7655433"><ele>227.0</ele><time>2026-05-03T07:55:15.987Z</time></trkpt><trkpt lat="42.589175" lon="12.7654217"><ele>227.0</ele><time>2026-05-03T07:55:16.999Z</time></trkpt><trkpt lat="42.589075" lon="12.76531"><ele>227.0</ele><time>2026-05-03T07:55:17.995Z</time></trkpt><trkpt lat="42.5889817" lon="12.7652133"><ele>227.0</ele><time>2026-05-03T07:55:18.986Z</time></trkpt><trkpt lat="42.5888917" lon="12.7651233"><ele>227.2</ele><time>2026-05-03T07:55:19.991Z</time></trkpt><trkpt lat="42.58881" lon="12.7650367"><ele>227.39999999999998</ele><time>2026-05-03T07:55:20.99Z</time></trkpt><trkpt lat="42.5887383" lon="12.7649517"><ele>227.60000000000002</ele><time>2026-05-03T07:55:21.989Z</time></trkpt><trkpt lat="42.5886767" lon="12.76487"><ele>227.8</ele><time>2026-05-03T07:55:22.985Z</time></trkpt><trkpt lat="42.58862" lon="12.7647867"><ele>228.0</ele><time>2026-05-03T07:55:23.99Z</time></trkpt><trkpt lat="42.5885683" lon="12.7646983"><ele>227.16666666666666</ele><time>2026-05-03T07:55:24.986Z</time></trkpt><trkpt lat="42.5885183" lon="12.7646017"><ele>226.33333333333331</ele><time>2026-05-03T07:55:25.987Z</time></trkpt><trkpt lat="42.58846" lon="12.76452"><ele>225.5</ele><time>2026-05-03T07:55:26.985Z</time></trkpt><trkpt lat="42.588395" lon="12.76445"><ele>224.66666666666666</ele><time>2026-05-03T07:55:27.985Z</time></trkpt><trkpt lat="42.5883217" lon="12.764395"><ele>223.83333333333331</ele><time>2026-05-03T07:55:28.986Z</time></trkpt><trkpt lat="42.5882417" lon="12.7643417"><ele>223.0</ele><time>2026-05-03T07:55:29.987Z</time></trkpt><trkpt lat="42.58816" lon="12.7642783"><ele>223.0</ele><time>2026-05-03T07:55:30.992Z</time></trkpt><trkpt lat="42.5880783" lon="12.7641933"><ele>223.0</ele><time>2026-05-03T07:55:31.988Z</time></trkpt><trkpt lat="42.58799" lon="12.7640967"><ele>223.0</ele><time>2026-05-03T07:55:32.985Z</time></trkpt><trkpt lat="42.5878983" lon="12.763995"><ele>223.0</ele><time>2026-05-03T07:55:33.987Z</time></trkpt><trkpt lat="42.5878" lon="12.7638883"><ele>223.25</ele><time>2026-05-03T07:55:34.991Z</time></trkpt><trkpt lat="42.5876983" lon="12.7637767"><ele>223.5</ele><time>2026-05-03T07:55:35.986Z</time></trkpt><trkpt lat="42.5875967" lon="12.7636583"><ele>223.75</ele><time>2026-05-03T07:55:36.983Z</time></trkpt><trkpt lat="42.5874967" lon="12.7635383"><ele>224.0</ele><time>2026-05-03T07:55:37.992Z</time></trkpt><trkpt lat="42.58739" lon="12.763425"><ele>224.25</ele><time>2026-05-03T07:55:38.985Z</time></trkpt><trkpt lat="42.5872833" lon="12.76331"><ele>224.5</ele><time>2026-05-03T07:55:39.989Z</time></trkpt><trkpt lat="42.587175" lon="12.7631933"><ele>224.75</ele><time>2026-05-03T07:55:40.985Z</time></trkpt><trkpt lat="42.587065" lon="12.763075"><ele>225.0</ele><time>2026-05-03T07:55:41.986Z</time></trkpt><trkpt lat="42.5869567" lon="12.7629533"><ele>224.5</ele><time>2026-05-03T07:55:42.986Z</time></trkpt><trkpt lat="42.5868467" lon="12.7628317"><ele>224.0</ele><time>2026-05-03T07:55:43.988Z</time></trkpt><trkpt lat="42.5867317" lon="12.76271"><ele>223.5</ele><time>2026-05-03T07:55:44.987Z</time></trkpt><trkpt lat="42.586615" lon="12.762585"><ele>223.0</ele><time>2026-05-03T07:55:45.99Z</time></trkpt><trkpt lat="42.5865033" lon="12.7624633"><ele>223.0</ele><time>2026-05-03T07:55:46.994Z</time></trkpt><trkpt lat="42.586395" lon="12.76234"><ele>223.0</ele><time>2026-05-03T07:55:47.997Z</time></trkpt><trkpt lat="42.5862833" lon="12.7622167"><ele>223.0</ele><time>2026-05-03T07:55:48.986Z</time></trkpt><trkpt lat="42.5861717" lon="12.7620883"><ele>223.0</ele><time>2026-05-03T07:55:49.991Z</time></trkpt><trkpt lat="42.5860583" lon="12.76196"><ele>223.33333333333331</ele><time>2026-05-03T07:55:50.987Z</time></trkpt><trkpt lat="42.5859417" lon="12.7618317"><ele>223.66666666666669</ele><time>2026-05-03T07:55:51.985Z</time></trkpt><trkpt lat="42.585825" lon="12.7617017"><ele>224.0</ele><time>2026-05-03T07:55:52.993Z</time></trkpt><trkpt lat="42.5857067" lon="12.7615717"><ele>224.0</ele><time>2026-05-03T07:55:53.987Z</time></trkpt><trkpt lat="42.585585" lon="12.76144"><ele>224.0</ele><time>2026-05-03T07:55:54.992Z</time></trkpt><trkpt lat="42.5854667" lon="12.7613067"><ele>224.0</ele><time>2026-05-03T07:55:55.994Z</time></trkpt><trkpt lat="42.585345" lon="12.7611733"><ele>223.33333333333334</ele><time>2026-05-03T07:55:56.988Z</time></trkpt><trkpt lat="42.5852233" lon="12.7610367"><ele>222.66666666666669</ele><time>2026-05-03T07:55:57.99Z</time></trkpt><trkpt lat="42.5851017" lon="12.7608983"><ele>222.0</ele><time>2026-05-03T07:55:58.987Z</time></trkpt><trkpt lat="42.58498" lon="12.7607617"><ele>222.0</ele><time>2026-05-03T07:55:59.99Z</time></trkpt><trkpt lat="42.5848567" lon="12.7606267"><ele>222.0</ele><time>2026-05-03T07:56:00.991Z</time></trkpt><trkpt lat="42.584735" lon="12.7604883"><ele>222.0</ele><time>2026-05-03T07:56:01.993Z</time></trkpt><trkpt lat="42.5846083" lon="12.76035"><ele>222.0</ele><time>2026-05-03T07:56:02.988Z</time></trkpt><trkpt lat="42.5844833" lon="12.7602133"><ele>222.0</ele><time>2026-05-03T07:56:03.989Z</time></trkpt><trkpt lat="42.584355" lon="12.76008"><ele>222.0</ele><time>2026-05-03T07:56:04.988Z</time></trkpt><trkpt lat="42.58423" lon="12.7599433"><ele>222.0</ele><time>2026-05-03T07:56:05.987Z</time></trkpt><trkpt lat="42.584105" lon="12.759805"><ele>222.0</ele><time>2026-05-03T07:56:06.986Z</time></trkpt><trkpt lat="42.58398" lon="12.75967"><ele>222.0</ele><time>2026-05-03T07:56:07.986Z</time></trkpt><trkpt lat="42.5838533" lon="12.7595317"><ele>222.0</ele><time>2026-05-03T07:56:08.986Z</time></trkpt><trkpt lat="42.5837283" lon="12.7593917"><ele>222.0</ele><time>2026-05-03T07:56:09.986Z</time></trkpt><trkpt lat="42.5836" lon="12.7592533"><ele>222.0</ele><time>2026-05-03T07:56:10.997Z</time></trkpt><trkpt lat="42.5834733" lon="12.759115"><ele>222.0</ele><time>2026-05-03T07:56:11.99Z</time></trkpt><trkpt lat="42.58335" lon="12.7589767"><ele>222.0</ele><time>2026-05-03T07:56:12.99Z</time></trkpt><trkpt lat="42.5832267" lon="12.7588433"><ele>222.0</ele><time>2026-05-03T07:56:13.991Z</time></trkpt><trkpt lat="42.5831033" lon="12.75871"><ele>222.0</ele><time>2026-05-03T07:56:14.988Z</time></trkpt><trkpt lat="42.58298" lon="12.7585783"><ele>222.0</ele><time>2026-05-03T07:56:15.991Z</time></trkpt><trkpt lat="42.5828567" lon="12.7584433"><ele>222.0</ele><time>2026-05-03T07:56:16.985Z</time></trkpt><trkpt lat="42.5827317" lon="12.75831"><ele>222.33333333333331</ele><time>2026-05-03T07:56:17.989Z</time></trkpt><trkpt lat="42.5826067" lon="12.7581733"><ele>222.66666666666666</ele><time>2026-05-03T07:56:18.985Z</time></trkpt><trkpt lat="42.58248" lon="12.7580383"><ele>223.0</ele><time>2026-05-03T07:56:19.988Z</time></trkpt><trkpt lat="42.582355" lon="12.7579033"><ele>223.0</ele><time>2026-05-03T07:56:20.987Z</time></trkpt><trkpt lat="42.58223" lon="12.7577683"><ele>223.0</ele><time>2026-05-03T07:56:21.988Z</time></trkpt><trkpt lat="42.5821083" lon="12.7576333"><ele>223.0</ele><time>2026-05-03T07:56:22.991Z</time></trkpt><trkpt lat="42.5819917" lon="12.757495"><ele>223.0</ele><time>2026-05-03T07:56:23.995Z</time></trkpt><trkpt lat="42.5818833" lon="12.75735"><ele>223.0</ele><time>2026-05-03T07:56:24.986Z</time></trkpt><trkpt lat="42.5817867" lon="12.7571967"><ele>223.0</ele><time>2026-05-03T07:56:25.989Z</time></trkpt><trkpt lat="42.581695" lon="12.7570333"><ele>225.66666666666666</ele><time>2026-05-03T07:56:26.984Z</time></trkpt><trkpt lat="42.5816083" lon="12.7568667"><ele>228.33333333333331</ele><time>2026-05-03T07:56:27.987Z</time></trkpt><trkpt lat="42.5815233" lon="12.7566983"><ele>231.0</ele><time>2026-05-03T07:56:28.988Z</time></trkpt><trkpt lat="42.5814367" lon="12.75653"><ele>231.0</ele><time>2026-05-03T07:56:29.982Z</time></trkpt><trkpt lat="42.5813483" lon="12.7563567"><ele>231.0</ele><time>2026-05-03T07:56:30.985Z</time></trkpt><trkpt lat="42.5812583" lon="12.75618"><ele>231.0</ele><time>2026-05-03T07:56:31.988Z</time></trkpt><trkpt lat="42.5811683" lon="12.7560033"><ele>229.66666666666669</ele><time>2026-05-03T07:56:32.987Z</time></trkpt><trkpt lat="42.5810867" lon="12.75582"><ele>228.33333333333334</ele><time>2026-05-03T07:56:33.987Z</time></trkpt><trkpt lat="42.581005" lon="12.7556383"><ele>227.0</ele><time>2026-05-03T07:56:34.99Z</time></trkpt><trkpt lat="42.58092" lon="12.75546"><ele>227.0</ele><time>2026-05-03T07:56:35.986Z</time></trkpt><trkpt lat="42.5808333" lon="12.7552917"><ele>227.0</ele><time>2026-05-03T07:56:36.988Z</time></trkpt><trkpt lat="42.5807483" lon="12.7551317"><ele>227.0</ele><time>2026-05-03T07:56:37.986Z</time></trkpt><trkpt lat="42.58067" lon="12.754975"><ele>227.0</ele><time>2026-05-03T07:56:38.986Z</time></trkpt><trkpt lat="42.5806017" lon="12.7548217"><ele>226.75</ele><time>2026-05-03T07:56:39.985Z</time></trkpt><trkpt lat="42.58055" lon="12.7546583"><ele>226.5</ele><time>2026-05-03T07:56:40.986Z</time></trkpt><trkpt lat="42.5805117" lon="12.7544867"><ele>226.25</ele><time>2026-05-03T07:56:41.993Z</time></trkpt><trkpt lat="42.5804833" lon="12.7543033"><ele>226.0</ele><time>2026-05-03T07:56:42.99Z</time></trkpt><trkpt lat="42.5804617" lon="12.754115"><ele>226.0</ele><time>2026-05-03T07:56:43.988Z</time></trkpt><trkpt lat="42.5804433" lon="12.7539183"><ele>226.0</ele><time>2026-05-03T07:56:44.987Z</time></trkpt><trkpt lat="42.5804317" lon="12.7537167"><ele>226.0</ele><time>2026-05-03T07:56:45.993Z</time></trkpt><trkpt lat="42.5804217" lon="12.753515"><ele>226.0</ele><time>2026-05-03T07:56:46.99Z</time></trkpt><trkpt lat="42.5804133" lon="12.7533183"><ele>225.25</ele><time>2026-05-03T07:56:47.99Z</time></trkpt><trkpt lat="42.5804083" lon="12.7531317"><ele>224.5</ele><time>2026-05-03T07:56:48.987Z</time></trkpt><trkpt lat="42.5804017" lon="12.7529567"><ele>223.75</ele><time>2026-05-03T07:56:49.988Z</time></trkpt><trkpt lat="42.580395" lon="12.75279"><ele>223.0</ele><time>2026-05-03T07:56:50.989Z</time></trkpt><trkpt lat="42.5803883" lon="12.7526283"><ele>223.0</ele><time>2026-05-03T07:56:51.99Z</time></trkpt><trkpt lat="42.5803833" lon="12.7524683"><ele>223.0</ele><time>2026-05-03T07:56:52.987Z</time></trkpt><trkpt lat="42.5803767" lon="12.7523117"><ele>223.0</ele><time>2026-05-03T07:56:53.989Z</time></trkpt><trkpt lat="42.5803717" lon="12.7521533"><ele>223.0</ele><time>2026-05-03T07:56:54.985Z</time></trkpt><trkpt lat="42.5803667" lon="12.751995"><ele>222.75</ele><time>2026-05-03T07:56:55.985Z</time></trkpt><trkpt lat="42.58036" lon="12.7518383"><ele>222.5</ele><time>2026-05-03T07:56:56.99Z</time></trkpt><trkpt lat="42.5803533" lon="12.7516783"><ele>222.25</ele><time>2026-05-03T07:56:57.989Z</time></trkpt><trkpt lat="42.5803483" lon="12.7515183"><ele>222.0</ele><time>2026-05-03T07:56:58.992Z</time></trkpt><trkpt lat="42.5803417" lon="12.75136"><ele>221.75</ele><time>2026-05-03T07:56:59.991Z</time></trkpt><trkpt lat="42.580335" lon="12.7512"><ele>221.5</ele><time>2026-05-03T07:57:00.987Z</time></trkpt><trkpt lat="42.5803283" lon="12.75104"><ele>221.25</ele><time>2026-05-03T07:57:01.994Z</time></trkpt><trkpt lat="42.5803217" lon="12.7508817"><ele>221.0</ele><time>2026-05-03T07:57:02.988Z</time></trkpt><trkpt lat="42.5803133" lon="12.75072"><ele>221.0</ele><time>2026-05-03T07:57:03.987Z</time></trkpt><trkpt lat="42.580305" lon="12.7505617"><ele>221.0</ele><time>2026-05-03T07:57:04.986Z</time></trkpt><trkpt lat="42.5802933" lon="12.750405"><ele>221.0</ele><time>2026-05-03T07:57:05.986Z</time></trkpt><trkpt lat="42.58028" lon="12.7502467"><ele>221.0</ele><time>2026-05-03T07:57:06.984Z</time></trkpt><trkpt lat="42.5802583" lon="12.75009"><ele>221.0</ele><time>2026-05-03T07:57:07.993Z</time></trkpt><trkpt lat="42.5802317" lon="12.7499383"><ele>221.0</ele><time>2026-05-03T07:57:08.985Z</time></trkpt><trkpt lat="42.5802017" lon="12.749785"><ele>221.0</ele><time>2026-05-03T07:57:09.997Z</time></trkpt><trkpt lat="42.5801683" lon="12.7496283"><ele>221.0</ele><time>2026-05-03T07:57:10.983Z</time></trkpt><trkpt lat="42.5801333" lon="12.7494667"><ele>220.75</ele><time>2026-05-03T07:57:11.992Z</time></trkpt><trkpt lat="42.580095" lon="12.7493"><ele>220.5</ele><time>2026-05-03T07:57:12.988Z</time></trkpt><trkpt lat="42.5800567" lon="12.7491317"><ele>220.25</ele><time>2026-05-03T07:57:13.988Z</time></trkpt><trkpt lat="42.5800183" lon="12.7489617"><ele>220.0</ele><time>2026-05-03T07:57:14.991Z</time></trkpt><trkpt lat="42.5799783" lon="12.74879"><ele>220.0</ele><time>2026-05-03T07:57:15.987Z</time></trkpt><trkpt lat="42.5799383" lon="12.74862"><ele>220.0</ele><time>2026-05-03T07:57:16.988Z</time></trkpt><trkpt lat="42.5798983" lon="12.7484467"><ele>220.0</ele><time>2026-05-03T07:57:17.981Z</time></trkpt><trkpt lat="42.57986" lon="12.748275"><ele>220.0</ele><time>2026-05-03T07:57:18.988Z</time></trkpt><trkpt lat="42.5798217" lon="12.7481067"><ele>219.5</ele><time>2026-05-03T07:57:19.985Z</time></trkpt><trkpt lat="42.579785" lon="12.7479383"><ele>219.0</ele><time>2026-05-03T07:57:20.988Z</time></trkpt><trkpt lat="42.5797483" lon="12.7477717"><ele>218.5</ele><time>2026-05-03T07:57:21.985Z</time></trkpt><trkpt lat="42.5797117" lon="12.7476033"><ele>218.0</ele><time>2026-05-03T07:57:22.991Z</time></trkpt><trkpt lat="42.5796733" lon="12.7474333"><ele>217.75</ele><time>2026-05-03T07:57:23.991Z</time></trkpt><trkpt lat="42.5796317" lon="12.74726"><ele>217.5</ele><time>2026-05-03T07:57:24.994Z</time></trkpt><trkpt lat="42.5795917" lon="12.7470833"><ele>217.25</ele><time>2026-05-03T07:57:25.992Z</time></trkpt><trkpt lat="42.57955" lon="12.746905"><ele>217.0</ele><time>2026-05-03T07:57:26.988Z</time></trkpt><trkpt lat="42.5795083" lon="12.7467217"><ele>217.5</ele><time>2026-05-03T07:57:27.988Z</time></trkpt><trkpt lat="42.5794633" lon="12.746535"><ele>218.0</ele><time>2026-05-03T07:57:28.993Z</time></trkpt><trkpt lat="42.57942" lon="12.7463417"><ele>218.5</ele><time>2026-05-03T07:57:29.989Z</time></trkpt><trkpt lat="42.5793767" lon="12.746145"><ele>219.0</ele><time>2026-05-03T07:57:30.987Z</time></trkpt><trkpt lat="42.57933" lon="12.7459433"><ele>219.0</ele><time>2026-05-03T07:57:31.988Z</time></trkpt><trkpt lat="42.5792817" lon="12.7457383"><ele>219.0</ele><time>2026-05-03T07:57:32.986Z</time></trkpt><trkpt lat="42.579235" lon="12.7455317"><ele>219.0</ele><time>2026-05-03T07:57:33.99Z</time></trkpt><trkpt lat="42.579185" lon="12.7453283"><ele>219.0</ele><time>2026-05-03T07:57:34.986Z</time></trkpt><trkpt lat="42.579135" lon="12.74513"><ele>219.0</ele><time>2026-05-03T07:57:35.984Z</time></trkpt><trkpt lat="42.579085" lon="12.7449383"><ele>219.0</ele><time>2026-05-03T07:57:36.992Z</time></trkpt><trkpt lat="42.5790417" lon="12.7447467"><ele>219.0</ele><time>2026-05-03T07:57:37.985Z</time></trkpt><trkpt lat="42.579" lon="12.7445567"><ele>219.0</ele><time>2026-05-03T07:57:38.991Z</time></trkpt><trkpt lat="42.5789583" lon="12.7443667"><ele>219.0</ele><time>2026-05-03T07:57:39.986Z</time></trkpt><trkpt lat="42.5789183" lon="12.7441733"><ele>219.0</ele><time>2026-05-03T07:57:40.989Z</time></trkpt><trkpt lat="42.5788767" lon="12.74398"><ele>218.66666666666669</ele><time>2026-05-03T07:57:41.992Z</time></trkpt><trkpt lat="42.5788333" lon="12.743785"><ele>218.33333333333334</ele><time>2026-05-03T07:57:42.992Z</time></trkpt><trkpt lat="42.5787883" lon="12.7435883"><ele>218.0</ele><time>2026-05-03T07:57:43.987Z</time></trkpt><trkpt lat="42.5787433" lon="12.74339"><ele>218.0</ele><time>2026-05-03T07:57:44.988Z</time></trkpt><trkpt lat="42.5786983" lon="12.7431867"><ele>218.0</ele><time>2026-05-03T07:57:45.99Z</time></trkpt><trkpt lat="42.57865" lon="12.7429833"><ele>218.0</ele><time>2026-05-03T07:57:46.988Z</time></trkpt><trkpt lat="42.5786" lon="12.7427783"><ele>218.0</ele><time>2026-05-03T07:57:47.986Z</time></trkpt><trkpt lat="42.5785533" lon="12.7425717"><ele>218.0</ele><time>2026-05-03T07:57:48.99Z</time></trkpt><trkpt lat="42.5785017" lon="12.7423683"><ele>218.0</ele><time>2026-05-03T07:57:49.982Z</time></trkpt><trkpt lat="42.57845" lon="12.74217"><ele>218.0</ele><time>2026-05-03T07:57:50.988Z</time></trkpt><trkpt lat="42.578395" lon="12.741975"><ele>218.0</ele><time>2026-05-03T07:57:51.993Z</time></trkpt><trkpt lat="42.5783383" lon="12.741785"><ele>218.0</ele><time>2026-05-03T07:57:52.987Z</time></trkpt><trkpt lat="42.5782717" lon="12.74161"><ele>218.0</ele><time>2026-05-03T07:57:53.987Z</time></trkpt><trkpt lat="42.57819" lon="12.74145"><ele>218.0</ele><time>2026-05-03T07:57:54.988Z</time></trkpt><trkpt lat="42.5781" lon="12.7413083"><ele>218.0</ele><time>2026-05-03T07:57:55.988Z</time></trkpt><trkpt lat="42.578005" lon="12.7411867"><ele>218.0</ele><time>2026-05-03T07:57:56.993Z</time></trkpt><trkpt lat="42.5778967" lon="12.741085"><ele>218.0</ele><time>2026-05-03T07:57:57.99Z</time></trkpt><trkpt lat="42.5777817" lon="12.7409983"><ele>218.0</ele><time>2026-05-03T07:57:58.991Z</time></trkpt><trkpt lat="42.5776633" lon="12.7409267"><ele>218.0</ele><time>2026-05-03T07:57:59.992Z</time></trkpt><trkpt lat="42.57755" lon="12.7408633"><ele>218.0</ele><time>2026-05-03T07:58:00.992Z</time></trkpt><trkpt lat="42.5774417" lon="12.7408067"><ele>218.0</ele><time>2026-05-03T07:58:01.987Z</time></trkpt><trkpt lat="42.5773367" lon="12.7407483"><ele>218.0</ele><time>2026-05-03T07:58:02.993Z</time></trkpt><trkpt lat="42.5772317" lon="12.7406917"><ele>218.0</ele><time>2026-05-03T07:58:03.984Z</time></trkpt><trkpt lat="42.57713" lon="12.7406333"><ele>218.0</ele><time>2026-05-03T07:58:04.994Z</time></trkpt><trkpt lat="42.57703" lon="12.7405767"><ele>218.0</ele><time>2026-05-03T07:58:05.997Z</time></trkpt><trkpt lat="42.5769283" lon="12.740515"><ele>218.0</ele><time>2026-05-03T07:58:06.992Z</time></trkpt><trkpt lat="42.576825" lon="12.740455"><ele>218.0</ele><time>2026-05-03T07:58:07.991Z</time></trkpt><trkpt lat="42.5767167" lon="12.74039"><ele>218.0</ele><time>2026-05-03T07:58:08.991Z</time></trkpt><trkpt lat="42.5766017" lon="12.7403217"><ele>218.0</ele><time>2026-05-03T07:58:09.986Z</time></trkpt><trkpt lat="42.5764817" lon="12.74025"><ele>217.75</ele><time>2026-05-03T07:58:10.989Z</time></trkpt><trkpt lat="42.576355" lon="12.74018"><ele>217.5</ele><time>2026-05-03T07:58:11.994Z</time></trkpt><trkpt lat="42.576225" lon="12.7401167"><ele>217.25</ele><time>2026-05-03T07:58:12.994Z</time></trkpt><trkpt lat="42.5760917" lon="12.740065"><ele>217.0</ele><time>2026-05-03T07:58:13.989Z</time></trkpt><trkpt lat="42.575955" lon="12.7400333"><ele>217.0</ele><time>2026-05-03T07:58:14.992Z</time></trkpt><trkpt lat="42.57582" lon="12.7400217"><ele>217.0</ele><time>2026-05-03T07:58:15.989Z</time></trkpt><trkpt lat="42.5756833" lon="12.74003"><ele>217.0</ele><time>2026-05-03T07:58:16.99Z</time></trkpt><trkpt lat="42.5755483" lon="12.74005"><ele>217.0</ele><time>2026-05-03T07:58:17.994Z</time></trkpt><trkpt lat="42.575415" lon="12.740075"><ele>217.5</ele><time>2026-05-03T07:58:18.988Z</time></trkpt><trkpt lat="42.57528" lon="12.7401017"><ele>218.0</ele><time>2026-05-03T07:58:19.988Z</time></trkpt><trkpt lat="42.5751467" lon="12.74013"><ele>218.5</ele><time>2026-05-03T07:58:20.991Z</time></trkpt><trkpt lat="42.5750117" lon="12.7401583"><ele>219.0</ele><time>2026-05-03T07:58:21.985Z</time></trkpt><trkpt lat="42.5748783" lon="12.74019"><ele>219.25</ele><time>2026-05-03T07:58:22.99Z</time></trkpt><trkpt lat="42.574745" lon="12.7402183"><ele>219.5</ele><time>2026-05-03T07:58:23.988Z</time></trkpt><trkpt lat="42.5746133" lon="12.7402433"><ele>219.75</ele><time>2026-05-03T07:58:24.985Z</time></trkpt><trkpt lat="42.5744817" lon="12.7402633"><ele>220.0</ele><time>2026-05-03T07:58:25.988Z</time></trkpt><trkpt lat="42.5743517" lon="12.740285"><ele>220.0</ele><time>2026-05-03T07:58:26.987Z</time></trkpt><trkpt lat="42.5742217" lon="12.74031"><ele>220.0</ele><time>2026-05-03T07:58:27.988Z</time></trkpt><trkpt lat="42.574095" lon="12.7403367"><ele>220.0</ele><time>2026-05-03T07:58:28.987Z</time></trkpt><trkpt lat="42.5739667" lon="12.74036"><ele>220.0</ele><time>2026-05-03T07:58:29.985Z</time></trkpt><trkpt lat="42.5738383" lon="12.7403733"><ele>220.0</ele><time>2026-05-03T07:58:30.997Z</time></trkpt><trkpt lat="42.573705" lon="12.7403767"><ele>220.0</ele><time>2026-05-03T07:58:31.989Z</time></trkpt><trkpt lat="42.5735717" lon="12.7403667"><ele>220.0</ele><time>2026-05-03T07:58:32.99Z</time></trkpt><trkpt lat="42.5734367" lon="12.740345"><ele>220.0</ele><time>2026-05-03T07:58:33.993Z</time></trkpt><trkpt lat="42.573305" lon="12.7403067"><ele>220.25</ele><time>2026-05-03T07:58:34.986Z</time></trkpt><trkpt lat="42.5731733" lon="12.7402583"><ele>220.5</ele><time>2026-05-03T07:58:35.987Z</time></trkpt><trkpt lat="42.5730383" lon="12.74021"><ele>220.75</ele><time>2026-05-03T07:58:36.986Z</time></trkpt><trkpt lat="42.5729067" lon="12.7401583"><ele>221.0</ele><time>2026-05-03T07:58:37.985Z</time></trkpt><trkpt lat="42.5727817" lon="12.740105"><ele>222.5</ele><time>2026-05-03T07:58:38.985Z</time></trkpt><trkpt lat="42.5726583" lon="12.740055"><ele>224.0</ele><time>2026-05-03T07:58:39.99Z</time></trkpt><trkpt lat="42.5725417" lon="12.73999"><ele>225.5</ele><time>2026-05-03T07:58:40.99Z</time></trkpt><trkpt lat="42.5724367" lon="12.7399033"><ele>227.0</ele><time>2026-05-03T07:58:41.987Z</time></trkpt><trkpt lat="42.5723367" lon="12.7398"><ele>227.0</ele><time>2026-05-03T07:58:42.982Z</time></trkpt><trkpt lat="42.5722433" lon="12.7396717"><ele>227.0</ele><time>2026-05-03T07:58:43.99Z</time></trkpt><trkpt lat="42.57215" lon="12.7395317"><ele>227.0</ele><time>2026-05-03T07:58:44.987Z</time></trkpt><trkpt lat="42.572055" lon="12.7393883"><ele>227.0</ele><time>2026-05-03T07:58:45.987Z</time></trkpt><trkpt lat="42.57196" lon="12.7392433"><ele>225.5</ele><time>2026-05-03T07:58:46.987Z</time></trkpt><trkpt lat="42.5718633" lon="12.7390917"><ele>224.0</ele><time>2026-05-03T07:58:47.993Z</time></trkpt><trkpt lat="42.571765" lon="12.73894"><ele>222.5</ele><time>2026-05-03T07:58:48.99Z</time></trkpt><trkpt lat="42.5716667" lon="12.7387833"><ele>221.0</ele><time>2026-05-03T07:58:49.994Z</time></trkpt><trkpt lat="42.5715683" lon="12.7386267"><ele>220.25</ele><time>2026-05-03T07:58:50.988Z</time></trkpt><trkpt lat="42.5714717" lon="12.7384767"><ele>219.5</ele><time>2026-05-03T07:58:51.987Z</time></trkpt><trkpt lat="42.571375" lon="12.7383233"><ele>218.75</ele><time>2026-05-03T07:58:52.988Z</time></trkpt><trkpt lat="42.57128" lon="12.73817"><ele>218.0</ele><time>2026-05-03T07:58:53.988Z</time></trkpt><trkpt lat="42.5711833" lon="12.7380133"><ele>218.0</ele><time>2026-05-03T07:58:54.991Z</time></trkpt><trkpt lat="42.571085" lon="12.7378533"><ele>218.0</ele><time>2026-05-03T07:58:55.99Z</time></trkpt><trkpt lat="42.5709867" lon="12.7376883"><ele>218.0</ele><time>2026-05-03T07:58:56.985Z</time></trkpt><trkpt lat="42.570885" lon="12.7375267"><ele>219.0</ele><time>2026-05-03T07:58:57.987Z</time></trkpt><trkpt lat="42.5707817" lon="12.7373683"><ele>220.0</ele><time>2026-05-03T07:58:58.987Z</time></trkpt><trkpt lat="42.57067" lon="12.7372217"><ele>221.0</ele><time>2026-05-03T07:58:59.994Z</time></trkpt><trkpt lat="42.5705533" lon="12.7370983"><ele>221.0</ele><time>2026-05-03T07:59:00.986Z</time></trkpt><trkpt lat="42.5704233" lon="12.7370017"><ele>221.0</ele><time>2026-05-03T07:59:01.99Z</time></trkpt><trkpt lat="42.5702883" lon="12.73692"><ele>221.0</ele><time>2026-05-03T07:59:02.988Z</time></trkpt><trkpt lat="42.5701483" lon="12.736845"><ele>221.0</ele><time>2026-05-03T07:59:03.987Z</time></trkpt><trkpt lat="42.5700033" lon="12.736775"><ele>224.33333333333334</ele><time>2026-05-03T07:59:04.984Z</time></trkpt><trkpt lat="42.569855" lon="12.7367033"><ele>227.66666666666669</ele><time>2026-05-03T07:59:05.993Z</time></trkpt><trkpt lat="42.5697133" lon="12.73662"><ele>231.0</ele><time>2026-05-03T07:59:06.985Z</time></trkpt><trkpt lat="42.56957" lon="12.7365417"><ele>228.25</ele><time>2026-05-03T07:59:07.988Z</time></trkpt><trkpt lat="42.56943" lon="12.736455"><ele>225.5</ele><time>2026-05-03T07:59:08.989Z</time></trkpt><trkpt lat="42.5693" lon="12.7363617"><ele>222.75</ele><time>2026-05-03T07:59:09.991Z</time></trkpt><trkpt lat="42.5691783" lon="12.7362583"><ele>220.0</ele><time>2026-05-03T07:59:10.987Z</time></trkpt><trkpt lat="42.56906" lon="12.73615"><ele>219.5</ele><time>2026-05-03T07:59:11.989Z</time></trkpt><trkpt lat="42.5689433" lon="12.7360317"><ele>219.0</ele><time>2026-05-03T07:59:12.988Z</time></trkpt><trkpt lat="42.568825" lon="12.735915"><ele>218.5</ele><time>2026-05-03T07:59:13.986Z</time></trkpt><trkpt lat="42.5687067" lon="12.7357933"><ele>218.0</ele><time>2026-05-03T07:59:14.986Z</time></trkpt><trkpt lat="42.5685883" lon="12.735665"><ele>218.0</ele><time>2026-05-03T07:59:15.985Z</time></trkpt><trkpt lat="42.5684667" lon="12.7355333"><ele>218.0</ele><time>2026-05-03T07:59:16.989Z</time></trkpt><trkpt lat="42.568345" lon="12.7354017"><ele>218.0</ele><time>2026-05-03T07:59:17.99Z</time></trkpt><trkpt lat="42.5682233" lon="12.7352717"><ele>218.33333333333334</ele><time>2026-05-03T07:59:18.991Z</time></trkpt><trkpt lat="42.5681017" lon="12.7351367"><ele>218.66666666666669</ele><time>2026-05-03T07:59:19.989Z</time></trkpt><trkpt lat="42.56798" lon="12.7350083"><ele>219.0</ele><time>2026-05-03T07:59:20.989Z</time></trkpt><trkpt lat="42.5678567" lon="12.7348767"><ele>217.66666666666669</ele><time>2026-05-03T07:59:21.992Z</time></trkpt><trkpt lat="42.5677333" lon="12.734745"><ele>216.33333333333334</ele><time>2026-05-03T07:59:22.991Z</time></trkpt><trkpt lat="42.56761" lon="12.7346167"><ele>215.0</ele><time>2026-05-03T07:59:23.986Z</time></trkpt><trkpt lat="42.5674867" lon="12.7344833"><ele>215.0</ele><time>2026-05-03T07:59:24.987Z</time></trkpt><trkpt lat="42.5673633" lon="12.73435"><ele>215.0</ele><time>2026-05-03T07:59:25.989Z</time></trkpt><trkpt lat="42.56724" lon="12.7342167"><ele>215.0</ele><time>2026-05-03T07:59:26.986Z</time></trkpt><trkpt lat="42.567115" lon="12.734085"><ele>215.0</ele><time>2026-05-03T07:59:27.994Z</time></trkpt><trkpt lat="42.5669917" lon="12.733955"><ele>215.0</ele><time>2026-05-03T07:59:28.987Z</time></trkpt><trkpt lat="42.5668667" lon="12.7338283"><ele>215.0</ele><time>2026-05-03T07:59:29.985Z</time></trkpt><trkpt lat="42.5667417" lon="12.7337"><ele>215.0</ele><time>2026-05-03T07:59:30.985Z</time></trkpt><trkpt lat="42.5666167" lon="12.73357"><ele>215.0</ele><time>2026-05-03T07:59:31.986Z</time></trkpt><trkpt lat="42.5664933" lon="12.7334417"><ele>215.0</ele><time>2026-05-03T07:59:32.991Z</time></trkpt><trkpt lat="42.56637" lon="12.73331"><ele>215.0</ele><time>2026-05-03T07:59:33.988Z</time></trkpt><trkpt lat="42.5662483" lon="12.7331783"><ele>215.0</ele><time>2026-05-03T07:59:34.987Z</time></trkpt><trkpt lat="42.5661267" lon="12.7330417"><ele>215.0</ele><time>2026-05-03T07:59:35.985Z</time></trkpt><trkpt lat="42.5660067" lon="12.7329083"><ele>215.0</ele><time>2026-05-03T07:59:36.987Z</time></trkpt><trkpt lat="42.5658867" lon="12.7327833"><ele>215.0</ele><time>2026-05-03T07:59:37.992Z</time></trkpt><trkpt lat="42.5657683" lon="12.732655"><ele>215.0</ele><time>2026-05-03T07:59:38.984Z</time></trkpt><trkpt lat="42.5656483" lon="12.7325283"><ele>215.0</ele><time>2026-05-03T07:59:39.987Z</time></trkpt><trkpt lat="42.5655283" lon="12.7324033"><ele>215.0</ele><time>2026-05-03T07:59:40.987Z</time></trkpt><trkpt lat="42.565415" lon="12.7322833"><ele>215.0</ele><time>2026-05-03T07:59:41.985Z</time></trkpt><trkpt lat="42.5653067" lon="12.7321633"><ele>215.0</ele><time>2026-05-03T07:59:42.984Z</time></trkpt><trkpt lat="42.565215" lon="12.73203"><ele>216.75</ele><time>2026-05-03T07:59:43.989Z</time></trkpt><trkpt lat="42.5651483" lon="12.7318833"><ele>218.5</ele><time>2026-05-03T07:59:44.987Z</time></trkpt><trkpt lat="42.5651" lon="12.7317117"><ele>220.25</ele><time>2026-05-03T07:59:45.987Z</time></trkpt><trkpt lat="42.5650667" lon="12.7315233"><ele>222.0</ele><time>2026-05-03T07:59:46.99Z</time></trkpt><trkpt lat="42.565045" lon="12.7313233"><ele>222.0</ele><time>2026-05-03T07:59:47.992Z</time></trkpt><trkpt lat="42.5650333" lon="12.731115"><ele>222.0</ele><time>2026-05-03T07:59:48.985Z</time></trkpt><trkpt lat="42.565025" lon="12.7309017"><ele>222.0</ele><time>2026-05-03T07:59:49.99Z</time></trkpt><trkpt lat="42.56502" lon="12.7306833"><ele>222.66666666666669</ele><time>2026-05-03T07:59:50.989Z</time></trkpt><trkpt lat="42.565015" lon="12.7304583"><ele>223.33333333333334</ele><time>2026-05-03T07:59:51.986Z</time></trkpt><trkpt lat="42.5650183" lon="12.730235"><ele>224.0</ele><time>2026-05-03T07:59:52.985Z</time></trkpt><trkpt lat="42.5650233" lon="12.7300183"><ele>224.0</ele><time>2026-05-03T07:59:53.988Z</time></trkpt><trkpt lat="42.5650233" lon="12.729805"><ele>224.0</ele><time>2026-05-03T07:59:54.99Z</time></trkpt><trkpt lat="42.5650217" lon="12.7295967"><ele>224.0</ele><time>2026-05-03T07:59:55.995Z</time></trkpt><trkpt lat="42.5650117" lon="12.7293917"><ele>225.25</ele><time>2026-05-03T07:59:56.985Z</time></trkpt><trkpt lat="42.564995" lon="12.7291883"><ele>226.5</ele><time>2026-05-03T07:59:57.985Z</time></trkpt><trkpt lat="42.564965" lon="12.72899"><ele>227.75</ele><time>2026-05-03T07:59:58.986Z</time></trkpt><trkpt lat="42.56492" lon="12.7288017"><ele>229.0</ele><time>2026-05-03T07:59:59.984Z</time></trkpt><trkpt lat="42.564855" lon="12.7286283"><ele>229.75</ele><time>2026-05-03T08:00:00.987Z</time></trkpt><trkpt lat="42.5647733" lon="12.7284733"><ele>230.5</ele><time>2026-05-03T08:00:01.99Z</time></trkpt><trkpt lat="42.5646717" lon="12.7283267"><ele>231.25</ele><time>2026-05-03T08:00:02.99Z</time></trkpt><trkpt lat="42.5645567" lon="12.728195"><ele>232.0</ele><time>2026-05-03T08:00:03.988Z</time></trkpt><trkpt lat="42.5644317" lon="12.7280733"><ele>228.0</ele><time>2026-05-03T08:00:04.986Z</time></trkpt><trkpt lat="42.5643033" lon="12.7279583"><ele>224.0</ele><time>2026-05-03T08:00:05.99Z</time></trkpt><trkpt lat="42.56417" lon="12.727845"><ele>220.0</ele><time>2026-05-03T08:00:06.988Z</time></trkpt><trkpt lat="42.5640367" lon="12.7277333"><ele>220.0</ele><time>2026-05-03T08:00:07.988Z</time></trkpt><trkpt lat="42.5639083" lon="12.72762"><ele>220.0</ele><time>2026-05-03T08:00:08.994Z</time></trkpt><trkpt lat="42.5637833" lon="12.72751"><ele>220.0</ele><time>2026-05-03T08:00:09.984Z</time></trkpt><trkpt lat="42.56366" lon="12.7274"><ele>219.75</ele><time>2026-05-03T08:00:10.992Z</time></trkpt><trkpt lat="42.5635383" lon="12.72729"><ele>219.5</ele><time>2026-05-03T08:00:11.99Z</time></trkpt><trkpt lat="42.563415" lon="12.7271783"><ele>219.25</ele><time>2026-05-03T08:00:12.987Z</time></trkpt><trkpt lat="42.5632883" lon="12.727065"><ele>219.0</ele><time>2026-05-03T08:00:13.984Z</time></trkpt><trkpt lat="42.56316" lon="12.7269517"><ele>219.66666666666669</ele><time>2026-05-03T08:00:14.988Z</time></trkpt><trkpt lat="42.5630283" lon="12.7268367"><ele>220.33333333333334</ele><time>2026-05-03T08:00:15.988Z</time></trkpt><trkpt lat="42.5628967" lon="12.72672"><ele>221.0</ele><time>2026-05-03T08:00:16.99Z</time></trkpt><trkpt lat="42.5627633" lon="12.7266"><ele>221.0</ele><time>2026-05-03T08:00:17.988Z</time></trkpt><trkpt lat="42.5626267" lon="12.7264833"><ele>221.0</ele><time>2026-05-03T08:00:18.988Z</time></trkpt><trkpt lat="42.5624917" lon="12.7263633"><ele>221.0</ele><time>2026-05-03T08:00:19.988Z</time></trkpt><trkpt lat="42.562355" lon="12.726245"><ele>221.0</ele><time>2026-05-03T08:00:20.992Z</time></trkpt><trkpt lat="42.5622167" lon="12.726125"><ele>221.0</ele><time>2026-05-03T08:00:21.989Z</time></trkpt><trkpt lat="42.5620767" lon="12.7260033"><ele>221.0</ele><time>2026-05-03T08:00:22.985Z</time></trkpt><trkpt lat="42.5619367" lon="12.7258767"><ele>221.0</ele><time>2026-05-03T08:00:23.987Z</time></trkpt><trkpt lat="42.5617967" lon="12.725745"><ele>221.0</ele><time>2026-05-03T08:00:24.989Z</time></trkpt><trkpt lat="42.5616517" lon="12.7256183"><ele>221.0</ele><time>2026-05-03T08:00:25.982Z</time></trkpt><trkpt lat="42.561505" lon="12.7254917"><ele>221.0</ele><time>2026-05-03T08:00:26.986Z</time></trkpt><trkpt lat="42.56136" lon="12.725365"><ele>221.0</ele><time>2026-05-03T08:00:27.986Z</time></trkpt><trkpt lat="42.5612183" lon="12.7252417"><ele>221.0</ele><time>2026-05-03T08:00:28.988Z</time></trkpt><trkpt lat="42.5610783" lon="12.7251217"><ele>219.33333333333334</ele><time>2026-05-03T08:00:29.993Z</time></trkpt><trkpt lat="42.5609417" lon="12.7250017"><ele>217.66666666666669</ele><time>2026-05-03T08:00:30.992Z</time></trkpt><trkpt lat="42.5608033" lon="12.72488"><ele>216.0</ele><time>2026-05-03T08:00:31.995Z</time></trkpt><trkpt lat="42.5606667" lon="12.7247583"><ele>216.0</ele><time>2026-05-03T08:00:32.989Z</time></trkpt><trkpt lat="42.56053" lon="12.72464"><ele>216.0</ele><time>2026-05-03T08:00:33.989Z</time></trkpt><trkpt lat="42.5603933" lon="12.72452"><ele>216.0</ele><time>2026-05-03T08:00:34.989Z</time></trkpt><trkpt lat="42.560255" lon="12.7243967"><ele>217.33333333333331</ele><time>2026-05-03T08:00:35.992Z</time></trkpt><trkpt lat="42.5601167" lon="12.7242717"><ele>218.66666666666666</ele><time>2026-05-03T08:00:36.986Z</time></trkpt><trkpt lat="42.559975" lon="12.72415"><ele>220.0</ele><time>2026-05-03T08:00:37.99Z</time></trkpt><trkpt lat="42.5598333" lon="12.724025"><ele>220.0</ele><time>2026-05-03T08:00:38.991Z</time></trkpt><trkpt lat="42.5596917" lon="12.7239"><ele>220.0</ele><time>2026-05-03T08:00:39.986Z</time></trkpt><trkpt lat="42.5595517" lon="12.7237817"><ele>220.0</ele><time>2026-05-03T08:00:40.986Z</time></trkpt><trkpt lat="42.559415" lon="12.7236617"><ele>219.33333333333331</ele><time>2026-05-03T08:00:41.985Z</time></trkpt><trkpt lat="42.5592817" lon="12.72354"><ele>218.66666666666669</ele><time>2026-05-03T08:00:42.99Z</time></trkpt><trkpt lat="42.5591517" lon="12.7234133"><ele>218.0</ele><time>2026-05-03T08:00:43.985Z</time></trkpt><trkpt lat="42.5590267" lon="12.7232817"><ele>218.0</ele><time>2026-05-03T08:00:44.984Z</time></trkpt><trkpt lat="42.55891" lon="12.7231383"><ele>218.0</ele><time>2026-05-03T08:00:45.989Z</time></trkpt><trkpt lat="42.558805" lon="12.7229817"><ele>218.0</ele><time>2026-05-03T08:00:46.985Z</time></trkpt><trkpt lat="42.5587117" lon="12.7228083"><ele>219.0</ele><time>2026-05-03T08:00:47.996Z</time></trkpt><trkpt lat="42.5586267" lon="12.72263"><ele>220.0</ele><time>2026-05-03T08:00:48.989Z</time></trkpt><trkpt lat="42.5585417" lon="12.7224467"><ele>221.0</ele><time>2026-05-03T08:00:49.988Z</time></trkpt><trkpt lat="42.5584583" lon="12.7222633"><ele>221.0</ele><time>2026-05-03T08:00:50.985Z</time></trkpt><trkpt lat="42.5583733" lon="12.7220733"><ele>221.0</ele><time>2026-05-03T08:00:51.991Z</time></trkpt><trkpt lat="42.5582867" lon="12.72188"><ele>221.0</ele><time>2026-05-03T08:00:52.987Z</time></trkpt><trkpt lat="42.5581983" lon="12.7216883"><ele>224.33333333333334</ele><time>2026-05-03T08:00:53.986Z</time></trkpt><trkpt lat="42.5581117" lon="12.7214933"><ele>227.66666666666669</ele><time>2026-05-03T08:00:54.988Z</time></trkpt><trkpt lat="42.558025" lon="12.7212967"><ele>231.0</ele><time>2026-05-03T08:00:55.991Z</time></trkpt><trkpt lat="42.55794" lon="12.7211017"><ele>227.0</ele><time>2026-05-03T08:00:56.986Z</time></trkpt><trkpt lat="42.5578533" lon="12.7209083"><ele>223.0</ele><time>2026-05-03T08:00:57.985Z</time></trkpt><trkpt lat="42.557765" lon="12.720715"><ele>219.0</ele><time>2026-05-03T08:00:58.987Z</time></trkpt><trkpt lat="42.5576767" lon="12.7205233"><ele>219.0</ele><time>2026-05-03T08:00:59.984Z</time></trkpt><trkpt lat="42.5575917" lon="12.7203267"><ele>219.0</ele><time>2026-05-03T08:01:00.99Z</time></trkpt><trkpt lat="42.5575033" lon="12.7201333"><ele>219.0</ele><time>2026-05-03T08:01:01.991Z</time></trkpt><trkpt lat="42.5574167" lon="12.7199367"><ele>220.33333333333331</ele><time>2026-05-03T08:01:02.984Z</time></trkpt><trkpt lat="42.5573333" lon="12.71974"><ele>221.66666666666666</ele><time>2026-05-03T08:01:03.984Z</time></trkpt><trkpt lat="42.5572467" lon="12.719545"><ele>223.0</ele><time>2026-05-03T08:01:04.982Z</time></trkpt><trkpt lat="42.55716" lon="12.7193517"><ele>221.66666666666666</ele><time>2026-05-03T08:01:05.985Z</time></trkpt><trkpt lat="42.557075" lon="12.7191567"><ele>220.33333333333331</ele><time>2026-05-03T08:01:06.992Z</time></trkpt><trkpt lat="42.5569933" lon="12.7189617"><ele>219.0</ele><time>2026-05-03T08:01:07.982Z</time></trkpt><trkpt lat="42.5569083" lon="12.71877"><ele>219.0</ele><time>2026-05-03T08:01:08.987Z</time></trkpt><trkpt lat="42.556825" lon="12.7185833"><ele>219.0</ele><time>2026-05-03T08:01:09.985Z</time></trkpt><trkpt lat="42.556745" lon="12.7184017"><ele>219.0</ele><time>2026-05-03T08:01:10.984Z</time></trkpt><trkpt lat="42.5566633" lon="12.71823"><ele>220.25</ele><time>2026-05-03T08:01:11.984Z</time></trkpt><trkpt lat="42.5565783" lon="12.7180667"><ele>221.5</ele><time>2026-05-03T08:01:12.985Z</time></trkpt><trkpt lat="42.5565017" lon="12.7178967"><ele>222.75</ele><time>2026-05-03T08:01:13.989Z</time></trkpt><trkpt lat="42.556415" lon="12.7177417"><ele>224.0</ele><time>2026-05-03T08:01:14.987Z</time></trkpt><trkpt lat="42.5563267" lon="12.717595"><ele>221.75</ele><time>2026-05-03T08:01:15.989Z</time></trkpt><trkpt lat="42.5562317" lon="12.7174517"><ele>219.5</ele><time>2026-05-03T08:01:16.987Z</time></trkpt><trkpt lat="42.5561317" lon="12.7173117"><ele>217.25</ele><time>2026-05-03T08:01:17.989Z</time></trkpt><trkpt lat="42.55603" lon="12.7171867"><ele>215.0</ele><time>2026-05-03T08:01:18.987Z</time></trkpt><trkpt lat="42.5559333" lon="12.7170833"><ele>215.00000000000003</ele><time>2026-05-03T08:01:19.991Z</time></trkpt><trkpt lat="42.5558533" lon="12.7169967"><ele>215.0</ele><time>2026-05-03T08:01:20.982Z</time></trkpt><trkpt lat="42.555785" lon="12.716925"><ele>215.0</ele><time>2026-05-03T08:01:21.985Z</time></trkpt><trkpt lat="42.5557233" lon="12.7168583"><ele>215.0</ele><time>2026-05-03T08:01:22.984Z</time></trkpt><trkpt lat="42.5556617" lon="12.716795"><ele>215.00000000000003</ele><time>2026-05-03T08:01:23.988Z</time></trkpt><trkpt lat="42.5555933" lon="12.7167283"><ele>215.0</ele><time>2026-05-03T08:01:24.987Z</time></trkpt><trkpt lat="42.5555167" lon="12.7166583"><ele>215.4</ele><time>2026-05-03T08:01:25.993Z</time></trkpt><trkpt lat="42.555435" lon="12.71658"><ele>215.8</ele><time>2026-05-03T08:01:26.993Z</time></trkpt><trkpt lat="42.55535" lon="12.716495"><ele>216.2</ele><time>2026-05-03T08:01:27.988Z</time></trkpt><trkpt lat="42.55526" lon="12.7164017"><ele>216.6</ele><time>2026-05-03T08:01:28.991Z</time></trkpt><trkpt lat="42.555165" lon="12.716305"><ele>217.0</ele><time>2026-05-03T08:01:29.991Z</time></trkpt><trkpt lat="42.5550667" lon="12.7162083"><ele>217.0</ele><time>2026-05-03T08:01:30.988Z</time></trkpt><trkpt lat="42.554965" lon="12.7161067"><ele>217.0</ele><time>2026-05-03T08:01:31.987Z</time></trkpt><trkpt lat="42.5548617" lon="12.7160017"><ele>217.0</ele><time>2026-05-03T08:01:32.987Z</time></trkpt><trkpt lat="42.5547567" lon="12.7158933"><ele>217.0</ele><time>2026-05-03T08:01:33.984Z</time></trkpt><trkpt lat="42.5546517" lon="12.7157833"><ele>217.25</ele><time>2026-05-03T08:01:34.988Z</time></trkpt><trkpt lat="42.55455" lon="12.71567"><ele>217.5</ele><time>2026-05-03T08:01:35.986Z</time></trkpt><trkpt lat="42.5544533" lon="12.7155567"><ele>217.75</ele><time>2026-05-03T08:01:36.991Z</time></trkpt><trkpt lat="42.554365" lon="12.7154367"><ele>218.0</ele><time>2026-05-03T08:01:37.99Z</time></trkpt><trkpt lat="42.554295" lon="12.715305"><ele>221.4</ele><time>2026-05-03T08:01:38.988Z</time></trkpt><trkpt lat="42.5542433" lon="12.71516"><ele>224.8</ele><time>2026-05-03T08:01:39.988Z</time></trkpt><trkpt lat="42.5542133" lon="12.715005"><ele>228.2</ele><time>2026-05-03T08:01:40.991Z</time></trkpt><trkpt lat="42.5541917" lon="12.7148583"><ele>231.6</ele><time>2026-05-03T08:01:41.991Z</time></trkpt><trkpt lat="42.5541767" lon="12.7147233"><ele>235.0</ele><time>2026-05-03T08:01:42.989Z</time></trkpt><trkpt lat="42.5541667" lon="12.7146183"><ele>235.0</ele><time>2026-05-03T08:01:43.985Z</time></trkpt><trkpt lat="42.554145" lon="12.7144917"><ele>235.0</ele><time>2026-05-03T08:01:44.986Z</time></trkpt><trkpt lat="42.5541217" lon="12.71436"><ele>235.0</ele><time>2026-05-03T08:01:45.989Z</time></trkpt><trkpt lat="42.5541033" lon="12.7142283"><ele>235.0</ele><time>2026-05-03T08:01:46.991Z</time></trkpt><trkpt lat="42.554085" lon="12.7140967"><ele>235.0</ele><time>2026-05-03T08:01:47.992Z</time></trkpt><trkpt lat="42.5540617" lon="12.7139633"><ele>235.66666666666666</ele><time>2026-05-03T08:01:48.986Z</time></trkpt><trkpt lat="42.5540367" lon="12.71371"><ele>236.33333333333331</ele><time>2026-05-03T08:01:49.987Z</time></trkpt><trkpt lat="42.5540417" lon="12.7134483"><ele>237.0</ele><time>2026-05-03T08:01:50.987Z</time></trkpt><trkpt lat="42.5540883" lon="12.7131883"><ele>237.0</ele><time>2026-05-03T08:01:51.989Z</time></trkpt><trkpt lat="42.5541533" lon="12.7129683"><ele>237.0</ele><time>2026-05-03T08:01:52.984Z</time></trkpt><trkpt lat="42.5542267" lon="12.7127933"><ele>237.0</ele><time>2026-05-03T08:01:53.99Z</time></trkpt><trkpt lat="42.5543183" lon="12.7126117"><ele>237.33333333333331</ele><time>2026-05-03T08:01:54.984Z</time></trkpt><trkpt lat="42.5544183" lon="12.71243"><ele>237.66666666666666</ele><time>2026-05-03T08:01:55.991Z</time></trkpt><trkpt lat="42.554515" lon="12.7122483"><ele>238.0</ele><time>2026-05-03T08:01:56.986Z</time></trkpt><trkpt lat="42.55461" lon="12.71206"><ele>231.33333333333331</ele><time>2026-05-03T08:01:57.988Z</time></trkpt><trkpt lat="42.554695" lon="12.71185"><ele>224.66666666666669</ele><time>2026-05-03T08:01:58.987Z</time></trkpt><trkpt lat="42.554765" lon="12.711625"><ele>218.0</ele><time>2026-05-03T08:01:59.987Z</time></trkpt><trkpt lat="42.5548283" lon="12.7113917"><ele>218.0</ele><time>2026-05-03T08:02:00.99Z</time></trkpt><trkpt lat="42.554895" lon="12.71115"><ele>218.0</ele><time>2026-05-03T08:02:01.988Z</time></trkpt><trkpt lat="42.5549633" lon="12.7109033"><ele>218.0</ele><time>2026-05-03T08:02:02.986Z</time></trkpt><trkpt lat="42.55503" lon="12.7106567"><ele>214.66666666666669</ele><time>2026-05-03T08:02:03.984Z</time></trkpt><trkpt lat="42.555095" lon="12.7104183"><ele>211.33333333333331</ele><time>2026-05-03T08:02:04.987Z</time></trkpt><trkpt lat="42.5551583" lon="12.7101817"><ele>208.0</ele><time>2026-05-03T08:02:05.988Z</time></trkpt><trkpt lat="42.5552183" lon="12.709955"><ele>206.66666666666666</ele><time>2026-05-03T08:02:06.987Z</time></trkpt><trkpt lat="42.555275" lon="12.7097383"><ele>205.33333333333331</ele><time>2026-05-03T08:02:07.983Z</time></trkpt><trkpt lat="42.5553233" lon="12.7095317"><ele>204.0</ele><time>2026-05-03T08:02:08.985Z</time></trkpt><trkpt lat="42.55537" lon="12.7093283"><ele>214.66666666666669</ele><time>2026-05-03T08:02:09.991Z</time></trkpt><trkpt lat="42.5554033" lon="12.7091167"><ele>225.33333333333334</ele><time>2026-05-03T08:02:10.987Z</time></trkpt><trkpt lat="42.5554183" lon="12.708895"><ele>236.0</ele><time>2026-05-03T08:02:11.986Z</time></trkpt><trkpt lat="42.5554183" lon="12.7086633"><ele>236.0</ele><time>2026-05-03T08:02:12.984Z</time></trkpt><trkpt lat="42.5554067" lon="12.7084283"><ele>236.0</ele><time>2026-05-03T08:02:13.984Z</time></trkpt><trkpt lat="42.5553933" lon="12.7081967"><ele>236.0</ele><time>2026-05-03T08:02:14.991Z</time></trkpt><trkpt lat="42.55538" lon="12.70797"><ele>225.33333333333334</ele><time>2026-05-03T08:02:15.991Z</time></trkpt><trkpt lat="42.5553633" lon="12.7077533"><ele>214.66666666666669</ele><time>2026-05-03T08:02:16.987Z</time></trkpt><trkpt lat="42.5553567" lon="12.7075417"><ele>204.0</ele><time>2026-05-03T08:02:17.985Z</time></trkpt><trkpt lat="42.5553617" lon="12.7073333"><ele>208.33333333333331</ele><time>2026-05-03T08:02:18.99Z</time></trkpt><trkpt lat="42.5553733" lon="12.7071267"><ele>212.66666666666666</ele><time>2026-05-03T08:02:19.989Z</time></trkpt><trkpt lat="42.55539" lon="12.7069217"><ele>217.0</ele><time>2026-05-03T08:02:20.987Z</time></trkpt><trkpt lat="42.5554067" lon="12.7067167"><ele>217.0</ele><time>2026-05-03T08:02:21.988Z</time></trkpt><trkpt lat="42.55542" lon="12.70652"><ele>217.0</ele><time>2026-05-03T08:02:22.988Z</time></trkpt><trkpt lat="42.5554217" lon="12.7063233"><ele>217.0</ele><time>2026-05-03T08:02:23.989Z</time></trkpt><trkpt lat="42.5554033" lon="12.7061333"><ele>217.0</ele><time>2026-05-03T08:02:24.989Z</time></trkpt><trkpt lat="42.5553667" lon="12.70595"><ele>212.0</ele><time>2026-05-03T08:02:25.988Z</time></trkpt><trkpt lat="42.5553117" lon="12.7057767"><ele>207.0</ele><time>2026-05-03T08:02:26.984Z</time></trkpt><trkpt lat="42.5552433" lon="12.7056033"><ele>202.0</ele><time>2026-05-03T08:02:27.988Z</time></trkpt><trkpt lat="42.5551483" lon="12.7054483"><ele>197.0</ele><time>2026-05-03T08:02:28.988Z</time></trkpt><trkpt lat="42.5550383" lon="12.705315"><ele>197.0</ele><time>2026-05-03T08:02:29.991Z</time></trkpt><trkpt lat="42.554915" lon="12.7052067"><ele>197.0</ele><time>2026-05-03T08:02:30.988Z</time></trkpt><trkpt lat="42.554785" lon="12.70512"><ele>197.0</ele><time>2026-05-03T08:02:31.982Z</time></trkpt><trkpt lat="42.5546517" lon="12.7050483"><ele>197.0</ele><time>2026-05-03T08:02:32.986Z</time></trkpt><trkpt lat="42.55452" lon="12.7049833"><ele>197.0</ele><time>2026-05-03T08:02:33.986Z</time></trkpt><trkpt lat="42.5543933" lon="12.7049217"><ele>197.0</ele><time>2026-05-03T08:02:34.99Z</time></trkpt><trkpt lat="42.5542767" lon="12.7048467"><ele>197.0</ele><time>2026-05-03T08:02:35.983Z</time></trkpt><trkpt lat="42.55417" lon="12.7047517"><ele>197.0</ele><time>2026-05-03T08:02:36.987Z</time></trkpt><trkpt lat="42.5540767" lon="12.7046317"><ele>197.0</ele><time>2026-05-03T08:02:37.99Z</time></trkpt><trkpt lat="42.5539967" lon="12.7044917"><ele>197.0</ele><time>2026-05-03T08:02:38.987Z</time></trkpt><trkpt lat="42.5539367" lon="12.7043367"><ele>197.0</ele><time>2026-05-03T08:02:39.991Z</time></trkpt><trkpt lat="42.553895" lon="12.7041617"><ele>197.0</ele><time>2026-05-03T08:02:40.985Z</time></trkpt><trkpt lat="42.5538683" lon="12.7039733"><ele>203.33333333333334</ele><time>2026-05-03T08:02:41.987Z</time></trkpt><trkpt lat="42.553845" lon="12.7037767"><ele>209.66666666666669</ele><time>2026-05-03T08:02:42.989Z</time></trkpt><trkpt lat="42.5538217" lon="12.703575"><ele>216.0</ele><time>2026-05-03T08:02:43.986Z</time></trkpt><trkpt lat="42.5538" lon="12.703365"><ele>219.33333333333331</ele><time>2026-05-03T08:02:44.99Z</time></trkpt><trkpt lat="42.5537783" lon="12.70315"><ele>222.66666666666666</ele><time>2026-05-03T08:02:45.99Z</time></trkpt><trkpt lat="42.553755" lon="12.7029317"><ele>226.0</ele><time>2026-05-03T08:02:46.986Z</time></trkpt><trkpt lat="42.55374" lon="12.702715"><ele>226.0</ele><time>2026-05-03T08:02:47.992Z</time></trkpt><trkpt lat="42.5537333" lon="12.702505"><ele>226.0</ele><time>2026-05-03T08:02:48.99Z</time></trkpt><trkpt lat="42.55373" lon="12.7023017"><ele>226.0</ele><time>2026-05-03T08:02:49.99Z</time></trkpt><trkpt lat="42.55373" lon="12.7021033"><ele>222.5</ele><time>2026-05-03T08:02:50.987Z</time></trkpt><trkpt lat="42.5537283" lon="12.7019033"><ele>219.0</ele><time>2026-05-03T08:02:51.993Z</time></trkpt><trkpt lat="42.55372" lon="12.70171"><ele>215.5</ele><time>2026-05-03T08:02:52.992Z</time></trkpt><trkpt lat="42.5537017" lon="12.7015183"><ele>212.0</ele><time>2026-05-03T08:02:53.987Z</time></trkpt><trkpt lat="42.5536783" lon="12.7013267"><ele>205.0</ele><time>2026-05-03T08:02:54.988Z</time></trkpt><trkpt lat="42.5536483" lon="12.7011317"><ele>198.0</ele><time>2026-05-03T08:02:55.988Z</time></trkpt><trkpt lat="42.55362" lon="12.70093"><ele>191.0</ele><time>2026-05-03T08:02:56.986Z</time></trkpt><trkpt lat="42.5535917" lon="12.7007217"><ele>190.33333333333331</ele><time>2026-05-03T08:02:57.986Z</time></trkpt><trkpt lat="42.5535633" lon="12.70051"><ele>189.66666666666666</ele><time>2026-05-03T08:02:58.988Z</time></trkpt><trkpt lat="42.553545" lon="12.70029"><ele>189.0</ele><time>2026-05-03T08:02:59.983Z</time></trkpt><trkpt lat="42.5535333" lon="12.7000717"><ele>189.0</ele><time>2026-05-03T08:03:00.989Z</time></trkpt><trkpt lat="42.5535283" lon="12.6998517"><ele>189.0</ele><time>2026-05-03T08:03:01.985Z</time></trkpt><trkpt lat="42.5535217" lon="12.699635"><ele>189.0</ele><time>2026-05-03T08:03:02.992Z</time></trkpt><trkpt lat="42.5535167" lon="12.6994183"><ele>191.33333333333331</ele><time>2026-05-03T08:03:03.988Z</time></trkpt><trkpt lat="42.5534983" lon="12.6992017"><ele>193.66666666666666</ele><time>2026-05-03T08:03:04.988Z</time></trkpt><trkpt lat="42.5534667" lon="12.6989883"><ele>196.0</ele><time>2026-05-03T08:03:05.989Z</time></trkpt><trkpt lat="42.5534367" lon="12.6987817"><ele>193.0</ele><time>2026-05-03T08:03:06.992Z</time></trkpt><trkpt lat="42.5534017" lon="12.6985833"><ele>190.0</ele><time>2026-05-03T08:03:07.985Z</time></trkpt><trkpt lat="42.5533667" lon="12.6983967"><ele>187.0</ele><time>2026-05-03T08:03:08.982Z</time></trkpt><trkpt lat="42.5533333" lon="12.69822"><ele>184.0</ele><time>2026-05-03T08:03:09.985Z</time></trkpt><trkpt lat="42.5532967" lon="12.6980533"><ele>184.0</ele><time>2026-05-03T08:03:10.991Z</time></trkpt><trkpt lat="42.5532567" lon="12.69789"><ele>184.0</ele><time>2026-05-03T08:03:11.982Z</time></trkpt><trkpt lat="42.5532133" lon="12.6977267"><ele>184.0</ele><time>2026-05-03T08:03:12.989Z</time></trkpt><trkpt lat="42.5531667" lon="12.6975667"><ele>184.0</ele><time>2026-05-03T08:03:13.982Z</time></trkpt><trkpt lat="42.5531183" lon="12.6974083"><ele>183.5</ele><time>2026-05-03T08:03:14.985Z</time></trkpt><trkpt lat="42.5530717" lon="12.6972467"><ele>183.0</ele><time>2026-05-03T08:03:15.983Z</time></trkpt><trkpt lat="42.553025" lon="12.697085"><ele>182.5</ele><time>2026-05-03T08:03:16.986Z</time></trkpt><trkpt lat="42.5529817" lon="12.6969217"><ele>182.0</ele><time>2026-05-03T08:03:17.991Z</time></trkpt><trkpt lat="42.552935" lon="12.696755"><ele>182.0</ele><time>2026-05-03T08:03:18.988Z</time></trkpt><trkpt lat="42.5528883" lon="12.6965833"><ele>182.0</ele><time>2026-05-03T08:03:19.991Z</time></trkpt><trkpt lat="42.55284" lon="12.696405"><ele>182.0</ele><time>2026-05-03T08:03:20.989Z</time></trkpt><trkpt lat="42.5527917" lon="12.6962233"><ele>182.0</ele><time>2026-05-03T08:03:21.987Z</time></trkpt><trkpt lat="42.5527383" lon="12.6960383"><ele>182.0</ele><time>2026-05-03T08:03:22.986Z</time></trkpt><trkpt lat="42.5526867" lon="12.6958483"><ele>182.0</ele><time>2026-05-03T08:03:23.984Z</time></trkpt><trkpt lat="42.5526383" lon="12.6956517"><ele>182.0</ele><time>2026-05-03T08:03:24.988Z</time></trkpt><trkpt lat="42.552595" lon="12.6954433"><ele>182.66666666666666</ele><time>2026-05-03T08:03:25.986Z</time></trkpt><trkpt lat="42.5525633" lon="12.6952283"><ele>183.33333333333334</ele><time>2026-05-03T08:03:26.992Z</time></trkpt><trkpt lat="42.552545" lon="12.6950083"><ele>184.0</ele><time>2026-05-03T08:03:27.986Z</time></trkpt><trkpt lat="42.5525417" lon="12.6947817"><ele>184.0</ele><time>2026-05-03T08:03:28.985Z</time></trkpt><trkpt lat="42.5525483" lon="12.6945567"><ele>184.0</ele><time>2026-05-03T08:03:29.987Z</time></trkpt><trkpt lat="42.5525617" lon="12.6943333"><ele>184.0</ele><time>2026-05-03T08:03:30.99Z</time></trkpt><trkpt lat="42.55259" lon="12.69411"><ele>183.0</ele><time>2026-05-03T08:03:31.988Z</time></trkpt><trkpt lat="42.5526183" lon="12.693885"><ele>182.0</ele><time>2026-05-03T08:03:32.986Z</time></trkpt><trkpt lat="42.5526467" lon="12.6936583"><ele>181.0</ele><time>2026-05-03T08:03:33.987Z</time></trkpt><trkpt lat="42.5526733" lon="12.6934283"><ele>178.0</ele><time>2026-05-03T08:03:34.983Z</time></trkpt><trkpt lat="42.5527" lon="12.6931967"><ele>175.0</ele><time>2026-05-03T08:03:35.989Z</time></trkpt><trkpt lat="42.5527283" lon="12.6929633"><ele>172.0</ele><time>2026-05-03T08:03:36.986Z</time></trkpt><trkpt lat="42.552755" lon="12.6927367"><ele>170.0</ele><time>2026-05-03T08:03:37.986Z</time></trkpt><trkpt lat="42.55278" lon="12.6925017"><ele>168.0</ele><time>2026-05-03T08:03:38.987Z</time></trkpt><trkpt lat="42.552805" lon="12.6922733"><ele>166.0</ele><time>2026-05-03T08:03:39.986Z</time></trkpt><trkpt lat="42.552825" lon="12.6920483"><ele>165.66666666666669</ele><time>2026-05-03T08:03:40.989Z</time></trkpt><trkpt lat="42.552845" lon="12.691825"><ele>165.33333333333334</ele><time>2026-05-03T08:03:41.991Z</time></trkpt><trkpt lat="42.5528617" lon="12.691605"><ele>165.0</ele><time>2026-05-03T08:03:42.988Z</time></trkpt><trkpt lat="42.5528783" lon="12.691385"><ele>167.33333333333334</ele><time>2026-05-03T08:03:43.989Z</time></trkpt><trkpt lat="42.5528967" lon="12.69116"><ele>169.66666666666669</ele><time>2026-05-03T08:03:44.984Z</time></trkpt><trkpt lat="42.552915" lon="12.690935"><ele>172.0</ele><time>2026-05-03T08:03:45.987Z</time></trkpt><trkpt lat="42.5529333" lon="12.6907083"><ele>172.0</ele><time>2026-05-03T08:03:46.984Z</time></trkpt><trkpt lat="42.5529533" lon="12.6904817"><ele>172.0</ele><time>2026-05-03T08:03:47.99Z</time></trkpt><trkpt lat="42.5529733" lon="12.69025"><ele>172.0</ele><time>2026-05-03T08:03:48.988Z</time></trkpt><trkpt lat="42.552995" lon="12.690015"><ele>171.33333333333334</ele><time>2026-05-03T08:03:49.989Z</time></trkpt><trkpt lat="42.5530217" lon="12.6897833"><ele>170.66666666666666</ele><time>2026-05-03T08:03:50.99Z</time></trkpt><trkpt lat="42.5530483" lon="12.6895517"><ele>170.0</ele><time>2026-05-03T08:03:51.988Z</time></trkpt><trkpt lat="42.553085" lon="12.6893283"><ele>169.0</ele><time>2026-05-03T08:03:52.985Z</time></trkpt><trkpt lat="42.553135" lon="12.6891183"><ele>168.0</ele><time>2026-05-03T08:03:53.984Z</time></trkpt><trkpt lat="42.5532" lon="12.6889183"><ele>167.0</ele><time>2026-05-03T08:03:54.987Z</time></trkpt><trkpt lat="42.553285" lon="12.6887333"><ele>167.0</ele><time>2026-05-03T08:03:55.985Z</time></trkpt><trkpt lat="42.5533817" lon="12.6885517"><ele>167.0</ele><time>2026-05-03T08:03:56.983Z</time></trkpt><trkpt lat="42.5534917" lon="12.6883767"><ele>167.0</ele><time>2026-05-03T08:03:57.992Z</time></trkpt><trkpt lat="42.5536167" lon="12.6882167"><ele>167.66666666666666</ele><time>2026-05-03T08:03:58.987Z</time></trkpt><trkpt lat="42.5537517" lon="12.6880633"><ele>168.33333333333334</ele><time>2026-05-03T08:03:59.983Z</time></trkpt><trkpt lat="42.5538917" lon="12.687925"><ele>169.0</ele><time>2026-05-03T08:04:00.986Z</time></trkpt><trkpt lat="42.5540417" lon="12.6878083"><ele>168.0</ele><time>2026-05-03T08:04:01.986Z</time></trkpt><trkpt lat="42.5541983" lon="12.6877083"><ele>167.0</ele><time>2026-05-03T08:04:02.984Z</time></trkpt><trkpt lat="42.5543583" lon="12.6876117"><ele>166.0</ele><time>2026-05-03T08:04:03.985Z</time></trkpt><trkpt lat="42.5545183" lon="12.687515"><ele>165.66666666666669</ele><time>2026-05-03T08:04:04.986Z</time></trkpt><trkpt lat="42.5546783" lon="12.68742"><ele>165.33333333333334</ele><time>2026-05-03T08:04:05.988Z</time></trkpt><trkpt lat="42.5548417" lon="12.687335"><ele>165.0</ele><time>2026-05-03T08:04:06.987Z</time></trkpt><trkpt lat="42.5550083" lon="12.687255"><ele>165.0</ele><time>2026-05-03T08:04:07.984Z</time></trkpt><trkpt lat="42.5551733" lon="12.68718"><ele>165.0</ele><time>2026-05-03T08:04:08.998Z</time></trkpt><trkpt lat="42.55534" lon="12.6871117"><ele>165.0</ele><time>2026-05-03T08:04:09.987Z</time></trkpt><trkpt lat="42.55551" lon="12.6870517"><ele>165.0</ele><time>2026-05-03T08:04:10.987Z</time></trkpt><trkpt lat="42.5556833" lon="12.6869967"><ele>165.0</ele><time>2026-05-03T08:04:11.99Z</time></trkpt><trkpt lat="42.5558583" lon="12.68695"><ele>165.0</ele><time>2026-05-03T08:04:12.99Z</time></trkpt><trkpt lat="42.556035" lon="12.6869083"><ele>164.33333333333334</ele><time>2026-05-03T08:04:13.988Z</time></trkpt><trkpt lat="42.5562117" lon="12.6868667"><ele>163.66666666666669</ele><time>2026-05-03T08:04:14.989Z</time></trkpt><trkpt lat="42.5563917" lon="12.686825"><ele>163.0</ele><time>2026-05-03T08:04:15.989Z</time></trkpt><trkpt lat="42.5565717" lon="12.6867783"><ele>163.0</ele><time>2026-05-03T08:04:16.983Z</time></trkpt><trkpt lat="42.55675" lon="12.6867333"><ele>163.0</ele><time>2026-05-03T08:04:17.993Z</time></trkpt><trkpt lat="42.5569283" lon="12.6866867"><ele>163.0</ele><time>2026-05-03T08:04:18.991Z</time></trkpt><trkpt lat="42.5571033" lon="12.6866467"><ele>163.0</ele><time>2026-05-03T08:04:19.99Z</time></trkpt><trkpt lat="42.5572783" lon="12.6866083"><ele>163.0</ele><time>2026-05-03T08:04:20.986Z</time></trkpt><trkpt lat="42.55745" lon="12.6865667"><ele>163.0</ele><time>2026-05-03T08:04:21.988Z</time></trkpt><trkpt lat="42.55762" lon="12.686525"><ele>163.0</ele><time>2026-05-03T08:04:22.99Z</time></trkpt><trkpt lat="42.557785" lon="12.6864717"><ele>163.0</ele><time>2026-05-03T08:04:23.99Z</time></trkpt><trkpt lat="42.5579383" lon="12.6863983"><ele>163.0</ele><time>2026-05-03T08:04:24.992Z</time></trkpt><trkpt lat="42.5580783" lon="12.6863033"><ele>162.5</ele><time>2026-05-03T08:04:25.991Z</time></trkpt><trkpt lat="42.5581983" lon="12.6861933"><ele>162.0</ele><time>2026-05-03T08:04:26.99Z</time></trkpt><trkpt lat="42.5582967" lon="12.68608"><ele>161.5</ele><time>2026-05-03T08:04:27.988Z</time></trkpt><trkpt lat="42.5583833" lon="12.6859783"><ele>161.0</ele><time>2026-05-03T08:04:28.986Z</time></trkpt><trkpt lat="42.5584583" lon="12.685885"><ele>161.0</ele><time>2026-05-03T08:04:29.992Z</time></trkpt><trkpt lat="42.558525" lon="12.6858067"><ele>161.0</ele><time>2026-05-03T08:04:30.989Z</time></trkpt><trkpt lat="42.558585" lon="12.685745"><ele>161.0</ele><time>2026-05-03T08:04:31.99Z</time></trkpt><trkpt lat="42.5586517" lon="12.6856933"><ele>161.0</ele><time>2026-05-03T08:04:32.99Z</time></trkpt><trkpt lat="42.5587183" lon="12.68565"><ele>161.0</ele><time>2026-05-03T08:04:33.985Z</time></trkpt><trkpt lat="42.5587783" lon="12.6856"><ele>161.0</ele><time>2026-05-03T08:04:35.001Z</time></trkpt><trkpt lat="42.5588517" lon="12.6854817"><ele>165.0</ele><time>2026-05-03T08:04:36.985Z</time></trkpt><trkpt lat="42.55883" lon="12.6853317"><ele>169.0</ele><time>2026-05-03T08:04:38.986Z</time></trkpt><trkpt lat="42.5588083" lon="12.6852233"><ele>173.0</ele><time>2026-05-03T08:04:39.986Z</time></trkpt><trkpt lat="42.558795" lon="12.6850917"><ele>177.0</ele><time>2026-05-03T08:04:40.987Z</time></trkpt><trkpt lat="42.558785" lon="12.6849517"><ele>181.0</ele><time>2026-05-03T08:04:41.988Z</time></trkpt><trkpt lat="42.558775" lon="12.6847983"><ele>181.0</ele><time>2026-05-03T08:04:42.988Z</time></trkpt><trkpt lat="42.55876" lon="12.6846367"><ele>181.0</ele><time>2026-05-03T08:04:43.99Z</time></trkpt><trkpt lat="42.5587433" lon="12.6844633"><ele>181.0</ele><time>2026-05-03T08:04:44.989Z</time></trkpt><trkpt lat="42.5587217" lon="12.6842783"><ele>181.0</ele><time>2026-05-03T08:04:45.988Z</time></trkpt><trkpt lat="42.5586967" lon="12.6840933"><ele>176.25</ele><time>2026-05-03T08:04:46.986Z</time></trkpt><trkpt lat="42.558665" lon="12.6839083"><ele>171.5</ele><time>2026-05-03T08:04:47.989Z</time></trkpt><trkpt lat="42.5586317" lon="12.6837267"><ele>166.75</ele><time>2026-05-03T08:04:48.997Z</time></trkpt><trkpt lat="42.5585967" lon="12.683545"><ele>162.0</ele><time>2026-05-03T08:04:49.991Z</time></trkpt><trkpt lat="42.5585583" lon="12.68336"><ele>162.0</ele><time>2026-05-03T08:04:50.988Z</time></trkpt><trkpt lat="42.558525" lon="12.683175"><ele>162.0</ele><time>2026-05-03T08:04:51.986Z</time></trkpt><trkpt lat="42.55849" lon="12.682995"><ele>162.0</ele><time>2026-05-03T08:04:52.985Z</time></trkpt><trkpt lat="42.55845" lon="12.6828183"><ele>162.0</ele><time>2026-05-03T08:04:53.983Z</time></trkpt><trkpt lat="42.5584083" lon="12.6826467"><ele>160.75</ele><time>2026-05-03T08:04:54.989Z</time></trkpt><trkpt lat="42.55836" lon="12.6824817"><ele>159.5</ele><time>2026-05-03T08:04:55.985Z</time></trkpt><trkpt lat="42.5582933" lon="12.6823267"><ele>158.25</ele><time>2026-05-03T08:04:56.988Z</time></trkpt><trkpt lat="42.5582083" lon="12.6821817"><ele>157.0</ele><time>2026-05-03T08:04:57.995Z</time></trkpt><trkpt lat="42.5581083" lon="12.6820483"><ele>157.0</ele><time>2026-05-03T08:04:58.99Z</time></trkpt><trkpt lat="42.5579917" lon="12.6819333"><ele>157.0</ele><time>2026-05-03T08:04:59.99Z</time></trkpt><trkpt lat="42.5578617" lon="12.6818333"><ele>157.0</ele><time>2026-05-03T08:05:00.988Z</time></trkpt><trkpt lat="42.5577233" lon="12.6817367"><ele>157.0</ele><time>2026-05-03T08:05:01.989Z</time></trkpt><trkpt lat="42.557585" lon="12.681625"><ele>158.33333333333334</ele><time>2026-05-03T08:05:02.99Z</time></trkpt><trkpt lat="42.55745" lon="12.6814967"><ele>159.66666666666666</ele><time>2026-05-03T08:05:03.989Z</time></trkpt><trkpt lat="42.5573217" lon="12.68135"><ele>161.0</ele><time>2026-05-03T08:05:04.985Z</time></trkpt><trkpt lat="42.557195" lon="12.6811917"><ele>159.33333333333331</ele><time>2026-05-03T08:05:05.99Z</time></trkpt><trkpt lat="42.5570683" lon="12.681035"><ele>157.66666666666666</ele><time>2026-05-03T08:05:06.985Z</time></trkpt><trkpt lat="42.55694" lon="12.6808833"><ele>156.0</ele><time>2026-05-03T08:05:07.991Z</time></trkpt><trkpt lat="42.5568083" lon="12.6807333"><ele>156.0</ele><time>2026-05-03T08:05:08.987Z</time></trkpt><trkpt lat="42.5566767" lon="12.6805867"><ele>156.0</ele><time>2026-05-03T08:05:09.987Z</time></trkpt><trkpt lat="42.5565483" lon="12.6804417"><ele>156.0</ele><time>2026-05-03T08:05:10.991Z</time></trkpt><trkpt lat="42.55642" lon="12.6803"><ele>156.0</ele><time>2026-05-03T08:05:11.985Z</time></trkpt><trkpt lat="42.556295" lon="12.6801567"><ele>156.0</ele><time>2026-05-03T08:05:12.992Z</time></trkpt><trkpt lat="42.5561733" lon="12.68002"><ele>156.0</ele><time>2026-05-03T08:05:13.986Z</time></trkpt><trkpt lat="42.5560583" lon="12.6798883"><ele>156.0</ele><time>2026-05-03T08:05:14.99Z</time></trkpt><trkpt lat="42.5559533" lon="12.6797567"><ele>156.0</ele><time>2026-05-03T08:05:15.986Z</time></trkpt><trkpt lat="42.5558617" lon="12.6796167"><ele>156.0</ele><time>2026-05-03T08:05:16.988Z</time></trkpt><trkpt lat="42.55579" lon="12.67946"><ele>156.0</ele><time>2026-05-03T08:05:17.986Z</time></trkpt><trkpt lat="42.5557417" lon="12.6792867"><ele>156.5</ele><time>2026-05-03T08:05:18.985Z</time></trkpt><trkpt lat="42.5557183" lon="12.6791"><ele>157.0</ele><time>2026-05-03T08:05:19.986Z</time></trkpt><trkpt lat="42.5557133" lon="12.678915"><ele>157.5</ele><time>2026-05-03T08:05:20.984Z</time></trkpt><trkpt lat="42.5557317" lon="12.6787283"><ele>158.0</ele><time>2026-05-03T08:05:21.986Z</time></trkpt><trkpt lat="42.55577" lon="12.678545"><ele>156.75</ele><time>2026-05-03T08:05:22.986Z</time></trkpt><trkpt lat="42.555825" lon="12.6783667"><ele>155.5</ele><time>2026-05-03T08:05:23.986Z</time></trkpt><trkpt lat="42.5559033" lon="12.678195"><ele>154.25</ele><time>2026-05-03T08:05:24.986Z</time></trkpt><trkpt lat="42.555995" lon="12.6780267"><ele>153.0</ele><time>2026-05-03T08:05:25.99Z</time></trkpt><trkpt lat="42.5560933" lon="12.677855"><ele>151.66666666666666</ele><time>2026-05-03T08:05:26.984Z</time></trkpt><trkpt lat="42.556195" lon="12.67768"><ele>150.33333333333331</ele><time>2026-05-03T08:05:27.983Z</time></trkpt><trkpt lat="42.5562933" lon="12.677495"><ele>149.0</ele><time>2026-05-03T08:05:28.988Z</time></trkpt><trkpt lat="42.55639" lon="12.6773033"><ele>152.0</ele><time>2026-05-03T08:05:29.99Z</time></trkpt><trkpt lat="42.5564733" lon="12.67711"><ele>155.0</ele><time>2026-05-03T08:05:30.992Z</time></trkpt><trkpt lat="42.5565483" lon="12.6769167"><ele>158.0</ele><time>2026-05-03T08:05:31.991Z</time></trkpt><trkpt lat="42.5566133" lon="12.6767183"><ele>158.0</ele><time>2026-05-03T08:05:32.988Z</time></trkpt><trkpt lat="42.5566583" lon="12.6765167"><ele>158.0</ele><time>2026-05-03T08:05:33.985Z</time></trkpt><trkpt lat="42.5566833" lon="12.6763117"><ele>158.0</ele><time>2026-05-03T08:05:34.99Z</time></trkpt><trkpt lat="42.55669" lon="12.6760983"><ele>157.0</ele><time>2026-05-03T08:05:35.984Z</time></trkpt><trkpt lat="42.5566817" lon="12.6758817"><ele>156.0</ele><time>2026-05-03T08:05:36.991Z</time></trkpt><trkpt lat="42.5566633" lon="12.6756667"><ele>155.0</ele><time>2026-05-03T08:05:37.985Z</time></trkpt><trkpt lat="42.5566433" lon="12.6754517"><ele>155.66666666666666</ele><time>2026-05-03T08:05:38.984Z</time></trkpt><trkpt lat="42.55662" lon="12.67524"><ele>156.33333333333334</ele><time>2026-05-03T08:05:39.989Z</time></trkpt><trkpt lat="42.5566" lon="12.6750333"><ele>157.0</ele><time>2026-05-03T08:05:40.987Z</time></trkpt><trkpt lat="42.556585" lon="12.6748367"><ele>157.0</ele><time>2026-05-03T08:05:41.992Z</time></trkpt><trkpt lat="42.556575" lon="12.6746417"><ele>157.0</ele><time>2026-05-03T08:05:42.985Z</time></trkpt><trkpt lat="42.5565767" lon="12.6744517"><ele>157.0</ele><time>2026-05-03T08:05:43.985Z</time></trkpt><trkpt lat="42.556595" lon="12.6742683"><ele>157.0</ele><time>2026-05-03T08:05:44.991Z</time></trkpt><trkpt lat="42.5566333" lon="12.6740867"><ele>155.5</ele><time>2026-05-03T08:05:45.991Z</time></trkpt><trkpt lat="42.5566933" lon="12.6739183"><ele>154.0</ele><time>2026-05-03T08:05:46.987Z</time></trkpt><trkpt lat="42.55677" lon="12.6737667"><ele>152.5</ele><time>2026-05-03T08:05:47.995Z</time></trkpt><trkpt lat="42.556865" lon="12.6736233"><ele>151.0</ele><time>2026-05-03T08:05:48.987Z</time></trkpt><trkpt lat="42.5569683" lon="12.6734917"><ele>151.33333333333334</ele><time>2026-05-03T08:05:49.991Z</time></trkpt><trkpt lat="42.557085" lon="12.6733733"><ele>151.66666666666666</ele><time>2026-05-03T08:05:50.988Z</time></trkpt><trkpt lat="42.5572083" lon="12.6732567"><ele>152.0</ele><time>2026-05-03T08:05:51.987Z</time></trkpt><trkpt lat="42.5573417" lon="12.67315"><ele>152.0</ele><time>2026-05-03T08:05:52.988Z</time></trkpt><trkpt lat="42.55748" lon="12.6730517"><ele>152.0</ele><time>2026-05-03T08:05:53.988Z</time></trkpt><trkpt lat="42.55762" lon="12.6729583"><ele>152.0</ele><time>2026-05-03T08:05:54.987Z</time></trkpt><trkpt lat="42.557765" lon="12.6728817"><ele>152.0</ele><time>2026-05-03T08:05:55.989Z</time></trkpt><trkpt lat="42.5579117" lon="12.6728217"><ele>152.0</ele><time>2026-05-03T08:05:56.985Z</time></trkpt><trkpt lat="42.55806" lon="12.67279"><ele>152.0</ele><time>2026-05-03T08:05:57.985Z</time></trkpt><trkpt lat="42.55821" lon="12.6727833"><ele>152.0</ele><time>2026-05-03T08:05:58.991Z</time></trkpt><trkpt lat="42.5583617" lon="12.672805"><ele>152.0</ele><time>2026-05-03T08:05:59.985Z</time></trkpt><trkpt lat="42.5585133" lon="12.6728417"><ele>152.0</ele><time>2026-05-03T08:06:00.99Z</time></trkpt><trkpt lat="42.5586633" lon="12.67289"><ele>150.66666666666666</ele><time>2026-05-03T08:06:01.986Z</time></trkpt><trkpt lat="42.558815" lon="12.67294"><ele>149.33333333333334</ele><time>2026-05-03T08:06:02.988Z</time></trkpt><trkpt lat="42.558965" lon="12.6729917"><ele>148.0</ele><time>2026-05-03T08:06:03.986Z</time></trkpt><trkpt lat="42.5591117" lon="12.6730367"><ele>148.0</ele><time>2026-05-03T08:06:04.986Z</time></trkpt><trkpt lat="42.559255" lon="12.6730767"><ele>148.0</ele><time>2026-05-03T08:06:05.991Z</time></trkpt><trkpt lat="42.5593883" lon="12.673125"><ele>148.0</ele><time>2026-05-03T08:06:06.99Z</time></trkpt><trkpt lat="42.5595133" lon="12.67319"><ele>148.0</ele><time>2026-05-03T08:06:07.987Z</time></trkpt><trkpt lat="42.5596333" lon="12.6732733"><ele>147.75</ele><time>2026-05-03T08:06:08.989Z</time></trkpt><trkpt lat="42.5597517" lon="12.67338"><ele>147.5</ele><time>2026-05-03T08:06:09.988Z</time></trkpt><trkpt lat="42.55987" lon="12.673485"><ele>147.25</ele><time>2026-05-03T08:06:10.988Z</time></trkpt><trkpt lat="42.5599883" lon="12.6735917"><ele>147.0</ele><time>2026-05-03T08:06:11.993Z</time></trkpt><trkpt lat="42.5601" lon="12.6736883"><ele>147.0</ele><time>2026-05-03T08:06:12.986Z</time></trkpt><trkpt lat="42.56021" lon="12.673765"><ele>147.0</ele><time>2026-05-03T08:06:13.993Z</time></trkpt><trkpt lat="42.56032" lon="12.673815"><ele>147.0</ele><time>2026-05-03T08:06:14.988Z</time></trkpt><trkpt lat="42.5604333" lon="12.6738367"><ele>147.0</ele><time>2026-05-03T08:06:15.989Z</time></trkpt><trkpt lat="42.5605467" lon="12.6738283"><ele>145.75</ele><time>2026-05-03T08:06:16.992Z</time></trkpt><trkpt lat="42.5606567" lon="12.6737967"><ele>144.5</ele><time>2026-05-03T08:06:17.988Z</time></trkpt><trkpt lat="42.5607633" lon="12.6737383"><ele>143.25</ele><time>2026-05-03T08:06:18.988Z</time></trkpt><trkpt lat="42.560865" lon="12.673655"><ele>142.0</ele><time>2026-05-03T08:06:19.988Z</time></trkpt><trkpt lat="42.560955" lon="12.6735417"><ele>141.0</ele><time>2026-05-03T08:06:20.992Z</time></trkpt><trkpt lat="42.5610333" lon="12.673405"><ele>140.0</ele><time>2026-05-03T08:06:21.988Z</time></trkpt><trkpt lat="42.5610983" lon="12.6732517"><ele>139.0</ele><time>2026-05-03T08:06:22.985Z</time></trkpt><trkpt lat="42.5611533" lon="12.67308"><ele>138.0</ele><time>2026-05-03T08:06:23.988Z</time></trkpt><trkpt lat="42.5611983" lon="12.672895"><ele>139.0</ele><time>2026-05-03T08:06:24.988Z</time></trkpt><trkpt lat="42.5612417" lon="12.672705"><ele>140.0</ele><time>2026-05-03T08:06:25.991Z</time></trkpt><trkpt lat="42.56128" lon="12.6725167"><ele>141.0</ele><time>2026-05-03T08:06:26.987Z</time></trkpt><trkpt lat="42.5613167" lon="12.6723383"><ele>142.0</ele><time>2026-05-03T08:06:27.986Z</time></trkpt><trkpt lat="42.5613517" lon="12.672165"><ele>142.0</ele><time>2026-05-03T08:06:28.986Z</time></trkpt><trkpt lat="42.5613883" lon="12.671995"><ele>142.0</ele><time>2026-05-03T08:06:29.987Z</time></trkpt><trkpt lat="42.5614283" lon="12.6718267"><ele>142.0</ele><time>2026-05-03T08:06:30.985Z</time></trkpt><trkpt lat="42.561465" lon="12.6716583"><ele>142.0</ele><time>2026-05-03T08:06:31.987Z</time></trkpt><trkpt lat="42.5615" lon="12.6714917"><ele>142.0</ele><time>2026-05-03T08:06:32.986Z</time></trkpt><trkpt lat="42.5615383" lon="12.671325"><ele>142.0</ele><time>2026-05-03T08:06:33.988Z</time></trkpt><trkpt lat="42.5615783" lon="12.67116"><ele>142.0</ele><time>2026-05-03T08:06:34.994Z</time></trkpt><trkpt lat="42.5616183" lon="12.670995"><ele>142.0</ele><time>2026-05-03T08:06:35.987Z</time></trkpt><trkpt lat="42.5616567" lon="12.67082"><ele>142.0</ele><time>2026-05-03T08:06:36.991Z</time></trkpt><trkpt lat="42.56169" lon="12.67064"><ele>142.0</ele><time>2026-05-03T08:06:37.989Z</time></trkpt><trkpt lat="42.561725" lon="12.6704517"><ele>142.0</ele><time>2026-05-03T08:06:38.991Z</time></trkpt><trkpt lat="42.5617633" lon="12.6702583"><ele>142.0</ele><time>2026-05-03T08:06:39.994Z</time></trkpt><trkpt lat="42.561805" lon="12.67007"><ele>142.25</ele><time>2026-05-03T08:06:40.989Z</time></trkpt><trkpt lat="42.5618433" lon="12.6698883"><ele>142.5</ele><time>2026-05-03T08:06:41.992Z</time></trkpt><trkpt lat="42.5618783" lon="12.6697117"><ele>142.75</ele><time>2026-05-03T08:06:42.987Z</time></trkpt><trkpt lat="42.5619167" lon="12.669535"><ele>143.0</ele><time>2026-05-03T08:06:43.989Z</time></trkpt><trkpt lat="42.5619567" lon="12.66936"><ele>142.25</ele><time>2026-05-03T08:06:44.99Z</time></trkpt><trkpt lat="42.561995" lon="12.669185"><ele>141.5</ele><time>2026-05-03T08:06:45.989Z</time></trkpt><trkpt lat="42.56203" lon="12.6690117"><ele>140.75</ele><time>2026-05-03T08:06:46.986Z</time></trkpt><trkpt lat="42.5620683" lon="12.6688417"><ele>140.0</ele><time>2026-05-03T08:06:47.987Z</time></trkpt><trkpt lat="42.5621017" lon="12.66867"><ele>139.25</ele><time>2026-05-03T08:06:48.989Z</time></trkpt><trkpt lat="42.5621383" lon="12.6685017"><ele>138.5</ele><time>2026-05-03T08:06:49.986Z</time></trkpt><trkpt lat="42.5621783" lon="12.668335"><ele>137.75</ele><time>2026-05-03T08:06:50.985Z</time></trkpt><trkpt lat="42.562215" lon="12.668165"><ele>137.0</ele><time>2026-05-03T08:06:51.99Z</time></trkpt><trkpt lat="42.5622517" lon="12.6679917"><ele>137.0</ele><time>2026-05-03T08:06:52.99Z</time></trkpt><trkpt lat="42.562285" lon="12.6678167"><ele>137.0</ele><time>2026-05-03T08:06:53.989Z</time></trkpt><trkpt lat="42.5623167" lon="12.6676383"><ele>137.0</ele><time>2026-05-03T08:06:54.988Z</time></trkpt><trkpt lat="42.5623533" lon="12.6674633"><ele>137.0</ele><time>2026-05-03T08:06:55.995Z</time></trkpt><trkpt lat="42.562395" lon="12.667295"><ele>136.75</ele><time>2026-05-03T08:06:56.988Z</time></trkpt><trkpt lat="42.5624383" lon="12.6671267"><ele>136.5</ele><time>2026-05-03T08:06:57.987Z</time></trkpt><trkpt lat="42.56248" lon="12.6669617"><ele>136.25</ele><time>2026-05-03T08:06:58.988Z</time></trkpt><trkpt lat="42.5625217" lon="12.6667983"><ele>136.0</ele><time>2026-05-03T08:06:59.989Z</time></trkpt><trkpt lat="42.56256" lon="12.666635"><ele>135.5</ele><time>2026-05-03T08:07:00.984Z</time></trkpt><trkpt lat="42.5625967" lon="12.6664717"><ele>135.0</ele><time>2026-05-03T08:07:01.986Z</time></trkpt><trkpt lat="42.5626333" lon="12.66631"><ele>134.5</ele><time>2026-05-03T08:07:02.988Z</time></trkpt><trkpt lat="42.56267" lon="12.666145"><ele>134.0</ele><time>2026-05-03T08:07:03.986Z</time></trkpt><trkpt lat="42.562705" lon="12.6659817"><ele>133.75</ele><time>2026-05-03T08:07:04.987Z</time></trkpt><trkpt lat="42.5627417" lon="12.6658167"><ele>133.5</ele><time>2026-05-03T08:07:05.984Z</time></trkpt><trkpt lat="42.5627767" lon="12.6656483"><ele>133.25</ele><time>2026-05-03T08:07:06.991Z</time></trkpt><trkpt lat="42.5628133" lon="12.665475"><ele>133.0</ele><time>2026-05-03T08:07:07.986Z</time></trkpt><trkpt lat="42.56285" lon="12.6652983"><ele>133.25</ele><time>2026-05-03T08:07:08.989Z</time></trkpt><trkpt lat="42.5628883" lon="12.6651183"><ele>133.5</ele><time>2026-05-03T08:07:09.991Z</time></trkpt><trkpt lat="42.5629283" lon="12.6649383"><ele>133.75</ele><time>2026-05-03T08:07:10.987Z</time></trkpt><trkpt lat="42.5629683" lon="12.664755"><ele>134.0</ele><time>2026-05-03T08:07:11.987Z</time></trkpt><trkpt lat="42.56301" lon="12.6645733"><ele>134.25</ele><time>2026-05-03T08:07:12.988Z</time></trkpt><trkpt lat="42.5630533" lon="12.6643917"><ele>134.5</ele><time>2026-05-03T08:07:13.987Z</time></trkpt><trkpt lat="42.5630933" lon="12.6642117"><ele>134.75</ele><time>2026-05-03T08:07:14.986Z</time></trkpt><trkpt lat="42.5631333" lon="12.6640333"><ele>135.0</ele><time>2026-05-03T08:07:15.99Z</time></trkpt><trkpt lat="42.563175" lon="12.6638533"><ele>135.0</ele><time>2026-05-03T08:07:16.986Z</time></trkpt><trkpt lat="42.563215" lon="12.6636717"><ele>135.0</ele><time>2026-05-03T08:07:17.988Z</time></trkpt><trkpt lat="42.5632517" lon="12.66349"><ele>135.0</ele><time>2026-05-03T08:07:18.993Z</time></trkpt><trkpt lat="42.5632867" lon="12.66331"><ele>135.0</ele><time>2026-05-03T08:07:19.987Z</time></trkpt><trkpt lat="42.5633217" lon="12.6631383"><ele>135.0</ele><time>2026-05-03T08:07:20.994Z</time></trkpt><trkpt lat="42.5633567" lon="12.66298"><ele>135.0</ele><time>2026-05-03T08:07:21.991Z</time></trkpt><trkpt lat="42.5633917" lon="12.6628267"><ele>135.0</ele><time>2026-05-03T08:07:22.985Z</time></trkpt><trkpt lat="42.5634267" lon="12.662675"><ele>135.0</ele><time>2026-05-03T08:07:23.989Z</time></trkpt><trkpt lat="42.56346" lon="12.6625233"><ele>134.75</ele><time>2026-05-03T08:07:24.989Z</time></trkpt><trkpt lat="42.5634967" lon="12.6623683"><ele>134.5</ele><time>2026-05-03T08:07:25.991Z</time></trkpt><trkpt lat="42.5635333" lon="12.6622083"><ele>134.25</ele><time>2026-05-03T08:07:26.988Z</time></trkpt><trkpt lat="42.56357" lon="12.662045"><ele>134.0</ele><time>2026-05-03T08:07:27.986Z</time></trkpt><trkpt lat="42.5636067" lon="12.6618767"><ele>134.0</ele><time>2026-05-03T08:07:28.984Z</time></trkpt><trkpt lat="42.5636417" lon="12.6617033"><ele>134.0</ele><time>2026-05-03T08:07:29.994Z</time></trkpt><trkpt lat="42.5636783" lon="12.6615283"><ele>134.0</ele><time>2026-05-03T08:07:30.99Z</time></trkpt><trkpt lat="42.5637167" lon="12.6613517"><ele>134.0</ele><time>2026-05-03T08:07:31.992Z</time></trkpt><trkpt lat="42.5637517" lon="12.6611767"><ele>134.25</ele><time>2026-05-03T08:07:32.991Z</time></trkpt><trkpt lat="42.5637883" lon="12.6610067"><ele>134.5</ele><time>2026-05-03T08:07:33.986Z</time></trkpt><trkpt lat="42.5638217" lon="12.66084"><ele>134.75</ele><time>2026-05-03T08:07:34.991Z</time></trkpt><trkpt lat="42.56386" lon="12.6606767"><ele>135.0</ele><time>2026-05-03T08:07:35.987Z</time></trkpt><trkpt lat="42.5638967" lon="12.6605183"><ele>135.0</ele><time>2026-05-03T08:07:36.991Z</time></trkpt><trkpt lat="42.5639317" lon="12.6603617"><ele>135.0</ele><time>2026-05-03T08:07:37.989Z</time></trkpt><trkpt lat="42.5639633" lon="12.66021"><ele>135.0</ele><time>2026-05-03T08:07:38.989Z</time></trkpt><trkpt lat="42.5639983" lon="12.6600617"><ele>135.0</ele><time>2026-05-03T08:07:39.986Z</time></trkpt><trkpt lat="42.56403" lon="12.6599133"><ele>134.66666666666666</ele><time>2026-05-03T08:07:40.983Z</time></trkpt><trkpt lat="42.5640633" lon="12.6597717"><ele>134.33333333333334</ele><time>2026-05-03T08:07:41.992Z</time></trkpt><trkpt lat="42.5640883" lon="12.65964"><ele>134.0</ele><time>2026-05-03T08:07:42.989Z</time></trkpt><trkpt lat="42.5641117" lon="12.6595283"><ele>133.66666666666669</ele><time>2026-05-03T08:07:43.988Z</time></trkpt><trkpt lat="42.56413" lon="12.6594417"><ele>133.33333333333334</ele><time>2026-05-03T08:07:44.99Z</time></trkpt><trkpt lat="42.564155" lon="12.65935"><ele>133.0</ele><time>2026-05-03T08:07:46.993Z</time></trkpt><trkpt lat="42.5641733" lon="12.659255"><ele>132.8</ele><time>2026-05-03T08:08:51.989Z</time></trkpt><trkpt lat="42.5641967" lon="12.6591233"><ele>132.60000000000002</ele><time>2026-05-03T08:08:53.984Z</time></trkpt><trkpt lat="42.5641867" lon="12.6589883"><ele>132.39999999999998</ele><time>2026-05-03T08:08:55.994Z</time></trkpt><trkpt lat="42.564105" lon="12.65889"><ele>132.2</ele><time>2026-05-03T08:08:57.984Z</time></trkpt><trkpt lat="42.56404" lon="12.6588667"><ele>132.0</ele><time>2026-05-03T08:08:58.989Z</time></trkpt><trkpt lat="42.5639617" lon="12.6588433"><ele>132.0</ele><time>2026-05-03T08:08:59.992Z</time></trkpt><trkpt lat="42.5638783" lon="12.6588133"><ele>132.0</ele><time>2026-05-03T08:09:00.989Z</time></trkpt><trkpt lat="42.5637933" lon="12.65879"><ele>132.0</ele><time>2026-05-03T08:09:01.984Z</time></trkpt><trkpt lat="42.5637017" lon="12.6587617"><ele>132.0</ele><time>2026-05-03T08:09:02.986Z</time></trkpt><trkpt lat="42.5636033" lon="12.6587283"><ele>132.0</ele><time>2026-05-03T08:09:03.988Z</time></trkpt><trkpt lat="42.563495" lon="12.6586917"><ele>131.79999999999998</ele><time>2026-05-03T08:09:04.991Z</time></trkpt><trkpt lat="42.5633867" lon="12.658655"><ele>131.6</ele><time>2026-05-03T08:09:05.987Z</time></trkpt><trkpt lat="42.563285" lon="12.65861"><ele>131.39999999999998</ele><time>2026-05-03T08:09:06.984Z</time></trkpt><trkpt lat="42.5631783" lon="12.6585717"><ele>131.2</ele><time>2026-05-03T08:09:07.991Z</time></trkpt><trkpt lat="42.5630717" lon="12.65853"><ele>131.0</ele><time>2026-05-03T08:09:08.989Z</time></trkpt><trkpt lat="42.562965" lon="12.6584783"><ele>131.0</ele><time>2026-05-03T08:09:09.987Z</time></trkpt><trkpt lat="42.5628533" lon="12.6584267"><ele>131.0</ele><time>2026-05-03T08:09:10.994Z</time></trkpt><trkpt lat="42.56274" lon="12.6583767"><ele>131.0</ele><time>2026-05-03T08:09:11.987Z</time></trkpt><trkpt lat="42.56262" lon="12.658335"><ele>131.0</ele><time>2026-05-03T08:09:12.987Z</time></trkpt><trkpt lat="42.5624983" lon="12.6582917"><ele>131.0</ele><time>2026-05-03T08:09:13.99Z</time></trkpt><trkpt lat="42.5623767" lon="12.6582517"><ele>131.0</ele><time>2026-05-03T08:09:14.988Z</time></trkpt><trkpt lat="42.5622533" lon="12.65821"><ele>131.0</ele><time>2026-05-03T08:09:15.989Z</time></trkpt><trkpt lat="42.5621317" lon="12.6581617"><ele>131.0</ele><time>2026-05-03T08:09:16.987Z</time></trkpt><trkpt lat="42.5620033" lon="12.65812"><ele>131.0</ele><time>2026-05-03T08:09:17.987Z</time></trkpt><trkpt lat="42.56187" lon="12.6580783"><ele>131.0</ele><time>2026-05-03T08:09:18.985Z</time></trkpt><trkpt lat="42.56174" lon="12.6580317"><ele>131.0</ele><time>2026-05-03T08:09:19.989Z</time></trkpt><trkpt lat="42.5616067" lon="12.6579833"><ele>131.0</ele><time>2026-05-03T08:09:20.99Z</time></trkpt><trkpt lat="42.561475" lon="12.6579333"><ele>131.0</ele><time>2026-05-03T08:09:21.989Z</time></trkpt><trkpt lat="42.5613433" lon="12.657885"><ele>131.0</ele><time>2026-05-03T08:09:22.986Z</time></trkpt><trkpt lat="42.5612133" lon="12.6578367"><ele>131.0</ele><time>2026-05-03T08:09:23.993Z</time></trkpt><trkpt lat="42.561085" lon="12.6577917"><ele>131.0</ele><time>2026-05-03T08:09:24.987Z</time></trkpt><trkpt lat="42.5609667" lon="12.6577433"><ele>130.4</ele><time>2026-05-03T08:09:25.987Z</time></trkpt><trkpt lat="42.5608533" lon="12.6576983"><ele>129.8</ele><time>2026-05-03T08:09:26.986Z</time></trkpt><trkpt lat="42.5607483" lon="12.6576483"><ele>129.20000000000002</ele><time>2026-05-03T08:09:27.992Z</time></trkpt><trkpt lat="42.56065" lon="12.6575933"><ele>128.6</ele><time>2026-05-03T08:09:28.984Z</time></trkpt><trkpt lat="42.5605467" lon="12.6575433"><ele>128.0</ele><time>2026-05-03T08:09:29.987Z</time></trkpt><trkpt lat="42.5604417" lon="12.6574983"><ele>127.80000000000001</ele><time>2026-05-03T08:09:30.985Z</time></trkpt><trkpt lat="42.5603367" lon="12.6574517"><ele>127.60000000000001</ele><time>2026-05-03T08:09:31.988Z</time></trkpt><trkpt lat="42.5602283" lon="12.6574083"><ele>127.39999999999999</ele><time>2026-05-03T08:09:32.989Z</time></trkpt><trkpt lat="42.56012" lon="12.6573683"><ele>127.19999999999999</ele><time>2026-05-03T08:09:33.991Z</time></trkpt><trkpt lat="42.560015" lon="12.6573333"><ele>127.0</ele><time>2026-05-03T08:09:34.984Z</time></trkpt><trkpt lat="42.5599183" lon="12.6572883"><ele>127.0</ele><time>2026-05-03T08:09:35.983Z</time></trkpt><trkpt lat="42.5598267" lon="12.6572367"><ele>126.99999999999999</ele><time>2026-05-03T08:09:36.994Z</time></trkpt><trkpt lat="42.55974" lon="12.6571733"><ele>126.99999999999999</ele><time>2026-05-03T08:09:37.988Z</time></trkpt><trkpt lat="42.5596617" lon="12.6570933"><ele>127.0</ele><time>2026-05-03T08:09:38.985Z</time></trkpt><trkpt lat="42.559595" lon="12.6569967"><ele>127.0</ele><time>2026-05-03T08:09:39.984Z</time></trkpt><trkpt lat="42.5595433" lon="12.6568867"><ele>127.6</ele><time>2026-05-03T08:09:40.985Z</time></trkpt><trkpt lat="42.5595033" lon="12.6567683"><ele>128.2</ele><time>2026-05-03T08:09:41.993Z</time></trkpt><trkpt lat="42.5594617" lon="12.6566483"><ele>128.8</ele><time>2026-05-03T08:09:42.986Z</time></trkpt><trkpt lat="42.559415" lon="12.6565283"><ele>129.4</ele><time>2026-05-03T08:09:43.988Z</time></trkpt><trkpt lat="42.5593683" lon="12.6564033"><ele>130.0</ele><time>2026-05-03T08:09:44.989Z</time></trkpt><trkpt lat="42.5593167" lon="12.656285"><ele>130.0</ele><time>2026-05-03T08:09:45.985Z</time></trkpt><trkpt lat="42.5592567" lon="12.6561717"><ele>130.0</ele><time>2026-05-03T08:09:46.988Z</time></trkpt><trkpt lat="42.5591833" lon="12.6560767"><ele>130.0</ele><time>2026-05-03T08:09:47.991Z</time></trkpt><trkpt lat="42.5591033" lon="12.6560033"><ele>130.0</ele><time>2026-05-03T08:09:48.988Z</time></trkpt><trkpt lat="42.5590167" lon="12.6559567"><ele>130.0</ele><time>2026-05-03T08:09:49.985Z</time></trkpt><trkpt lat="42.5589217" lon="12.655935"><ele>129.8</ele><time>2026-05-03T08:09:50.986Z</time></trkpt><trkpt lat="42.5588217" lon="12.6559167"><ele>129.6</ele><time>2026-05-03T08:09:51.991Z</time></trkpt><trkpt lat="42.5587267" lon="12.655885"><ele>129.4</ele><time>2026-05-03T08:09:52.987Z</time></trkpt><trkpt lat="42.55864" lon="12.6558367"><ele>129.2</ele><time>2026-05-03T08:09:53.983Z</time></trkpt><trkpt lat="42.5585633" lon="12.6557617"><ele>129.0</ele><time>2026-05-03T08:09:54.987Z</time></trkpt><trkpt lat="42.55849" lon="12.6556633"><ele>128.5</ele><time>2026-05-03T08:09:55.983Z</time></trkpt><trkpt lat="42.558415" lon="12.65555"><ele>128.0</ele><time>2026-05-03T08:09:56.985Z</time></trkpt><trkpt lat="42.55834" lon="12.6554283"><ele>127.5</ele><time>2026-05-03T08:09:57.987Z</time></trkpt><trkpt lat="42.55826" lon="12.6553067"><ele>127.0</ele><time>2026-05-03T08:09:58.989Z</time></trkpt><trkpt lat="42.5581767" lon="12.65518"><ele>127.0</ele><time>2026-05-03T08:09:59.986Z</time></trkpt><trkpt lat="42.5580933" lon="12.6550567"><ele>127.0</ele><time>2026-05-03T08:10:00.985Z</time></trkpt><trkpt lat="42.5580083" lon="12.6549417"><ele>127.0</ele><time>2026-05-03T08:10:01.991Z</time></trkpt><trkpt lat="42.5579167" lon="12.6548367"><ele>127.0</ele><time>2026-05-03T08:10:02.989Z</time></trkpt><trkpt lat="42.5578167" lon="12.6547317"><ele>128.0</ele><time>2026-05-03T08:10:03.99Z</time></trkpt><trkpt lat="42.5577117" lon="12.6546267"><ele>129.0</ele><time>2026-05-03T08:10:04.991Z</time></trkpt><trkpt lat="42.5576" lon="12.6545167"><ele>130.0</ele><time>2026-05-03T08:10:05.992Z</time></trkpt><trkpt lat="42.5574817" lon="12.6544067"><ele>131.0</ele><time>2026-05-03T08:10:06.986Z</time></trkpt><trkpt lat="42.5573617" lon="12.6542883"><ele>131.0</ele><time>2026-05-03T08:10:07.994Z</time></trkpt><trkpt lat="42.5572433" lon="12.6541767"><ele>131.0</ele><time>2026-05-03T08:10:08.989Z</time></trkpt><trkpt lat="42.5571283" lon="12.6540667"><ele>131.0</ele><time>2026-05-03T08:10:09.987Z</time></trkpt><trkpt lat="42.55701" lon="12.6539617"><ele>131.0</ele><time>2026-05-03T08:10:10.984Z</time></trkpt><trkpt lat="42.556895" lon="12.6538533"><ele>131.0</ele><time>2026-05-03T08:10:11.987Z</time></trkpt><trkpt lat="42.5567783" lon="12.653745"><ele>131.0</ele><time>2026-05-03T08:10:12.983Z</time></trkpt><trkpt lat="42.5566583" lon="12.6536367"><ele>131.0</ele><time>2026-05-03T08:10:13.988Z</time></trkpt><trkpt lat="42.5565367" lon="12.6535233"><ele>131.0</ele><time>2026-05-03T08:10:14.984Z</time></trkpt><trkpt lat="42.5564117" lon="12.6534067"><ele>131.0</ele><time>2026-05-03T08:10:15.983Z</time></trkpt><trkpt lat="42.556285" lon="12.653285"><ele>131.0</ele><time>2026-05-03T08:10:16.989Z</time></trkpt><trkpt lat="42.55616" lon="12.6531583"><ele>131.0</ele><time>2026-05-03T08:10:17.983Z</time></trkpt><trkpt lat="42.5560417" lon="12.6530167"><ele>130.33333333333331</ele><time>2026-05-03T08:10:18.991Z</time></trkpt><trkpt lat="42.5559283" lon="12.652875"><ele>129.66666666666666</ele><time>2026-05-03T08:10:19.985Z</time></trkpt><trkpt lat="42.5558183" lon="12.6527167"><ele>129.0</ele><time>2026-05-03T08:10:20.989Z</time></trkpt><trkpt lat="42.5557117" lon="12.6525467"><ele>129.0</ele><time>2026-05-03T08:10:21.988Z</time></trkpt><trkpt lat="42.55561" lon="12.6523683"><ele>129.0</ele><time>2026-05-03T08:10:22.987Z</time></trkpt><trkpt lat="42.55552" lon="12.652185"><ele>129.0</ele><time>2026-05-03T08:10:23.994Z</time></trkpt><trkpt lat="42.5554383" lon="12.6520083"><ele>130.0</ele><time>2026-05-03T08:10:24.988Z</time></trkpt><trkpt lat="42.5553667" lon="12.651835"><ele>131.0</ele><time>2026-05-03T08:10:25.992Z</time></trkpt><trkpt lat="42.5553017" lon="12.651655"><ele>132.0</ele><time>2026-05-03T08:10:26.986Z</time></trkpt><trkpt lat="42.5552433" lon="12.6514733"><ele>133.0</ele><time>2026-05-03T08:10:27.992Z</time></trkpt><trkpt lat="42.5551883" lon="12.6512967"><ele>133.0</ele><time>2026-05-03T08:10:28.983Z</time></trkpt><trkpt lat="42.5551383" lon="12.6511317"><ele>133.0</ele><time>2026-05-03T08:10:29.989Z</time></trkpt><trkpt lat="42.5550883" lon="12.6509733"><ele>133.0</ele><time>2026-05-03T08:10:30.986Z</time></trkpt><trkpt lat="42.5550367" lon="12.6508217"><ele>133.0</ele><time>2026-05-03T08:10:31.996Z</time></trkpt><trkpt lat="42.5549867" lon="12.6506783"><ele>133.0</ele><time>2026-05-03T08:10:32.988Z</time></trkpt><trkpt lat="42.55494" lon="12.6505367"><ele>133.0</ele><time>2026-05-03T08:10:33.988Z</time></trkpt><trkpt lat="42.5549033" lon="12.6503983"><ele>133.0</ele><time>2026-05-03T08:10:34.987Z</time></trkpt><trkpt lat="42.5548717" lon="12.6502583"><ele>133.0</ele><time>2026-05-03T08:10:35.992Z</time></trkpt><trkpt lat="42.5548417" lon="12.6501117"><ele>133.0</ele><time>2026-05-03T08:10:36.993Z</time></trkpt><trkpt lat="42.5548033" lon="12.6499617"><ele>132.75</ele><time>2026-05-03T08:10:37.988Z</time></trkpt><trkpt lat="42.5547633" lon="12.64981"><ele>132.5</ele><time>2026-05-03T08:10:38.988Z</time></trkpt><trkpt lat="42.5547133" lon="12.649665"><ele>132.25</ele><time>2026-05-03T08:10:39.987Z</time></trkpt><trkpt lat="42.5546533" lon="12.64953"><ele>132.0</ele><time>2026-05-03T08:10:40.984Z</time></trkpt><trkpt lat="42.5545817" lon="12.6494017"><ele>132.0</ele><time>2026-05-03T08:10:41.986Z</time></trkpt><trkpt lat="42.5545017" lon="12.6492817"><ele>132.0</ele><time>2026-05-03T08:10:42.986Z</time></trkpt><trkpt lat="42.5544217" lon="12.6491567"><ele>132.0</ele><time>2026-05-03T08:10:43.986Z</time></trkpt><trkpt lat="42.5543383" lon="12.6490283"><ele>132.0</ele><time>2026-05-03T08:10:44.985Z</time></trkpt><trkpt lat="42.5542633" lon="12.6488933"><ele>132.0</ele><time>2026-05-03T08:10:45.987Z</time></trkpt><trkpt lat="42.5541917" lon="12.6487533"><ele>132.0</ele><time>2026-05-03T08:10:46.99Z</time></trkpt><trkpt lat="42.5541267" lon="12.64861"><ele>132.0</ele><time>2026-05-03T08:10:47.997Z</time></trkpt><trkpt lat="42.554065" lon="12.6484767"><ele>132.0</ele><time>2026-05-03T08:10:48.984Z</time></trkpt><trkpt lat="42.5540133" lon="12.6483483"><ele>131.33333333333334</ele><time>2026-05-03T08:10:49.986Z</time></trkpt><trkpt lat="42.5539683" lon="12.6482283"><ele>130.66666666666666</ele><time>2026-05-03T08:10:50.987Z</time></trkpt><trkpt lat="42.5539283" lon="12.648125"><ele>130.0</ele><time>2026-05-03T08:10:51.987Z</time></trkpt><trkpt lat="42.5538983" lon="12.648035"><ele>129.33333333333331</ele><time>2026-05-03T08:10:52.992Z</time></trkpt><trkpt lat="42.553875" lon="12.64795"><ele>128.66666666666666</ele><time>2026-05-03T08:10:53.985Z</time></trkpt><trkpt lat="42.5538617" lon="12.647865"><ele>128.0</ele><time>2026-05-03T08:10:54.992Z</time></trkpt><trkpt lat="42.553855" lon="12.64778"><ele>128.0</ele><time>2026-05-03T08:10:55.987Z</time></trkpt><trkpt lat="42.5538367" lon="12.647615"><ele>128.0</ele><time>2026-05-03T08:10:57.989Z</time></trkpt><trkpt lat="42.5538" lon="12.6475367"><ele>128.0</ele><time>2026-05-03T08:10:58.992Z</time></trkpt><trkpt lat="42.553745" lon="12.6474533"><ele>128.0</ele><time>2026-05-03T08:10:59.992Z</time></trkpt><trkpt lat="42.5536867" lon="12.64737"><ele>128.0</ele><time>2026-05-03T08:11:00.986Z</time></trkpt><trkpt lat="42.5536283" lon="12.647275"><ele>128.4</ele><time>2026-05-03T08:11:01.987Z</time></trkpt><trkpt lat="42.5535767" lon="12.6471683"><ele>128.8</ele><time>2026-05-03T08:11:02.987Z</time></trkpt><trkpt lat="42.553525" lon="12.647055"><ele>129.2</ele><time>2026-05-03T08:11:03.989Z</time></trkpt><trkpt lat="42.5534733" lon="12.6469383"><ele>129.6</ele><time>2026-05-03T08:11:04.993Z</time></trkpt><trkpt lat="42.5534267" lon="12.6468117"><ele>130.0</ele><time>2026-05-03T08:11:05.99Z</time></trkpt><trkpt lat="42.5533783" lon="12.64668"><ele>130.2</ele><time>2026-05-03T08:11:06.984Z</time></trkpt><trkpt lat="42.5533317" lon="12.6465467"><ele>130.4</ele><time>2026-05-03T08:11:07.992Z</time></trkpt><trkpt lat="42.5532883" lon="12.6464183"><ele>130.6</ele><time>2026-05-03T08:11:08.988Z</time></trkpt><trkpt lat="42.553245" lon="12.6462983"><ele>130.8</ele><time>2026-05-03T08:11:09.99Z</time></trkpt><trkpt lat="42.5532067" lon="12.64619"><ele>131.0</ele><time>2026-05-03T08:11:10.985Z</time></trkpt><trkpt lat="42.5531717" lon="12.6460883"><ele>130.5</ele><time>2026-05-03T08:11:11.985Z</time></trkpt><trkpt lat="42.5531417" lon="12.645985"><ele>130.0</ele><time>2026-05-03T08:11:12.985Z</time></trkpt><trkpt lat="42.5531167" lon="12.6458733"><ele>129.5</ele><time>2026-05-03T08:11:13.987Z</time></trkpt><trkpt lat="42.5530867" lon="12.64576"><ele>129.0</ele><time>2026-05-03T08:11:14.989Z</time></trkpt><trkpt lat="42.55306" lon="12.6456367"><ele>128.5</ele><time>2026-05-03T08:11:15.987Z</time></trkpt><trkpt lat="42.5530333" lon="12.64551"><ele>128.0</ele><time>2026-05-03T08:11:16.983Z</time></trkpt><trkpt lat="42.5530083" lon="12.6453817"><ele>128.33333333333331</ele><time>2026-05-03T08:11:17.986Z</time></trkpt><trkpt lat="42.5529833" lon="12.6452533"><ele>128.66666666666666</ele><time>2026-05-03T08:11:18.988Z</time></trkpt><trkpt lat="42.5529617" lon="12.6451267"><ele>129.0</ele><time>2026-05-03T08:11:19.984Z</time></trkpt><trkpt lat="42.5529483" lon="12.6450083"><ele>129.33333333333334</ele><time>2026-05-03T08:11:20.99Z</time></trkpt><trkpt lat="42.5529317" lon="12.6448983"><ele>129.66666666666669</ele><time>2026-05-03T08:11:21.988Z</time></trkpt><trkpt lat="42.5529167" lon="12.6448033"><ele>130.0</ele><time>2026-05-03T08:11:22.99Z</time></trkpt><trkpt lat="42.552895" lon="12.6446767"><ele>130.0</ele><time>2026-05-03T08:11:24.986Z</time></trkpt><trkpt lat="42.552885" lon="12.6445717"><ele>130.0</ele><time>2026-05-03T08:11:33.996Z</time></trkpt><trkpt lat="42.55289" lon="12.6444633"><ele>130.0</ele><time>2026-05-03T08:11:38.986Z</time></trkpt><trkpt lat="42.552905" lon="12.6443267"><ele>130.0</ele><time>2026-05-03T08:11:41.987Z</time></trkpt><trkpt lat="42.5528833" lon="12.6441933"><ele>130.0</ele><time>2026-05-03T08:11:43.992Z</time></trkpt><trkpt lat="42.5528367" lon="12.644055"><ele>130.16666666666669</ele><time>2026-05-03T08:11:45.984Z</time></trkpt><trkpt lat="42.5528133" lon="12.6439683"><ele>130.33333333333334</ele><time>2026-05-03T08:11:46.987Z</time></trkpt><trkpt lat="42.5527967" lon="12.6438733"><ele>130.5</ele><time>2026-05-03T08:11:47.987Z</time></trkpt><trkpt lat="42.5527833" lon="12.64377"><ele>130.66666666666666</ele><time>2026-05-03T08:11:48.989Z</time></trkpt><trkpt lat="42.55277" lon="12.64366"><ele>130.83333333333331</ele><time>2026-05-03T08:11:49.992Z</time></trkpt><trkpt lat="42.552755" lon="12.6435367"><ele>131.0</ele><time>2026-05-03T08:11:50.99Z</time></trkpt><trkpt lat="42.5527367" lon="12.6434017"><ele>130.6</ele><time>2026-05-03T08:11:51.988Z</time></trkpt><trkpt lat="42.552715" lon="12.64326"><ele>130.2</ele><time>2026-05-03T08:11:52.99Z</time></trkpt><trkpt lat="42.5526933" lon="12.6431183"><ele>129.8</ele><time>2026-05-03T08:11:53.991Z</time></trkpt><trkpt lat="42.5526733" lon="12.6429783"><ele>129.4</ele><time>2026-05-03T08:11:54.988Z</time></trkpt><trkpt lat="42.5526517" lon="12.64284"><ele>129.0</ele><time>2026-05-03T08:11:55.989Z</time></trkpt><trkpt lat="42.552635" lon="12.6426983"><ele>129.0</ele><time>2026-05-03T08:11:56.99Z</time></trkpt><trkpt lat="42.552615" lon="12.6425583"><ele>129.0</ele><time>2026-05-03T08:11:57.983Z</time></trkpt><trkpt lat="42.5525933" lon="12.6424167"><ele>129.0</ele><time>2026-05-03T08:11:58.993Z</time></trkpt><trkpt lat="42.5525733" lon="12.6422733"><ele>129.0</ele><time>2026-05-03T08:11:59.991Z</time></trkpt><trkpt lat="42.552555" lon="12.6421283"><ele>129.0</ele><time>2026-05-03T08:12:00.986Z</time></trkpt><trkpt lat="42.5525383" lon="12.6419867"><ele>129.4</ele><time>2026-05-03T08:12:01.986Z</time></trkpt><trkpt lat="42.552525" lon="12.6418467"><ele>129.8</ele><time>2026-05-03T08:12:02.987Z</time></trkpt><trkpt lat="42.5525117" lon="12.641705"><ele>130.2</ele><time>2026-05-03T08:12:03.986Z</time></trkpt><trkpt lat="42.5524967" lon="12.6415633"><ele>130.6</ele><time>2026-05-03T08:12:04.989Z</time></trkpt><trkpt lat="42.5524717" lon="12.6414217"><ele>131.0</ele><time>2026-05-03T08:12:05.99Z</time></trkpt><trkpt lat="42.5524483" lon="12.64128"><ele>131.0</ele><time>2026-05-03T08:12:06.989Z</time></trkpt><trkpt lat="42.5524233" lon="12.6411367"><ele>131.0</ele><time>2026-05-03T08:12:07.996Z</time></trkpt><trkpt lat="42.552395" lon="12.6409883"><ele>131.0</ele><time>2026-05-03T08:12:08.986Z</time></trkpt><trkpt lat="42.5523667" lon="12.6408383"><ele>131.0</ele><time>2026-05-03T08:12:09.984Z</time></trkpt><trkpt lat="42.5523367" lon="12.6406817"><ele>130.75</ele><time>2026-05-03T08:12:10.994Z</time></trkpt><trkpt lat="42.55231" lon="12.6405217"><ele>130.5</ele><time>2026-05-03T08:12:11.994Z</time></trkpt><trkpt lat="42.5522833" lon="12.640365"><ele>130.25</ele><time>2026-05-03T08:12:12.991Z</time></trkpt><trkpt lat="42.552255" lon="12.64021"><ele>130.0</ele><time>2026-05-03T08:12:13.991Z</time></trkpt><trkpt lat="42.5522283" lon="12.6400617"><ele>130.0</ele><time>2026-05-03T08:12:14.99Z</time></trkpt><trkpt lat="42.552205" lon="12.639915"><ele>130.0</ele><time>2026-05-03T08:12:15.988Z</time></trkpt><trkpt lat="42.5521783" lon="12.639765"><ele>130.0</ele><time>2026-05-03T08:12:16.988Z</time></trkpt><trkpt lat="42.5521533" lon="12.6396133"><ele>130.0</ele><time>2026-05-03T08:12:17.985Z</time></trkpt><trkpt lat="42.552125" lon="12.6394567"><ele>130.25</ele><time>2026-05-03T08:12:18.989Z</time></trkpt><trkpt lat="42.55209" lon="12.6392983"><ele>130.5</ele><time>2026-05-03T08:12:19.99Z</time></trkpt><trkpt lat="42.55205" lon="12.6391333"><ele>130.75</ele><time>2026-05-03T08:12:20.992Z</time></trkpt><trkpt lat="42.5520083" lon="12.6389633"><ele>131.0</ele><time>2026-05-03T08:12:21.99Z</time></trkpt><trkpt lat="42.5519633" lon="12.6387933"><ele>131.25</ele><time>2026-05-03T08:12:22.993Z</time></trkpt><trkpt lat="42.551915" lon="12.6386233"><ele>131.5</ele><time>2026-05-03T08:12:23.989Z</time></trkpt><trkpt lat="42.55186" lon="12.6384533"><ele>131.75</ele><time>2026-05-03T08:12:24.988Z</time></trkpt><trkpt lat="42.5518067" lon="12.6382883"><ele>132.0</ele><time>2026-05-03T08:12:25.989Z</time></trkpt><trkpt lat="42.5517533" lon="12.638125"><ele>132.0</ele><time>2026-05-03T08:12:26.986Z</time></trkpt><trkpt lat="42.5516983" lon="12.63797"><ele>132.0</ele><time>2026-05-03T08:12:27.99Z</time></trkpt><trkpt lat="42.5516483" lon="12.6378183"><ele>132.0</ele><time>2026-05-03T08:12:28.991Z</time></trkpt><trkpt lat="42.5515983" lon="12.6376683"><ele>132.0</ele><time>2026-05-03T08:12:29.985Z</time></trkpt><trkpt lat="42.5515483" lon="12.63753"><ele>131.79999999999998</ele><time>2026-05-03T08:12:30.991Z</time></trkpt><trkpt lat="42.5514983" lon="12.6373983"><ele>131.6</ele><time>2026-05-03T08:12:31.988Z</time></trkpt><trkpt lat="42.5514483" lon="12.63727"><ele>131.39999999999998</ele><time>2026-05-03T08:12:32.988Z</time></trkpt><trkpt lat="42.5514017" lon="12.63715"><ele>131.2</ele><time>2026-05-03T08:12:33.986Z</time></trkpt><trkpt lat="42.5513583" lon="12.63704"><ele>131.0</ele><time>2026-05-03T08:12:34.988Z</time></trkpt><trkpt lat="42.5513217" lon="12.6369267"><ele>130.8</ele><time>2026-05-03T08:12:35.986Z</time></trkpt><trkpt lat="42.55129" lon="12.6368133"><ele>130.6</ele><time>2026-05-03T08:12:36.992Z</time></trkpt><trkpt lat="42.5512683" lon="12.636695"><ele>130.4</ele><time>2026-05-03T08:12:37.985Z</time></trkpt><trkpt lat="42.5512467" lon="12.6365783"><ele>130.2</ele><time>2026-05-03T08:12:38.995Z</time></trkpt><trkpt lat="42.5512233" lon="12.63646"><ele>130.0</ele><time>2026-05-03T08:12:39.987Z</time></trkpt><trkpt lat="42.5511933" lon="12.63634"><ele>130.0</ele><time>2026-05-03T08:12:40.987Z</time></trkpt><trkpt lat="42.5511583" lon="12.6362167"><ele>130.0</ele><time>2026-05-03T08:12:41.996Z</time></trkpt><trkpt lat="42.5511167" lon="12.63609"><ele>130.0</ele><time>2026-05-03T08:12:42.988Z</time></trkpt><trkpt lat="42.5510767" lon="12.6359533"><ele>130.0</ele><time>2026-05-03T08:12:43.992Z</time></trkpt><trkpt lat="42.5510383" lon="12.63581"><ele>130.0</ele><time>2026-05-03T08:12:44.992Z</time></trkpt><trkpt lat="42.551015" lon="12.6356517"><ele>129.5</ele><time>2026-05-03T08:12:45.99Z</time></trkpt><trkpt lat="42.5510083" lon="12.6354983"><ele>129.0</ele><time>2026-05-03T08:12:46.987Z</time></trkpt><trkpt lat="42.5510133" lon="12.6353383"><ele>128.5</ele><time>2026-05-03T08:12:47.992Z</time></trkpt><trkpt lat="42.5510333" lon="12.6351783"><ele>128.0</ele><time>2026-05-03T08:12:48.989Z</time></trkpt><trkpt lat="42.55106" lon="12.6350167"><ele>128.25</ele><time>2026-05-03T08:12:49.987Z</time></trkpt><trkpt lat="42.551085" lon="12.6348483"><ele>128.5</ele><time>2026-05-03T08:12:50.987Z</time></trkpt><trkpt lat="42.55111" lon="12.634675"><ele>128.75</ele><time>2026-05-03T08:12:51.989Z</time></trkpt><trkpt lat="42.5511333" lon="12.6344983"><ele>129.0</ele><time>2026-05-03T08:12:52.986Z</time></trkpt><trkpt lat="42.55116" lon="12.6343183"><ele>129.0</ele><time>2026-05-03T08:12:53.988Z</time></trkpt><trkpt lat="42.5511883" lon="12.6341283"><ele>129.0</ele><time>2026-05-03T08:12:54.986Z</time></trkpt><trkpt lat="42.5512183" lon="12.6339383"><ele>129.0</ele><time>2026-05-03T08:12:55.987Z</time></trkpt><trkpt lat="42.5512483" lon="12.6337483"><ele>129.0</ele><time>2026-05-03T08:12:56.985Z</time></trkpt><trkpt lat="42.55128" lon="12.6335583"><ele>128.0</ele><time>2026-05-03T08:12:57.99Z</time></trkpt><trkpt lat="42.55131" lon="12.633375"><ele>127.0</ele><time>2026-05-03T08:12:58.987Z</time></trkpt><trkpt lat="42.5513417" lon="12.6331917"><ele>126.0</ele><time>2026-05-03T08:12:59.988Z</time></trkpt><trkpt lat="42.5513733" lon="12.6330133"><ele>125.0</ele><time>2026-05-03T08:13:00.988Z</time></trkpt><trkpt lat="42.5513983" lon="12.6328433"><ele>125.25</ele><time>2026-05-03T08:13:01.988Z</time></trkpt><trkpt lat="42.5514217" lon="12.632675"><ele>125.5</ele><time>2026-05-03T08:13:02.985Z</time></trkpt><trkpt lat="42.551445" lon="12.6325117"><ele>125.75</ele><time>2026-05-03T08:13:03.985Z</time></trkpt><trkpt lat="42.5514717" lon="12.63235"><ele>126.0</ele><time>2026-05-03T08:13:04.985Z</time></trkpt><trkpt lat="42.5514933" lon="12.6321917"><ele>126.0</ele><time>2026-05-03T08:13:05.985Z</time></trkpt><trkpt lat="42.551515" lon="12.63204"><ele>126.0</ele><time>2026-05-03T08:13:06.984Z</time></trkpt><trkpt lat="42.55154" lon="12.6318917"><ele>126.0</ele><time>2026-05-03T08:13:07.987Z</time></trkpt><trkpt lat="42.5515667" lon="12.631745"><ele>126.0</ele><time>2026-05-03T08:13:08.985Z</time></trkpt><trkpt lat="42.5515883" lon="12.631595"><ele>126.25</ele><time>2026-05-03T08:13:09.988Z</time></trkpt><trkpt lat="42.5516117" lon="12.63144"><ele>126.5</ele><time>2026-05-03T08:13:10.985Z</time></trkpt><trkpt lat="42.5516367" lon="12.63128"><ele>126.75</ele><time>2026-05-03T08:13:11.986Z</time></trkpt><trkpt lat="42.55166" lon="12.631115"><ele>127.0</ele><time>2026-05-03T08:13:12.994Z</time></trkpt><trkpt lat="42.5516883" lon="12.6309417"><ele>127.0</ele><time>2026-05-03T08:13:13.986Z</time></trkpt><trkpt lat="42.551715" lon="12.6307633"><ele>127.0</ele><time>2026-05-03T08:13:14.991Z</time></trkpt><trkpt lat="42.5517383" lon="12.630585"><ele>127.0</ele><time>2026-05-03T08:13:15.988Z</time></trkpt><trkpt lat="42.551765" lon="12.63041"><ele>127.0</ele><time>2026-05-03T08:13:16.99Z</time></trkpt><trkpt lat="42.5517867" lon="12.6302417"><ele>127.0</ele><time>2026-05-03T08:13:17.986Z</time></trkpt><trkpt lat="42.5518067" lon="12.63008"><ele>126.99999999999999</ele><time>2026-05-03T08:13:18.991Z</time></trkpt><trkpt lat="42.5518233" lon="12.6299267"><ele>126.99999999999999</ele><time>2026-05-03T08:13:19.997Z</time></trkpt><trkpt lat="42.55185" lon="12.6297833"><ele>127.0</ele><time>2026-05-03T08:13:20.995Z</time></trkpt><trkpt lat="42.5518833" lon="12.629655"><ele>127.0</ele><time>2026-05-03T08:13:21.988Z</time></trkpt><trkpt lat="42.551915" lon="12.6295283"><ele>126.6</ele><time>2026-05-03T08:13:22.989Z</time></trkpt><trkpt lat="42.5519317" lon="12.6294"><ele>126.19999999999999</ele><time>2026-05-03T08:13:23.993Z</time></trkpt><trkpt lat="42.5519283" lon="12.6292783"><ele>125.8</ele><time>2026-05-03T08:13:24.99Z</time></trkpt><trkpt lat="42.551915" lon="12.6291567"><ele>125.4</ele><time>2026-05-03T08:13:25.989Z</time></trkpt><trkpt lat="42.551875" lon="12.6290383"><ele>125.0</ele><time>2026-05-03T08:13:26.987Z</time></trkpt><trkpt lat="42.5518117" lon="12.62893"><ele>125.0</ele><time>2026-05-03T08:13:27.987Z</time></trkpt><trkpt lat="42.5517433" lon="12.6288083"><ele>125.0</ele><time>2026-05-03T08:13:28.994Z</time></trkpt><trkpt lat="42.5516717" lon="12.6286767"><ele>125.0</ele><time>2026-05-03T08:13:29.99Z</time></trkpt><trkpt lat="42.5515917" lon="12.6285417"><ele>125.0</ele><time>2026-05-03T08:13:30.993Z</time></trkpt><trkpt lat="42.5514983" lon="12.6284117"><ele>124.75</ele><time>2026-05-03T08:13:31.991Z</time></trkpt><trkpt lat="42.5514083" lon="12.6282667"><ele>124.5</ele><time>2026-05-03T08:13:32.989Z</time></trkpt><trkpt lat="42.551315" lon="12.628115"><ele>124.25</ele><time>2026-05-03T08:13:33.987Z</time></trkpt><trkpt lat="42.5512233" lon="12.6279567"><ele>124.0</ele><time>2026-05-03T08:13:34.991Z</time></trkpt><trkpt lat="42.55113" lon="12.627795"><ele>124.0</ele><time>2026-05-03T08:13:35.992Z</time></trkpt><trkpt lat="42.5510367" lon="12.6276283"><ele>124.0</ele><time>2026-05-03T08:13:36.992Z</time></trkpt><trkpt lat="42.55094" lon="12.6274617"><ele>124.0</ele><time>2026-05-03T08:13:37.989Z</time></trkpt><trkpt lat="42.550845" lon="12.6272867"><ele>124.0</ele><time>2026-05-03T08:13:38.989Z</time></trkpt><trkpt lat="42.55075" lon="12.62711"><ele>124.0</ele><time>2026-05-03T08:13:39.986Z</time></trkpt><trkpt lat="42.5506617" lon="12.6269267"><ele>124.0</ele><time>2026-05-03T08:13:40.985Z</time></trkpt><trkpt lat="42.550575" lon="12.6267417"><ele>124.33333333333334</ele><time>2026-05-03T08:13:41.993Z</time></trkpt><trkpt lat="42.5504933" lon="12.626555"><ele>124.66666666666666</ele><time>2026-05-03T08:13:42.989Z</time></trkpt><trkpt lat="42.5504117" lon="12.6263633"><ele>125.0</ele><time>2026-05-03T08:13:43.991Z</time></trkpt><trkpt lat="42.55033" lon="12.62617"><ele>125.33333333333333</ele><time>2026-05-03T08:13:44.989Z</time></trkpt><trkpt lat="42.5502483" lon="12.625975"><ele>125.66666666666666</ele><time>2026-05-03T08:13:45.99Z</time></trkpt><trkpt lat="42.550165" lon="12.62578"><ele>126.0</ele><time>2026-05-03T08:13:46.986Z</time></trkpt><trkpt lat="42.5500817" lon="12.6255833"><ele>126.0</ele><time>2026-05-03T08:13:47.99Z</time></trkpt><trkpt lat="42.5500017" lon="12.6253867"><ele>126.0</ele><time>2026-05-03T08:13:48.988Z</time></trkpt><trkpt lat="42.54992" lon="12.6251867"><ele>126.0</ele><time>2026-05-03T08:13:49.988Z</time></trkpt><trkpt lat="42.5498383" lon="12.6249867"><ele>125.66666666666666</ele><time>2026-05-03T08:13:50.988Z</time></trkpt><trkpt lat="42.549755" lon="12.6247867"><ele>125.33333333333333</ele><time>2026-05-03T08:13:51.991Z</time></trkpt><trkpt lat="42.549675" lon="12.6245883"><ele>125.0</ele><time>2026-05-03T08:13:52.991Z</time></trkpt><trkpt lat="42.5495933" lon="12.6243933"><ele>125.66666666666666</ele><time>2026-05-03T08:13:53.989Z</time></trkpt><trkpt lat="42.549515" lon="12.6242067"><ele>126.33333333333334</ele><time>2026-05-03T08:13:54.989Z</time></trkpt><trkpt lat="42.5494417" lon="12.6240233"><ele>127.0</ele><time>2026-05-03T08:13:55.985Z</time></trkpt><trkpt lat="42.54937" lon="12.6238467"><ele>127.0</ele><time>2026-05-03T08:13:56.988Z</time></trkpt><trkpt lat="42.5493033" lon="12.623675"><ele>127.0</ele><time>2026-05-03T08:13:57.984Z</time></trkpt><trkpt lat="42.5492383" lon="12.6235017"><ele>127.0</ele><time>2026-05-03T08:13:58.992Z</time></trkpt><trkpt lat="42.549175" lon="12.623325"><ele>127.0</ele><time>2026-05-03T08:13:59.991Z</time></trkpt><trkpt lat="42.5491117" lon="12.6231467"><ele>127.0</ele><time>2026-05-03T08:14:00.991Z</time></trkpt><trkpt lat="42.5490467" lon="12.6229717"><ele>127.0</ele><time>2026-05-03T08:14:01.992Z</time></trkpt><trkpt lat="42.5489833" lon="12.6227983"><ele>127.0</ele><time>2026-05-03T08:14:02.988Z</time></trkpt><trkpt lat="42.5489233" lon="12.6226283"><ele>127.0</ele><time>2026-05-03T08:14:03.987Z</time></trkpt><trkpt lat="42.5488633" lon="12.6224617"><ele>126.75</ele><time>2026-05-03T08:14:04.984Z</time></trkpt><trkpt lat="42.5488083" lon="12.622295"><ele>126.5</ele><time>2026-05-03T08:14:05.988Z</time></trkpt><trkpt lat="42.548755" lon="12.6221267"><ele>126.25</ele><time>2026-05-03T08:14:06.992Z</time></trkpt><trkpt lat="42.5487017" lon="12.6219567"><ele>126.0</ele><time>2026-05-03T08:14:07.985Z</time></trkpt><trkpt lat="42.54865" lon="12.621785"><ele>126.0</ele><time>2026-05-03T08:14:08.988Z</time></trkpt><trkpt lat="42.548595" lon="12.6216117"><ele>126.0</ele><time>2026-05-03T08:14:09.989Z</time></trkpt><trkpt lat="42.5485417" lon="12.62144"><ele>126.0</ele><time>2026-05-03T08:14:10.989Z</time></trkpt><trkpt lat="42.54849" lon="12.6212717"><ele>126.0</ele><time>2026-05-03T08:14:11.993Z</time></trkpt><trkpt lat="42.54844" lon="12.6211067"><ele>125.75</ele><time>2026-05-03T08:14:12.985Z</time></trkpt><trkpt lat="42.548395" lon="12.6209483"><ele>125.5</ele><time>2026-05-03T08:14:13.984Z</time></trkpt><trkpt lat="42.5483483" lon="12.6207933"><ele>125.25</ele><time>2026-05-03T08:14:14.988Z</time></trkpt><trkpt lat="42.5483067" lon="12.6206367"><ele>125.0</ele><time>2026-05-03T08:14:15.988Z</time></trkpt><trkpt lat="42.548265" lon="12.6204817"><ele>125.0</ele><time>2026-05-03T08:14:16.99Z</time></trkpt><trkpt lat="42.5482183" lon="12.6203267"><ele>125.0</ele><time>2026-05-03T08:14:17.988Z</time></trkpt><trkpt lat="42.548165" lon="12.6201767"><ele>125.0</ele><time>2026-05-03T08:14:18.988Z</time></trkpt><trkpt lat="42.5481067" lon="12.6200267"><ele>125.0</ele><time>2026-05-03T08:14:19.989Z</time></trkpt><trkpt lat="42.5480483" lon="12.6198733"><ele>124.75</ele><time>2026-05-03T08:14:20.99Z</time></trkpt><trkpt lat="42.54799" lon="12.61972"><ele>124.5</ele><time>2026-05-03T08:14:21.99Z</time></trkpt><trkpt lat="42.5479317" lon="12.619565"><ele>124.25</ele><time>2026-05-03T08:14:22.992Z</time></trkpt><trkpt lat="42.547875" lon="12.619405"><ele>124.0</ele><time>2026-05-03T08:14:23.989Z</time></trkpt><trkpt lat="42.547815" lon="12.6192417"><ele>124.5</ele><time>2026-05-03T08:14:24.983Z</time></trkpt><trkpt lat="42.547755" lon="12.619075"><ele>125.0</ele><time>2026-05-03T08:14:25.986Z</time></trkpt><trkpt lat="42.5476967" lon="12.618905"><ele>125.5</ele><time>2026-05-03T08:14:26.986Z</time></trkpt><trkpt lat="42.5476433" lon="12.6187317"><ele>126.0</ele><time>2026-05-03T08:14:27.987Z</time></trkpt><trkpt lat="42.5475933" lon="12.6185533"><ele>126.25</ele><time>2026-05-03T08:14:28.989Z</time></trkpt><trkpt lat="42.5475467" lon="12.6183717"><ele>126.5</ele><time>2026-05-03T08:14:29.991Z</time></trkpt><trkpt lat="42.5475017" lon="12.6181867"><ele>126.75</ele><time>2026-05-03T08:14:30.993Z</time></trkpt><trkpt lat="42.54746" lon="12.6180017"><ele>127.0</ele><time>2026-05-03T08:14:31.988Z</time></trkpt><trkpt lat="42.54742" lon="12.6178133"><ele>127.0</ele><time>2026-05-03T08:14:32.985Z</time></trkpt><trkpt lat="42.54738" lon="12.617625"><ele>127.0</ele><time>2026-05-03T08:14:33.996Z</time></trkpt><trkpt lat="42.54734" lon="12.617435"><ele>127.0</ele><time>2026-05-03T08:14:34.997Z</time></trkpt><trkpt lat="42.5473017" lon="12.6172467"><ele>127.0</ele><time>2026-05-03T08:14:35.989Z</time></trkpt><trkpt lat="42.5472617" lon="12.6170583"><ele>126.75</ele><time>2026-05-03T08:14:36.987Z</time></trkpt><trkpt lat="42.5472233" lon="12.616875"><ele>126.5</ele><time>2026-05-03T08:14:37.986Z</time></trkpt><trkpt lat="42.5471833" lon="12.6166883"><ele>126.25</ele><time>2026-05-03T08:14:38.992Z</time></trkpt><trkpt lat="42.5471383" lon="12.6165017"><ele>126.0</ele><time>2026-05-03T08:14:39.987Z</time></trkpt><trkpt lat="42.5470917" lon="12.6163167"><ele>125.25</ele><time>2026-05-03T08:14:40.988Z</time></trkpt><trkpt lat="42.547045" lon="12.6161267"><ele>124.5</ele><time>2026-05-03T08:14:41.989Z</time></trkpt><trkpt lat="42.5470017" lon="12.615935"><ele>123.75</ele><time>2026-05-03T08:14:42.986Z</time></trkpt><trkpt lat="42.5469533" lon="12.6157433"><ele>123.0</ele><time>2026-05-03T08:14:43.988Z</time></trkpt><trkpt lat="42.5469067" lon="12.6155533"><ele>123.0</ele><time>2026-05-03T08:14:44.987Z</time></trkpt><trkpt lat="42.5468583" lon="12.61537"><ele>123.0</ele><time>2026-05-03T08:14:45.99Z</time></trkpt><trkpt lat="42.546815" lon="12.615195"><ele>123.0</ele><time>2026-05-03T08:14:46.985Z</time></trkpt><trkpt lat="42.546775" lon="12.6150283"><ele>123.0</ele><time>2026-05-03T08:14:47.99Z</time></trkpt><trkpt lat="42.5467367" lon="12.61487"><ele>123.0</ele><time>2026-05-03T08:14:48.984Z</time></trkpt><trkpt lat="42.5467017" lon="12.6147217"><ele>123.00000000000001</ele><time>2026-05-03T08:14:49.989Z</time></trkpt><trkpt lat="42.5466717" lon="12.614585"><ele>123.00000000000001</ele><time>2026-05-03T08:14:50.99Z</time></trkpt><trkpt lat="42.5466517" lon="12.6144633"><ele>123.0</ele><time>2026-05-03T08:14:51.986Z</time></trkpt><trkpt lat="42.5466483" lon="12.61435"><ele>123.0</ele><time>2026-05-03T08:14:52.99Z</time></trkpt><trkpt lat="42.546655" lon="12.6142467"><ele>122.71428571428572</ele><time>2026-05-03T08:14:53.984Z</time></trkpt><trkpt lat="42.546655" lon="12.6141483"><ele>122.42857142857143</ele><time>2026-05-03T08:14:54.988Z</time></trkpt><trkpt lat="42.54664" lon="12.614065"><ele>122.14285714285714</ele><time>2026-05-03T08:14:55.99Z</time></trkpt><trkpt lat="42.5466083" lon="12.61399"><ele>121.85714285714286</ele><time>2026-05-03T08:14:56.988Z</time></trkpt><trkpt lat="42.5465633" lon="12.6139183"><ele>121.57142857142856</ele><time>2026-05-03T08:14:57.986Z</time></trkpt><trkpt lat="42.54652" lon="12.6138333"><ele>121.28571428571428</ele><time>2026-05-03T08:14:58.99Z</time></trkpt><trkpt lat="42.546485" lon="12.6137267"><ele>121.0</ele><time>2026-05-03T08:14:59.99Z</time></trkpt><trkpt lat="42.546455" lon="12.6136017"><ele>121.0</ele><time>2026-05-03T08:15:00.988Z</time></trkpt><trkpt lat="42.546425" lon="12.6134633"><ele>121.0</ele><time>2026-05-03T08:15:01.989Z</time></trkpt><trkpt lat="42.5463917" lon="12.61331"><ele>121.0</ele><time>2026-05-03T08:15:02.988Z</time></trkpt><trkpt lat="42.5463583" lon="12.61315"><ele>121.0</ele><time>2026-05-03T08:15:03.988Z</time></trkpt><trkpt lat="42.5463233" lon="12.6129883"><ele>121.0</ele><time>2026-05-03T08:15:04.991Z</time></trkpt><trkpt lat="42.5462933" lon="12.61284"><ele>121.0</ele><time>2026-05-03T08:15:05.992Z</time></trkpt><trkpt lat="42.5462683" lon="12.6127217"><ele>121.0</ele><time>2026-05-03T08:15:06.99Z</time></trkpt><trkpt lat="42.5462533" lon="12.6126317"><ele>121.0</ele><time>2026-05-03T08:15:07.986Z</time></trkpt><trkpt lat="42.5462217" lon="12.612475"><ele>121.0</ele><time>2026-05-03T08:15:09.984Z</time></trkpt><trkpt lat="42.5461983" lon="12.6123867"><ele>121.19999999999999</ele><time>2026-05-03T08:15:10.988Z</time></trkpt><trkpt lat="42.5461683" lon="12.6122817"><ele>121.39999999999999</ele><time>2026-05-03T08:15:11.987Z</time></trkpt><trkpt lat="42.5461383" lon="12.61216"><ele>121.6</ele><time>2026-05-03T08:15:12.985Z</time></trkpt><trkpt lat="42.546105" lon="12.612025"><ele>121.8</ele><time>2026-05-03T08:15:13.985Z</time></trkpt><trkpt lat="42.546075" lon="12.6118783"><ele>122.0</ele><time>2026-05-03T08:15:14.988Z</time></trkpt><trkpt lat="42.5460433" lon="12.61172"><ele>121.5</ele><time>2026-05-03T08:15:15.984Z</time></trkpt><trkpt lat="42.5460083" lon="12.6115583"><ele>121.0</ele><time>2026-05-03T08:15:16.983Z</time></trkpt><trkpt lat="42.5459767" lon="12.61139"><ele>120.5</ele><time>2026-05-03T08:15:17.987Z</time></trkpt><trkpt lat="42.5459417" lon="12.6112167"><ele>120.0</ele><time>2026-05-03T08:15:18.988Z</time></trkpt><trkpt lat="42.5459017" lon="12.6110467"><ele>119.5</ele><time>2026-05-03T08:15:19.987Z</time></trkpt><trkpt lat="42.5458633" lon="12.61087"><ele>119.0</ele><time>2026-05-03T08:15:20.982Z</time></trkpt><trkpt lat="42.545825" lon="12.61069"><ele>118.5</ele><time>2026-05-03T08:15:21.985Z</time></trkpt><trkpt lat="42.5457833" lon="12.61051"><ele>118.0</ele><time>2026-05-03T08:15:22.992Z</time></trkpt><trkpt lat="42.5457433" lon="12.6103267"><ele>117.75</ele><time>2026-05-03T08:15:23.985Z</time></trkpt><trkpt lat="42.5457017" lon="12.61014"><ele>117.5</ele><time>2026-05-03T08:15:24.987Z</time></trkpt><trkpt lat="42.5456617" lon="12.6099617"><ele>117.25</ele><time>2026-05-03T08:15:25.987Z</time></trkpt><trkpt lat="42.545625" lon="12.6097783"><ele>117.0</ele><time>2026-05-03T08:15:26.986Z</time></trkpt><trkpt lat="42.5455867" lon="12.609595"><ele>116.75</ele><time>2026-05-03T08:15:27.998Z</time></trkpt><trkpt lat="42.54555" lon="12.60941"><ele>116.5</ele><time>2026-05-03T08:15:28.985Z</time></trkpt><trkpt lat="42.545515" lon="12.6092217"><ele>116.25</ele><time>2026-05-03T08:15:29.986Z</time></trkpt><trkpt lat="42.545485" lon="12.60903"><ele>116.0</ele><time>2026-05-03T08:15:30.99Z</time></trkpt><trkpt lat="42.5454633" lon="12.6088333"><ele>115.75</ele><time>2026-05-03T08:15:31.992Z</time></trkpt><trkpt lat="42.5454467" lon="12.608635"><ele>115.5</ele><time>2026-05-03T08:15:32.989Z</time></trkpt><trkpt lat="42.5454317" lon="12.60844"><ele>115.25</ele><time>2026-05-03T08:15:33.986Z</time></trkpt><trkpt lat="42.5454217" lon="12.6082433"><ele>115.0</ele><time>2026-05-03T08:15:34.995Z</time></trkpt><trkpt lat="42.5454133" lon="12.6080483"><ele>115.0</ele><time>2026-05-03T08:15:35.985Z</time></trkpt><trkpt lat="42.5454083" lon="12.6078517"><ele>115.0</ele><time>2026-05-03T08:15:36.989Z</time></trkpt><trkpt lat="42.5454017" lon="12.607655"><ele>115.0</ele><time>2026-05-03T08:15:37.989Z</time></trkpt><trkpt lat="42.5453933" lon="12.6074567"><ele>115.0</ele><time>2026-05-03T08:15:38.991Z</time></trkpt><trkpt lat="42.5453867" lon="12.607265"><ele>115.0</ele><time>2026-05-03T08:15:39.997Z</time></trkpt><trkpt lat="42.5453817" lon="12.6070833"><ele>115.0</ele><time>2026-05-03T08:15:40.993Z</time></trkpt><trkpt lat="42.5453767" lon="12.6069083"><ele>115.0</ele><time>2026-05-03T08:15:41.996Z</time></trkpt><trkpt lat="42.545375" lon="12.6067383"><ele>115.0</ele><time>2026-05-03T08:15:42.992Z</time></trkpt><trkpt lat="42.5453767" lon="12.6065683"><ele>115.0</ele><time>2026-05-03T08:15:43.986Z</time></trkpt><trkpt lat="42.54538" lon="12.6064017"><ele>115.0</ele><time>2026-05-03T08:15:44.987Z</time></trkpt><trkpt lat="42.5453867" lon="12.606235"><ele>115.0</ele><time>2026-05-03T08:15:45.989Z</time></trkpt><trkpt lat="42.5453933" lon="12.60607"><ele>115.0</ele><time>2026-05-03T08:15:46.986Z</time></trkpt><trkpt lat="42.5454033" lon="12.6059083"><ele>114.5</ele><time>2026-05-03T08:15:47.995Z</time></trkpt><trkpt lat="42.545415" lon="12.6057467"><ele>114.0</ele><time>2026-05-03T08:15:48.989Z</time></trkpt><trkpt lat="42.5454233" lon="12.6055867"><ele>113.5</ele><time>2026-05-03T08:15:49.991Z</time></trkpt><trkpt lat="42.5454283" lon="12.6054267"><ele>113.0</ele><time>2026-05-03T08:15:50.987Z</time></trkpt><trkpt lat="42.5454333" lon="12.605265"><ele>113.0</ele><time>2026-05-03T08:15:51.986Z</time></trkpt><trkpt lat="42.5454383" lon="12.605095"><ele>113.0</ele><time>2026-05-03T08:15:52.987Z</time></trkpt><trkpt lat="42.5454433" lon="12.6049217"><ele>113.0</ele><time>2026-05-03T08:15:53.99Z</time></trkpt><trkpt lat="42.54545" lon="12.6047433"><ele>113.0</ele><time>2026-05-03T08:15:54.99Z</time></trkpt><trkpt lat="42.5454567" lon="12.6045583"><ele>113.0</ele><time>2026-05-03T08:15:55.99Z</time></trkpt><trkpt lat="42.5454633" lon="12.6043667"><ele>113.0</ele><time>2026-05-03T08:15:56.99Z</time></trkpt><trkpt lat="42.54547" lon="12.60417"><ele>113.0</ele><time>2026-05-03T08:15:57.992Z</time></trkpt><trkpt lat="42.545475" lon="12.6039667"><ele>113.0</ele><time>2026-05-03T08:15:58.99Z</time></trkpt><trkpt lat="42.5454817" lon="12.60376"><ele>113.33333333333333</ele><time>2026-05-03T08:15:59.989Z</time></trkpt><trkpt lat="42.54549" lon="12.60355"><ele>113.66666666666666</ele><time>2026-05-03T08:16:00.988Z</time></trkpt><trkpt lat="42.5454983" lon="12.60334"><ele>114.0</ele><time>2026-05-03T08:16:01.991Z</time></trkpt><trkpt lat="42.545505" lon="12.6031333"><ele>114.0</ele><time>2026-05-03T08:16:02.988Z</time></trkpt><trkpt lat="42.5455117" lon="12.602925"><ele>114.0</ele><time>2026-05-03T08:16:03.987Z</time></trkpt><trkpt lat="42.5455183" lon="12.6027183"><ele>114.0</ele><time>2026-05-03T08:16:04.985Z</time></trkpt><trkpt lat="42.5455267" lon="12.6025117"><ele>114.0</ele><time>2026-05-03T08:16:05.992Z</time></trkpt><trkpt lat="42.545535" lon="12.6023033"><ele>114.0</ele><time>2026-05-03T08:16:06.984Z</time></trkpt><trkpt lat="42.5455433" lon="12.6020983"><ele>114.0</ele><time>2026-05-03T08:16:07.986Z</time></trkpt><trkpt lat="42.54555" lon="12.6018883"><ele>113.66666666666666</ele><time>2026-05-03T08:16:08.992Z</time></trkpt><trkpt lat="42.5455567" lon="12.6016767"><ele>113.33333333333333</ele><time>2026-05-03T08:16:09.984Z</time></trkpt><trkpt lat="42.5455667" lon="12.60146"><ele>113.0</ele><time>2026-05-03T08:16:10.986Z</time></trkpt><trkpt lat="42.545575" lon="12.60124"><ele>113.0</ele><time>2026-05-03T08:16:11.986Z</time></trkpt><trkpt lat="42.5455833" lon="12.6010167"><ele>113.0</ele><time>2026-05-03T08:16:12.994Z</time></trkpt><trkpt lat="42.5455917" lon="12.60079"><ele>113.0</ele><time>2026-05-03T08:16:13.988Z</time></trkpt><trkpt lat="42.545595" lon="12.6005617"><ele>113.0</ele><time>2026-05-03T08:16:14.992Z</time></trkpt><trkpt lat="42.5455933" lon="12.6003333"><ele>113.0</ele><time>2026-05-03T08:16:15.989Z</time></trkpt><trkpt lat="42.54558" lon="12.6001117"><ele>113.0</ele><time>2026-05-03T08:16:16.984Z</time></trkpt><trkpt lat="42.5455583" lon="12.5998917"><ele>112.33333333333333</ele><time>2026-05-03T08:16:17.985Z</time></trkpt><trkpt lat="42.5455283" lon="12.599675"><ele>111.66666666666666</ele><time>2026-05-03T08:16:18.984Z</time></trkpt><trkpt lat="42.54549" lon="12.5994633"><ele>111.0</ele><time>2026-05-03T08:16:19.985Z</time></trkpt><trkpt lat="42.5454417" lon="12.5992533"><ele>111.0</ele><time>2026-05-03T08:16:20.986Z</time></trkpt><trkpt lat="42.5453883" lon="12.5990483"><ele>111.0</ele><time>2026-05-03T08:16:21.983Z</time></trkpt><trkpt lat="42.5453317" lon="12.5988417"><ele>111.0</ele><time>2026-05-03T08:16:22.995Z</time></trkpt><trkpt lat="42.545275" lon="12.5986367"><ele>110.66666666666666</ele><time>2026-05-03T08:16:23.991Z</time></trkpt><trkpt lat="42.5452167" lon="12.5984283"><ele>110.33333333333333</ele><time>2026-05-03T08:16:24.988Z</time></trkpt><trkpt lat="42.5451567" lon="12.5982217"><ele>110.0</ele><time>2026-05-03T08:16:25.987Z</time></trkpt><trkpt lat="42.5450967" lon="12.5980233"><ele>110.0</ele><time>2026-05-03T08:16:26.985Z</time></trkpt><trkpt lat="42.5450433" lon="12.5978333"><ele>110.0</ele><time>2026-05-03T08:16:27.984Z</time></trkpt><trkpt lat="42.5449917" lon="12.5976533"><ele>110.0</ele><time>2026-05-03T08:16:28.989Z</time></trkpt><trkpt lat="42.5449417" lon="12.59748"><ele>110.0</ele><time>2026-05-03T08:16:29.987Z</time></trkpt><trkpt lat="42.544895" lon="12.5973117"><ele>110.0</ele><time>2026-05-03T08:16:30.984Z</time></trkpt><trkpt lat="42.5448483" lon="12.5971467"><ele>110.0</ele><time>2026-05-03T08:16:31.994Z</time></trkpt><trkpt lat="42.544805" lon="12.596985"><ele>110.0</ele><time>2026-05-03T08:16:32.989Z</time></trkpt><trkpt lat="42.5447617" lon="12.5968267"><ele>110.0</ele><time>2026-05-03T08:16:33.987Z</time></trkpt><trkpt lat="42.5447183" lon="12.5966717"><ele>109.5</ele><time>2026-05-03T08:16:34.987Z</time></trkpt><trkpt lat="42.5446733" lon="12.5965217"><ele>109.0</ele><time>2026-05-03T08:16:35.989Z</time></trkpt><trkpt lat="42.5446317" lon="12.5963733"><ele>108.5</ele><time>2026-05-03T08:16:36.988Z</time></trkpt><trkpt lat="42.5445883" lon="12.5962283"><ele>108.0</ele><time>2026-05-03T08:16:37.989Z</time></trkpt><trkpt lat="42.5445483" lon="12.5960783"><ele>108.25</ele><time>2026-05-03T08:16:38.989Z</time></trkpt><trkpt lat="42.5445083" lon="12.5959283"><ele>108.5</ele><time>2026-05-03T08:16:39.984Z</time></trkpt><trkpt lat="42.5444667" lon="12.5957817"><ele>108.75</ele><time>2026-05-03T08:16:40.987Z</time></trkpt><trkpt lat="42.5444267" lon="12.595635"><ele>109.0</ele><time>2026-05-03T08:16:41.99Z</time></trkpt><trkpt lat="42.544385" lon="12.5954917"><ele>109.0</ele><time>2026-05-03T08:16:42.989Z</time></trkpt><trkpt lat="42.5443433" lon="12.5953467"><ele>109.0</ele><time>2026-05-03T08:16:43.992Z</time></trkpt><trkpt lat="42.5442983" lon="12.595195"><ele>109.0</ele><time>2026-05-03T08:16:44.986Z</time></trkpt><trkpt lat="42.5442517" lon="12.595035"><ele>109.0</ele><time>2026-05-03T08:16:45.981Z</time></trkpt><trkpt lat="42.5442033" lon="12.5948667"><ele>109.0</ele><time>2026-05-03T08:16:46.992Z</time></trkpt><trkpt lat="42.5441467" lon="12.5946933"><ele>109.0</ele><time>2026-05-03T08:16:47.992Z</time></trkpt><trkpt lat="42.5440883" lon="12.5945117"><ele>109.0</ele><time>2026-05-03T08:16:48.993Z</time></trkpt><trkpt lat="42.544025" lon="12.594325"><ele>109.0</ele><time>2026-05-03T08:16:49.984Z</time></trkpt><trkpt lat="42.5439633" lon="12.5941283"><ele>108.66666666666667</ele><time>2026-05-03T08:16:50.991Z</time></trkpt><trkpt lat="42.5439" lon="12.5939233"><ele>108.33333333333334</ele><time>2026-05-03T08:16:51.997Z</time></trkpt><trkpt lat="42.543835" lon="12.5937183"><ele>108.0</ele><time>2026-05-03T08:16:52.985Z</time></trkpt><trkpt lat="42.5437717" lon="12.5935133"><ele>107.66666666666666</ele><time>2026-05-03T08:16:53.989Z</time></trkpt><trkpt lat="42.54371" lon="12.59331"><ele>107.33333333333333</ele><time>2026-05-03T08:16:54.989Z</time></trkpt><trkpt lat="42.5436517" lon="12.593105"><ele>107.0</ele><time>2026-05-03T08:16:55.99Z</time></trkpt><trkpt lat="42.5435933" lon="12.5929"><ele>107.0</ele><time>2026-05-03T08:16:56.984Z</time></trkpt><trkpt lat="42.5435317" lon="12.5926933"><ele>107.0</ele><time>2026-05-03T08:16:57.99Z</time></trkpt><trkpt lat="42.5434683" lon="12.59249"><ele>107.0</ele><time>2026-05-03T08:16:58.985Z</time></trkpt><trkpt lat="42.5434067" lon="12.592285"><ele>107.0</ele><time>2026-05-03T08:16:59.992Z</time></trkpt><trkpt lat="42.5433433" lon="12.5920817"><ele>107.0</ele><time>2026-05-03T08:17:00.986Z</time></trkpt><trkpt lat="42.54328" lon="12.5918767"><ele>107.0</ele><time>2026-05-03T08:17:01.985Z</time></trkpt><trkpt lat="42.5432183" lon="12.591665"><ele>107.0</ele><time>2026-05-03T08:17:02.988Z</time></trkpt><trkpt lat="42.543155" lon="12.59145"><ele>107.0</ele><time>2026-05-03T08:17:03.983Z</time></trkpt><trkpt lat="42.543095" lon="12.5912333"><ele>107.0</ele><time>2026-05-03T08:17:04.986Z</time></trkpt><trkpt lat="42.5430333" lon="12.591025"><ele>107.0</ele><time>2026-05-03T08:17:05.985Z</time></trkpt><trkpt lat="42.5429733" lon="12.5908267"><ele>107.0</ele><time>2026-05-03T08:17:06.989Z</time></trkpt><trkpt lat="42.5429167" lon="12.5906333"><ele>107.0</ele><time>2026-05-03T08:17:07.988Z</time></trkpt><trkpt lat="42.54286" lon="12.59044"><ele>107.33333333333333</ele><time>2026-05-03T08:17:08.989Z</time></trkpt><trkpt lat="42.5428033" lon="12.5902433"><ele>107.66666666666666</ele><time>2026-05-03T08:17:09.985Z</time></trkpt><trkpt lat="42.5427483" lon="12.5900417"><ele>108.0</ele><time>2026-05-03T08:17:10.987Z</time></trkpt><trkpt lat="42.5426917" lon="12.5898317"><ele>108.0</ele><time>2026-05-03T08:17:11.985Z</time></trkpt><trkpt lat="42.5426317" lon="12.5896167"><ele>108.0</ele><time>2026-05-03T08:17:12.982Z</time></trkpt><trkpt lat="42.542575" lon="12.5894"><ele>108.0</ele><time>2026-05-03T08:17:13.987Z</time></trkpt><trkpt lat="42.5425133" lon="12.5891817"><ele>107.66666666666666</ele><time>2026-05-03T08:17:14.985Z</time></trkpt><trkpt lat="42.5424483" lon="12.5889583"><ele>107.33333333333333</ele><time>2026-05-03T08:17:15.989Z</time></trkpt><trkpt lat="42.542385" lon="12.588735"><ele>107.0</ele><time>2026-05-03T08:17:16.984Z</time></trkpt><trkpt lat="42.5423217" lon="12.5885117"><ele>106.66666666666666</ele><time>2026-05-03T08:17:17.987Z</time></trkpt><trkpt lat="42.5422583" lon="12.588285"><ele>106.33333333333334</ele><time>2026-05-03T08:17:18.986Z</time></trkpt><trkpt lat="42.5422" lon="12.588065"><ele>106.0</ele><time>2026-05-03T08:17:19.986Z</time></trkpt><trkpt lat="42.54214" lon="12.5878467"><ele>105.66666666666667</ele><time>2026-05-03T08:17:20.99Z</time></trkpt><trkpt lat="42.5420783" lon="12.58763"><ele>105.33333333333334</ele><time>2026-05-03T08:17:21.985Z</time></trkpt><trkpt lat="42.54202" lon="12.5874233"><ele>105.0</ele><time>2026-05-03T08:17:22.988Z</time></trkpt><trkpt lat="42.5419617" lon="12.5872217"><ele>107.0</ele><time>2026-05-03T08:17:23.987Z</time></trkpt><trkpt lat="42.5419033" lon="12.5870167"><ele>109.0</ele><time>2026-05-03T08:17:24.984Z</time></trkpt><trkpt lat="42.5418467" lon="12.5868083"><ele>111.0</ele><time>2026-05-03T08:17:25.998Z</time></trkpt><trkpt lat="42.5417817" lon="12.5865967"><ele>111.0</ele><time>2026-05-03T08:17:26.99Z</time></trkpt><trkpt lat="42.541715" lon="12.5863867"><ele>111.0</ele><time>2026-05-03T08:17:27.992Z</time></trkpt><trkpt lat="42.5416433" lon="12.5861817"><ele>111.0</ele><time>2026-05-03T08:17:28.987Z</time></trkpt><trkpt lat="42.5415733" lon="12.5859733"><ele>110.66666666666666</ele><time>2026-05-03T08:17:29.987Z</time></trkpt><trkpt lat="42.541505" lon="12.585765"><ele>110.33333333333333</ele><time>2026-05-03T08:17:30.985Z</time></trkpt><trkpt lat="42.5414417" lon="12.5855567"><ele>110.0</ele><time>2026-05-03T08:17:31.983Z</time></trkpt><trkpt lat="42.54138" lon="12.5853433"><ele>109.0</ele><time>2026-05-03T08:17:32.991Z</time></trkpt><trkpt lat="42.5413217" lon="12.5851283"><ele>108.0</ele><time>2026-05-03T08:17:33.986Z</time></trkpt><trkpt lat="42.541265" lon="12.5849133"><ele>107.0</ele><time>2026-05-03T08:17:34.985Z</time></trkpt><trkpt lat="42.5412067" lon="12.584695"><ele>111.66666666666666</ele><time>2026-05-03T08:17:35.991Z</time></trkpt><trkpt lat="42.5411483" lon="12.584475"><ele>116.33333333333334</ele><time>2026-05-03T08:17:36.989Z</time></trkpt><trkpt lat="42.5410867" lon="12.5842567"><ele>121.0</ele><time>2026-05-03T08:17:37.984Z</time></trkpt><trkpt lat="42.541025" lon="12.5840383"><ele>121.0</ele><time>2026-05-03T08:17:38.989Z</time></trkpt><trkpt lat="42.540965" lon="12.5838183"><ele>121.0</ele><time>2026-05-03T08:17:39.987Z</time></trkpt><trkpt lat="42.5409067" lon="12.5836017"><ele>121.0</ele><time>2026-05-03T08:17:40.982Z</time></trkpt><trkpt lat="42.54085" lon="12.5833833"><ele>120.66666666666667</ele><time>2026-05-03T08:17:41.988Z</time></trkpt><trkpt lat="42.540795" lon="12.5831667"><ele>120.33333333333334</ele><time>2026-05-03T08:17:42.988Z</time></trkpt><trkpt lat="42.54074" lon="12.5829483"><ele>120.0</ele><time>2026-05-03T08:17:43.986Z</time></trkpt><trkpt lat="42.5406867" lon="12.5827283"><ele>120.66666666666666</ele><time>2026-05-03T08:17:44.99Z</time></trkpt><trkpt lat="42.5406333" lon="12.58251"><ele>121.33333333333333</ele><time>2026-05-03T08:17:45.986Z</time></trkpt><trkpt lat="42.5405833" lon="12.5822917"><ele>122.0</ele><time>2026-05-03T08:17:46.992Z</time></trkpt><trkpt lat="42.540535" lon="12.58208"><ele>122.66666666666666</ele><time>2026-05-03T08:17:47.986Z</time></trkpt><trkpt lat="42.5404833" lon="12.5818733"><ele>123.33333333333334</ele><time>2026-05-03T08:17:48.988Z</time></trkpt><trkpt lat="42.54043" lon="12.5816733"><ele>124.0</ele><time>2026-05-03T08:17:49.99Z</time></trkpt><trkpt lat="42.5403717" lon="12.5814717"><ele>124.33333333333334</ele><time>2026-05-03T08:17:50.988Z</time></trkpt><trkpt lat="42.5403117" lon="12.5812633"><ele>124.66666666666666</ele><time>2026-05-03T08:17:51.987Z</time></trkpt><trkpt lat="42.5402483" lon="12.5810517"><ele>125.0</ele><time>2026-05-03T08:17:52.991Z</time></trkpt><trkpt lat="42.5401783" lon="12.58084"><ele>124.33333333333333</ele><time>2026-05-03T08:17:53.984Z</time></trkpt><trkpt lat="42.54011" lon="12.58063"><ele>123.66666666666666</ele><time>2026-05-03T08:17:54.989Z</time></trkpt><trkpt lat="42.54004" lon="12.5804217"><ele>123.0</ele><time>2026-05-03T08:17:55.987Z</time></trkpt><trkpt lat="42.5399717" lon="12.580215"><ele>122.66666666666666</ele><time>2026-05-03T08:17:56.986Z</time></trkpt><trkpt lat="42.5399067" lon="12.580005"><ele>122.33333333333333</ele><time>2026-05-03T08:17:57.989Z</time></trkpt><trkpt lat="42.5398383" lon="12.5797917"><ele>122.0</ele><time>2026-05-03T08:17:58.987Z</time></trkpt><trkpt lat="42.5397717" lon="12.5795733"><ele>121.33333333333333</ele><time>2026-05-03T08:17:59.989Z</time></trkpt><trkpt lat="42.539705" lon="12.579355"><ele>120.66666666666666</ele><time>2026-05-03T08:18:00.987Z</time></trkpt><trkpt lat="42.539635" lon="12.57914"><ele>120.0</ele><time>2026-05-03T08:18:01.989Z</time></trkpt><trkpt lat="42.539565" lon="12.57893"><ele>119.66666666666666</ele><time>2026-05-03T08:18:02.985Z</time></trkpt><trkpt lat="42.5394883" lon="12.5787233"><ele>119.33333333333333</ele><time>2026-05-03T08:18:03.986Z</time></trkpt><trkpt lat="42.5394083" lon="12.5785183"><ele>119.0</ele><time>2026-05-03T08:18:04.987Z</time></trkpt><trkpt lat="42.5393267" lon="12.5783167"><ele>117.66666666666666</ele><time>2026-05-03T08:18:05.984Z</time></trkpt><trkpt lat="42.53924" lon="12.5781183"><ele>116.33333333333334</ele><time>2026-05-03T08:18:06.983Z</time></trkpt><trkpt lat="42.539155" lon="12.5779267"><ele>115.0</ele><time>2026-05-03T08:18:07.994Z</time></trkpt><trkpt lat="42.5390733" lon="12.5777417"><ele>115.0</ele><time>2026-05-03T08:18:08.987Z</time></trkpt><trkpt lat="42.539005" lon="12.5775583"><ele>115.0</ele><time>2026-05-03T08:18:09.99Z</time></trkpt><trkpt lat="42.53895" lon="12.5773683"><ele>115.0</ele><time>2026-05-03T08:18:10.99Z</time></trkpt><trkpt lat="42.53891" lon="12.57717"><ele>114.66666666666667</ele><time>2026-05-03T08:18:11.988Z</time></trkpt><trkpt lat="42.5388783" lon="12.5769667"><ele>114.33333333333334</ele><time>2026-05-03T08:18:12.987Z</time></trkpt><trkpt lat="42.5388517" lon="12.576765"><ele>114.0</ele><time>2026-05-03T08:18:13.988Z</time></trkpt><trkpt lat="42.5388317" lon="12.5765667"><ele>114.0</ele><time>2026-05-03T08:18:14.989Z</time></trkpt><trkpt lat="42.5388067" lon="12.5763783"><ele>114.0</ele><time>2026-05-03T08:18:15.991Z</time></trkpt><trkpt lat="42.538785" lon="12.5761933"><ele>114.0</ele><time>2026-05-03T08:18:16.991Z</time></trkpt><trkpt lat="42.5387617" lon="12.5760133"><ele>114.0</ele><time>2026-05-03T08:18:17.991Z</time></trkpt><trkpt lat="42.538735" lon="12.5758267"><ele>113.0</ele><time>2026-05-03T08:18:18.987Z</time></trkpt><trkpt lat="42.5387033" lon="12.5756467"><ele>112.0</ele><time>2026-05-03T08:18:19.988Z</time></trkpt><trkpt lat="42.5386633" lon="12.575465"><ele>111.0</ele><time>2026-05-03T08:18:20.987Z</time></trkpt><trkpt lat="42.53862" lon="12.5752833"><ele>110.0</ele><time>2026-05-03T08:18:21.989Z</time></trkpt><trkpt lat="42.5385683" lon="12.5750917"><ele>109.66666666666666</ele><time>2026-05-03T08:18:22.988Z</time></trkpt><trkpt lat="42.5385183" lon="12.5749"><ele>109.33333333333334</ele><time>2026-05-03T08:18:23.993Z</time></trkpt><trkpt lat="42.5384617" lon="12.5747067"><ele>109.0</ele><time>2026-05-03T08:18:24.99Z</time></trkpt><trkpt lat="42.5383983" lon="12.5745167"><ele>108.66666666666667</ele><time>2026-05-03T08:18:25.989Z</time></trkpt><trkpt lat="42.5383267" lon="12.5743317"><ele>108.33333333333334</ele><time>2026-05-03T08:18:26.989Z</time></trkpt><trkpt lat="42.53825" lon="12.5741483"><ele>108.0</ele><time>2026-05-03T08:18:27.987Z</time></trkpt><trkpt lat="42.5381683" lon="12.5739683"><ele>108.0</ele><time>2026-05-03T08:18:28.985Z</time></trkpt><trkpt lat="42.5380883" lon="12.5737917"><ele>108.0</ele><time>2026-05-03T08:18:29.989Z</time></trkpt><trkpt lat="42.5380117" lon="12.573615"><ele>108.0</ele><time>2026-05-03T08:18:30.99Z</time></trkpt><trkpt lat="42.5379417" lon="12.5734317"><ele>109.0</ele><time>2026-05-03T08:18:31.988Z</time></trkpt><trkpt lat="42.5378833" lon="12.57324"><ele>110.0</ele><time>2026-05-03T08:18:32.986Z</time></trkpt><trkpt lat="42.5378333" lon="12.5730367"><ele>111.0</ele><time>2026-05-03T08:18:33.985Z</time></trkpt><trkpt lat="42.537785" lon="12.57283"><ele>111.0</ele><time>2026-05-03T08:18:34.989Z</time></trkpt><trkpt lat="42.53774" lon="12.5726183"><ele>111.0</ele><time>2026-05-03T08:18:35.991Z</time></trkpt><trkpt lat="42.5376933" lon="12.5724017"><ele>111.0</ele><time>2026-05-03T08:18:36.99Z</time></trkpt><trkpt lat="42.5376467" lon="12.572185"><ele>111.33333333333334</ele><time>2026-05-03T08:18:37.99Z</time></trkpt><trkpt lat="42.5376" lon="12.5719633"><ele>111.66666666666667</ele><time>2026-05-03T08:18:38.985Z</time></trkpt><trkpt lat="42.537555" lon="12.57174"><ele>112.0</ele><time>2026-05-03T08:18:39.988Z</time></trkpt><trkpt lat="42.53751" lon="12.5715167"><ele>112.0</ele><time>2026-05-03T08:18:40.999Z</time></trkpt><trkpt lat="42.5374667" lon="12.571295"><ele>112.0</ele><time>2026-05-03T08:18:41.987Z</time></trkpt><trkpt lat="42.537425" lon="12.571075"><ele>112.0</ele><time>2026-05-03T08:18:42.986Z</time></trkpt><trkpt lat="42.537385" lon="12.5708567"><ele>112.0</ele><time>2026-05-03T08:18:43.992Z</time></trkpt><trkpt lat="42.53734" lon="12.5706417"><ele>112.0</ele><time>2026-05-03T08:18:44.987Z</time></trkpt><trkpt lat="42.537295" lon="12.5704267"><ele>112.0</ele><time>2026-05-03T08:18:45.986Z</time></trkpt><trkpt lat="42.5372383" lon="12.5702167"><ele>111.33333333333334</ele><time>2026-05-03T08:18:46.987Z</time></trkpt><trkpt lat="42.537175" lon="12.5700133"><ele>110.66666666666666</ele><time>2026-05-03T08:18:47.981Z</time></trkpt><trkpt lat="42.5370983" lon="12.5698183"><ele>110.0</ele><time>2026-05-03T08:18:48.991Z</time></trkpt><trkpt lat="42.5370167" lon="12.569625"><ele>109.0</ele><time>2026-05-03T08:18:49.987Z</time></trkpt><trkpt lat="42.5369317" lon="12.56943"><ele>108.0</ele><time>2026-05-03T08:18:50.989Z</time></trkpt><trkpt lat="42.53685" lon="12.5692317"><ele>107.0</ele><time>2026-05-03T08:18:51.988Z</time></trkpt><trkpt lat="42.53677" lon="12.5690317"><ele>107.0</ele><time>2026-05-03T08:18:52.989Z</time></trkpt><trkpt lat="42.5366917" lon="12.5688283"><ele>107.0</ele><time>2026-05-03T08:18:53.984Z</time></trkpt><trkpt lat="42.5366217" lon="12.5686217"><ele>107.0</ele><time>2026-05-03T08:18:54.986Z</time></trkpt><trkpt lat="42.53656" lon="12.56841"><ele>106.33333333333333</ele><time>2026-05-03T08:18:55.987Z</time></trkpt><trkpt lat="42.5365067" lon="12.568195"><ele>105.66666666666666</ele><time>2026-05-03T08:18:56.991Z</time></trkpt><trkpt lat="42.5364583" lon="12.5679783"><ele>105.0</ele><time>2026-05-03T08:18:57.988Z</time></trkpt><trkpt lat="42.53641" lon="12.5677633"><ele>104.33333333333334</ele><time>2026-05-03T08:18:58.995Z</time></trkpt><trkpt lat="42.5363583" lon="12.5675517"><ele>103.66666666666667</ele><time>2026-05-03T08:18:59.99Z</time></trkpt><trkpt lat="42.5363017" lon="12.56734"><ele>103.0</ele><time>2026-05-03T08:19:00.987Z</time></trkpt><trkpt lat="42.53624" lon="12.56713"><ele>102.33333333333334</ele><time>2026-05-03T08:19:01.987Z</time></trkpt><trkpt lat="42.5361733" lon="12.5669167"><ele>101.66666666666666</ele><time>2026-05-03T08:19:02.985Z</time></trkpt><trkpt lat="42.5361033" lon="12.5667"><ele>101.0</ele><time>2026-05-03T08:19:03.987Z</time></trkpt><trkpt lat="42.53603" lon="12.5664817"><ele>101.0</ele><time>2026-05-03T08:19:04.983Z</time></trkpt><trkpt lat="42.535955" lon="12.56626"><ele>101.0</ele><time>2026-05-03T08:19:05.988Z</time></trkpt><trkpt lat="42.5358783" lon="12.5660383"><ele>101.0</ele><time>2026-05-03T08:19:06.988Z</time></trkpt><trkpt lat="42.535805" lon="12.5658167"><ele>101.33333333333333</ele><time>2026-05-03T08:19:07.989Z</time></trkpt><trkpt lat="42.5357367" lon="12.5655933"><ele>101.66666666666666</ele><time>2026-05-03T08:19:08.989Z</time></trkpt><trkpt lat="42.5356717" lon="12.5653717"><ele>102.0</ele><time>2026-05-03T08:19:09.993Z</time></trkpt><trkpt lat="42.53561" lon="12.56515"><ele>102.0</ele><time>2026-05-03T08:19:10.987Z</time></trkpt><trkpt lat="42.53555" lon="12.5649283"><ele>102.0</ele><time>2026-05-03T08:19:11.989Z</time></trkpt><trkpt lat="42.53549" lon="12.5647083"><ele>102.0</ele><time>2026-05-03T08:19:12.987Z</time></trkpt><trkpt lat="42.5354317" lon="12.5644867"><ele>102.0</ele><time>2026-05-03T08:19:13.988Z</time></trkpt><trkpt lat="42.53537" lon="12.56426"><ele>102.0</ele><time>2026-05-03T08:19:14.991Z</time></trkpt><trkpt lat="42.53531" lon="12.56403"><ele>102.0</ele><time>2026-05-03T08:19:15.99Z</time></trkpt><trkpt lat="42.535245" lon="12.5637967"><ele>102.0</ele><time>2026-05-03T08:19:16.989Z</time></trkpt><trkpt lat="42.5351833" lon="12.56356"><ele>102.0</ele><time>2026-05-03T08:19:17.989Z</time></trkpt><trkpt lat="42.5351183" lon="12.5633283"><ele>102.0</ele><time>2026-05-03T08:19:18.991Z</time></trkpt><trkpt lat="42.5350533" lon="12.5630983"><ele>102.0</ele><time>2026-05-03T08:19:19.988Z</time></trkpt><trkpt lat="42.5349917" lon="12.5628767"><ele>102.0</ele><time>2026-05-03T08:19:20.983Z</time></trkpt><trkpt lat="42.5349317" lon="12.562655"><ele>102.0</ele><time>2026-05-03T08:19:21.987Z</time></trkpt><trkpt lat="42.53487" lon="12.5624367"><ele>101.66666666666666</ele><time>2026-05-03T08:19:22.986Z</time></trkpt><trkpt lat="42.5348083" lon="12.5622217"><ele>101.33333333333333</ele><time>2026-05-03T08:19:23.989Z</time></trkpt><trkpt lat="42.534745" lon="12.562005"><ele>101.0</ele><time>2026-05-03T08:19:24.992Z</time></trkpt><trkpt lat="42.53468" lon="12.5617867"><ele>101.0</ele><time>2026-05-03T08:19:25.994Z</time></trkpt><trkpt lat="42.5346133" lon="12.561565"><ele>101.0</ele><time>2026-05-03T08:19:26.987Z</time></trkpt><trkpt lat="42.5345467" lon="12.5613433"><ele>101.0</ele><time>2026-05-03T08:19:27.987Z</time></trkpt><trkpt lat="42.5344767" lon="12.56112"><ele>100.33333333333333</ele><time>2026-05-03T08:19:28.991Z</time></trkpt><trkpt lat="42.5344083" lon="12.5608933"><ele>99.66666666666666</ele><time>2026-05-03T08:19:29.987Z</time></trkpt><trkpt lat="42.5343367" lon="12.5606683"><ele>99.0</ele><time>2026-05-03T08:19:30.992Z</time></trkpt><trkpt lat="42.5342683" lon="12.5604467"><ele>99.0</ele><time>2026-05-03T08:19:31.996Z</time></trkpt><trkpt lat="42.5342017" lon="12.560225"><ele>99.0</ele><time>2026-05-03T08:19:32.987Z</time></trkpt><trkpt lat="42.534135" lon="12.560005"><ele>99.0</ele><time>2026-05-03T08:19:33.991Z</time></trkpt><trkpt lat="42.5340683" lon="12.5597883"><ele>99.0</ele><time>2026-05-03T08:19:34.993Z</time></trkpt><trkpt lat="42.5340033" lon="12.559575"><ele>99.0</ele><time>2026-05-03T08:19:35.986Z</time></trkpt><trkpt lat="42.5339383" lon="12.5593633"><ele>99.0</ele><time>2026-05-03T08:19:36.99Z</time></trkpt><trkpt lat="42.5338733" lon="12.55915"><ele>98.66666666666666</ele><time>2026-05-03T08:19:37.988Z</time></trkpt><trkpt lat="42.5338067" lon="12.55894"><ele>98.33333333333333</ele><time>2026-05-03T08:19:38.988Z</time></trkpt><trkpt lat="42.5337417" lon="12.55873"><ele>98.0</ele><time>2026-05-03T08:19:39.989Z</time></trkpt><trkpt lat="42.533675" lon="12.55852"><ele>98.0</ele><time>2026-05-03T08:19:40.991Z</time></trkpt><trkpt lat="42.53361" lon="12.55831"><ele>98.0</ele><time>2026-05-03T08:19:41.992Z</time></trkpt><trkpt lat="42.533545" lon="12.5581"><ele>98.0</ele><time>2026-05-03T08:19:42.992Z</time></trkpt><trkpt lat="42.5334817" lon="12.5578833"><ele>97.66666666666666</ele><time>2026-05-03T08:19:43.991Z</time></trkpt><trkpt lat="42.5334167" lon="12.5576633"><ele>97.33333333333334</ele><time>2026-05-03T08:19:44.989Z</time></trkpt><trkpt lat="42.5333467" lon="12.5574383"><ele>97.0</ele><time>2026-05-03T08:19:45.989Z</time></trkpt><trkpt lat="42.5332783" lon="12.5572067"><ele>97.0</ele><time>2026-05-03T08:19:46.984Z</time></trkpt><trkpt lat="42.5332067" lon="12.5569683"><ele>97.0</ele><time>2026-05-03T08:19:47.988Z</time></trkpt><trkpt lat="42.5331317" lon="12.55672"><ele>97.0</ele><time>2026-05-03T08:19:48.989Z</time></trkpt><trkpt lat="42.5330533" lon="12.5564617"><ele>97.0</ele><time>2026-05-03T08:19:49.991Z</time></trkpt><trkpt lat="42.5329717" lon="12.5561883"><ele>97.0</ele><time>2026-05-03T08:19:50.99Z</time></trkpt><trkpt lat="42.5328883" lon="12.5559017"><ele>97.0</ele><time>2026-05-03T08:19:51.988Z</time></trkpt><trkpt lat="42.5328083" lon="12.555615"><ele>97.33333333333334</ele><time>2026-05-03T08:19:52.991Z</time></trkpt><trkpt lat="42.532735" lon="12.5553433"><ele>97.66666666666666</ele><time>2026-05-03T08:19:53.984Z</time></trkpt><trkpt lat="42.5326633" lon="12.55508"><ele>98.0</ele><time>2026-05-03T08:19:54.988Z</time></trkpt><trkpt lat="42.53259" lon="12.5548183"><ele>98.0</ele><time>2026-05-03T08:19:55.987Z</time></trkpt><trkpt lat="42.5325167" lon="12.5545633"><ele>98.0</ele><time>2026-05-03T08:19:56.986Z</time></trkpt><trkpt lat="42.5324467" lon="12.5543133"><ele>98.0</ele><time>2026-05-03T08:19:57.99Z</time></trkpt><trkpt lat="42.5323783" lon="12.5540733"><ele>97.66666666666666</ele><time>2026-05-03T08:19:58.988Z</time></trkpt><trkpt lat="42.5323117" lon="12.5538433"><ele>97.33333333333334</ele><time>2026-05-03T08:19:59.991Z</time></trkpt><trkpt lat="42.532245" lon="12.5536167"><ele>97.0</ele><time>2026-05-03T08:20:00.986Z</time></trkpt><trkpt lat="42.5321783" lon="12.5533883"><ele>97.0</ele><time>2026-05-03T08:20:01.987Z</time></trkpt><trkpt lat="42.5321117" lon="12.5531633"><ele>97.0</ele><time>2026-05-03T08:20:02.985Z</time></trkpt><trkpt lat="42.5320483" lon="12.5529433"><ele>97.0</ele><time>2026-05-03T08:20:03.988Z</time></trkpt><trkpt lat="42.5319833" lon="12.5527233"><ele>97.0</ele><time>2026-05-03T08:20:04.988Z</time></trkpt><trkpt lat="42.5319167" lon="12.5524983"><ele>97.0</ele><time>2026-05-03T08:20:05.988Z</time></trkpt><trkpt lat="42.5318433" lon="12.5522617"><ele>97.0</ele><time>2026-05-03T08:20:06.984Z</time></trkpt><trkpt lat="42.5317683" lon="12.5520117"><ele>97.0</ele><time>2026-05-03T08:20:07.991Z</time></trkpt><trkpt lat="42.5316917" lon="12.551745"><ele>97.0</ele><time>2026-05-03T08:20:08.989Z</time></trkpt><trkpt lat="42.531615" lon="12.5514633"><ele>97.0</ele><time>2026-05-03T08:20:09.986Z</time></trkpt><trkpt lat="42.53154" lon="12.5511767"><ele>97.0</ele><time>2026-05-03T08:20:10.989Z</time></trkpt><trkpt lat="42.5314633" lon="12.5508967"><ele>97.0</ele><time>2026-05-03T08:20:11.984Z</time></trkpt><trkpt lat="42.5313867" lon="12.550625"><ele>97.0</ele><time>2026-05-03T08:20:12.987Z</time></trkpt><trkpt lat="42.5313083" lon="12.5503517"><ele>97.0</ele><time>2026-05-03T08:20:13.989Z</time></trkpt><trkpt lat="42.5312267" lon="12.5500783"><ele>97.0</ele><time>2026-05-03T08:20:14.987Z</time></trkpt><trkpt lat="42.5311467" lon="12.5498017"><ele>97.0</ele><time>2026-05-03T08:20:15.986Z</time></trkpt><trkpt lat="42.5310667" lon="12.549525"><ele>96.66666666666667</ele><time>2026-05-03T08:20:17.003Z</time></trkpt><trkpt lat="42.530985" lon="12.5492533"><ele>96.33333333333334</ele><time>2026-05-03T08:20:17.988Z</time></trkpt><trkpt lat="42.5309033" lon="12.54898"><ele>96.0</ele><time>2026-05-03T08:20:18.984Z</time></trkpt><trkpt lat="42.5308233" lon="12.5487033"><ele>95.33333333333333</ele><time>2026-05-03T08:20:19.984Z</time></trkpt><trkpt lat="42.530745" lon="12.54843"><ele>94.66666666666666</ele><time>2026-05-03T08:20:20.988Z</time></trkpt><trkpt lat="42.5306667" lon="12.54816"><ele>94.0</ele><time>2026-05-03T08:20:21.987Z</time></trkpt><trkpt lat="42.53059" lon="12.5478917"><ele>94.33333333333333</ele><time>2026-05-03T08:20:22.987Z</time></trkpt><trkpt lat="42.5305167" lon="12.547625"><ele>94.66666666666667</ele><time>2026-05-03T08:20:23.991Z</time></trkpt><trkpt lat="42.5304417" lon="12.5473583"><ele>95.0</ele><time>2026-05-03T08:20:24.99Z</time></trkpt><trkpt lat="42.530365" lon="12.5470933"><ele>96.0</ele><time>2026-05-03T08:20:25.991Z</time></trkpt><trkpt lat="42.5302883" lon="12.54683"><ele>97.0</ele><time>2026-05-03T08:20:26.986Z</time></trkpt><trkpt lat="42.53021" lon="12.5465667"><ele>98.0</ele><time>2026-05-03T08:20:27.989Z</time></trkpt><trkpt lat="42.5301333" lon="12.5463"><ele>97.66666666666666</ele><time>2026-05-03T08:20:28.991Z</time></trkpt><trkpt lat="42.5300583" lon="12.5460333"><ele>97.33333333333334</ele><time>2026-05-03T08:20:29.991Z</time></trkpt><trkpt lat="42.5299783" lon="12.5457667"><ele>97.0</ele><time>2026-05-03T08:20:30.991Z</time></trkpt><trkpt lat="42.5299" lon="12.5455017"><ele>96.33333333333334</ele><time>2026-05-03T08:20:31.99Z</time></trkpt><trkpt lat="42.5298217" lon="12.5452383"><ele>95.66666666666667</ele><time>2026-05-03T08:20:32.989Z</time></trkpt><trkpt lat="42.5297433" lon="12.5449783"><ele>95.0</ele><time>2026-05-03T08:20:33.988Z</time></trkpt><trkpt lat="42.52967" lon="12.5447217"><ele>95.33333333333334</ele><time>2026-05-03T08:20:34.987Z</time></trkpt><trkpt lat="42.5295983" lon="12.54447"><ele>95.66666666666667</ele><time>2026-05-03T08:20:35.989Z</time></trkpt><trkpt lat="42.52953" lon="12.54423"><ele>96.0</ele><time>2026-05-03T08:20:36.988Z</time></trkpt><trkpt lat="42.5294633" lon="12.5439967"><ele>96.0</ele><time>2026-05-03T08:20:37.986Z</time></trkpt><trkpt lat="42.529395" lon="12.5437633"><ele>96.0</ele><time>2026-05-03T08:20:38.992Z</time></trkpt><trkpt lat="42.5293283" lon="12.5435317"><ele>96.0</ele><time>2026-05-03T08:20:39.987Z</time></trkpt><trkpt lat="42.5292583" lon="12.5432967"><ele>96.0</ele><time>2026-05-03T08:20:40.985Z</time></trkpt><trkpt lat="42.5291917" lon="12.543065"><ele>96.0</ele><time>2026-05-03T08:20:41.985Z</time></trkpt><trkpt lat="42.529125" lon="12.5428417"><ele>96.0</ele><time>2026-05-03T08:20:42.996Z</time></trkpt><trkpt lat="42.52906" lon="12.54263"><ele>95.33333333333333</ele><time>2026-05-03T08:20:43.994Z</time></trkpt><trkpt lat="42.5289967" lon="12.542435"><ele>94.66666666666666</ele><time>2026-05-03T08:20:44.993Z</time></trkpt><trkpt lat="42.5289267" lon="12.5422567"><ele>94.0</ele><time>2026-05-03T08:20:45.983Z</time></trkpt><trkpt lat="42.5288417" lon="12.5420983"><ele>94.25</ele><time>2026-05-03T08:20:46.987Z</time></trkpt><trkpt lat="42.5287467" lon="12.541955"><ele>94.5</ele><time>2026-05-03T08:20:47.986Z</time></trkpt><trkpt lat="42.5286417" lon="12.54183"><ele>94.75</ele><time>2026-05-03T08:20:48.99Z</time></trkpt><trkpt lat="42.5285317" lon="12.5417183"><ele>95.0</ele><time>2026-05-03T08:20:49.983Z</time></trkpt><trkpt lat="42.52843" lon="12.5416117"><ele>95.25</ele><time>2026-05-03T08:20:50.985Z</time></trkpt><trkpt lat="42.5283283" lon="12.541505"><ele>95.5</ele><time>2026-05-03T08:20:51.985Z</time></trkpt><trkpt lat="42.5282333" lon="12.5413983"><ele>95.75</ele><time>2026-05-03T08:20:52.984Z</time></trkpt><trkpt lat="42.52814" lon="12.5412933"><ele>96.0</ele><time>2026-05-03T08:20:53.989Z</time></trkpt><trkpt lat="42.528045" lon="12.5411933"><ele>96.0</ele><time>2026-05-03T08:20:54.992Z</time></trkpt><trkpt lat="42.5279483" lon="12.5410933"><ele>96.0</ele><time>2026-05-03T08:20:55.984Z</time></trkpt><trkpt lat="42.5278483" lon="12.5409933"><ele>96.0</ele><time>2026-05-03T08:20:56.989Z</time></trkpt><trkpt lat="42.527745" lon="12.5408867"><ele>96.0</ele><time>2026-05-03T08:20:57.983Z</time></trkpt><trkpt lat="42.52764" lon="12.540775"><ele>96.0</ele><time>2026-05-03T08:20:58.991Z</time></trkpt><trkpt lat="42.5275333" lon="12.54066"><ele>96.0</ele><time>2026-05-03T08:20:59.988Z</time></trkpt><trkpt lat="42.527425" lon="12.5405433"><ele>96.0</ele><time>2026-05-03T08:21:00.989Z</time></trkpt><trkpt lat="42.527315" lon="12.5404217"><ele>96.0</ele><time>2026-05-03T08:21:01.993Z</time></trkpt><trkpt lat="42.5272033" lon="12.5402983"><ele>95.66666666666667</ele><time>2026-05-03T08:21:02.988Z</time></trkpt><trkpt lat="42.527085" lon="12.540175"><ele>95.33333333333334</ele><time>2026-05-03T08:21:03.988Z</time></trkpt><trkpt lat="42.5269633" lon="12.5400433"><ele>95.0</ele><time>2026-05-03T08:21:04.993Z</time></trkpt><trkpt lat="42.52684" lon="12.5399117"><ele>95.66666666666667</ele><time>2026-05-03T08:21:05.99Z</time></trkpt><trkpt lat="42.5267133" lon="12.53978"><ele>96.33333333333334</ele><time>2026-05-03T08:21:06.99Z</time></trkpt><trkpt lat="42.526585" lon="12.53964"><ele>97.0</ele><time>2026-05-03T08:21:07.983Z</time></trkpt><trkpt lat="42.526455" lon="12.539505"><ele>97.0</ele><time>2026-05-03T08:21:08.99Z</time></trkpt><trkpt lat="42.526325" lon="12.5393617"><ele>97.0</ele><time>2026-05-03T08:21:09.991Z</time></trkpt><trkpt lat="42.5261933" lon="12.53922"><ele>97.0</ele><time>2026-05-03T08:21:10.989Z</time></trkpt><trkpt lat="42.52606" lon="12.53908"><ele>98.0</ele><time>2026-05-03T08:21:11.988Z</time></trkpt><trkpt lat="42.525925" lon="12.53894"><ele>99.0</ele><time>2026-05-03T08:21:12.989Z</time></trkpt><trkpt lat="42.5257883" lon="12.5388"><ele>100.0</ele><time>2026-05-03T08:21:13.99Z</time></trkpt><trkpt lat="42.5256483" lon="12.5386567"><ele>100.0</ele><time>2026-05-03T08:21:14.984Z</time></trkpt><trkpt lat="42.5255083" lon="12.5385167"><ele>100.0</ele><time>2026-05-03T08:21:15.987Z</time></trkpt><trkpt lat="42.5253683" lon="12.5383817"><ele>100.0</ele><time>2026-05-03T08:21:16.987Z</time></trkpt><trkpt lat="42.5252333" lon="12.538245"><ele>100.0</ele><time>2026-05-03T08:21:17.985Z</time></trkpt><trkpt lat="42.52509" lon="12.5381117"><ele>100.0</ele><time>2026-05-03T08:21:18.989Z</time></trkpt><trkpt lat="42.5249417" lon="12.5379833"><ele>100.0</ele><time>2026-05-03T08:21:19.991Z</time></trkpt><trkpt lat="42.5247867" lon="12.5378583"><ele>100.0</ele><time>2026-05-03T08:21:20.99Z</time></trkpt><trkpt lat="42.5246283" lon="12.5377283"><ele>100.0</ele><time>2026-05-03T08:21:21.986Z</time></trkpt><trkpt lat="42.52447" lon="12.5375983"><ele>100.0</ele><time>2026-05-03T08:21:22.996Z</time></trkpt><trkpt lat="42.5243083" lon="12.537465"><ele>99.33333333333334</ele><time>2026-05-03T08:21:23.983Z</time></trkpt><trkpt lat="42.5241433" lon="12.5373317"><ele>98.66666666666666</ele><time>2026-05-03T08:21:24.992Z</time></trkpt><trkpt lat="42.5239783" lon="12.537195"><ele>98.0</ele><time>2026-05-03T08:21:25.992Z</time></trkpt><trkpt lat="42.52381" lon="12.5370567"><ele>98.0</ele><time>2026-05-03T08:21:26.983Z</time></trkpt><trkpt lat="42.5236417" lon="12.53692"><ele>98.0</ele><time>2026-05-03T08:21:27.988Z</time></trkpt><trkpt lat="42.5234717" lon="12.5367867"><ele>98.0</ele><time>2026-05-03T08:21:28.989Z</time></trkpt><trkpt lat="42.5233" lon="12.53666"><ele>98.0</ele><time>2026-05-03T08:21:29.986Z</time></trkpt><trkpt lat="42.523125" lon="12.5365533"><ele>98.0</ele><time>2026-05-03T08:21:30.987Z</time></trkpt><trkpt lat="42.5229467" lon="12.53646"><ele>98.0</ele><time>2026-05-03T08:21:31.993Z</time></trkpt><trkpt lat="42.5227683" lon="12.5363867"><ele>98.0</ele><time>2026-05-03T08:21:32.986Z</time></trkpt><trkpt lat="42.522595" lon="12.5363283"><ele>98.0</ele><time>2026-05-03T08:21:33.989Z</time></trkpt><trkpt lat="42.5224267" lon="12.5362833"><ele>98.0</ele><time>2026-05-03T08:21:34.989Z</time></trkpt><trkpt lat="42.5222583" lon="12.5362383"><ele>99.0</ele><time>2026-05-03T08:21:35.989Z</time></trkpt><trkpt lat="42.522095" lon="12.5361933"><ele>100.0</ele><time>2026-05-03T08:21:36.99Z</time></trkpt><trkpt lat="42.5219317" lon="12.536145"><ele>101.0</ele><time>2026-05-03T08:21:37.987Z</time></trkpt><trkpt lat="42.5217667" lon="12.536095"><ele>101.0</ele><time>2026-05-03T08:21:38.991Z</time></trkpt><trkpt lat="42.5216033" lon="12.53604"><ele>101.0</ele><time>2026-05-03T08:21:39.988Z</time></trkpt><trkpt lat="42.521445" lon="12.5359783"><ele>101.0</ele><time>2026-05-03T08:21:40.989Z</time></trkpt><trkpt lat="42.5212933" lon="12.535905"><ele>101.25</ele><time>2026-05-03T08:21:41.983Z</time></trkpt><trkpt lat="42.5211533" lon="12.5358133"><ele>101.5</ele><time>2026-05-03T08:21:42.987Z</time></trkpt><trkpt lat="42.5210267" lon="12.5357167"><ele>101.75</ele><time>2026-05-03T08:21:43.993Z</time></trkpt><trkpt lat="42.5209083" lon="12.5356167"><ele>102.0</ele><time>2026-05-03T08:21:44.992Z</time></trkpt><trkpt lat="42.5207933" lon="12.5355133"><ele>102.0</ele><time>2026-05-03T08:21:45.988Z</time></trkpt><trkpt lat="42.520685" lon="12.5354083"><ele>102.0</ele><time>2026-05-03T08:21:46.988Z</time></trkpt><trkpt lat="42.5205817" lon="12.535305"><ele>102.0</ele><time>2026-05-03T08:21:47.986Z</time></trkpt><trkpt lat="42.5204833" lon="12.5352033"><ele>102.0</ele><time>2026-05-03T08:21:48.988Z</time></trkpt><trkpt lat="42.52039" lon="12.5351017"><ele>103.5</ele><time>2026-05-03T08:21:49.986Z</time></trkpt><trkpt lat="42.520305" lon="12.5349917"><ele>105.0</ele><time>2026-05-03T08:21:50.989Z</time></trkpt><trkpt lat="42.5202433" lon="12.534865"><ele>106.5</ele><time>2026-05-03T08:21:51.99Z</time></trkpt><trkpt lat="42.5202" lon="12.534725"><ele>108.0</ele><time>2026-05-03T08:21:52.99Z</time></trkpt><trkpt lat="42.52017" lon="12.5345733"><ele>108.25</ele><time>2026-05-03T08:21:53.993Z</time></trkpt><trkpt lat="42.5201483" lon="12.53441"><ele>108.5</ele><time>2026-05-03T08:21:54.991Z</time></trkpt><trkpt lat="42.5201283" lon="12.5342467"><ele>108.75</ele><time>2026-05-03T08:21:55.984Z</time></trkpt><trkpt lat="42.5201083" lon="12.5340817"><ele>109.0</ele><time>2026-05-03T08:21:56.994Z</time></trkpt><trkpt lat="42.5200917" lon="12.5339183"><ele>109.0</ele><time>2026-05-03T08:21:57.991Z</time></trkpt><trkpt lat="42.5200767" lon="12.5337517"><ele>109.0</ele><time>2026-05-03T08:21:58.985Z</time></trkpt><trkpt lat="42.5200617" lon="12.533585"><ele>109.0</ele><time>2026-05-03T08:21:59.986Z</time></trkpt><trkpt lat="42.5200483" lon="12.5334167"><ele>109.0</ele><time>2026-05-03T08:22:00.986Z</time></trkpt><trkpt lat="42.5200333" lon="12.53325"><ele>109.5</ele><time>2026-05-03T08:22:01.988Z</time></trkpt><trkpt lat="42.52002" lon="12.5330867"><ele>110.0</ele><time>2026-05-03T08:22:02.991Z</time></trkpt><trkpt lat="42.5200083" lon="12.532925"><ele>110.5</ele><time>2026-05-03T08:22:03.992Z</time></trkpt><trkpt lat="42.5199983" lon="12.532765"><ele>111.0</ele><time>2026-05-03T08:22:04.988Z</time></trkpt><trkpt lat="42.5199933" lon="12.532605"><ele>111.75</ele><time>2026-05-03T08:22:05.988Z</time></trkpt><trkpt lat="42.5199933" lon="12.5324417"><ele>112.5</ele><time>2026-05-03T08:22:06.988Z</time></trkpt><trkpt lat="42.52" lon="12.5322717"><ele>113.25</ele><time>2026-05-03T08:22:07.994Z</time></trkpt><trkpt lat="42.5200083" lon="12.5320933"><ele>114.0</ele><time>2026-05-03T08:22:08.986Z</time></trkpt><trkpt lat="42.5200217" lon="12.5319067"><ele>115.25</ele><time>2026-05-03T08:22:09.992Z</time></trkpt><trkpt lat="42.5200433" lon="12.5317167"><ele>116.5</ele><time>2026-05-03T08:22:10.988Z</time></trkpt><trkpt lat="42.5200667" lon="12.531515"><ele>117.75</ele><time>2026-05-03T08:22:11.995Z</time></trkpt><trkpt lat="42.5200933" lon="12.5313217"><ele>119.0</ele><time>2026-05-03T08:22:12.993Z</time></trkpt><trkpt lat="42.5201267" lon="12.5311233"><ele>121.75</ele><time>2026-05-03T08:22:13.992Z</time></trkpt><trkpt lat="42.5201617" lon="12.5309233"><ele>124.5</ele><time>2026-05-03T08:22:14.991Z</time></trkpt><trkpt lat="42.5201933" lon="12.5307317"><ele>127.25</ele><time>2026-05-03T08:22:15.998Z</time></trkpt><trkpt lat="42.520225" lon="12.530545"><ele>130.0</ele><time>2026-05-03T08:22:16.992Z</time></trkpt><trkpt lat="42.5202483" lon="12.5303633"><ele>130.0</ele><time>2026-05-03T08:22:17.992Z</time></trkpt><trkpt lat="42.5202583" lon="12.53019"><ele>130.0</ele><time>2026-05-03T08:22:18.986Z</time></trkpt><trkpt lat="42.5202433" lon="12.5300233"><ele>130.0</ele><time>2026-05-03T08:22:19.991Z</time></trkpt><trkpt lat="42.5202083" lon="12.5298733"><ele>130.0</ele><time>2026-05-03T08:22:20.986Z</time></trkpt><trkpt lat="42.5201533" lon="12.5297433"><ele>130.0</ele><time>2026-05-03T08:22:21.987Z</time></trkpt><trkpt lat="42.5200783" lon="12.52963"><ele>130.0</ele><time>2026-05-03T08:22:22.985Z</time></trkpt><trkpt lat="42.5199917" lon="12.5295267"><ele>130.0</ele><time>2026-05-03T08:22:23.991Z</time></trkpt><trkpt lat="42.519895" lon="12.5294333"><ele>130.0</ele><time>2026-05-03T08:22:24.987Z</time></trkpt><trkpt lat="42.5197983" lon="12.52934"><ele>129.6</ele><time>2026-05-03T08:22:25.992Z</time></trkpt><trkpt lat="42.51972" lon="12.52923"><ele>129.2</ele><time>2026-05-03T08:22:26.986Z</time></trkpt><trkpt lat="42.519665" lon="12.5291033"><ele>128.8</ele><time>2026-05-03T08:22:27.986Z</time></trkpt><trkpt lat="42.5196383" lon="12.5289567"><ele>128.4</ele><time>2026-05-03T08:22:28.994Z</time></trkpt><trkpt lat="42.51963" lon="12.5287983"><ele>128.0</ele><time>2026-05-03T08:22:29.984Z</time></trkpt><trkpt lat="42.5196283" lon="12.5286417"><ele>128.8</ele><time>2026-05-03T08:22:30.992Z</time></trkpt><trkpt lat="42.5196283" lon="12.5284933"><ele>129.60000000000002</ele><time>2026-05-03T08:22:31.986Z</time></trkpt><trkpt lat="42.519625" lon="12.5283467"><ele>130.39999999999998</ele><time>2026-05-03T08:22:32.991Z</time></trkpt><trkpt lat="42.51962" lon="12.5282"><ele>131.2</ele><time>2026-05-03T08:22:33.987Z</time></trkpt><trkpt lat="42.5196183" lon="12.5280517"><ele>132.0</ele><time>2026-05-03T08:22:34.989Z</time></trkpt><trkpt lat="42.519615" lon="12.5279"><ele>132.75</ele><time>2026-05-03T08:22:35.988Z</time></trkpt><trkpt lat="42.5196117" lon="12.5277383"><ele>133.5</ele><time>2026-05-03T08:22:36.988Z</time></trkpt><trkpt lat="42.5196067" lon="12.5275717"><ele>134.25</ele><time>2026-05-03T08:22:37.993Z</time></trkpt><trkpt lat="42.5196017" lon="12.5274"><ele>135.0</ele><time>2026-05-03T08:22:38.991Z</time></trkpt><trkpt lat="42.5195983" lon="12.52722"><ele>135.25</ele><time>2026-05-03T08:22:39.988Z</time></trkpt><trkpt lat="42.519595" lon="12.5270383"><ele>135.5</ele><time>2026-05-03T08:22:40.989Z</time></trkpt><trkpt lat="42.51959" lon="12.5268583"><ele>135.75</ele><time>2026-05-03T08:22:41.992Z</time></trkpt><trkpt lat="42.5195733" lon="12.5266783"><ele>136.0</ele><time>2026-05-03T08:22:42.986Z</time></trkpt><trkpt lat="42.5195383" lon="12.5265"><ele>138.5</ele><time>2026-05-03T08:22:43.984Z</time></trkpt><trkpt lat="42.5194833" lon="12.52633"><ele>141.0</ele><time>2026-05-03T08:22:44.986Z</time></trkpt><trkpt lat="42.5194133" lon="12.5261683"><ele>143.5</ele><time>2026-05-03T08:22:45.989Z</time></trkpt><trkpt lat="42.5193433" lon="12.52601"><ele>146.0</ele><time>2026-05-03T08:22:46.989Z</time></trkpt><trkpt lat="42.5192733" lon="12.5258567"><ele>146.0</ele><time>2026-05-03T08:22:47.985Z</time></trkpt><trkpt lat="42.5192017" lon="12.52571"><ele>146.0</ele><time>2026-05-03T08:22:48.989Z</time></trkpt><trkpt lat="42.5191317" lon="12.5255717"><ele>146.0</ele><time>2026-05-03T08:22:49.985Z</time></trkpt><trkpt lat="42.5190583" lon="12.5254433"><ele>146.0</ele><time>2026-05-03T08:22:50.991Z</time></trkpt><trkpt lat="42.5189783" lon="12.5253367"><ele>147.0</ele><time>2026-05-03T08:22:51.987Z</time></trkpt><trkpt lat="42.51888" lon="12.525255"><ele>148.0</ele><time>2026-05-03T08:22:52.992Z</time></trkpt><trkpt lat="42.5187817" lon="12.525195"><ele>149.0</ele><time>2026-05-03T08:22:53.992Z</time></trkpt><trkpt lat="42.5186817" lon="12.525155"><ele>150.0</ele><time>2026-05-03T08:22:54.987Z</time></trkpt><trkpt lat="42.5185867" lon="12.52513"><ele>151.0</ele><time>2026-05-03T08:22:55.982Z</time></trkpt><trkpt lat="42.518495" lon="12.5251233"><ele>151.83333333333334</ele><time>2026-05-03T08:22:56.986Z</time></trkpt><trkpt lat="42.5184067" lon="12.525135"><ele>152.66666666666669</ele><time>2026-05-03T08:22:57.984Z</time></trkpt><trkpt lat="42.5183233" lon="12.525175"><ele>153.5</ele><time>2026-05-03T08:22:58.989Z</time></trkpt><trkpt lat="42.51825" lon="12.5252383"><ele>154.33333333333334</ele><time>2026-05-03T08:22:59.991Z</time></trkpt><trkpt lat="42.5181967" lon="12.5253233"><ele>155.16666666666666</ele><time>2026-05-03T08:23:00.986Z</time></trkpt><trkpt lat="42.5181667" lon="12.525435"><ele>156.0</ele><time>2026-05-03T08:23:01.984Z</time></trkpt><trkpt lat="42.518185" lon="12.5255733"><ele>156.0</ele><time>2026-05-03T08:23:02.99Z</time></trkpt><trkpt lat="42.5182267" lon="12.5257067"><ele>156.0</ele><time>2026-05-03T08:23:03.989Z</time></trkpt><trkpt lat="42.5182833" lon="12.525835"><ele>156.0</ele><time>2026-05-03T08:23:04.989Z</time></trkpt><trkpt lat="42.5183417" lon="12.5259617"><ele>156.0</ele><time>2026-05-03T08:23:05.989Z</time></trkpt><trkpt lat="42.51839" lon="12.5260867"><ele>156.0</ele><time>2026-05-03T08:23:06.989Z</time></trkpt><trkpt lat="42.5184167" lon="12.52621"><ele>156.8</ele><time>2026-05-03T08:23:07.989Z</time></trkpt><trkpt lat="42.5184183" lon="12.5263267"><ele>157.6</ele><time>2026-05-03T08:23:08.992Z</time></trkpt><trkpt lat="42.5183933" lon="12.526445"><ele>158.4</ele><time>2026-05-03T08:23:09.987Z</time></trkpt><trkpt lat="42.5183517" lon="12.5265683"><ele>159.2</ele><time>2026-05-03T08:23:10.991Z</time></trkpt><trkpt lat="42.518305" lon="12.5267017"><ele>160.0</ele><time>2026-05-03T08:23:11.985Z</time></trkpt><trkpt lat="42.5182617" lon="12.5268483"><ele>160.0</ele><time>2026-05-03T08:23:12.986Z</time></trkpt><trkpt lat="42.5182117" lon="12.5269967"><ele>160.0</ele><time>2026-05-03T08:23:13.992Z</time></trkpt><trkpt lat="42.5181583" lon="12.527145"><ele>160.0</ele><time>2026-05-03T08:23:14.984Z</time></trkpt><trkpt lat="42.518105" lon="12.5272867"><ele>160.0</ele><time>2026-05-03T08:23:15.986Z</time></trkpt><trkpt lat="42.5180567" lon="12.5274133"><ele>159.5</ele><time>2026-05-03T08:23:16.991Z</time></trkpt><trkpt lat="42.518015" lon="12.52753"><ele>159.0</ele><time>2026-05-03T08:23:17.993Z</time></trkpt><trkpt lat="42.5179567" lon="12.5276333"><ele>158.5</ele><time>2026-05-03T08:23:18.991Z</time></trkpt><trkpt lat="42.51789" lon="12.5277133"><ele>158.0</ele><time>2026-05-03T08:23:19.989Z</time></trkpt><trkpt lat="42.5178167" lon="12.52777"><ele>157.5</ele><time>2026-05-03T08:23:20.991Z</time></trkpt><trkpt lat="42.5177367" lon="12.527805"><ele>157.0</ele><time>2026-05-03T08:23:21.99Z</time></trkpt><trkpt lat="42.5176583" lon="12.5277917"><ele>159.33333333333334</ele><time>2026-05-03T08:23:22.988Z</time></trkpt><trkpt lat="42.5175983" lon="12.5277183"><ele>161.66666666666669</ele><time>2026-05-03T08:23:23.987Z</time></trkpt><trkpt lat="42.517555" lon="12.52763"><ele>164.0</ele><time>2026-05-03T08:23:24.987Z</time></trkpt><trkpt lat="42.5175333" lon="12.5275367"><ele>166.33333333333334</ele><time>2026-05-03T08:23:25.99Z</time></trkpt><trkpt lat="42.51755" lon="12.5274417"><ele>168.66666666666666</ele><time>2026-05-03T08:23:26.993Z</time></trkpt><trkpt lat="42.5175833" lon="12.5273383"><ele>171.0</ele><time>2026-05-03T08:23:27.984Z</time></trkpt><trkpt lat="42.5176283" lon="12.5272167"><ele>171.0</ele><time>2026-05-03T08:23:28.986Z</time></trkpt><trkpt lat="42.5176517" lon="12.52709"><ele>171.0</ele><time>2026-05-03T08:23:29.995Z</time></trkpt><trkpt lat="42.51767" lon="12.5269633"><ele>171.0</ele><time>2026-05-03T08:23:30.985Z</time></trkpt><trkpt lat="42.5176683" lon="12.526825"><ele>171.0</ele><time>2026-05-03T08:23:31.989Z</time></trkpt><trkpt lat="42.5176417" lon="12.5266667"><ele>171.0</ele><time>2026-05-03T08:23:32.986Z</time></trkpt><trkpt lat="42.5175933" lon="12.5265033"><ele>171.0</ele><time>2026-05-03T08:23:33.988Z</time></trkpt><trkpt lat="42.517545" lon="12.52635"><ele>171.0</ele><time>2026-05-03T08:23:34.987Z</time></trkpt><trkpt lat="42.5174933" lon="12.5262"><ele>171.0</ele><time>2026-05-03T08:23:35.989Z</time></trkpt><trkpt lat="42.517445" lon="12.526055"><ele>171.0</ele><time>2026-05-03T08:23:36.989Z</time></trkpt><trkpt lat="42.517395" lon="12.5259083"><ele>171.0</ele><time>2026-05-03T08:23:37.991Z</time></trkpt><trkpt lat="42.51734" lon="12.5257633"><ele>171.0</ele><time>2026-05-03T08:23:38.998Z</time></trkpt><trkpt lat="42.51729" lon="12.525625"><ele>171.0</ele><time>2026-05-03T08:23:39.992Z</time></trkpt><trkpt lat="42.5172417" lon="12.525495"><ele>171.0</ele><time>2026-05-03T08:23:40.987Z</time></trkpt><trkpt lat="42.5171883" lon="12.5253817"><ele>171.0</ele><time>2026-05-03T08:23:41.99Z</time></trkpt><trkpt lat="42.51713" lon="12.5252833"><ele>172.33333333333334</ele><time>2026-05-03T08:23:42.994Z</time></trkpt><trkpt lat="42.517065" lon="12.5252033"><ele>173.66666666666666</ele><time>2026-05-03T08:23:43.99Z</time></trkpt><trkpt lat="42.5169883" lon="12.5251367"><ele>175.0</ele><time>2026-05-03T08:23:44.99Z</time></trkpt><trkpt lat="42.5169117" lon="12.5250833"><ele>176.33333333333331</ele><time>2026-05-03T08:23:45.989Z</time></trkpt><trkpt lat="42.5168283" lon="12.5250483"><ele>177.66666666666666</ele><time>2026-05-03T08:23:46.992Z</time></trkpt><trkpt lat="42.51674" lon="12.5250283"><ele>179.0</ele><time>2026-05-03T08:23:47.99Z</time></trkpt><trkpt lat="42.51665" lon="12.525015"><ele>179.0</ele><time>2026-05-03T08:23:48.984Z</time></trkpt><trkpt lat="42.5165583" lon="12.5250017"><ele>179.0</ele><time>2026-05-03T08:23:49.985Z</time></trkpt><trkpt lat="42.5164617" lon="12.525"><ele>179.0</ele><time>2026-05-03T08:23:50.99Z</time></trkpt><trkpt lat="42.5163617" lon="12.5250117"><ele>179.0</ele><time>2026-05-03T08:23:51.988Z</time></trkpt><trkpt lat="42.5162583" lon="12.5250233"><ele>179.0</ele><time>2026-05-03T08:23:52.988Z</time></trkpt><trkpt lat="42.516165" lon="12.5250233"><ele>181.33333333333331</ele><time>2026-05-03T08:23:53.989Z</time></trkpt><trkpt lat="42.5160917" lon="12.5250017"><ele>183.66666666666666</ele><time>2026-05-03T08:23:54.986Z</time></trkpt><trkpt lat="42.5160317" lon="12.5249583"><ele>186.0</ele><time>2026-05-03T08:23:55.99Z</time></trkpt><trkpt lat="42.515995" lon="12.5248833"><ele>188.33333333333331</ele><time>2026-05-03T08:23:56.99Z</time></trkpt><trkpt lat="42.5159933" lon="12.524785"><ele>190.66666666666666</ele><time>2026-05-03T08:23:57.995Z</time></trkpt><trkpt lat="42.5160167" lon="12.52468"><ele>193.0</ele><time>2026-05-03T08:23:58.986Z</time></trkpt><trkpt lat="42.5160617" lon="12.524565"><ele>192.0</ele><time>2026-05-03T08:23:59.992Z</time></trkpt><trkpt lat="42.5161383" lon="12.524475"><ele>191.0</ele><time>2026-05-03T08:24:00.985Z</time></trkpt><trkpt lat="42.51622" lon="12.5244017"><ele>190.0</ele><time>2026-05-03T08:24:01.99Z</time></trkpt><trkpt lat="42.5163033" lon="12.5243383"><ele>189.0</ele><time>2026-05-03T08:24:02.993Z</time></trkpt><trkpt lat="42.5163833" lon="12.524275"><ele>188.0</ele><time>2026-05-03T08:24:03.988Z</time></trkpt><trkpt lat="42.5164567" lon="12.5242133"><ele>188.0</ele><time>2026-05-03T08:24:04.987Z</time></trkpt><trkpt lat="42.51652" lon="12.52414"><ele>188.0</ele><time>2026-05-03T08:24:05.985Z</time></trkpt><trkpt lat="42.5165733" lon="12.524065"><ele>188.0</ele><time>2026-05-03T08:24:06.996Z</time></trkpt><trkpt lat="42.5166133" lon="12.5239867"><ele>188.0</ele><time>2026-05-03T08:24:07.989Z</time></trkpt><trkpt lat="42.5166367" lon="12.5238983"><ele>188.0</ele><time>2026-05-03T08:24:08.987Z</time></trkpt><trkpt lat="42.5166433" lon="12.5238117"><ele>188.0</ele><time>2026-05-03T08:24:09.987Z</time></trkpt><trkpt lat="42.51664" lon="12.5236667"><ele>189.83333333333331</ele><time>2026-05-03T08:24:11.991Z</time></trkpt><trkpt lat="42.5166233" lon="12.5235733"><ele>191.66666666666666</ele><time>2026-05-03T08:24:13.992Z</time></trkpt><trkpt lat="42.51662" lon="12.5234717"><ele>193.5</ele><time>2026-05-03T08:24:16.993Z</time></trkpt><trkpt lat="42.51662" lon="12.5233583"><ele>195.33333333333331</ele><time>2026-05-03T08:24:19.991Z</time></trkpt><trkpt lat="42.5166467" lon="12.5232383"><ele>197.16666666666666</ele><time>2026-05-03T08:24:21.988Z</time></trkpt><trkpt lat="42.5167017" lon="12.523095"><ele>199.0</ele><time>2026-05-03T08:24:23.99Z</time></trkpt><trkpt lat="42.516775" lon="12.5229583"><ele>197.0</ele><time>2026-05-03T08:24:25.988Z</time></trkpt><trkpt lat="42.516815" lon="12.5228867"><ele>195.0</ele><time>2026-05-03T08:24:26.988Z</time></trkpt><trkpt lat="42.516855" lon="12.5228183"><ele>193.0</ele><time>2026-05-03T08:24:27.988Z</time></trkpt><trkpt lat="42.516925" lon="12.5226867"><ele>191.0</ele><time>2026-05-03T08:24:29.991Z</time></trkpt><trkpt lat="42.5169967" lon="12.5225767"><ele>189.0</ele><time>2026-05-03T08:24:31.989Z</time></trkpt><trkpt lat="42.5170733" lon="12.5224817"><ele>189.0</ele><time>2026-05-03T08:24:33.986Z</time></trkpt><trkpt lat="42.5171683" lon="12.5223917"><ele>189.0</ele><time>2026-05-03T08:24:35.983Z</time></trkpt><trkpt lat="42.5172617" lon="12.5223"><ele>189.0</ele><time>2026-05-03T08:24:37.988Z</time></trkpt><trkpt lat="42.5173433" lon="12.52219"><ele>189.0</ele><time>2026-05-03T08:24:39.99Z</time></trkpt><trkpt lat="42.5173933" lon="12.52205"><ele>190.6</ele><time>2026-05-03T08:24:41.988Z</time></trkpt><trkpt lat="42.51741" lon="12.5218983"><ele>192.2</ele><time>2026-05-03T08:24:43.984Z</time></trkpt><trkpt lat="42.5174083" lon="12.5217633"><ele>193.79999999999998</ele><time>2026-05-03T08:24:45.985Z</time></trkpt><trkpt lat="42.5173583" lon="12.52162"><ele>195.39999999999998</ele><time>2026-05-03T08:24:47.991Z</time></trkpt><trkpt lat="42.5173267" lon="12.521545"><ele>197.0</ele><time>2026-05-03T08:24:48.995Z</time></trkpt><trkpt lat="42.5172917" lon="12.52147"><ele>197.0</ele><time>2026-05-03T08:24:49.989Z</time></trkpt><trkpt lat="42.517225" lon="12.5213283"><ele>197.0</ele><time>2026-05-03T08:24:51.987Z</time></trkpt><trkpt lat="42.51715" lon="12.52119"><ele>197.0</ele><time>2026-05-03T08:24:53.985Z</time></trkpt><trkpt lat="42.5171133" lon="12.5211133"><ele>197.0</ele><time>2026-05-03T08:24:54.986Z</time></trkpt><trkpt lat="42.5170817" lon="12.52103"><ele>197.0</ele><time>2026-05-03T08:24:55.984Z</time></trkpt><trkpt lat="42.517055" lon="12.5209483"><ele>197.6</ele><time>2026-05-03T08:24:56.985Z</time></trkpt><trkpt lat="42.5170467" lon="12.52082"><ele>198.2</ele><time>2026-05-03T08:24:58.993Z</time></trkpt><trkpt lat="42.517105" lon="12.5206683"><ele>198.8</ele><time>2026-05-03T08:25:00.989Z</time></trkpt><trkpt lat="42.51717" lon="12.52056"><ele>199.4</ele><time>2026-05-03T08:25:02.988Z</time></trkpt><trkpt lat="42.5172183" lon="12.5204817"><ele>200.0</ele><time>2026-05-03T08:25:04.991Z</time></trkpt><trkpt lat="42.517255" lon="12.5204033"><ele>202.50000000000003</ele><time>2026-05-03T08:25:08.987Z</time></trkpt><trkpt lat="42.5173033" lon="12.5203217"><ele>205.0</ele><time>2026-05-03T08:25:11.989Z</time></trkpt><trkpt lat="42.51734" lon="12.5202333"><ele>207.5</ele><time>2026-05-03T08:25:13.988Z</time></trkpt><trkpt lat="42.5173917" lon="12.5201433"><ele>210.0</ele><time>2026-05-03T08:25:15.982Z</time></trkpt><trkpt lat="42.5174367" lon="12.5200467"><ele>212.50000000000003</ele><time>2026-05-03T08:25:17.984Z</time></trkpt><trkpt lat="42.5175083" lon="12.5199283"><ele>215.0</ele><time>2026-05-03T08:25:19.996Z</time></trkpt><trkpt lat="42.5175517" lon="12.5198633"><ele>215.00000000000003</ele><time>2026-05-03T08:25:20.992Z</time></trkpt><trkpt lat="42.5176033" lon="12.51981"><ele>215.0</ele><time>2026-05-03T08:25:21.986Z</time></trkpt><trkpt lat="42.5176517" lon="12.519755"><ele>215.0</ele><time>2026-05-03T08:25:22.991Z</time></trkpt><trkpt lat="42.51771" lon="12.5197067"><ele>215.0</ele><time>2026-05-03T08:25:23.984Z</time></trkpt><trkpt lat="42.5177683" lon="12.5196617"><ele>215.00000000000003</ele><time>2026-05-03T08:25:24.987Z</time></trkpt><trkpt lat="42.5178767" lon="12.5195833"><ele>215.0</ele><time>2026-05-03T08:25:26.987Z</time></trkpt><trkpt lat="42.517965" lon="12.5195"><ele>211.8</ele><time>2026-05-03T08:25:28.991Z</time></trkpt><trkpt lat="42.518005" lon="12.51937"><ele>208.6</ele><time>2026-05-03T08:25:30.986Z</time></trkpt><trkpt lat="42.5180333" lon="12.51924"><ele>205.39999999999998</ele><time>2026-05-03T08:25:32.986Z</time></trkpt><trkpt lat="42.5180417" lon="12.5191017"><ele>202.2</ele><time>2026-05-03T08:25:34.987Z</time></trkpt><trkpt lat="42.518015" lon="12.5189583"><ele>199.0</ele><time>2026-05-03T08:25:36.987Z</time></trkpt><trkpt lat="42.5179817" lon="12.5188717"><ele>198.99999999999997</ele><time>2026-05-03T08:25:38.983Z</time></trkpt><trkpt lat="42.51791" lon="12.5187967"><ele>199.0</ele><time>2026-05-03T08:25:49.989Z</time></trkpt><trkpt lat="42.5178683" lon="12.5187217"><ele>199.0</ele><time>2026-05-03T08:25:50.987Z</time></trkpt><trkpt lat="42.5178167" lon="12.5186333"><ele>199.0</ele><time>2026-05-03T08:25:51.989Z</time></trkpt><trkpt lat="42.5177633" lon="12.51853"><ele>198.99999999999997</ele><time>2026-05-03T08:25:52.987Z</time></trkpt><trkpt lat="42.5177133" lon="12.51843"><ele>199.0</ele><time>2026-05-03T08:25:53.983Z</time></trkpt><trkpt lat="42.5176683" lon="12.5183333"><ele>204.66666666666666</ele><time>2026-05-03T08:25:54.986Z</time></trkpt><trkpt lat="42.517635" lon="12.5182283"><ele>210.33333333333331</ele><time>2026-05-03T08:25:55.993Z</time></trkpt><trkpt lat="42.517605" lon="12.518115"><ele>216.0</ele><time>2026-05-03T08:25:56.989Z</time></trkpt><trkpt lat="42.517585" lon="12.5179967"><ele>221.66666666666669</ele><time>2026-05-03T08:25:57.988Z</time></trkpt><trkpt lat="42.5175833" lon="12.51788"><ele>227.33333333333334</ele><time>2026-05-03T08:25:58.989Z</time></trkpt><trkpt lat="42.517585" lon="12.5177583"><ele>233.0</ele><time>2026-05-03T08:25:59.989Z</time></trkpt><trkpt lat="42.5175917" lon="12.517625"><ele>233.0</ele><time>2026-05-03T08:26:00.988Z</time></trkpt><trkpt lat="42.5175983" lon="12.5174883"><ele>233.0</ele><time>2026-05-03T08:26:01.985Z</time></trkpt><trkpt lat="42.5176067" lon="12.5173517"><ele>233.0</ele><time>2026-05-03T08:26:02.985Z</time></trkpt><trkpt lat="42.517615" lon="12.51721"><ele>233.0</ele><time>2026-05-03T08:26:03.985Z</time></trkpt><trkpt lat="42.5176233" lon="12.5170583"><ele>233.0</ele><time>2026-05-03T08:26:04.988Z</time></trkpt><trkpt lat="42.5176367" lon="12.5169167"><ele>233.8</ele><time>2026-05-03T08:26:05.989Z</time></trkpt><trkpt lat="42.51767" lon="12.5167683"><ele>234.60000000000002</ele><time>2026-05-03T08:26:06.987Z</time></trkpt><trkpt lat="42.5177133" lon="12.5166367"><ele>235.39999999999998</ele><time>2026-05-03T08:26:07.989Z</time></trkpt><trkpt lat="42.51776" lon="12.5165083"><ele>236.2</ele><time>2026-05-03T08:26:08.984Z</time></trkpt><trkpt lat="42.5177917" lon="12.5163883"><ele>237.0</ele><time>2026-05-03T08:26:09.983Z</time></trkpt><trkpt lat="42.5178033" lon="12.51628"><ele>237.6</ele><time>2026-05-03T08:26:10.988Z</time></trkpt><trkpt lat="42.5177983" lon="12.5161917"><ele>238.2</ele><time>2026-05-03T08:26:11.993Z</time></trkpt><trkpt lat="42.51777" lon="12.5160533"><ele>238.8</ele><time>2026-05-03T08:26:13.991Z</time></trkpt><trkpt lat="42.5177333" lon="12.5159083"><ele>239.4</ele><time>2026-05-03T08:26:23.99Z</time></trkpt><trkpt lat="42.5177083" lon="12.5157917"><ele>240.0</ele><time>2026-05-03T08:26:27.991Z</time></trkpt><trkpt lat="42.517665" lon="12.5156833"><ele>240.0</ele><time>2026-05-03T08:26:30.985Z</time></trkpt><trkpt lat="42.5176133" lon="12.5155833"><ele>240.0</ele><time>2026-05-03T08:26:32.988Z</time></trkpt><trkpt lat="42.5175317" lon="12.5154883"><ele>240.0</ele><time>2026-05-03T08:26:34.989Z</time></trkpt><trkpt lat="42.5174333" lon="12.5154083"><ele>240.0</ele><time>2026-05-03T08:26:36.986Z</time></trkpt><trkpt lat="42.5173267" lon="12.515375"><ele>240.0</ele><time>2026-05-03T08:26:38.992Z</time></trkpt><trkpt lat="42.5172617" lon="12.515395"><ele>239.0</ele><time>2026-05-03T08:26:39.987Z</time></trkpt><trkpt lat="42.5171617" lon="12.5153983"><ele>238.0</ele><time>2026-05-03T08:26:41.984Z</time></trkpt><trkpt lat="42.517065" lon="12.5154267"><ele>237.0</ele><time>2026-05-03T08:26:43.987Z</time></trkpt><trkpt lat="42.5169933" lon="12.5155017"><ele>236.0</ele><time>2026-05-03T08:26:46.986Z</time></trkpt><trkpt lat="42.5169283" lon="12.5155817"><ele>235.0</ele><time>2026-05-03T08:26:48.988Z</time></trkpt><trkpt lat="42.51684" lon="12.5156867"><ele>235.0</ele><time>2026-05-03T08:26:50.985Z</time></trkpt><trkpt lat="42.5167917" lon="12.5157483"><ele>234.99999999999997</ele><time>2026-05-03T08:26:51.988Z</time></trkpt><trkpt lat="42.5167383" lon="12.51581"><ele>235.0</ele><time>2026-05-03T08:26:52.985Z</time></trkpt><trkpt lat="42.5166817" lon="12.51587"><ele>235.0</ele><time>2026-05-03T08:26:53.987Z</time></trkpt><trkpt lat="42.51662" lon="12.51592"><ele>234.99999999999997</ele><time>2026-05-03T08:26:54.988Z</time></trkpt><trkpt lat="42.51655" lon="12.5159717"><ele>235.0</ele><time>2026-05-03T08:26:55.987Z</time></trkpt><trkpt lat="42.5164783" lon="12.516015"><ele>235.0</ele><time>2026-05-03T08:26:56.985Z</time></trkpt><trkpt lat="42.5164083" lon="12.516045"><ele>234.99999999999997</ele><time>2026-05-03T08:26:57.99Z</time></trkpt><trkpt lat="42.5163333" lon="12.5160667"><ele>235.0</ele><time>2026-05-03T08:26:58.988Z</time></trkpt><trkpt lat="42.51625" lon="12.5160683"><ele>235.0</ele><time>2026-05-03T08:26:59.989Z</time></trkpt><trkpt lat="42.5161667" lon="12.5160567"><ele>235.0</ele><time>2026-05-03T08:27:00.99Z</time></trkpt><trkpt lat="42.5160783" lon="12.5160483"><ele>234.99999999999997</ele><time>2026-05-03T08:27:01.992Z</time></trkpt><trkpt lat="42.5159983" lon="12.5160517"><ele>235.0</ele><time>2026-05-03T08:27:02.985Z</time></trkpt><trkpt lat="42.5159233" lon="12.5160717"><ele>237.99999999999997</ele><time>2026-05-03T08:27:03.985Z</time></trkpt><trkpt lat="42.51585" lon="12.5161117"><ele>241.0</ele><time>2026-05-03T08:27:04.992Z</time></trkpt><trkpt lat="42.5157767" lon="12.5161733"><ele>244.0</ele><time>2026-05-03T08:27:05.986Z</time></trkpt><trkpt lat="42.5157033" lon="12.516245"><ele>247.0</ele><time>2026-05-03T08:27:06.991Z</time></trkpt><trkpt lat="42.5156333" lon="12.516325"><ele>249.99999999999997</ele><time>2026-05-03T08:27:07.991Z</time></trkpt><trkpt lat="42.5155567" lon="12.5164033"><ele>253.0</ele><time>2026-05-03T08:27:08.984Z</time></trkpt><trkpt lat="42.5154783" lon="12.5164883"><ele>248.0</ele><time>2026-05-03T08:27:09.989Z</time></trkpt><trkpt lat="42.5154017" lon="12.516575"><ele>243.0</ele><time>2026-05-03T08:27:10.987Z</time></trkpt><trkpt lat="42.5153217" lon="12.5166567"><ele>238.0</ele><time>2026-05-03T08:27:11.982Z</time></trkpt><trkpt lat="42.515245" lon="12.516735"><ele>233.0</ele><time>2026-05-03T08:27:12.986Z</time></trkpt><trkpt lat="42.51517" lon="12.51681"><ele>228.0</ele><time>2026-05-03T08:27:13.987Z</time></trkpt><trkpt lat="42.5151017" lon="12.5168833"><ele>228.0</ele><time>2026-05-03T08:27:14.99Z</time></trkpt><trkpt lat="42.5150383" lon="12.5169617"><ele>228.0</ele><time>2026-05-03T08:27:15.986Z</time></trkpt><trkpt lat="42.5149833" lon="12.5170433"><ele>228.0</ele><time>2026-05-03T08:27:16.987Z</time></trkpt><trkpt lat="42.51493" lon="12.517135"><ele>228.0</ele><time>2026-05-03T08:27:17.996Z</time></trkpt><trkpt lat="42.5148767" lon="12.5172283"><ele>228.0</ele><time>2026-05-03T08:27:18.995Z</time></trkpt><trkpt lat="42.5148267" lon="12.5173217"><ele>228.0</ele><time>2026-05-03T08:27:19.988Z</time></trkpt><trkpt lat="42.5147783" lon="12.5174133"><ele>230.16666666666666</ele><time>2026-05-03T08:27:20.987Z</time></trkpt><trkpt lat="42.5147317" lon="12.5175067"><ele>232.33333333333331</ele><time>2026-05-03T08:27:21.989Z</time></trkpt><trkpt lat="42.5146833" lon="12.5175967"><ele>234.5</ele><time>2026-05-03T08:27:22.985Z</time></trkpt><trkpt lat="42.5146333" lon="12.5176833"><ele>236.66666666666666</ele><time>2026-05-03T08:27:23.984Z</time></trkpt><trkpt lat="42.5145767" lon="12.51776"><ele>238.83333333333331</ele><time>2026-05-03T08:27:24.981Z</time></trkpt><trkpt lat="42.5145067" lon="12.5178283"><ele>241.0</ele><time>2026-05-03T08:27:25.986Z</time></trkpt><trkpt lat="42.5144317" lon="12.5178833"><ele>247.4</ele><time>2026-05-03T08:27:26.988Z</time></trkpt><trkpt lat="42.5143433" lon="12.51792"><ele>253.8</ele><time>2026-05-03T08:27:27.995Z</time></trkpt><trkpt lat="42.5142567" lon="12.5179533"><ele>260.20000000000005</ele><time>2026-05-03T08:27:28.992Z</time></trkpt><trkpt lat="42.51416" lon="12.5179683"><ele>266.6</ele><time>2026-05-03T08:27:29.988Z</time></trkpt><trkpt lat="42.51406" lon="12.5179767"><ele>273.0</ele><time>2026-05-03T08:27:30.986Z</time></trkpt><trkpt lat="42.51396" lon="12.5179833"><ele>273.0</ele><time>2026-05-03T08:27:31.988Z</time></trkpt><trkpt lat="42.5138567" lon="12.517995"><ele>273.0</ele><time>2026-05-03T08:27:32.991Z</time></trkpt><trkpt lat="42.51376" lon="12.5180233"><ele>273.0</ele><time>2026-05-03T08:27:33.992Z</time></trkpt><trkpt lat="42.5136733" lon="12.5180583"><ele>273.0</ele><time>2026-05-03T08:27:34.989Z</time></trkpt><trkpt lat="42.5136" lon="12.5181067"><ele>273.0</ele><time>2026-05-03T08:27:35.989Z</time></trkpt><trkpt lat="42.5135367" lon="12.5181617"><ele>269.0</ele><time>2026-05-03T08:27:36.986Z</time></trkpt><trkpt lat="42.5134817" lon="12.5182383"><ele>265.0</ele><time>2026-05-03T08:27:37.99Z</time></trkpt><trkpt lat="42.51343" lon="12.51832"><ele>261.0</ele><time>2026-05-03T08:27:38.989Z</time></trkpt><trkpt lat="42.5133733" lon="12.5184033"><ele>257.0</ele><time>2026-05-03T08:27:39.987Z</time></trkpt><trkpt lat="42.5133267" lon="12.5184867"><ele>253.0</ele><time>2026-05-03T08:27:40.986Z</time></trkpt><trkpt lat="42.5132733" lon="12.5185917"><ele>249.0</ele><time>2026-05-03T08:27:41.988Z</time></trkpt><trkpt lat="42.5132167" lon="12.5187033"><ele>253.79999999999998</ele><time>2026-05-03T08:27:42.987Z</time></trkpt><trkpt lat="42.5131633" lon="12.5188117"><ele>258.59999999999997</ele><time>2026-05-03T08:27:43.989Z</time></trkpt><trkpt lat="42.5131083" lon="12.5189117"><ele>263.4</ele><time>2026-05-03T08:27:44.987Z</time></trkpt><trkpt lat="42.51305" lon="12.519015"><ele>268.2</ele><time>2026-05-03T08:27:45.986Z</time></trkpt><trkpt lat="42.5129867" lon="12.5191133"><ele>273.0</ele><time>2026-05-03T08:27:46.985Z</time></trkpt><trkpt lat="42.51292" lon="12.5192"><ele>267.8</ele><time>2026-05-03T08:27:47.987Z</time></trkpt><trkpt lat="42.5128417" lon="12.51927"><ele>262.6</ele><time>2026-05-03T08:27:48.987Z</time></trkpt><trkpt lat="42.5127583" lon="12.5193267"><ele>257.4</ele><time>2026-05-03T08:27:49.989Z</time></trkpt><trkpt lat="42.512675" lon="12.5193833"><ele>252.2</ele><time>2026-05-03T08:27:50.988Z</time></trkpt><trkpt lat="42.5125867" lon="12.5194333"><ele>247.0</ele><time>2026-05-03T08:27:51.989Z</time></trkpt><trkpt lat="42.51249" lon="12.519495"><ele>247.0</ele><time>2026-05-03T08:27:52.987Z</time></trkpt><trkpt lat="42.512395" lon="12.5195433"><ele>247.0</ele><time>2026-05-03T08:27:53.989Z</time></trkpt><trkpt lat="42.5123017" lon="12.5195967"><ele>247.0</ele><time>2026-05-03T08:27:54.991Z</time></trkpt><trkpt lat="42.5122117" lon="12.5196533"><ele>247.0</ele><time>2026-05-03T08:27:55.987Z</time></trkpt><trkpt lat="42.5121233" lon="12.5196967"><ele>247.0</ele><time>2026-05-03T08:27:56.988Z</time></trkpt><trkpt lat="42.512035" lon="12.5197367"><ele>251.39999999999998</ele><time>2026-05-03T08:27:57.987Z</time></trkpt><trkpt lat="42.5119433" lon="12.5197867"><ele>255.79999999999998</ele><time>2026-05-03T08:27:58.99Z</time></trkpt><trkpt lat="42.511855" lon="12.51983"><ele>260.2</ele><time>2026-05-03T08:27:59.986Z</time></trkpt><trkpt lat="42.511765" lon="12.5198667"><ele>264.59999999999997</ele><time>2026-05-03T08:28:00.986Z</time></trkpt><trkpt lat="42.5116717" lon="12.51989"><ele>269.0</ele><time>2026-05-03T08:28:01.999Z</time></trkpt><trkpt lat="42.5115733" lon="12.51991"><ele>269.0</ele><time>2026-05-03T08:28:02.986Z</time></trkpt><trkpt lat="42.511475" lon="12.5199267"><ele>269.0</ele><time>2026-05-03T08:28:03.991Z</time></trkpt><trkpt lat="42.5113717" lon="12.519955"><ele>269.0</ele><time>2026-05-03T08:28:04.99Z</time></trkpt><trkpt lat="42.5112667" lon="12.51999"><ele>269.0</ele><time>2026-05-03T08:28:05.987Z</time></trkpt><trkpt lat="42.51117" lon="12.5200333"><ele>269.0</ele><time>2026-05-03T08:28:06.983Z</time></trkpt><trkpt lat="42.511085" lon="12.5200667"><ele>268.4</ele><time>2026-05-03T08:28:07.985Z</time></trkpt><trkpt lat="42.5110167" lon="12.520095"><ele>267.79999999999995</ele><time>2026-05-03T08:28:08.989Z</time></trkpt><trkpt lat="42.5109117" lon="12.5201383"><ele>267.20000000000005</ele><time>2026-05-03T08:28:10.988Z</time></trkpt><trkpt lat="42.51082" lon="12.5201667"><ele>266.6</ele><time>2026-05-03T08:28:12.991Z</time></trkpt><trkpt lat="42.5106917" lon="12.52017"><ele>266.0</ele><time>2026-05-03T08:28:14.987Z</time></trkpt><trkpt lat="42.5106183" lon="12.5201483"><ele>266.0</ele><time>2026-05-03T08:28:15.993Z</time></trkpt><trkpt lat="42.5105433" lon="12.5201"><ele>266.0</ele><time>2026-05-03T08:28:16.99Z</time></trkpt><trkpt lat="42.5104767" lon="12.5200317"><ele>266.0</ele><time>2026-05-03T08:28:17.988Z</time></trkpt><trkpt lat="42.5104167" lon="12.5199583"><ele>266.0</ele><time>2026-05-03T08:28:18.987Z</time></trkpt><trkpt lat="42.5103633" lon="12.5198783"><ele>266.0</ele><time>2026-05-03T08:28:19.988Z</time></trkpt><trkpt lat="42.5103317" lon="12.51978"><ele>266.0</ele><time>2026-05-03T08:28:20.987Z</time></trkpt><trkpt lat="42.5103133" lon="12.5196683"><ele>266.83333333333337</ele><time>2026-05-03T08:28:21.995Z</time></trkpt><trkpt lat="42.5103017" lon="12.5195483"><ele>267.6666666666667</ele><time>2026-05-03T08:28:22.99Z</time></trkpt><trkpt lat="42.5102883" lon="12.5194317"><ele>268.5</ele><time>2026-05-03T08:28:23.988Z</time></trkpt><trkpt lat="42.5102717" lon="12.5193217"><ele>269.3333333333333</ele><time>2026-05-03T08:28:24.992Z</time></trkpt><trkpt lat="42.5102417" lon="12.5192217"><ele>270.16666666666663</ele><time>2026-05-03T08:28:25.992Z</time></trkpt><trkpt lat="42.5102017" lon="12.519135"><ele>271.0</ele><time>2026-05-03T08:28:26.992Z</time></trkpt><trkpt lat="42.510145" lon="12.5190733"><ele>271.0</ele><time>2026-05-03T08:28:27.984Z</time></trkpt><trkpt lat="42.5100767" lon="12.5190333"><ele>271.0</ele><time>2026-05-03T08:28:28.987Z</time></trkpt><trkpt lat="42.5099967" lon="12.5190067"><ele>271.0</ele><time>2026-05-03T08:28:29.987Z</time></trkpt><trkpt lat="42.5098983" lon="12.51899"><ele>271.0</ele><time>2026-05-03T08:28:30.989Z</time></trkpt><trkpt lat="42.5098083" lon="12.5189717"><ele>271.0</ele><time>2026-05-03T08:28:31.992Z</time></trkpt><trkpt lat="42.50972" lon="12.5189517"><ele>271.0</ele><time>2026-05-03T08:28:32.989Z</time></trkpt><trkpt lat="42.5096333" lon="12.5189383"><ele>273.16666666666663</ele><time>2026-05-03T08:28:33.986Z</time></trkpt><trkpt lat="42.5095583" lon="12.5189217"><ele>275.3333333333333</ele><time>2026-05-03T08:28:34.992Z</time></trkpt><trkpt lat="42.509485" lon="12.5189117"><ele>277.5</ele><time>2026-05-03T08:28:35.989Z</time></trkpt><trkpt lat="42.5094117" lon="12.5189033"><ele>279.6666666666667</ele><time>2026-05-03T08:28:36.99Z</time></trkpt><trkpt lat="42.5093383" lon="12.5188983"><ele>281.83333333333337</ele><time>2026-05-03T08:28:37.987Z</time></trkpt><trkpt lat="42.5092617" lon="12.518895"><ele>284.0</ele><time>2026-05-03T08:28:38.993Z</time></trkpt><trkpt lat="42.5091833" lon="12.5188833"><ele>284.0</ele><time>2026-05-03T08:28:39.989Z</time></trkpt><trkpt lat="42.5091083" lon="12.5188583"><ele>284.0</ele><time>2026-05-03T08:28:40.987Z</time></trkpt><trkpt lat="42.5090517" lon="12.5188"><ele>284.0</ele><time>2026-05-03T08:28:41.991Z</time></trkpt><trkpt lat="42.5090133" lon="12.518715"><ele>284.0</ele><time>2026-05-03T08:28:42.988Z</time></trkpt><trkpt lat="42.50899" lon="12.5186067"><ele>284.0</ele><time>2026-05-03T08:28:43.991Z</time></trkpt><trkpt lat="42.5089733" lon="12.5184833"><ele>284.0</ele><time>2026-05-03T08:28:44.987Z</time></trkpt><trkpt lat="42.5089733" lon="12.5183333"><ele>279.2</ele><time>2026-05-03T08:28:45.989Z</time></trkpt><trkpt lat="42.5089617" lon="12.5181833"><ele>274.4</ele><time>2026-05-03T08:28:46.988Z</time></trkpt><trkpt lat="42.5089433" lon="12.5180367"><ele>269.6</ele><time>2026-05-03T08:28:47.986Z</time></trkpt><trkpt lat="42.5088983" lon="12.5179017"><ele>264.8</ele><time>2026-05-03T08:28:48.991Z</time></trkpt><trkpt lat="42.50883" lon="12.51779"><ele>260.0</ele><time>2026-05-03T08:28:49.989Z</time></trkpt><trkpt lat="42.50874" lon="12.5177117"><ele>258.5</ele><time>2026-05-03T08:28:50.986Z</time></trkpt><trkpt lat="42.5086467" lon="12.5176583"><ele>257.0</ele><time>2026-05-03T08:28:51.989Z</time></trkpt><trkpt lat="42.5085367" lon="12.5176233"><ele>255.5</ele><time>2026-05-03T08:28:52.988Z</time></trkpt><trkpt lat="42.5084067" lon="12.517605"><ele>254.0</ele><time>2026-05-03T08:28:53.988Z</time></trkpt><trkpt lat="42.508265" lon="12.5175917"><ele>254.0</ele><time>2026-05-03T08:28:54.989Z</time></trkpt><trkpt lat="42.5081167" lon="12.51758"><ele>254.0</ele><time>2026-05-03T08:28:55.993Z</time></trkpt><trkpt lat="42.507965" lon="12.517575"><ele>254.0</ele><time>2026-05-03T08:28:56.987Z</time></trkpt><trkpt lat="42.5078017" lon="12.51757"><ele>256.33333333333337</ele><time>2026-05-03T08:28:57.989Z</time></trkpt><trkpt lat="42.5076367" lon="12.517565"><ele>258.6666666666667</ele><time>2026-05-03T08:28:58.984Z</time></trkpt><trkpt lat="42.50747" lon="12.5175583"><ele>261.0</ele><time>2026-05-03T08:28:59.984Z</time></trkpt><trkpt lat="42.5073067" lon="12.51755"><ele>261.0</ele><time>2026-05-03T08:29:00.991Z</time></trkpt><trkpt lat="42.50715" lon="12.517535"><ele>261.0</ele><time>2026-05-03T08:29:01.988Z</time></trkpt><trkpt lat="42.5069967" lon="12.51752"><ele>261.0</ele><time>2026-05-03T08:29:02.984Z</time></trkpt><trkpt lat="42.5068433" lon="12.5175033"><ele>265.0</ele><time>2026-05-03T08:29:03.987Z</time></trkpt><trkpt lat="42.50669" lon="12.5174967"><ele>269.0</ele><time>2026-05-03T08:29:04.988Z</time></trkpt><trkpt lat="42.50654" lon="12.5174967"><ele>273.0</ele><time>2026-05-03T08:29:05.99Z</time></trkpt><trkpt lat="42.50639" lon="12.5175067"><ele>273.0</ele><time>2026-05-03T08:29:06.99Z</time></trkpt><trkpt lat="42.5062483" lon="12.5175"><ele>273.0</ele><time>2026-05-03T08:29:07.989Z</time></trkpt><trkpt lat="42.5061133" lon="12.517475"><ele>273.0</ele><time>2026-05-03T08:29:08.984Z</time></trkpt><trkpt lat="42.50598" lon="12.51746"><ele>273.0</ele><time>2026-05-03T08:29:09.986Z</time></trkpt><trkpt lat="42.5058533" lon="12.5174683"><ele>269.5</ele><time>2026-05-03T08:29:10.987Z</time></trkpt><trkpt lat="42.5057317" lon="12.5175083"><ele>266.0</ele><time>2026-05-03T08:29:11.988Z</time></trkpt><trkpt lat="42.5056133" lon="12.5175533"><ele>262.5</ele><time>2026-05-03T08:29:12.991Z</time></trkpt><trkpt lat="42.5054917" lon="12.5175983"><ele>259.0</ele><time>2026-05-03T08:29:13.987Z</time></trkpt><trkpt lat="42.5053717" lon="12.517655"><ele>255.25</ele><time>2026-05-03T08:29:14.993Z</time></trkpt><trkpt lat="42.50526" lon="12.51772"><ele>251.5</ele><time>2026-05-03T08:29:15.981Z</time></trkpt><trkpt lat="42.5051567" lon="12.5177933"><ele>247.75</ele><time>2026-05-03T08:29:16.991Z</time></trkpt><trkpt lat="42.5050467" lon="12.517845"><ele>244.0</ele><time>2026-05-03T08:29:17.988Z</time></trkpt><trkpt lat="42.50494" lon="12.51788"><ele>244.0</ele><time>2026-05-03T08:29:18.991Z</time></trkpt><trkpt lat="42.5048217" lon="12.51787"><ele>244.0</ele><time>2026-05-03T08:29:19.991Z</time></trkpt><trkpt lat="42.5047017" lon="12.5178233"><ele>244.0</ele><time>2026-05-03T08:29:20.988Z</time></trkpt><trkpt lat="42.5045817" lon="12.51775"><ele>244.0</ele><time>2026-05-03T08:29:21.989Z</time></trkpt><trkpt lat="42.5044583" lon="12.5176783"><ele>243.75</ele><time>2026-05-03T08:29:22.989Z</time></trkpt><trkpt lat="42.5043183" lon="12.5176217"><ele>243.5</ele><time>2026-05-03T08:29:23.984Z</time></trkpt><trkpt lat="42.5041683" lon="12.5175883"><ele>243.25</ele><time>2026-05-03T08:29:24.991Z</time></trkpt><trkpt lat="42.50402" lon="12.5175817"><ele>243.0</ele><time>2026-05-03T08:29:25.986Z</time></trkpt><trkpt lat="42.50387" lon="12.517605"><ele>245.75</ele><time>2026-05-03T08:29:26.988Z</time></trkpt><trkpt lat="42.5037283" lon="12.517665"><ele>248.5</ele><time>2026-05-03T08:29:27.983Z</time></trkpt><trkpt lat="42.5035933" lon="12.517755"><ele>251.25</ele><time>2026-05-03T08:29:28.988Z</time></trkpt><trkpt lat="42.503465" lon="12.5178533"><ele>254.0</ele><time>2026-05-03T08:29:29.991Z</time></trkpt><trkpt lat="42.5033367" lon="12.5179367"><ele>254.0</ele><time>2026-05-03T08:29:30.983Z</time></trkpt><trkpt lat="42.5032083" lon="12.5179783"><ele>254.0</ele><time>2026-05-03T08:29:31.987Z</time></trkpt><trkpt lat="42.5030783" lon="12.5179883"><ele>254.0</ele><time>2026-05-03T08:29:32.991Z</time></trkpt><trkpt lat="42.50294" lon="12.5179683"><ele>254.0</ele><time>2026-05-03T08:29:33.99Z</time></trkpt><trkpt lat="42.5027967" lon="12.5179517"><ele>251.75</ele><time>2026-05-03T08:29:34.986Z</time></trkpt><trkpt lat="42.5026483" lon="12.517945"><ele>249.5</ele><time>2026-05-03T08:29:35.987Z</time></trkpt><trkpt lat="42.502505" lon="12.51796"><ele>247.25</ele><time>2026-05-03T08:29:36.987Z</time></trkpt><trkpt lat="42.502365" lon="12.518"><ele>245.0</ele><time>2026-05-03T08:29:37.987Z</time></trkpt><trkpt lat="42.50224" lon="12.5180683"><ele>245.0</ele><time>2026-05-03T08:29:38.986Z</time></trkpt><trkpt lat="42.502135" lon="12.5181833"><ele>245.0</ele><time>2026-05-03T08:29:39.986Z</time></trkpt><trkpt lat="42.502055" lon="12.5183367"><ele>245.0</ele><time>2026-05-03T08:29:40.987Z</time></trkpt><trkpt lat="42.5019983" lon="12.5185117"><ele>245.0</ele><time>2026-05-03T08:29:41.987Z</time></trkpt><trkpt lat="42.501985" lon="12.5186833"><ele>247.0</ele><time>2026-05-03T08:29:42.989Z</time></trkpt><trkpt lat="42.50201" lon="12.5188467"><ele>249.0</ele><time>2026-05-03T08:29:43.992Z</time></trkpt><trkpt lat="42.502075" lon="12.5189967"><ele>251.0</ele><time>2026-05-03T08:29:44.987Z</time></trkpt><trkpt lat="42.5021467" lon="12.5191417"><ele>253.0</ele><time>2026-05-03T08:29:45.987Z</time></trkpt><trkpt lat="42.5022" lon="12.51927"><ele>253.0</ele><time>2026-05-03T08:29:46.989Z</time></trkpt><trkpt lat="42.502225" lon="12.5193917"><ele>253.0</ele><time>2026-05-03T08:29:47.989Z</time></trkpt><trkpt lat="42.502215" lon="12.519505"><ele>253.0</ele><time>2026-05-03T08:29:48.994Z</time></trkpt><trkpt lat="42.502165" lon="12.5195933"><ele>253.0</ele><time>2026-05-03T08:29:49.993Z</time></trkpt><trkpt lat="42.5020933" lon="12.5196617"><ele>253.0</ele><time>2026-05-03T08:29:50.99Z</time></trkpt><trkpt lat="42.5019933" lon="12.519715"><ele>250.25</ele><time>2026-05-03T08:29:51.987Z</time></trkpt><trkpt lat="42.50188" lon="12.5197683"><ele>247.5</ele><time>2026-05-03T08:29:52.99Z</time></trkpt><trkpt lat="42.5017633" lon="12.51983"><ele>244.75</ele><time>2026-05-03T08:29:53.992Z</time></trkpt><trkpt lat="42.50165" lon="12.5199"><ele>242.0</ele><time>2026-05-03T08:29:54.988Z</time></trkpt><trkpt lat="42.5015417" lon="12.5199883"><ele>242.0</ele><time>2026-05-03T08:29:55.988Z</time></trkpt><trkpt lat="42.50145" lon="12.5200917"><ele>242.0</ele><time>2026-05-03T08:29:56.986Z</time></trkpt><trkpt lat="42.50138" lon="12.5202183"><ele>242.0</ele><time>2026-05-03T08:29:57.988Z</time></trkpt><trkpt lat="42.50133" lon="12.5203583"><ele>242.0</ele><time>2026-05-03T08:29:58.99Z</time></trkpt><trkpt lat="42.501285" lon="12.5204917"><ele>243.00000000000003</ele><time>2026-05-03T08:29:59.989Z</time></trkpt><trkpt lat="42.5012417" lon="12.5206117"><ele>244.0</ele><time>2026-05-03T08:30:00.991Z</time></trkpt><trkpt lat="42.5011867" lon="12.5207033"><ele>245.0</ele><time>2026-05-03T08:30:01.992Z</time></trkpt><trkpt lat="42.501125" lon="12.52077"><ele>246.0</ele><time>2026-05-03T08:30:02.985Z</time></trkpt><trkpt lat="42.5010467" lon="12.52081"><ele>247.00000000000003</ele><time>2026-05-03T08:30:03.987Z</time></trkpt><trkpt lat="42.5009467" lon="12.5208317"><ele>248.0</ele><time>2026-05-03T08:30:04.991Z</time></trkpt><trkpt lat="42.5008367" lon="12.5208483"><ele>248.0</ele><time>2026-05-03T08:30:05.994Z</time></trkpt><trkpt lat="42.500715" lon="12.5208783"><ele>248.0</ele><time>2026-05-03T08:30:06.99Z</time></trkpt><trkpt lat="42.5005867" lon="12.5209083"><ele>248.0</ele><time>2026-05-03T08:30:07.986Z</time></trkpt><trkpt lat="42.5004533" lon="12.5209517"><ele>248.0</ele><time>2026-05-03T08:30:08.991Z</time></trkpt><trkpt lat="42.500315" lon="12.521"><ele>246.75</ele><time>2026-05-03T08:30:09.995Z</time></trkpt><trkpt lat="42.5001733" lon="12.5210567"><ele>245.5</ele><time>2026-05-03T08:30:10.987Z</time></trkpt><trkpt lat="42.5000367" lon="12.5211167"><ele>244.25</ele><time>2026-05-03T08:30:11.993Z</time></trkpt><trkpt lat="42.499895" lon="12.5211783"><ele>243.0</ele><time>2026-05-03T08:30:12.987Z</time></trkpt><trkpt lat="42.499745" lon="12.5212383"><ele>245.0</ele><time>2026-05-03T08:30:13.988Z</time></trkpt><trkpt lat="42.4995917" lon="12.5213083"><ele>247.0</ele><time>2026-05-03T08:30:14.989Z</time></trkpt><trkpt lat="42.4994417" lon="12.5213783"><ele>249.0</ele><time>2026-05-03T08:30:15.983Z</time></trkpt><trkpt lat="42.4992883" lon="12.5214483"><ele>249.0</ele><time>2026-05-03T08:30:16.986Z</time></trkpt><trkpt lat="42.4991333" lon="12.521515"><ele>249.0</ele><time>2026-05-03T08:30:17.993Z</time></trkpt><trkpt lat="42.498975" lon="12.5215733"><ele>249.0</ele><time>2026-05-03T08:30:18.993Z</time></trkpt><trkpt lat="42.4988183" lon="12.5216367"><ele>248.66666666666669</ele><time>2026-05-03T08:30:19.982Z</time></trkpt><trkpt lat="42.4986683" lon="12.5216983"><ele>248.33333333333334</ele><time>2026-05-03T08:30:20.988Z</time></trkpt><trkpt lat="42.4985217" lon="12.5217567"><ele>248.0</ele><time>2026-05-03T08:30:21.987Z</time></trkpt><trkpt lat="42.4983767" lon="12.5218117"><ele>248.0</ele><time>2026-05-03T08:30:22.988Z</time></trkpt><trkpt lat="42.49823" lon="12.52185"><ele>248.0</ele><time>2026-05-03T08:30:23.994Z</time></trkpt><trkpt lat="42.4980783" lon="12.5218733"><ele>248.0</ele><time>2026-05-03T08:30:24.988Z</time></trkpt><trkpt lat="42.4979283" lon="12.52186"><ele>249.0</ele><time>2026-05-03T08:30:25.995Z</time></trkpt><trkpt lat="42.4977783" lon="12.5218183"><ele>250.0</ele><time>2026-05-03T08:30:26.987Z</time></trkpt><trkpt lat="42.4976267" lon="12.52176"><ele>251.0</ele><time>2026-05-03T08:30:27.987Z</time></trkpt><trkpt lat="42.4974733" lon="12.5216967"><ele>251.0</ele><time>2026-05-03T08:30:28.986Z</time></trkpt><trkpt lat="42.4973183" lon="12.5216333"><ele>251.0</ele><time>2026-05-03T08:30:29.987Z</time></trkpt><trkpt lat="42.4971567" lon="12.5215717"><ele>251.0</ele><time>2026-05-03T08:30:30.997Z</time></trkpt><trkpt lat="42.4969967" lon="12.5215117"><ele>254.0</ele><time>2026-05-03T08:30:31.99Z</time></trkpt><trkpt lat="42.496835" lon="12.521465"><ele>257.0</ele><time>2026-05-03T08:30:32.989Z</time></trkpt><trkpt lat="42.4966767" lon="12.521435"><ele>260.0</ele><time>2026-05-03T08:30:33.983Z</time></trkpt><trkpt lat="42.496515" lon="12.521435"><ele>260.0</ele><time>2026-05-03T08:30:34.987Z</time></trkpt><trkpt lat="42.4963483" lon="12.5214567"><ele>260.0</ele><time>2026-05-03T08:30:35.989Z</time></trkpt><trkpt lat="42.4961817" lon="12.521495"><ele>260.0</ele><time>2026-05-03T08:30:36.991Z</time></trkpt><trkpt lat="42.4960167" lon="12.5215433"><ele>263.6666666666667</ele><time>2026-05-03T08:30:37.994Z</time></trkpt><trkpt lat="42.4958533" lon="12.5216067"><ele>267.3333333333333</ele><time>2026-05-03T08:30:38.989Z</time></trkpt><trkpt lat="42.4956883" lon="12.52168"><ele>271.0</ele><time>2026-05-03T08:30:39.993Z</time></trkpt><trkpt lat="42.4955183" lon="12.5217733"><ele>274.3333333333333</ele><time>2026-05-03T08:30:40.989Z</time></trkpt><trkpt lat="42.495345" lon="12.521865"><ele>277.6666666666667</ele><time>2026-05-03T08:30:41.989Z</time></trkpt><trkpt lat="42.4951667" lon="12.52196"><ele>281.0</ele><time>2026-05-03T08:30:42.986Z</time></trkpt><trkpt lat="42.4949867" lon="12.5220633"><ele>279.6666666666667</ele><time>2026-05-03T08:30:43.989Z</time></trkpt><trkpt lat="42.4948083" lon="12.522165"><ele>278.3333333333333</ele><time>2026-05-03T08:30:44.99Z</time></trkpt><trkpt lat="42.494635" lon="12.5222633"><ele>277.0</ele><time>2026-05-03T08:30:45.983Z</time></trkpt><trkpt lat="42.4944717" lon="12.52236"><ele>281.25</ele><time>2026-05-03T08:30:46.987Z</time></trkpt><trkpt lat="42.4943283" lon="12.5224467"><ele>285.5</ele><time>2026-05-03T08:30:47.987Z</time></trkpt><trkpt lat="42.4942033" lon="12.5225117"><ele>289.75</ele><time>2026-05-03T08:30:48.99Z</time></trkpt><trkpt lat="42.4940917" lon="12.5225467"><ele>294.0</ele><time>2026-05-03T08:30:49.988Z</time></trkpt><trkpt lat="42.493985" lon="12.5225433"><ele>294.0</ele><time>2026-05-03T08:30:50.984Z</time></trkpt><trkpt lat="42.4939033" lon="12.52249"><ele>294.0</ele><time>2026-05-03T08:30:51.987Z</time></trkpt><trkpt lat="42.4938433" lon="12.522405"><ele>294.0</ele><time>2026-05-03T08:30:52.987Z</time></trkpt><trkpt lat="42.4938" lon="12.5223083"><ele>294.0</ele><time>2026-05-03T08:30:53.987Z</time></trkpt><trkpt lat="42.4937917" lon="12.5221933"><ele>294.0</ele><time>2026-05-03T08:30:54.989Z</time></trkpt><trkpt lat="42.49386" lon="12.5220683"><ele>294.75</ele><time>2026-05-03T08:30:55.991Z</time></trkpt><trkpt lat="42.4939333" lon="12.5219467"><ele>295.5</ele><time>2026-05-03T08:30:56.988Z</time></trkpt><trkpt lat="42.4940167" lon="12.5218317"><ele>296.25</ele><time>2026-05-03T08:30:57.986Z</time></trkpt><trkpt lat="42.4940967" lon="12.5217"><ele>297.0</ele><time>2026-05-03T08:30:58.989Z</time></trkpt><trkpt lat="42.4941683" lon="12.52156"><ele>297.0</ele><time>2026-05-03T08:30:59.989Z</time></trkpt><trkpt lat="42.4942167" lon="12.52141"><ele>297.0</ele><time>2026-05-03T08:31:00.989Z</time></trkpt><trkpt lat="42.4942317" lon="12.5212617"><ele>297.0</ele><time>2026-05-03T08:31:01.991Z</time></trkpt><trkpt lat="42.49422" lon="12.5211133"><ele>297.0</ele><time>2026-05-03T08:31:02.991Z</time></trkpt><trkpt lat="42.49418" lon="12.52099"><ele>297.0</ele><time>2026-05-03T08:31:03.989Z</time></trkpt><trkpt lat="42.4941067" lon="12.5209017"><ele>296.8</ele><time>2026-05-03T08:31:04.987Z</time></trkpt><trkpt lat="42.4940233" lon="12.52086"><ele>296.6</ele><time>2026-05-03T08:31:05.988Z</time></trkpt><trkpt lat="42.493935" lon="12.5208517"><ele>296.40000000000003</ele><time>2026-05-03T08:31:06.988Z</time></trkpt><trkpt lat="42.49384" lon="12.5208633"><ele>296.2</ele><time>2026-05-03T08:31:07.987Z</time></trkpt><trkpt lat="42.4937267" lon="12.5209133"><ele>296.0</ele><time>2026-05-03T08:31:08.986Z</time></trkpt><trkpt lat="42.4936133" lon="12.5209633"><ele>296.0</ele><time>2026-05-03T08:31:09.99Z</time></trkpt><trkpt lat="42.4934917" lon="12.5210117"><ele>296.0</ele><time>2026-05-03T08:31:10.988Z</time></trkpt><trkpt lat="42.49336" lon="12.5210533"><ele>296.0</ele><time>2026-05-03T08:31:11.989Z</time></trkpt><trkpt lat="42.4932283" lon="12.5210933"><ele>296.0</ele><time>2026-05-03T08:31:12.987Z</time></trkpt><trkpt lat="42.49309" lon="12.5211367"><ele>296.0</ele><time>2026-05-03T08:31:13.989Z</time></trkpt><trkpt lat="42.4929533" lon="12.5211833"><ele>296.0</ele><time>2026-05-03T08:31:14.982Z</time></trkpt><trkpt lat="42.492815" lon="12.521235"><ele>296.0</ele><time>2026-05-03T08:31:15.988Z</time></trkpt><trkpt lat="42.4926717" lon="12.5212883"><ele>296.0</ele><time>2026-05-03T08:31:16.989Z</time></trkpt><trkpt lat="42.4925217" lon="12.5213467"><ele>299.6666666666667</ele><time>2026-05-03T08:31:17.989Z</time></trkpt><trkpt lat="42.492365" lon="12.5214117"><ele>303.3333333333333</ele><time>2026-05-03T08:31:18.991Z</time></trkpt><trkpt lat="42.4922083" lon="12.5214817"><ele>307.0</ele><time>2026-05-03T08:31:19.987Z</time></trkpt><trkpt lat="42.4920483" lon="12.5215617"><ele>307.0</ele><time>2026-05-03T08:31:20.989Z</time></trkpt><trkpt lat="42.491895" lon="12.52165"><ele>307.0</ele><time>2026-05-03T08:31:21.988Z</time></trkpt><trkpt lat="42.491745" lon="12.5217383"><ele>307.0</ele><time>2026-05-03T08:31:22.989Z</time></trkpt><trkpt lat="42.491595" lon="12.5218233"><ele>307.0</ele><time>2026-05-03T08:31:23.984Z</time></trkpt><trkpt lat="42.4914467" lon="12.5219233"><ele>307.0</ele><time>2026-05-03T08:31:24.982Z</time></trkpt><trkpt lat="42.4913067" lon="12.5220433"><ele>307.0</ele><time>2026-05-03T08:31:25.988Z</time></trkpt><trkpt lat="42.491175" lon="12.5221767"><ele>309.3333333333333</ele><time>2026-05-03T08:31:26.988Z</time></trkpt><trkpt lat="42.4910467" lon="12.52231"><ele>311.6666666666667</ele><time>2026-05-03T08:31:27.989Z</time></trkpt><trkpt lat="42.4909083" lon="12.522445"><ele>314.0</ele><time>2026-05-03T08:31:28.989Z</time></trkpt><trkpt lat="42.4907683" lon="12.52256"><ele>314.0</ele><time>2026-05-03T08:31:29.984Z</time></trkpt><trkpt lat="42.4906183" lon="12.5226567"><ele>314.0</ele><time>2026-05-03T08:31:30.986Z</time></trkpt><trkpt lat="42.4904617" lon="12.522735"><ele>314.0</ele><time>2026-05-03T08:31:31.987Z</time></trkpt><trkpt lat="42.4903033" lon="12.5228033"><ele>315.33333333333337</ele><time>2026-05-03T08:31:32.988Z</time></trkpt><trkpt lat="42.4901433" lon="12.5228817"><ele>316.6666666666667</ele><time>2026-05-03T08:31:33.985Z</time></trkpt><trkpt lat="42.4899883" lon="12.522975"><ele>318.0</ele><time>2026-05-03T08:31:34.992Z</time></trkpt><trkpt lat="42.489835" lon="12.52307"><ele>318.0</ele><time>2026-05-03T08:31:35.988Z</time></trkpt><trkpt lat="42.4896833" lon="12.5231617"><ele>318.0</ele><time>2026-05-03T08:31:36.985Z</time></trkpt><trkpt lat="42.48953" lon="12.5232383"><ele>318.0</ele><time>2026-05-03T08:31:37.986Z</time></trkpt><trkpt lat="42.4893733" lon="12.523305"><ele>320.6666666666667</ele><time>2026-05-03T08:31:38.985Z</time></trkpt><trkpt lat="42.489215" lon="12.5233617"><ele>323.33333333333337</ele><time>2026-05-03T08:31:39.989Z</time></trkpt><trkpt lat="42.4890617" lon="12.5233917"><ele>326.0</ele><time>2026-05-03T08:31:40.99Z</time></trkpt><trkpt lat="42.4889133" lon="12.5234383"><ele>326.0</ele><time>2026-05-03T08:31:41.99Z</time></trkpt><trkpt lat="42.48876" lon="12.5234833"><ele>326.0</ele><time>2026-05-03T08:31:42.986Z</time></trkpt><trkpt lat="42.4886083" lon="12.523585"><ele>326.0</ele><time>2026-05-03T08:31:43.992Z</time></trkpt><trkpt lat="42.4884717" lon="12.5237017"><ele>325.6666666666667</ele><time>2026-05-03T08:31:44.985Z</time></trkpt><trkpt lat="42.48833" lon="12.5238333"><ele>325.3333333333333</ele><time>2026-05-03T08:31:45.984Z</time></trkpt><trkpt lat="42.4881967" lon="12.5239667"><ele>325.0</ele><time>2026-05-03T08:31:46.992Z</time></trkpt><trkpt lat="42.4880583" lon="12.5240767"><ele>326.75</ele><time>2026-05-03T08:31:47.99Z</time></trkpt><trkpt lat="42.4879233" lon="12.5241517"><ele>328.5</ele><time>2026-05-03T08:31:48.986Z</time></trkpt><trkpt lat="42.4877933" lon="12.524205"><ele>330.25</ele><time>2026-05-03T08:31:49.991Z</time></trkpt><trkpt lat="42.487655" lon="12.5242367"><ele>332.0</ele><time>2026-05-03T08:31:50.989Z</time></trkpt><trkpt lat="42.4875083" lon="12.5242467"><ele>332.0</ele><time>2026-05-03T08:31:51.989Z</time></trkpt><trkpt lat="42.4873617" lon="12.524255"><ele>332.0</ele><time>2026-05-03T08:31:52.988Z</time></trkpt><trkpt lat="42.4872183" lon="12.5242667"><ele>332.0</ele><time>2026-05-03T08:31:53.99Z</time></trkpt><trkpt lat="42.487085" lon="12.5242917"><ele>332.0</ele><time>2026-05-03T08:31:54.985Z</time></trkpt><trkpt lat="42.48696" lon="12.524335"><ele>331.25</ele><time>2026-05-03T08:31:55.992Z</time></trkpt><trkpt lat="42.486835" lon="12.524415"><ele>330.5</ele><time>2026-05-03T08:31:56.984Z</time></trkpt><trkpt lat="42.4867167" lon="12.5245333"><ele>329.75</ele><time>2026-05-03T08:31:57.987Z</time></trkpt><trkpt lat="42.4866117" lon="12.524665"><ele>329.0</ele><time>2026-05-03T08:31:58.988Z</time></trkpt><trkpt lat="42.4865167" lon="12.52482"><ele>329.0</ele><time>2026-05-03T08:31:59.985Z</time></trkpt><trkpt lat="42.486425" lon="12.5249917"><ele>329.0</ele><time>2026-05-03T08:32:00.988Z</time></trkpt><trkpt lat="42.48633" lon="12.52517"><ele>329.0</ele><time>2026-05-03T08:32:01.99Z</time></trkpt><trkpt lat="42.4862317" lon="12.5253467"><ele>330.6666666666667</ele><time>2026-05-03T08:32:02.984Z</time></trkpt><trkpt lat="42.4861217" lon="12.5255067"><ele>332.3333333333333</ele><time>2026-05-03T08:32:03.989Z</time></trkpt><trkpt lat="42.4860083" lon="12.5256583"><ele>334.0</ele><time>2026-05-03T08:32:04.989Z</time></trkpt><trkpt lat="42.4858933" lon="12.52581"><ele>334.0</ele><time>2026-05-03T08:32:05.987Z</time></trkpt><trkpt lat="42.485775" lon="12.5259583"><ele>334.0</ele><time>2026-05-03T08:32:06.988Z</time></trkpt><trkpt lat="42.4856517" lon="12.52611"><ele>334.0</ele><time>2026-05-03T08:32:07.989Z</time></trkpt><trkpt lat="42.485525" lon="12.526265"><ele>335.66666666666663</ele><time>2026-05-03T08:32:08.992Z</time></trkpt><trkpt lat="42.4853967" lon="12.52642"><ele>337.3333333333333</ele><time>2026-05-03T08:32:09.988Z</time></trkpt><trkpt lat="42.48527" lon="12.5265733"><ele>339.0</ele><time>2026-05-03T08:32:10.994Z</time></trkpt><trkpt lat="42.4851483" lon="12.5267233"><ele>339.0</ele><time>2026-05-03T08:32:11.988Z</time></trkpt><trkpt lat="42.4850317" lon="12.52687"><ele>339.0</ele><time>2026-05-03T08:32:12.986Z</time></trkpt><trkpt lat="42.484915" lon="12.5270167"><ele>339.0</ele><time>2026-05-03T08:32:13.988Z</time></trkpt><trkpt lat="42.4847967" lon="12.527165"><ele>340.3333333333333</ele><time>2026-05-03T08:32:14.987Z</time></trkpt><trkpt lat="42.4846733" lon="12.5273083"><ele>341.66666666666663</ele><time>2026-05-03T08:32:15.987Z</time></trkpt><trkpt lat="42.484545" lon="12.52744"><ele>343.0</ele><time>2026-05-03T08:32:16.988Z</time></trkpt><trkpt lat="42.4844017" lon="12.5275617"><ele>343.0</ele><time>2026-05-03T08:32:17.99Z</time></trkpt><trkpt lat="42.48425" lon="12.52767"><ele>343.0</ele><time>2026-05-03T08:32:18.99Z</time></trkpt><trkpt lat="42.4840883" lon="12.527765"><ele>343.0</ele><time>2026-05-03T08:32:19.987Z</time></trkpt><trkpt lat="42.48392" lon="12.5278467"><ele>343.0</ele><time>2026-05-03T08:32:20.986Z</time></trkpt><trkpt lat="42.4837483" lon="12.5279283"><ele>343.0</ele><time>2026-05-03T08:32:21.988Z</time></trkpt><trkpt lat="42.483575" lon="12.5280083"><ele>343.0</ele><time>2026-05-03T08:32:22.987Z</time></trkpt><trkpt lat="42.4834" lon="12.5280933"><ele>343.0</ele><time>2026-05-03T08:32:23.987Z</time></trkpt><trkpt lat="42.483225" lon="12.5281883"><ele>343.0</ele><time>2026-05-03T08:32:24.995Z</time></trkpt><trkpt lat="42.48305" lon="12.5282933"><ele>343.0</ele><time>2026-05-03T08:32:25.99Z</time></trkpt><trkpt lat="42.4828767" lon="12.52841"><ele>342.0</ele><time>2026-05-03T08:32:26.989Z</time></trkpt><trkpt lat="42.4827067" lon="12.5285383"><ele>341.0</ele><time>2026-05-03T08:32:27.985Z</time></trkpt><trkpt lat="42.4825433" lon="12.5286717"><ele>340.0</ele><time>2026-05-03T08:32:28.994Z</time></trkpt><trkpt lat="42.4823917" lon="12.5288017"><ele>340.0</ele><time>2026-05-03T08:32:29.987Z</time></trkpt><trkpt lat="42.482245" lon="12.528925"><ele>340.0</ele><time>2026-05-03T08:32:30.993Z</time></trkpt><trkpt lat="42.4820983" lon="12.5290383"><ele>340.0</ele><time>2026-05-03T08:32:31.995Z</time></trkpt><trkpt lat="42.48195" lon="12.5291383"><ele>341.66666666666663</ele><time>2026-05-03T08:32:32.994Z</time></trkpt><trkpt lat="42.4817933" lon="12.52922"><ele>343.3333333333333</ele><time>2026-05-03T08:32:33.987Z</time></trkpt><trkpt lat="42.4816267" lon="12.52929"><ele>345.0</ele><time>2026-05-03T08:32:34.988Z</time></trkpt><trkpt lat="42.4814517" lon="12.52935"><ele>345.0</ele><time>2026-05-03T08:32:35.988Z</time></trkpt><trkpt lat="42.481275" lon="12.5293917"><ele>345.0</ele><time>2026-05-03T08:32:36.982Z</time></trkpt><trkpt lat="42.4811017" lon="12.52943"><ele>345.0</ele><time>2026-05-03T08:32:37.99Z</time></trkpt><trkpt lat="42.4809333" lon="12.5294883"><ele>345.3333333333333</ele><time>2026-05-03T08:32:38.986Z</time></trkpt><trkpt lat="42.4807767" lon="12.5295517"><ele>345.66666666666663</ele><time>2026-05-03T08:32:39.989Z</time></trkpt><trkpt lat="42.4806283" lon="12.5296167"><ele>346.0</ele><time>2026-05-03T08:32:40.984Z</time></trkpt><trkpt lat="42.480485" lon="12.5296617"><ele>343.66666666666663</ele><time>2026-05-03T08:32:41.99Z</time></trkpt><trkpt lat="42.4803317" lon="12.529685"><ele>341.3333333333333</ele><time>2026-05-03T08:32:42.988Z</time></trkpt><trkpt lat="42.4801733" lon="12.52969"><ele>339.0</ele><time>2026-05-03T08:32:43.987Z</time></trkpt><trkpt lat="42.4800133" lon="12.52967"><ele>339.0</ele><time>2026-05-03T08:32:44.989Z</time></trkpt><trkpt lat="42.479855" lon="12.529645"><ele>339.0</ele><time>2026-05-03T08:32:45.997Z</time></trkpt><trkpt lat="42.479705" lon="12.52959"><ele>339.0</ele><time>2026-05-03T08:32:46.993Z</time></trkpt><trkpt lat="42.4795567" lon="12.52952"><ele>336.5</ele><time>2026-05-03T08:32:47.994Z</time></trkpt><trkpt lat="42.4794167" lon="12.5294417"><ele>334.0</ele><time>2026-05-03T08:32:48.99Z</time></trkpt><trkpt lat="42.479285" lon="12.52935"><ele>331.5</ele><time>2026-05-03T08:32:49.988Z</time></trkpt><trkpt lat="42.4791733" lon="12.5292417"><ele>329.0</ele><time>2026-05-03T08:32:50.988Z</time></trkpt><trkpt lat="42.4790817" lon="12.529105"><ele>329.0</ele><time>2026-05-03T08:32:51.987Z</time></trkpt><trkpt lat="42.4790067" lon="12.5289433"><ele>329.0</ele><time>2026-05-03T08:32:52.986Z</time></trkpt><trkpt lat="42.4789417" lon="12.5287633"><ele>329.0</ele><time>2026-05-03T08:32:53.985Z</time></trkpt><trkpt lat="42.4788767" lon="12.5285717"><ele>329.0</ele><time>2026-05-03T08:32:54.984Z</time></trkpt><trkpt lat="42.4788117" lon="12.52837"><ele>324.6666666666667</ele><time>2026-05-03T08:32:55.988Z</time></trkpt><trkpt lat="42.4787467" lon="12.5281733"><ele>320.3333333333333</ele><time>2026-05-03T08:32:56.99Z</time></trkpt><trkpt lat="42.4786883" lon="12.527985"><ele>316.0</ele><time>2026-05-03T08:32:57.992Z</time></trkpt><trkpt lat="42.4786417" lon="12.5277933"><ele>316.0</ele><time>2026-05-03T08:32:58.992Z</time></trkpt><trkpt lat="42.4786083" lon="12.5275967"><ele>316.0</ele><time>2026-05-03T08:32:59.993Z</time></trkpt><trkpt lat="42.47859" lon="12.5273933"><ele>316.0</ele><time>2026-05-03T08:33:00.986Z</time></trkpt><trkpt lat="42.478585" lon="12.5271867"><ele>315.66666666666663</ele><time>2026-05-03T08:33:01.987Z</time></trkpt><trkpt lat="42.4785983" lon="12.5269767"><ele>315.3333333333333</ele><time>2026-05-03T08:33:02.988Z</time></trkpt><trkpt lat="42.47862" lon="12.5267583"><ele>315.0</ele><time>2026-05-03T08:33:03.992Z</time></trkpt><trkpt lat="42.4786433" lon="12.5265317"><ele>315.0</ele><time>2026-05-03T08:33:04.992Z</time></trkpt><trkpt lat="42.4786683" lon="12.5262967"><ele>315.0</ele><time>2026-05-03T08:33:05.997Z</time></trkpt><trkpt lat="42.4786833" lon="12.5260583"><ele>315.0</ele><time>2026-05-03T08:33:06.989Z</time></trkpt><trkpt lat="42.4786867" lon="12.5258183"><ele>314.6666666666667</ele><time>2026-05-03T08:33:07.992Z</time></trkpt><trkpt lat="42.4786767" lon="12.525575"><ele>314.33333333333337</ele><time>2026-05-03T08:33:08.993Z</time></trkpt><trkpt lat="42.4786633" lon="12.5253267"><ele>314.0</ele><time>2026-05-03T08:33:09.991Z</time></trkpt><trkpt lat="42.4786467" lon="12.52507"><ele>314.0</ele><time>2026-05-03T08:33:10.988Z</time></trkpt><trkpt lat="42.4786283" lon="12.5248167"><ele>314.0</ele><time>2026-05-03T08:33:11.988Z</time></trkpt><trkpt lat="42.4786067" lon="12.5245733"><ele>314.0</ele><time>2026-05-03T08:33:12.989Z</time></trkpt><trkpt lat="42.478585" lon="12.5243417"><ele>314.0</ele><time>2026-05-03T08:33:13.99Z</time></trkpt><trkpt lat="42.478565" lon="12.5241217"><ele>314.0</ele><time>2026-05-03T08:33:14.99Z</time></trkpt><trkpt lat="42.4785317" lon="12.523905"><ele>314.0</ele><time>2026-05-03T08:33:15.988Z</time></trkpt><trkpt lat="42.478475" lon="12.523695"><ele>314.6666666666667</ele><time>2026-05-03T08:33:16.989Z</time></trkpt><trkpt lat="42.4784017" lon="12.523505"><ele>315.3333333333333</ele><time>2026-05-03T08:33:17.987Z</time></trkpt><trkpt lat="42.4782933" lon="12.52332"><ele>316.0</ele><time>2026-05-03T08:33:18.986Z</time></trkpt><trkpt lat="42.4781733" lon="12.5231383"><ele>316.0</ele><time>2026-05-03T08:33:19.993Z</time></trkpt><trkpt lat="42.4780483" lon="12.52295"><ele>316.0</ele><time>2026-05-03T08:33:20.987Z</time></trkpt><trkpt lat="42.4779283" lon="12.52277"><ele>316.0</ele><time>2026-05-03T08:33:21.992Z</time></trkpt><trkpt lat="42.4778017" lon="12.522625"><ele>317.3333333333333</ele><time>2026-05-03T08:33:22.984Z</time></trkpt><trkpt lat="42.477655" lon="12.52251"><ele>318.6666666666667</ele><time>2026-05-03T08:33:23.989Z</time></trkpt><trkpt lat="42.4775083" lon="12.52241"><ele>320.0</ele><time>2026-05-03T08:33:24.983Z</time></trkpt><trkpt lat="42.4773783" lon="12.5223033"><ele>320.0</ele><time>2026-05-03T08:33:25.99Z</time></trkpt><trkpt lat="42.4772667" lon="12.52216"><ele>320.0</ele><time>2026-05-03T08:33:26.989Z</time></trkpt><trkpt lat="42.477165" lon="12.52199"><ele>320.0</ele><time>2026-05-03T08:33:27.983Z</time></trkpt><trkpt lat="42.4770583" lon="12.5218083"><ele>318.6666666666667</ele><time>2026-05-03T08:33:28.988Z</time></trkpt><trkpt lat="42.47694" lon="12.5216233"><ele>317.3333333333333</ele><time>2026-05-03T08:33:29.986Z</time></trkpt><trkpt lat="42.476815" lon="12.5214367"><ele>316.0</ele><time>2026-05-03T08:33:30.987Z</time></trkpt><trkpt lat="42.4766883" lon="12.5212633"><ele>317.3333333333333</ele><time>2026-05-03T08:33:31.986Z</time></trkpt><trkpt lat="42.4765767" lon="12.52109"><ele>318.6666666666667</ele><time>2026-05-03T08:33:32.985Z</time></trkpt><trkpt lat="42.476485" lon="12.5209017"><ele>320.0</ele><time>2026-05-03T08:33:33.993Z</time></trkpt><trkpt lat="42.4764067" lon="12.5207017"><ele>320.0</ele><time>2026-05-03T08:33:34.988Z</time></trkpt><trkpt lat="42.47634" lon="12.5204917"><ele>320.0</ele><time>2026-05-03T08:33:35.991Z</time></trkpt><trkpt lat="42.476275" lon="12.5202817"><ele>320.0</ele><time>2026-05-03T08:33:36.991Z</time></trkpt><trkpt lat="42.4762033" lon="12.5200867"><ele>316.5</ele><time>2026-05-03T08:33:37.991Z</time></trkpt><trkpt lat="42.47613" lon="12.51991"><ele>313.0</ele><time>2026-05-03T08:33:38.987Z</time></trkpt><trkpt lat="42.4760717" lon="12.5197317"><ele>309.5</ele><time>2026-05-03T08:33:39.988Z</time></trkpt><trkpt lat="42.4760383" lon="12.5195383"><ele>306.0</ele><time>2026-05-03T08:33:40.994Z</time></trkpt><trkpt lat="42.4760417" lon="12.5193367"><ele>304.6666666666667</ele><time>2026-05-03T08:33:41.991Z</time></trkpt><trkpt lat="42.4760783" lon="12.519135"><ele>303.33333333333337</ele><time>2026-05-03T08:33:42.989Z</time></trkpt><trkpt lat="42.4761483" lon="12.518945"><ele>302.0</ele><time>2026-05-03T08:33:43.987Z</time></trkpt><trkpt lat="42.4762233" lon="12.518775"><ele>304.0</ele><time>2026-05-03T08:33:44.989Z</time></trkpt><trkpt lat="42.4762883" lon="12.5186267"><ele>306.0</ele><time>2026-05-03T08:33:45.986Z</time></trkpt><trkpt lat="42.476325" lon="12.5184967"><ele>308.0</ele><time>2026-05-03T08:33:46.987Z</time></trkpt><trkpt lat="42.47632" lon="12.518365"><ele>310.0</ele><time>2026-05-03T08:33:47.987Z</time></trkpt><trkpt lat="42.4762817" lon="12.5182483"><ele>312.0</ele><time>2026-05-03T08:33:48.987Z</time></trkpt><trkpt lat="42.476205" lon="12.5181467"><ele>307.8</ele><time>2026-05-03T08:33:49.986Z</time></trkpt><trkpt lat="42.4761283" lon="12.5180483"><ele>303.6</ele><time>2026-05-03T08:33:50.986Z</time></trkpt><trkpt lat="42.4760783" lon="12.5179367"><ele>299.40000000000003</ele><time>2026-05-03T08:33:51.991Z</time></trkpt><trkpt lat="42.47607" lon="12.51781"><ele>295.2</ele><time>2026-05-03T08:33:52.989Z</time></trkpt><trkpt lat="42.4761017" lon="12.5176733"><ele>291.0</ele><time>2026-05-03T08:33:53.989Z</time></trkpt><trkpt lat="42.4761583" lon="12.517535"><ele>291.75</ele><time>2026-05-03T08:33:54.987Z</time></trkpt><trkpt lat="42.4762283" lon="12.5173933"><ele>292.5</ele><time>2026-05-03T08:33:55.985Z</time></trkpt><trkpt lat="42.4762967" lon="12.5172583"><ele>293.25</ele><time>2026-05-03T08:33:56.989Z</time></trkpt><trkpt lat="42.47635" lon="12.5171217"><ele>294.0</ele><time>2026-05-03T08:33:57.989Z</time></trkpt><trkpt lat="42.4763783" lon="12.5169783"><ele>294.0</ele><time>2026-05-03T08:33:58.997Z</time></trkpt><trkpt lat="42.4763817" lon="12.51683"><ele>294.0</ele><time>2026-05-03T08:33:59.985Z</time></trkpt><trkpt lat="42.47637" lon="12.51669"><ele>294.0</ele><time>2026-05-03T08:34:00.988Z</time></trkpt><trkpt lat="42.4763533" lon="12.51656"><ele>294.0</ele><time>2026-05-03T08:34:01.989Z</time></trkpt><trkpt lat="42.4763383" lon="12.51645"><ele>294.0</ele><time>2026-05-03T08:34:02.988Z</time></trkpt><trkpt lat="42.4763233" lon="12.5163617"><ele>294.0</ele><time>2026-05-03T08:34:03.986Z</time></trkpt><trkpt lat="42.476295" lon="12.5162433"><ele>294.0</ele><time>2026-05-03T08:34:05.996Z</time></trkpt><trkpt lat="42.4762217" lon="12.5161617"><ele>294.0</ele><time>2026-05-03T08:34:07.99Z</time></trkpt><trkpt lat="42.4761533" lon="12.5161283"><ele>294.0</ele><time>2026-05-03T08:34:08.988Z</time></trkpt><trkpt lat="42.476065" lon="12.5160967"><ele>294.0</ele><time>2026-05-03T08:34:09.988Z</time></trkpt><trkpt lat="42.4759683" lon="12.5160583"><ele>289.5</ele><time>2026-05-03T08:34:10.987Z</time></trkpt><trkpt lat="42.4758633" lon="12.5160133"><ele>285.0</ele><time>2026-05-03T08:34:11.986Z</time></trkpt><trkpt lat="42.4757533" lon="12.5159517"><ele>280.5</ele><time>2026-05-03T08:34:12.989Z</time></trkpt><trkpt lat="42.4756517" lon="12.5158783"><ele>276.0</ele><time>2026-05-03T08:34:13.989Z</time></trkpt><trkpt lat="42.47556" lon="12.5157933"><ele>276.0</ele><time>2026-05-03T08:34:14.987Z</time></trkpt><trkpt lat="42.4754733" lon="12.51569"><ele>276.0</ele><time>2026-05-03T08:34:15.986Z</time></trkpt><trkpt lat="42.4753917" lon="12.5155733"><ele>276.0</ele><time>2026-05-03T08:34:16.987Z</time></trkpt><trkpt lat="42.4753183" lon="12.5154433"><ele>276.0</ele><time>2026-05-03T08:34:17.988Z</time></trkpt><trkpt lat="42.4752483" lon="12.515305"><ele>277.75</ele><time>2026-05-03T08:34:18.993Z</time></trkpt><trkpt lat="42.4751783" lon="12.515155"><ele>279.5</ele><time>2026-05-03T08:34:19.986Z</time></trkpt><trkpt lat="42.4751067" lon="12.5149983"><ele>281.25</ele><time>2026-05-03T08:34:20.991Z</time></trkpt><trkpt lat="42.475035" lon="12.5148367"><ele>283.0</ele><time>2026-05-03T08:34:21.992Z</time></trkpt><trkpt lat="42.4749633" lon="12.514665"><ele>281.75</ele><time>2026-05-03T08:34:22.987Z</time></trkpt><trkpt lat="42.4748983" lon="12.5144883"><ele>280.5</ele><time>2026-05-03T08:34:23.992Z</time></trkpt><trkpt lat="42.4748417" lon="12.5143117"><ele>279.25</ele><time>2026-05-03T08:34:24.987Z</time></trkpt><trkpt lat="42.4747933" lon="12.5141283"><ele>278.0</ele><time>2026-05-03T08:34:25.985Z</time></trkpt><trkpt lat="42.47476" lon="12.513935"><ele>277.6666666666667</ele><time>2026-05-03T08:34:26.988Z</time></trkpt><trkpt lat="42.474735" lon="12.51373"><ele>277.3333333333333</ele><time>2026-05-03T08:34:27.99Z</time></trkpt><trkpt lat="42.4747267" lon="12.5135167"><ele>277.0</ele><time>2026-05-03T08:34:28.984Z</time></trkpt><trkpt lat="42.47473" lon="12.513295"><ele>277.0</ele><time>2026-05-03T08:34:29.986Z</time></trkpt><trkpt lat="42.474735" lon="12.5130667"><ele>277.0</ele><time>2026-05-03T08:34:30.989Z</time></trkpt><trkpt lat="42.474735" lon="12.5128383"><ele>277.0</ele><time>2026-05-03T08:34:31.986Z</time></trkpt><trkpt lat="42.4747233" lon="12.5126083"><ele>277.3333333333333</ele><time>2026-05-03T08:34:32.99Z</time></trkpt><trkpt lat="42.4746983" lon="12.5123833"><ele>277.6666666666667</ele><time>2026-05-03T08:34:33.989Z</time></trkpt><trkpt lat="42.4746483" lon="12.51215"><ele>278.0</ele><time>2026-05-03T08:34:34.994Z</time></trkpt><trkpt lat="42.47459" lon="12.5119167"><ele>279.6666666666667</ele><time>2026-05-03T08:34:35.986Z</time></trkpt><trkpt lat="42.4745167" lon="12.511685"><ele>281.3333333333333</ele><time>2026-05-03T08:34:36.989Z</time></trkpt><trkpt lat="42.47443" lon="12.5114517"><ele>283.0</ele><time>2026-05-03T08:34:37.99Z</time></trkpt><trkpt lat="42.4743317" lon="12.51122"><ele>283.0</ele><time>2026-05-03T08:34:38.984Z</time></trkpt><trkpt lat="42.474215" lon="12.511005"><ele>283.0</ele><time>2026-05-03T08:34:39.993Z</time></trkpt><trkpt lat="42.4740733" lon="12.510805"><ele>283.0</ele><time>2026-05-03T08:34:40.993Z</time></trkpt><trkpt lat="42.47393" lon="12.5106083"><ele>283.0</ele><time>2026-05-03T08:34:41.986Z</time></trkpt><trkpt lat="42.4737833" lon="12.5104067"><ele>283.0</ele><time>2026-05-03T08:34:42.987Z</time></trkpt><trkpt lat="42.4736317" lon="12.5102017"><ele>283.0</ele><time>2026-05-03T08:34:43.987Z</time></trkpt><trkpt lat="42.47347" lon="12.510005"><ele>283.0</ele><time>2026-05-03T08:34:44.987Z</time></trkpt><trkpt lat="42.4733183" lon="12.5097983"><ele>283.0</ele><time>2026-05-03T08:34:45.989Z</time></trkpt><trkpt lat="42.4731667" lon="12.509595"><ele>283.0</ele><time>2026-05-03T08:34:46.987Z</time></trkpt><trkpt lat="42.4730217" lon="12.509395"><ele>283.0</ele><time>2026-05-03T08:34:47.989Z</time></trkpt><trkpt lat="42.47288" lon="12.509205"><ele>283.0</ele><time>2026-05-03T08:34:48.988Z</time></trkpt><trkpt lat="42.4727417" lon="12.5090233"><ele>283.0</ele><time>2026-05-03T08:34:49.987Z</time></trkpt><trkpt lat="42.4725933" lon="12.5088533"><ele>282.0</ele><time>2026-05-03T08:34:50.987Z</time></trkpt><trkpt lat="42.472435" lon="12.5086933"><ele>281.0</ele><time>2026-05-03T08:34:51.989Z</time></trkpt><trkpt lat="42.4722667" lon="12.5085417"><ele>280.0</ele><time>2026-05-03T08:34:52.989Z</time></trkpt><trkpt lat="42.4720917" lon="12.5084033"><ele>280.0</ele><time>2026-05-03T08:34:53.984Z</time></trkpt><trkpt lat="42.4719067" lon="12.508285"><ele>280.0</ele><time>2026-05-03T08:34:54.985Z</time></trkpt><trkpt lat="42.4717117" lon="12.5081867"><ele>280.0</ele><time>2026-05-03T08:34:55.987Z</time></trkpt><trkpt lat="42.47151" lon="12.508105"><ele>280.0</ele><time>2026-05-03T08:34:56.987Z</time></trkpt><trkpt lat="42.4713033" lon="12.5080333"><ele>280.0</ele><time>2026-05-03T08:34:57.986Z</time></trkpt><trkpt lat="42.4710933" lon="12.507965"><ele>280.0</ele><time>2026-05-03T08:34:58.983Z</time></trkpt><trkpt lat="42.470885" lon="12.507895"><ele>272.3333333333333</ele><time>2026-05-03T08:34:59.984Z</time></trkpt><trkpt lat="42.4706783" lon="12.5078317"><ele>264.6666666666667</ele><time>2026-05-03T08:35:00.983Z</time></trkpt><trkpt lat="42.4704783" lon="12.5077617"><ele>257.0</ele><time>2026-05-03T08:35:01.986Z</time></trkpt><trkpt lat="42.4702817" lon="12.5076967"><ele>257.0</ele><time>2026-05-03T08:35:02.986Z</time></trkpt><trkpt lat="42.4700883" lon="12.50763"><ele>257.0</ele><time>2026-05-03T08:35:03.99Z</time></trkpt><trkpt lat="42.4699033" lon="12.5075633"><ele>257.0</ele><time>2026-05-03T08:35:04.99Z</time></trkpt><trkpt lat="42.4697217" lon="12.5074967"><ele>257.6666666666667</ele><time>2026-05-03T08:35:05.989Z</time></trkpt><trkpt lat="42.4695467" lon="12.5074267"><ele>258.3333333333333</ele><time>2026-05-03T08:35:06.983Z</time></trkpt><trkpt lat="42.4693733" lon="12.5073483"><ele>259.0</ele><time>2026-05-03T08:35:07.991Z</time></trkpt><trkpt lat="42.4692067" lon="12.5072533"><ele>259.0</ele><time>2026-05-03T08:35:08.987Z</time></trkpt><trkpt lat="42.46904" lon="12.5071433"><ele>259.0</ele><time>2026-05-03T08:35:09.983Z</time></trkpt><trkpt lat="42.46888" lon="12.5070217"><ele>259.0</ele><time>2026-05-03T08:35:10.986Z</time></trkpt><trkpt lat="42.468725" lon="12.5068867"><ele>255.0</ele><time>2026-05-03T08:35:11.987Z</time></trkpt><trkpt lat="42.46858" lon="12.5067367"><ele>251.0</ele><time>2026-05-03T08:35:12.988Z</time></trkpt><trkpt lat="42.46844" lon="12.5065733"><ele>247.0</ele><time>2026-05-03T08:35:13.989Z</time></trkpt><trkpt lat="42.4683083" lon="12.5063967"><ele>245.33333333333331</ele><time>2026-05-03T08:35:14.99Z</time></trkpt><trkpt lat="42.4681833" lon="12.5062067"><ele>243.66666666666669</ele><time>2026-05-03T08:35:15.986Z</time></trkpt><trkpt lat="42.468065" lon="12.5060067"><ele>242.0</ele><time>2026-05-03T08:35:16.989Z</time></trkpt><trkpt lat="42.4679483" lon="12.5057983"><ele>246.0</ele><time>2026-05-03T08:35:17.986Z</time></trkpt><trkpt lat="42.467835" lon="12.50558"><ele>250.0</ele><time>2026-05-03T08:35:18.989Z</time></trkpt><trkpt lat="42.4677233" lon="12.5053517"><ele>254.0</ele><time>2026-05-03T08:35:19.992Z</time></trkpt><trkpt lat="42.4676183" lon="12.50511"><ele>254.0</ele><time>2026-05-03T08:35:20.991Z</time></trkpt><trkpt lat="42.4675233" lon="12.5048567"><ele>254.0</ele><time>2026-05-03T08:35:21.988Z</time></trkpt><trkpt lat="42.4674533" lon="12.5045933"><ele>254.0</ele><time>2026-05-03T08:35:22.989Z</time></trkpt><trkpt lat="42.4673983" lon="12.50433"><ele>251.66666666666669</ele><time>2026-05-03T08:35:23.991Z</time></trkpt><trkpt lat="42.4673583" lon="12.5040667"><ele>249.33333333333331</ele><time>2026-05-03T08:35:24.991Z</time></trkpt><trkpt lat="42.46733" lon="12.5038"><ele>247.0</ele><time>2026-05-03T08:35:25.99Z</time></trkpt><trkpt lat="42.4673167" lon="12.5035317"><ele>244.33333333333331</ele><time>2026-05-03T08:35:26.99Z</time></trkpt><trkpt lat="42.4673167" lon="12.50326"><ele>241.66666666666669</ele><time>2026-05-03T08:35:27.987Z</time></trkpt><trkpt lat="42.4673333" lon="12.5029933"><ele>239.0</ele><time>2026-05-03T08:35:28.986Z</time></trkpt><trkpt lat="42.4673567" lon="12.50274"><ele>238.33333333333334</ele><time>2026-05-03T08:35:29.983Z</time></trkpt><trkpt lat="42.4673867" lon="12.5024967"><ele>237.66666666666669</ele><time>2026-05-03T08:35:30.986Z</time></trkpt><trkpt lat="42.4674083" lon="12.5022617"><ele>237.0</ele><time>2026-05-03T08:35:31.99Z</time></trkpt><trkpt lat="42.4674267" lon="12.5020267"><ele>236.33333333333331</ele><time>2026-05-03T08:35:32.989Z</time></trkpt><trkpt lat="42.4674333" lon="12.5017933"><ele>235.66666666666666</ele><time>2026-05-03T08:35:33.987Z</time></trkpt><trkpt lat="42.46743" lon="12.5015633"><ele>235.0</ele><time>2026-05-03T08:35:34.986Z</time></trkpt><trkpt lat="42.4674167" lon="12.501335"><ele>235.25</ele><time>2026-05-03T08:35:35.989Z</time></trkpt><trkpt lat="42.4673867" lon="12.5011283"><ele>235.5</ele><time>2026-05-03T08:35:36.992Z</time></trkpt><trkpt lat="42.46735" lon="12.5009633"><ele>235.75</ele><time>2026-05-03T08:35:37.989Z</time></trkpt><trkpt lat="42.4673167" lon="12.500835"><ele>236.0</ele><time>2026-05-03T08:35:38.989Z</time></trkpt><trkpt lat="42.4672833" lon="12.500725"><ele>236.00000000000003</ele><time>2026-05-03T08:35:39.984Z</time></trkpt><trkpt lat="42.4672483" lon="12.500625"><ele>236.0</ele><time>2026-05-03T08:35:40.989Z</time></trkpt><trkpt lat="42.46721" lon="12.5005333"><ele>236.0</ele><time>2026-05-03T08:35:41.983Z</time></trkpt><trkpt lat="42.467185" lon="12.5004533"><ele>236.0</ele><time>2026-05-03T08:35:42.991Z</time></trkpt><trkpt lat="42.4671367" lon="12.5003617"><ele>236.00000000000003</ele><time>2026-05-03T08:35:44.989Z</time></trkpt><trkpt lat="42.4670767" lon="12.5003233"><ele>236.0</ele><time>2026-05-03T08:36:32.985Z</time></trkpt><trkpt lat="42.4670133" lon="12.5001883"><ele>237.20000000000002</ele><time>2026-05-03T08:36:34.986Z</time></trkpt><trkpt lat="42.4669683" lon="12.5001"><ele>238.40000000000003</ele><time>2026-05-03T08:36:35.985Z</time></trkpt><trkpt lat="42.4669033" lon="12.5000017"><ele>239.6</ele><time>2026-05-03T08:36:36.988Z</time></trkpt><trkpt lat="42.4668267" lon="12.4999017"><ele>240.8</ele><time>2026-05-03T08:36:37.986Z</time></trkpt><trkpt lat="42.46674" lon="12.4998017"><ele>242.0</ele><time>2026-05-03T08:36:38.982Z</time></trkpt><trkpt lat="42.4666517" lon="12.4996983"><ele>242.0</ele><time>2026-05-03T08:36:39.987Z</time></trkpt><trkpt lat="42.4665533" lon="12.499595"><ele>242.0</ele><time>2026-05-03T08:36:40.987Z</time></trkpt><trkpt lat="42.4664467" lon="12.4994933"><ele>242.0</ele><time>2026-05-03T08:36:41.991Z</time></trkpt><trkpt lat="42.4663367" lon="12.4993967"><ele>242.0</ele><time>2026-05-03T08:36:42.987Z</time></trkpt><trkpt lat="42.4662217" lon="12.499305"><ele>238.0</ele><time>2026-05-03T08:36:43.991Z</time></trkpt><trkpt lat="42.4660983" lon="12.4992133"><ele>234.0</ele><time>2026-05-03T08:36:44.989Z</time></trkpt><trkpt lat="42.465975" lon="12.4991167"><ele>230.0</ele><time>2026-05-03T08:36:45.989Z</time></trkpt><trkpt lat="42.4658517" lon="12.4990167"><ele>226.0</ele><time>2026-05-03T08:36:46.987Z</time></trkpt><trkpt lat="42.4657317" lon="12.4989083"><ele>226.0</ele><time>2026-05-03T08:36:47.986Z</time></trkpt><trkpt lat="42.4656183" lon="12.4987867"><ele>226.0</ele><time>2026-05-03T08:36:48.988Z</time></trkpt><trkpt lat="42.4655133" lon="12.49865"><ele>226.0</ele><time>2026-05-03T08:36:49.985Z</time></trkpt><trkpt lat="42.4654133" lon="12.4984967"><ele>226.0</ele><time>2026-05-03T08:36:50.986Z</time></trkpt><trkpt lat="42.4653217" lon="12.4983367"><ele>228.33333333333331</ele><time>2026-05-03T08:36:51.99Z</time></trkpt><trkpt lat="42.46524" lon="12.4981617"><ele>230.66666666666669</ele><time>2026-05-03T08:36:52.989Z</time></trkpt><trkpt lat="42.46517" lon="12.4979733"><ele>233.0</ele><time>2026-05-03T08:36:53.987Z</time></trkpt><trkpt lat="42.4651167" lon="12.4977667"><ele>233.0</ele><time>2026-05-03T08:36:54.988Z</time></trkpt><trkpt lat="42.4650717" lon="12.49755"><ele>233.0</ele><time>2026-05-03T08:36:55.988Z</time></trkpt><trkpt lat="42.4650317" lon="12.4973317"><ele>233.0</ele><time>2026-05-03T08:36:56.984Z</time></trkpt><trkpt lat="42.4650033" lon="12.4971183"><ele>232.33333333333334</ele><time>2026-05-03T08:36:57.987Z</time></trkpt><trkpt lat="42.4649867" lon="12.4969067"><ele>231.66666666666669</ele><time>2026-05-03T08:36:58.984Z</time></trkpt><trkpt lat="42.4649733" lon="12.496695"><ele>231.0</ele><time>2026-05-03T08:36:59.986Z</time></trkpt><trkpt lat="42.464965" lon="12.4964817"><ele>231.0</ele><time>2026-05-03T08:37:00.986Z</time></trkpt><trkpt lat="42.4649567" lon="12.4962683"><ele>231.0</ele><time>2026-05-03T08:37:01.989Z</time></trkpt><trkpt lat="42.46495" lon="12.49605"><ele>231.0</ele><time>2026-05-03T08:37:02.991Z</time></trkpt><trkpt lat="42.46494" lon="12.4958267"><ele>228.66666666666669</ele><time>2026-05-03T08:37:03.988Z</time></trkpt><trkpt lat="42.46493" lon="12.4956033"><ele>226.33333333333334</ele><time>2026-05-03T08:37:04.986Z</time></trkpt><trkpt lat="42.46492" lon="12.495385"><ele>224.0</ele><time>2026-05-03T08:37:05.99Z</time></trkpt><trkpt lat="42.4649067" lon="12.4951717"><ele>223.33333333333334</ele><time>2026-05-03T08:37:06.995Z</time></trkpt><trkpt lat="42.4648917" lon="12.49497"><ele>222.66666666666669</ele><time>2026-05-03T08:37:07.989Z</time></trkpt><trkpt lat="42.4648583" lon="12.494765"><ele>222.0</ele><time>2026-05-03T08:37:08.991Z</time></trkpt><trkpt lat="42.4648117" lon="12.4945667"><ele>223.33333333333331</ele><time>2026-05-03T08:37:09.986Z</time></trkpt><trkpt lat="42.4647517" lon="12.4943683"><ele>224.66666666666666</ele><time>2026-05-03T08:37:10.984Z</time></trkpt><trkpt lat="42.464685" lon="12.4941667"><ele>226.0</ele><time>2026-05-03T08:37:11.99Z</time></trkpt><trkpt lat="42.464595" lon="12.493975"><ele>227.0</ele><time>2026-05-03T08:37:12.988Z</time></trkpt><trkpt lat="42.4644983" lon="12.493795"><ele>228.0</ele><time>2026-05-03T08:37:13.986Z</time></trkpt><trkpt lat="42.464375" lon="12.4936283"><ele>229.0</ele><time>2026-05-03T08:37:14.987Z</time></trkpt><trkpt lat="42.4642417" lon="12.4934783"><ele>229.0</ele><time>2026-05-03T08:37:15.985Z</time></trkpt><trkpt lat="42.464095" lon="12.4933417"><ele>229.0</ele><time>2026-05-03T08:37:16.986Z</time></trkpt><trkpt lat="42.4639417" lon="12.493225"><ele>229.0</ele><time>2026-05-03T08:37:17.989Z</time></trkpt><trkpt lat="42.4637783" lon="12.4931233"><ele>229.66666666666666</ele><time>2026-05-03T08:37:18.986Z</time></trkpt><trkpt lat="42.4636117" lon="12.4930233"><ele>230.33333333333331</ele><time>2026-05-03T08:37:19.982Z</time></trkpt><trkpt lat="42.46344" lon="12.4929283"><ele>231.0</ele><time>2026-05-03T08:37:20.987Z</time></trkpt><trkpt lat="42.4632683" lon="12.4928333"><ele>229.66666666666669</ele><time>2026-05-03T08:37:21.992Z</time></trkpt><trkpt lat="42.463095" lon="12.4927417"><ele>228.33333333333334</ele><time>2026-05-03T08:37:22.988Z</time></trkpt><trkpt lat="42.4629233" lon="12.49265"><ele>227.0</ele><time>2026-05-03T08:37:23.986Z</time></trkpt><trkpt lat="42.4627517" lon="12.4925567"><ele>227.0</ele><time>2026-05-03T08:37:24.986Z</time></trkpt><trkpt lat="42.462585" lon="12.49246"><ele>227.0</ele><time>2026-05-03T08:37:25.989Z</time></trkpt><trkpt lat="42.4624217" lon="12.4923633"><ele>227.0</ele><time>2026-05-03T08:37:26.989Z</time></trkpt><trkpt lat="42.46226" lon="12.492265"><ele>227.0</ele><time>2026-05-03T08:37:27.988Z</time></trkpt><trkpt lat="42.462105" lon="12.4921533"><ele>227.0</ele><time>2026-05-03T08:37:28.985Z</time></trkpt><trkpt lat="42.4619517" lon="12.492025"><ele>227.0</ele><time>2026-05-03T08:37:29.993Z</time></trkpt><trkpt lat="42.4618017" lon="12.4918867"><ele>227.0</ele><time>2026-05-03T08:37:30.983Z</time></trkpt><trkpt lat="42.4616567" lon="12.491735"><ele>227.0</ele><time>2026-05-03T08:37:31.992Z</time></trkpt><trkpt lat="42.46152" lon="12.4915667"><ele>227.0</ele><time>2026-05-03T08:37:32.987Z</time></trkpt><trkpt lat="42.4613883" lon="12.4913783"><ele>225.0</ele><time>2026-05-03T08:37:33.991Z</time></trkpt><trkpt lat="42.46126" lon="12.491175"><ele>223.0</ele><time>2026-05-03T08:37:34.988Z</time></trkpt><trkpt lat="42.4611333" lon="12.4909567"><ele>221.0</ele><time>2026-05-03T08:37:35.982Z</time></trkpt><trkpt lat="42.4610083" lon="12.490735"><ele>221.0</ele><time>2026-05-03T08:37:36.99Z</time></trkpt><trkpt lat="42.4608817" lon="12.490525"><ele>221.0</ele><time>2026-05-03T08:37:37.984Z</time></trkpt><trkpt lat="42.46075" lon="12.4903367"><ele>221.0</ele><time>2026-05-03T08:37:38.998Z</time></trkpt><trkpt lat="42.460615" lon="12.4901633"><ele>221.66666666666669</ele><time>2026-05-03T08:37:39.988Z</time></trkpt><trkpt lat="42.4604683" lon="12.4900117"><ele>222.33333333333331</ele><time>2026-05-03T08:37:40.994Z</time></trkpt><trkpt lat="42.4603033" lon="12.4898883"><ele>223.0</ele><time>2026-05-03T08:37:41.987Z</time></trkpt><trkpt lat="42.4601267" lon="12.4897883"><ele>223.0</ele><time>2026-05-03T08:37:42.984Z</time></trkpt><trkpt lat="42.4599417" lon="12.48971"><ele>223.0</ele><time>2026-05-03T08:37:43.987Z</time></trkpt><trkpt lat="42.4597517" lon="12.48964"><ele>223.0</ele><time>2026-05-03T08:37:44.987Z</time></trkpt><trkpt lat="42.4595583" lon="12.4895717"><ele>226.33333333333331</ele><time>2026-05-03T08:37:45.989Z</time></trkpt><trkpt lat="42.4593633" lon="12.489505"><ele>229.66666666666669</ele><time>2026-05-03T08:37:46.987Z</time></trkpt><trkpt lat="42.4591667" lon="12.4894417"><ele>233.0</ele><time>2026-05-03T08:37:47.987Z</time></trkpt><trkpt lat="42.45897" lon="12.48938"><ele>233.33333333333334</ele><time>2026-05-03T08:37:48.989Z</time></trkpt><trkpt lat="42.45877" lon="12.4893183"><ele>233.66666666666669</ele><time>2026-05-03T08:37:50.001Z</time></trkpt><trkpt lat="42.4585733" lon="12.4892617"><ele>234.0</ele><time>2026-05-03T08:37:50.985Z</time></trkpt><trkpt lat="42.45838" lon="12.489205"><ele>234.0</ele><time>2026-05-03T08:37:51.989Z</time></trkpt><trkpt lat="42.4581967" lon="12.4891283"><ele>234.0</ele><time>2026-05-03T08:37:52.986Z</time></trkpt><trkpt lat="42.4580183" lon="12.4890267"><ele>234.0</ele><time>2026-05-03T08:37:53.99Z</time></trkpt><trkpt lat="42.457845" lon="12.488905"><ele>233.0</ele><time>2026-05-03T08:37:54.986Z</time></trkpt><trkpt lat="42.4576767" lon="12.488775"><ele>232.0</ele><time>2026-05-03T08:37:55.992Z</time></trkpt><trkpt lat="42.4575067" lon="12.4886417"><ele>231.0</ele><time>2026-05-03T08:37:56.989Z</time></trkpt><trkpt lat="42.4573317" lon="12.4885233"><ele>234.33333333333331</ele><time>2026-05-03T08:37:57.983Z</time></trkpt><trkpt lat="42.4571567" lon="12.48843"><ele>237.66666666666666</ele><time>2026-05-03T08:37:58.992Z</time></trkpt><trkpt lat="42.4569967" lon="12.4883467"><ele>241.0</ele><time>2026-05-03T08:37:59.989Z</time></trkpt><trkpt lat="42.4568567" lon="12.488265"><ele>241.0</ele><time>2026-05-03T08:38:00.991Z</time></trkpt><trkpt lat="42.4567433" lon="12.4881633"><ele>241.0</ele><time>2026-05-03T08:38:01.986Z</time></trkpt><trkpt lat="42.456655" lon="12.4880317"><ele>241.0</ele><time>2026-05-03T08:38:02.985Z</time></trkpt><trkpt lat="42.4566033" lon="12.4878717"><ele>241.0</ele><time>2026-05-03T08:38:03.989Z</time></trkpt><trkpt lat="42.4565833" lon="12.4877033"><ele>242.5</ele><time>2026-05-03T08:38:04.987Z</time></trkpt><trkpt lat="42.45659" lon="12.4875333"><ele>244.0</ele><time>2026-05-03T08:38:05.989Z</time></trkpt><trkpt lat="42.4566283" lon="12.4873617"><ele>245.5</ele><time>2026-05-03T08:38:06.986Z</time></trkpt><trkpt lat="42.456695" lon="12.4871917"><ele>247.0</ele><time>2026-05-03T08:38:07.99Z</time></trkpt><trkpt lat="42.4567667" lon="12.48702"><ele>247.0</ele><time>2026-05-03T08:38:08.987Z</time></trkpt><trkpt lat="42.4568283" lon="12.4868317"><ele>247.0</ele><time>2026-05-03T08:38:09.989Z</time></trkpt><trkpt lat="42.4568817" lon="12.48663"><ele>247.0</ele><time>2026-05-03T08:38:10.984Z</time></trkpt><trkpt lat="42.4569167" lon="12.4864083"><ele>247.0</ele><time>2026-05-03T08:38:11.986Z</time></trkpt><trkpt lat="42.4569433" lon="12.4861833"><ele>247.0</ele><time>2026-05-03T08:38:12.987Z</time></trkpt><trkpt lat="42.4569533" lon="12.485955"><ele>247.0</ele><time>2026-05-03T08:38:13.985Z</time></trkpt><trkpt lat="42.4569333" lon="12.4857183"><ele>247.0</ele><time>2026-05-03T08:38:14.988Z</time></trkpt><trkpt lat="42.4568967" lon="12.485475"><ele>247.0</ele><time>2026-05-03T08:38:15.99Z</time></trkpt><trkpt lat="42.4568333" lon="12.485225"><ele>247.0</ele><time>2026-05-03T08:38:16.993Z</time></trkpt><trkpt lat="42.4567567" lon="12.4849667"><ele>248.0</ele><time>2026-05-03T08:38:17.992Z</time></trkpt><trkpt lat="42.45668" lon="12.4847117"><ele>249.0</ele><time>2026-05-03T08:38:18.985Z</time></trkpt><trkpt lat="42.4565967" lon="12.48448"><ele>250.0</ele><time>2026-05-03T08:38:19.991Z</time></trkpt><trkpt lat="42.4564933" lon="12.4842667"><ele>250.0</ele><time>2026-05-03T08:38:20.985Z</time></trkpt><trkpt lat="42.4563667" lon="12.4840733"><ele>250.0</ele><time>2026-05-03T08:38:21.985Z</time></trkpt><trkpt lat="42.4562217" lon="12.4839017"><ele>250.0</ele><time>2026-05-03T08:38:22.987Z</time></trkpt><trkpt lat="42.4560683" lon="12.4837317"><ele>251.33333333333331</ele><time>2026-05-03T08:38:23.987Z</time></trkpt><trkpt lat="42.455905" lon="12.4835617"><ele>252.66666666666669</ele><time>2026-05-03T08:38:24.991Z</time></trkpt><trkpt lat="42.4557467" lon="12.4833817"><ele>254.0</ele><time>2026-05-03T08:38:25.988Z</time></trkpt><trkpt lat="42.4555917" lon="12.4832017"><ele>254.33333333333334</ele><time>2026-05-03T08:38:26.986Z</time></trkpt><trkpt lat="42.45544" lon="12.4830217"><ele>254.66666666666669</ele><time>2026-05-03T08:38:27.986Z</time></trkpt><trkpt lat="42.4552983" lon="12.482845"><ele>255.0</ele><time>2026-05-03T08:38:28.983Z</time></trkpt><trkpt lat="42.45517" lon="12.4826683"><ele>256.3333333333333</ele><time>2026-05-03T08:38:29.986Z</time></trkpt><trkpt lat="42.455055" lon="12.4824817"><ele>257.66666666666663</ele><time>2026-05-03T08:38:30.987Z</time></trkpt><trkpt lat="42.4549433" lon="12.48229"><ele>259.0</ele><time>2026-05-03T08:38:31.986Z</time></trkpt><trkpt lat="42.454835" lon="12.4820867"><ele>259.0</ele><time>2026-05-03T08:38:32.996Z</time></trkpt><trkpt lat="42.454725" lon="12.4818917"><ele>259.0</ele><time>2026-05-03T08:38:33.984Z</time></trkpt><trkpt lat="42.454605" lon="12.4817083"><ele>259.0</ele><time>2026-05-03T08:38:34.985Z</time></trkpt><trkpt lat="42.45448" lon="12.48154"><ele>259.66666666666663</ele><time>2026-05-03T08:38:35.99Z</time></trkpt><trkpt lat="42.4543533" lon="12.481395"><ele>260.3333333333333</ele><time>2026-05-03T08:38:36.988Z</time></trkpt><trkpt lat="42.4542183" lon="12.4812767"><ele>261.0</ele><time>2026-05-03T08:38:37.986Z</time></trkpt><trkpt lat="42.4540783" lon="12.4811833"><ele>261.6666666666667</ele><time>2026-05-03T08:38:38.986Z</time></trkpt><trkpt lat="42.45392" lon="12.4811283"><ele>262.33333333333337</ele><time>2026-05-03T08:38:39.982Z</time></trkpt><trkpt lat="42.4537533" lon="12.4810933"><ele>263.0</ele><time>2026-05-03T08:38:40.994Z</time></trkpt><trkpt lat="42.4535783" lon="12.4810633"><ele>263.0</ele><time>2026-05-03T08:38:41.99Z</time></trkpt><trkpt lat="42.4533983" lon="12.4810267"><ele>263.0</ele><time>2026-05-03T08:38:42.99Z</time></trkpt><trkpt lat="42.4532267" lon="12.48098"><ele>263.0</ele><time>2026-05-03T08:38:43.989Z</time></trkpt><trkpt lat="42.4530667" lon="12.4809233"><ele>262.33333333333337</ele><time>2026-05-03T08:38:44.984Z</time></trkpt><trkpt lat="42.4529183" lon="12.4808583"><ele>261.6666666666667</ele><time>2026-05-03T08:38:45.986Z</time></trkpt><trkpt lat="42.452775" lon="12.4807933"><ele>261.0</ele><time>2026-05-03T08:38:46.987Z</time></trkpt><trkpt lat="42.4526317" lon="12.4807333"><ele>261.0</ele><time>2026-05-03T08:38:47.989Z</time></trkpt><trkpt lat="42.45249" lon="12.480675"><ele>261.0</ele><time>2026-05-03T08:38:48.985Z</time></trkpt><trkpt lat="42.45235" lon="12.4806333"><ele>261.0</ele><time>2026-05-03T08:38:49.992Z</time></trkpt><trkpt lat="42.4522067" lon="12.4806017"><ele>261.0</ele><time>2026-05-03T08:38:50.988Z</time></trkpt><trkpt lat="42.4520633" lon="12.4805767"><ele>262.0</ele><time>2026-05-03T08:38:51.982Z</time></trkpt><trkpt lat="42.4519183" lon="12.48055"><ele>263.0</ele><time>2026-05-03T08:38:52.988Z</time></trkpt><trkpt lat="42.451775" lon="12.4805233"><ele>264.0</ele><time>2026-05-03T08:38:53.989Z</time></trkpt><trkpt lat="42.4516267" lon="12.4804933"><ele>265.0</ele><time>2026-05-03T08:38:54.986Z</time></trkpt><trkpt lat="42.4514783" lon="12.4804617"><ele>265.0</ele><time>2026-05-03T08:38:55.986Z</time></trkpt><trkpt lat="42.45133" lon="12.480435"><ele>265.0</ele><time>2026-05-03T08:38:56.991Z</time></trkpt><trkpt lat="42.4511833" lon="12.480415"><ele>265.0</ele><time>2026-05-03T08:38:57.984Z</time></trkpt><trkpt lat="42.45104" lon="12.4804167"><ele>265.0</ele><time>2026-05-03T08:38:58.987Z</time></trkpt><trkpt lat="42.4509" lon="12.4804483"><ele>267.0</ele><time>2026-05-03T08:38:59.987Z</time></trkpt><trkpt lat="42.4507567" lon="12.480515"><ele>269.0</ele><time>2026-05-03T08:39:00.991Z</time></trkpt><trkpt lat="42.4506167" lon="12.48061"><ele>271.0</ele><time>2026-05-03T08:39:01.985Z</time></trkpt><trkpt lat="42.4504817" lon="12.4807283"><ele>274.3333333333333</ele><time>2026-05-03T08:39:02.985Z</time></trkpt><trkpt lat="42.45035" lon="12.4808567"><ele>277.6666666666667</ele><time>2026-05-03T08:39:03.99Z</time></trkpt><trkpt lat="42.4502183" lon="12.4809833"><ele>281.0</ele><time>2026-05-03T08:39:04.993Z</time></trkpt><trkpt lat="42.4500917" lon="12.4811017"><ele>281.0</ele><time>2026-05-03T08:39:05.985Z</time></trkpt><trkpt lat="42.449965" lon="12.4812033"><ele>281.0</ele><time>2026-05-03T08:39:06.988Z</time></trkpt><trkpt lat="42.4498317" lon="12.481285"><ele>281.0</ele><time>2026-05-03T08:39:07.987Z</time></trkpt><trkpt lat="42.4496917" lon="12.4813383"><ele>281.0</ele><time>2026-05-03T08:39:08.989Z</time></trkpt><trkpt lat="42.44955" lon="12.4813583"><ele>280.25</ele><time>2026-05-03T08:39:09.991Z</time></trkpt><trkpt lat="42.4494083" lon="12.4813417"><ele>279.5</ele><time>2026-05-03T08:39:10.988Z</time></trkpt><trkpt lat="42.4492683" lon="12.48129"><ele>278.75</ele><time>2026-05-03T08:39:11.99Z</time></trkpt><trkpt lat="42.4491283" lon="12.4812183"><ele>278.0</ele><time>2026-05-03T08:39:12.986Z</time></trkpt><trkpt lat="42.4489833" lon="12.481145"><ele>278.0</ele><time>2026-05-03T08:39:13.989Z</time></trkpt><trkpt lat="42.4488333" lon="12.48107"><ele>278.0</ele><time>2026-05-03T08:39:14.99Z</time></trkpt><trkpt lat="42.4486783" lon="12.4809883"><ele>278.0</ele><time>2026-05-03T08:39:15.994Z</time></trkpt><trkpt lat="42.4485183" lon="12.4809067"><ele>276.0</ele><time>2026-05-03T08:39:16.986Z</time></trkpt><trkpt lat="42.4483567" lon="12.4808233"><ele>274.0</ele><time>2026-05-03T08:39:17.99Z</time></trkpt><trkpt lat="42.44819" lon="12.48074"><ele>272.0</ele><time>2026-05-03T08:39:18.994Z</time></trkpt><trkpt lat="42.4480233" lon="12.48066"><ele>270.33333333333337</ele><time>2026-05-03T08:39:19.984Z</time></trkpt><trkpt lat="42.4478567" lon="12.4805833"><ele>268.6666666666667</ele><time>2026-05-03T08:39:20.983Z</time></trkpt><trkpt lat="42.4476967" lon="12.4805033"><ele>267.0</ele><time>2026-05-03T08:39:21.985Z</time></trkpt><trkpt lat="42.4475417" lon="12.48042"><ele>267.0</ele><time>2026-05-03T08:39:22.985Z</time></trkpt><trkpt lat="42.4473867" lon="12.4803367"><ele>267.0</ele><time>2026-05-03T08:39:23.991Z</time></trkpt><trkpt lat="42.44723" lon="12.4802583"><ele>267.0</ele><time>2026-05-03T08:39:24.989Z</time></trkpt><trkpt lat="42.4470717" lon="12.4801933"><ele>265.6666666666667</ele><time>2026-05-03T08:39:25.989Z</time></trkpt><trkpt lat="42.44691" lon="12.4801483"><ele>264.33333333333337</ele><time>2026-05-03T08:39:26.989Z</time></trkpt><trkpt lat="42.4467467" lon="12.4801283"><ele>263.0</ele><time>2026-05-03T08:39:27.986Z</time></trkpt><trkpt lat="42.44658" lon="12.4801267"><ele>263.0</ele><time>2026-05-03T08:39:28.987Z</time></trkpt><trkpt lat="42.4464083" lon="12.4801317"><ele>263.0</ele><time>2026-05-03T08:39:29.984Z</time></trkpt><trkpt lat="42.4462333" lon="12.4801533"><ele>263.0</ele><time>2026-05-03T08:39:30.982Z</time></trkpt><trkpt lat="42.446055" lon="12.4801767"><ele>260.6666666666667</ele><time>2026-05-03T08:39:31.988Z</time></trkpt><trkpt lat="42.445875" lon="12.4802017"><ele>258.3333333333333</ele><time>2026-05-03T08:39:32.99Z</time></trkpt><trkpt lat="42.4457" lon="12.4802233"><ele>256.0</ele><time>2026-05-03T08:39:33.985Z</time></trkpt><trkpt lat="42.4455267" lon="12.4802433"><ele>253.33333333333331</ele><time>2026-05-03T08:39:34.988Z</time></trkpt><trkpt lat="42.445355" lon="12.4802483"><ele>250.66666666666669</ele><time>2026-05-03T08:39:35.987Z</time></trkpt><trkpt lat="42.4451867" lon="12.480225"><ele>248.0</ele><time>2026-05-03T08:39:36.993Z</time></trkpt><trkpt lat="42.4450267" lon="12.4801667"><ele>248.0</ele><time>2026-05-03T08:39:37.988Z</time></trkpt><trkpt lat="42.4448717" lon="12.4800817"><ele>248.0</ele><time>2026-05-03T08:39:38.985Z</time></trkpt><trkpt lat="42.4447217" lon="12.4799733"><ele>248.0</ele><time>2026-05-03T08:39:39.99Z</time></trkpt><trkpt lat="42.44457" lon="12.4798517"><ele>247.33333333333334</ele><time>2026-05-03T08:39:40.988Z</time></trkpt><trkpt lat="42.44442" lon="12.4797233"><ele>246.66666666666669</ele><time>2026-05-03T08:39:41.985Z</time></trkpt><trkpt lat="42.444265" lon="12.47959"><ele>246.0</ele><time>2026-05-03T08:39:42.986Z</time></trkpt><trkpt lat="42.4441067" lon="12.4794617"><ele>248.0</ele><time>2026-05-03T08:39:43.996Z</time></trkpt><trkpt lat="42.4439483" lon="12.479335"><ele>250.0</ele><time>2026-05-03T08:39:44.989Z</time></trkpt><trkpt lat="42.4437883" lon="12.4792117"><ele>252.0</ele><time>2026-05-03T08:39:45.99Z</time></trkpt><trkpt lat="42.44363" lon="12.4790883"><ele>252.33333333333331</ele><time>2026-05-03T08:39:46.987Z</time></trkpt><trkpt lat="42.4434733" lon="12.4789667"><ele>252.66666666666666</ele><time>2026-05-03T08:39:47.991Z</time></trkpt><trkpt lat="42.4433133" lon="12.4788433"><ele>253.0</ele><time>2026-05-03T08:39:48.987Z</time></trkpt><trkpt lat="42.4431483" lon="12.4787183"><ele>254.0</ele><time>2026-05-03T08:39:49.989Z</time></trkpt><trkpt lat="42.44298" lon="12.47859"><ele>255.0</ele><time>2026-05-03T08:39:50.986Z</time></trkpt><trkpt lat="42.4428117" lon="12.4784583"><ele>256.0</ele><time>2026-05-03T08:39:51.985Z</time></trkpt><trkpt lat="42.44265" lon="12.47833"><ele>253.66666666666666</ele><time>2026-05-03T08:39:52.99Z</time></trkpt><trkpt lat="42.4424883" lon="12.4782117"><ele>251.33333333333331</ele><time>2026-05-03T08:39:53.988Z</time></trkpt><trkpt lat="42.442325" lon="12.4781083"><ele>249.0</ele><time>2026-05-03T08:39:54.989Z</time></trkpt><trkpt lat="42.4421633" lon="12.47802"><ele>247.33333333333331</ele><time>2026-05-03T08:39:55.987Z</time></trkpt><trkpt lat="42.4420067" lon="12.4779517"><ele>245.66666666666666</ele><time>2026-05-03T08:39:56.993Z</time></trkpt><trkpt lat="42.441855" lon="12.477905"><ele>244.0</ele><time>2026-05-03T08:39:57.989Z</time></trkpt><trkpt lat="42.44171" lon="12.4778883"><ele>244.0</ele><time>2026-05-03T08:39:58.988Z</time></trkpt><trkpt lat="42.441565" lon="12.477915"><ele>244.0</ele><time>2026-05-03T08:39:59.988Z</time></trkpt><trkpt lat="42.44142" lon="12.4779867"><ele>244.0</ele><time>2026-05-03T08:40:00.991Z</time></trkpt><trkpt lat="42.4412767" lon="12.4780767"><ele>246.33333333333331</ele><time>2026-05-03T08:40:01.99Z</time></trkpt><trkpt lat="42.4411333" lon="12.4781783"><ele>248.66666666666669</ele><time>2026-05-03T08:40:02.989Z</time></trkpt><trkpt lat="42.4409917" lon="12.4782783"><ele>251.0</ele><time>2026-05-03T08:40:03.987Z</time></trkpt><trkpt lat="42.440855" lon="12.4783833"><ele>251.0</ele><time>2026-05-03T08:40:04.985Z</time></trkpt><trkpt lat="42.4407217" lon="12.4785067"><ele>251.0</ele><time>2026-05-03T08:40:05.988Z</time></trkpt><trkpt lat="42.4405917" lon="12.4786533"><ele>251.0</ele><time>2026-05-03T08:40:06.99Z</time></trkpt><trkpt lat="42.4404683" lon="12.4788183"><ele>246.0</ele><time>2026-05-03T08:40:07.988Z</time></trkpt><trkpt lat="42.440345" lon="12.479"><ele>241.0</ele><time>2026-05-03T08:40:08.991Z</time></trkpt><trkpt lat="42.4402233" lon="12.479195"><ele>236.0</ele><time>2026-05-03T08:40:09.986Z</time></trkpt><trkpt lat="42.440105" lon="12.4794033"><ele>233.66666666666669</ele><time>2026-05-03T08:40:10.986Z</time></trkpt><trkpt lat="42.4399833" lon="12.479615"><ele>231.33333333333331</ele><time>2026-05-03T08:40:11.984Z</time></trkpt><trkpt lat="42.4398583" lon="12.4798167"><ele>229.0</ele><time>2026-05-03T08:40:12.989Z</time></trkpt><trkpt lat="42.4397283" lon="12.4800067"><ele>228.66666666666666</ele><time>2026-05-03T08:40:13.983Z</time></trkpt><trkpt lat="42.43959" lon="12.4801733"><ele>228.33333333333331</ele><time>2026-05-03T08:40:14.987Z</time></trkpt><trkpt lat="42.4394417" lon="12.4803167"><ele>228.0</ele><time>2026-05-03T08:40:15.99Z</time></trkpt><trkpt lat="42.439285" lon="12.48044"><ele>228.0</ele><time>2026-05-03T08:40:16.987Z</time></trkpt><trkpt lat="42.4391217" lon="12.4805483"><ele>228.0</ele><time>2026-05-03T08:40:17.993Z</time></trkpt><trkpt lat="42.4389683" lon="12.48066"><ele>228.0</ele><time>2026-05-03T08:40:18.989Z</time></trkpt><trkpt lat="42.4388283" lon="12.480795"><ele>223.33333333333331</ele><time>2026-05-03T08:40:19.989Z</time></trkpt><trkpt lat="42.4387017" lon="12.4809583"><ele>218.66666666666666</ele><time>2026-05-03T08:40:20.99Z</time></trkpt><trkpt lat="42.4385883" lon="12.4811517"><ele>214.0</ele><time>2026-05-03T08:40:21.988Z</time></trkpt><trkpt lat="42.4384767" lon="12.4813667"><ele>214.0</ele><time>2026-05-03T08:40:22.988Z</time></trkpt><trkpt lat="42.4383667" lon="12.481595"><ele>214.0</ele><time>2026-05-03T08:40:23.99Z</time></trkpt><trkpt lat="42.43825" lon="12.4818267"><ele>214.0</ele><time>2026-05-03T08:40:24.988Z</time></trkpt><trkpt lat="42.43813" lon="12.4820533"><ele>213.33333333333331</ele><time>2026-05-03T08:40:25.991Z</time></trkpt><trkpt lat="42.4380133" lon="12.482265"><ele>212.66666666666669</ele><time>2026-05-03T08:40:26.992Z</time></trkpt><trkpt lat="42.4378833" lon="12.4824583"><ele>212.0</ele><time>2026-05-03T08:40:27.99Z</time></trkpt><trkpt lat="42.43774" lon="12.4826317"><ele>210.0</ele><time>2026-05-03T08:40:28.99Z</time></trkpt><trkpt lat="42.437585" lon="12.4827917"><ele>208.0</ele><time>2026-05-03T08:40:29.987Z</time></trkpt><trkpt lat="42.437425" lon="12.4829433"><ele>206.0</ele><time>2026-05-03T08:40:30.987Z</time></trkpt><trkpt lat="42.4372633" lon="12.4830917"><ele>205.66666666666669</ele><time>2026-05-03T08:40:32.001Z</time></trkpt><trkpt lat="42.437095" lon="12.4832367"><ele>205.33333333333331</ele><time>2026-05-03T08:40:32.984Z</time></trkpt><trkpt lat="42.4369233" lon="12.48338"><ele>205.0</ele><time>2026-05-03T08:40:33.986Z</time></trkpt><trkpt lat="42.4367533" lon="12.483525"><ele>205.0</ele><time>2026-05-03T08:40:34.989Z</time></trkpt><trkpt lat="42.4365833" lon="12.48366"><ele>205.0</ele><time>2026-05-03T08:40:35.989Z</time></trkpt><trkpt lat="42.436415" lon="12.48379"><ele>205.0</ele><time>2026-05-03T08:40:36.986Z</time></trkpt><trkpt lat="42.43625" lon="12.4839033"><ele>203.66666666666666</ele><time>2026-05-03T08:40:37.991Z</time></trkpt><trkpt lat="42.4360767" lon="12.484005"><ele>202.33333333333331</ele><time>2026-05-03T08:40:38.999Z</time></trkpt><trkpt lat="42.4358967" lon="12.4840883"><ele>201.0</ele><time>2026-05-03T08:40:39.987Z</time></trkpt><trkpt lat="42.4357133" lon="12.484155"><ele>201.0</ele><time>2026-05-03T08:40:40.991Z</time></trkpt><trkpt lat="42.435525" lon="12.4842033"><ele>201.0</ele><time>2026-05-03T08:40:41.996Z</time></trkpt><trkpt lat="42.4353317" lon="12.484235"><ele>201.0</ele><time>2026-05-03T08:40:42.987Z</time></trkpt><trkpt lat="42.4351367" lon="12.4842467"><ele>200.0</ele><time>2026-05-03T08:40:43.988Z</time></trkpt><trkpt lat="42.43494" lon="12.4842383"><ele>199.0</ele><time>2026-05-03T08:40:44.988Z</time></trkpt><trkpt lat="42.4347433" lon="12.48421"><ele>198.0</ele><time>2026-05-03T08:40:45.983Z</time></trkpt><trkpt lat="42.4345417" lon="12.484175"><ele>196.33333333333331</ele><time>2026-05-03T08:40:46.994Z</time></trkpt><trkpt lat="42.434335" lon="12.4841417"><ele>194.66666666666666</ele><time>2026-05-03T08:40:47.993Z</time></trkpt><trkpt lat="42.43413" lon="12.4841067"><ele>193.0</ele><time>2026-05-03T08:40:48.988Z</time></trkpt><trkpt lat="42.4339217" lon="12.4840717"><ele>190.0</ele><time>2026-05-03T08:40:49.992Z</time></trkpt><trkpt lat="42.4337133" lon="12.4840333"><ele>187.0</ele><time>2026-05-03T08:40:50.989Z</time></trkpt><trkpt lat="42.433505" lon="12.4839867"><ele>184.0</ele><time>2026-05-03T08:40:51.99Z</time></trkpt><trkpt lat="42.4333" lon="12.4839283"><ele>184.0</ele><time>2026-05-03T08:40:52.99Z</time></trkpt><trkpt lat="42.4330983" lon="12.483855"><ele>184.0</ele><time>2026-05-03T08:40:53.989Z</time></trkpt><trkpt lat="42.4329033" lon="12.4837683"><ele>184.0</ele><time>2026-05-03T08:40:54.991Z</time></trkpt><trkpt lat="42.4327117" lon="12.4836733"><ele>183.0</ele><time>2026-05-03T08:40:55.992Z</time></trkpt><trkpt lat="42.4325217" lon="12.4835783"><ele>182.0</ele><time>2026-05-03T08:40:56.988Z</time></trkpt><trkpt lat="42.4323317" lon="12.4834867"><ele>181.0</ele><time>2026-05-03T08:40:57.99Z</time></trkpt><trkpt lat="42.4321367" lon="12.4834133"><ele>180.33333333333334</ele><time>2026-05-03T08:40:58.988Z</time></trkpt><trkpt lat="42.4319433" lon="12.4833683"><ele>179.66666666666666</ele><time>2026-05-03T08:40:59.991Z</time></trkpt><trkpt lat="42.4317583" lon="12.48334"><ele>179.0</ele><time>2026-05-03T08:41:00.986Z</time></trkpt><trkpt lat="42.4315783" lon="12.483315"><ele>179.0</ele><time>2026-05-03T08:41:01.989Z</time></trkpt><trkpt lat="42.431405" lon="12.483265"><ele>179.0</ele><time>2026-05-03T08:41:02.989Z</time></trkpt><trkpt lat="42.431235" lon="12.4831833"><ele>179.0</ele><time>2026-05-03T08:41:03.985Z</time></trkpt><trkpt lat="42.4310717" lon="12.483065"><ele>177.0</ele><time>2026-05-03T08:41:04.982Z</time></trkpt><trkpt lat="42.43091" lon="12.48292"><ele>175.0</ele><time>2026-05-03T08:41:05.991Z</time></trkpt><trkpt lat="42.4307517" lon="12.482765"><ele>173.0</ele><time>2026-05-03T08:41:06.983Z</time></trkpt><trkpt lat="42.4305967" lon="12.4826217"><ele>172.33333333333331</ele><time>2026-05-03T08:41:07.987Z</time></trkpt><trkpt lat="42.4304367" lon="12.4825033"><ele>171.66666666666666</ele><time>2026-05-03T08:41:08.99Z</time></trkpt><trkpt lat="42.43027" lon="12.4824117"><ele>171.0</ele><time>2026-05-03T08:41:09.988Z</time></trkpt><trkpt lat="42.4300917" lon="12.4823483"><ele>171.0</ele><time>2026-05-03T08:41:10.991Z</time></trkpt><trkpt lat="42.4299033" lon="12.4823217"><ele>171.0</ele><time>2026-05-03T08:41:11.994Z</time></trkpt><trkpt lat="42.4297067" lon="12.4823083"><ele>171.0</ele><time>2026-05-03T08:41:12.99Z</time></trkpt><trkpt lat="42.4295133" lon="12.4822933"><ele>171.66666666666666</ele><time>2026-05-03T08:41:13.992Z</time></trkpt><trkpt lat="42.4293283" lon="12.4822633"><ele>172.33333333333331</ele><time>2026-05-03T08:41:14.989Z</time></trkpt><trkpt lat="42.429155" lon="12.4822167"><ele>173.0</ele><time>2026-05-03T08:41:15.992Z</time></trkpt><trkpt lat="42.4289917" lon="12.48215"><ele>171.66666666666666</ele><time>2026-05-03T08:41:16.989Z</time></trkpt><trkpt lat="42.4288383" lon="12.4820617"><ele>170.33333333333334</ele><time>2026-05-03T08:41:17.991Z</time></trkpt><trkpt lat="42.42869" lon="12.4819433"><ele>169.0</ele><time>2026-05-03T08:41:18.988Z</time></trkpt><trkpt lat="42.4285433" lon="12.48181"><ele>172.33333333333334</ele><time>2026-05-03T08:41:19.986Z</time></trkpt><trkpt lat="42.4283917" lon="12.4816733"><ele>175.66666666666666</ele><time>2026-05-03T08:41:20.99Z</time></trkpt><trkpt lat="42.4282317" lon="12.481545"><ele>179.0</ele><time>2026-05-03T08:41:21.986Z</time></trkpt><trkpt lat="42.4280667" lon="12.48142"><ele>180.0</ele><time>2026-05-03T08:41:22.987Z</time></trkpt><trkpt lat="42.4278967" lon="12.4812933"><ele>181.0</ele><time>2026-05-03T08:41:23.992Z</time></trkpt><trkpt lat="42.4277183" lon="12.4811683"><ele>182.0</ele><time>2026-05-03T08:41:24.989Z</time></trkpt><trkpt lat="42.4275333" lon="12.4810367"><ele>179.66666666666666</ele><time>2026-05-03T08:41:25.992Z</time></trkpt><trkpt lat="42.42735" lon="12.480905"><ele>177.33333333333334</ele><time>2026-05-03T08:41:26.99Z</time></trkpt><trkpt lat="42.4271717" lon="12.4807833"><ele>175.0</ele><time>2026-05-03T08:41:27.982Z</time></trkpt><trkpt lat="42.4269967" lon="12.4806767"><ele>175.0</ele><time>2026-05-03T08:41:28.986Z</time></trkpt><trkpt lat="42.4268317" lon="12.4805817"><ele>175.0</ele><time>2026-05-03T08:41:29.988Z</time></trkpt><trkpt lat="42.42668" lon="12.4804983"><ele>175.0</ele><time>2026-05-03T08:41:30.988Z</time></trkpt><trkpt lat="42.4265417" lon="12.480415"><ele>176.0</ele><time>2026-05-03T08:41:31.99Z</time></trkpt><trkpt lat="42.4264217" lon="12.48032"><ele>177.0</ele><time>2026-05-03T08:41:32.989Z</time></trkpt><trkpt lat="42.426325" lon="12.4801933"><ele>178.0</ele><time>2026-05-03T08:41:33.988Z</time></trkpt><trkpt lat="42.4262483" lon="12.4800283"><ele>179.0</ele><time>2026-05-03T08:41:34.986Z</time></trkpt><trkpt lat="42.4261883" lon="12.4798333"><ele>179.0</ele><time>2026-05-03T08:41:35.982Z</time></trkpt><trkpt lat="42.4261367" lon="12.4796233"><ele>179.0</ele><time>2026-05-03T08:41:36.987Z</time></trkpt><trkpt lat="42.4260867" lon="12.4794067"><ele>179.0</ele><time>2026-05-03T08:41:37.989Z</time></trkpt><trkpt lat="42.4260367" lon="12.4791967"><ele>175.0</ele><time>2026-05-03T08:41:38.988Z</time></trkpt><trkpt lat="42.4259783" lon="12.4789917"><ele>171.0</ele><time>2026-05-03T08:41:39.989Z</time></trkpt><trkpt lat="42.4259133" lon="12.4787867"><ele>167.0</ele><time>2026-05-03T08:41:40.99Z</time></trkpt><trkpt lat="42.4258283" lon="12.4785883"><ele>168.66666666666666</ele><time>2026-05-03T08:41:41.985Z</time></trkpt><trkpt lat="42.42572" lon="12.47841"><ele>170.33333333333334</ele><time>2026-05-03T08:41:42.988Z</time></trkpt><trkpt lat="42.4255917" lon="12.4782483"><ele>172.0</ele><time>2026-05-03T08:41:43.993Z</time></trkpt><trkpt lat="42.425445" lon="12.478115"><ele>172.0</ele><time>2026-05-03T08:41:44.99Z</time></trkpt><trkpt lat="42.4252917" lon="12.4780083"><ele>172.0</ele><time>2026-05-03T08:41:45.986Z</time></trkpt><trkpt lat="42.4251483" lon="12.4779133"><ele>172.0</ele><time>2026-05-03T08:41:46.987Z</time></trkpt><trkpt lat="42.4250183" lon="12.477825"><ele>167.25</ele><time>2026-05-03T08:41:47.987Z</time></trkpt><trkpt lat="42.424905" lon="12.4777317"><ele>162.5</ele><time>2026-05-03T08:41:48.989Z</time></trkpt><trkpt lat="42.4248083" lon="12.4776133"><ele>157.75</ele><time>2026-05-03T08:41:49.986Z</time></trkpt><trkpt lat="42.42474" lon="12.4774583"><ele>153.0</ele><time>2026-05-03T08:41:50.988Z</time></trkpt><trkpt lat="42.4246883" lon="12.4772733"><ele>159.0</ele><time>2026-05-03T08:41:51.991Z</time></trkpt><trkpt lat="42.42464" lon="12.4770667"><ele>165.0</ele><time>2026-05-03T08:41:52.991Z</time></trkpt><trkpt lat="42.4245933" lon="12.476845"><ele>171.0</ele><time>2026-05-03T08:41:53.99Z</time></trkpt><trkpt lat="42.4245667" lon="12.4766083"><ele>171.0</ele><time>2026-05-03T08:41:54.987Z</time></trkpt><trkpt lat="42.42456" lon="12.476365"><ele>171.0</ele><time>2026-05-03T08:41:55.989Z</time></trkpt><trkpt lat="42.424575" lon="12.47611"><ele>171.0</ele><time>2026-05-03T08:41:56.99Z</time></trkpt><trkpt lat="42.4245883" lon="12.47585"><ele>170.0</ele><time>2026-05-03T08:41:57.988Z</time></trkpt><trkpt lat="42.4245867" lon="12.475595"><ele>169.0</ele><time>2026-05-03T08:41:58.992Z</time></trkpt><trkpt lat="42.42457" lon="12.4753483"><ele>168.0</ele><time>2026-05-03T08:41:59.985Z</time></trkpt><trkpt lat="42.4245283" lon="12.4751067"><ele>165.66666666666666</ele><time>2026-05-03T08:42:00.985Z</time></trkpt><trkpt lat="42.42446" lon="12.47487"><ele>163.33333333333331</ele><time>2026-05-03T08:42:01.988Z</time></trkpt><trkpt lat="42.424365" lon="12.4746417"><ele>161.0</ele><time>2026-05-03T08:42:02.989Z</time></trkpt><trkpt lat="42.4242567" lon="12.4744167"><ele>157.0</ele><time>2026-05-03T08:42:03.992Z</time></trkpt><trkpt lat="42.42414" lon="12.4741867"><ele>153.0</ele><time>2026-05-03T08:42:04.988Z</time></trkpt><trkpt lat="42.42403" lon="12.4739617"><ele>149.0</ele><time>2026-05-03T08:42:05.987Z</time></trkpt><trkpt lat="42.4239333" lon="12.4737533"><ele>149.0</ele><time>2026-05-03T08:42:06.985Z</time></trkpt><trkpt lat="42.4238467" lon="12.4735667"><ele>149.0</ele><time>2026-05-03T08:42:07.986Z</time></trkpt><trkpt lat="42.42376" lon="12.47341"><ele>149.0</ele><time>2026-05-03T08:42:08.99Z</time></trkpt><trkpt lat="42.4236567" lon="12.47328"><ele>149.0</ele><time>2026-05-03T08:42:09.986Z</time></trkpt><trkpt lat="42.4235417" lon="12.47318"><ele>149.0</ele><time>2026-05-03T08:42:10.99Z</time></trkpt><trkpt lat="42.4234" lon="12.4731267"><ele>149.0</ele><time>2026-05-03T08:42:11.989Z</time></trkpt><trkpt lat="42.42323" lon="12.47312"><ele>149.0</ele><time>2026-05-03T08:42:12.985Z</time></trkpt><trkpt lat="42.4230417" lon="12.4731433"><ele>148.66666666666666</ele><time>2026-05-03T08:42:13.985Z</time></trkpt><trkpt lat="42.4228467" lon="12.4731667"><ele>148.33333333333334</ele><time>2026-05-03T08:42:14.985Z</time></trkpt><trkpt lat="42.4226517" lon="12.4731833"><ele>148.0</ele><time>2026-05-03T08:42:15.988Z</time></trkpt><trkpt lat="42.4224717" lon="12.4731983"><ele>148.0</ele><time>2026-05-03T08:42:16.987Z</time></trkpt><trkpt lat="42.4223117" lon="12.4732217"><ele>148.0</ele><time>2026-05-03T08:42:17.981Z</time></trkpt><trkpt lat="42.4221633" lon="12.4732683"><ele>148.0</ele><time>2026-05-03T08:42:19Z</time></trkpt><trkpt lat="42.42202" lon="12.47336"><ele>146.0</ele><time>2026-05-03T08:42:19.99Z</time></trkpt><trkpt lat="42.4218883" lon="12.473505"><ele>144.0</ele><time>2026-05-03T08:42:20.992Z</time></trkpt><trkpt lat="42.4217567" lon="12.4736833"><ele>142.0</ele><time>2026-05-03T08:42:21.984Z</time></trkpt><trkpt lat="42.4216267" lon="12.4738717"><ele>142.0</ele><time>2026-05-03T08:42:22.989Z</time></trkpt><trkpt lat="42.4215" lon="12.47406"><ele>142.0</ele><time>2026-05-03T08:42:23.986Z</time></trkpt><trkpt lat="42.4213783" lon="12.4742367"><ele>142.0</ele><time>2026-05-03T08:42:24.987Z</time></trkpt><trkpt lat="42.4212633" lon="12.4743967"><ele>143.0</ele><time>2026-05-03T08:42:25.997Z</time></trkpt><trkpt lat="42.4211483" lon="12.47453"><ele>144.0</ele><time>2026-05-03T08:42:26.989Z</time></trkpt><trkpt lat="42.4210233" lon="12.47462"><ele>145.0</ele><time>2026-05-03T08:42:27.996Z</time></trkpt><trkpt lat="42.4208833" lon="12.4746583"><ele>146.0</ele><time>2026-05-03T08:42:28.988Z</time></trkpt><trkpt lat="42.42073" lon="12.4746483"><ele>146.0</ele><time>2026-05-03T08:42:29.987Z</time></trkpt><trkpt lat="42.4205633" lon="12.4746117"><ele>146.0</ele><time>2026-05-03T08:42:30.988Z</time></trkpt><trkpt lat="42.420385" lon="12.474565"><ele>146.0</ele><time>2026-05-03T08:42:31.988Z</time></trkpt><trkpt lat="42.420195" lon="12.4745117"><ele>142.66666666666666</ele><time>2026-05-03T08:42:32.986Z</time></trkpt><trkpt lat="42.4199967" lon="12.4744567"><ele>139.33333333333334</ele><time>2026-05-03T08:42:33.984Z</time></trkpt><trkpt lat="42.4197933" lon="12.474395"><ele>136.0</ele><time>2026-05-03T08:42:34.99Z</time></trkpt><trkpt lat="42.419585" lon="12.4743333"><ele>136.0</ele><time>2026-05-03T08:42:35.987Z</time></trkpt><trkpt lat="42.4193717" lon="12.47427"><ele>136.0</ele><time>2026-05-03T08:42:36.989Z</time></trkpt><trkpt lat="42.4191533" lon="12.474205"><ele>136.0</ele><time>2026-05-03T08:42:37.988Z</time></trkpt><trkpt lat="42.4189333" lon="12.4741417"><ele>138.66666666666669</ele><time>2026-05-03T08:42:38.986Z</time></trkpt><trkpt lat="42.41872" lon="12.4740817"><ele>141.33333333333334</ele><time>2026-05-03T08:42:39.991Z</time></trkpt><trkpt lat="42.41851" lon="12.47402"><ele>144.0</ele><time>2026-05-03T08:42:40.989Z</time></trkpt><trkpt lat="42.4183067" lon="12.4739583"><ele>144.0</ele><time>2026-05-03T08:42:41.989Z</time></trkpt><trkpt lat="42.4181067" lon="12.4738983"><ele>144.0</ele><time>2026-05-03T08:42:42.99Z</time></trkpt><trkpt lat="42.417905" lon="12.4738283"><ele>144.0</ele><time>2026-05-03T08:42:43.994Z</time></trkpt><trkpt lat="42.4177083" lon="12.4737517"><ele>140.0</ele><time>2026-05-03T08:42:44.987Z</time></trkpt><trkpt lat="42.4175167" lon="12.473665"><ele>136.0</ele><time>2026-05-03T08:42:45.985Z</time></trkpt><trkpt lat="42.4173283" lon="12.4735767"><ele>132.0</ele><time>2026-05-03T08:42:46.99Z</time></trkpt><trkpt lat="42.4171367" lon="12.473485"><ele>131.66666666666666</ele><time>2026-05-03T08:42:47.991Z</time></trkpt><trkpt lat="42.4169383" lon="12.473385"><ele>131.33333333333331</ele><time>2026-05-03T08:42:48.988Z</time></trkpt><trkpt lat="42.416735" lon="12.4732867"><ele>131.0</ele><time>2026-05-03T08:42:49.997Z</time></trkpt><trkpt lat="42.41653" lon="12.473185"><ele>131.0</ele><time>2026-05-03T08:42:50.987Z</time></trkpt><trkpt lat="42.416325" lon="12.4730833"><ele>131.0</ele><time>2026-05-03T08:42:51.989Z</time></trkpt><trkpt lat="42.4161183" lon="12.4729883"><ele>131.0</ele><time>2026-05-03T08:42:52.989Z</time></trkpt><trkpt lat="42.4159133" lon="12.4729017"><ele>127.0</ele><time>2026-05-03T08:42:53.982Z</time></trkpt><trkpt lat="42.415705" lon="12.4728317"><ele>123.0</ele><time>2026-05-03T08:42:54.987Z</time></trkpt><trkpt lat="42.41549" lon="12.4727667"><ele>119.0</ele><time>2026-05-03T08:42:55.989Z</time></trkpt><trkpt lat="42.41527" lon="12.47271"><ele>118.0</ele><time>2026-05-03T08:42:56.986Z</time></trkpt><trkpt lat="42.4150483" lon="12.47265"><ele>117.0</ele><time>2026-05-03T08:42:57.993Z</time></trkpt><trkpt lat="42.4148217" lon="12.4725883"><ele>115.0</ele><time>2026-05-03T08:42:58.987Z</time></trkpt><trkpt lat="42.414595" lon="12.4725233"><ele>113.0</ele><time>2026-05-03T08:42:59.986Z</time></trkpt><trkpt lat="42.4143733" lon="12.472465"><ele>113.0</ele><time>2026-05-03T08:43:00.986Z</time></trkpt><trkpt lat="42.4141517" lon="12.4724033"><ele>113.0</ele><time>2026-05-03T08:43:01.987Z</time></trkpt><trkpt lat="42.4139317" lon="12.47234"><ele>112.0</ele><time>2026-05-03T08:43:02.985Z</time></trkpt><trkpt lat="42.4137083" lon="12.4722817"><ele>111.0</ele><time>2026-05-03T08:43:03.988Z</time></trkpt><trkpt lat="42.4134817" lon="12.472225"><ele>111.0</ele><time>2026-05-03T08:43:04.985Z</time></trkpt><trkpt lat="42.413255" lon="12.472165"><ele>111.0</ele><time>2026-05-03T08:43:05.987Z</time></trkpt><trkpt lat="42.4130317" lon="12.4721033"><ele>108.66666666666666</ele><time>2026-05-03T08:43:06.983Z</time></trkpt><trkpt lat="42.4128183" lon="12.4720383"><ele>106.33333333333333</ele><time>2026-05-03T08:43:07.995Z</time></trkpt><trkpt lat="42.4126117" lon="12.4719783"><ele>104.0</ele><time>2026-05-03T08:43:08.991Z</time></trkpt><trkpt lat="42.41241" lon="12.4719233"><ele>104.0</ele><time>2026-05-03T08:43:09.989Z</time></trkpt><trkpt lat="42.4122133" lon="12.471865"><ele>104.0</ele><time>2026-05-03T08:43:10.988Z</time></trkpt><trkpt lat="42.4120217" lon="12.47179"><ele>104.0</ele><time>2026-05-03T08:43:11.988Z</time></trkpt><trkpt lat="42.411835" lon="12.4717067"><ele>103.33333333333333</ele><time>2026-05-03T08:43:12.985Z</time></trkpt><trkpt lat="42.4116533" lon="12.4716083"><ele>102.66666666666666</ele><time>2026-05-03T08:43:13.991Z</time></trkpt><trkpt lat="42.411475" lon="12.4715067"><ele>102.0</ele><time>2026-05-03T08:43:14.989Z</time></trkpt><trkpt lat="42.4112983" lon="12.471405"><ele>101.66666666666666</ele><time>2026-05-03T08:43:15.987Z</time></trkpt><trkpt lat="42.41113" lon="12.471305"><ele>101.33333333333333</ele><time>2026-05-03T08:43:16.988Z</time></trkpt><trkpt lat="42.4109683" lon="12.4712067"><ele>101.0</ele><time>2026-05-03T08:43:17.987Z</time></trkpt><trkpt lat="42.410825" lon="12.4711117"><ele>99.0</ele><time>2026-05-03T08:43:18.987Z</time></trkpt><trkpt lat="42.4106983" lon="12.47102"><ele>97.0</ele><time>2026-05-03T08:43:19.99Z</time></trkpt><trkpt lat="42.410585" lon="12.47093"><ele>95.0</ele><time>2026-05-03T08:43:20.988Z</time></trkpt><trkpt lat="42.4104817" lon="12.4708383"><ele>93.0</ele><time>2026-05-03T08:43:21.988Z</time></trkpt><trkpt lat="42.4103867" lon="12.470745"><ele>92.5</ele><time>2026-05-03T08:43:22.99Z</time></trkpt><trkpt lat="42.4103017" lon="12.4706433"><ele>92.0</ele><time>2026-05-03T08:43:23.99Z</time></trkpt><trkpt lat="42.41022" lon="12.4705367"><ele>91.5</ele><time>2026-05-03T08:43:24.989Z</time></trkpt><trkpt lat="42.4101383" lon="12.47042"><ele>91.0</ele><time>2026-05-03T08:43:25.993Z</time></trkpt><trkpt lat="42.4100533" lon="12.470295"><ele>91.0</ele><time>2026-05-03T08:43:26.992Z</time></trkpt><trkpt lat="42.4099633" lon="12.4701633"><ele>91.0</ele><time>2026-05-03T08:43:27.987Z</time></trkpt><trkpt lat="42.40987" lon="12.470025"><ele>91.0</ele><time>2026-05-03T08:43:28.988Z</time></trkpt><trkpt lat="42.40977" lon="12.4698833"><ele>91.0</ele><time>2026-05-03T08:43:29.992Z</time></trkpt><trkpt lat="42.4096617" lon="12.469745"><ele>91.25</ele><time>2026-05-03T08:43:30.988Z</time></trkpt><trkpt lat="42.4095567" lon="12.4696"><ele>91.5</ele><time>2026-05-03T08:43:31.987Z</time></trkpt><trkpt lat="42.409455" lon="12.4694533"><ele>91.75</ele><time>2026-05-03T08:43:32.99Z</time></trkpt><trkpt lat="42.409355" lon="12.4693133"><ele>92.0</ele><time>2026-05-03T08:43:33.985Z</time></trkpt><trkpt lat="42.4092583" lon="12.4691733"><ele>92.0</ele><time>2026-05-03T08:43:34.987Z</time></trkpt><trkpt lat="42.4091617" lon="12.4690367"><ele>92.0</ele><time>2026-05-03T08:43:35.99Z</time></trkpt><trkpt lat="42.409065" lon="12.4688983"><ele>92.0</ele><time>2026-05-03T08:43:36.992Z</time></trkpt><trkpt lat="42.4089683" lon="12.46876"><ele>92.0</ele><time>2026-05-03T08:43:37.991Z</time></trkpt><trkpt lat="42.40887" lon="12.4686183"><ele>92.25</ele><time>2026-05-03T08:43:38.989Z</time></trkpt><trkpt lat="42.4087717" lon="12.468475"><ele>92.5</ele><time>2026-05-03T08:43:39.989Z</time></trkpt><trkpt lat="42.40867" lon="12.4683317"><ele>92.75</ele><time>2026-05-03T08:43:40.99Z</time></trkpt><trkpt lat="42.40857" lon="12.46819"><ele>93.0</ele><time>2026-05-03T08:43:41.987Z</time></trkpt><trkpt lat="42.4084733" lon="12.4680517"><ele>93.25</ele><time>2026-05-03T08:43:42.987Z</time></trkpt><trkpt lat="42.4083783" lon="12.4679167"><ele>93.5</ele><time>2026-05-03T08:43:43.992Z</time></trkpt><trkpt lat="42.4082833" lon="12.4677817"><ele>93.75</ele><time>2026-05-03T08:43:44.998Z</time></trkpt><trkpt lat="42.4081883" lon="12.467645"><ele>94.0</ele><time>2026-05-03T08:43:45.992Z</time></trkpt><trkpt lat="42.408095" lon="12.4675083"><ele>94.0</ele><time>2026-05-03T08:43:46.992Z</time></trkpt><trkpt lat="42.4079983" lon="12.4673733"><ele>94.0</ele><time>2026-05-03T08:43:47.991Z</time></trkpt><trkpt lat="42.4079" lon="12.4672367"><ele>94.0</ele><time>2026-05-03T08:43:48.993Z</time></trkpt><trkpt lat="42.4078033" lon="12.4670983"><ele>94.0</ele><time>2026-05-03T08:43:49.99Z</time></trkpt><trkpt lat="42.40771" lon="12.4669617"><ele>93.75</ele><time>2026-05-03T08:43:50.985Z</time></trkpt><trkpt lat="42.407615" lon="12.466825"><ele>93.5</ele><time>2026-05-03T08:43:51.992Z</time></trkpt><trkpt lat="42.4075233" lon="12.4666867"><ele>93.25</ele><time>2026-05-03T08:43:52.992Z</time></trkpt><trkpt lat="42.40743" lon="12.4665517"><ele>93.0</ele><time>2026-05-03T08:43:53.994Z</time></trkpt><trkpt lat="42.4073367" lon="12.4664167"><ele>93.0</ele><time>2026-05-03T08:43:54.991Z</time></trkpt><trkpt lat="42.4072433" lon="12.4662817"><ele>93.0</ele><time>2026-05-03T08:43:55.996Z</time></trkpt><trkpt lat="42.4071483" lon="12.4661467"><ele>93.0</ele><time>2026-05-03T08:43:56.992Z</time></trkpt><trkpt lat="42.407055" lon="12.4660133"><ele>93.0</ele><time>2026-05-03T08:43:57.99Z</time></trkpt><trkpt lat="42.40696" lon="12.46588"><ele>93.25</ele><time>2026-05-03T08:43:58.992Z</time></trkpt><trkpt lat="42.4068667" lon="12.4657467"><ele>93.5</ele><time>2026-05-03T08:43:59.988Z</time></trkpt><trkpt lat="42.4067733" lon="12.4656133"><ele>93.75</ele><time>2026-05-03T08:44:00.987Z</time></trkpt><trkpt lat="42.40668" lon="12.4654817"><ele>94.0</ele><time>2026-05-03T08:44:01.984Z</time></trkpt><trkpt lat="42.406585" lon="12.46535"><ele>94.0</ele><time>2026-05-03T08:44:02.989Z</time></trkpt><trkpt lat="42.4064883" lon="12.4652183"><ele>94.0</ele><time>2026-05-03T08:44:03.991Z</time></trkpt><trkpt lat="42.4063917" lon="12.4650817"><ele>94.0</ele><time>2026-05-03T08:44:04.993Z</time></trkpt><trkpt lat="42.4062917" lon="12.4649417"><ele>94.0</ele><time>2026-05-03T08:44:05.989Z</time></trkpt><trkpt lat="42.4061917" lon="12.4647967"><ele>93.33333333333333</ele><time>2026-05-03T08:44:06.987Z</time></trkpt><trkpt lat="42.4060883" lon="12.464645"><ele>92.66666666666667</ele><time>2026-05-03T08:44:07.985Z</time></trkpt><trkpt lat="42.4059833" lon="12.4644883"><ele>92.0</ele><time>2026-05-03T08:44:08.986Z</time></trkpt><trkpt lat="42.405875" lon="12.4643233"><ele>92.0</ele><time>2026-05-03T08:44:09.99Z</time></trkpt><trkpt lat="42.4057667" lon="12.4641517"><ele>92.0</ele><time>2026-05-03T08:44:10.99Z</time></trkpt><trkpt lat="42.4056567" lon="12.4639783"><ele>92.0</ele><time>2026-05-03T08:44:11.994Z</time></trkpt><trkpt lat="42.4055517" lon="12.4638033"><ele>92.0</ele><time>2026-05-03T08:44:12.987Z</time></trkpt><trkpt lat="42.40545" lon="12.4636317"><ele>92.0</ele><time>2026-05-03T08:44:13.986Z</time></trkpt><trkpt lat="42.4053517" lon="12.4634717"><ele>92.0</ele><time>2026-05-03T08:44:14.986Z</time></trkpt><trkpt lat="42.40526" lon="12.4633183"><ele>92.0</ele><time>2026-05-03T08:44:15.988Z</time></trkpt><trkpt lat="42.4051717" lon="12.46317"><ele>92.0</ele><time>2026-05-03T08:44:16.989Z</time></trkpt><trkpt lat="42.405085" lon="12.46303"><ele>92.0</ele><time>2026-05-03T08:44:17.984Z</time></trkpt><trkpt lat="42.4050033" lon="12.4629017"><ele>92.0</ele><time>2026-05-03T08:44:18.989Z</time></trkpt><trkpt lat="42.4049217" lon="12.4627733"><ele>92.0</ele><time>2026-05-03T08:44:19.989Z</time></trkpt><trkpt lat="42.4048367" lon="12.4626467"><ele>92.0</ele><time>2026-05-03T08:44:20.993Z</time></trkpt><trkpt lat="42.4047433" lon="12.4625167"><ele>92.0</ele><time>2026-05-03T08:44:21.986Z</time></trkpt><trkpt lat="42.4046433" lon="12.4623867"><ele>92.0</ele><time>2026-05-03T08:44:22.988Z</time></trkpt><trkpt lat="42.404535" lon="12.4622517"><ele>91.66666666666667</ele><time>2026-05-03T08:44:23.994Z</time></trkpt><trkpt lat="42.4044183" lon="12.462105"><ele>91.33333333333333</ele><time>2026-05-03T08:44:24.991Z</time></trkpt><trkpt lat="42.4042933" lon="12.46196"><ele>91.0</ele><time>2026-05-03T08:44:25.987Z</time></trkpt><trkpt lat="42.40416" lon="12.4618183"><ele>91.0</ele><time>2026-05-03T08:44:26.988Z</time></trkpt><trkpt lat="42.4040283" lon="12.4616833"><ele>91.0</ele><time>2026-05-03T08:44:27.984Z</time></trkpt><trkpt lat="42.4038933" lon="12.4615517"><ele>91.0</ele><time>2026-05-03T08:44:28.99Z</time></trkpt><trkpt lat="42.4037533" lon="12.4614183"><ele>90.0</ele><time>2026-05-03T08:44:29.993Z</time></trkpt><trkpt lat="42.4036083" lon="12.461285"><ele>89.0</ele><time>2026-05-03T08:44:30.984Z</time></trkpt><trkpt lat="42.4034583" lon="12.461155"><ele>88.0</ele><time>2026-05-03T08:44:31.987Z</time></trkpt><trkpt lat="42.4033033" lon="12.46103"><ele>87.33333333333333</ele><time>2026-05-03T08:44:32.984Z</time></trkpt><trkpt lat="42.4031433" lon="12.4609017"><ele>86.66666666666667</ele><time>2026-05-03T08:44:33.987Z</time></trkpt><trkpt lat="42.4029767" lon="12.460765"><ele>86.0</ele><time>2026-05-03T08:44:34.987Z</time></trkpt><trkpt lat="42.4028067" lon="12.46062"><ele>86.0</ele><time>2026-05-03T08:44:35.992Z</time></trkpt><trkpt lat="42.402635" lon="12.4604683"><ele>86.0</ele><time>2026-05-03T08:44:36.986Z</time></trkpt><trkpt lat="42.402465" lon="12.4603167"><ele>86.0</ele><time>2026-05-03T08:44:37.986Z</time></trkpt><trkpt lat="42.4022983" lon="12.46017"><ele>79.66666666666667</ele><time>2026-05-03T08:44:38.986Z</time></trkpt><trkpt lat="42.4021383" lon="12.46003"><ele>73.33333333333333</ele><time>2026-05-03T08:44:39.987Z</time></trkpt><trkpt lat="42.4019817" lon="12.4599067"><ele>67.0</ele><time>2026-05-03T08:44:40.99Z</time></trkpt><trkpt lat="42.4018283" lon="12.459785"><ele>67.0</ele><time>2026-05-03T08:44:41.989Z</time></trkpt><trkpt lat="42.4016733" lon="12.4596833"><ele>67.0</ele><time>2026-05-03T08:44:42.987Z</time></trkpt><trkpt lat="42.4015" lon="12.4596267"><ele>67.0</ele><time>2026-05-03T08:44:43.992Z</time></trkpt><trkpt lat="42.4013083" lon="12.45961"><ele>62.666666666666664</ele><time>2026-05-03T08:44:44.985Z</time></trkpt><trkpt lat="42.401105" lon="12.4596133"><ele>58.33333333333333</ele><time>2026-05-03T08:44:45.986Z</time></trkpt><trkpt lat="42.4008917" lon="12.45963"><ele>54.0</ele><time>2026-05-03T08:44:46.988Z</time></trkpt><trkpt lat="42.40067" lon="12.459655"><ele>53.0</ele><time>2026-05-03T08:44:47.993Z</time></trkpt><trkpt lat="42.400445" lon="12.4596817"><ele>52.0</ele><time>2026-05-03T08:44:48.986Z</time></trkpt><trkpt lat="42.40022" lon="12.459715"><ele>52.0</ele><time>2026-05-03T08:44:49.992Z</time></trkpt><trkpt lat="42.3999933" lon="12.459755"><ele>52.0</ele><time>2026-05-03T08:44:50.987Z</time></trkpt><trkpt lat="42.3997683" lon="12.4598017"><ele>51.666666666666664</ele><time>2026-05-03T08:44:51.988Z</time></trkpt><trkpt lat="42.3995567" lon="12.4598533"><ele>51.33333333333333</ele><time>2026-05-03T08:44:52.986Z</time></trkpt><trkpt lat="42.39936" lon="12.459905"><ele>51.0</ele><time>2026-05-03T08:44:53.985Z</time></trkpt><trkpt lat="42.3991833" lon="12.4599633"><ele>51.0</ele><time>2026-05-03T08:44:54.986Z</time></trkpt><trkpt lat="42.3990283" lon="12.4600517"><ele>51.0</ele><time>2026-05-03T08:44:55.99Z</time></trkpt><trkpt lat="42.3988933" lon="12.460185"><ele>51.0</ele><time>2026-05-03T08:44:56.984Z</time></trkpt><trkpt lat="42.3987683" lon="12.4603567"><ele>51.66666666666667</ele><time>2026-05-03T08:44:57.986Z</time></trkpt><trkpt lat="42.3986417" lon="12.4605483"><ele>52.333333333333336</ele><time>2026-05-03T08:44:58.988Z</time></trkpt><trkpt lat="42.3985133" lon="12.46074"><ele>53.0</ele><time>2026-05-03T08:44:59.992Z</time></trkpt><trkpt lat="42.3983783" lon="12.460915"><ele>53.0</ele><time>2026-05-03T08:45:00.983Z</time></trkpt><trkpt lat="42.398235" lon="12.461075"><ele>53.0</ele><time>2026-05-03T08:45:01.988Z</time></trkpt><trkpt lat="42.398085" lon="12.4612283"><ele>53.0</ele><time>2026-05-03T08:45:02.986Z</time></trkpt><trkpt lat="42.39793" lon="12.461375"><ele>54.0</ele><time>2026-05-03T08:45:03.983Z</time></trkpt><trkpt lat="42.397775" lon="12.461525"><ele>55.0</ele><time>2026-05-03T08:45:04.985Z</time></trkpt><trkpt lat="42.3976167" lon="12.46168"><ele>56.0</ele><time>2026-05-03T08:45:05.99Z</time></trkpt><trkpt lat="42.397455" lon="12.4618417"><ele>56.0</ele><time>2026-05-03T08:45:06.983Z</time></trkpt><trkpt lat="42.3972933" lon="12.4620083"><ele>56.0</ele><time>2026-05-03T08:45:07.991Z</time></trkpt><trkpt lat="42.3971267" lon="12.46218"><ele>56.0</ele><time>2026-05-03T08:45:08.988Z</time></trkpt><trkpt lat="42.3969617" lon="12.4623533"><ele>57.66666666666667</ele><time>2026-05-03T08:45:09.991Z</time></trkpt><trkpt lat="42.3967967" lon="12.4625333"><ele>59.33333333333333</ele><time>2026-05-03T08:45:10.987Z</time></trkpt><trkpt lat="42.3966283" lon="12.4627133"><ele>61.0</ele><time>2026-05-03T08:45:12.027Z</time></trkpt><trkpt lat="42.39646" lon="12.4629"><ele>60.666666666666664</ele><time>2026-05-03T08:45:12.988Z</time></trkpt><trkpt lat="42.3962967" lon="12.46308"><ele>60.33333333333333</ele><time>2026-05-03T08:45:13.99Z</time></trkpt><trkpt lat="42.3961367" lon="12.4632567"><ele>60.0</ele><time>2026-05-03T08:45:14.988Z</time></trkpt><trkpt lat="42.3959733" lon="12.4634317"><ele>60.0</ele><time>2026-05-03T08:45:15.987Z</time></trkpt><trkpt lat="42.3958133" lon="12.4636033"><ele>60.0</ele><time>2026-05-03T08:45:16.983Z</time></trkpt><trkpt lat="42.39566" lon="12.463775"><ele>60.0</ele><time>2026-05-03T08:45:17.982Z</time></trkpt><trkpt lat="42.3955117" lon="12.463955"><ele>59.0</ele><time>2026-05-03T08:45:18.987Z</time></trkpt><trkpt lat="42.3953683" lon="12.4641433"><ele>58.0</ele><time>2026-05-03T08:45:19.989Z</time></trkpt><trkpt lat="42.395225" lon="12.46434"><ele>57.0</ele><time>2026-05-03T08:45:20.983Z</time></trkpt><trkpt lat="42.3950833" lon="12.464545"><ele>56.33333333333333</ele><time>2026-05-03T08:45:21.987Z</time></trkpt><trkpt lat="42.3949333" lon="12.4647517"><ele>55.666666666666664</ele><time>2026-05-03T08:45:22.983Z</time></trkpt><trkpt lat="42.3947783" lon="12.4649617"><ele>55.0</ele><time>2026-05-03T08:45:23.984Z</time></trkpt><trkpt lat="42.394625" lon="12.4651717"><ele>55.0</ele><time>2026-05-03T08:45:24.99Z</time></trkpt><trkpt lat="42.3944733" lon="12.4653833"><ele>55.0</ele><time>2026-05-03T08:45:25.99Z</time></trkpt><trkpt lat="42.3943217" lon="12.46559"><ele>55.0</ele><time>2026-05-03T08:45:26.987Z</time></trkpt><trkpt lat="42.3941733" lon="12.4657917"><ele>55.666666666666664</ele><time>2026-05-03T08:45:27.99Z</time></trkpt><trkpt lat="42.39403" lon="12.4659933"><ele>56.33333333333333</ele><time>2026-05-03T08:45:28.983Z</time></trkpt><trkpt lat="42.3938867" lon="12.466195"><ele>57.0</ele><time>2026-05-03T08:45:29.986Z</time></trkpt><trkpt lat="42.3937467" lon="12.4664"><ele>57.0</ele><time>2026-05-03T08:45:30.986Z</time></trkpt><trkpt lat="42.3936067" lon="12.4666067"><ele>57.0</ele><time>2026-05-03T08:45:31.988Z</time></trkpt><trkpt lat="42.3934667" lon="12.466825"><ele>57.0</ele><time>2026-05-03T08:45:32.985Z</time></trkpt><trkpt lat="42.3933283" lon="12.46705"><ele>57.0</ele><time>2026-05-03T08:45:33.987Z</time></trkpt><trkpt lat="42.3931883" lon="12.4672767"><ele>57.0</ele><time>2026-05-03T08:45:34.99Z</time></trkpt><trkpt lat="42.39305" lon="12.4674967"><ele>57.0</ele><time>2026-05-03T08:45:35.987Z</time></trkpt><trkpt lat="42.3929167" lon="12.4677167"><ele>54.33333333333333</ele><time>2026-05-03T08:45:36.989Z</time></trkpt><trkpt lat="42.3927783" lon="12.4679383"><ele>51.666666666666664</ele><time>2026-05-03T08:45:37.983Z</time></trkpt><trkpt lat="42.39264" lon="12.468155"><ele>49.0</ele><time>2026-05-03T08:45:38.991Z</time></trkpt><trkpt lat="42.3925083" lon="12.4683583"><ele>49.0</ele><time>2026-05-03T08:45:39.984Z</time></trkpt><trkpt lat="42.39239" lon="12.46854"><ele>49.0</ele><time>2026-05-03T08:45:40.992Z</time></trkpt><trkpt lat="42.39227" lon="12.4686917"><ele>49.0</ele><time>2026-05-03T08:45:41.983Z</time></trkpt><trkpt lat="42.39214" lon="12.4687967"><ele>53.33333333333333</ele><time>2026-05-03T08:45:42.983Z</time></trkpt><trkpt lat="42.3919917" lon="12.4688617"><ele>57.66666666666667</ele><time>2026-05-03T08:45:43.988Z</time></trkpt><trkpt lat="42.3918317" lon="12.4688917"><ele>62.0</ele><time>2026-05-03T08:45:44.985Z</time></trkpt><trkpt lat="42.3916567" lon="12.468905"><ele>62.0</ele><time>2026-05-03T08:45:45.983Z</time></trkpt><trkpt lat="42.391475" lon="12.46892"><ele>62.0</ele><time>2026-05-03T08:45:46.989Z</time></trkpt><trkpt lat="42.3912917" lon="12.4689433"><ele>62.0</ele><time>2026-05-03T08:45:47.986Z</time></trkpt><trkpt lat="42.3911083" lon="12.468985"><ele>60.66666666666667</ele><time>2026-05-03T08:45:48.99Z</time></trkpt><trkpt lat="42.3909217" lon="12.4690417"><ele>59.33333333333333</ele><time>2026-05-03T08:45:49.993Z</time></trkpt><trkpt lat="42.3907317" lon="12.469115"><ele>58.0</ele><time>2026-05-03T08:45:50.987Z</time></trkpt><trkpt lat="42.3905383" lon="12.4691917"><ele>56.33333333333333</ele><time>2026-05-03T08:45:51.988Z</time></trkpt><trkpt lat="42.3903383" lon="12.469265"><ele>54.66666666666667</ele><time>2026-05-03T08:45:52.989Z</time></trkpt><trkpt lat="42.3901367" lon="12.4693433"><ele>53.0</ele><time>2026-05-03T08:45:53.99Z</time></trkpt><trkpt lat="42.38993" lon="12.469425"><ele>53.0</ele><time>2026-05-03T08:45:54.985Z</time></trkpt><trkpt lat="42.38972" lon="12.4695083"><ele>53.0</ele><time>2026-05-03T08:45:55.986Z</time></trkpt><trkpt lat="42.3895117" lon="12.4695917"><ele>53.0</ele><time>2026-05-03T08:45:56.995Z</time></trkpt><trkpt lat="42.389305" lon="12.469675"><ele>55.66666666666667</ele><time>2026-05-03T08:45:57.982Z</time></trkpt><trkpt lat="42.3891" lon="12.4697583"><ele>58.33333333333333</ele><time>2026-05-03T08:45:58.994Z</time></trkpt><trkpt lat="42.3888967" lon="12.46984"><ele>61.0</ele><time>2026-05-03T08:45:59.982Z</time></trkpt><trkpt lat="42.3886933" lon="12.4699217"><ele>61.33333333333333</ele><time>2026-05-03T08:46:00.989Z</time></trkpt><trkpt lat="42.3884917" lon="12.470005"><ele>61.66666666666667</ele><time>2026-05-03T08:46:01.988Z</time></trkpt><trkpt lat="42.3882917" lon="12.4700867"><ele>62.0</ele><time>2026-05-03T08:46:02.987Z</time></trkpt><trkpt lat="42.3880933" lon="12.4701617"><ele>59.66666666666667</ele><time>2026-05-03T08:46:03.987Z</time></trkpt><trkpt lat="42.387895" lon="12.4702367"><ele>57.33333333333333</ele><time>2026-05-03T08:46:04.986Z</time></trkpt><trkpt lat="42.3876983" lon="12.4703083"><ele>55.0</ele><time>2026-05-03T08:46:05.988Z</time></trkpt><trkpt lat="42.3875017" lon="12.4703817"><ele>59.0</ele><time>2026-05-03T08:46:06.986Z</time></trkpt><trkpt lat="42.3873033" lon="12.4704567"><ele>63.0</ele><time>2026-05-03T08:46:07.988Z</time></trkpt><trkpt lat="42.3871033" lon="12.4705333"><ele>67.0</ele><time>2026-05-03T08:46:08.987Z</time></trkpt><trkpt lat="42.3869067" lon="12.4706117"><ele>67.0</ele><time>2026-05-03T08:46:09.988Z</time></trkpt><trkpt lat="42.3867083" lon="12.470695"><ele>67.0</ele><time>2026-05-03T08:46:10.991Z</time></trkpt><trkpt lat="42.3865083" lon="12.4707767"><ele>67.0</ele><time>2026-05-03T08:46:11.984Z</time></trkpt><trkpt lat="42.3863083" lon="12.4708517"><ele>65.33333333333333</ele><time>2026-05-03T08:46:12.989Z</time></trkpt><trkpt lat="42.386105" lon="12.4709283"><ele>63.66666666666667</ele><time>2026-05-03T08:46:13.989Z</time></trkpt><trkpt lat="42.3859017" lon="12.4710067"><ele>62.0</ele><time>2026-05-03T08:46:14.988Z</time></trkpt><trkpt lat="42.3856967" lon="12.471085"><ele>62.333333333333336</ele><time>2026-05-03T08:46:15.984Z</time></trkpt><trkpt lat="42.38549" lon="12.4711617"><ele>62.66666666666667</ele><time>2026-05-03T08:46:16.987Z</time></trkpt><trkpt lat="42.3852833" lon="12.4712367"><ele>63.0</ele><time>2026-05-03T08:46:17.985Z</time></trkpt><trkpt lat="42.385075" lon="12.471315"><ele>63.0</ele><time>2026-05-03T08:46:18.989Z</time></trkpt><trkpt lat="42.3848667" lon="12.4713933"><ele>63.0</ele><time>2026-05-03T08:46:19.985Z</time></trkpt><trkpt lat="42.3846617" lon="12.471475"><ele>63.0</ele><time>2026-05-03T08:46:20.988Z</time></trkpt><trkpt lat="42.384455" lon="12.4715617"><ele>62.0</ele><time>2026-05-03T08:46:21.983Z</time></trkpt><trkpt lat="42.3842533" lon="12.4716483"><ele>61.0</ele><time>2026-05-03T08:46:22.99Z</time></trkpt><trkpt lat="42.3840567" lon="12.4717417"><ele>60.0</ele><time>2026-05-03T08:46:23.986Z</time></trkpt><trkpt lat="42.3838717" lon="12.471835"><ele>60.0</ele><time>2026-05-03T08:46:24.987Z</time></trkpt><trkpt lat="42.3836967" lon="12.4719217"><ele>60.0</ele><time>2026-05-03T08:46:25.99Z</time></trkpt><trkpt lat="42.38353" lon="12.4719933"><ele>60.0</ele><time>2026-05-03T08:46:26.986Z</time></trkpt><trkpt lat="42.3833667" lon="12.4720633"><ele>62.0</ele><time>2026-05-03T08:46:27.987Z</time></trkpt><trkpt lat="42.3832" lon="12.47213"><ele>64.0</ele><time>2026-05-03T08:46:28.982Z</time></trkpt><trkpt lat="42.383035" lon="12.472195"><ele>66.0</ele><time>2026-05-03T08:46:29.988Z</time></trkpt><trkpt lat="42.382865" lon="12.472255"><ele>66.0</ele><time>2026-05-03T08:46:30.988Z</time></trkpt><trkpt lat="42.3826933" lon="12.47231"><ele>66.0</ele><time>2026-05-03T08:46:31.991Z</time></trkpt><trkpt lat="42.38252" lon="12.4723617"><ele>66.0</ele><time>2026-05-03T08:46:32.985Z</time></trkpt><trkpt lat="42.3823417" lon="12.4724083"><ele>65.0</ele><time>2026-05-03T08:46:33.986Z</time></trkpt><trkpt lat="42.3821633" lon="12.4724533"><ele>64.0</ele><time>2026-05-03T08:46:34.988Z</time></trkpt><trkpt lat="42.3819817" lon="12.472495"><ele>63.0</ele><time>2026-05-03T08:46:35.984Z</time></trkpt><trkpt lat="42.3817967" lon="12.472535"><ele>63.0</ele><time>2026-05-03T08:46:36.99Z</time></trkpt><trkpt lat="42.38161" lon="12.472575"><ele>63.0</ele><time>2026-05-03T08:46:37.99Z</time></trkpt><trkpt lat="42.3814233" lon="12.4726067"><ele>63.0</ele><time>2026-05-03T08:46:38.986Z</time></trkpt><trkpt lat="42.38124" lon="12.472635"><ele>63.66666666666667</ele><time>2026-05-03T08:46:39.986Z</time></trkpt><trkpt lat="42.3810583" lon="12.472655"><ele>64.33333333333334</ele><time>2026-05-03T08:46:40.989Z</time></trkpt><trkpt lat="42.38088" lon="12.472675"><ele>65.0</ele><time>2026-05-03T08:46:41.986Z</time></trkpt><trkpt lat="42.3806983" lon="12.47269"><ele>65.0</ele><time>2026-05-03T08:46:42.989Z</time></trkpt><trkpt lat="42.3805183" lon="12.4727033"><ele>65.0</ele><time>2026-05-03T08:46:43.981Z</time></trkpt><trkpt lat="42.3803383" lon="12.472715"><ele>65.0</ele><time>2026-05-03T08:46:44.986Z</time></trkpt><trkpt lat="42.3801567" lon="12.4727233"><ele>65.0</ele><time>2026-05-03T08:46:45.985Z</time></trkpt><trkpt lat="42.379975" lon="12.4727267"><ele>65.0</ele><time>2026-05-03T08:46:46.985Z</time></trkpt><trkpt lat="42.3797933" lon="12.472725"><ele>65.0</ele><time>2026-05-03T08:46:47.989Z</time></trkpt><trkpt lat="42.37961" lon="12.4727183"><ele>65.0</ele><time>2026-05-03T08:46:48.996Z</time></trkpt><trkpt lat="42.3794283" lon="12.4727083"><ele>65.0</ele><time>2026-05-03T08:46:49.988Z</time></trkpt><trkpt lat="42.379245" lon="12.4727067"><ele>65.0</ele><time>2026-05-03T08:46:50.984Z</time></trkpt><trkpt lat="42.379065" lon="12.4727"><ele>65.0</ele><time>2026-05-03T08:46:51.986Z</time></trkpt><trkpt lat="42.3788833" lon="12.472685"><ele>65.0</ele><time>2026-05-03T08:46:52.984Z</time></trkpt><trkpt lat="42.3787033" lon="12.472665"><ele>65.0</ele><time>2026-05-03T08:46:53.988Z</time></trkpt><trkpt lat="42.3785283" lon="12.4726417"><ele>64.0</ele><time>2026-05-03T08:46:54.989Z</time></trkpt><trkpt lat="42.3783533" lon="12.472615"><ele>63.0</ele><time>2026-05-03T08:46:55.986Z</time></trkpt><trkpt lat="42.3781733" lon="12.47258"><ele>62.0</ele><time>2026-05-03T08:46:56.993Z</time></trkpt><trkpt lat="42.3779967" lon="12.4725433"><ele>61.66666666666667</ele><time>2026-05-03T08:46:57.984Z</time></trkpt><trkpt lat="42.3778167" lon="12.472505"><ele>61.33333333333333</ele><time>2026-05-03T08:46:58.983Z</time></trkpt><trkpt lat="42.3776367" lon="12.4724633"><ele>61.0</ele><time>2026-05-03T08:46:59.984Z</time></trkpt><trkpt lat="42.3774583" lon="12.4724217"><ele>61.0</ele><time>2026-05-03T08:47:00.987Z</time></trkpt><trkpt lat="42.3772867" lon="12.4723867"><ele>61.0</ele><time>2026-05-03T08:47:01.99Z</time></trkpt><trkpt lat="42.3771167" lon="12.472355"><ele>61.0</ele><time>2026-05-03T08:47:02.991Z</time></trkpt><trkpt lat="42.3769467" lon="12.47232"><ele>60.666666666666664</ele><time>2026-05-03T08:47:03.983Z</time></trkpt><trkpt lat="42.376775" lon="12.4722867"><ele>60.33333333333333</ele><time>2026-05-03T08:47:04.983Z</time></trkpt><trkpt lat="42.3766017" lon="12.47225"><ele>60.0</ele><time>2026-05-03T08:47:05.988Z</time></trkpt><trkpt lat="42.3764283" lon="12.472215"><ele>60.66666666666667</ele><time>2026-05-03T08:47:06.994Z</time></trkpt><trkpt lat="42.376255" lon="12.47218"><ele>61.333333333333336</ele><time>2026-05-03T08:47:07.987Z</time></trkpt><trkpt lat="42.3760817" lon="12.4721417"><ele>62.0</ele><time>2026-05-03T08:47:08.988Z</time></trkpt><trkpt lat="42.3759117" lon="12.4721067"><ele>60.0</ele><time>2026-05-03T08:47:09.985Z</time></trkpt><trkpt lat="42.3757483" lon="12.4720683"><ele>58.0</ele><time>2026-05-03T08:47:10.991Z</time></trkpt><trkpt lat="42.37559" lon="12.4720333"><ele>56.0</ele><time>2026-05-03T08:47:11.984Z</time></trkpt><trkpt lat="42.3754317" lon="12.472"><ele>56.0</ele><time>2026-05-03T08:47:12.992Z</time></trkpt><trkpt lat="42.3752783" lon="12.4719667"><ele>56.0</ele><time>2026-05-03T08:47:13.989Z</time></trkpt><trkpt lat="42.375125" lon="12.4719317"><ele>56.0</ele><time>2026-05-03T08:47:14.992Z</time></trkpt><trkpt lat="42.3749717" lon="12.4718967"><ele>56.0</ele><time>2026-05-03T08:47:15.991Z</time></trkpt><trkpt lat="42.3748217" lon="12.4718633"><ele>56.0</ele><time>2026-05-03T08:47:16.993Z</time></trkpt><trkpt lat="42.3746717" lon="12.4718283"><ele>56.0</ele><time>2026-05-03T08:47:17.99Z</time></trkpt><trkpt lat="42.3745233" lon="12.4717983"><ele>56.5</ele><time>2026-05-03T08:47:18.994Z</time></trkpt><trkpt lat="42.374375" lon="12.4717683"><ele>57.0</ele><time>2026-05-03T08:47:19.988Z</time></trkpt><trkpt lat="42.3742267" lon="12.47174"><ele>57.5</ele><time>2026-05-03T08:47:20.985Z</time></trkpt><trkpt lat="42.3740817" lon="12.47171"><ele>58.0</ele><time>2026-05-03T08:47:21.983Z</time></trkpt><trkpt lat="42.37394" lon="12.4716833"><ele>58.75</ele><time>2026-05-03T08:47:22.996Z</time></trkpt><trkpt lat="42.3738033" lon="12.471655"><ele>59.5</ele><time>2026-05-03T08:47:23.988Z</time></trkpt><trkpt lat="42.3736667" lon="12.471625"><ele>60.25</ele><time>2026-05-03T08:47:24.989Z</time></trkpt><trkpt lat="42.3735317" lon="12.4715967"><ele>61.0</ele><time>2026-05-03T08:47:25.988Z</time></trkpt><trkpt lat="42.373395" lon="12.4715683"><ele>61.0</ele><time>2026-05-03T08:47:26.987Z</time></trkpt><trkpt lat="42.3732583" lon="12.471535"><ele>61.0</ele><time>2026-05-03T08:47:27.986Z</time></trkpt><trkpt lat="42.3731167" lon="12.471505"><ele>61.0</ele><time>2026-05-03T08:47:28.984Z</time></trkpt><trkpt lat="42.372975" lon="12.4714767"><ele>61.0</ele><time>2026-05-03T08:47:29.984Z</time></trkpt><trkpt lat="42.3728367" lon="12.47145"><ele>60.75</ele><time>2026-05-03T08:47:30.986Z</time></trkpt><trkpt lat="42.3726983" lon="12.4714217"><ele>60.5</ele><time>2026-05-03T08:47:31.985Z</time></trkpt><trkpt lat="42.3725567" lon="12.471395"><ele>60.25</ele><time>2026-05-03T08:47:32.986Z</time></trkpt><trkpt lat="42.37241" lon="12.4713717"><ele>60.0</ele><time>2026-05-03T08:47:33.984Z</time></trkpt><trkpt lat="42.37226" lon="12.4713617"><ele>59.5</ele><time>2026-05-03T08:47:34.983Z</time></trkpt><trkpt lat="42.372115" lon="12.4713567"><ele>59.0</ele><time>2026-05-03T08:47:35.983Z</time></trkpt><trkpt lat="42.3719667" lon="12.471365"><ele>58.5</ele><time>2026-05-03T08:47:36.993Z</time></trkpt><trkpt lat="42.3718267" lon="12.4713833"><ele>58.0</ele><time>2026-05-03T08:47:37.986Z</time></trkpt><trkpt lat="42.371695" lon="12.4714083"><ele>58.0</ele><time>2026-05-03T08:47:38.981Z</time></trkpt><trkpt lat="42.3715683" lon="12.4714383"><ele>58.0</ele><time>2026-05-03T08:47:39.986Z</time></trkpt><trkpt lat="42.3714417" lon="12.47147"><ele>58.0</ele><time>2026-05-03T08:47:40.988Z</time></trkpt><trkpt lat="42.37131" lon="12.4714983"><ele>58.0</ele><time>2026-05-03T08:47:41.995Z</time></trkpt><trkpt lat="42.371175" lon="12.47152"><ele>57.5</ele><time>2026-05-03T08:47:42.985Z</time></trkpt><trkpt lat="42.3710333" lon="12.4715417"><ele>57.0</ele><time>2026-05-03T08:47:43.985Z</time></trkpt><trkpt lat="42.37089" lon="12.4715517"><ele>56.5</ele><time>2026-05-03T08:47:44.985Z</time></trkpt><trkpt lat="42.3707517" lon="12.4715467"><ele>56.0</ele><time>2026-05-03T08:47:45.987Z</time></trkpt><trkpt lat="42.37062" lon="12.4715317"><ele>55.5</ele><time>2026-05-03T08:47:46.99Z</time></trkpt><trkpt lat="42.3704933" lon="12.4715067"><ele>55.0</ele><time>2026-05-03T08:47:47.992Z</time></trkpt><trkpt lat="42.3703717" lon="12.4714717"><ele>54.5</ele><time>2026-05-03T08:47:48.987Z</time></trkpt><trkpt lat="42.3702633" lon="12.4714317"><ele>54.0</ele><time>2026-05-03T08:47:49.987Z</time></trkpt><trkpt lat="42.3701633" lon="12.4713983"><ele>54.0</ele><time>2026-05-03T08:47:50.99Z</time></trkpt><trkpt lat="42.3700683" lon="12.47137"><ele>54.00000000000001</ele><time>2026-05-03T08:47:51.986Z</time></trkpt><trkpt lat="42.3699767" lon="12.4713367"><ele>54.00000000000001</ele><time>2026-05-03T08:47:52.991Z</time></trkpt><trkpt lat="42.3698833" lon="12.4713017"><ele>54.0</ele><time>2026-05-03T08:47:53.984Z</time></trkpt><trkpt lat="42.3697817" lon="12.4712667"><ele>54.0</ele><time>2026-05-03T08:47:54.989Z</time></trkpt><trkpt lat="42.3696733" lon="12.4712283"><ele>52.75</ele><time>2026-05-03T08:47:55.99Z</time></trkpt><trkpt lat="42.3695583" lon="12.4711817"><ele>51.5</ele><time>2026-05-03T08:47:56.988Z</time></trkpt><trkpt lat="42.3694417" lon="12.4711233"><ele>50.25</ele><time>2026-05-03T08:47:57.993Z</time></trkpt><trkpt lat="42.3693267" lon="12.4710583"><ele>49.0</ele><time>2026-05-03T08:47:58.991Z</time></trkpt><trkpt lat="42.36921" lon="12.47099"><ele>49.0</ele><time>2026-05-03T08:47:59.985Z</time></trkpt><trkpt lat="42.3690883" lon="12.470925"><ele>49.0</ele><time>2026-05-03T08:48:00.986Z</time></trkpt><trkpt lat="42.368965" lon="12.470855"><ele>49.0</ele><time>2026-05-03T08:48:01.987Z</time></trkpt><trkpt lat="42.3688383" lon="12.4707817"><ele>49.0</ele><time>2026-05-03T08:48:02.988Z</time></trkpt><trkpt lat="42.3687117" lon="12.4707067"><ele>48.75</ele><time>2026-05-03T08:48:03.987Z</time></trkpt><trkpt lat="42.36858" lon="12.4706367"><ele>48.5</ele><time>2026-05-03T08:48:04.988Z</time></trkpt><trkpt lat="42.3684533" lon="12.47057"><ele>48.25</ele><time>2026-05-03T08:48:05.987Z</time></trkpt><trkpt lat="42.3683267" lon="12.4705033"><ele>48.0</ele><time>2026-05-03T08:48:06.987Z</time></trkpt><trkpt lat="42.3681967" lon="12.4704417"><ele>48.0</ele><time>2026-05-03T08:48:07.994Z</time></trkpt><trkpt lat="42.36806" lon="12.470385"><ele>48.0</ele><time>2026-05-03T08:48:08.986Z</time></trkpt><trkpt lat="42.3679183" lon="12.470325"><ele>48.0</ele><time>2026-05-03T08:48:09.987Z</time></trkpt><trkpt lat="42.3677733" lon="12.4702617"><ele>48.0</ele><time>2026-05-03T08:48:10.988Z</time></trkpt><trkpt lat="42.3676217" lon="12.4702"><ele>47.666666666666664</ele><time>2026-05-03T08:48:11.988Z</time></trkpt><trkpt lat="42.36747" lon="12.4701417"><ele>47.33333333333333</ele><time>2026-05-03T08:48:12.989Z</time></trkpt><trkpt lat="42.3673183" lon="12.4700817"><ele>47.0</ele><time>2026-05-03T08:48:13.989Z</time></trkpt><trkpt lat="42.3671667" lon="12.4700217"><ele>46.0</ele><time>2026-05-03T08:48:14.988Z</time></trkpt><trkpt lat="42.367015" lon="12.4699617"><ele>45.0</ele><time>2026-05-03T08:48:15.993Z</time></trkpt><trkpt lat="42.3668633" lon="12.4699017"><ele>44.0</ele><time>2026-05-03T08:48:16.987Z</time></trkpt><trkpt lat="42.3667133" lon="12.46984"><ele>44.0</ele><time>2026-05-03T08:48:17.989Z</time></trkpt><trkpt lat="42.366565" lon="12.469775"><ele>44.0</ele><time>2026-05-03T08:48:18.989Z</time></trkpt><trkpt lat="42.3664183" lon="12.4697083"><ele>44.0</ele><time>2026-05-03T08:48:19.986Z</time></trkpt><trkpt lat="42.3662717" lon="12.4696417"><ele>43.0</ele><time>2026-05-03T08:48:20.985Z</time></trkpt><trkpt lat="42.3661267" lon="12.469575"><ele>42.0</ele><time>2026-05-03T08:48:21.988Z</time></trkpt><trkpt lat="42.36598" lon="12.4695067"><ele>41.0</ele><time>2026-05-03T08:48:22.985Z</time></trkpt><trkpt lat="42.36583" lon="12.46943"><ele>41.0</ele><time>2026-05-03T08:48:23.986Z</time></trkpt><trkpt lat="42.3656767" lon="12.4693483"><ele>41.0</ele><time>2026-05-03T08:48:24.988Z</time></trkpt><trkpt lat="42.3655167" lon="12.469265"><ele>41.0</ele><time>2026-05-03T08:48:25.984Z</time></trkpt><trkpt lat="42.3653483" lon="12.4691733"><ele>40.33333333333333</ele><time>2026-05-03T08:48:26.987Z</time></trkpt><trkpt lat="42.3651733" lon="12.4690767"><ele>39.666666666666664</ele><time>2026-05-03T08:48:27.989Z</time></trkpt><trkpt lat="42.3649933" lon="12.46898"><ele>39.0</ele><time>2026-05-03T08:48:28.984Z</time></trkpt><trkpt lat="42.3648083" lon="12.4688833"><ele>39.333333333333336</ele><time>2026-05-03T08:48:29.986Z</time></trkpt><trkpt lat="42.3646183" lon="12.46878"><ele>39.66666666666667</ele><time>2026-05-03T08:48:30.987Z</time></trkpt><trkpt lat="42.3644283" lon="12.468675"><ele>40.0</ele><time>2026-05-03T08:48:31.983Z</time></trkpt><trkpt lat="42.3642333" lon="12.4685717"><ele>40.0</ele><time>2026-05-03T08:48:32.984Z</time></trkpt><trkpt lat="42.3640367" lon="12.46847"><ele>40.0</ele><time>2026-05-03T08:48:33.99Z</time></trkpt><trkpt lat="42.3638367" lon="12.468365"><ele>40.0</ele><time>2026-05-03T08:48:34.989Z</time></trkpt><trkpt lat="42.3636383" lon="12.468255"><ele>39.66666666666667</ele><time>2026-05-03T08:48:35.985Z</time></trkpt><trkpt lat="42.363445" lon="12.46815"><ele>39.333333333333336</ele><time>2026-05-03T08:48:36.986Z</time></trkpt><trkpt lat="42.3632517" lon="12.4680467"><ele>39.0</ele><time>2026-05-03T08:48:37.989Z</time></trkpt><trkpt lat="42.3630583" lon="12.4679417"><ele>38.666666666666664</ele><time>2026-05-03T08:48:38.984Z</time></trkpt><trkpt lat="42.362865" lon="12.467835"><ele>38.33333333333333</ele><time>2026-05-03T08:48:39.989Z</time></trkpt><trkpt lat="42.3626733" lon="12.4677283"><ele>38.0</ele><time>2026-05-03T08:48:40.985Z</time></trkpt><trkpt lat="42.3624783" lon="12.467625"><ele>38.0</ele><time>2026-05-03T08:48:41.983Z</time></trkpt><trkpt lat="42.3622833" lon="12.4675233"><ele>38.0</ele><time>2026-05-03T08:48:42.983Z</time></trkpt><trkpt lat="42.3620883" lon="12.4674183"><ele>38.0</ele><time>2026-05-03T08:48:43.989Z</time></trkpt><trkpt lat="42.3618933" lon="12.4673117"><ele>38.0</ele><time>2026-05-03T08:48:44.986Z</time></trkpt><trkpt lat="42.3617" lon="12.4672067"><ele>38.0</ele><time>2026-05-03T08:48:45.987Z</time></trkpt><trkpt lat="42.3615083" lon="12.4671033"><ele>38.0</ele><time>2026-05-03T08:48:46.99Z</time></trkpt><trkpt lat="42.3613183" lon="12.4670017"><ele>38.33333333333333</ele><time>2026-05-03T08:48:47.985Z</time></trkpt><trkpt lat="42.3611317" lon="12.4668983"><ele>38.666666666666664</ele><time>2026-05-03T08:48:48.986Z</time></trkpt><trkpt lat="42.360945" lon="12.4667967"><ele>39.0</ele><time>2026-05-03T08:48:49.99Z</time></trkpt><trkpt lat="42.3607583" lon="12.4666917"><ele>39.0</ele><time>2026-05-03T08:48:50.997Z</time></trkpt><trkpt lat="42.36057" lon="12.466595"><ele>39.0</ele><time>2026-05-03T08:48:51.988Z</time></trkpt><trkpt lat="42.36038" lon="12.466495"><ele>39.0</ele><time>2026-05-03T08:48:52.995Z</time></trkpt><trkpt lat="42.3601883" lon="12.4663933"><ele>39.0</ele><time>2026-05-03T08:48:53.989Z</time></trkpt><trkpt lat="42.359995" lon="12.466285"><ele>39.0</ele><time>2026-05-03T08:48:54.986Z</time></trkpt><trkpt lat="42.3597983" lon="12.4661767"><ele>39.0</ele><time>2026-05-03T08:48:55.988Z</time></trkpt><trkpt lat="42.3596" lon="12.4660683"><ele>39.0</ele><time>2026-05-03T08:48:56.99Z</time></trkpt><trkpt lat="42.359395" lon="12.4659633"><ele>39.0</ele><time>2026-05-03T08:48:57.986Z</time></trkpt><trkpt lat="42.3591833" lon="12.465855"><ele>39.0</ele><time>2026-05-03T08:48:58.984Z</time></trkpt><trkpt lat="42.3589667" lon="12.4657383"><ele>38.5</ele><time>2026-05-03T08:48:59.989Z</time></trkpt><trkpt lat="42.3587433" lon="12.4656183"><ele>38.0</ele><time>2026-05-03T08:49:00.986Z</time></trkpt><trkpt lat="42.3585133" lon="12.4654933"><ele>38.5</ele><time>2026-05-03T08:49:01.987Z</time></trkpt><trkpt lat="42.35828" lon="12.465365"><ele>39.0</ele><time>2026-05-03T08:49:02.99Z</time></trkpt><trkpt lat="42.35805" lon="12.4652367"><ele>39.5</ele><time>2026-05-03T08:49:03.987Z</time></trkpt><trkpt lat="42.357825" lon="12.4651133"><ele>40.0</ele><time>2026-05-03T08:49:04.988Z</time></trkpt><trkpt lat="42.3576067" lon="12.4649917"><ele>40.0</ele><time>2026-05-03T08:49:05.987Z</time></trkpt><trkpt lat="42.3573917" lon="12.464875"><ele>40.0</ele><time>2026-05-03T08:49:06.985Z</time></trkpt><trkpt lat="42.3571783" lon="12.4647633"><ele>39.66666666666667</ele><time>2026-05-03T08:49:07.987Z</time></trkpt><trkpt lat="42.3569717" lon="12.4646483"><ele>39.333333333333336</ele><time>2026-05-03T08:49:08.984Z</time></trkpt><trkpt lat="42.3567733" lon="12.4645367"><ele>39.0</ele><time>2026-05-03T08:49:09.983Z</time></trkpt><trkpt lat="42.3565817" lon="12.4644283"><ele>39.0</ele><time>2026-05-03T08:49:10.989Z</time></trkpt><trkpt lat="42.35639" lon="12.4643233"><ele>39.0</ele><time>2026-05-03T08:49:11.988Z</time></trkpt><trkpt lat="42.356195" lon="12.46422"><ele>39.0</ele><time>2026-05-03T08:49:12.99Z</time></trkpt><trkpt lat="42.3560033" lon="12.4641183"><ele>38.666666666666664</ele><time>2026-05-03T08:49:13.987Z</time></trkpt><trkpt lat="42.3558133" lon="12.4640117"><ele>38.33333333333333</ele><time>2026-05-03T08:49:14.989Z</time></trkpt><trkpt lat="42.35562" lon="12.46391"><ele>38.0</ele><time>2026-05-03T08:49:15.989Z</time></trkpt><trkpt lat="42.3554267" lon="12.463805"><ele>38.0</ele><time>2026-05-03T08:49:16.992Z</time></trkpt><trkpt lat="42.35523" lon="12.463705"><ele>38.0</ele><time>2026-05-03T08:49:17.988Z</time></trkpt><trkpt lat="42.3550333" lon="12.4636033"><ele>38.0</ele><time>2026-05-03T08:49:18.987Z</time></trkpt><trkpt lat="42.3548367" lon="12.4635033"><ele>38.33333333333333</ele><time>2026-05-03T08:49:19.985Z</time></trkpt><trkpt lat="42.35464" lon="12.4634017"><ele>38.666666666666664</ele><time>2026-05-03T08:49:20.986Z</time></trkpt><trkpt lat="42.354445" lon="12.463295"><ele>39.0</ele><time>2026-05-03T08:49:21.985Z</time></trkpt><trkpt lat="42.35425" lon="12.46319"><ele>39.0</ele><time>2026-05-03T08:49:22.992Z</time></trkpt><trkpt lat="42.3540567" lon="12.4630833"><ele>39.0</ele><time>2026-05-03T08:49:23.987Z</time></trkpt><trkpt lat="42.353865" lon="12.46298"><ele>39.0</ele><time>2026-05-03T08:49:24.986Z</time></trkpt><trkpt lat="42.3536767" lon="12.4628767"><ele>39.0</ele><time>2026-05-03T08:49:25.991Z</time></trkpt><trkpt lat="42.3534883" lon="12.46277"><ele>39.0</ele><time>2026-05-03T08:49:26.985Z</time></trkpt><trkpt lat="42.3532967" lon="12.4626633"><ele>39.0</ele><time>2026-05-03T08:49:27.987Z</time></trkpt><trkpt lat="42.3531017" lon="12.4625617"><ele>39.333333333333336</ele><time>2026-05-03T08:49:28.985Z</time></trkpt><trkpt lat="42.352905" lon="12.4624617"><ele>39.66666666666667</ele><time>2026-05-03T08:49:29.987Z</time></trkpt><trkpt lat="42.3527083" lon="12.46236"><ele>40.0</ele><time>2026-05-03T08:49:30.98Z</time></trkpt><trkpt lat="42.3525117" lon="12.4622567"><ele>40.0</ele><time>2026-05-03T08:49:31.984Z</time></trkpt><trkpt lat="42.3523117" lon="12.46215"><ele>40.0</ele><time>2026-05-03T08:49:32.984Z</time></trkpt><trkpt lat="42.3521133" lon="12.4620417"><ele>40.0</ele><time>2026-05-03T08:49:33.986Z</time></trkpt><trkpt lat="42.3519167" lon="12.4619317"><ele>40.333333333333336</ele><time>2026-05-03T08:49:34.988Z</time></trkpt><trkpt lat="42.35172" lon="12.4618217"><ele>40.666666666666664</ele><time>2026-05-03T08:49:35.997Z</time></trkpt><trkpt lat="42.3515233" lon="12.4617133"><ele>41.0</ele><time>2026-05-03T08:49:36.989Z</time></trkpt><trkpt lat="42.35134" lon="12.4616"><ele>41.0</ele><time>2026-05-03T08:49:37.987Z</time></trkpt><trkpt lat="42.3511683" lon="12.461485"><ele>41.0</ele><time>2026-05-03T08:49:38.987Z</time></trkpt><trkpt lat="42.351015" lon="12.4613533"><ele>41.0</ele><time>2026-05-03T08:49:39.988Z</time></trkpt><trkpt lat="42.3508817" lon="12.461205"><ele>40.0</ele><time>2026-05-03T08:49:40.986Z</time></trkpt><trkpt lat="42.3507633" lon="12.4610367"><ele>39.0</ele><time>2026-05-03T08:49:41.985Z</time></trkpt><trkpt lat="42.3506583" lon="12.4608467"><ele>38.0</ele><time>2026-05-03T08:49:42.985Z</time></trkpt><trkpt lat="42.3505667" lon="12.46063"><ele>38.33333333333333</ele><time>2026-05-03T08:49:43.99Z</time></trkpt><trkpt lat="42.3504817" lon="12.4604017"><ele>38.666666666666664</ele><time>2026-05-03T08:49:44.986Z</time></trkpt><trkpt lat="42.3504" lon="12.4601683"><ele>39.0</ele><time>2026-05-03T08:49:45.986Z</time></trkpt><trkpt lat="42.3503167" lon="12.4599467"><ele>39.0</ele><time>2026-05-03T08:49:46.986Z</time></trkpt><trkpt lat="42.3502317" lon="12.4597383"><ele>39.0</ele><time>2026-05-03T08:49:47.987Z</time></trkpt><trkpt lat="42.350135" lon="12.4595433"><ele>39.0</ele><time>2026-05-03T08:49:48.986Z</time></trkpt><trkpt lat="42.35002" lon="12.4593633"><ele>39.666666666666664</ele><time>2026-05-03T08:49:49.985Z</time></trkpt><trkpt lat="42.3498833" lon="12.459205"><ele>40.33333333333333</ele><time>2026-05-03T08:49:50.982Z</time></trkpt><trkpt lat="42.3497333" lon="12.4590767"><ele>41.0</ele><time>2026-05-03T08:49:51.985Z</time></trkpt><trkpt lat="42.3495617" lon="12.45897"><ele>41.0</ele><time>2026-05-03T08:49:52.989Z</time></trkpt><trkpt lat="42.3493783" lon="12.4588683"><ele>41.0</ele><time>2026-05-03T08:49:53.987Z</time></trkpt><trkpt lat="42.3491867" lon="12.4587683"><ele>41.0</ele><time>2026-05-03T08:49:54.99Z</time></trkpt><trkpt lat="42.34899" lon="12.4586683"><ele>41.33333333333333</ele><time>2026-05-03T08:49:55.987Z</time></trkpt><trkpt lat="42.3487967" lon="12.45856"><ele>41.666666666666664</ele><time>2026-05-03T08:49:56.988Z</time></trkpt><trkpt lat="42.3486083" lon="12.4584383"><ele>42.0</ele><time>2026-05-03T08:49:57.984Z</time></trkpt><trkpt lat="42.3484217" lon="12.4583083"><ele>42.0</ele><time>2026-05-03T08:49:58.988Z</time></trkpt><trkpt lat="42.3482383" lon="12.458175"><ele>42.0</ele><time>2026-05-03T08:49:59.988Z</time></trkpt><trkpt lat="42.3480583" lon="12.4580383"><ele>42.0</ele><time>2026-05-03T08:50:00.989Z</time></trkpt><trkpt lat="42.3478817" lon="12.4579"><ele>41.666666666666664</ele><time>2026-05-03T08:50:01.99Z</time></trkpt><trkpt lat="42.3477083" lon="12.4577667"><ele>41.33333333333333</ele><time>2026-05-03T08:50:02.984Z</time></trkpt><trkpt lat="42.3475417" lon="12.4576417"><ele>41.0</ele><time>2026-05-03T08:50:03.989Z</time></trkpt><trkpt lat="42.3473833" lon="12.4575217"><ele>41.0</ele><time>2026-05-03T08:50:04.987Z</time></trkpt><trkpt lat="42.3472317" lon="12.4574067"><ele>41.0</ele><time>2026-05-03T08:50:05.988Z</time></trkpt><trkpt lat="42.3470883" lon="12.4573"><ele>41.0</ele><time>2026-05-03T08:50:06.987Z</time></trkpt><trkpt lat="42.34695" lon="12.457195"><ele>41.0</ele><time>2026-05-03T08:50:07.985Z</time></trkpt><trkpt lat="42.34682" lon="12.4570983"><ele>41.0</ele><time>2026-05-03T08:50:08.984Z</time></trkpt><trkpt lat="42.3466933" lon="12.4570017"><ele>41.0</ele><time>2026-05-03T08:50:09.986Z</time></trkpt><trkpt lat="42.34657" lon="12.456905"><ele>41.0</ele><time>2026-05-03T08:50:10.988Z</time></trkpt><trkpt lat="42.3464467" lon="12.4568117"><ele>41.0</ele><time>2026-05-03T08:50:11.989Z</time></trkpt><trkpt lat="42.3463233" lon="12.4567167"><ele>41.0</ele><time>2026-05-03T08:50:12.984Z</time></trkpt><trkpt lat="42.3461967" lon="12.4566183"><ele>41.0</ele><time>2026-05-03T08:50:13.985Z</time></trkpt><trkpt lat="42.3460667" lon="12.4565167"><ele>41.0</ele><time>2026-05-03T08:50:14.987Z</time></trkpt><trkpt lat="42.34594" lon="12.4564183"><ele>41.0</ele><time>2026-05-03T08:50:15.987Z</time></trkpt><trkpt lat="42.3458233" lon="12.4563183"><ele>41.0</ele><time>2026-05-03T08:50:16.989Z</time></trkpt><trkpt lat="42.3457133" lon="12.456225"><ele>41.0</ele><time>2026-05-03T08:50:17.985Z</time></trkpt><trkpt lat="42.345605" lon="12.456135"><ele>41.0</ele><time>2026-05-03T08:50:18.984Z</time></trkpt><trkpt lat="42.3455" lon="12.4560567"><ele>41.25</ele><time>2026-05-03T08:50:19.985Z</time></trkpt><trkpt lat="42.3454017" lon="12.4559817"><ele>41.5</ele><time>2026-05-03T08:50:20.988Z</time></trkpt><trkpt lat="42.3453033" lon="12.4559067"><ele>41.75</ele><time>2026-05-03T08:50:21.986Z</time></trkpt><trkpt lat="42.3452017" lon="12.4558283"><ele>42.0</ele><time>2026-05-03T08:50:22.99Z</time></trkpt><trkpt lat="42.3450983" lon="12.455745"><ele>42.0</ele><time>2026-05-03T08:50:23.989Z</time></trkpt><trkpt lat="42.34499" lon="12.4556583"><ele>42.0</ele><time>2026-05-03T08:50:24.986Z</time></trkpt><trkpt lat="42.34488" lon="12.4555683"><ele>42.0</ele><time>2026-05-03T08:50:25.988Z</time></trkpt><trkpt lat="42.34476" lon="12.4554817"><ele>42.0</ele><time>2026-05-03T08:50:26.986Z</time></trkpt><trkpt lat="42.34464" lon="12.45539"><ele>42.5</ele><time>2026-05-03T08:50:27.995Z</time></trkpt><trkpt lat="42.3445183" lon="12.4552967"><ele>43.0</ele><time>2026-05-03T08:50:28.993Z</time></trkpt><trkpt lat="42.3443967" lon="12.4552033"><ele>43.5</ele><time>2026-05-03T08:50:29.986Z</time></trkpt><trkpt lat="42.3442683" lon="12.4551117"><ele>44.0</ele><time>2026-05-03T08:50:30.991Z</time></trkpt><trkpt lat="42.3441417" lon="12.455025"><ele>44.0</ele><time>2026-05-03T08:50:31.987Z</time></trkpt><trkpt lat="42.3440183" lon="12.45495"><ele>44.0</ele><time>2026-05-03T08:50:32.988Z</time></trkpt><trkpt lat="42.3439033" lon="12.45489"><ele>44.0</ele><time>2026-05-03T08:50:33.988Z</time></trkpt><trkpt lat="42.34379" lon="12.4548517"><ele>44.0</ele><time>2026-05-03T08:50:34.99Z</time></trkpt><trkpt lat="42.3436783" lon="12.454825"><ele>45.5</ele><time>2026-05-03T08:50:35.986Z</time></trkpt><trkpt lat="42.3435633" lon="12.4548067"><ele>47.0</ele><time>2026-05-03T08:50:36.985Z</time></trkpt><trkpt lat="42.3434483" lon="12.4548033"><ele>48.5</ele><time>2026-05-03T08:50:37.988Z</time></trkpt><trkpt lat="42.34333" lon="12.4547967"><ele>50.0</ele><time>2026-05-03T08:50:38.987Z</time></trkpt><trkpt lat="42.34321" lon="12.45479"><ele>50.0</ele><time>2026-05-03T08:50:39.988Z</time></trkpt><trkpt lat="42.3430917" lon="12.4547733"><ele>50.0</ele><time>2026-05-03T08:50:40.993Z</time></trkpt><trkpt lat="42.3429833" lon="12.4547333"><ele>50.0</ele><time>2026-05-03T08:50:41.989Z</time></trkpt><trkpt lat="42.3428883" lon="12.454665"><ele>50.0</ele><time>2026-05-03T08:50:42.987Z</time></trkpt><trkpt lat="42.3428017" lon="12.4545883"><ele>50.0</ele><time>2026-05-03T08:50:43.988Z</time></trkpt><trkpt lat="42.34273" lon="12.454505"><ele>49.4</ele><time>2026-05-03T08:50:44.99Z</time></trkpt><trkpt lat="42.34267" lon="12.4544117"><ele>48.8</ele><time>2026-05-03T08:50:45.984Z</time></trkpt><trkpt lat="42.34262" lon="12.4543067"><ele>48.2</ele><time>2026-05-03T08:50:46.985Z</time></trkpt><trkpt lat="42.3425883" lon="12.454185"><ele>47.6</ele><time>2026-05-03T08:50:47.989Z</time></trkpt><trkpt lat="42.3425717" lon="12.45405"><ele>47.0</ele><time>2026-05-03T08:50:48.987Z</time></trkpt><trkpt lat="42.3425717" lon="12.4539017"><ele>47.0</ele><time>2026-05-03T08:50:49.988Z</time></trkpt><trkpt lat="42.3425833" lon="12.4537417"><ele>47.0</ele><time>2026-05-03T08:50:50.988Z</time></trkpt><trkpt lat="42.34261" lon="12.4535733"><ele>47.0</ele><time>2026-05-03T08:50:51.988Z</time></trkpt><trkpt lat="42.342645" lon="12.4534017"><ele>47.0</ele><time>2026-05-03T08:50:52.986Z</time></trkpt><trkpt lat="42.3426967" lon="12.45323"><ele>47.0</ele><time>2026-05-03T08:50:53.987Z</time></trkpt><trkpt lat="42.34276" lon="12.4530617"><ele>47.0</ele><time>2026-05-03T08:50:54.989Z</time></trkpt><trkpt lat="42.3428283" lon="12.4528967"><ele>47.0</ele><time>2026-05-03T08:50:55.988Z</time></trkpt><trkpt lat="42.3429083" lon="12.4527383"><ele>47.0</ele><time>2026-05-03T08:50:56.988Z</time></trkpt><trkpt lat="42.342995" lon="12.4525867"><ele>47.75</ele><time>2026-05-03T08:50:57.987Z</time></trkpt><trkpt lat="42.3430867" lon="12.452435"><ele>48.5</ele><time>2026-05-03T08:50:58.983Z</time></trkpt><trkpt lat="42.34318" lon="12.4522817"><ele>49.25</ele><time>2026-05-03T08:50:59.985Z</time></trkpt><trkpt lat="42.3432717" lon="12.45213"><ele>50.0</ele><time>2026-05-03T08:51:00.989Z</time></trkpt><trkpt lat="42.34336" lon="12.4519867"><ele>50.0</ele><time>2026-05-03T08:51:01.982Z</time></trkpt><trkpt lat="42.34344" lon="12.4518517"><ele>50.0</ele><time>2026-05-03T08:51:02.984Z</time></trkpt><trkpt lat="42.3435183" lon="12.45172"><ele>50.0</ele><time>2026-05-03T08:51:03.983Z</time></trkpt><trkpt lat="42.3435817" lon="12.4515883"><ele>50.0</ele><time>2026-05-03T08:51:04.988Z</time></trkpt><trkpt lat="42.3436267" lon="12.45145"><ele>50.0</ele><time>2026-05-03T08:51:05.987Z</time></trkpt><trkpt lat="42.343645" lon="12.4513083"><ele>50.0</ele><time>2026-05-03T08:51:06.986Z</time></trkpt><trkpt lat="42.3436283" lon="12.4511667"><ele>50.0</ele><time>2026-05-03T08:51:07.985Z</time></trkpt><trkpt lat="42.3435883" lon="12.4510383"><ele>50.0</ele><time>2026-05-03T08:51:08.988Z</time></trkpt><trkpt lat="42.3435183" lon="12.4509167"><ele>50.0</ele><time>2026-05-03T08:51:09.988Z</time></trkpt><trkpt lat="42.34343" lon="12.4508017"><ele>49.25</ele><time>2026-05-03T08:51:10.989Z</time></trkpt><trkpt lat="42.343335" lon="12.4506833"><ele>48.5</ele><time>2026-05-03T08:51:11.985Z</time></trkpt><trkpt lat="42.34323" lon="12.45056"><ele>47.75</ele><time>2026-05-03T08:51:12.985Z</time></trkpt><trkpt lat="42.3431217" lon="12.450445"><ele>47.0</ele><time>2026-05-03T08:51:13.988Z</time></trkpt><trkpt lat="42.3430083" lon="12.4503517"><ele>51.0</ele><time>2026-05-03T08:51:14.99Z</time></trkpt><trkpt lat="42.3428933" lon="12.4502783"><ele>55.0</ele><time>2026-05-03T08:51:15.987Z</time></trkpt><trkpt lat="42.34278" lon="12.450235"><ele>59.0</ele><time>2026-05-03T08:51:16.983Z</time></trkpt><trkpt lat="42.3426683" lon="12.4502367"><ele>63.0</ele><time>2026-05-03T08:51:17.988Z</time></trkpt><trkpt lat="42.3425683" lon="12.4502817"><ele>63.0</ele><time>2026-05-03T08:51:18.986Z</time></trkpt><trkpt lat="42.342485" lon="12.4503733"><ele>63.0</ele><time>2026-05-03T08:51:19.989Z</time></trkpt><trkpt lat="42.3424183" lon="12.450505"><ele>63.0</ele><time>2026-05-03T08:51:20.984Z</time></trkpt><trkpt lat="42.3423683" lon="12.4506517"><ele>63.0</ele><time>2026-05-03T08:51:21.992Z</time></trkpt><trkpt lat="42.34232" lon="12.45081"><ele>61.75</ele><time>2026-05-03T08:51:22.99Z</time></trkpt><trkpt lat="42.3422717" lon="12.450975"><ele>60.5</ele><time>2026-05-03T08:51:23.989Z</time></trkpt><trkpt lat="42.3422133" lon="12.4511267"><ele>59.25</ele><time>2026-05-03T08:51:24.992Z</time></trkpt><trkpt lat="42.34216" lon="12.4512617"><ele>58.0</ele><time>2026-05-03T08:51:25.985Z</time></trkpt><trkpt lat="42.3420967" lon="12.4513767"><ele>61.0</ele><time>2026-05-03T08:51:26.987Z</time></trkpt><trkpt lat="42.3420267" lon="12.4514783"><ele>64.0</ele><time>2026-05-03T08:51:27.99Z</time></trkpt><trkpt lat="42.3419383" lon="12.4515633"><ele>67.0</ele><time>2026-05-03T08:51:28.987Z</time></trkpt><trkpt lat="42.34183" lon="12.4516283"><ele>70.0</ele><time>2026-05-03T08:51:29.985Z</time></trkpt><trkpt lat="42.34171" lon="12.451685"><ele>70.0</ele><time>2026-05-03T08:51:30.985Z</time></trkpt><trkpt lat="42.34158" lon="12.4517317"><ele>70.0</ele><time>2026-05-03T08:51:31.988Z</time></trkpt><trkpt lat="42.3414483" lon="12.45178"><ele>70.0</ele><time>2026-05-03T08:51:32.988Z</time></trkpt><trkpt lat="42.3413217" lon="12.4518283"><ele>70.0</ele><time>2026-05-03T08:51:33.986Z</time></trkpt><trkpt lat="42.3412" lon="12.4519083"><ele>70.0</ele><time>2026-05-03T08:51:34.989Z</time></trkpt><trkpt lat="42.341085" lon="12.4520133"><ele>70.0</ele><time>2026-05-03T08:51:35.989Z</time></trkpt><trkpt lat="42.3409683" lon="12.45213"><ele>70.0</ele><time>2026-05-03T08:51:36.989Z</time></trkpt><trkpt lat="42.3408517" lon="12.4522417"><ele>70.0</ele><time>2026-05-03T08:51:37.989Z</time></trkpt><trkpt lat="42.34073" lon="12.4523517"><ele>70.0</ele><time>2026-05-03T08:51:38.987Z</time></trkpt><trkpt lat="42.3406117" lon="12.4524583"><ele>70.0</ele><time>2026-05-03T08:51:39.986Z</time></trkpt><trkpt lat="42.3404883" lon="12.452545"><ele>70.0</ele><time>2026-05-03T08:51:40.987Z</time></trkpt><trkpt lat="42.3403667" lon="12.4526217"><ele>70.0</ele><time>2026-05-03T08:51:41.987Z</time></trkpt><trkpt lat="42.3402433" lon="12.4526933"><ele>75.75</ele><time>2026-05-03T08:51:42.987Z</time></trkpt><trkpt lat="42.340115" lon="12.4527517"><ele>81.5</ele><time>2026-05-03T08:51:43.989Z</time></trkpt><trkpt lat="42.33998" lon="12.4527933"><ele>87.25</ele><time>2026-05-03T08:51:44.987Z</time></trkpt><trkpt lat="42.3398383" lon="12.4528067"><ele>93.0</ele><time>2026-05-03T08:51:45.986Z</time></trkpt><trkpt lat="42.339695" lon="12.4528067"><ele>95.5</ele><time>2026-05-03T08:51:46.986Z</time></trkpt><trkpt lat="42.3395533" lon="12.452815"><ele>98.0</ele><time>2026-05-03T08:51:47.993Z</time></trkpt><trkpt lat="42.3394133" lon="12.4528467"><ele>100.5</ele><time>2026-05-03T08:51:48.989Z</time></trkpt><trkpt lat="42.3392733" lon="12.4529"><ele>103.0</ele><time>2026-05-03T08:51:49.988Z</time></trkpt><trkpt lat="42.3391333" lon="12.452965"><ele>98.33333333333334</ele><time>2026-05-03T08:51:50.986Z</time></trkpt><trkpt lat="42.3389867" lon="12.4530217"><ele>93.66666666666667</ele><time>2026-05-03T08:51:51.986Z</time></trkpt><trkpt lat="42.3388367" lon="12.45307"><ele>89.0</ele><time>2026-05-03T08:51:52.985Z</time></trkpt><trkpt lat="42.3386817" lon="12.4531033"><ele>89.0</ele><time>2026-05-03T08:51:53.99Z</time></trkpt><trkpt lat="42.3385233" lon="12.4531267"><ele>89.0</ele><time>2026-05-03T08:51:54.999Z</time></trkpt><trkpt lat="42.3383633" lon="12.4531467"><ele>89.0</ele><time>2026-05-03T08:51:55.987Z</time></trkpt><trkpt lat="42.3382033" lon="12.4531617"><ele>92.33333333333334</ele><time>2026-05-03T08:51:56.99Z</time></trkpt><trkpt lat="42.3380433" lon="12.4531817"><ele>95.66666666666667</ele><time>2026-05-03T08:51:57.989Z</time></trkpt><trkpt lat="42.3378883" lon="12.4532167"><ele>99.0</ele><time>2026-05-03T08:51:58.983Z</time></trkpt><trkpt lat="42.3377367" lon="12.4532567"><ele>99.0</ele><time>2026-05-03T08:51:59.988Z</time></trkpt><trkpt lat="42.337585" lon="12.4533017"><ele>99.0</ele><time>2026-05-03T08:52:00.987Z</time></trkpt><trkpt lat="42.3374333" lon="12.4533683"><ele>99.0</ele><time>2026-05-03T08:52:01.985Z</time></trkpt><trkpt lat="42.337285" lon="12.453445"><ele>104.33333333333334</ele><time>2026-05-03T08:52:02.984Z</time></trkpt><trkpt lat="42.3371417" lon="12.4535317"><ele>109.66666666666667</ele><time>2026-05-03T08:52:03.984Z</time></trkpt><trkpt lat="42.3370067" lon="12.453625"><ele>115.0</ele><time>2026-05-03T08:52:04.987Z</time></trkpt><trkpt lat="42.336875" lon="12.4537283"><ele>108.0</ele><time>2026-05-03T08:52:05.99Z</time></trkpt><trkpt lat="42.3367483" lon="12.4538433"><ele>101.0</ele><time>2026-05-03T08:52:06.988Z</time></trkpt><trkpt lat="42.33662" lon="12.4539583"><ele>94.0</ele><time>2026-05-03T08:52:07.992Z</time></trkpt><trkpt lat="42.3364883" lon="12.4540683"><ele>100.33333333333333</ele><time>2026-05-03T08:52:08.988Z</time></trkpt><trkpt lat="42.3363483" lon="12.45418"><ele>106.66666666666666</ele><time>2026-05-03T08:52:09.99Z</time></trkpt><trkpt lat="42.3362" lon="12.4542867"><ele>113.0</ele><time>2026-05-03T08:52:10.985Z</time></trkpt><trkpt lat="42.3360483" lon="12.4543883"><ele>113.0</ele><time>2026-05-03T08:52:11.984Z</time></trkpt><trkpt lat="42.3358933" lon="12.45449"><ele>113.0</ele><time>2026-05-03T08:52:12.987Z</time></trkpt><trkpt lat="42.33573" lon="12.454595"><ele>113.0</ele><time>2026-05-03T08:52:13.987Z</time></trkpt><trkpt lat="42.3355683" lon="12.4546883"><ele>112.0</ele><time>2026-05-03T08:52:14.985Z</time></trkpt><trkpt lat="42.3354033" lon="12.4547733"><ele>111.0</ele><time>2026-05-03T08:52:15.989Z</time></trkpt><trkpt lat="42.33524" lon="12.4548517"><ele>110.0</ele><time>2026-05-03T08:52:16.985Z</time></trkpt><trkpt lat="42.33508" lon="12.4549267"><ele>110.0</ele><time>2026-05-03T08:52:17.986Z</time></trkpt><trkpt lat="42.3349167" lon="12.4549833"><ele>110.0</ele><time>2026-05-03T08:52:18.988Z</time></trkpt><trkpt lat="42.334755" lon="12.4550217"><ele>110.0</ele><time>2026-05-03T08:52:19.988Z</time></trkpt><trkpt lat="42.3345917" lon="12.455045"><ele>111.33333333333333</ele><time>2026-05-03T08:52:20.989Z</time></trkpt><trkpt lat="42.334425" lon="12.4550433"><ele>112.66666666666666</ele><time>2026-05-03T08:52:21.988Z</time></trkpt><trkpt lat="42.334255" lon="12.4550233"><ele>114.0</ele><time>2026-05-03T08:52:22.991Z</time></trkpt><trkpt lat="42.3340883" lon="12.454995"><ele>114.0</ele><time>2026-05-03T08:52:23.99Z</time></trkpt><trkpt lat="42.333925" lon="12.4549633"><ele>114.0</ele><time>2026-05-03T08:52:24.985Z</time></trkpt><trkpt lat="42.333765" lon="12.4549367"><ele>114.0</ele><time>2026-05-03T08:52:25.989Z</time></trkpt><trkpt lat="42.3336133" lon="12.4549133"><ele>114.5</ele><time>2026-05-03T08:52:26.99Z</time></trkpt><trkpt lat="42.3334733" lon="12.4548883"><ele>115.0</ele><time>2026-05-03T08:52:27.994Z</time></trkpt><trkpt lat="42.3333433" lon="12.4548633"><ele>115.5</ele><time>2026-05-03T08:52:28.988Z</time></trkpt><trkpt lat="42.3332217" lon="12.4548433"><ele>116.0</ele><time>2026-05-03T08:52:29.99Z</time></trkpt><trkpt lat="42.33311" lon="12.4548167"><ele>116.4</ele><time>2026-05-03T08:52:30.986Z</time></trkpt><trkpt lat="42.3330083" lon="12.4547683"><ele>116.8</ele><time>2026-05-03T08:52:31.986Z</time></trkpt><trkpt lat="42.33292" lon="12.4546933"><ele>117.20000000000002</ele><time>2026-05-03T08:52:32.991Z</time></trkpt><trkpt lat="42.3328517" lon="12.45458"><ele>117.60000000000001</ele><time>2026-05-03T08:52:33.989Z</time></trkpt><trkpt lat="42.3328067" lon="12.45443"><ele>118.0</ele><time>2026-05-03T08:52:34.983Z</time></trkpt><trkpt lat="42.332785" lon="12.4542567"><ele>119.0</ele><time>2026-05-03T08:52:35.986Z</time></trkpt><trkpt lat="42.3327683" lon="12.4540633"><ele>120.0</ele><time>2026-05-03T08:52:36.985Z</time></trkpt><trkpt lat="42.3327583" lon="12.4538533"><ele>121.0</ele><time>2026-05-03T08:52:37.994Z</time></trkpt><trkpt lat="42.33275" lon="12.4536383"><ele>121.66666666666667</ele><time>2026-05-03T08:52:38.989Z</time></trkpt><trkpt lat="42.332745" lon="12.45342"><ele>122.33333333333334</ele><time>2026-05-03T08:52:39.991Z</time></trkpt><trkpt lat="42.33274" lon="12.453195"><ele>123.0</ele><time>2026-05-03T08:52:40.988Z</time></trkpt><trkpt lat="42.3327317" lon="12.4529567"><ele>122.66666666666666</ele><time>2026-05-03T08:52:41.985Z</time></trkpt><trkpt lat="42.3327267" lon="12.4526917"><ele>122.33333333333333</ele><time>2026-05-03T08:52:42.988Z</time></trkpt><trkpt lat="42.3327233" lon="12.4523983"><ele>122.0</ele><time>2026-05-03T08:52:43.989Z</time></trkpt><trkpt lat="42.3327217" lon="12.4520867"><ele>121.33333333333333</ele><time>2026-05-03T08:52:44.988Z</time></trkpt><trkpt lat="42.3327183" lon="12.4517817"><ele>120.66666666666666</ele><time>2026-05-03T08:52:45.984Z</time></trkpt><trkpt lat="42.3327183" lon="12.45149"><ele>120.0</ele><time>2026-05-03T08:52:46.983Z</time></trkpt><trkpt lat="42.3327167" lon="12.45121"><ele>120.0</ele><time>2026-05-03T08:52:47.99Z</time></trkpt><trkpt lat="42.33271" lon="12.4509383"><ele>120.0</ele><time>2026-05-03T08:52:48.99Z</time></trkpt><trkpt lat="42.3327017" lon="12.4506783"><ele>120.0</ele><time>2026-05-03T08:52:49.988Z</time></trkpt><trkpt lat="42.33269" lon="12.4504283"><ele>120.0</ele><time>2026-05-03T08:52:50.992Z</time></trkpt><trkpt lat="42.3326683" lon="12.4501867"><ele>120.0</ele><time>2026-05-03T08:52:51.985Z</time></trkpt><trkpt lat="42.33263" lon="12.44996"><ele>120.0</ele><time>2026-05-03T08:52:52.993Z</time></trkpt><trkpt lat="42.332565" lon="12.449745"><ele>119.66666666666666</ele><time>2026-05-03T08:52:53.993Z</time></trkpt><trkpt lat="42.3324717" lon="12.4495417"><ele>119.33333333333333</ele><time>2026-05-03T08:52:54.986Z</time></trkpt><trkpt lat="42.3323567" lon="12.4493517"><ele>119.0</ele><time>2026-05-03T08:52:55.991Z</time></trkpt><trkpt lat="42.3322333" lon="12.44918"><ele>119.0</ele><time>2026-05-03T08:52:56.989Z</time></trkpt><trkpt lat="42.3321117" lon="12.44902"><ele>119.0</ele><time>2026-05-03T08:52:57.987Z</time></trkpt><trkpt lat="42.331995" lon="12.44887"><ele>119.0</ele><time>2026-05-03T08:52:58.987Z</time></trkpt><trkpt lat="42.3318767" lon="12.4487217"><ele>119.0</ele><time>2026-05-03T08:52:59.988Z</time></trkpt><trkpt lat="42.3317533" lon="12.448575"><ele>119.0</ele><time>2026-05-03T08:53:00.985Z</time></trkpt><trkpt lat="42.3316233" lon="12.448425"><ele>119.0</ele><time>2026-05-03T08:53:01.991Z</time></trkpt><trkpt lat="42.33149" lon="12.448275"><ele>119.33333333333333</ele><time>2026-05-03T08:53:02.989Z</time></trkpt><trkpt lat="42.3313517" lon="12.4481233"><ele>119.66666666666666</ele><time>2026-05-03T08:53:03.988Z</time></trkpt><trkpt lat="42.3312083" lon="12.4479783"><ele>120.0</ele><time>2026-05-03T08:53:04.989Z</time></trkpt><trkpt lat="42.3310567" lon="12.4478417"><ele>120.0</ele><time>2026-05-03T08:53:05.987Z</time></trkpt><trkpt lat="42.3309017" lon="12.4477083"><ele>120.0</ele><time>2026-05-03T08:53:06.988Z</time></trkpt><trkpt lat="42.33075" lon="12.4475817"><ele>120.0</ele><time>2026-05-03T08:53:07.991Z</time></trkpt><trkpt lat="42.330605" lon="12.4474567"><ele>120.33333333333334</ele><time>2026-05-03T08:53:08.984Z</time></trkpt><trkpt lat="42.3304617" lon="12.447335"><ele>120.66666666666667</ele><time>2026-05-03T08:53:09.991Z</time></trkpt><trkpt lat="42.3303167" lon="12.4472083"><ele>121.0</ele><time>2026-05-03T08:53:10.989Z</time></trkpt><trkpt lat="42.330175" lon="12.4470783"><ele>120.33333333333334</ele><time>2026-05-03T08:53:11.994Z</time></trkpt><trkpt lat="42.3300317" lon="12.4469367"><ele>119.66666666666666</ele><time>2026-05-03T08:53:12.987Z</time></trkpt><trkpt lat="42.32989" lon="12.4468"><ele>119.0</ele><time>2026-05-03T08:53:13.989Z</time></trkpt><trkpt lat="42.3297467" lon="12.4466683"><ele>119.0</ele><time>2026-05-03T08:53:14.996Z</time></trkpt><trkpt lat="42.329605" lon="12.4465367"><ele>119.0</ele><time>2026-05-03T08:53:15.985Z</time></trkpt><trkpt lat="42.329465" lon="12.4464083"><ele>119.0</ele><time>2026-05-03T08:53:16.986Z</time></trkpt><trkpt lat="42.3293317" lon="12.4462733"><ele>118.66666666666666</ele><time>2026-05-03T08:53:17.986Z</time></trkpt><trkpt lat="42.329205" lon="12.446125"><ele>118.33333333333334</ele><time>2026-05-03T08:53:18.986Z</time></trkpt><trkpt lat="42.3290817" lon="12.4459683"><ele>118.0</ele><time>2026-05-03T08:53:19.985Z</time></trkpt><trkpt lat="42.328965" lon="12.4457983"><ele>118.33333333333334</ele><time>2026-05-03T08:53:20.985Z</time></trkpt><trkpt lat="42.3288483" lon="12.4456183"><ele>118.66666666666666</ele><time>2026-05-03T08:53:21.983Z</time></trkpt><trkpt lat="42.32873" lon="12.4454317"><ele>119.0</ele><time>2026-05-03T08:53:22.984Z</time></trkpt><trkpt lat="42.3286133" lon="12.44524"><ele>118.33333333333333</ele><time>2026-05-03T08:53:23.987Z</time></trkpt><trkpt lat="42.3285017" lon="12.445045"><ele>117.66666666666666</ele><time>2026-05-03T08:53:24.987Z</time></trkpt><trkpt lat="42.3283967" lon="12.4448517"><ele>117.0</ele><time>2026-05-03T08:53:25.985Z</time></trkpt><trkpt lat="42.3282983" lon="12.4446567"><ele>117.0</ele><time>2026-05-03T08:53:26.99Z</time></trkpt><trkpt lat="42.328205" lon="12.4444667"><ele>117.0</ele><time>2026-05-03T08:53:27.989Z</time></trkpt><trkpt lat="42.3281117" lon="12.444285"><ele>117.0</ele><time>2026-05-03T08:53:28.985Z</time></trkpt><trkpt lat="42.32802" lon="12.4441133"><ele>117.0</ele><time>2026-05-03T08:53:29.985Z</time></trkpt><trkpt lat="42.3279317" lon="12.4439517"><ele>117.0</ele><time>2026-05-03T08:53:30.984Z</time></trkpt><trkpt lat="42.3278483" lon="12.4438017"><ele>117.0</ele><time>2026-05-03T08:53:31.986Z</time></trkpt><trkpt lat="42.3277683" lon="12.4436633"><ele>117.0</ele><time>2026-05-03T08:53:32.984Z</time></trkpt><trkpt lat="42.3276917" lon="12.4435267"><ele>117.0</ele><time>2026-05-03T08:53:33.984Z</time></trkpt><trkpt lat="42.3276133" lon="12.4433883"><ele>117.0</ele><time>2026-05-03T08:53:34.982Z</time></trkpt><trkpt lat="42.3275333" lon="12.4432483"><ele>117.0</ele><time>2026-05-03T08:53:35.99Z</time></trkpt><trkpt lat="42.327445" lon="12.44311"><ele>117.0</ele><time>2026-05-03T08:53:36.986Z</time></trkpt><trkpt lat="42.3273617" lon="12.4429683"><ele>117.25</ele><time>2026-05-03T08:53:37.991Z</time></trkpt><trkpt lat="42.327285" lon="12.442835"><ele>117.5</ele><time>2026-05-03T08:53:38.994Z</time></trkpt><trkpt lat="42.3272167" lon="12.442705"><ele>117.75</ele><time>2026-05-03T08:53:39.985Z</time></trkpt><trkpt lat="42.32716" lon="12.44257"><ele>118.0</ele><time>2026-05-03T08:53:40.984Z</time></trkpt><trkpt lat="42.3271133" lon="12.4424233"><ele>118.0</ele><time>2026-05-03T08:53:41.988Z</time></trkpt><trkpt lat="42.3270817" lon="12.4422683"><ele>118.0</ele><time>2026-05-03T08:53:42.987Z</time></trkpt><trkpt lat="42.3270583" lon="12.4421133"><ele>118.0</ele><time>2026-05-03T08:53:43.988Z</time></trkpt><trkpt lat="42.3270433" lon="12.441965"><ele>118.0</ele><time>2026-05-03T08:53:44.987Z</time></trkpt><trkpt lat="42.3270417" lon="12.4418217"><ele>118.0</ele><time>2026-05-03T08:53:45.985Z</time></trkpt><trkpt lat="42.32704" lon="12.4416767"><ele>118.00000000000001</ele><time>2026-05-03T08:53:46.982Z</time></trkpt><trkpt lat="42.3270283" lon="12.4415417"><ele>118.00000000000001</ele><time>2026-05-03T08:53:47.99Z</time></trkpt><trkpt lat="42.3269983" lon="12.44141"><ele>118.0</ele><time>2026-05-03T08:53:48.986Z</time></trkpt><trkpt lat="42.32695" lon="12.4412967"><ele>118.0</ele><time>2026-05-03T08:53:49.99Z</time></trkpt><trkpt lat="42.3268833" lon="12.4412083"><ele>118.4</ele><time>2026-05-03T08:53:50.986Z</time></trkpt><trkpt lat="42.3268067" lon="12.441145"><ele>118.80000000000001</ele><time>2026-05-03T08:53:51.982Z</time></trkpt><trkpt lat="42.326725" lon="12.4411083"><ele>119.2</ele><time>2026-05-03T08:53:52.995Z</time></trkpt><trkpt lat="42.3266283" lon="12.44109"><ele>119.6</ele><time>2026-05-03T08:53:53.985Z</time></trkpt><trkpt lat="42.326525" lon="12.441075"><ele>120.0</ele><time>2026-05-03T08:53:54.984Z</time></trkpt><trkpt lat="42.3264167" lon="12.4410467"><ele>119.75</ele><time>2026-05-03T08:53:55.986Z</time></trkpt><trkpt lat="42.326305" lon="12.4409967"><ele>119.5</ele><time>2026-05-03T08:53:56.983Z</time></trkpt><trkpt lat="42.3262" lon="12.4409133"><ele>119.25</ele><time>2026-05-03T08:53:57.992Z</time></trkpt><trkpt lat="42.3261083" lon="12.4408017"><ele>119.0</ele><time>2026-05-03T08:53:58.983Z</time></trkpt><trkpt lat="42.326025" lon="12.4406667"><ele>119.0</ele><time>2026-05-03T08:53:59.989Z</time></trkpt><trkpt lat="42.3259433" lon="12.4405233"><ele>119.0</ele><time>2026-05-03T08:54:00.989Z</time></trkpt><trkpt lat="42.3258667" lon="12.4403783"><ele>119.0</ele><time>2026-05-03T08:54:01.987Z</time></trkpt><trkpt lat="42.3257967" lon="12.44024"><ele>119.0</ele><time>2026-05-03T08:54:02.989Z</time></trkpt><trkpt lat="42.325735" lon="12.4401117"><ele>119.80000000000001</ele><time>2026-05-03T08:54:03.986Z</time></trkpt><trkpt lat="42.3256817" lon="12.4399933"><ele>120.60000000000001</ele><time>2026-05-03T08:54:04.984Z</time></trkpt><trkpt lat="42.3256283" lon="12.4398733"><ele>121.4</ele><time>2026-05-03T08:54:05.987Z</time></trkpt><trkpt lat="42.3255717" lon="12.4397583"><ele>122.2</ele><time>2026-05-03T08:54:06.985Z</time></trkpt><trkpt lat="42.32552" lon="12.4396567"><ele>123.0</ele><time>2026-05-03T08:54:07.989Z</time></trkpt><trkpt lat="42.32548" lon="12.439575"><ele>123.2</ele><time>2026-05-03T08:54:08.984Z</time></trkpt><trkpt lat="42.325435" lon="12.4394667"><ele>123.4</ele><time>2026-05-03T08:54:10.994Z</time></trkpt><trkpt lat="42.325415" lon="12.4393817"><ele>123.60000000000001</ele><time>2026-05-03T08:56:45.984Z</time></trkpt><trkpt lat="42.3253583" lon="12.439305"><ele>123.80000000000001</ele><time>2026-05-03T08:56:47.988Z</time></trkpt><trkpt lat="42.3252783" lon="12.439155"><ele>124.0</ele><time>2026-05-03T08:56:49.991Z</time></trkpt><trkpt lat="42.3252317" lon="12.43906"><ele>124.00000000000001</ele><time>2026-05-03T08:56:50.99Z</time></trkpt><trkpt lat="42.32519" lon="12.4389633"><ele>124.0</ele><time>2026-05-03T08:56:51.989Z</time></trkpt><trkpt lat="42.3251467" lon="12.438865"><ele>124.0</ele><time>2026-05-03T08:56:52.984Z</time></trkpt><trkpt lat="42.3251033" lon="12.438765"><ele>124.0</ele><time>2026-05-03T08:56:53.996Z</time></trkpt><trkpt lat="42.3250583" lon="12.4386533"><ele>124.00000000000001</ele><time>2026-05-03T08:56:54.987Z</time></trkpt><trkpt lat="42.3250083" lon="12.4385333"><ele>124.0</ele><time>2026-05-03T08:56:55.988Z</time></trkpt><trkpt lat="42.3249533" lon="12.4384067"><ele>124.0</ele><time>2026-05-03T08:56:56.986Z</time></trkpt><trkpt lat="42.32489" lon="12.4382733"><ele>124.0</ele><time>2026-05-03T08:56:57.988Z</time></trkpt><trkpt lat="42.32482" lon="12.4381433"><ele>124.0</ele><time>2026-05-03T08:56:58.986Z</time></trkpt><trkpt lat="42.324745" lon="12.4380233"><ele>124.0</ele><time>2026-05-03T08:56:59.99Z</time></trkpt><trkpt lat="42.3246617" lon="12.4379017"><ele>124.0</ele><time>2026-05-03T08:57:00.992Z</time></trkpt><trkpt lat="42.3245667" lon="12.43778"><ele>124.0</ele><time>2026-05-03T08:57:01.992Z</time></trkpt><trkpt lat="42.3244667" lon="12.4376583"><ele>124.0</ele><time>2026-05-03T08:57:02.986Z</time></trkpt><trkpt lat="42.3243667" lon="12.43754"><ele>124.0</ele><time>2026-05-03T08:57:03.987Z</time></trkpt><trkpt lat="42.32426" lon="12.4374267"><ele>124.0</ele><time>2026-05-03T08:57:04.989Z</time></trkpt><trkpt lat="42.32415" lon="12.437315"><ele>124.0</ele><time>2026-05-03T08:57:05.987Z</time></trkpt><trkpt lat="42.3240383" lon="12.4372033"><ele>124.0</ele><time>2026-05-03T08:57:06.987Z</time></trkpt><trkpt lat="42.32392" lon="12.4370817"><ele>124.0</ele><time>2026-05-03T08:57:07.996Z</time></trkpt><trkpt lat="42.3238" lon="12.436955"><ele>123.0</ele><time>2026-05-03T08:57:08.987Z</time></trkpt><trkpt lat="42.32368" lon="12.436825"><ele>122.0</ele><time>2026-05-03T08:57:09.985Z</time></trkpt><trkpt lat="42.3235583" lon="12.436695"><ele>121.0</ele><time>2026-05-03T08:57:10.992Z</time></trkpt><trkpt lat="42.3234333" lon="12.43656"><ele>121.0</ele><time>2026-05-03T08:57:11.988Z</time></trkpt><trkpt lat="42.3233067" lon="12.4364233"><ele>121.0</ele><time>2026-05-03T08:57:12.989Z</time></trkpt><trkpt lat="42.323175" lon="12.43628"><ele>121.0</ele><time>2026-05-03T08:57:13.99Z</time></trkpt><trkpt lat="42.3230433" lon="12.4361367"><ele>118.0</ele><time>2026-05-03T08:57:14.983Z</time></trkpt><trkpt lat="42.3229133" lon="12.4359933"><ele>115.0</ele><time>2026-05-03T08:57:15.992Z</time></trkpt><trkpt lat="42.3227883" lon="12.4358567"><ele>112.0</ele><time>2026-05-03T08:57:16.989Z</time></trkpt><trkpt lat="42.3226733" lon="12.4357333"><ele>112.0</ele><time>2026-05-03T08:57:17.988Z</time></trkpt><trkpt lat="42.3225717" lon="12.435625"><ele>112.0</ele><time>2026-05-03T08:57:18.985Z</time></trkpt><trkpt lat="42.3224767" lon="12.4355333"><ele>112.0</ele><time>2026-05-03T08:57:19.992Z</time></trkpt><trkpt lat="42.3223867" lon="12.4354583"><ele>112.0</ele><time>2026-05-03T08:57:20.997Z</time></trkpt><trkpt lat="42.3223017" lon="12.4353917"><ele>112.39999999999999</ele><time>2026-05-03T08:57:21.988Z</time></trkpt><trkpt lat="42.3222133" lon="12.4353367"><ele>112.79999999999998</ele><time>2026-05-03T08:57:22.985Z</time></trkpt><trkpt lat="42.3221167" lon="12.4352983"><ele>113.2</ele><time>2026-05-03T08:57:23.988Z</time></trkpt><trkpt lat="42.3220117" lon="12.4352717"><ele>113.6</ele><time>2026-05-03T08:57:24.988Z</time></trkpt><trkpt lat="42.3219" lon="12.43526"><ele>114.0</ele><time>2026-05-03T08:57:25.99Z</time></trkpt><trkpt lat="42.3217817" lon="12.4352433"><ele>114.0</ele><time>2026-05-03T08:57:26.989Z</time></trkpt><trkpt lat="42.3216617" lon="12.4352167"><ele>114.0</ele><time>2026-05-03T08:57:27.983Z</time></trkpt><trkpt lat="42.32153" lon="12.435185"><ele>114.0</ele><time>2026-05-03T08:57:28.987Z</time></trkpt><trkpt lat="42.3213917" lon="12.43515"><ele>114.0</ele><time>2026-05-03T08:57:29.984Z</time></trkpt><trkpt lat="42.32125" lon="12.4351083"><ele>113.0</ele><time>2026-05-03T08:57:30.984Z</time></trkpt><trkpt lat="42.3211067" lon="12.43507"><ele>112.0</ele><time>2026-05-03T08:57:31.988Z</time></trkpt><trkpt lat="42.320965" lon="12.4350333"><ele>111.0</ele><time>2026-05-03T08:57:32.989Z</time></trkpt><trkpt lat="42.32082" lon="12.4349883"><ele>110.0</ele><time>2026-05-03T08:57:33.986Z</time></trkpt><trkpt lat="42.32067" lon="12.4349517"><ele>110.5</ele><time>2026-05-03T08:57:34.984Z</time></trkpt><trkpt lat="42.3205217" lon="12.43491"><ele>111.0</ele><time>2026-05-03T08:57:35.986Z</time></trkpt><trkpt lat="42.3203733" lon="12.4348683"><ele>111.5</ele><time>2026-05-03T08:57:36.987Z</time></trkpt><trkpt lat="42.3202317" lon="12.4348267"><ele>112.0</ele><time>2026-05-03T08:57:38.029Z</time></trkpt><trkpt lat="42.32009" lon="12.4347817"><ele>112.0</ele><time>2026-05-03T08:57:38.991Z</time></trkpt><trkpt lat="42.319945" lon="12.4347317"><ele>112.0</ele><time>2026-05-03T08:57:39.988Z</time></trkpt><trkpt lat="42.3197967" lon="12.4346883"><ele>112.0</ele><time>2026-05-03T08:57:40.99Z</time></trkpt><trkpt lat="42.3196433" lon="12.4346533"><ele>112.25</ele><time>2026-05-03T08:57:41.983Z</time></trkpt><trkpt lat="42.31949" lon="12.4346367"><ele>112.5</ele><time>2026-05-03T08:57:42.986Z</time></trkpt><trkpt lat="42.3193433" lon="12.434645"><ele>112.75</ele><time>2026-05-03T08:57:43.987Z</time></trkpt><trkpt lat="42.3192" lon="12.43468"><ele>113.0</ele><time>2026-05-03T08:57:44.986Z</time></trkpt><trkpt lat="42.3190633" lon="12.4347417"><ele>112.0</ele><time>2026-05-03T08:57:45.986Z</time></trkpt><trkpt lat="42.31893" lon="12.4348417"><ele>111.0</ele><time>2026-05-03T08:57:46.988Z</time></trkpt><trkpt lat="42.31881" lon="12.4349783"><ele>110.0</ele><time>2026-05-03T08:57:47.985Z</time></trkpt><trkpt lat="42.3187017" lon="12.435145"><ele>107.0</ele><time>2026-05-03T08:57:48.988Z</time></trkpt><trkpt lat="42.3185933" lon="12.43533"><ele>104.0</ele><time>2026-05-03T08:57:49.986Z</time></trkpt><trkpt lat="42.31849" lon="12.4355217"><ele>101.0</ele><time>2026-05-03T08:57:50.988Z</time></trkpt><trkpt lat="42.3183833" lon="12.43572"><ele>100.0</ele><time>2026-05-03T08:57:51.985Z</time></trkpt><trkpt lat="42.3182733" lon="12.4359033"><ele>99.0</ele><time>2026-05-03T08:57:52.988Z</time></trkpt><trkpt lat="42.31816" lon="12.4360633"><ele>98.0</ele><time>2026-05-03T08:57:53.992Z</time></trkpt><trkpt lat="42.31803" lon="12.4361967"><ele>97.33333333333333</ele><time>2026-05-03T08:57:54.987Z</time></trkpt><trkpt lat="42.3178817" lon="12.4363"><ele>96.66666666666666</ele><time>2026-05-03T08:57:55.987Z</time></trkpt><trkpt lat="42.3177067" lon="12.4363667"><ele>96.0</ele><time>2026-05-03T08:57:56.986Z</time></trkpt><trkpt lat="42.3175167" lon="12.4364017"><ele>96.0</ele><time>2026-05-03T08:57:57.983Z</time></trkpt><trkpt lat="42.3173217" lon="12.436435"><ele>96.0</ele><time>2026-05-03T08:57:58.987Z</time></trkpt><trkpt lat="42.31713" lon="12.436475"><ele>96.0</ele><time>2026-05-03T08:57:59.988Z</time></trkpt><trkpt lat="42.3169467" lon="12.4365283"><ele>91.33333333333333</ele><time>2026-05-03T08:58:00.985Z</time></trkpt><trkpt lat="42.31677" lon="12.4366"><ele>86.66666666666666</ele><time>2026-05-03T08:58:01.986Z</time></trkpt><trkpt lat="42.31662" lon="12.4367067"><ele>82.0</ele><time>2026-05-03T08:58:02.988Z</time></trkpt><trkpt lat="42.31649" lon="12.4368617"><ele>78.33333333333333</ele><time>2026-05-03T08:58:03.99Z</time></trkpt><trkpt lat="42.3163583" lon="12.437035"><ele>74.66666666666667</ele><time>2026-05-03T08:58:04.989Z</time></trkpt><trkpt lat="42.31624" lon="12.4372367"><ele>71.0</ele><time>2026-05-03T08:58:05.986Z</time></trkpt><trkpt lat="42.3161283" lon="12.437455"><ele>71.0</ele><time>2026-05-03T08:58:06.986Z</time></trkpt><trkpt lat="42.316015" lon="12.4376883"><ele>71.0</ele><time>2026-05-03T08:58:07.988Z</time></trkpt><trkpt lat="42.3158783" lon="12.43793"><ele>71.0</ele><time>2026-05-03T08:58:08.987Z</time></trkpt><trkpt lat="42.3157333" lon="12.43817"><ele>71.0</ele><time>2026-05-03T08:58:09.987Z</time></trkpt><trkpt lat="42.3155917" lon="12.438405"><ele>71.0</ele><time>2026-05-03T08:58:10.988Z</time></trkpt><trkpt lat="42.3154567" lon="12.4386467"><ele>71.0</ele><time>2026-05-03T08:58:11.986Z</time></trkpt><trkpt lat="42.3153233" lon="12.4388917"><ele>70.33333333333334</ele><time>2026-05-03T08:58:12.984Z</time></trkpt><trkpt lat="42.315195" lon="12.439125"><ele>69.66666666666667</ele><time>2026-05-03T08:58:13.99Z</time></trkpt><trkpt lat="42.3150717" lon="12.439345"><ele>69.0</ele><time>2026-05-03T08:58:14.986Z</time></trkpt><trkpt lat="42.314965" lon="12.4395633"><ele>70.33333333333333</ele><time>2026-05-03T08:58:15.989Z</time></trkpt><trkpt lat="42.3148733" lon="12.4397917"><ele>71.66666666666666</ele><time>2026-05-03T08:58:16.985Z</time></trkpt><trkpt lat="42.3148" lon="12.4400283"><ele>73.0</ele><time>2026-05-03T08:58:17.989Z</time></trkpt><trkpt lat="42.31475" lon="12.44027"><ele>70.0</ele><time>2026-05-03T08:58:18.987Z</time></trkpt><trkpt lat="42.3147" lon="12.4405067"><ele>67.0</ele><time>2026-05-03T08:58:19.989Z</time></trkpt><trkpt lat="42.3146383" lon="12.4407117"><ele>64.0</ele><time>2026-05-03T08:58:20.986Z</time></trkpt><trkpt lat="42.3145417" lon="12.44088"><ele>64.0</ele><time>2026-05-03T08:58:21.992Z</time></trkpt><trkpt lat="42.314425" lon="12.44101"><ele>64.0</ele><time>2026-05-03T08:58:22.986Z</time></trkpt><trkpt lat="42.3142833" lon="12.4410983"><ele>64.0</ele><time>2026-05-03T08:58:23.982Z</time></trkpt><trkpt lat="42.31412" lon="12.441155"><ele>64.0</ele><time>2026-05-03T08:58:24.987Z</time></trkpt><trkpt lat="42.3139383" lon="12.4411967"><ele>64.0</ele><time>2026-05-03T08:58:25.984Z</time></trkpt><trkpt lat="42.3137483" lon="12.441245"><ele>64.0</ele><time>2026-05-03T08:58:26.986Z</time></trkpt><trkpt lat="42.3135517" lon="12.4412817"><ele>66.0</ele><time>2026-05-03T08:58:27.985Z</time></trkpt><trkpt lat="42.3133583" lon="12.4413317"><ele>68.0</ele><time>2026-05-03T08:58:28.984Z</time></trkpt><trkpt lat="42.3131667" lon="12.4413833"><ele>70.0</ele><time>2026-05-03T08:58:29.984Z</time></trkpt><trkpt lat="42.3129817" lon="12.441425"><ele>70.33333333333333</ele><time>2026-05-03T08:58:30.99Z</time></trkpt><trkpt lat="42.312795" lon="12.4414467"><ele>70.66666666666667</ele><time>2026-05-03T08:58:31.986Z</time></trkpt><trkpt lat="42.3126033" lon="12.44144"><ele>71.0</ele><time>2026-05-03T08:58:32.983Z</time></trkpt><trkpt lat="42.3123967" lon="12.4414167"><ele>68.0</ele><time>2026-05-03T08:58:33.987Z</time></trkpt><trkpt lat="42.312185" lon="12.4413833"><ele>65.0</ele><time>2026-05-03T08:58:34.988Z</time></trkpt><trkpt lat="42.3119733" lon="12.4413517"><ele>62.0</ele><time>2026-05-03T08:58:35.989Z</time></trkpt><trkpt lat="42.31176" lon="12.44132"><ele>61.333333333333336</ele><time>2026-05-03T08:58:36.986Z</time></trkpt><trkpt lat="42.3115567" lon="12.4412917"><ele>60.66666666666667</ele><time>2026-05-03T08:58:37.988Z</time></trkpt><trkpt lat="42.3113617" lon="12.4412783"><ele>60.0</ele><time>2026-05-03T08:58:38.987Z</time></trkpt><trkpt lat="42.311185" lon="12.441275"><ele>60.0</ele><time>2026-05-03T08:58:39.986Z</time></trkpt><trkpt lat="42.3110167" lon="12.4412817"><ele>60.0</ele><time>2026-05-03T08:58:40.985Z</time></trkpt><trkpt lat="42.3108567" lon="12.4413067"><ele>60.0</ele><time>2026-05-03T08:58:41.985Z</time></trkpt><trkpt lat="42.3106967" lon="12.441375"><ele>60.66666666666667</ele><time>2026-05-03T08:58:42.986Z</time></trkpt><trkpt lat="42.310545" lon="12.4414817"><ele>61.333333333333336</ele><time>2026-05-03T08:58:43.985Z</time></trkpt><trkpt lat="42.3104167" lon="12.4416333"><ele>62.0</ele><time>2026-05-03T08:58:44.986Z</time></trkpt><trkpt lat="42.3103083" lon="12.4418167"><ele>62.0</ele><time>2026-05-03T08:58:45.984Z</time></trkpt><trkpt lat="42.31022" lon="12.4420233"><ele>62.0</ele><time>2026-05-03T08:58:46.987Z</time></trkpt><trkpt lat="42.3101433" lon="12.4422467"><ele>62.0</ele><time>2026-05-03T08:58:47.992Z</time></trkpt><trkpt lat="42.3100767" lon="12.4424867"><ele>60.0</ele><time>2026-05-03T08:58:48.988Z</time></trkpt><trkpt lat="42.31001" lon="12.442735"><ele>58.0</ele><time>2026-05-03T08:58:49.987Z</time></trkpt><trkpt lat="42.3099333" lon="12.442985"><ele>56.0</ele><time>2026-05-03T08:58:50.988Z</time></trkpt><trkpt lat="42.3098533" lon="12.4432283"><ele>54.0</ele><time>2026-05-03T08:58:51.985Z</time></trkpt><trkpt lat="42.3097633" lon="12.443445"><ele>52.0</ele><time>2026-05-03T08:58:52.989Z</time></trkpt><trkpt lat="42.309665" lon="12.44364"><ele>50.0</ele><time>2026-05-03T08:58:53.988Z</time></trkpt><trkpt lat="42.3095517" lon="12.4438167"><ele>50.0</ele><time>2026-05-03T08:58:54.989Z</time></trkpt><trkpt lat="42.309415" lon="12.443975"><ele>50.0</ele><time>2026-05-03T08:58:55.991Z</time></trkpt><trkpt lat="42.3092617" lon="12.4441183"><ele>50.0</ele><time>2026-05-03T08:58:56.987Z</time></trkpt><trkpt lat="42.3090967" lon="12.4442183"><ele>50.0</ele><time>2026-05-03T08:58:57.985Z</time></trkpt><trkpt lat="42.3089217" lon="12.444285"><ele>50.0</ele><time>2026-05-03T08:58:58.992Z</time></trkpt><trkpt lat="42.3087417" lon="12.44431"><ele>50.0</ele><time>2026-05-03T08:58:59.991Z</time></trkpt><trkpt lat="42.3085517" lon="12.4443067"><ele>50.0</ele><time>2026-05-03T08:59:00.989Z</time></trkpt><trkpt lat="42.3083533" lon="12.4442667"><ele>50.0</ele><time>2026-05-03T08:59:01.986Z</time></trkpt><trkpt lat="42.308155" lon="12.4441883"><ele>50.0</ele><time>2026-05-03T08:59:02.983Z</time></trkpt><trkpt lat="42.30796" lon="12.4440767"><ele>50.333333333333336</ele><time>2026-05-03T08:59:03.989Z</time></trkpt><trkpt lat="42.30777" lon="12.44394"><ele>50.66666666666667</ele><time>2026-05-03T08:59:04.986Z</time></trkpt><trkpt lat="42.30758" lon="12.4438033"><ele>51.0</ele><time>2026-05-03T08:59:05.99Z</time></trkpt><trkpt lat="42.3073933" lon="12.4436783"><ele>49.666666666666664</ele><time>2026-05-03T08:59:06.992Z</time></trkpt><trkpt lat="42.3072033" lon="12.44355"><ele>48.33333333333333</ele><time>2026-05-03T08:59:07.988Z</time></trkpt><trkpt lat="42.3070117" lon="12.443425"><ele>47.0</ele><time>2026-05-03T08:59:08.986Z</time></trkpt><trkpt lat="42.3068217" lon="12.443305"><ele>47.0</ele><time>2026-05-03T08:59:09.987Z</time></trkpt><trkpt lat="42.3066367" lon="12.4431867"><ele>47.0</ele><time>2026-05-03T08:59:10.99Z</time></trkpt><trkpt lat="42.3064467" lon="12.4430683"><ele>47.0</ele><time>2026-05-03T08:59:11.984Z</time></trkpt><trkpt lat="42.306255" lon="12.4429433"><ele>47.0</ele><time>2026-05-03T08:59:12.986Z</time></trkpt><trkpt lat="42.30606" lon="12.4428183"><ele>47.0</ele><time>2026-05-03T08:59:13.987Z</time></trkpt><trkpt lat="42.30586" lon="12.4426967"><ele>47.0</ele><time>2026-05-03T08:59:14.985Z</time></trkpt><trkpt lat="42.3056617" lon="12.442575"><ele>46.0</ele><time>2026-05-03T08:59:15.988Z</time></trkpt><trkpt lat="42.3054633" lon="12.4424517"><ele>45.0</ele><time>2026-05-03T08:59:16.989Z</time></trkpt><trkpt lat="42.3052733" lon="12.442335"><ele>44.0</ele><time>2026-05-03T08:59:17.989Z</time></trkpt><trkpt lat="42.3050933" lon="12.4422183"><ele>44.666666666666664</ele><time>2026-05-03T08:59:18.985Z</time></trkpt><trkpt lat="42.304925" lon="12.442085"><ele>45.333333333333336</ele><time>2026-05-03T08:59:19.99Z</time></trkpt><trkpt lat="42.3047617" lon="12.4419367"><ele>46.0</ele><time>2026-05-03T08:59:20.986Z</time></trkpt><trkpt lat="42.3046033" lon="12.4417667"><ele>46.0</ele><time>2026-05-03T08:59:21.989Z</time></trkpt><trkpt lat="42.3044433" lon="12.4415833"><ele>46.0</ele><time>2026-05-03T08:59:22.985Z</time></trkpt><trkpt lat="42.3042833" lon="12.4413967"><ele>46.0</ele><time>2026-05-03T08:59:23.993Z</time></trkpt><trkpt lat="42.3041233" lon="12.4412067"><ele>46.0</ele><time>2026-05-03T08:59:24.988Z</time></trkpt><trkpt lat="42.30396" lon="12.4410233"><ele>46.0</ele><time>2026-05-03T08:59:25.985Z</time></trkpt><trkpt lat="42.3037933" lon="12.4408433"><ele>46.0</ele><time>2026-05-03T08:59:26.991Z</time></trkpt><trkpt lat="42.303625" lon="12.440655"><ele>46.333333333333336</ele><time>2026-05-03T08:59:27.985Z</time></trkpt><trkpt lat="42.303455" lon="12.44046"><ele>46.666666666666664</ele><time>2026-05-03T08:59:28.988Z</time></trkpt><trkpt lat="42.3032817" lon="12.440265"><ele>47.0</ele><time>2026-05-03T08:59:29.993Z</time></trkpt><trkpt lat="42.3031083" lon="12.44007"><ele>45.5</ele><time>2026-05-03T08:59:30.986Z</time></trkpt><trkpt lat="42.3029333" lon="12.43987"><ele>44.0</ele><time>2026-05-03T08:59:31.988Z</time></trkpt><trkpt lat="42.30276" lon="12.4396667"><ele>46.0</ele><time>2026-05-03T08:59:32.986Z</time></trkpt><trkpt lat="42.3025817" lon="12.439465"><ele>48.0</ele><time>2026-05-03T08:59:33.984Z</time></trkpt><trkpt lat="42.302405" lon="12.4392633"><ele>47.0</ele><time>2026-05-03T08:59:34.988Z</time></trkpt><trkpt lat="42.3022283" lon="12.43906"><ele>46.0</ele><time>2026-05-03T08:59:35.989Z</time></trkpt><trkpt lat="42.3020517" lon="12.438855"><ele>47.0</ele><time>2026-05-03T08:59:36.987Z</time></trkpt><trkpt lat="42.3018717" lon="12.4386517"><ele>48.0</ele><time>2026-05-03T08:59:37.987Z</time></trkpt><trkpt lat="42.3016917" lon="12.4384533"><ele>48.0</ele><time>2026-05-03T08:59:38.988Z</time></trkpt><trkpt lat="42.3015133" lon="12.4382533"><ele>48.0</ele><time>2026-05-03T08:59:39.987Z</time></trkpt><trkpt lat="42.3013367" lon="12.4380533"><ele>47.0</ele><time>2026-05-03T08:59:40.988Z</time></trkpt><trkpt lat="42.30116" lon="12.4378533"><ele>46.0</ele><time>2026-05-03T08:59:41.987Z</time></trkpt><trkpt lat="42.3009833" lon="12.437655"><ele>46.0</ele><time>2026-05-03T08:59:42.991Z</time></trkpt><trkpt lat="42.3008083" lon="12.4374617"><ele>46.0</ele><time>2026-05-03T08:59:43.989Z</time></trkpt><trkpt lat="42.3006367" lon="12.4372683"><ele>46.0</ele><time>2026-05-03T08:59:44.987Z</time></trkpt><trkpt lat="42.300465" lon="12.4370733"><ele>46.333333333333336</ele><time>2026-05-03T08:59:45.985Z</time></trkpt><trkpt lat="42.3002967" lon="12.4368767"><ele>46.666666666666664</ele><time>2026-05-03T08:59:46.99Z</time></trkpt><trkpt lat="42.3001267" lon="12.4366833"><ele>47.0</ele><time>2026-05-03T08:59:47.987Z</time></trkpt><trkpt lat="42.2999583" lon="12.4364917"><ele>46.666666666666664</ele><time>2026-05-03T08:59:48.99Z</time></trkpt><trkpt lat="42.2997883" lon="12.4362983"><ele>46.333333333333336</ele><time>2026-05-03T08:59:49.983Z</time></trkpt><trkpt lat="42.2996183" lon="12.436105"><ele>46.0</ele><time>2026-05-03T08:59:50.985Z</time></trkpt><trkpt lat="42.2994483" lon="12.4359117"><ele>46.0</ele><time>2026-05-03T08:59:51.985Z</time></trkpt><trkpt lat="42.2992783" lon="12.4357133"><ele>46.0</ele><time>2026-05-03T08:59:52.988Z</time></trkpt><trkpt lat="42.29911" lon="12.4355083"><ele>45.66666666666667</ele><time>2026-05-03T08:59:53.984Z</time></trkpt><trkpt lat="42.2989517" lon="12.4352967"><ele>45.333333333333336</ele><time>2026-05-03T08:59:54.988Z</time></trkpt><trkpt lat="42.2987983" lon="12.4350717"><ele>45.0</ele><time>2026-05-03T08:59:55.998Z</time></trkpt><trkpt lat="42.29865" lon="12.4348283"><ele>47.0</ele><time>2026-05-03T08:59:56.989Z</time></trkpt><trkpt lat="42.2985067" lon="12.4345833"><ele>49.0</ele><time>2026-05-03T08:59:57.99Z</time></trkpt><trkpt lat="42.29837" lon="12.43433"><ele>49.0</ele><time>2026-05-03T08:59:58.986Z</time></trkpt><trkpt lat="42.2982367" lon="12.434075"><ele>49.0</ele><time>2026-05-03T08:59:59.987Z</time></trkpt><trkpt lat="42.29811" lon="12.43381"><ele>48.0</ele><time>2026-05-03T09:00:00.984Z</time></trkpt><trkpt lat="42.2979867" lon="12.4335417"><ele>47.0</ele><time>2026-05-03T09:00:01.988Z</time></trkpt><trkpt lat="42.2978667" lon="12.4332733"><ele>47.0</ele><time>2026-05-03T09:00:02.994Z</time></trkpt><trkpt lat="42.29775" lon="12.4330083"><ele>47.0</ele><time>2026-05-03T09:00:03.984Z</time></trkpt><trkpt lat="42.2976333" lon="12.4327433"><ele>49.33333333333333</ele><time>2026-05-03T09:00:04.987Z</time></trkpt><trkpt lat="42.2975183" lon="12.43248"><ele>51.666666666666664</ele><time>2026-05-03T09:00:05.988Z</time></trkpt><trkpt lat="42.2974017" lon="12.4322233"><ele>54.0</ele><time>2026-05-03T09:00:06.989Z</time></trkpt><trkpt lat="42.297295" lon="12.4319733"><ele>52.0</ele><time>2026-05-03T09:00:07.989Z</time></trkpt><trkpt lat="42.2971833" lon="12.4317367"><ele>50.0</ele><time>2026-05-03T09:00:08.99Z</time></trkpt><trkpt lat="42.2970667" lon="12.4315133"><ele>48.0</ele><time>2026-05-03T09:00:09.987Z</time></trkpt><trkpt lat="42.2969317" lon="12.4313083"><ele>49.33333333333333</ele><time>2026-05-03T09:00:10.987Z</time></trkpt><trkpt lat="42.2967817" lon="12.4311267"><ele>50.666666666666664</ele><time>2026-05-03T09:00:11.989Z</time></trkpt><trkpt lat="42.296615" lon="12.4309683"><ele>52.0</ele><time>2026-05-03T09:00:12.988Z</time></trkpt><trkpt lat="42.2964483" lon="12.4308233"><ele>51.0</ele><time>2026-05-03T09:00:13.989Z</time></trkpt><trkpt lat="42.29628" lon="12.4306767"><ele>50.0</ele><time>2026-05-03T09:00:14.989Z</time></trkpt><trkpt lat="42.296115" lon="12.4305467"><ele>49.0</ele><time>2026-05-03T09:00:15.986Z</time></trkpt><trkpt lat="42.29597" lon="12.4304183"><ele>48.33333333333333</ele><time>2026-05-03T09:00:16.987Z</time></trkpt><trkpt lat="42.2958433" lon="12.4302867"><ele>47.666666666666664</ele><time>2026-05-03T09:00:17.988Z</time></trkpt><trkpt lat="42.295735" lon="12.4301283"><ele>47.0</ele><time>2026-05-03T09:00:19.001Z</time></trkpt><trkpt lat="42.2956533" lon="12.4299467"><ele>47.0</ele><time>2026-05-03T09:00:19.987Z</time></trkpt><trkpt lat="42.2955783" lon="12.4297367"><ele>47.0</ele><time>2026-05-03T09:00:20.989Z</time></trkpt><trkpt lat="42.2955033" lon="12.4295067"><ele>47.0</ele><time>2026-05-03T09:00:21.984Z</time></trkpt><trkpt lat="42.295415" lon="12.4292833"><ele>47.0</ele><time>2026-05-03T09:00:22.996Z</time></trkpt><trkpt lat="42.295315" lon="12.429095"><ele>47.0</ele><time>2026-05-03T09:00:23.987Z</time></trkpt><trkpt lat="42.2952033" lon="12.428945"><ele>47.0</ele><time>2026-05-03T09:00:24.987Z</time></trkpt><trkpt lat="42.295075" lon="12.428835"><ele>50.33333333333333</ele><time>2026-05-03T09:00:25.988Z</time></trkpt><trkpt lat="42.29493" lon="12.4287567"><ele>53.666666666666664</ele><time>2026-05-03T09:00:26.989Z</time></trkpt><trkpt lat="42.2947783" lon="12.4287133"><ele>57.0</ele><time>2026-05-03T09:00:27.982Z</time></trkpt><trkpt lat="42.2946267" lon="12.42871"><ele>60.0</ele><time>2026-05-03T09:00:28.987Z</time></trkpt><trkpt lat="42.2944783" lon="12.4287217"><ele>63.0</ele><time>2026-05-03T09:00:29.987Z</time></trkpt><trkpt lat="42.2943283" lon="12.4287383"><ele>66.0</ele><time>2026-05-03T09:00:30.989Z</time></trkpt><trkpt lat="42.2941733" lon="12.428755"><ele>66.0</ele><time>2026-05-03T09:00:31.992Z</time></trkpt><trkpt lat="42.2940233" lon="12.428755"><ele>66.0</ele><time>2026-05-03T09:00:32.992Z</time></trkpt><trkpt lat="42.2938767" lon="12.4287317"><ele>66.0</ele><time>2026-05-03T09:00:33.992Z</time></trkpt><trkpt lat="42.2937283" lon="12.4286833"><ele>64.66666666666667</ele><time>2026-05-03T09:00:34.987Z</time></trkpt><trkpt lat="42.2935833" lon="12.42861"><ele>63.333333333333336</ele><time>2026-05-03T09:00:35.992Z</time></trkpt><trkpt lat="42.293435" lon="12.4285233"><ele>62.0</ele><time>2026-05-03T09:00:36.99Z</time></trkpt><trkpt lat="42.2932917" lon="12.4284367"><ele>62.0</ele><time>2026-05-03T09:00:37.987Z</time></trkpt><trkpt lat="42.2931583" lon="12.4283517"><ele>62.0</ele><time>2026-05-03T09:00:38.99Z</time></trkpt><trkpt lat="42.29304" lon="12.4282783"><ele>62.0</ele><time>2026-05-03T09:00:39.988Z</time></trkpt><trkpt lat="42.29294" lon="12.4281983"><ele>62.0</ele><time>2026-05-03T09:00:40.991Z</time></trkpt><trkpt lat="42.2928417" lon="12.4281183"><ele>59.5</ele><time>2026-05-03T09:00:41.991Z</time></trkpt><trkpt lat="42.29274" lon="12.42804"><ele>57.0</ele><time>2026-05-03T09:00:42.991Z</time></trkpt><trkpt lat="42.29263" lon="12.4279767"><ele>54.5</ele><time>2026-05-03T09:00:43.983Z</time></trkpt><trkpt lat="42.2925183" lon="12.42794"><ele>52.0</ele><time>2026-05-03T09:00:44.991Z</time></trkpt><trkpt lat="42.2924017" lon="12.4279133"><ele>52.0</ele><time>2026-05-03T09:00:45.99Z</time></trkpt><trkpt lat="42.2922783" lon="12.4279017"><ele>52.0</ele><time>2026-05-03T09:00:46.984Z</time></trkpt><trkpt lat="42.29215" lon="12.4279017"><ele>52.0</ele><time>2026-05-03T09:00:47.987Z</time></trkpt><trkpt lat="42.2920167" lon="12.4279183"><ele>52.0</ele><time>2026-05-03T09:00:48.988Z</time></trkpt><trkpt lat="42.29188" lon="12.4279283"><ele>51.75</ele><time>2026-05-03T09:00:49.987Z</time></trkpt><trkpt lat="42.29174" lon="12.427935"><ele>51.5</ele><time>2026-05-03T09:00:51.004Z</time></trkpt><trkpt lat="42.2916" lon="12.4279417"><ele>51.25</ele><time>2026-05-03T09:00:51.991Z</time></trkpt><trkpt lat="42.2914683" lon="12.4279383"><ele>51.0</ele><time>2026-05-03T09:00:52.985Z</time></trkpt><trkpt lat="42.2913433" lon="12.42792"><ele>54.199999999999996</ele><time>2026-05-03T09:00:53.986Z</time></trkpt><trkpt lat="42.29123" lon="12.4278883"><ele>57.4</ele><time>2026-05-03T09:00:54.984Z</time></trkpt><trkpt lat="42.2911283" lon="12.4278383"><ele>60.6</ele><time>2026-05-03T09:00:55.991Z</time></trkpt><trkpt lat="42.2910433" lon="12.4277567"><ele>63.8</ele><time>2026-05-03T09:00:56.985Z</time></trkpt><trkpt lat="42.2909733" lon="12.42765"><ele>67.0</ele><time>2026-05-03T09:00:57.985Z</time></trkpt><trkpt lat="42.2909217" lon="12.427515"><ele>67.0</ele><time>2026-05-03T09:00:58.986Z</time></trkpt><trkpt lat="42.2908783" lon="12.427375"><ele>67.0</ele><time>2026-05-03T09:00:59.988Z</time></trkpt><trkpt lat="42.2908417" lon="12.42723"><ele>67.0</ele><time>2026-05-03T09:01:00.988Z</time></trkpt><trkpt lat="42.2908083" lon="12.427095"><ele>67.0</ele><time>2026-05-03T09:01:01.985Z</time></trkpt><trkpt lat="42.290775" lon="12.42698"><ele>67.0</ele><time>2026-05-03T09:01:02.982Z</time></trkpt><trkpt lat="42.2907417" lon="12.4268817"><ele>66.5</ele><time>2026-05-03T09:01:03.982Z</time></trkpt><trkpt lat="42.2907133" lon="12.4267967"><ele>66.0</ele><time>2026-05-03T09:01:04.984Z</time></trkpt><trkpt lat="42.2906867" lon="12.426685"><ele>65.5</ele><time>2026-05-03T09:01:06.983Z</time></trkpt><trkpt lat="42.2906717" lon="12.4267983"><ele>65.0</ele><time>2026-05-03T09:01:22.992Z</time></trkpt><trkpt lat="42.2906783" lon="12.4269367"><ele>64.5</ele><time>2026-05-03T09:01:24.985Z</time></trkpt><trkpt lat="42.2907067" lon="12.4270333"><ele>64.0</ele><time>2026-05-03T09:01:25.991Z</time></trkpt><trkpt lat="42.2907383" lon="12.4271433"><ele>64.60000000000001</ele><time>2026-05-03T09:01:26.987Z</time></trkpt><trkpt lat="42.2907683" lon="12.4272667"><ele>65.2</ele><time>2026-05-03T09:01:27.989Z</time></trkpt><trkpt lat="42.2908083" lon="12.427405"><ele>65.80000000000001</ele><time>2026-05-03T09:01:28.99Z</time></trkpt><trkpt lat="42.2908567" lon="12.42755"><ele>66.4</ele><time>2026-05-03T09:01:29.986Z</time></trkpt><trkpt lat="42.2909183" lon="12.427685"><ele>67.0</ele><time>2026-05-03T09:01:30.991Z</time></trkpt><trkpt lat="42.2910033" lon="12.427805"><ele>67.0</ele><time>2026-05-03T09:01:31.986Z</time></trkpt><trkpt lat="42.2911083" lon="12.4278933"><ele>67.0</ele><time>2026-05-03T09:01:32.986Z</time></trkpt><trkpt lat="42.2912267" lon="12.42795"><ele>67.0</ele><time>2026-05-03T09:01:33.986Z</time></trkpt><trkpt lat="42.2913583" lon="12.427975"><ele>67.0</ele><time>2026-05-03T09:01:34.985Z</time></trkpt><trkpt lat="42.2915033" lon="12.4279867"><ele>62.666666666666664</ele><time>2026-05-03T09:01:35.992Z</time></trkpt><trkpt lat="42.291655" lon="12.4279883"><ele>58.33333333333333</ele><time>2026-05-03T09:01:36.987Z</time></trkpt><trkpt lat="42.29181" lon="12.4279817"><ele>54.0</ele><time>2026-05-03T09:01:37.992Z</time></trkpt><trkpt lat="42.2919667" lon="12.427975"><ele>53.5</ele><time>2026-05-03T09:01:38.993Z</time></trkpt><trkpt lat="42.2921183" lon="12.42797"><ele>53.0</ele><time>2026-05-03T09:01:39.983Z</time></trkpt><trkpt lat="42.2922617" lon="12.4279683"><ele>52.5</ele><time>2026-05-03T09:01:40.989Z</time></trkpt><trkpt lat="42.2923917" lon="12.4279767"><ele>52.0</ele><time>2026-05-03T09:01:41.987Z</time></trkpt><trkpt lat="42.29251" lon="12.4280017"><ele>52.0</ele><time>2026-05-03T09:01:42.983Z</time></trkpt><trkpt lat="42.2926183" lon="12.4280417"><ele>52.0</ele><time>2026-05-03T09:01:43.99Z</time></trkpt><trkpt lat="42.2927117" lon="12.4280867"><ele>52.0</ele><time>2026-05-03T09:01:44.989Z</time></trkpt><trkpt lat="42.2927883" lon="12.4281317"><ele>52.0</ele><time>2026-05-03T09:01:45.986Z</time></trkpt><trkpt lat="42.2928517" lon="12.42817"><ele>52.0</ele><time>2026-05-03T09:01:46.989Z</time></trkpt><trkpt lat="42.2929617" lon="12.4282033"><ele>53.666666666666664</ele><time>2026-05-03T09:01:48.988Z</time></trkpt><trkpt lat="42.2930917" lon="12.4282083"><ele>55.33333333333333</ele><time>2026-05-03T09:01:50.988Z</time></trkpt><trkpt lat="42.2931633" lon="12.42823"><ele>57.0</ele><time>2026-05-03T09:01:51.993Z</time></trkpt><trkpt lat="42.2932367" lon="12.42826"><ele>58.66666666666667</ele><time>2026-05-03T09:01:52.987Z</time></trkpt><trkpt lat="42.2933133" lon="12.4282667"><ele>60.333333333333336</ele><time>2026-05-03T09:01:53.99Z</time></trkpt><trkpt lat="42.2933883" lon="12.42825"><ele>62.0</ele><time>2026-05-03T09:01:54.989Z</time></trkpt><trkpt lat="42.29345" lon="12.4281933"><ele>62.0</ele><time>2026-05-03T09:01:55.989Z</time></trkpt><trkpt lat="42.29349" lon="12.4280917"><ele>62.0</ele><time>2026-05-03T09:01:56.986Z</time></trkpt><trkpt lat="42.2934817" lon="12.42795"><ele>62.0</ele><time>2026-05-03T09:01:57.984Z</time></trkpt><trkpt lat="42.2934517" lon="12.4278083"><ele>62.0</ele><time>2026-05-03T09:01:58.986Z</time></trkpt><trkpt lat="42.2934083" lon="12.4276633"><ele>62.0</ele><time>2026-05-03T09:01:59.987Z</time></trkpt><trkpt lat="42.2933583" lon="12.4275117"><ele>64.75</ele><time>2026-05-03T09:02:00.995Z</time></trkpt><trkpt lat="42.2933117" lon="12.4273433"><ele>67.5</ele><time>2026-05-03T09:02:01.99Z</time></trkpt><trkpt lat="42.2932717" lon="12.4271517"><ele>70.25</ele><time>2026-05-03T09:02:02.989Z</time></trkpt><trkpt lat="42.2932383" lon="12.42696"><ele>73.0</ele><time>2026-05-03T09:02:03.992Z</time></trkpt><trkpt lat="42.293215" lon="12.4267667"><ele>75.33333333333333</ele><time>2026-05-03T09:02:04.985Z</time></trkpt><trkpt lat="42.2931967" lon="12.4265633"><ele>77.66666666666667</ele><time>2026-05-03T09:02:05.987Z</time></trkpt><trkpt lat="42.293175" lon="12.4263533"><ele>80.0</ele><time>2026-05-03T09:02:06.993Z</time></trkpt><trkpt lat="42.2931517" lon="12.42614"><ele>83.0</ele><time>2026-05-03T09:02:07.987Z</time></trkpt><trkpt lat="42.2931167" lon="12.4259233"><ele>86.0</ele><time>2026-05-03T09:02:08.989Z</time></trkpt><trkpt lat="42.293075" lon="12.425705"><ele>89.0</ele><time>2026-05-03T09:02:09.986Z</time></trkpt><trkpt lat="42.29303" lon="12.4254817"><ele>79.0</ele><time>2026-05-03T09:02:10.991Z</time></trkpt><trkpt lat="42.29299" lon="12.4252533"><ele>69.0</ele><time>2026-05-03T09:02:11.996Z</time></trkpt><trkpt lat="42.29296" lon="12.4250233"><ele>59.0</ele><time>2026-05-03T09:02:12.99Z</time></trkpt><trkpt lat="42.2929333" lon="12.4247967"><ele>60.66666666666667</ele><time>2026-05-03T09:02:13.987Z</time></trkpt><trkpt lat="42.2929167" lon="12.4245783"><ele>62.33333333333333</ele><time>2026-05-03T09:02:14.99Z</time></trkpt><trkpt lat="42.292895" lon="12.4243667"><ele>64.0</ele><time>2026-05-03T09:02:15.986Z</time></trkpt><trkpt lat="42.2928617" lon="12.424155"><ele>64.0</ele><time>2026-05-03T09:02:16.986Z</time></trkpt><trkpt lat="42.292805" lon="12.42395"><ele>64.0</ele><time>2026-05-03T09:02:17.984Z</time></trkpt><trkpt lat="42.292735" lon="12.4237467"><ele>64.0</ele><time>2026-05-03T09:02:18.984Z</time></trkpt><trkpt lat="42.292665" lon="12.42354"><ele>68.0</ele><time>2026-05-03T09:02:19.991Z</time></trkpt><trkpt lat="42.2925933" lon="12.4233317"><ele>72.0</ele><time>2026-05-03T09:02:20.989Z</time></trkpt><trkpt lat="42.2925283" lon="12.423115"><ele>76.0</ele><time>2026-05-03T09:02:21.987Z</time></trkpt><trkpt lat="42.29247" lon="12.4229017"><ele>73.75</ele><time>2026-05-03T09:02:22.987Z</time></trkpt><trkpt lat="42.2924133" lon="12.4227017"><ele>71.5</ele><time>2026-05-03T09:02:23.991Z</time></trkpt><trkpt lat="42.2923567" lon="12.4225133"><ele>69.25</ele><time>2026-05-03T09:02:24.986Z</time></trkpt><trkpt lat="42.2922983" lon="12.4223483"><ele>67.0</ele><time>2026-05-03T09:02:25.985Z</time></trkpt><trkpt lat="42.2922467" lon="12.4222067"><ele>70.0</ele><time>2026-05-03T09:02:26.987Z</time></trkpt><trkpt lat="42.2922033" lon="12.42209"><ele>73.0</ele><time>2026-05-03T09:02:27.992Z</time></trkpt><trkpt lat="42.29217" lon="12.422"><ele>76.0</ele><time>2026-05-03T09:02:28.988Z</time></trkpt><trkpt lat="42.292135" lon="12.4218983"><ele>79.0</ele><time>2026-05-03T09:02:30.991Z</time></trkpt><trkpt lat="42.2920767" lon="12.4218367"><ele>82.0</ele><time>2026-05-03T09:02:34.986Z</time></trkpt><trkpt lat="42.2919667" lon="12.4218017"><ele>85.0</ele><time>2026-05-03T09:02:36.987Z</time></trkpt><trkpt lat="42.2918933" lon="12.4217783"><ele>85.0</ele><time>2026-05-03T09:02:37.994Z</time></trkpt><trkpt lat="42.291815" lon="12.42174"><ele>85.0</ele><time>2026-05-03T09:02:38.99Z</time></trkpt><trkpt lat="42.291735" lon="12.4217033"><ele>85.0</ele><time>2026-05-03T09:02:39.988Z</time></trkpt><trkpt lat="42.2916517" lon="12.4216767"><ele>85.0</ele><time>2026-05-03T09:02:40.987Z</time></trkpt><trkpt lat="42.2915617" lon="12.421665"><ele>85.0</ele><time>2026-05-03T09:02:41.986Z</time></trkpt><trkpt lat="42.2914667" lon="12.4216683"><ele>85.0</ele><time>2026-05-03T09:02:42.987Z</time></trkpt><trkpt lat="42.29137" lon="12.4216883"><ele>88.4</ele><time>2026-05-03T09:02:43.99Z</time></trkpt><trkpt lat="42.29127" lon="12.4217133"><ele>91.8</ele><time>2026-05-03T09:02:44.983Z</time></trkpt><trkpt lat="42.2911733" lon="12.4217483"><ele>95.19999999999999</ele><time>2026-05-03T09:02:45.989Z</time></trkpt><trkpt lat="42.291075" lon="12.421795"><ele>98.6</ele><time>2026-05-03T09:02:46.987Z</time></trkpt><trkpt lat="42.2909817" lon="12.4218417"><ele>102.0</ele><time>2026-05-03T09:02:47.989Z</time></trkpt><trkpt lat="42.2908883" lon="12.4218917"><ele>102.0</ele><time>2026-05-03T09:02:48.989Z</time></trkpt><trkpt lat="42.290795" lon="12.42194"><ele>102.0</ele><time>2026-05-03T09:02:49.987Z</time></trkpt><trkpt lat="42.2907033" lon="12.4219783"><ele>102.0</ele><time>2026-05-03T09:02:50.99Z</time></trkpt><trkpt lat="42.2906067" lon="12.42201"><ele>102.0</ele><time>2026-05-03T09:02:51.989Z</time></trkpt><trkpt lat="42.2905033" lon="12.4220183"><ele>102.0</ele><time>2026-05-03T09:02:52.988Z</time></trkpt><trkpt lat="42.290395" lon="12.42201"><ele>101.0</ele><time>2026-05-03T09:02:53.988Z</time></trkpt><trkpt lat="42.2902833" lon="12.4219883"><ele>100.0</ele><time>2026-05-03T09:02:54.988Z</time></trkpt><trkpt lat="42.290165" lon="12.42196"><ele>99.0</ele><time>2026-05-03T09:02:55.988Z</time></trkpt><trkpt lat="42.290045" lon="12.421935"><ele>98.0</ele><time>2026-05-03T09:02:56.994Z</time></trkpt><trkpt lat="42.2899217" lon="12.421915"><ele>98.0</ele><time>2026-05-03T09:02:57.987Z</time></trkpt><trkpt lat="42.289805" lon="12.4218983"><ele>98.0</ele><time>2026-05-03T09:02:58.99Z</time></trkpt><trkpt lat="42.289685" lon="12.4218833"><ele>98.0</ele><time>2026-05-03T09:02:59.99Z</time></trkpt><trkpt lat="42.289565" lon="12.4218667"><ele>98.0</ele><time>2026-05-03T09:03:00.987Z</time></trkpt><trkpt lat="42.28944" lon="12.4218517"><ele>95.0</ele><time>2026-05-03T09:03:01.99Z</time></trkpt><trkpt lat="42.2893083" lon="12.42184"><ele>92.0</ele><time>2026-05-03T09:03:02.984Z</time></trkpt><trkpt lat="42.2891683" lon="12.4218333"><ele>89.0</ele><time>2026-05-03T09:03:03.989Z</time></trkpt><trkpt lat="42.28902" lon="12.42183"><ele>86.0</ele><time>2026-05-03T09:03:04.99Z</time></trkpt><trkpt lat="42.2888617" lon="12.4218367"><ele>84.33333333333334</ele><time>2026-05-03T09:03:05.99Z</time></trkpt><trkpt lat="42.2886917" lon="12.42185"><ele>82.66666666666667</ele><time>2026-05-03T09:03:06.989Z</time></trkpt><trkpt lat="42.288505" lon="12.421875"><ele>81.0</ele><time>2026-05-03T09:03:07.988Z</time></trkpt><trkpt lat="42.2883167" lon="12.4218967"><ele>81.0</ele><time>2026-05-03T09:03:08.986Z</time></trkpt><trkpt lat="42.2881333" lon="12.421915"><ele>81.0</ele><time>2026-05-03T09:03:09.99Z</time></trkpt><trkpt lat="42.2879533" lon="12.42194"><ele>81.0</ele><time>2026-05-03T09:03:10.996Z</time></trkpt><trkpt lat="42.2877733" lon="12.4219667"><ele>76.66666666666667</ele><time>2026-05-03T09:03:11.988Z</time></trkpt><trkpt lat="42.2875983" lon="12.4220017"><ele>72.33333333333334</ele><time>2026-05-03T09:03:12.992Z</time></trkpt><trkpt lat="42.2874283" lon="12.4220317"><ele>68.0</ele><time>2026-05-03T09:03:13.988Z</time></trkpt><trkpt lat="42.2872667" lon="12.422065"><ele>70.5</ele><time>2026-05-03T09:03:14.991Z</time></trkpt><trkpt lat="42.28712" lon="12.4220917"><ele>73.0</ele><time>2026-05-03T09:03:15.99Z</time></trkpt><trkpt lat="42.2869867" lon="12.4221167"><ele>75.5</ele><time>2026-05-03T09:03:16.991Z</time></trkpt><trkpt lat="42.28687" lon="12.4221233"><ele>78.0</ele><time>2026-05-03T09:03:17.994Z</time></trkpt><trkpt lat="42.2867767" lon="12.4220967"><ele>78.0</ele><time>2026-05-03T09:03:18.991Z</time></trkpt><trkpt lat="42.2867" lon="12.4220383"><ele>78.0</ele><time>2026-05-03T09:03:19.99Z</time></trkpt><trkpt lat="42.286645" lon="12.4219583"><ele>78.0</ele><time>2026-05-03T09:03:20.987Z</time></trkpt><trkpt lat="42.2866083" lon="12.4218533"><ele>78.0</ele><time>2026-05-03T09:03:21.985Z</time></trkpt><trkpt lat="42.2865933" lon="12.4217283"><ele>78.0</ele><time>2026-05-03T09:03:22.989Z</time></trkpt><trkpt lat="42.2865867" lon="12.421585"><ele>78.0</ele><time>2026-05-03T09:03:23.988Z</time></trkpt><trkpt lat="42.2865817" lon="12.4214283"><ele>78.0</ele><time>2026-05-03T09:03:24.993Z</time></trkpt><trkpt lat="42.2865717" lon="12.4212583"><ele>78.0</ele><time>2026-05-03T09:03:25.991Z</time></trkpt><trkpt lat="42.28656" lon="12.4210833"><ele>78.0</ele><time>2026-05-03T09:03:26.997Z</time></trkpt><trkpt lat="42.286545" lon="12.4209033"><ele>78.0</ele><time>2026-05-03T09:03:27.993Z</time></trkpt><trkpt lat="42.28653" lon="12.4207133"><ele>78.0</ele><time>2026-05-03T09:03:28.984Z</time></trkpt><trkpt lat="42.286515" lon="12.420515"><ele>78.0</ele><time>2026-05-03T09:03:29.987Z</time></trkpt><trkpt lat="42.2865017" lon="12.4203083"><ele>78.0</ele><time>2026-05-03T09:03:30.988Z</time></trkpt><trkpt lat="42.2864883" lon="12.4200917"><ele>78.0</ele><time>2026-05-03T09:03:31.99Z</time></trkpt><trkpt lat="42.28647" lon="12.41987"><ele>78.0</ele><time>2026-05-03T09:03:32.993Z</time></trkpt><trkpt lat="42.286445" lon="12.419645"><ele>78.0</ele><time>2026-05-03T09:03:33.987Z</time></trkpt><trkpt lat="42.286415" lon="12.41942"><ele>78.0</ele><time>2026-05-03T09:03:34.987Z</time></trkpt><trkpt lat="42.286385" lon="12.4192083"><ele>78.0</ele><time>2026-05-03T09:03:35.987Z</time></trkpt><trkpt lat="42.286355" lon="12.4190217"><ele>78.0</ele><time>2026-05-03T09:03:36.985Z</time></trkpt><trkpt lat="42.2863217" lon="12.4188667"><ele>78.0</ele><time>2026-05-03T09:03:37.989Z</time></trkpt><trkpt lat="42.2862717" lon="12.4187367"><ele>78.0</ele><time>2026-05-03T09:03:38.985Z</time></trkpt><trkpt lat="42.2862067" lon="12.418635"><ele>78.0</ele><time>2026-05-03T09:03:39.985Z</time></trkpt><trkpt lat="42.286115" lon="12.4185733"><ele>78.0</ele><time>2026-05-03T09:03:40.991Z</time></trkpt><trkpt lat="42.2860017" lon="12.4185483"><ele>78.0</ele><time>2026-05-03T09:03:41.986Z</time></trkpt><trkpt lat="42.285875" lon="12.41854"><ele>78.0</ele><time>2026-05-03T09:03:42.989Z</time></trkpt><trkpt lat="42.2857367" lon="12.41853"><ele>85.0</ele><time>2026-05-03T09:03:43.99Z</time></trkpt><trkpt lat="42.2855867" lon="12.4185167"><ele>92.0</ele><time>2026-05-03T09:03:44.986Z</time></trkpt><trkpt lat="42.28543" lon="12.4185"><ele>99.0</ele><time>2026-05-03T09:03:45.989Z</time></trkpt><trkpt lat="42.2852683" lon="12.418475"><ele>99.0</ele><time>2026-05-03T09:03:46.987Z</time></trkpt><trkpt lat="42.2851067" lon="12.4184333"><ele>99.0</ele><time>2026-05-03T09:03:47.984Z</time></trkpt><trkpt lat="42.28495" lon="12.418365"><ele>99.0</ele><time>2026-05-03T09:03:48.988Z</time></trkpt><trkpt lat="42.28481" lon="12.4182633"><ele>100.0</ele><time>2026-05-03T09:03:49.992Z</time></trkpt><trkpt lat="42.2846717" lon="12.4181367"><ele>101.0</ele><time>2026-05-03T09:03:50.992Z</time></trkpt><trkpt lat="42.2845317" lon="12.418"><ele>102.0</ele><time>2026-05-03T09:03:51.984Z</time></trkpt><trkpt lat="42.284385" lon="12.4178717"><ele>102.0</ele><time>2026-05-03T09:03:52.987Z</time></trkpt><trkpt lat="42.284235" lon="12.4177617"><ele>102.0</ele><time>2026-05-03T09:03:53.987Z</time></trkpt><trkpt lat="42.2840733" lon="12.417675"><ele>102.0</ele><time>2026-05-03T09:03:54.991Z</time></trkpt><trkpt lat="42.283905" lon="12.4176067"><ele>106.66666666666666</ele><time>2026-05-03T09:03:55.987Z</time></trkpt><trkpt lat="42.283735" lon="12.41753"><ele>111.33333333333333</ele><time>2026-05-03T09:03:56.989Z</time></trkpt><trkpt lat="42.2835967" lon="12.4174067"><ele>116.0</ele><time>2026-05-03T09:03:57.986Z</time></trkpt><trkpt lat="42.2834417" lon="12.417295"><ele>116.0</ele><time>2026-05-03T09:03:58.991Z</time></trkpt><trkpt lat="42.28329" lon="12.4171867"><ele>116.0</ele><time>2026-05-03T09:03:59.988Z</time></trkpt><trkpt lat="42.28313" lon="12.4170883"><ele>116.0</ele><time>2026-05-03T09:04:00.984Z</time></trkpt><trkpt lat="42.2829667" lon="12.4169933"><ele>116.66666666666666</ele><time>2026-05-03T09:04:01.987Z</time></trkpt><trkpt lat="42.2828" lon="12.4169033"><ele>117.33333333333334</ele><time>2026-05-03T09:04:02.991Z</time></trkpt><trkpt lat="42.2826417" lon="12.4167933"><ele>118.0</ele><time>2026-05-03T09:04:03.989Z</time></trkpt><trkpt lat="42.2824833" lon="12.4166767"><ele>118.0</ele><time>2026-05-03T09:04:04.988Z</time></trkpt><trkpt lat="42.2823233" lon="12.41655"><ele>118.0</ele><time>2026-05-03T09:04:05.988Z</time></trkpt><trkpt lat="42.2821683" lon="12.4164083"><ele>118.0</ele><time>2026-05-03T09:04:06.992Z</time></trkpt><trkpt lat="42.2820117" lon="12.4162517"><ele>120.0</ele><time>2026-05-03T09:04:07.992Z</time></trkpt><trkpt lat="42.2818617" lon="12.4160933"><ele>122.0</ele><time>2026-05-03T09:04:08.988Z</time></trkpt><trkpt lat="42.2817067" lon="12.41594"><ele>124.0</ele><time>2026-05-03T09:04:09.991Z</time></trkpt><trkpt lat="42.2815517" lon="12.4157783"><ele>123.33333333333334</ele><time>2026-05-03T09:04:10.99Z</time></trkpt><trkpt lat="42.2813933" lon="12.4156133"><ele>122.66666666666666</ele><time>2026-05-03T09:04:11.988Z</time></trkpt><trkpt lat="42.2812333" lon="12.4154483"><ele>122.0</ele><time>2026-05-03T09:04:12.992Z</time></trkpt><trkpt lat="42.2810683" lon="12.4152833"><ele>124.66666666666666</ele><time>2026-05-03T09:04:13.989Z</time></trkpt><trkpt lat="42.2809067" lon="12.4151183"><ele>127.33333333333334</ele><time>2026-05-03T09:04:14.987Z</time></trkpt><trkpt lat="42.2807433" lon="12.4149517"><ele>130.0</ele><time>2026-05-03T09:04:15.985Z</time></trkpt><trkpt lat="42.28058" lon="12.4147867"><ele>133.66666666666669</ele><time>2026-05-03T09:04:16.989Z</time></trkpt><trkpt lat="42.2804183" lon="12.414615"><ele>137.33333333333334</ele><time>2026-05-03T09:04:17.99Z</time></trkpt><trkpt lat="42.2802567" lon="12.414445"><ele>141.0</ele><time>2026-05-03T09:04:18.987Z</time></trkpt><trkpt lat="42.2800933" lon="12.4142733"><ele>141.0</ele><time>2026-05-03T09:04:19.985Z</time></trkpt><trkpt lat="42.27993" lon="12.4141017"><ele>141.0</ele><time>2026-05-03T09:04:20.986Z</time></trkpt><trkpt lat="42.27977" lon="12.41394"><ele>141.0</ele><time>2026-05-03T09:04:21.988Z</time></trkpt><trkpt lat="42.2796183" lon="12.41378"><ele>143.0</ele><time>2026-05-03T09:04:22.991Z</time></trkpt><trkpt lat="42.27948" lon="12.413615"><ele>145.0</ele><time>2026-05-03T09:04:23.992Z</time></trkpt><trkpt lat="42.2793517" lon="12.4134417"><ele>147.0</ele><time>2026-05-03T09:04:24.988Z</time></trkpt><trkpt lat="42.2792383" lon="12.4132467"><ele>147.0</ele><time>2026-05-03T09:04:25.988Z</time></trkpt><trkpt lat="42.27914" lon="12.4130367"><ele>147.0</ele><time>2026-05-03T09:04:26.989Z</time></trkpt><trkpt lat="42.2790583" lon="12.4128183"><ele>147.0</ele><time>2026-05-03T09:04:27.984Z</time></trkpt><trkpt lat="42.2789967" lon="12.41258"><ele>146.66666666666666</ele><time>2026-05-03T09:04:28.987Z</time></trkpt><trkpt lat="42.2789433" lon="12.41234"><ele>146.33333333333331</ele><time>2026-05-03T09:04:29.986Z</time></trkpt><trkpt lat="42.2788867" lon="12.4120933"><ele>146.0</ele><time>2026-05-03T09:04:30.988Z</time></trkpt><trkpt lat="42.27883" lon="12.411845"><ele>146.0</ele><time>2026-05-03T09:04:31.997Z</time></trkpt><trkpt lat="42.2787717" lon="12.411595"><ele>146.0</ele><time>2026-05-03T09:04:32.986Z</time></trkpt><trkpt lat="42.27872" lon="12.4113433"><ele>146.0</ele><time>2026-05-03T09:04:33.988Z</time></trkpt><trkpt lat="42.2786683" lon="12.411085"><ele>146.66666666666666</ele><time>2026-05-03T09:04:34.986Z</time></trkpt><trkpt lat="42.278615" lon="12.41082"><ele>147.33333333333334</ele><time>2026-05-03T09:04:35.994Z</time></trkpt><trkpt lat="42.2785617" lon="12.4105517"><ele>148.0</ele><time>2026-05-03T09:04:36.986Z</time></trkpt><trkpt lat="42.278505" lon="12.4102817"><ele>149.33333333333334</ele><time>2026-05-03T09:04:37.983Z</time></trkpt><trkpt lat="42.2784467" lon="12.4100167"><ele>150.66666666666666</ele><time>2026-05-03T09:04:38.993Z</time></trkpt><trkpt lat="42.2783867" lon="12.409765"><ele>152.0</ele><time>2026-05-03T09:04:39.983Z</time></trkpt><trkpt lat="42.2783217" lon="12.409525"><ele>152.33333333333331</ele><time>2026-05-03T09:04:40.988Z</time></trkpt><trkpt lat="42.2782517" lon="12.4093"><ele>152.66666666666666</ele><time>2026-05-03T09:04:41.991Z</time></trkpt><trkpt lat="42.2781583" lon="12.40909"><ele>153.0</ele><time>2026-05-03T09:04:42.99Z</time></trkpt><trkpt lat="42.278055" lon="12.4088783"><ele>153.33333333333334</ele><time>2026-05-03T09:04:43.988Z</time></trkpt><trkpt lat="42.2779483" lon="12.4086667"><ele>153.66666666666669</ele><time>2026-05-03T09:04:44.985Z</time></trkpt><trkpt lat="42.2778433" lon="12.4084517"><ele>154.0</ele><time>2026-05-03T09:04:45.984Z</time></trkpt><trkpt lat="42.2777367" lon="12.4082333"><ele>154.0</ele><time>2026-05-03T09:04:46.988Z</time></trkpt><trkpt lat="42.277635" lon="12.4080183"><ele>154.0</ele><time>2026-05-03T09:04:47.989Z</time></trkpt><trkpt lat="42.277535" lon="12.40781"><ele>154.0</ele><time>2026-05-03T09:04:48.988Z</time></trkpt><trkpt lat="42.2774317" lon="12.4076133"><ele>154.33333333333334</ele><time>2026-05-03T09:04:49.994Z</time></trkpt><trkpt lat="42.2773133" lon="12.407435"><ele>154.66666666666666</ele><time>2026-05-03T09:04:50.982Z</time></trkpt><trkpt lat="42.27718" lon="12.4072717"><ele>155.0</ele><time>2026-05-03T09:04:51.988Z</time></trkpt><trkpt lat="42.27704" lon="12.4071167"><ele>158.0</ele><time>2026-05-03T09:04:52.993Z</time></trkpt><trkpt lat="42.2768933" lon="12.4069617"><ele>161.0</ele><time>2026-05-03T09:04:53.99Z</time></trkpt><trkpt lat="42.2767433" lon="12.4068067"><ele>164.0</ele><time>2026-05-03T09:04:54.991Z</time></trkpt><trkpt lat="42.27659" lon="12.4066467"><ele>164.0</ele><time>2026-05-03T09:04:55.994Z</time></trkpt><trkpt lat="42.27644" lon="12.4064817"><ele>164.0</ele><time>2026-05-03T09:04:56.991Z</time></trkpt><trkpt lat="42.27629" lon="12.4063083"><ele>164.0</ele><time>2026-05-03T09:04:57.987Z</time></trkpt><trkpt lat="42.276145" lon="12.4061283"><ele>164.66666666666666</ele><time>2026-05-03T09:04:58.987Z</time></trkpt><trkpt lat="42.2760017" lon="12.4059467"><ele>165.33333333333334</ele><time>2026-05-03T09:04:59.995Z</time></trkpt><trkpt lat="42.27586" lon="12.40576"><ele>166.0</ele><time>2026-05-03T09:05:00.989Z</time></trkpt><trkpt lat="42.275715" lon="12.4055767"><ele>166.66666666666669</ele><time>2026-05-03T09:05:01.99Z</time></trkpt><trkpt lat="42.27557" lon="12.4053983"><ele>167.33333333333334</ele><time>2026-05-03T09:05:02.987Z</time></trkpt><trkpt lat="42.2754217" lon="12.4052183"><ele>168.0</ele><time>2026-05-03T09:05:03.984Z</time></trkpt><trkpt lat="42.2752767" lon="12.40504"><ele>168.0</ele><time>2026-05-03T09:05:04.993Z</time></trkpt><trkpt lat="42.2751333" lon="12.4048583"><ele>168.0</ele><time>2026-05-03T09:05:05.982Z</time></trkpt><trkpt lat="42.2749883" lon="12.4046767"><ele>168.0</ele><time>2026-05-03T09:05:06.985Z</time></trkpt><trkpt lat="42.2748433" lon="12.4044967"><ele>169.33333333333334</ele><time>2026-05-03T09:05:07.989Z</time></trkpt><trkpt lat="42.2746967" lon="12.4043117"><ele>170.66666666666669</ele><time>2026-05-03T09:05:08.994Z</time></trkpt><trkpt lat="42.27455" lon="12.404125"><ele>172.0</ele><time>2026-05-03T09:05:09.985Z</time></trkpt><trkpt lat="42.2744033" lon="12.403935"><ele>173.0</ele><time>2026-05-03T09:05:10.986Z</time></trkpt><trkpt lat="42.274255" lon="12.4037417"><ele>174.0</ele><time>2026-05-03T09:05:11.992Z</time></trkpt><trkpt lat="42.274105" lon="12.40355"><ele>175.0</ele><time>2026-05-03T09:05:12.99Z</time></trkpt><trkpt lat="42.2739517" lon="12.403355"><ele>174.66666666666669</ele><time>2026-05-03T09:05:13.99Z</time></trkpt><trkpt lat="42.2737983" lon="12.4031567"><ele>174.33333333333334</ele><time>2026-05-03T09:05:14.988Z</time></trkpt><trkpt lat="42.2736433" lon="12.402955"><ele>174.0</ele><time>2026-05-03T09:05:15.987Z</time></trkpt><trkpt lat="42.2734867" lon="12.40275"><ele>174.0</ele><time>2026-05-03T09:05:16.99Z</time></trkpt><trkpt lat="42.27333" lon="12.40255"><ele>174.0</ele><time>2026-05-03T09:05:17.989Z</time></trkpt><trkpt lat="42.2731733" lon="12.4023617"><ele>174.0</ele><time>2026-05-03T09:05:18.989Z</time></trkpt><trkpt lat="42.2730183" lon="12.4021767"><ele>175.0</ele><time>2026-05-03T09:05:19.993Z</time></trkpt><trkpt lat="42.2728617" lon="12.4019933"><ele>176.0</ele><time>2026-05-03T09:05:20.985Z</time></trkpt><trkpt lat="42.272705" lon="12.4018133"><ele>177.0</ele><time>2026-05-03T09:05:21.99Z</time></trkpt><trkpt lat="42.2725417" lon="12.40164"><ele>177.0</ele><time>2026-05-03T09:05:22.986Z</time></trkpt><trkpt lat="42.2723717" lon="12.4014783"><ele>177.0</ele><time>2026-05-03T09:05:23.986Z</time></trkpt><trkpt lat="42.27219" lon="12.4013333"><ele>177.0</ele><time>2026-05-03T09:05:24.989Z</time></trkpt><trkpt lat="42.272" lon="12.4012"><ele>177.33333333333334</ele><time>2026-05-03T09:05:25.99Z</time></trkpt><trkpt lat="42.2718" lon="12.4010767"><ele>177.66666666666669</ele><time>2026-05-03T09:05:26.983Z</time></trkpt><trkpt lat="42.271595" lon="12.40096"><ele>178.0</ele><time>2026-05-03T09:05:27.989Z</time></trkpt><trkpt lat="42.2713933" lon="12.4008383"><ele>178.0</ele><time>2026-05-03T09:05:28.99Z</time></trkpt><trkpt lat="42.2711833" lon="12.4007233"><ele>178.0</ele><time>2026-05-03T09:05:29.989Z</time></trkpt><trkpt lat="42.2709683" lon="12.400615"><ele>178.0</ele><time>2026-05-03T09:05:30.987Z</time></trkpt><trkpt lat="42.2707483" lon="12.4005133"><ele>178.0</ele><time>2026-05-03T09:05:31.984Z</time></trkpt><trkpt lat="42.270525" lon="12.4004167"><ele>179.0</ele><time>2026-05-03T09:05:32.99Z</time></trkpt><trkpt lat="42.2703017" lon="12.400325"><ele>180.0</ele><time>2026-05-03T09:05:33.985Z</time></trkpt><trkpt lat="42.2700783" lon="12.4002417"><ele>180.0</ele><time>2026-05-03T09:05:34.986Z</time></trkpt><trkpt lat="42.2698533" lon="12.4001567"><ele>180.0</ele><time>2026-05-03T09:05:35.986Z</time></trkpt><trkpt lat="42.269625" lon="12.4000783"><ele>181.0</ele><time>2026-05-03T09:05:36.993Z</time></trkpt><trkpt lat="42.269395" lon="12.4000017"><ele>182.0</ele><time>2026-05-03T09:05:37.996Z</time></trkpt><trkpt lat="42.2691667" lon="12.399935"><ele>182.0</ele><time>2026-05-03T09:05:38.986Z</time></trkpt><trkpt lat="42.2689367" lon="12.3998683"><ele>182.0</ele><time>2026-05-03T09:05:39.985Z</time></trkpt><trkpt lat="42.2687067" lon="12.3998017"><ele>182.0</ele><time>2026-05-03T09:05:40.986Z</time></trkpt><trkpt lat="42.268475" lon="12.3997367"><ele>182.0</ele><time>2026-05-03T09:05:41.99Z</time></trkpt><trkpt lat="42.2682417" lon="12.39967"><ele>183.5</ele><time>2026-05-03T09:05:42.986Z</time></trkpt><trkpt lat="42.26801" lon="12.3996033"><ele>185.0</ele><time>2026-05-03T09:05:43.99Z</time></trkpt><trkpt lat="42.2677783" lon="12.3995367"><ele>185.0</ele><time>2026-05-03T09:05:44.987Z</time></trkpt><trkpt lat="42.2675517" lon="12.3994733"><ele>185.0</ele><time>2026-05-03T09:05:45.985Z</time></trkpt><trkpt lat="42.2673333" lon="12.3994117"><ele>184.33333333333331</ele><time>2026-05-03T09:05:46.987Z</time></trkpt><trkpt lat="42.26712" lon="12.3993533"><ele>183.66666666666666</ele><time>2026-05-03T09:05:47.989Z</time></trkpt><trkpt lat="42.2669167" lon="12.3992917"><ele>183.0</ele><time>2026-05-03T09:05:48.986Z</time></trkpt><trkpt lat="42.2667217" lon="12.3992217"><ele>183.0</ele><time>2026-05-03T09:05:49.99Z</time></trkpt><trkpt lat="42.2665333" lon="12.399135"><ele>183.0</ele><time>2026-05-03T09:05:50.986Z</time></trkpt><trkpt lat="42.26635" lon="12.3990233"><ele>183.0</ele><time>2026-05-03T09:05:51.986Z</time></trkpt><trkpt lat="42.2661683" lon="12.3989017"><ele>184.0</ele><time>2026-05-03T09:05:52.991Z</time></trkpt><trkpt lat="42.2659833" lon="12.3987767"><ele>185.0</ele><time>2026-05-03T09:05:53.987Z</time></trkpt><trkpt lat="42.265795" lon="12.3986433"><ele>186.0</ele><time>2026-05-03T09:05:54.99Z</time></trkpt><trkpt lat="42.2656033" lon="12.39851"><ele>187.33333333333334</ele><time>2026-05-03T09:05:55.993Z</time></trkpt><trkpt lat="42.2654067" lon="12.3983783"><ele>188.66666666666669</ele><time>2026-05-03T09:05:56.989Z</time></trkpt><trkpt lat="42.2652117" lon="12.3982467"><ele>190.0</ele><time>2026-05-03T09:05:57.989Z</time></trkpt><trkpt lat="42.2650167" lon="12.398115"><ele>189.33333333333334</ele><time>2026-05-03T09:05:58.985Z</time></trkpt><trkpt lat="42.264825" lon="12.39798"><ele>188.66666666666666</ele><time>2026-05-03T09:05:59.989Z</time></trkpt><trkpt lat="42.2646317" lon="12.397845"><ele>188.0</ele><time>2026-05-03T09:06:00.984Z</time></trkpt><trkpt lat="42.26444" lon="12.397705"><ele>187.66666666666666</ele><time>2026-05-03T09:06:01.982Z</time></trkpt><trkpt lat="42.2642567" lon="12.3975533"><ele>187.33333333333334</ele><time>2026-05-03T09:06:02.985Z</time></trkpt><trkpt lat="42.264075" lon="12.3973917"><ele>187.0</ele><time>2026-05-03T09:06:03.998Z</time></trkpt><trkpt lat="42.2638983" lon="12.3972217"><ele>188.0</ele><time>2026-05-03T09:06:04.99Z</time></trkpt><trkpt lat="42.2637217" lon="12.3970533"><ele>189.0</ele><time>2026-05-03T09:06:05.987Z</time></trkpt><trkpt lat="42.2635467" lon="12.39688"><ele>190.0</ele><time>2026-05-03T09:06:06.986Z</time></trkpt><trkpt lat="42.2633733" lon="12.39671"><ele>190.0</ele><time>2026-05-03T09:06:07.987Z</time></trkpt><trkpt lat="42.263195" lon="12.396545"><ele>190.0</ele><time>2026-05-03T09:06:08.991Z</time></trkpt><trkpt lat="42.2630183" lon="12.3963783"><ele>190.0</ele><time>2026-05-03T09:06:09.991Z</time></trkpt><trkpt lat="42.26284" lon="12.3962117"><ele>190.66666666666669</ele><time>2026-05-03T09:06:10.985Z</time></trkpt><trkpt lat="42.26266" lon="12.39605"><ele>191.33333333333334</ele><time>2026-05-03T09:06:11.984Z</time></trkpt><trkpt lat="42.262475" lon="12.3958933"><ele>192.0</ele><time>2026-05-03T09:06:12.988Z</time></trkpt><trkpt lat="42.2622917" lon="12.395735"><ele>192.66666666666669</ele><time>2026-05-03T09:06:13.984Z</time></trkpt><trkpt lat="42.2621067" lon="12.3955783"><ele>193.33333333333334</ele><time>2026-05-03T09:06:14.99Z</time></trkpt><trkpt lat="42.2619183" lon="12.395425"><ele>194.0</ele><time>2026-05-03T09:06:15.991Z</time></trkpt><trkpt lat="42.261725" lon="12.39528"><ele>194.0</ele><time>2026-05-03T09:06:16.984Z</time></trkpt><trkpt lat="42.261525" lon="12.3951517"><ele>194.0</ele><time>2026-05-03T09:06:17.985Z</time></trkpt><trkpt lat="42.26132" lon="12.3950367"><ele>194.0</ele><time>2026-05-03T09:06:18.989Z</time></trkpt><trkpt lat="42.2611133" lon="12.394925"><ele>194.66666666666669</ele><time>2026-05-03T09:06:19.987Z</time></trkpt><trkpt lat="42.260905" lon="12.39481"><ele>195.33333333333331</ele><time>2026-05-03T09:06:20.991Z</time></trkpt><trkpt lat="42.2607" lon="12.3946983"><ele>196.0</ele><time>2026-05-03T09:06:21.988Z</time></trkpt><trkpt lat="42.2605017" lon="12.394595"><ele>194.33333333333331</ele><time>2026-05-03T09:06:22.993Z</time></trkpt><trkpt lat="42.2603083" lon="12.394495"><ele>192.66666666666666</ele><time>2026-05-03T09:06:23.986Z</time></trkpt><trkpt lat="42.26012" lon="12.3943883"><ele>191.0</ele><time>2026-05-03T09:06:24.987Z</time></trkpt><trkpt lat="42.2599383" lon="12.394265"><ele>191.66666666666666</ele><time>2026-05-03T09:06:25.988Z</time></trkpt><trkpt lat="42.2597583" lon="12.3941283"><ele>192.33333333333331</ele><time>2026-05-03T09:06:26.99Z</time></trkpt><trkpt lat="42.259585" lon="12.3939783"><ele>193.0</ele><time>2026-05-03T09:06:27.989Z</time></trkpt><trkpt lat="42.259415" lon="12.3938217"><ele>193.0</ele><time>2026-05-03T09:06:28.986Z</time></trkpt><trkpt lat="42.25925" lon="12.3936733"><ele>193.0</ele><time>2026-05-03T09:06:29.989Z</time></trkpt><trkpt lat="42.2590933" lon="12.3935367"><ele>193.0</ele><time>2026-05-03T09:06:30.985Z</time></trkpt><trkpt lat="42.2589483" lon="12.3933983"><ele>191.66666666666666</ele><time>2026-05-03T09:06:31.987Z</time></trkpt><trkpt lat="42.2588217" lon="12.3932517"><ele>190.33333333333331</ele><time>2026-05-03T09:06:32.984Z</time></trkpt><trkpt lat="42.2587133" lon="12.393095"><ele>189.0</ele><time>2026-05-03T09:06:33.985Z</time></trkpt><trkpt lat="42.2586283" lon="12.39291"><ele>189.0</ele><time>2026-05-03T09:06:34.983Z</time></trkpt><trkpt lat="42.258565" lon="12.3927067"><ele>189.0</ele><time>2026-05-03T09:06:35.996Z</time></trkpt><trkpt lat="42.25852" lon="12.392485"><ele>189.0</ele><time>2026-05-03T09:06:36.988Z</time></trkpt><trkpt lat="42.2584767" lon="12.3922617"><ele>190.33333333333331</ele><time>2026-05-03T09:06:37.993Z</time></trkpt><trkpt lat="42.2584183" lon="12.3920433"><ele>191.66666666666666</ele><time>2026-05-03T09:06:38.99Z</time></trkpt><trkpt lat="42.2583317" lon="12.3918383"><ele>193.0</ele><time>2026-05-03T09:06:39.981Z</time></trkpt><trkpt lat="42.2582267" lon="12.3916417"><ele>192.33333333333331</ele><time>2026-05-03T09:06:40.987Z</time></trkpt><trkpt lat="42.2581033" lon="12.3914467"><ele>191.66666666666666</ele><time>2026-05-03T09:06:41.986Z</time></trkpt><trkpt lat="42.2579683" lon="12.3912567"><ele>191.0</ele><time>2026-05-03T09:06:42.984Z</time></trkpt><trkpt lat="42.2578233" lon="12.3910717"><ele>191.0</ele><time>2026-05-03T09:06:43.988Z</time></trkpt><trkpt lat="42.2576683" lon="12.3908983"><ele>191.0</ele><time>2026-05-03T09:06:44.991Z</time></trkpt><trkpt lat="42.257505" lon="12.3907333"><ele>191.0</ele><time>2026-05-03T09:06:45.989Z</time></trkpt><trkpt lat="42.2573383" lon="12.39057"><ele>188.66666666666666</ele><time>2026-05-03T09:06:46.993Z</time></trkpt><trkpt lat="42.2571767" lon="12.390405"><ele>186.33333333333334</ele><time>2026-05-03T09:06:47.987Z</time></trkpt><trkpt lat="42.25702" lon="12.3902317"><ele>184.0</ele><time>2026-05-03T09:06:49.004Z</time></trkpt><trkpt lat="42.2568733" lon="12.3900533"><ele>184.0</ele><time>2026-05-03T09:06:49.987Z</time></trkpt><trkpt lat="42.25674" lon="12.3898583"><ele>184.0</ele><time>2026-05-03T09:06:50.989Z</time></trkpt><trkpt lat="42.256615" lon="12.3896483"><ele>184.0</ele><time>2026-05-03T09:06:51.989Z</time></trkpt><trkpt lat="42.2564883" lon="12.3894333"><ele>186.66666666666669</ele><time>2026-05-03T09:06:52.991Z</time></trkpt><trkpt lat="42.25636" lon="12.38922"><ele>189.33333333333334</ele><time>2026-05-03T09:06:53.991Z</time></trkpt><trkpt lat="42.2562233" lon="12.38901"><ele>192.0</ele><time>2026-05-03T09:06:54.988Z</time></trkpt><trkpt lat="42.2560817" lon="12.388805"><ele>193.66666666666669</ele><time>2026-05-03T09:06:55.988Z</time></trkpt><trkpt lat="42.25593" lon="12.3886017"><ele>195.33333333333334</ele><time>2026-05-03T09:06:56.991Z</time></trkpt><trkpt lat="42.255775" lon="12.388395"><ele>197.0</ele><time>2026-05-03T09:06:57.989Z</time></trkpt><trkpt lat="42.255615" lon="12.38819"><ele>199.5</ele><time>2026-05-03T09:06:58.992Z</time></trkpt><trkpt lat="42.2554517" lon="12.38798"><ele>202.0</ele><time>2026-05-03T09:06:59.983Z</time></trkpt><trkpt lat="42.2552867" lon="12.3877733"><ele>202.0</ele><time>2026-05-03T09:07:00.983Z</time></trkpt><trkpt lat="42.255125" lon="12.387565"><ele>202.0</ele><time>2026-05-03T09:07:01.986Z</time></trkpt><trkpt lat="42.25497" lon="12.387365"><ele>202.0</ele><time>2026-05-03T09:07:02.985Z</time></trkpt><trkpt lat="42.2548217" lon="12.38718"><ele>202.66666666666666</ele><time>2026-05-03T09:07:03.99Z</time></trkpt><trkpt lat="42.2546933" lon="12.3869983"><ele>203.33333333333331</ele><time>2026-05-03T09:07:04.993Z</time></trkpt><trkpt lat="42.2545817" lon="12.386815"><ele>204.0</ele><time>2026-05-03T09:07:05.991Z</time></trkpt><trkpt lat="42.25449" lon="12.3866167"><ele>204.0</ele><time>2026-05-03T09:07:06.987Z</time></trkpt><trkpt lat="42.254415" lon="12.3864033"><ele>204.0</ele><time>2026-05-03T09:07:07.989Z</time></trkpt><trkpt lat="42.2543483" lon="12.3861767"><ele>204.0</ele><time>2026-05-03T09:07:08.985Z</time></trkpt><trkpt lat="42.25428" lon="12.3859417"><ele>203.66666666666669</ele><time>2026-05-03T09:07:09.987Z</time></trkpt><trkpt lat="42.2542033" lon="12.3857017"><ele>203.33333333333334</ele><time>2026-05-03T09:07:10.995Z</time></trkpt><trkpt lat="42.2541283" lon="12.3854583"><ele>203.0</ele><time>2026-05-03T09:07:11.99Z</time></trkpt><trkpt lat="42.2540533" lon="12.38521"><ele>203.0</ele><time>2026-05-03T09:07:12.99Z</time></trkpt><trkpt lat="42.2539767" lon="12.384965"><ele>203.0</ele><time>2026-05-03T09:07:13.988Z</time></trkpt><trkpt lat="42.2538983" lon="12.38472"><ele>203.0</ele><time>2026-05-03T09:07:14.988Z</time></trkpt><trkpt lat="42.2538217" lon="12.3844767"><ele>203.66666666666669</ele><time>2026-05-03T09:07:15.993Z</time></trkpt><trkpt lat="42.2537467" lon="12.3842383"><ele>204.33333333333331</ele><time>2026-05-03T09:07:16.99Z</time></trkpt><trkpt lat="42.25368" lon="12.3839983"><ele>205.0</ele><time>2026-05-03T09:07:17.981Z</time></trkpt><trkpt lat="42.2536233" lon="12.38376"><ele>205.66666666666666</ele><time>2026-05-03T09:07:18.983Z</time></trkpt><trkpt lat="42.253585" lon="12.3835133"><ele>206.33333333333331</ele><time>2026-05-03T09:07:19.987Z</time></trkpt><trkpt lat="42.2535517" lon="12.3832567"><ele>207.0</ele><time>2026-05-03T09:07:20.989Z</time></trkpt><trkpt lat="42.2535183" lon="12.3829967"><ele>207.33333333333331</ele><time>2026-05-03T09:07:21.986Z</time></trkpt><trkpt lat="42.253485" lon="12.3827333"><ele>207.66666666666666</ele><time>2026-05-03T09:07:22.989Z</time></trkpt><trkpt lat="42.2534467" lon="12.3824683"><ele>208.0</ele><time>2026-05-03T09:07:23.994Z</time></trkpt><trkpt lat="42.2534083" lon="12.3822017"><ele>208.33333333333331</ele><time>2026-05-03T09:07:24.988Z</time></trkpt><trkpt lat="42.25337" lon="12.3819317"><ele>208.66666666666669</ele><time>2026-05-03T09:07:25.986Z</time></trkpt><trkpt lat="42.2533267" lon="12.38166"><ele>209.0</ele><time>2026-05-03T09:07:26.988Z</time></trkpt><trkpt lat="42.2532833" lon="12.3813867"><ele>209.33333333333334</ele><time>2026-05-03T09:07:27.987Z</time></trkpt><trkpt lat="42.2532367" lon="12.3811117"><ele>209.66666666666669</ele><time>2026-05-03T09:07:28.989Z</time></trkpt><trkpt lat="42.2531933" lon="12.38084"><ele>210.0</ele><time>2026-05-03T09:07:29.986Z</time></trkpt><trkpt lat="42.2531467" lon="12.38057"><ele>210.33333333333331</ele><time>2026-05-03T09:07:30.986Z</time></trkpt><trkpt lat="42.253105" lon="12.380305"><ele>210.66666666666666</ele><time>2026-05-03T09:07:31.987Z</time></trkpt><trkpt lat="42.2530533" lon="12.3800417"><ele>211.0</ele><time>2026-05-03T09:07:32.984Z</time></trkpt><trkpt lat="42.2530017" lon="12.379785"><ele>211.0</ele><time>2026-05-03T09:07:33.991Z</time></trkpt><trkpt lat="42.2529417" lon="12.3795383"><ele>211.0</ele><time>2026-05-03T09:07:34.994Z</time></trkpt><trkpt lat="42.25287" lon="12.3793017"><ele>211.0</ele><time>2026-05-03T09:07:35.992Z</time></trkpt><trkpt lat="42.2527883" lon="12.3790717"><ele>211.0</ele><time>2026-05-03T09:07:36.989Z</time></trkpt><trkpt lat="42.2527017" lon="12.3788467"><ele>211.0</ele><time>2026-05-03T09:07:37.988Z</time></trkpt><trkpt lat="42.2526217" lon="12.3786283"><ele>211.0</ele><time>2026-05-03T09:07:38.989Z</time></trkpt><trkpt lat="42.2525433" lon="12.3784083"><ele>211.0</ele><time>2026-05-03T09:07:39.988Z</time></trkpt><trkpt lat="42.2524767" lon="12.3781883"><ele>211.0</ele><time>2026-05-03T09:07:40.991Z</time></trkpt><trkpt lat="42.25242" lon="12.377965"><ele>211.0</ele><time>2026-05-03T09:07:41.987Z</time></trkpt><trkpt lat="42.2523733" lon="12.37774"><ele>211.33333333333331</ele><time>2026-05-03T09:07:42.988Z</time></trkpt><trkpt lat="42.2523283" lon="12.37751"><ele>211.66666666666669</ele><time>2026-05-03T09:07:43.988Z</time></trkpt><trkpt lat="42.2522883" lon="12.37728"><ele>212.0</ele><time>2026-05-03T09:07:44.989Z</time></trkpt><trkpt lat="42.2522467" lon="12.37705"><ele>213.66666666666669</ele><time>2026-05-03T09:07:45.989Z</time></trkpt><trkpt lat="42.2522033" lon="12.3768233"><ele>215.33333333333331</ele><time>2026-05-03T09:07:46.986Z</time></trkpt><trkpt lat="42.2521617" lon="12.3766"><ele>217.0</ele><time>2026-05-03T09:07:47.987Z</time></trkpt><trkpt lat="42.252115" lon="12.376375"><ele>216.66666666666666</ele><time>2026-05-03T09:07:48.988Z</time></trkpt><trkpt lat="42.2520633" lon="12.3761533"><ele>216.33333333333331</ele><time>2026-05-03T09:07:49.995Z</time></trkpt><trkpt lat="42.252005" lon="12.37593"><ele>216.0</ele><time>2026-05-03T09:07:50.985Z</time></trkpt><trkpt lat="42.2519433" lon="12.37571"><ele>216.0</ele><time>2026-05-03T09:07:51.986Z</time></trkpt><trkpt lat="42.2518833" lon="12.3754967"><ele>216.0</ele><time>2026-05-03T09:07:52.986Z</time></trkpt><trkpt lat="42.25182" lon="12.375285"><ele>216.0</ele><time>2026-05-03T09:07:53.986Z</time></trkpt><trkpt lat="42.2517567" lon="12.37507"><ele>216.0</ele><time>2026-05-03T09:07:54.992Z</time></trkpt><trkpt lat="42.251695" lon="12.3748517"><ele>216.0</ele><time>2026-05-03T09:07:55.988Z</time></trkpt><trkpt lat="42.25163" lon="12.3746383"><ele>216.0</ele><time>2026-05-03T09:07:56.987Z</time></trkpt><trkpt lat="42.2515683" lon="12.3744367"><ele>216.0</ele><time>2026-05-03T09:07:57.988Z</time></trkpt><trkpt lat="42.25151" lon="12.3742483"><ele>216.0</ele><time>2026-05-03T09:07:58.986Z</time></trkpt><trkpt lat="42.251455" lon="12.37407"><ele>216.0</ele><time>2026-05-03T09:07:59.985Z</time></trkpt><trkpt lat="42.2513983" lon="12.3739083"><ele>216.0</ele><time>2026-05-03T09:08:00.988Z</time></trkpt><trkpt lat="42.25134" lon="12.3737617"><ele>215.60000000000002</ele><time>2026-05-03T09:08:01.992Z</time></trkpt><trkpt lat="42.2512783" lon="12.37364"><ele>215.20000000000002</ele><time>2026-05-03T09:08:02.987Z</time></trkpt><trkpt lat="42.25121" lon="12.373545"><ele>214.79999999999998</ele><time>2026-05-03T09:08:03.987Z</time></trkpt><trkpt lat="42.2511417" lon="12.373465"><ele>214.39999999999998</ele><time>2026-05-03T09:08:04.988Z</time></trkpt><trkpt lat="42.2510783" lon="12.3733817"><ele>214.0</ele><time>2026-05-03T09:08:05.986Z</time></trkpt><trkpt lat="42.2510317" lon="12.3732983"><ele>213.99999999999997</ele><time>2026-05-03T09:08:06.99Z</time></trkpt><trkpt lat="42.25101" lon="12.3732033"><ele>214.0</ele><time>2026-05-03T09:08:07.99Z</time></trkpt><trkpt lat="42.2510067" lon="12.3731083"><ele>214.0</ele><time>2026-05-03T09:08:08.984Z</time></trkpt><trkpt lat="42.2510117" lon="12.3729967"><ele>214.0</ele><time>2026-05-03T09:08:09.986Z</time></trkpt><trkpt lat="42.2510167" lon="12.3728767"><ele>213.99999999999997</ele><time>2026-05-03T09:08:10.987Z</time></trkpt><trkpt lat="42.2510233" lon="12.3727467"><ele>214.0</ele><time>2026-05-03T09:08:11.987Z</time></trkpt><trkpt lat="42.251025" lon="12.3726017"><ele>214.0</ele><time>2026-05-03T09:08:12.987Z</time></trkpt><trkpt lat="42.251025" lon="12.372445"><ele>214.0</ele><time>2026-05-03T09:08:13.989Z</time></trkpt><trkpt lat="42.2510167" lon="12.372275"><ele>214.0</ele><time>2026-05-03T09:08:14.99Z</time></trkpt><trkpt lat="42.2510017" lon="12.3720917"><ele>214.0</ele><time>2026-05-03T09:08:15.984Z</time></trkpt><trkpt lat="42.250985" lon="12.371895"><ele>214.0</ele><time>2026-05-03T09:08:16.991Z</time></trkpt><trkpt lat="42.2509667" lon="12.37169"><ele>214.0</ele><time>2026-05-03T09:08:17.989Z</time></trkpt><trkpt lat="42.2509533" lon="12.3714833"><ele>214.0</ele><time>2026-05-03T09:08:18.985Z</time></trkpt><trkpt lat="42.2509367" lon="12.3712867"><ele>214.25</ele><time>2026-05-03T09:08:19.989Z</time></trkpt><trkpt lat="42.2509167" lon="12.371105"><ele>214.5</ele><time>2026-05-03T09:08:20.987Z</time></trkpt><trkpt lat="42.2509083" lon="12.3709383"><ele>214.75</ele><time>2026-05-03T09:08:21.986Z</time></trkpt><trkpt lat="42.2509083" lon="12.3707817"><ele>215.0</ele><time>2026-05-03T09:08:22.987Z</time></trkpt><trkpt lat="42.2509083" lon="12.3706283"><ele>215.6</ele><time>2026-05-03T09:08:24Z</time></trkpt><trkpt lat="42.25091" lon="12.3704733"><ele>216.2</ele><time>2026-05-03T09:08:24.987Z</time></trkpt><trkpt lat="42.2509117" lon="12.3703167"><ele>216.8</ele><time>2026-05-03T09:08:25.992Z</time></trkpt><trkpt lat="42.25091" lon="12.370165"><ele>217.4</ele><time>2026-05-03T09:08:26.991Z</time></trkpt><trkpt lat="42.250905" lon="12.3700233"><ele>218.0</ele><time>2026-05-03T09:08:27.999Z</time></trkpt><trkpt lat="42.2508917" lon="12.3698983"><ele>218.00000000000003</ele><time>2026-05-03T09:08:28.982Z</time></trkpt><trkpt lat="42.250865" lon="12.36979"><ele>218.0</ele><time>2026-05-03T09:08:29.99Z</time></trkpt><trkpt lat="42.2508233" lon="12.369705"><ele>218.0</ele><time>2026-05-03T09:08:30.989Z</time></trkpt><trkpt lat="42.2507817" lon="12.3696233"><ele>218.0</ele><time>2026-05-03T09:08:31.986Z</time></trkpt><trkpt lat="42.25074" lon="12.3695383"><ele>218.00000000000003</ele><time>2026-05-03T09:08:32.987Z</time></trkpt><trkpt lat="42.2506967" lon="12.369445"><ele>218.0</ele><time>2026-05-03T09:08:33.995Z</time></trkpt><trkpt lat="42.2506517" lon="12.3693383"><ele>218.2</ele><time>2026-05-03T09:08:34.984Z</time></trkpt><trkpt lat="42.2506117" lon="12.369225"><ele>218.4</ele><time>2026-05-03T09:08:35.986Z</time></trkpt><trkpt lat="42.2505667" lon="12.36911"><ele>218.59999999999997</ele><time>2026-05-03T09:08:36.985Z</time></trkpt><trkpt lat="42.2505067" lon="12.3690033"><ele>218.79999999999998</ele><time>2026-05-03T09:08:37.986Z</time></trkpt><trkpt lat="42.2504517" lon="12.3688933"><ele>219.0</ele><time>2026-05-03T09:08:38.987Z</time></trkpt><trkpt lat="42.2503867" lon="12.3687933"><ele>219.39999999999998</ele><time>2026-05-03T09:08:39.984Z</time></trkpt><trkpt lat="42.2503233" lon="12.368695"><ele>219.79999999999998</ele><time>2026-05-03T09:08:40.99Z</time></trkpt><trkpt lat="42.25025" lon="12.3685983"><ele>220.20000000000002</ele><time>2026-05-03T09:08:41.986Z</time></trkpt><trkpt lat="42.2501833" lon="12.3684883"><ele>220.60000000000002</ele><time>2026-05-03T09:08:42.986Z</time></trkpt><trkpt lat="42.25011" lon="12.3683783"><ele>221.0</ele><time>2026-05-03T09:08:43.987Z</time></trkpt><trkpt lat="42.2500367" lon="12.3682583"><ele>221.0</ele><time>2026-05-03T09:08:44.989Z</time></trkpt><trkpt lat="42.24997" lon="12.36813"><ele>221.0</ele><time>2026-05-03T09:08:45.983Z</time></trkpt><trkpt lat="42.2498983" lon="12.3680017"><ele>221.0</ele><time>2026-05-03T09:08:46.987Z</time></trkpt><trkpt lat="42.2498283" lon="12.3678717"><ele>221.0</ele><time>2026-05-03T09:08:47.993Z</time></trkpt><trkpt lat="42.2497717" lon="12.3677383"><ele>221.0</ele><time>2026-05-03T09:08:48.987Z</time></trkpt><trkpt lat="42.2497267" lon="12.367595"><ele>221.00000000000003</ele><time>2026-05-03T09:08:49.989Z</time></trkpt><trkpt lat="42.2496817" lon="12.367455"><ele>221.00000000000003</ele><time>2026-05-03T09:08:50.992Z</time></trkpt><trkpt lat="42.249645" lon="12.3673283"><ele>221.0</ele><time>2026-05-03T09:08:51.988Z</time></trkpt><trkpt lat="42.2495933" lon="12.3672267"><ele>221.0</ele><time>2026-05-03T09:08:52.985Z</time></trkpt><trkpt lat="42.2495333" lon="12.367145"><ele>221.50000000000003</ele><time>2026-05-03T09:08:53.993Z</time></trkpt><trkpt lat="42.2494717" lon="12.36707"><ele>222.0</ele><time>2026-05-03T09:08:54.986Z</time></trkpt><trkpt lat="42.249405" lon="12.3669867"><ele>222.5</ele><time>2026-05-03T09:08:55.99Z</time></trkpt><trkpt lat="42.249335" lon="12.3669033"><ele>223.0</ele><time>2026-05-03T09:08:56.985Z</time></trkpt><trkpt lat="42.2492567" lon="12.3668333"><ele>223.50000000000003</ele><time>2026-05-03T09:08:57.984Z</time></trkpt><trkpt lat="42.24918" lon="12.366775"><ele>224.0</ele><time>2026-05-03T09:08:58.987Z</time></trkpt><trkpt lat="42.249095" lon="12.3667333"><ele>224.0</ele><time>2026-05-03T09:08:59.988Z</time></trkpt><trkpt lat="42.24902" lon="12.366675"><ele>223.99999999999997</ele><time>2026-05-03T09:09:00.988Z</time></trkpt><trkpt lat="42.2489483" lon="12.3666017"><ele>223.99999999999997</ele><time>2026-05-03T09:09:01.992Z</time></trkpt><trkpt lat="42.24889" lon="12.3665033"><ele>224.0</ele><time>2026-05-03T09:09:02.988Z</time></trkpt><trkpt lat="42.2488383" lon="12.3663833"><ele>224.0</ele><time>2026-05-03T09:09:03.984Z</time></trkpt><trkpt lat="42.2487833" lon="12.3662567"><ele>222.75</ele><time>2026-05-03T09:09:04.992Z</time></trkpt><trkpt lat="42.2487283" lon="12.366125"><ele>221.5</ele><time>2026-05-03T09:09:05.987Z</time></trkpt><trkpt lat="42.2486733" lon="12.3659833"><ele>220.25</ele><time>2026-05-03T09:09:06.991Z</time></trkpt><trkpt lat="42.2486133" lon="12.3658383"><ele>219.0</ele><time>2026-05-03T09:09:07.988Z</time></trkpt><trkpt lat="42.2485483" lon="12.365685"><ele>219.75</ele><time>2026-05-03T09:09:08.986Z</time></trkpt><trkpt lat="42.2484833" lon="12.365525"><ele>220.5</ele><time>2026-05-03T09:09:09.991Z</time></trkpt><trkpt lat="42.24842" lon="12.3653617"><ele>221.25</ele><time>2026-05-03T09:09:10.992Z</time></trkpt><trkpt lat="42.2483517" lon="12.3651933"><ele>222.0</ele><time>2026-05-03T09:09:11.989Z</time></trkpt><trkpt lat="42.248285" lon="12.36503"><ele>222.0</ele><time>2026-05-03T09:09:12.986Z</time></trkpt><trkpt lat="42.2482233" lon="12.36487"><ele>222.0</ele><time>2026-05-03T09:09:14.001Z</time></trkpt><trkpt lat="42.2481567" lon="12.3647067"><ele>222.0</ele><time>2026-05-03T09:09:14.989Z</time></trkpt><trkpt lat="42.24809" lon="12.3645367"><ele>222.0</ele><time>2026-05-03T09:09:15.983Z</time></trkpt><trkpt lat="42.2480217" lon="12.364365"><ele>221.75</ele><time>2026-05-03T09:09:16.985Z</time></trkpt><trkpt lat="42.2479533" lon="12.3641917"><ele>221.5</ele><time>2026-05-03T09:09:17.991Z</time></trkpt><trkpt lat="42.247885" lon="12.364015"><ele>221.25</ele><time>2026-05-03T09:09:18.985Z</time></trkpt><trkpt lat="42.2478133" lon="12.3638333"><ele>221.0</ele><time>2026-05-03T09:09:19.989Z</time></trkpt><trkpt lat="42.2477417" lon="12.3636483"><ele>221.0</ele><time>2026-05-03T09:09:20.988Z</time></trkpt><trkpt lat="42.24767" lon="12.36346"><ele>221.0</ele><time>2026-05-03T09:09:21.986Z</time></trkpt><trkpt lat="42.2475933" lon="12.36327"><ele>221.0</ele><time>2026-05-03T09:09:22.992Z</time></trkpt><trkpt lat="42.2475183" lon="12.3630783"><ele>221.0</ele><time>2026-05-03T09:09:23.985Z</time></trkpt><trkpt lat="42.2474417" lon="12.36289"><ele>221.0</ele><time>2026-05-03T09:09:24.989Z</time></trkpt><trkpt lat="42.2473633" lon="12.3626983"><ele>221.0</ele><time>2026-05-03T09:09:25.99Z</time></trkpt><trkpt lat="42.2472867" lon="12.3625"><ele>221.66666666666669</ele><time>2026-05-03T09:09:26.986Z</time></trkpt><trkpt lat="42.2472067" lon="12.3623"><ele>222.33333333333331</ele><time>2026-05-03T09:09:27.991Z</time></trkpt><trkpt lat="42.247125" lon="12.362095"><ele>223.0</ele><time>2026-05-03T09:09:28.986Z</time></trkpt><trkpt lat="42.2470383" lon="12.3618917"><ele>223.0</ele><time>2026-05-03T09:09:29.99Z</time></trkpt><trkpt lat="42.246955" lon="12.3616867"><ele>223.0</ele><time>2026-05-03T09:09:30.993Z</time></trkpt><trkpt lat="42.2468733" lon="12.36148"><ele>223.0</ele><time>2026-05-03T09:09:31.993Z</time></trkpt><trkpt lat="42.2467883" lon="12.3612733"><ele>224.33333333333331</ele><time>2026-05-03T09:09:32.985Z</time></trkpt><trkpt lat="42.246705" lon="12.3610683"><ele>225.66666666666669</ele><time>2026-05-03T09:09:33.991Z</time></trkpt><trkpt lat="42.2466233" lon="12.3608683"><ele>227.0</ele><time>2026-05-03T09:09:34.992Z</time></trkpt><trkpt lat="42.246545" lon="12.3606733"><ele>227.0</ele><time>2026-05-03T09:09:35.992Z</time></trkpt><trkpt lat="42.2464683" lon="12.36049"><ele>227.0</ele><time>2026-05-03T09:09:36.988Z</time></trkpt><trkpt lat="42.2464017" lon="12.3603117"><ele>227.0</ele><time>2026-05-03T09:09:37.991Z</time></trkpt><trkpt lat="42.2463317" lon="12.3601383"><ele>224.75</ele><time>2026-05-03T09:09:38.998Z</time></trkpt><trkpt lat="42.246265" lon="12.3599633"><ele>222.5</ele><time>2026-05-03T09:09:39.986Z</time></trkpt><trkpt lat="42.2461967" lon="12.359785"><ele>220.25</ele><time>2026-05-03T09:09:40.992Z</time></trkpt><trkpt lat="42.2461283" lon="12.3596033"><ele>218.0</ele><time>2026-05-03T09:09:41.99Z</time></trkpt><trkpt lat="42.24606" lon="12.3594233"><ele>217.66666666666669</ele><time>2026-05-03T09:09:42.985Z</time></trkpt><trkpt lat="42.246" lon="12.3592383"><ele>217.33333333333331</ele><time>2026-05-03T09:09:43.997Z</time></trkpt><trkpt lat="42.245945" lon="12.35905"><ele>217.0</ele><time>2026-05-03T09:09:44.986Z</time></trkpt><trkpt lat="42.2458967" lon="12.358855"><ele>218.0</ele><time>2026-05-03T09:09:45.988Z</time></trkpt><trkpt lat="42.2458567" lon="12.35865"><ele>219.0</ele><time>2026-05-03T09:09:46.988Z</time></trkpt><trkpt lat="42.2458167" lon="12.3584383"><ele>220.0</ele><time>2026-05-03T09:09:47.987Z</time></trkpt><trkpt lat="42.2457767" lon="12.3582217"><ele>221.0</ele><time>2026-05-03T09:09:48.989Z</time></trkpt><trkpt lat="42.2457383" lon="12.3579983"><ele>222.0</ele><time>2026-05-03T09:09:49.986Z</time></trkpt><trkpt lat="42.2457017" lon="12.3577717"><ele>223.0</ele><time>2026-05-03T09:09:50.988Z</time></trkpt><trkpt lat="42.2456617" lon="12.357545"><ele>223.0</ele><time>2026-05-03T09:09:51.983Z</time></trkpt><trkpt lat="42.24563" lon="12.357325"><ele>223.0</ele><time>2026-05-03T09:09:52.995Z</time></trkpt><trkpt lat="42.2456033" lon="12.3571067"><ele>223.0</ele><time>2026-05-03T09:09:53.986Z</time></trkpt><trkpt lat="42.245575" lon="12.3568867"><ele>221.66666666666666</ele><time>2026-05-03T09:09:54.989Z</time></trkpt><trkpt lat="42.24555" lon="12.3566717"><ele>220.33333333333331</ele><time>2026-05-03T09:09:55.984Z</time></trkpt><trkpt lat="42.245525" lon="12.35645"><ele>219.0</ele><time>2026-05-03T09:09:56.983Z</time></trkpt><trkpt lat="42.245505" lon="12.3562283"><ele>219.0</ele><time>2026-05-03T09:09:57.984Z</time></trkpt><trkpt lat="42.2454833" lon="12.356005"><ele>219.0</ele><time>2026-05-03T09:09:58.989Z</time></trkpt><trkpt lat="42.2454567" lon="12.3557817"><ele>219.0</ele><time>2026-05-03T09:09:59.992Z</time></trkpt><trkpt lat="42.2454117" lon="12.3555617"><ele>219.0</ele><time>2026-05-03T09:10:00.989Z</time></trkpt><trkpt lat="42.2453517" lon="12.3553483"><ele>219.0</ele><time>2026-05-03T09:10:01.987Z</time></trkpt><trkpt lat="42.2452817" lon="12.35514"><ele>219.0</ele><time>2026-05-03T09:10:02.989Z</time></trkpt><trkpt lat="42.2452267" lon="12.3549283"><ele>219.0</ele><time>2026-05-03T09:10:03.992Z</time></trkpt><trkpt lat="42.24519" lon="12.3547117"><ele>219.0</ele><time>2026-05-03T09:10:04.99Z</time></trkpt><trkpt lat="42.24517" lon="12.3544833"><ele>219.0</ele><time>2026-05-03T09:10:05.99Z</time></trkpt><trkpt lat="42.2451583" lon="12.3542533"><ele>220.33333333333331</ele><time>2026-05-03T09:10:06.989Z</time></trkpt><trkpt lat="42.245145" lon="12.3540217"><ele>221.66666666666666</ele><time>2026-05-03T09:10:07.984Z</time></trkpt><trkpt lat="42.2451283" lon="12.3538017"><ele>223.0</ele><time>2026-05-03T09:10:08.989Z</time></trkpt><trkpt lat="42.2451083" lon="12.3535817"><ele>223.0</ele><time>2026-05-03T09:10:09.986Z</time></trkpt><trkpt lat="42.2450867" lon="12.3533683"><ele>223.0</ele><time>2026-05-03T09:10:10.989Z</time></trkpt><trkpt lat="42.2450617" lon="12.3531533"><ele>223.0</ele><time>2026-05-03T09:10:11.986Z</time></trkpt><trkpt lat="42.2450367" lon="12.352935"><ele>221.66666666666666</ele><time>2026-05-03T09:10:12.987Z</time></trkpt><trkpt lat="42.2450067" lon="12.3527117"><ele>220.33333333333331</ele><time>2026-05-03T09:10:13.987Z</time></trkpt><trkpt lat="42.244975" lon="12.35249"><ele>219.0</ele><time>2026-05-03T09:10:14.984Z</time></trkpt><trkpt lat="42.2449467" lon="12.3522633"><ele>217.66666666666669</ele><time>2026-05-03T09:10:15.985Z</time></trkpt><trkpt lat="42.2449233" lon="12.352035"><ele>216.33333333333334</ele><time>2026-05-03T09:10:16.986Z</time></trkpt><trkpt lat="42.2449" lon="12.3518083"><ele>215.0</ele><time>2026-05-03T09:10:17.99Z</time></trkpt><trkpt lat="42.2448883" lon="12.3515833"><ele>215.0</ele><time>2026-05-03T09:10:18.994Z</time></trkpt><trkpt lat="42.2448883" lon="12.3513633"><ele>215.0</ele><time>2026-05-03T09:10:19.992Z</time></trkpt><trkpt lat="42.2448933" lon="12.3511567"><ele>215.0</ele><time>2026-05-03T09:10:20.985Z</time></trkpt><trkpt lat="42.244895" lon="12.3509583"><ele>215.0</ele><time>2026-05-03T09:10:21.985Z</time></trkpt><trkpt lat="42.2448917" lon="12.3507717"><ele>215.0</ele><time>2026-05-03T09:10:22.986Z</time></trkpt><trkpt lat="42.2448733" lon="12.3506"><ele>215.0</ele><time>2026-05-03T09:10:23.988Z</time></trkpt><trkpt lat="42.2448317" lon="12.350445"><ele>215.0</ele><time>2026-05-03T09:10:24.991Z</time></trkpt><trkpt lat="42.244755" lon="12.3503083"><ele>211.75</ele><time>2026-05-03T09:10:25.99Z</time></trkpt><trkpt lat="42.2446517" lon="12.3501883"><ele>208.5</ele><time>2026-05-03T09:10:26.992Z</time></trkpt><trkpt lat="42.244535" lon="12.3500717"><ele>205.25</ele><time>2026-05-03T09:10:27.987Z</time></trkpt><trkpt lat="42.24442" lon="12.3499467"><ele>202.0</ele><time>2026-05-03T09:10:28.986Z</time></trkpt><trkpt lat="42.2443117" lon="12.3498233"><ele>204.25</ele><time>2026-05-03T09:10:29.992Z</time></trkpt><trkpt lat="42.2442133" lon="12.3496817"><ele>206.5</ele><time>2026-05-03T09:10:30.987Z</time></trkpt><trkpt lat="42.24412" lon="12.3495383"><ele>208.75</ele><time>2026-05-03T09:10:31.991Z</time></trkpt><trkpt lat="42.2440417" lon="12.3493917"><ele>211.0</ele><time>2026-05-03T09:10:32.991Z</time></trkpt><trkpt lat="42.24398" lon="12.3492467"><ele>210.25</ele><time>2026-05-03T09:10:33.984Z</time></trkpt><trkpt lat="42.2439317" lon="12.3490983"><ele>209.5</ele><time>2026-05-03T09:10:34.987Z</time></trkpt><trkpt lat="42.2439" lon="12.3489317"><ele>208.75</ele><time>2026-05-03T09:10:35.989Z</time></trkpt><trkpt lat="42.2438767" lon="12.3487533"><ele>208.0</ele><time>2026-05-03T09:10:36.989Z</time></trkpt><trkpt lat="42.243855" lon="12.3485617"><ele>208.0</ele><time>2026-05-03T09:10:37.989Z</time></trkpt><trkpt lat="42.2438433" lon="12.3483617"><ele>208.0</ele><time>2026-05-03T09:10:38.99Z</time></trkpt><trkpt lat="42.2438383" lon="12.3481533"><ele>208.0</ele><time>2026-05-03T09:10:39.987Z</time></trkpt><trkpt lat="42.243845" lon="12.347945"><ele>208.66666666666666</ele><time>2026-05-03T09:10:40.986Z</time></trkpt><trkpt lat="42.2438567" lon="12.3477317"><ele>209.33333333333331</ele><time>2026-05-03T09:10:41.99Z</time></trkpt><trkpt lat="42.243875" lon="12.34752"><ele>210.0</ele><time>2026-05-03T09:10:42.99Z</time></trkpt><trkpt lat="42.2438933" lon="12.3473067"><ele>210.75</ele><time>2026-05-03T09:10:43.99Z</time></trkpt><trkpt lat="42.24392" lon="12.3471033"><ele>211.5</ele><time>2026-05-03T09:10:44.989Z</time></trkpt><trkpt lat="42.2439417" lon="12.3469067"><ele>212.25</ele><time>2026-05-03T09:10:45.988Z</time></trkpt><trkpt lat="42.24395" lon="12.3467167"><ele>213.0</ele><time>2026-05-03T09:10:46.99Z</time></trkpt><trkpt lat="42.243955" lon="12.3465333"><ele>212.75</ele><time>2026-05-03T09:10:47.989Z</time></trkpt><trkpt lat="42.2439483" lon="12.3463583"><ele>212.5</ele><time>2026-05-03T09:10:48.989Z</time></trkpt><trkpt lat="42.2439483" lon="12.346195"><ele>212.25</ele><time>2026-05-03T09:10:49.991Z</time></trkpt><trkpt lat="42.24396" lon="12.346045"><ele>212.0</ele><time>2026-05-03T09:10:50.986Z</time></trkpt><trkpt lat="42.2439817" lon="12.345915"><ele>212.00000000000003</ele><time>2026-05-03T09:10:51.988Z</time></trkpt><trkpt lat="42.2440067" lon="12.3458083"><ele>212.0</ele><time>2026-05-03T09:10:52.987Z</time></trkpt><trkpt lat="42.2440483" lon="12.3456767"><ele>212.0</ele><time>2026-05-03T09:10:54.992Z</time></trkpt><trkpt lat="42.2440767" lon="12.345595"><ele>212.0</ele><time>2026-05-03T09:10:57.996Z</time></trkpt><trkpt lat="42.2441083" lon="12.3455017"><ele>212.00000000000003</ele><time>2026-05-03T09:11:00.993Z</time></trkpt><trkpt lat="42.24412" lon="12.345375"><ele>212.0</ele><time>2026-05-03T09:11:02.985Z</time></trkpt><trkpt lat="42.244085" lon="12.3451983"><ele>212.16666666666669</ele><time>2026-05-03T09:11:04.989Z</time></trkpt><trkpt lat="42.2440683" lon="12.3451"><ele>212.33333333333334</ele><time>2026-05-03T09:11:05.988Z</time></trkpt><trkpt lat="42.2440583" lon="12.3450017"><ele>212.5</ele><time>2026-05-03T09:11:06.99Z</time></trkpt><trkpt lat="42.24406" lon="12.344895"><ele>212.66666666666669</ele><time>2026-05-03T09:11:07.99Z</time></trkpt><trkpt lat="42.2440683" lon="12.3447817"><ele>212.83333333333334</ele><time>2026-05-03T09:11:08.993Z</time></trkpt><trkpt lat="42.2440783" lon="12.3446683"><ele>213.0</ele><time>2026-05-03T09:11:09.987Z</time></trkpt><trkpt lat="42.24409" lon="12.3445617"><ele>213.4</ele><time>2026-05-03T09:11:10.982Z</time></trkpt><trkpt lat="42.2440967" lon="12.3444667"><ele>213.8</ele><time>2026-05-03T09:11:11.99Z</time></trkpt><trkpt lat="42.244105" lon="12.3443217"><ele>214.2</ele><time>2026-05-03T09:11:13.992Z</time></trkpt><trkpt lat="42.2440917" lon="12.3442067"><ele>214.6</ele><time>2026-05-03T09:11:15.987Z</time></trkpt><trkpt lat="42.2440217" lon="12.3441267"><ele>215.0</ele><time>2026-05-03T09:11:17.989Z</time></trkpt><trkpt lat="42.2439033" lon="12.34411"><ele>215.42857142857142</ele><time>2026-05-03T09:11:19.99Z</time></trkpt><trkpt lat="42.2438383" lon="12.34411"><ele>215.85714285714286</ele><time>2026-05-03T09:11:20.988Z</time></trkpt><trkpt lat="42.2437717" lon="12.344105"><ele>216.28571428571428</ele><time>2026-05-03T09:11:21.987Z</time></trkpt><trkpt lat="42.2437017" lon="12.3440967"><ele>216.71428571428572</ele><time>2026-05-03T09:11:22.989Z</time></trkpt><trkpt lat="42.2436283" lon="12.3440917"><ele>217.14285714285717</ele><time>2026-05-03T09:11:23.989Z</time></trkpt><trkpt lat="42.2435533" lon="12.3440867"><ele>217.57142857142858</ele><time>2026-05-03T09:11:24.99Z</time></trkpt><trkpt lat="42.2434783" lon="12.34408"><ele>218.0</ele><time>2026-05-03T09:11:25.985Z</time></trkpt><trkpt lat="42.2434083" lon="12.3440717"><ele>218.0</ele><time>2026-05-03T09:11:26.985Z</time></trkpt><trkpt lat="42.2433433" lon="12.3440717"><ele>218.0</ele><time>2026-05-03T09:11:27.988Z</time></trkpt><trkpt lat="42.2432333" lon="12.3440633"><ele>218.0</ele><time>2026-05-03T09:11:29.994Z</time></trkpt><trkpt lat="42.2431283" lon="12.3440517"><ele>218.0</ele><time>2026-05-03T09:11:31.988Z</time></trkpt><trkpt lat="42.24302" lon="12.344055"><ele>218.0</ele><time>2026-05-03T09:11:33.988Z</time></trkpt><trkpt lat="42.2428983" lon="12.344065"><ele>218.50000000000003</ele><time>2026-05-03T09:11:35.988Z</time></trkpt><trkpt lat="42.2427733" lon="12.3440867"><ele>219.0</ele><time>2026-05-03T09:11:37.983Z</time></trkpt><trkpt lat="42.24271" lon="12.3440933"><ele>219.5</ele><time>2026-05-03T09:11:38.984Z</time></trkpt><trkpt lat="42.2426467" lon="12.3441033"><ele>220.0</ele><time>2026-05-03T09:11:39.982Z</time></trkpt><trkpt lat="42.2425433" lon="12.3441"><ele>220.50000000000003</ele><time>2026-05-03T09:11:41.991Z</time></trkpt><trkpt lat="42.2424617" lon="12.344045"><ele>221.0</ele><time>2026-05-03T09:11:43.991Z</time></trkpt><trkpt lat="42.2424117" lon="12.3439317"><ele>221.16666666666669</ele><time>2026-05-03T09:11:45.994Z</time></trkpt><trkpt lat="42.2424017" lon="12.3437683"><ele>221.33333333333334</ele><time>2026-05-03T09:11:47.99Z</time></trkpt><trkpt lat="42.242405" lon="12.3436617"><ele>221.5</ele><time>2026-05-03T09:11:48.986Z</time></trkpt><trkpt lat="42.2424217" lon="12.3435617"><ele>221.66666666666669</ele><time>2026-05-03T09:11:49.991Z</time></trkpt><trkpt lat="42.24243" lon="12.3434767"><ele>221.83333333333334</ele><time>2026-05-03T09:11:50.996Z</time></trkpt><trkpt lat="42.242445" lon="12.343335"><ele>222.0</ele><time>2026-05-03T09:11:52.987Z</time></trkpt><trkpt lat="42.2424533" lon="12.3431833"><ele>222.6</ele><time>2026-05-03T09:11:54.99Z</time></trkpt><trkpt lat="42.2424617" lon="12.34302"><ele>223.2</ele><time>2026-05-03T09:11:56.993Z</time></trkpt><trkpt lat="42.24247" lon="12.3428483"><ele>223.8</ele><time>2026-05-03T09:11:58.99Z</time></trkpt><trkpt lat="42.24248" lon="12.3427517"><ele>224.4</ele><time>2026-05-03T09:11:59.989Z</time></trkpt><trkpt lat="42.2424817" lon="12.3426467"><ele>225.0</ele><time>2026-05-03T09:12:00.988Z</time></trkpt><trkpt lat="42.2424883" lon="12.3425383"><ele>225.0</ele><time>2026-05-03T09:12:01.991Z</time></trkpt><trkpt lat="42.2424967" lon="12.3424217"><ele>225.0</ele><time>2026-05-03T09:12:02.989Z</time></trkpt><trkpt lat="42.2425" lon="12.3422967"><ele>225.0</ele><time>2026-05-03T09:12:03.989Z</time></trkpt><trkpt lat="42.242495" lon="12.342185"><ele>225.0</ele><time>2026-05-03T09:12:04.982Z</time></trkpt><trkpt lat="42.24248" lon="12.34209"><ele>225.0</ele><time>2026-05-03T09:12:05.991Z</time></trkpt><trkpt lat="42.2424533" lon="12.3420117"><ele>225.0</ele><time>2026-05-03T09:12:06.99Z</time></trkpt><trkpt lat="42.242415" lon="12.3419133"><ele>225.0</ele><time>2026-05-03T09:12:09.988Z</time></trkpt><trkpt lat="42.242375" lon="12.3418433"><ele>225.0</ele><time>2026-05-03T09:12:11.987Z</time></trkpt><trkpt lat="42.2423483" lon="12.3417333"><ele>225.0</ele><time>2026-05-03T09:12:13.991Z</time></trkpt><trkpt lat="42.24233" lon="12.34157"><ele>225.0</ele><time>2026-05-03T09:12:15.988Z</time></trkpt><trkpt lat="42.2423183" lon="12.3414717"><ele>225.0</ele><time>2026-05-03T09:12:16.99Z</time></trkpt><trkpt lat="42.2423033" lon="12.3413633"><ele>225.0</ele><time>2026-05-03T09:12:17.998Z</time></trkpt><trkpt lat="42.2422817" lon="12.3412467"><ele>225.00000000000003</ele><time>2026-05-03T09:12:18.988Z</time></trkpt><trkpt lat="42.242255" lon="12.34113"><ele>225.0</ele><time>2026-05-03T09:12:19.987Z</time></trkpt><trkpt lat="42.2422317" lon="12.3410283"><ele>225.00000000000003</ele><time>2026-05-03T09:12:21.026Z</time></trkpt><trkpt lat="42.2422133" lon="12.3409317"><ele>225.00000000000003</ele><time>2026-05-03T09:12:21.987Z</time></trkpt><trkpt lat="42.2421983" lon="12.34084"><ele>225.0</ele><time>2026-05-03T09:12:22.99Z</time></trkpt><trkpt lat="42.242185" lon="12.340755"><ele>225.00000000000003</ele><time>2026-05-03T09:12:23.99Z</time></trkpt><trkpt lat="42.24217" lon="12.3406717"><ele>225.00000000000003</ele><time>2026-05-03T09:12:24.99Z</time></trkpt><trkpt lat="42.2421567" lon="12.3405883"><ele>225.0</ele><time>2026-05-03T09:12:25.984Z</time></trkpt><trkpt lat="42.2421417" lon="12.3405033"><ele>225.0</ele><time>2026-05-03T09:12:26.986Z</time></trkpt><trkpt lat="42.2421183" lon="12.34035"><ele>225.0</ele><time>2026-05-03T09:12:28.989Z</time></trkpt><trkpt lat="42.2420833" lon="12.340215"><ele>225.0</ele><time>2026-05-03T09:12:30.989Z</time></trkpt><trkpt lat="42.2420467" lon="12.3400383"><ele>225.0</ele><time>2026-05-03T09:12:32.991Z</time></trkpt><trkpt lat="42.24203" lon="12.3399333"><ele>225.0</ele><time>2026-05-03T09:12:33.985Z</time></trkpt><trkpt lat="42.2420067" lon="12.3398183"><ele>225.0</ele><time>2026-05-03T09:12:34.989Z</time></trkpt><trkpt lat="42.2419833" lon="12.3397"><ele>225.0</ele><time>2026-05-03T09:12:35.99Z</time></trkpt><trkpt lat="42.2419583" lon="12.33958"><ele>225.0</ele><time>2026-05-03T09:12:36.99Z</time></trkpt><trkpt lat="42.24193" lon="12.339455"><ele>225.0</ele><time>2026-05-03T09:12:37.992Z</time></trkpt><trkpt lat="42.241905" lon="12.33933"><ele>225.0</ele><time>2026-05-03T09:12:38.986Z</time></trkpt><trkpt lat="42.241875" lon="12.3391883"><ele>225.0</ele><time>2026-05-03T09:12:39.994Z</time></trkpt><trkpt lat="42.2418433" lon="12.339035"><ele>225.0</ele><time>2026-05-03T09:12:40.987Z</time></trkpt><trkpt lat="42.2418067" lon="12.3388683"><ele>225.0</ele><time>2026-05-03T09:12:41.995Z</time></trkpt><trkpt lat="42.2417717" lon="12.3386983"><ele>224.75</ele><time>2026-05-03T09:12:42.988Z</time></trkpt><trkpt lat="42.2417367" lon="12.3385267"><ele>224.5</ele><time>2026-05-03T09:12:43.99Z</time></trkpt><trkpt lat="42.2417017" lon="12.3383517"><ele>224.25</ele><time>2026-05-03T09:12:44.99Z</time></trkpt><trkpt lat="42.2416617" lon="12.338175"><ele>224.0</ele><time>2026-05-03T09:12:45.986Z</time></trkpt><trkpt lat="42.2416267" lon="12.33801"><ele>223.75</ele><time>2026-05-03T09:12:46.987Z</time></trkpt><trkpt lat="42.2415867" lon="12.3378483"><ele>223.5</ele><time>2026-05-03T09:12:47.987Z</time></trkpt><trkpt lat="42.241535" lon="12.33769"><ele>223.25</ele><time>2026-05-03T09:12:48.989Z</time></trkpt><trkpt lat="42.2414667" lon="12.3375433"><ele>223.0</ele><time>2026-05-03T09:12:49.986Z</time></trkpt><trkpt lat="42.241385" lon="12.337405"><ele>224.0</ele><time>2026-05-03T09:12:50.986Z</time></trkpt><trkpt lat="42.24129" lon="12.3372767"><ele>225.0</ele><time>2026-05-03T09:12:51.983Z</time></trkpt><trkpt lat="42.2411867" lon="12.3371517"><ele>226.0</ele><time>2026-05-03T09:12:52.986Z</time></trkpt><trkpt lat="42.241075" lon="12.3370317"><ele>227.0</ele><time>2026-05-03T09:12:53.991Z</time></trkpt><trkpt lat="42.24096" lon="12.3369117"><ele>227.5</ele><time>2026-05-03T09:12:54.989Z</time></trkpt><trkpt lat="42.2408467" lon="12.3367917"><ele>228.0</ele><time>2026-05-03T09:12:55.993Z</time></trkpt><trkpt lat="42.2407283" lon="12.3366683"><ele>228.5</ele><time>2026-05-03T09:12:56.989Z</time></trkpt><trkpt lat="42.240615" lon="12.336545"><ele>229.0</ele><time>2026-05-03T09:12:57.987Z</time></trkpt><trkpt lat="42.240515" lon="12.3364167"><ele>229.39999999999998</ele><time>2026-05-03T09:12:58.986Z</time></trkpt><trkpt lat="42.2404317" lon="12.336285"><ele>229.79999999999998</ele><time>2026-05-03T09:12:59.992Z</time></trkpt><trkpt lat="42.2403633" lon="12.3361683"><ele>230.20000000000002</ele><time>2026-05-03T09:13:00.988Z</time></trkpt><trkpt lat="42.2402967" lon="12.3360733"><ele>230.60000000000002</ele><time>2026-05-03T09:13:01.985Z</time></trkpt><trkpt lat="42.2402383" lon="12.3359883"><ele>231.0</ele><time>2026-05-03T09:13:02.986Z</time></trkpt><trkpt lat="42.2401867" lon="12.33591"><ele>231.0</ele><time>2026-05-03T09:13:03.988Z</time></trkpt><trkpt lat="42.2401417" lon="12.33584"><ele>231.0</ele><time>2026-05-03T09:13:04.985Z</time></trkpt><trkpt lat="42.2401033" lon="12.33577"><ele>231.0</ele><time>2026-05-03T09:13:05.985Z</time></trkpt><trkpt lat="42.2400667" lon="12.3357"><ele>231.0</ele><time>2026-05-03T09:13:06.991Z</time></trkpt><trkpt lat="42.2400267" lon="12.33562"><ele>231.0</ele><time>2026-05-03T09:13:07.993Z</time></trkpt><trkpt lat="42.2399833" lon="12.335535"><ele>231.0</ele><time>2026-05-03T09:13:08.998Z</time></trkpt><trkpt lat="42.2399333" lon="12.3354483"><ele>231.0</ele><time>2026-05-03T09:13:09.985Z</time></trkpt><trkpt lat="42.2398867" lon="12.33536"><ele>230.83333333333334</ele><time>2026-05-03T09:13:10.986Z</time></trkpt><trkpt lat="42.2398433" lon="12.335285"><ele>230.66666666666669</ele><time>2026-05-03T09:13:11.988Z</time></trkpt><trkpt lat="42.2398017" lon="12.3352133"><ele>230.5</ele><time>2026-05-03T09:13:12.991Z</time></trkpt><trkpt lat="42.23976" lon="12.3351433"><ele>230.33333333333334</ele><time>2026-05-03T09:13:13.986Z</time></trkpt><trkpt lat="42.2396883" lon="12.3350167"><ele>230.16666666666669</ele><time>2026-05-03T09:13:15.984Z</time></trkpt><trkpt lat="42.2396383" lon="12.3349067"><ele>230.0</ele><time>2026-05-03T09:13:17.991Z</time></trkpt><trkpt lat="42.2396067" lon="12.334775"><ele>230.6</ele><time>2026-05-03T09:13:19.998Z</time></trkpt><trkpt lat="42.2395667" lon="12.3346433"><ele>231.2</ele><time>2026-05-03T09:13:21.985Z</time></trkpt><trkpt lat="42.2395067" lon="12.3345483"><ele>231.8</ele><time>2026-05-03T09:13:23.993Z</time></trkpt><trkpt lat="42.23943" lon="12.3344667"><ele>232.4</ele><time>2026-05-03T09:13:25.984Z</time></trkpt><trkpt lat="42.23934" lon="12.3343583"><ele>233.0</ele><time>2026-05-03T09:13:27.985Z</time></trkpt><trkpt lat="42.239295" lon="12.3342867"><ele>233.00000000000003</ele><time>2026-05-03T09:13:28.987Z</time></trkpt><trkpt lat="42.2392433" lon="12.3342133"><ele>233.0</ele><time>2026-05-03T09:13:29.993Z</time></trkpt><trkpt lat="42.23919" lon="12.33413"><ele>233.0</ele><time>2026-05-03T09:13:30.991Z</time></trkpt><trkpt lat="42.2391333" lon="12.334035"><ele>233.0</ele><time>2026-05-03T09:13:31.993Z</time></trkpt><trkpt lat="42.2390817" lon="12.3339417"><ele>233.00000000000003</ele><time>2026-05-03T09:13:32.986Z</time></trkpt><trkpt lat="42.239035" lon="12.33386"><ele>233.0</ele><time>2026-05-03T09:13:33.99Z</time></trkpt><trkpt lat="42.2389433" lon="12.3337283"><ele>233.60000000000002</ele><time>2026-05-03T09:13:35.991Z</time></trkpt><trkpt lat="42.2388883" lon="12.33365"><ele>234.20000000000002</ele><time>2026-05-03T09:13:36.985Z</time></trkpt><trkpt lat="42.23883" lon="12.3335583"><ele>234.8</ele><time>2026-05-03T09:13:37.983Z</time></trkpt><trkpt lat="42.2387683" lon="12.3334517"><ele>235.4</ele><time>2026-05-03T09:13:38.986Z</time></trkpt><trkpt lat="42.2387083" lon="12.3333417"><ele>236.0</ele><time>2026-05-03T09:13:39.989Z</time></trkpt><trkpt lat="42.2386517" lon="12.3332367"><ele>236.0</ele><time>2026-05-03T09:13:40.988Z</time></trkpt><trkpt lat="42.2385917" lon="12.333125"><ele>236.00000000000003</ele><time>2026-05-03T09:13:41.987Z</time></trkpt><trkpt lat="42.2385333" lon="12.3330067"><ele>236.00000000000003</ele><time>2026-05-03T09:13:42.989Z</time></trkpt><trkpt lat="42.2384683" lon="12.3328833"><ele>236.0</ele><time>2026-05-03T09:13:43.996Z</time></trkpt><trkpt lat="42.2383983" lon="12.33276"><ele>236.0</ele><time>2026-05-03T09:13:44.987Z</time></trkpt><trkpt lat="42.2383267" lon="12.3326217"><ele>236.20000000000002</ele><time>2026-05-03T09:13:45.985Z</time></trkpt><trkpt lat="42.2382517" lon="12.33249"><ele>236.40000000000003</ele><time>2026-05-03T09:13:46.989Z</time></trkpt><trkpt lat="42.2381817" lon="12.332365"><ele>236.6</ele><time>2026-05-03T09:13:47.985Z</time></trkpt><trkpt lat="42.23812" lon="12.332255"><ele>236.8</ele><time>2026-05-03T09:13:48.989Z</time></trkpt><trkpt lat="42.2380633" lon="12.3321533"><ele>237.0</ele><time>2026-05-03T09:13:49.984Z</time></trkpt><trkpt lat="42.2380167" lon="12.3320533"><ele>237.0</ele><time>2026-05-03T09:13:50.986Z</time></trkpt><trkpt lat="42.2379667" lon="12.3319583"><ele>237.0</ele><time>2026-05-03T09:13:51.985Z</time></trkpt><trkpt lat="42.2379133" lon="12.3318567"><ele>237.0</ele><time>2026-05-03T09:13:52.988Z</time></trkpt><trkpt lat="42.23785" lon="12.3317483"><ele>237.0</ele><time>2026-05-03T09:13:53.986Z</time></trkpt><trkpt lat="42.2377833" lon="12.331625"><ele>237.0</ele><time>2026-05-03T09:13:54.987Z</time></trkpt><trkpt lat="42.2377117" lon="12.3314967"><ele>236.75</ele><time>2026-05-03T09:13:55.99Z</time></trkpt><trkpt lat="42.2376333" lon="12.33136"><ele>236.5</ele><time>2026-05-03T09:13:56.988Z</time></trkpt><trkpt lat="42.23755" lon="12.3312133"><ele>236.25</ele><time>2026-05-03T09:13:57.989Z</time></trkpt><trkpt lat="42.2374617" lon="12.331065"><ele>236.0</ele><time>2026-05-03T09:13:58.991Z</time></trkpt><trkpt lat="42.23738" lon="12.330915"><ele>236.0</ele><time>2026-05-03T09:13:59.984Z</time></trkpt><trkpt lat="42.2372983" lon="12.3307633"><ele>236.0</ele><time>2026-05-03T09:14:00.985Z</time></trkpt><trkpt lat="42.2372167" lon="12.3306167"><ele>236.0</ele><time>2026-05-03T09:14:01.99Z</time></trkpt><trkpt lat="42.2371383" lon="12.3304783"><ele>236.0</ele><time>2026-05-03T09:14:03Z</time></trkpt><trkpt lat="42.237065" lon="12.3303483"><ele>236.20000000000002</ele><time>2026-05-03T09:14:03.995Z</time></trkpt><trkpt lat="42.236995" lon="12.33023"><ele>236.40000000000003</ele><time>2026-05-03T09:14:04.991Z</time></trkpt><trkpt lat="42.2369317" lon="12.33012"><ele>236.6</ele><time>2026-05-03T09:14:05.986Z</time></trkpt><trkpt lat="42.2368733" lon="12.3300117"><ele>236.8</ele><time>2026-05-03T09:14:06.989Z</time></trkpt><trkpt lat="42.2368217" lon="12.3299117"><ele>237.0</ele><time>2026-05-03T09:14:07.991Z</time></trkpt><trkpt lat="42.2367683" lon="12.3298083"><ele>236.6</ele><time>2026-05-03T09:14:08.986Z</time></trkpt><trkpt lat="42.236715" lon="12.3297"><ele>236.2</ele><time>2026-05-03T09:14:09.987Z</time></trkpt><trkpt lat="42.236665" lon="12.329585"><ele>235.8</ele><time>2026-05-03T09:14:10.985Z</time></trkpt><trkpt lat="42.23662" lon="12.3294617"><ele>235.4</ele><time>2026-05-03T09:14:11.989Z</time></trkpt><trkpt lat="42.2365817" lon="12.3293567"><ele>235.0</ele><time>2026-05-03T09:14:12.984Z</time></trkpt><trkpt lat="42.236535" lon="12.3292583"><ele>234.99999999999997</ele><time>2026-05-03T09:14:13.984Z</time></trkpt><trkpt lat="42.236475" lon="12.3291733"><ele>235.0</ele><time>2026-05-03T09:14:14.988Z</time></trkpt><trkpt lat="42.2364067" lon="12.3291033"><ele>235.0</ele><time>2026-05-03T09:14:15.99Z</time></trkpt><trkpt lat="42.2363433" lon="12.329025"><ele>235.0</ele><time>2026-05-03T09:14:16.989Z</time></trkpt><trkpt lat="42.23628" lon="12.3289367"><ele>234.99999999999997</ele><time>2026-05-03T09:14:17.995Z</time></trkpt><trkpt lat="42.23622" lon="12.32884"><ele>235.0</ele><time>2026-05-03T09:14:18.989Z</time></trkpt><trkpt lat="42.2361617" lon="12.3287383"><ele>234.83333333333331</ele><time>2026-05-03T09:14:19.99Z</time></trkpt><trkpt lat="42.2361033" lon="12.3286417"><ele>234.66666666666666</ele><time>2026-05-03T09:14:20.984Z</time></trkpt><trkpt lat="42.236045" lon="12.3285383"><ele>234.5</ele><time>2026-05-03T09:14:21.991Z</time></trkpt><trkpt lat="42.2359867" lon="12.3284417"><ele>234.33333333333331</ele><time>2026-05-03T09:14:22.989Z</time></trkpt><trkpt lat="42.2359333" lon="12.328355"><ele>234.16666666666666</ele><time>2026-05-03T09:14:23.991Z</time></trkpt><trkpt lat="42.235885" lon="12.3282667"><ele>234.0</ele><time>2026-05-03T09:14:24.991Z</time></trkpt><trkpt lat="42.235835" lon="12.3281683"><ele>234.0</ele><time>2026-05-03T09:14:25.99Z</time></trkpt><trkpt lat="42.23578" lon="12.32807"><ele>233.99999999999997</ele><time>2026-05-03T09:14:26.989Z</time></trkpt><trkpt lat="42.2357233" lon="12.3279567"><ele>233.99999999999997</ele><time>2026-05-03T09:14:27.99Z</time></trkpt><trkpt lat="42.235665" lon="12.3278267"><ele>234.0</ele><time>2026-05-03T09:14:28.996Z</time></trkpt><trkpt lat="42.2356117" lon="12.3276967"><ele>234.0</ele><time>2026-05-03T09:14:29.986Z</time></trkpt><trkpt lat="42.2355633" lon="12.3275633"><ele>235.0</ele><time>2026-05-03T09:14:30.984Z</time></trkpt><trkpt lat="42.23552" lon="12.3274183"><ele>236.0</ele><time>2026-05-03T09:14:31.986Z</time></trkpt><trkpt lat="42.235475" lon="12.3272733"><ele>237.0</ele><time>2026-05-03T09:14:32.99Z</time></trkpt><trkpt lat="42.2354367" lon="12.3271083"><ele>238.0</ele><time>2026-05-03T09:14:33.995Z</time></trkpt><trkpt lat="42.2354017" lon="12.32694"><ele>238.0</ele><time>2026-05-03T09:14:34.988Z</time></trkpt><trkpt lat="42.2353683" lon="12.32677"><ele>238.0</ele><time>2026-05-03T09:14:35.989Z</time></trkpt><trkpt lat="42.23533" lon="12.3265933"><ele>238.0</ele><time>2026-05-03T09:14:36.995Z</time></trkpt><trkpt lat="42.2352933" lon="12.3264267"><ele>238.0</ele><time>2026-05-03T09:14:37.991Z</time></trkpt><trkpt lat="42.23526" lon="12.3262533"><ele>238.0</ele><time>2026-05-03T09:14:38.986Z</time></trkpt><trkpt lat="42.2352183" lon="12.3260733"><ele>238.0</ele><time>2026-05-03T09:14:39.99Z</time></trkpt><trkpt lat="42.2351783" lon="12.3258833"><ele>238.0</ele><time>2026-05-03T09:14:40.988Z</time></trkpt><trkpt lat="42.2351433" lon="12.32569"><ele>238.0</ele><time>2026-05-03T09:14:41.989Z</time></trkpt><trkpt lat="42.2351083" lon="12.3254917"><ele>238.25</ele><time>2026-05-03T09:14:42.986Z</time></trkpt><trkpt lat="42.23507" lon="12.3252983"><ele>238.5</ele><time>2026-05-03T09:14:43.991Z</time></trkpt><trkpt lat="42.2350333" lon="12.3251117"><ele>238.75</ele><time>2026-05-03T09:14:44.987Z</time></trkpt><trkpt lat="42.235" lon="12.3249267"><ele>239.0</ele><time>2026-05-03T09:14:45.992Z</time></trkpt><trkpt lat="42.2349683" lon="12.3247383"><ele>239.25</ele><time>2026-05-03T09:14:46.986Z</time></trkpt><trkpt lat="42.2349367" lon="12.324545"><ele>239.5</ele><time>2026-05-03T09:14:47.989Z</time></trkpt><trkpt lat="42.2349017" lon="12.3243517"><ele>239.75</ele><time>2026-05-03T09:14:48.985Z</time></trkpt><trkpt lat="42.2348667" lon="12.324165"><ele>240.0</ele><time>2026-05-03T09:14:49.986Z</time></trkpt><trkpt lat="42.2348283" lon="12.3239867"><ele>240.0</ele><time>2026-05-03T09:14:50.992Z</time></trkpt><trkpt lat="42.2347917" lon="12.323815"><ele>240.0</ele><time>2026-05-03T09:14:51.993Z</time></trkpt><trkpt lat="42.2347533" lon="12.3236483"><ele>240.0</ele><time>2026-05-03T09:14:52.986Z</time></trkpt><trkpt lat="42.2347217" lon="12.3234767"><ele>240.0</ele><time>2026-05-03T09:14:53.988Z</time></trkpt><trkpt lat="42.2346917" lon="12.3233"><ele>240.0</ele><time>2026-05-03T09:14:54.986Z</time></trkpt><trkpt lat="42.2346617" lon="12.323125"><ele>240.0</ele><time>2026-05-03T09:14:55.989Z</time></trkpt><trkpt lat="42.2346283" lon="12.32296"><ele>240.0</ele><time>2026-05-03T09:14:56.99Z</time></trkpt><trkpt lat="42.2345967" lon="12.3228067"><ele>240.0</ele><time>2026-05-03T09:14:57.985Z</time></trkpt><trkpt lat="42.2345617" lon="12.3226567"><ele>240.0</ele><time>2026-05-03T09:14:58.988Z</time></trkpt><trkpt lat="42.2345283" lon="12.322505"><ele>240.0</ele><time>2026-05-03T09:14:59.989Z</time></trkpt><trkpt lat="42.2344917" lon="12.3223633"><ele>240.0</ele><time>2026-05-03T09:15:00.991Z</time></trkpt><trkpt lat="42.2344533" lon="12.3221983"><ele>240.0</ele><time>2026-05-03T09:15:01.989Z</time></trkpt><trkpt lat="42.2344067" lon="12.32203"><ele>239.75</ele><time>2026-05-03T09:15:02.986Z</time></trkpt><trkpt lat="42.2343383" lon="12.321865"><ele>239.5</ele><time>2026-05-03T09:15:03.992Z</time></trkpt><trkpt lat="42.2342683" lon="12.3217083"><ele>239.25</ele><time>2026-05-03T09:15:04.987Z</time></trkpt><trkpt lat="42.234195" lon="12.321565"><ele>239.0</ele><time>2026-05-03T09:15:05.988Z</time></trkpt><trkpt lat="42.2341233" lon="12.3214283"><ele>238.6</ele><time>2026-05-03T09:15:06.988Z</time></trkpt><trkpt lat="42.23406" lon="12.321305"><ele>238.2</ele><time>2026-05-03T09:15:07.988Z</time></trkpt><trkpt lat="42.2339983" lon="12.3211867"><ele>237.79999999999998</ele><time>2026-05-03T09:15:08.985Z</time></trkpt><trkpt lat="42.2339333" lon="12.321075"><ele>237.39999999999998</ele><time>2026-05-03T09:15:09.984Z</time></trkpt><trkpt lat="42.2338717" lon="12.3209633"><ele>237.0</ele><time>2026-05-03T09:15:10.987Z</time></trkpt><trkpt lat="42.23381" lon="12.3208567"><ele>236.83333333333334</ele><time>2026-05-03T09:15:11.987Z</time></trkpt><trkpt lat="42.2337517" lon="12.32076"><ele>236.66666666666669</ele><time>2026-05-03T09:15:12.988Z</time></trkpt><trkpt lat="42.2337" lon="12.3206717"><ele>236.5</ele><time>2026-05-03T09:15:13.988Z</time></trkpt><trkpt lat="42.23366" lon="12.3205917"><ele>236.33333333333334</ele><time>2026-05-03T09:15:14.994Z</time></trkpt><trkpt lat="42.2336267" lon="12.3205167"><ele>236.16666666666669</ele><time>2026-05-03T09:15:15.984Z</time></trkpt><trkpt lat="42.2335883" lon="12.3203767"><ele>236.0</ele><time>2026-05-03T09:15:17.988Z</time></trkpt><trkpt lat="42.2335367" lon="12.3202167"><ele>236.0</ele><time>2026-05-03T09:15:19.999Z</time></trkpt><trkpt lat="42.2334917" lon="12.320135"><ele>236.00000000000003</ele><time>2026-05-03T09:15:20.987Z</time></trkpt><trkpt lat="42.2334283" lon="12.3200583"><ele>236.00000000000003</ele><time>2026-05-03T09:15:21.986Z</time></trkpt><trkpt lat="42.2333483" lon="12.31999"><ele>236.0</ele><time>2026-05-03T09:15:22.989Z</time></trkpt><trkpt lat="42.23327" lon="12.3199"><ele>236.0</ele><time>2026-05-03T09:15:23.987Z</time></trkpt><trkpt lat="42.23319" lon="12.319785"><ele>236.5</ele><time>2026-05-03T09:15:24.99Z</time></trkpt><trkpt lat="42.2331083" lon="12.3196467"><ele>237.0</ele><time>2026-05-03T09:15:26Z</time></trkpt><trkpt lat="42.2330267" lon="12.3194983"><ele>237.5</ele><time>2026-05-03T09:15:26.994Z</time></trkpt><trkpt lat="42.2329433" lon="12.3193567"><ele>238.0</ele><time>2026-05-03T09:15:27.986Z</time></trkpt><trkpt lat="42.232855" lon="12.3192117"><ele>238.0</ele><time>2026-05-03T09:15:28.99Z</time></trkpt><trkpt lat="42.23276" lon="12.31906"><ele>238.0</ele><time>2026-05-03T09:15:29.989Z</time></trkpt><trkpt lat="42.232665" lon="12.3189"><ele>238.0</ele><time>2026-05-03T09:15:30.989Z</time></trkpt><trkpt lat="42.2325683" lon="12.318735"><ele>238.33333333333331</ele><time>2026-05-03T09:15:31.987Z</time></trkpt><trkpt lat="42.2324733" lon="12.31857"><ele>238.66666666666669</ele><time>2026-05-03T09:15:32.991Z</time></trkpt><trkpt lat="42.23238" lon="12.3184083"><ele>239.0</ele><time>2026-05-03T09:15:33.988Z</time></trkpt><trkpt lat="42.2322833" lon="12.318245"><ele>239.0</ele><time>2026-05-03T09:15:34.992Z</time></trkpt><trkpt lat="42.2321833" lon="12.3180783"><ele>239.0</ele><time>2026-05-03T09:15:35.992Z</time></trkpt><trkpt lat="42.23208" lon="12.3179083"><ele>239.0</ele><time>2026-05-03T09:15:36.988Z</time></trkpt><trkpt lat="42.231975" lon="12.3177333"><ele>238.33333333333334</ele><time>2026-05-03T09:15:37.991Z</time></trkpt><trkpt lat="42.2318733" lon="12.3175667"><ele>237.66666666666669</ele><time>2026-05-03T09:15:38.983Z</time></trkpt><trkpt lat="42.23177" lon="12.3174067"><ele>237.0</ele><time>2026-05-03T09:15:39.988Z</time></trkpt><trkpt lat="42.2316683" lon="12.317235"><ele>237.0</ele><time>2026-05-03T09:15:40.984Z</time></trkpt><trkpt lat="42.231565" lon="12.3170583"><ele>237.0</ele><time>2026-05-03T09:15:41.983Z</time></trkpt><trkpt lat="42.2314583" lon="12.316885"><ele>237.0</ele><time>2026-05-03T09:15:42.988Z</time></trkpt><trkpt lat="42.2313483" lon="12.3167117"><ele>237.66666666666669</ele><time>2026-05-03T09:15:43.987Z</time></trkpt><trkpt lat="42.2312417" lon="12.31653"><ele>238.33333333333334</ele><time>2026-05-03T09:15:44.989Z</time></trkpt><trkpt lat="42.23114" lon="12.31634"><ele>239.0</ele><time>2026-05-03T09:15:45.987Z</time></trkpt><trkpt lat="42.2310333" lon="12.3161533"><ele>239.33333333333334</ele><time>2026-05-03T09:15:46.99Z</time></trkpt><trkpt lat="42.2309233" lon="12.3159683"><ele>239.66666666666669</ele><time>2026-05-03T09:15:47.99Z</time></trkpt><trkpt lat="42.2308133" lon="12.31578"><ele>240.0</ele><time>2026-05-03T09:15:48.991Z</time></trkpt><trkpt lat="42.2307067" lon="12.3155967"><ele>239.66666666666669</ele><time>2026-05-03T09:15:49.989Z</time></trkpt><trkpt lat="42.2306117" lon="12.31542"><ele>239.33333333333334</ele><time>2026-05-03T09:15:50.991Z</time></trkpt><trkpt lat="42.2305217" lon="12.315255"><ele>239.0</ele><time>2026-05-03T09:15:51.989Z</time></trkpt><trkpt lat="42.2304317" lon="12.315095"><ele>239.0</ele><time>2026-05-03T09:15:52.986Z</time></trkpt><trkpt lat="42.230345" lon="12.3149383"><ele>239.0</ele><time>2026-05-03T09:15:53.99Z</time></trkpt><trkpt lat="42.2302583" lon="12.3147833"><ele>239.0</ele><time>2026-05-03T09:15:54.986Z</time></trkpt><trkpt lat="42.2301733" lon="12.3146267"><ele>239.0</ele><time>2026-05-03T09:15:55.994Z</time></trkpt><trkpt lat="42.230085" lon="12.3144683"><ele>239.0</ele><time>2026-05-03T09:15:56.996Z</time></trkpt><trkpt lat="42.22999" lon="12.3143083"><ele>239.0</ele><time>2026-05-03T09:15:57.993Z</time></trkpt><trkpt lat="42.2298967" lon="12.3141533"><ele>239.0</ele><time>2026-05-03T09:15:58.982Z</time></trkpt><trkpt lat="42.2298033" lon="12.3140017"><ele>239.0</ele><time>2026-05-03T09:15:59.991Z</time></trkpt><trkpt lat="42.2297117" lon="12.3138533"><ele>238.5</ele><time>2026-05-03T09:16:00.988Z</time></trkpt><trkpt lat="42.22961" lon="12.313715"><ele>238.0</ele><time>2026-05-03T09:16:01.993Z</time></trkpt><trkpt lat="42.2295" lon="12.3135883"><ele>237.5</ele><time>2026-05-03T09:16:02.994Z</time></trkpt><trkpt lat="42.229385" lon="12.3134717"><ele>237.0</ele><time>2026-05-03T09:16:03.985Z</time></trkpt><trkpt lat="42.2292667" lon="12.31336"><ele>237.0</ele><time>2026-05-03T09:16:04.987Z</time></trkpt><trkpt lat="42.22915" lon="12.3132467"><ele>237.0</ele><time>2026-05-03T09:16:05.989Z</time></trkpt><trkpt lat="42.2290217" lon="12.31313"><ele>237.0</ele><time>2026-05-03T09:16:06.995Z</time></trkpt><trkpt lat="42.22888" lon="12.3130083"><ele>235.0</ele><time>2026-05-03T09:16:07.995Z</time></trkpt><trkpt lat="42.228725" lon="12.3128783"><ele>233.0</ele><time>2026-05-03T09:16:08.99Z</time></trkpt><trkpt lat="42.22857" lon="12.312735"><ele>231.0</ele><time>2026-05-03T09:16:09.987Z</time></trkpt><trkpt lat="42.22841" lon="12.3125783"><ele>231.0</ele><time>2026-05-03T09:16:10.994Z</time></trkpt><trkpt lat="42.228235" lon="12.3124183"><ele>231.0</ele><time>2026-05-03T09:16:11.99Z</time></trkpt><trkpt lat="42.22805" lon="12.3122567"><ele>231.0</ele><time>2026-05-03T09:16:12.988Z</time></trkpt><trkpt lat="42.227865" lon="12.3121033"><ele>229.33333333333331</ele><time>2026-05-03T09:16:13.987Z</time></trkpt><trkpt lat="42.2276817" lon="12.3119483"><ele>227.66666666666666</ele><time>2026-05-03T09:16:14.99Z</time></trkpt><trkpt lat="42.2275" lon="12.3117867"><ele>226.0</ele><time>2026-05-03T09:16:15.987Z</time></trkpt><trkpt lat="42.2273133" lon="12.3116217"><ele>224.33333333333331</ele><time>2026-05-03T09:16:16.988Z</time></trkpt><trkpt lat="42.2271283" lon="12.31146"><ele>222.66666666666669</ele><time>2026-05-03T09:16:17.996Z</time></trkpt><trkpt lat="42.2269417" lon="12.3113"><ele>221.0</ele><time>2026-05-03T09:16:18.987Z</time></trkpt><trkpt lat="42.2267567" lon="12.311145"><ele>221.0</ele><time>2026-05-03T09:16:19.995Z</time></trkpt><trkpt lat="42.22657" lon="12.3109867"><ele>221.0</ele><time>2026-05-03T09:16:20.991Z</time></trkpt><trkpt lat="42.226385" lon="12.31083"><ele>221.0</ele><time>2026-05-03T09:16:21.985Z</time></trkpt><trkpt lat="42.2262" lon="12.31067"><ele>221.0</ele><time>2026-05-03T09:16:22.99Z</time></trkpt><trkpt lat="42.2260183" lon="12.3105117"><ele>221.0</ele><time>2026-05-03T09:16:23.988Z</time></trkpt><trkpt lat="42.2258383" lon="12.3103517"><ele>221.0</ele><time>2026-05-03T09:16:24.995Z</time></trkpt><trkpt lat="42.2256617" lon="12.3101883"><ele>223.0</ele><time>2026-05-03T09:16:25.987Z</time></trkpt><trkpt lat="42.225485" lon="12.3100233"><ele>225.0</ele><time>2026-05-03T09:16:26.987Z</time></trkpt><trkpt lat="42.22531" lon="12.30986"><ele>227.0</ele><time>2026-05-03T09:16:27.993Z</time></trkpt><trkpt lat="42.2251367" lon="12.3096933"><ele>227.0</ele><time>2026-05-03T09:16:28.985Z</time></trkpt><trkpt lat="42.22496" lon="12.309525"><ele>227.0</ele><time>2026-05-03T09:16:29.988Z</time></trkpt><trkpt lat="42.2247767" lon="12.3093617"><ele>227.0</ele><time>2026-05-03T09:16:30.99Z</time></trkpt><trkpt lat="42.224595" lon="12.3092033"><ele>227.66666666666669</ele><time>2026-05-03T09:16:31.993Z</time></trkpt><trkpt lat="42.2244117" lon="12.3090483"><ele>228.33333333333331</ele><time>2026-05-03T09:16:32.994Z</time></trkpt><trkpt lat="42.2242317" lon="12.308885"><ele>229.0</ele><time>2026-05-03T09:16:33.981Z</time></trkpt><trkpt lat="42.224055" lon="12.3087183"><ele>231.0</ele><time>2026-05-03T09:16:34.985Z</time></trkpt><trkpt lat="42.2238817" lon="12.3085567"><ele>233.0</ele><time>2026-05-03T09:16:35.991Z</time></trkpt><trkpt lat="42.2237067" lon="12.3084033"><ele>235.0</ele><time>2026-05-03T09:16:36.985Z</time></trkpt><trkpt lat="42.2235333" lon="12.308255"><ele>235.0</ele><time>2026-05-03T09:16:37.99Z</time></trkpt><trkpt lat="42.22336" lon="12.3081"><ele>235.0</ele><time>2026-05-03T09:16:38.989Z</time></trkpt><trkpt lat="42.2231883" lon="12.3079433"><ele>235.0</ele><time>2026-05-03T09:16:39.985Z</time></trkpt><trkpt lat="42.22302" lon="12.3077833"><ele>235.33333333333331</ele><time>2026-05-03T09:16:40.991Z</time></trkpt><trkpt lat="42.222855" lon="12.30763"><ele>235.66666666666669</ele><time>2026-05-03T09:16:41.994Z</time></trkpt><trkpt lat="42.2226983" lon="12.307495"><ele>236.0</ele><time>2026-05-03T09:16:42.988Z</time></trkpt><trkpt lat="42.2225533" lon="12.3073633"><ele>235.33333333333334</ele><time>2026-05-03T09:16:43.989Z</time></trkpt><trkpt lat="42.2224183" lon="12.3072333"><ele>234.66666666666669</ele><time>2026-05-03T09:16:44.993Z</time></trkpt><trkpt lat="42.2222833" lon="12.307105"><ele>234.0</ele><time>2026-05-03T09:16:45.987Z</time></trkpt><trkpt lat="42.2221483" lon="12.3069767"><ele>234.0</ele><time>2026-05-03T09:16:46.991Z</time></trkpt><trkpt lat="42.2220217" lon="12.3068567"><ele>234.0</ele><time>2026-05-03T09:16:47.988Z</time></trkpt><trkpt lat="42.2219" lon="12.3067517"><ele>234.0</ele><time>2026-05-03T09:16:48.994Z</time></trkpt><trkpt lat="42.221795" lon="12.306655"><ele>234.0</ele><time>2026-05-03T09:16:49.985Z</time></trkpt><trkpt lat="42.2217" lon="12.3065617"><ele>234.0</ele><time>2026-05-03T09:16:50.985Z</time></trkpt><trkpt lat="42.2216233" lon="12.3064617"><ele>233.99999999999997</ele><time>2026-05-03T09:16:51.989Z</time></trkpt><trkpt lat="42.2215583" lon="12.306355"><ele>233.99999999999997</ele><time>2026-05-03T09:16:52.988Z</time></trkpt><trkpt lat="42.2215133" lon="12.3062467"><ele>234.0</ele><time>2026-05-03T09:16:53.99Z</time></trkpt><trkpt lat="42.221485" lon="12.306135"><ele>234.0</ele><time>2026-05-03T09:16:54.988Z</time></trkpt><trkpt lat="42.2214683" lon="12.3060267"><ele>233.66666666666666</ele><time>2026-05-03T09:16:55.991Z</time></trkpt><trkpt lat="42.2214433" lon="12.3059267"><ele>233.33333333333331</ele><time>2026-05-03T09:16:56.995Z</time></trkpt><trkpt lat="42.2214" lon="12.3058483"><ele>233.0</ele><time>2026-05-03T09:16:57.987Z</time></trkpt><trkpt lat="42.22134" lon="12.3058"><ele>232.66666666666666</ele><time>2026-05-03T09:16:58.988Z</time></trkpt><trkpt lat="42.2212667" lon="12.3057833"><ele>232.33333333333331</ele><time>2026-05-03T09:16:59.985Z</time></trkpt><trkpt lat="42.22119" lon="12.3057883"><ele>232.0</ele><time>2026-05-03T09:17:00.987Z</time></trkpt><trkpt lat="42.2211017" lon="12.3057883"><ele>232.0</ele><time>2026-05-03T09:17:01.99Z</time></trkpt><trkpt lat="42.2210067" lon="12.3057717"><ele>232.0</ele><time>2026-05-03T09:17:02.989Z</time></trkpt><trkpt lat="42.22091" lon="12.3057367"><ele>232.0</ele><time>2026-05-03T09:17:03.986Z</time></trkpt><trkpt lat="42.2208067" lon="12.3056867"><ele>232.0</ele><time>2026-05-03T09:17:04.984Z</time></trkpt><trkpt lat="42.2206967" lon="12.3056267"><ele>232.0</ele><time>2026-05-03T09:17:05.984Z</time></trkpt><trkpt lat="42.2205767" lon="12.305565"><ele>230.25</ele><time>2026-05-03T09:17:06.985Z</time></trkpt><trkpt lat="42.2204617" lon="12.305505"><ele>228.5</ele><time>2026-05-03T09:17:07.988Z</time></trkpt><trkpt lat="42.2203417" lon="12.305445"><ele>226.75</ele><time>2026-05-03T09:17:08.988Z</time></trkpt><trkpt lat="42.2202167" lon="12.3053833"><ele>225.0</ele><time>2026-05-03T09:17:09.986Z</time></trkpt><trkpt lat="42.2200833" lon="12.305325"><ele>225.0</ele><time>2026-05-03T09:17:10.987Z</time></trkpt><trkpt lat="42.2199433" lon="12.3052633"><ele>225.0</ele><time>2026-05-03T09:17:11.988Z</time></trkpt><trkpt lat="42.2198067" lon="12.3052017"><ele>225.0</ele><time>2026-05-03T09:17:12.989Z</time></trkpt><trkpt lat="42.219665" lon="12.3051367"><ele>225.0</ele><time>2026-05-03T09:17:13.988Z</time></trkpt><trkpt lat="42.2195233" lon="12.305075"><ele>223.75</ele><time>2026-05-03T09:17:14.987Z</time></trkpt><trkpt lat="42.2193833" lon="12.3050117"><ele>222.5</ele><time>2026-05-03T09:17:15.985Z</time></trkpt><trkpt lat="42.2192483" lon="12.30495"><ele>221.25</ele><time>2026-05-03T09:17:16.988Z</time></trkpt><trkpt lat="42.2191117" lon="12.3048883"><ele>220.0</ele><time>2026-05-03T09:17:17.993Z</time></trkpt><trkpt lat="42.21898" lon="12.3048267"><ele>220.0</ele><time>2026-05-03T09:17:18.981Z</time></trkpt><trkpt lat="42.2188533" lon="12.3047667"><ele>220.0</ele><time>2026-05-03T09:17:19.986Z</time></trkpt><trkpt lat="42.21873" lon="12.3047117"><ele>220.0</ele><time>2026-05-03T09:17:20.987Z</time></trkpt><trkpt lat="42.2186033" lon="12.3046567"><ele>220.0</ele><time>2026-05-03T09:17:21.986Z</time></trkpt><trkpt lat="42.218475" lon="12.3046017"><ele>219.0</ele><time>2026-05-03T09:17:22.994Z</time></trkpt><trkpt lat="42.2183433" lon="12.3045483"><ele>218.0</ele><time>2026-05-03T09:17:23.987Z</time></trkpt><trkpt lat="42.218205" lon="12.3044867"><ele>217.0</ele><time>2026-05-03T09:17:24.988Z</time></trkpt><trkpt lat="42.218065" lon="12.3044233"><ele>216.0</ele><time>2026-05-03T09:17:25.988Z</time></trkpt><trkpt lat="42.2179283" lon="12.30436"><ele>216.0</ele><time>2026-05-03T09:17:26.993Z</time></trkpt><trkpt lat="42.2177867" lon="12.3042883"><ele>216.0</ele><time>2026-05-03T09:17:27.989Z</time></trkpt><trkpt lat="42.2176433" lon="12.3042083"><ele>216.0</ele><time>2026-05-03T09:17:28.985Z</time></trkpt><trkpt lat="42.2175" lon="12.304135"><ele>216.0</ele><time>2026-05-03T09:17:29.982Z</time></trkpt><trkpt lat="42.2173533" lon="12.3040733"><ele>216.0</ele><time>2026-05-03T09:17:30.987Z</time></trkpt><trkpt lat="42.2172067" lon="12.3040133"><ele>216.0</ele><time>2026-05-03T09:17:31.988Z</time></trkpt><trkpt lat="42.21706" lon="12.303975"><ele>215.75</ele><time>2026-05-03T09:17:32.99Z</time></trkpt><trkpt lat="42.2169133" lon="12.3039567"><ele>215.5</ele><time>2026-05-03T09:17:33.992Z</time></trkpt><trkpt lat="42.216765" lon="12.3039633"><ele>215.25</ele><time>2026-05-03T09:17:34.985Z</time></trkpt><trkpt lat="42.2166183" lon="12.3039983"><ele>215.0</ele><time>2026-05-03T09:17:35.988Z</time></trkpt><trkpt lat="42.2164733" lon="12.30405"><ele>213.66666666666669</ele><time>2026-05-03T09:17:36.99Z</time></trkpt><trkpt lat="42.216325" lon="12.3041067"><ele>212.33333333333331</ele><time>2026-05-03T09:17:37.986Z</time></trkpt><trkpt lat="42.2161783" lon="12.3041667"><ele>211.0</ele><time>2026-05-03T09:17:38.988Z</time></trkpt><trkpt lat="42.2160267" lon="12.3042317"><ele>211.0</ele><time>2026-05-03T09:17:39.992Z</time></trkpt><trkpt lat="42.2158733" lon="12.3042967"><ele>211.0</ele><time>2026-05-03T09:17:40.983Z</time></trkpt><trkpt lat="42.2157183" lon="12.304365"><ele>211.0</ele><time>2026-05-03T09:17:41.986Z</time></trkpt><trkpt lat="42.215565" lon="12.3044317"><ele>211.66666666666666</ele><time>2026-05-03T09:17:42.987Z</time></trkpt><trkpt lat="42.2154117" lon="12.3045"><ele>212.33333333333331</ele><time>2026-05-03T09:17:43.988Z</time></trkpt><trkpt lat="42.21526" lon="12.3045733"><ele>213.0</ele><time>2026-05-03T09:17:44.992Z</time></trkpt><trkpt lat="42.2151083" lon="12.304645"><ele>213.0</ele><time>2026-05-03T09:17:45.988Z</time></trkpt><trkpt lat="42.2149567" lon="12.3047117"><ele>213.0</ele><time>2026-05-03T09:17:46.985Z</time></trkpt><trkpt lat="42.2148067" lon="12.304775"><ele>213.0</ele><time>2026-05-03T09:17:47.99Z</time></trkpt><trkpt lat="42.214655" lon="12.304835"><ele>212.66666666666669</ele><time>2026-05-03T09:17:48.988Z</time></trkpt><trkpt lat="42.2145" lon="12.3048883"><ele>212.33333333333334</ele><time>2026-05-03T09:17:49.989Z</time></trkpt><trkpt lat="42.214345" lon="12.3049383"><ele>212.0</ele><time>2026-05-03T09:17:50.985Z</time></trkpt><trkpt lat="42.2141867" lon="12.304985"><ele>212.0</ele><time>2026-05-03T09:17:51.984Z</time></trkpt><trkpt lat="42.2140283" lon="12.3050283"><ele>212.0</ele><time>2026-05-03T09:17:52.988Z</time></trkpt><trkpt lat="42.2138717" lon="12.30507"><ele>212.0</ele><time>2026-05-03T09:17:53.985Z</time></trkpt><trkpt lat="42.213715" lon="12.3051117"><ele>211.33333333333334</ele><time>2026-05-03T09:17:54.986Z</time></trkpt><trkpt lat="42.2135567" lon="12.3051517"><ele>210.66666666666669</ele><time>2026-05-03T09:17:55.989Z</time></trkpt><trkpt lat="42.2133967" lon="12.3051933"><ele>210.0</ele><time>2026-05-03T09:17:56.988Z</time></trkpt><trkpt lat="42.2132367" lon="12.3052317"><ele>210.33333333333331</ele><time>2026-05-03T09:17:57.991Z</time></trkpt><trkpt lat="42.2130767" lon="12.3052683"><ele>210.66666666666666</ele><time>2026-05-03T09:17:58.987Z</time></trkpt><trkpt lat="42.2129167" lon="12.305305"><ele>211.0</ele><time>2026-05-03T09:17:59.985Z</time></trkpt><trkpt lat="42.2127583" lon="12.305345"><ele>211.0</ele><time>2026-05-03T09:18:00.99Z</time></trkpt><trkpt lat="42.2126017" lon="12.305385"><ele>211.0</ele><time>2026-05-03T09:18:01.986Z</time></trkpt><trkpt lat="42.2124483" lon="12.3054233"><ele>211.0</ele><time>2026-05-03T09:18:02.986Z</time></trkpt><trkpt lat="42.212305" lon="12.3054583"><ele>213.25</ele><time>2026-05-03T09:18:03.985Z</time></trkpt><trkpt lat="42.212165" lon="12.3054933"><ele>215.5</ele><time>2026-05-03T09:18:04.99Z</time></trkpt><trkpt lat="42.2120233" lon="12.3055267"><ele>217.75</ele><time>2026-05-03T09:18:05.988Z</time></trkpt><trkpt lat="42.21188" lon="12.3055683"><ele>220.0</ele><time>2026-05-03T09:18:06.989Z</time></trkpt><trkpt lat="42.2117333" lon="12.3056083"><ele>220.25</ele><time>2026-05-03T09:18:07.99Z</time></trkpt><trkpt lat="42.2115933" lon="12.305645"><ele>220.5</ele><time>2026-05-03T09:18:08.986Z</time></trkpt><trkpt lat="42.2114583" lon="12.30568"><ele>220.75</ele><time>2026-05-03T09:18:09.988Z</time></trkpt><trkpt lat="42.211325" lon="12.3057117"><ele>221.0</ele><time>2026-05-03T09:18:10.986Z</time></trkpt><trkpt lat="42.2111917" lon="12.305745"><ele>222.25</ele><time>2026-05-03T09:18:11.985Z</time></trkpt><trkpt lat="42.2110617" lon="12.3057817"><ele>223.5</ele><time>2026-05-03T09:18:12.987Z</time></trkpt><trkpt lat="42.2109317" lon="12.3058183"><ele>224.75</ele><time>2026-05-03T09:18:13.984Z</time></trkpt><trkpt lat="42.2108017" lon="12.3058567"><ele>226.0</ele><time>2026-05-03T09:18:14.987Z</time></trkpt><trkpt lat="42.2106717" lon="12.3058917"><ele>228.25</ele><time>2026-05-03T09:18:15.989Z</time></trkpt><trkpt lat="42.2105433" lon="12.305925"><ele>230.5</ele><time>2026-05-03T09:18:16.984Z</time></trkpt><trkpt lat="42.210415" lon="12.3059583"><ele>232.75</ele><time>2026-05-03T09:18:17.986Z</time></trkpt><trkpt lat="42.2102867" lon="12.3059867"><ele>235.0</ele><time>2026-05-03T09:18:18.985Z</time></trkpt><trkpt lat="42.2101567" lon="12.306005"><ele>235.0</ele><time>2026-05-03T09:18:19.985Z</time></trkpt><trkpt lat="42.210025" lon="12.3060133"><ele>235.0</ele><time>2026-05-03T09:18:20.986Z</time></trkpt><trkpt lat="42.2098933" lon="12.306015"><ele>235.0</ele><time>2026-05-03T09:18:21.991Z</time></trkpt><trkpt lat="42.2097683" lon="12.3060017"><ele>235.0</ele><time>2026-05-03T09:18:22.985Z</time></trkpt><trkpt lat="42.2096483" lon="12.30599"><ele>237.25</ele><time>2026-05-03T09:18:23.986Z</time></trkpt><trkpt lat="42.2095233" lon="12.30598"><ele>239.5</ele><time>2026-05-03T09:18:24.988Z</time></trkpt><trkpt lat="42.2093967" lon="12.3059683"><ele>241.75</ele><time>2026-05-03T09:18:25.992Z</time></trkpt><trkpt lat="42.2092717" lon="12.3059583"><ele>244.0</ele><time>2026-05-03T09:18:26.988Z</time></trkpt><trkpt lat="42.20915" lon="12.3059533"><ele>244.0</ele><time>2026-05-03T09:18:27.986Z</time></trkpt><trkpt lat="42.2090333" lon="12.3059467"><ele>244.0</ele><time>2026-05-03T09:18:28.991Z</time></trkpt><trkpt lat="42.20891" lon="12.3059417"><ele>244.0</ele><time>2026-05-03T09:18:29.987Z</time></trkpt><trkpt lat="42.2087867" lon="12.3059417"><ele>244.0</ele><time>2026-05-03T09:18:30.985Z</time></trkpt><trkpt lat="42.2086617" lon="12.305955"><ele>244.79999999999998</ele><time>2026-05-03T09:18:31.989Z</time></trkpt><trkpt lat="42.2085483" lon="12.3059733"><ele>245.59999999999997</ele><time>2026-05-03T09:18:32.987Z</time></trkpt><trkpt lat="42.20844" lon="12.3059933"><ele>246.4</ele><time>2026-05-03T09:18:33.99Z</time></trkpt><trkpt lat="42.2083367" lon="12.3060183"><ele>247.2</ele><time>2026-05-03T09:18:34.991Z</time></trkpt><trkpt lat="42.2082383" lon="12.3060533"><ele>248.0</ele><time>2026-05-03T09:18:35.989Z</time></trkpt><trkpt lat="42.208155" lon="12.306085"><ele>248.00000000000003</ele><time>2026-05-03T09:18:36.989Z</time></trkpt><trkpt lat="42.208065" lon="12.3061217"><ele>248.0</ele><time>2026-05-03T09:18:37.987Z</time></trkpt><trkpt lat="42.2079783" lon="12.306165"><ele>248.0</ele><time>2026-05-03T09:18:38.994Z</time></trkpt><trkpt lat="42.207895" lon="12.306195"><ele>248.0</ele><time>2026-05-03T09:18:39.99Z</time></trkpt><trkpt lat="42.2078233" lon="12.3062317"><ele>248.00000000000003</ele><time>2026-05-03T09:18:40.988Z</time></trkpt><trkpt lat="42.2077567" lon="12.30625"><ele>248.0</ele><time>2026-05-03T09:18:41.987Z</time></trkpt><trkpt lat="42.2076683" lon="12.3062333"><ele>248.00000000000003</ele><time>2026-05-03T09:18:43.996Z</time></trkpt><trkpt lat="42.207615" lon="12.306185"><ele>248.0</ele><time>2026-05-03T09:18:46.99Z</time></trkpt><trkpt lat="42.2075667" lon="12.30609"><ele>248.0</ele><time>2026-05-03T09:18:48.987Z</time></trkpt><trkpt lat="42.20749" lon="12.305945"><ele>248.0</ele><time>2026-05-03T09:18:50.994Z</time></trkpt><trkpt lat="42.2074483" lon="12.3058683"><ele>248.00000000000003</ele><time>2026-05-03T09:18:51.986Z</time></trkpt><trkpt lat="42.2074167" lon="12.3057867"><ele>248.0</ele><time>2026-05-03T09:18:52.995Z</time></trkpt><trkpt lat="42.2074033" lon="12.3057"><ele>247.60000000000002</ele><time>2026-05-03T09:18:53.99Z</time></trkpt><trkpt lat="42.2074583" lon="12.3055417"><ele>247.20000000000002</ele><time>2026-05-03T09:18:55.991Z</time></trkpt><trkpt lat="42.207525" lon="12.30546"><ele>246.8</ele><time>2026-05-03T09:18:56.987Z</time></trkpt><trkpt lat="42.2075917" lon="12.3053667"><ele>246.4</ele><time>2026-05-03T09:18:57.986Z</time></trkpt><trkpt lat="42.2076617" lon="12.3052533"><ele>246.0</ele><time>2026-05-03T09:18:58.985Z</time></trkpt><trkpt lat="42.207735" lon="12.3051217"><ele>246.0</ele><time>2026-05-03T09:18:59.989Z</time></trkpt><trkpt lat="42.2078117" lon="12.3049867"><ele>246.0</ele><time>2026-05-03T09:19:00.988Z</time></trkpt><trkpt lat="42.2078867" lon="12.3048517"><ele>246.0</ele><time>2026-05-03T09:19:01.983Z</time></trkpt><trkpt lat="42.2079633" lon="12.3047117"><ele>246.0</ele><time>2026-05-03T09:19:02.988Z</time></trkpt><trkpt lat="42.2080383" lon="12.30457"><ele>246.25</ele><time>2026-05-03T09:19:03.986Z</time></trkpt><trkpt lat="42.2081167" lon="12.3044267"><ele>246.5</ele><time>2026-05-03T09:19:04.986Z</time></trkpt><trkpt lat="42.2081967" lon="12.3042817"><ele>246.75</ele><time>2026-05-03T09:19:05.984Z</time></trkpt><trkpt lat="42.208275" lon="12.3041283"><ele>247.0</ele><time>2026-05-03T09:19:06.997Z</time></trkpt><trkpt lat="42.2083583" lon="12.30397"><ele>244.66666666666666</ele><time>2026-05-03T09:19:07.995Z</time></trkpt><trkpt lat="42.2084467" lon="12.30381"><ele>242.33333333333331</ele><time>2026-05-03T09:19:08.988Z</time></trkpt><trkpt lat="42.20854" lon="12.3036467"><ele>240.0</ele><time>2026-05-03T09:19:09.987Z</time></trkpt><trkpt lat="42.20863" lon="12.3034783"><ele>240.0</ele><time>2026-05-03T09:19:10.986Z</time></trkpt><trkpt lat="42.2087233" lon="12.3033117"><ele>240.0</ele><time>2026-05-03T09:19:11.988Z</time></trkpt><trkpt lat="42.20882" lon="12.3031417"><ele>240.0</ele><time>2026-05-03T09:19:12.989Z</time></trkpt><trkpt lat="42.2089233" lon="12.302965"><ele>241.66666666666669</ele><time>2026-05-03T09:19:13.988Z</time></trkpt><trkpt lat="42.20903" lon="12.302785"><ele>243.33333333333334</ele><time>2026-05-03T09:19:14.989Z</time></trkpt><trkpt lat="42.2091367" lon="12.3025983"><ele>245.0</ele><time>2026-05-03T09:19:15.987Z</time></trkpt><trkpt lat="42.2092467" lon="12.3024083"><ele>244.33333333333334</ele><time>2026-05-03T09:19:16.982Z</time></trkpt><trkpt lat="42.2093567" lon="12.302215"><ele>243.66666666666669</ele><time>2026-05-03T09:19:17.983Z</time></trkpt><trkpt lat="42.2094667" lon="12.3020167"><ele>243.0</ele><time>2026-05-03T09:19:18.999Z</time></trkpt><trkpt lat="42.2095783" lon="12.3018133"><ele>243.0</ele><time>2026-05-03T09:19:19.984Z</time></trkpt><trkpt lat="42.2096917" lon="12.3016067"><ele>243.0</ele><time>2026-05-03T09:19:20.986Z</time></trkpt><trkpt lat="42.209805" lon="12.3013933"><ele>243.0</ele><time>2026-05-03T09:19:21.987Z</time></trkpt><trkpt lat="42.20992" lon="12.301175"><ele>244.66666666666669</ele><time>2026-05-03T09:19:22.985Z</time></trkpt><trkpt lat="42.210035" lon="12.3009583"><ele>246.33333333333334</ele><time>2026-05-03T09:19:23.987Z</time></trkpt><trkpt lat="42.2101417" lon="12.3007367"><ele>248.0</ele><time>2026-05-03T09:19:24.985Z</time></trkpt><trkpt lat="42.2102417" lon="12.3005083"><ele>248.0</ele><time>2026-05-03T09:19:25.985Z</time></trkpt><trkpt lat="42.2103317" lon="12.30026"><ele>248.0</ele><time>2026-05-03T09:19:26.987Z</time></trkpt><trkpt lat="42.2104233" lon="12.3000033"><ele>248.0</ele><time>2026-05-03T09:19:27.984Z</time></trkpt><trkpt lat="42.2105067" lon="12.2997467"><ele>247.0</ele><time>2026-05-03T09:19:28.989Z</time></trkpt><trkpt lat="42.2105783" lon="12.29949"><ele>246.0</ele><time>2026-05-03T09:19:29.992Z</time></trkpt><trkpt lat="42.2106467" lon="12.2992317"><ele>245.0</ele><time>2026-05-03T09:19:30.988Z</time></trkpt><trkpt lat="42.2107033" lon="12.298965"><ele>243.66666666666669</ele><time>2026-05-03T09:19:31.986Z</time></trkpt><trkpt lat="42.2107667" lon="12.2987"><ele>242.33333333333331</ele><time>2026-05-03T09:19:32.984Z</time></trkpt><trkpt lat="42.2108217" lon="12.298445"><ele>241.0</ele><time>2026-05-03T09:19:33.986Z</time></trkpt><trkpt lat="42.2108783" lon="12.298195"><ele>242.0</ele><time>2026-05-03T09:19:34.987Z</time></trkpt><trkpt lat="42.2109417" lon="12.29794"><ele>243.0</ele><time>2026-05-03T09:19:35.984Z</time></trkpt><trkpt lat="42.211005" lon="12.2976867"><ele>244.0</ele><time>2026-05-03T09:19:36.986Z</time></trkpt><trkpt lat="42.2110783" lon="12.2974417"><ele>244.0</ele><time>2026-05-03T09:19:37.987Z</time></trkpt><trkpt lat="42.211155" lon="12.297195"><ele>244.0</ele><time>2026-05-03T09:19:38.987Z</time></trkpt><trkpt lat="42.21124" lon="12.2969533"><ele>244.0</ele><time>2026-05-03T09:19:39.984Z</time></trkpt><trkpt lat="42.2113333" lon="12.2967183"><ele>244.0</ele><time>2026-05-03T09:19:40.984Z</time></trkpt><trkpt lat="42.2114317" lon="12.29649"><ele>244.0</ele><time>2026-05-03T09:19:41.986Z</time></trkpt><trkpt lat="42.21154" lon="12.296265"><ele>244.0</ele><time>2026-05-03T09:19:42.987Z</time></trkpt><trkpt lat="42.21166" lon="12.296045"><ele>242.33333333333331</ele><time>2026-05-03T09:19:43.991Z</time></trkpt><trkpt lat="42.2117883" lon="12.295835"><ele>240.66666666666669</ele><time>2026-05-03T09:19:44.988Z</time></trkpt><trkpt lat="42.2119267" lon="12.295635"><ele>239.0</ele><time>2026-05-03T09:19:45.985Z</time></trkpt><trkpt lat="42.2120733" lon="12.2954417"><ele>239.0</ele><time>2026-05-03T09:19:46.985Z</time></trkpt><trkpt lat="42.2122267" lon="12.2952533"><ele>239.0</ele><time>2026-05-03T09:19:47.983Z</time></trkpt><trkpt lat="42.2123817" lon="12.2950683"><ele>239.0</ele><time>2026-05-03T09:19:48.985Z</time></trkpt><trkpt lat="42.212535" lon="12.29489"><ele>238.33333333333334</ele><time>2026-05-03T09:19:49.99Z</time></trkpt><trkpt lat="42.212685" lon="12.2947167"><ele>237.66666666666669</ele><time>2026-05-03T09:19:50.987Z</time></trkpt><trkpt lat="42.21284" lon="12.2945433"><ele>237.0</ele><time>2026-05-03T09:19:51.989Z</time></trkpt><trkpt lat="42.2129917" lon="12.2943733"><ele>237.0</ele><time>2026-05-03T09:19:52.985Z</time></trkpt><trkpt lat="42.2131417" lon="12.294205"><ele>237.0</ele><time>2026-05-03T09:19:53.985Z</time></trkpt><trkpt lat="42.2132883" lon="12.294045"><ele>237.0</ele><time>2026-05-03T09:19:54.984Z</time></trkpt><trkpt lat="42.2134317" lon="12.2938933"><ele>238.33333333333331</ele><time>2026-05-03T09:19:55.987Z</time></trkpt><trkpt lat="42.2135733" lon="12.29374"><ele>239.66666666666666</ele><time>2026-05-03T09:19:56.986Z</time></trkpt><trkpt lat="42.2137133" lon="12.29358"><ele>241.0</ele><time>2026-05-03T09:19:57.986Z</time></trkpt><trkpt lat="42.2138467" lon="12.2934217"><ele>241.0</ele><time>2026-05-03T09:19:58.988Z</time></trkpt><trkpt lat="42.2139833" lon="12.293275"><ele>241.0</ele><time>2026-05-03T09:19:59.985Z</time></trkpt><trkpt lat="42.21412" lon="12.2931283"><ele>241.0</ele><time>2026-05-03T09:20:00.989Z</time></trkpt><trkpt lat="42.2142483" lon="12.2929867"><ele>243.0</ele><time>2026-05-03T09:20:01.993Z</time></trkpt><trkpt lat="42.21437" lon="12.2928483"><ele>245.0</ele><time>2026-05-03T09:20:02.989Z</time></trkpt><trkpt lat="42.2144867" lon="12.2927017"><ele>247.0</ele><time>2026-05-03T09:20:03.986Z</time></trkpt><trkpt lat="42.214605" lon="12.2925567"><ele>247.0</ele><time>2026-05-03T09:20:04.988Z</time></trkpt><trkpt lat="42.2147167" lon="12.2924033"><ele>247.0</ele><time>2026-05-03T09:20:05.993Z</time></trkpt><trkpt lat="42.2148233" lon="12.2922317"><ele>247.0</ele><time>2026-05-03T09:20:06.988Z</time></trkpt><trkpt lat="42.2149267" lon="12.2920433"><ele>247.33333333333331</ele><time>2026-05-03T09:20:07.99Z</time></trkpt><trkpt lat="42.2150167" lon="12.29184"><ele>247.66666666666669</ele><time>2026-05-03T09:20:08.984Z</time></trkpt><trkpt lat="42.2151" lon="12.2916367"><ele>248.0</ele><time>2026-05-03T09:20:09.988Z</time></trkpt><trkpt lat="42.2151633" lon="12.2914167"><ele>248.0</ele><time>2026-05-03T09:20:10.985Z</time></trkpt><trkpt lat="42.2152217" lon="12.2912"><ele>248.0</ele><time>2026-05-03T09:20:11.99Z</time></trkpt><trkpt lat="42.21526" lon="12.29098"><ele>248.0</ele><time>2026-05-03T09:20:12.99Z</time></trkpt><trkpt lat="42.2152883" lon="12.290765"><ele>248.33333333333334</ele><time>2026-05-03T09:20:13.987Z</time></trkpt><trkpt lat="42.2153033" lon="12.2905433"><ele>248.66666666666669</ele><time>2026-05-03T09:20:14.995Z</time></trkpt><trkpt lat="42.215315" lon="12.290325"><ele>249.0</ele><time>2026-05-03T09:20:15.985Z</time></trkpt><trkpt lat="42.2153117" lon="12.2901033"><ele>249.0</ele><time>2026-05-03T09:20:16.985Z</time></trkpt><trkpt lat="42.215295" lon="12.2898733"><ele>249.0</ele><time>2026-05-03T09:20:17.991Z</time></trkpt><trkpt lat="42.2152733" lon="12.2896367"><ele>249.0</ele><time>2026-05-03T09:20:18.987Z</time></trkpt><trkpt lat="42.2152567" lon="12.28939"><ele>247.66666666666669</ele><time>2026-05-03T09:20:19.991Z</time></trkpt><trkpt lat="42.215235" lon="12.2891333"><ele>246.33333333333334</ele><time>2026-05-03T09:20:20.991Z</time></trkpt><trkpt lat="42.2152083" lon="12.2888583"><ele>245.0</ele><time>2026-05-03T09:20:21.985Z</time></trkpt><trkpt lat="42.2151817" lon="12.2885667"><ele>244.0</ele><time>2026-05-03T09:20:22.987Z</time></trkpt><trkpt lat="42.215155" lon="12.2882567"><ele>243.0</ele><time>2026-05-03T09:20:23.986Z</time></trkpt><trkpt lat="42.2151383" lon="12.2879417"><ele>243.0</ele><time>2026-05-03T09:20:24.984Z</time></trkpt><trkpt lat="42.215125" lon="12.2876367"><ele>243.0</ele><time>2026-05-03T09:20:25.987Z</time></trkpt><trkpt lat="42.2151083" lon="12.2873417"><ele>243.0</ele><time>2026-05-03T09:20:26.987Z</time></trkpt><trkpt lat="42.21509" lon="12.2870567"><ele>243.0</ele><time>2026-05-03T09:20:27.987Z</time></trkpt><trkpt lat="42.215075" lon="12.2867783"><ele>243.0</ele><time>2026-05-03T09:20:28.987Z</time></trkpt><trkpt lat="42.2150583" lon="12.2865033"><ele>243.0</ele><time>2026-05-03T09:20:29.986Z</time></trkpt><trkpt lat="42.21504" lon="12.286225"><ele>242.66666666666669</ele><time>2026-05-03T09:20:30.993Z</time></trkpt><trkpt lat="42.2150217" lon="12.2859417"><ele>242.33333333333334</ele><time>2026-05-03T09:20:31.99Z</time></trkpt><trkpt lat="42.2150033" lon="12.28567"><ele>242.0</ele><time>2026-05-03T09:20:32.992Z</time></trkpt><trkpt lat="42.2149867" lon="12.2854"><ele>242.0</ele><time>2026-05-03T09:20:33.983Z</time></trkpt><trkpt lat="42.2149683" lon="12.28513"><ele>242.0</ele><time>2026-05-03T09:20:34.986Z</time></trkpt><trkpt lat="42.21495" lon="12.2848667"><ele>242.0</ele><time>2026-05-03T09:20:35.99Z</time></trkpt><trkpt lat="42.214935" lon="12.284605"><ele>242.0</ele><time>2026-05-03T09:20:36.987Z</time></trkpt><trkpt lat="42.2149183" lon="12.28434"><ele>242.0</ele><time>2026-05-03T09:20:37.989Z</time></trkpt><trkpt lat="42.2148983" lon="12.28407"><ele>242.0</ele><time>2026-05-03T09:20:38.989Z</time></trkpt><trkpt lat="42.2148733" lon="12.2838017"><ele>242.33333333333334</ele><time>2026-05-03T09:20:39.984Z</time></trkpt><trkpt lat="42.214855" lon="12.2835317"><ele>242.66666666666669</ele><time>2026-05-03T09:20:40.99Z</time></trkpt><trkpt lat="42.21484" lon="12.2832633"><ele>243.0</ele><time>2026-05-03T09:20:41.99Z</time></trkpt><trkpt lat="42.21482" lon="12.2830033"><ele>243.0</ele><time>2026-05-03T09:20:42.982Z</time></trkpt><trkpt lat="42.2148083" lon="12.28275"><ele>243.0</ele><time>2026-05-03T09:20:43.991Z</time></trkpt><trkpt lat="42.2148" lon="12.2824933"><ele>243.0</ele><time>2026-05-03T09:20:44.988Z</time></trkpt><trkpt lat="42.2147867" lon="12.2822367"><ele>242.66666666666669</ele><time>2026-05-03T09:20:45.988Z</time></trkpt><trkpt lat="42.21478" lon="12.2819717"><ele>242.33333333333334</ele><time>2026-05-03T09:20:46.984Z</time></trkpt><trkpt lat="42.21478" lon="12.2816967"><ele>242.0</ele><time>2026-05-03T09:20:47.987Z</time></trkpt><trkpt lat="42.214785" lon="12.2814183"><ele>242.0</ele><time>2026-05-03T09:20:48.986Z</time></trkpt><trkpt lat="42.2147983" lon="12.2811383"><ele>242.0</ele><time>2026-05-03T09:20:49.987Z</time></trkpt><trkpt lat="42.2148217" lon="12.280855"><ele>242.0</ele><time>2026-05-03T09:20:50.989Z</time></trkpt><trkpt lat="42.2148567" lon="12.280575"><ele>242.0</ele><time>2026-05-03T09:20:51.986Z</time></trkpt><trkpt lat="42.2149033" lon="12.2802933"><ele>242.0</ele><time>2026-05-03T09:20:52.983Z</time></trkpt><trkpt lat="42.2149583" lon="12.2800133"><ele>242.0</ele><time>2026-05-03T09:20:53.99Z</time></trkpt><trkpt lat="42.215025" lon="12.27974"><ele>242.0</ele><time>2026-05-03T09:20:54.987Z</time></trkpt><trkpt lat="42.2151033" lon="12.279475"><ele>242.0</ele><time>2026-05-03T09:20:56Z</time></trkpt><trkpt lat="42.2151917" lon="12.2792167"><ele>242.0</ele><time>2026-05-03T09:20:56.986Z</time></trkpt><trkpt lat="42.2152883" lon="12.2789683"><ele>242.0</ele><time>2026-05-03T09:20:57.989Z</time></trkpt><trkpt lat="42.2153933" lon="12.2787317"><ele>242.0</ele><time>2026-05-03T09:20:58.985Z</time></trkpt><trkpt lat="42.21551" lon="12.2785067"><ele>242.0</ele><time>2026-05-03T09:20:59.985Z</time></trkpt><trkpt lat="42.2156333" lon="12.278295"><ele>242.0</ele><time>2026-05-03T09:21:00.993Z</time></trkpt><trkpt lat="42.2157633" lon="12.2780883"><ele>242.0</ele><time>2026-05-03T09:21:01.985Z</time></trkpt><trkpt lat="42.2158983" lon="12.2778833"><ele>242.0</ele><time>2026-05-03T09:21:02.989Z</time></trkpt><trkpt lat="42.2160383" lon="12.2776917"><ele>242.0</ele><time>2026-05-03T09:21:03.986Z</time></trkpt><trkpt lat="42.2161833" lon="12.2775083"><ele>242.0</ele><time>2026-05-03T09:21:04.989Z</time></trkpt><trkpt lat="42.2163367" lon="12.2773383"><ele>242.0</ele><time>2026-05-03T09:21:05.992Z</time></trkpt><trkpt lat="42.216495" lon="12.277175"><ele>242.0</ele><time>2026-05-03T09:21:06.986Z</time></trkpt><trkpt lat="42.21666" lon="12.2770183"><ele>242.0</ele><time>2026-05-03T09:21:07.989Z</time></trkpt><trkpt lat="42.2168267" lon="12.2768617"><ele>242.0</ele><time>2026-05-03T09:21:08.985Z</time></trkpt><trkpt lat="42.2169933" lon="12.2767033"><ele>242.0</ele><time>2026-05-03T09:21:09.988Z</time></trkpt><trkpt lat="42.21716" lon="12.27654"><ele>242.0</ele><time>2026-05-03T09:21:10.987Z</time></trkpt><trkpt lat="42.21732" lon="12.2763783"><ele>242.0</ele><time>2026-05-03T09:21:11.983Z</time></trkpt><trkpt lat="42.217475" lon="12.27623"><ele>242.33333333333334</ele><time>2026-05-03T09:21:12.988Z</time></trkpt><trkpt lat="42.217625" lon="12.2760883"><ele>242.66666666666669</ele><time>2026-05-03T09:21:13.989Z</time></trkpt><trkpt lat="42.2177683" lon="12.275955"><ele>243.0</ele><time>2026-05-03T09:21:14.987Z</time></trkpt><trkpt lat="42.2179083" lon="12.2758317"><ele>243.0</ele><time>2026-05-03T09:21:15.985Z</time></trkpt><trkpt lat="42.2180417" lon="12.27572"><ele>243.0</ele><time>2026-05-03T09:21:16.989Z</time></trkpt><trkpt lat="42.21817" lon="12.2756117"><ele>243.0</ele><time>2026-05-03T09:21:17.987Z</time></trkpt><trkpt lat="42.218295" lon="12.2755067"><ele>243.5</ele><time>2026-05-03T09:21:18.986Z</time></trkpt><trkpt lat="42.2184217" lon="12.2754"><ele>244.0</ele><time>2026-05-03T09:21:19.986Z</time></trkpt><trkpt lat="42.2185483" lon="12.2752917"><ele>244.5</ele><time>2026-05-03T09:21:20.987Z</time></trkpt><trkpt lat="42.2186683" lon="12.27518"><ele>245.0</ele><time>2026-05-03T09:21:21.987Z</time></trkpt><trkpt lat="42.21879" lon="12.2750683"><ele>245.0</ele><time>2026-05-03T09:21:22.989Z</time></trkpt><trkpt lat="42.21891" lon="12.274955"><ele>245.0</ele><time>2026-05-03T09:21:23.984Z</time></trkpt><trkpt lat="42.2190283" lon="12.274845"><ele>245.0</ele><time>2026-05-03T09:21:24.989Z</time></trkpt><trkpt lat="42.21915" lon="12.2747367"><ele>245.0</ele><time>2026-05-03T09:21:25.988Z</time></trkpt><trkpt lat="42.2192683" lon="12.2746283"><ele>245.0</ele><time>2026-05-03T09:21:26.988Z</time></trkpt><trkpt lat="42.2193883" lon="12.2745183"><ele>245.0</ele><time>2026-05-03T09:21:27.987Z</time></trkpt><trkpt lat="42.21951" lon="12.2744033"><ele>245.0</ele><time>2026-05-03T09:21:28.985Z</time></trkpt><trkpt lat="42.2196333" lon="12.2742883"><ele>245.0</ele><time>2026-05-03T09:21:29.988Z</time></trkpt><trkpt lat="42.2197583" lon="12.2741783"><ele>245.0</ele><time>2026-05-03T09:21:30.992Z</time></trkpt><trkpt lat="42.2198833" lon="12.274065"><ele>245.0</ele><time>2026-05-03T09:21:31.988Z</time></trkpt><trkpt lat="42.220005" lon="12.2739533"><ele>245.0</ele><time>2026-05-03T09:21:32.986Z</time></trkpt><trkpt lat="42.2201217" lon="12.2738483"><ele>245.0</ele><time>2026-05-03T09:21:33.986Z</time></trkpt><trkpt lat="42.22023" lon="12.27375"><ele>244.5</ele><time>2026-05-03T09:21:34.986Z</time></trkpt><trkpt lat="42.2203333" lon="12.2736533"><ele>244.0</ele><time>2026-05-03T09:21:35.993Z</time></trkpt><trkpt lat="42.220435" lon="12.2735617"><ele>243.5</ele><time>2026-05-03T09:21:36.991Z</time></trkpt><trkpt lat="42.2205333" lon="12.2734733"><ele>243.0</ele><time>2026-05-03T09:21:37.981Z</time></trkpt><trkpt lat="42.2206333" lon="12.2733883"><ele>243.5</ele><time>2026-05-03T09:21:38.986Z</time></trkpt><trkpt lat="42.2207317" lon="12.2733"><ele>244.0</ele><time>2026-05-03T09:21:39.987Z</time></trkpt><trkpt lat="42.2208283" lon="12.2732083"><ele>244.5</ele><time>2026-05-03T09:21:40.984Z</time></trkpt><trkpt lat="42.2209233" lon="12.2731167"><ele>245.0</ele><time>2026-05-03T09:21:41.988Z</time></trkpt><trkpt lat="42.2210167" lon="12.2730267"><ele>245.0</ele><time>2026-05-03T09:21:42.99Z</time></trkpt><trkpt lat="42.221115" lon="12.2729383"><ele>245.0</ele><time>2026-05-03T09:21:43.985Z</time></trkpt><trkpt lat="42.2212183" lon="12.27285"><ele>245.0</ele><time>2026-05-03T09:21:44.988Z</time></trkpt><trkpt lat="42.2213233" lon="12.2727583"><ele>245.0</ele><time>2026-05-03T09:21:45.986Z</time></trkpt><trkpt lat="42.22143" lon="12.2726667"><ele>245.25</ele><time>2026-05-03T09:21:46.983Z</time></trkpt><trkpt lat="42.2215383" lon="12.2725767"><ele>245.5</ele><time>2026-05-03T09:21:47.988Z</time></trkpt><trkpt lat="42.2216517" lon="12.2724783"><ele>245.75</ele><time>2026-05-03T09:21:48.99Z</time></trkpt><trkpt lat="42.2217667" lon="12.2723783"><ele>246.0</ele><time>2026-05-03T09:21:49.991Z</time></trkpt><trkpt lat="42.2218817" lon="12.2722717"><ele>246.33333333333331</ele><time>2026-05-03T09:21:50.988Z</time></trkpt><trkpt lat="42.2220033" lon="12.27216"><ele>246.66666666666666</ele><time>2026-05-03T09:21:51.989Z</time></trkpt><trkpt lat="42.22213" lon="12.2720467"><ele>247.0</ele><time>2026-05-03T09:21:52.99Z</time></trkpt><trkpt lat="42.2222567" lon="12.2719317"><ele>247.0</ele><time>2026-05-03T09:21:53.988Z</time></trkpt><trkpt lat="42.2223867" lon="12.2718167"><ele>247.0</ele><time>2026-05-03T09:21:54.985Z</time></trkpt><trkpt lat="42.2225167" lon="12.2717"><ele>247.0</ele><time>2026-05-03T09:21:55.992Z</time></trkpt><trkpt lat="42.22265" lon="12.271585"><ele>247.0</ele><time>2026-05-03T09:21:56.984Z</time></trkpt><trkpt lat="42.2227833" lon="12.27147"><ele>247.0</ele><time>2026-05-03T09:21:57.989Z</time></trkpt><trkpt lat="42.222915" lon="12.27135"><ele>247.0</ele><time>2026-05-03T09:21:58.988Z</time></trkpt><trkpt lat="42.2230433" lon="12.2712367"><ele>247.66666666666666</ele><time>2026-05-03T09:21:59.992Z</time></trkpt><trkpt lat="42.22317" lon="12.2711233"><ele>248.33333333333331</ele><time>2026-05-03T09:22:00.987Z</time></trkpt><trkpt lat="42.2232983" lon="12.271005"><ele>249.0</ele><time>2026-05-03T09:22:02Z</time></trkpt><trkpt lat="42.223425" lon="12.27089"><ele>249.0</ele><time>2026-05-03T09:22:02.993Z</time></trkpt><trkpt lat="42.22355" lon="12.270775"><ele>249.0</ele><time>2026-05-03T09:22:03.986Z</time></trkpt><trkpt lat="42.2236767" lon="12.2706617"><ele>249.0</ele><time>2026-05-03T09:22:04.988Z</time></trkpt><trkpt lat="42.2238017" lon="12.2705467"><ele>249.0</ele><time>2026-05-03T09:22:05.985Z</time></trkpt><trkpt lat="42.2239283" lon="12.2704317"><ele>249.0</ele><time>2026-05-03T09:22:06.984Z</time></trkpt><trkpt lat="42.224055" lon="12.2703183"><ele>249.0</ele><time>2026-05-03T09:22:07.987Z</time></trkpt><trkpt lat="42.2241833" lon="12.2702083"><ele>249.0</ele><time>2026-05-03T09:22:08.989Z</time></trkpt><trkpt lat="42.224315" lon="12.270095"><ele>249.0</ele><time>2026-05-03T09:22:09.985Z</time></trkpt><trkpt lat="42.2244367" lon="12.2699783"><ele>249.0</ele><time>2026-05-03T09:22:10.985Z</time></trkpt><trkpt lat="42.22455" lon="12.2698667"><ele>249.0</ele><time>2026-05-03T09:22:11.991Z</time></trkpt><trkpt lat="42.22466" lon="12.2697633"><ele>248.75</ele><time>2026-05-03T09:22:12.991Z</time></trkpt><trkpt lat="42.2247733" lon="12.2696617"><ele>248.5</ele><time>2026-05-03T09:22:13.993Z</time></trkpt><trkpt lat="42.2248883" lon="12.26956"><ele>248.25</ele><time>2026-05-03T09:22:14.99Z</time></trkpt><trkpt lat="42.2250017" lon="12.2694617"><ele>248.0</ele><time>2026-05-03T09:22:15.988Z</time></trkpt><trkpt lat="42.2251167" lon="12.2693617"><ele>248.25</ele><time>2026-05-03T09:22:16.984Z</time></trkpt><trkpt lat="42.2252283" lon="12.26926"><ele>248.5</ele><time>2026-05-03T09:22:17.987Z</time></trkpt><trkpt lat="42.2253433" lon="12.2691517"><ele>248.75</ele><time>2026-05-03T09:22:18.988Z</time></trkpt><trkpt lat="42.2254583" lon="12.26904"><ele>249.0</ele><time>2026-05-03T09:22:19.997Z</time></trkpt><trkpt lat="42.2255717" lon="12.2689283"><ele>249.25</ele><time>2026-05-03T09:22:20.99Z</time></trkpt><trkpt lat="42.22569" lon="12.2688183"><ele>249.5</ele><time>2026-05-03T09:22:21.987Z</time></trkpt><trkpt lat="42.2258117" lon="12.26871"><ele>249.75</ele><time>2026-05-03T09:22:22.981Z</time></trkpt><trkpt lat="42.2259383" lon="12.2686033"><ele>250.0</ele><time>2026-05-03T09:22:23.986Z</time></trkpt><trkpt lat="42.226065" lon="12.2684933"><ele>250.0</ele><time>2026-05-03T09:22:24.985Z</time></trkpt><trkpt lat="42.2261967" lon="12.268385"><ele>250.0</ele><time>2026-05-03T09:22:25.99Z</time></trkpt><trkpt lat="42.22633" lon="12.2682767"><ele>250.0</ele><time>2026-05-03T09:22:26.989Z</time></trkpt><trkpt lat="42.22646" lon="12.26816"><ele>250.66666666666666</ele><time>2026-05-03T09:22:27.988Z</time></trkpt><trkpt lat="42.22659" lon="12.26804"><ele>251.33333333333331</ele><time>2026-05-03T09:22:28.986Z</time></trkpt><trkpt lat="42.2267233" lon="12.26792"><ele>252.0</ele><time>2026-05-03T09:22:29.984Z</time></trkpt><trkpt lat="42.2268583" lon="12.2678"><ele>252.0</ele><time>2026-05-03T09:22:30.988Z</time></trkpt><trkpt lat="42.22699" lon="12.2676767"><ele>252.0</ele><time>2026-05-03T09:22:31.989Z</time></trkpt><trkpt lat="42.2271183" lon="12.267555"><ele>252.0</ele><time>2026-05-03T09:22:32.987Z</time></trkpt><trkpt lat="42.2272483" lon="12.2674367"><ele>253.0</ele><time>2026-05-03T09:22:33.991Z</time></trkpt><trkpt lat="42.227375" lon="12.2673217"><ele>254.0</ele><time>2026-05-03T09:22:34.991Z</time></trkpt><trkpt lat="42.2275" lon="12.2672083"><ele>255.0</ele><time>2026-05-03T09:22:35.989Z</time></trkpt><trkpt lat="42.2276217" lon="12.267095"><ele>255.0</ele><time>2026-05-03T09:22:36.982Z</time></trkpt><trkpt lat="42.2277367" lon="12.266975"><ele>255.0</ele><time>2026-05-03T09:22:37.988Z</time></trkpt><trkpt lat="42.2278417" lon="12.2668467"><ele>255.0</ele><time>2026-05-03T09:22:38.986Z</time></trkpt><trkpt lat="42.2279333" lon="12.266705"><ele>255.0</ele><time>2026-05-03T09:22:39.986Z</time></trkpt><trkpt lat="42.2280133" lon="12.2665533"><ele>254.75</ele><time>2026-05-03T09:22:40.988Z</time></trkpt><trkpt lat="42.228085" lon="12.2663917"><ele>254.5</ele><time>2026-05-03T09:22:41.983Z</time></trkpt><trkpt lat="42.2281533" lon="12.2662317"><ele>254.25</ele><time>2026-05-03T09:22:42.99Z</time></trkpt><trkpt lat="42.2282167" lon="12.26607"><ele>254.0</ele><time>2026-05-03T09:22:43.989Z</time></trkpt><trkpt lat="42.22828" lon="12.2659067"><ele>256.25</ele><time>2026-05-03T09:22:44.992Z</time></trkpt><trkpt lat="42.2283433" lon="12.26574"><ele>258.5</ele><time>2026-05-03T09:22:45.99Z</time></trkpt><trkpt lat="42.228405" lon="12.2655733"><ele>260.75</ele><time>2026-05-03T09:22:46.988Z</time></trkpt><trkpt lat="42.2284683" lon="12.265405"><ele>263.0</ele><time>2026-05-03T09:22:47.988Z</time></trkpt><trkpt lat="42.2285317" lon="12.2652333"><ele>263.0</ele><time>2026-05-03T09:22:48.994Z</time></trkpt><trkpt lat="42.2285983" lon="12.2650583"><ele>263.0</ele><time>2026-05-03T09:22:49.989Z</time></trkpt><trkpt lat="42.22866" lon="12.264885"><ele>263.0</ele><time>2026-05-03T09:22:50.987Z</time></trkpt><trkpt lat="42.2287217" lon="12.2647117"><ele>263.0</ele><time>2026-05-03T09:22:51.983Z</time></trkpt><trkpt lat="42.2287817" lon="12.2645367"><ele>263.0</ele><time>2026-05-03T09:22:52.988Z</time></trkpt><trkpt lat="42.2288417" lon="12.2643617"><ele>263.0</ele><time>2026-05-03T09:22:53.984Z</time></trkpt><trkpt lat="42.2289" lon="12.264185"><ele>263.0</ele><time>2026-05-03T09:22:54.988Z</time></trkpt><trkpt lat="42.2289583" lon="12.2640083"><ele>263.0</ele><time>2026-05-03T09:22:55.991Z</time></trkpt><trkpt lat="42.2290167" lon="12.2638317"><ele>264.75</ele><time>2026-05-03T09:22:56.989Z</time></trkpt><trkpt lat="42.229075" lon="12.2636533"><ele>266.5</ele><time>2026-05-03T09:22:57.986Z</time></trkpt><trkpt lat="42.2291317" lon="12.263475"><ele>268.25</ele><time>2026-05-03T09:22:58.987Z</time></trkpt><trkpt lat="42.2291883" lon="12.2632967"><ele>270.0</ele><time>2026-05-03T09:22:59.988Z</time></trkpt><trkpt lat="42.229245" lon="12.26312"><ele>270.0</ele><time>2026-05-03T09:23:00.997Z</time></trkpt><trkpt lat="42.229305" lon="12.262945"><ele>270.0</ele><time>2026-05-03T09:23:01.983Z</time></trkpt><trkpt lat="42.2293633" lon="12.2627733"><ele>270.0</ele><time>2026-05-03T09:23:02.989Z</time></trkpt><trkpt lat="42.22942" lon="12.2626017"><ele>270.0</ele><time>2026-05-03T09:23:03.987Z</time></trkpt><trkpt lat="42.229475" lon="12.26243"><ele>270.5</ele><time>2026-05-03T09:23:04.989Z</time></trkpt><trkpt lat="42.22953" lon="12.2622567"><ele>271.0</ele><time>2026-05-03T09:23:05.988Z</time></trkpt><trkpt lat="42.2295867" lon="12.26208"><ele>271.5</ele><time>2026-05-03T09:23:06.99Z</time></trkpt><trkpt lat="42.2296467" lon="12.2619017"><ele>272.0</ele><time>2026-05-03T09:23:07.989Z</time></trkpt><trkpt lat="42.2297083" lon="12.26172"><ele>272.0</ele><time>2026-05-03T09:23:08.993Z</time></trkpt><trkpt lat="42.2297683" lon="12.2615383"><ele>272.0</ele><time>2026-05-03T09:23:09.993Z</time></trkpt><trkpt lat="42.22983" lon="12.2613483"><ele>272.0</ele><time>2026-05-03T09:23:10.994Z</time></trkpt><trkpt lat="42.2298917" lon="12.2611583"><ele>272.0</ele><time>2026-05-03T09:23:11.987Z</time></trkpt><trkpt lat="42.2299517" lon="12.2609667"><ele>272.0</ele><time>2026-05-03T09:23:12.988Z</time></trkpt><trkpt lat="42.2300133" lon="12.26077"><ele>272.0</ele><time>2026-05-03T09:23:13.99Z</time></trkpt><trkpt lat="42.2300767" lon="12.2605717"><ele>272.0</ele><time>2026-05-03T09:23:14.988Z</time></trkpt><trkpt lat="42.230145" lon="12.260375"><ele>272.0</ele><time>2026-05-03T09:23:15.983Z</time></trkpt><trkpt lat="42.2302167" lon="12.260175"><ele>272.0</ele><time>2026-05-03T09:23:16.987Z</time></trkpt><trkpt lat="42.2302883" lon="12.259975"><ele>270.6666666666667</ele><time>2026-05-03T09:23:17.992Z</time></trkpt><trkpt lat="42.2303567" lon="12.25977"><ele>269.3333333333333</ele><time>2026-05-03T09:23:18.986Z</time></trkpt><trkpt lat="42.2304283" lon="12.2595633"><ele>268.0</ele><time>2026-05-03T09:23:19.989Z</time></trkpt><trkpt lat="42.2304967" lon="12.2593583"><ele>268.0</ele><time>2026-05-03T09:23:20.989Z</time></trkpt><trkpt lat="42.2305633" lon="12.2591533"><ele>268.0</ele><time>2026-05-03T09:23:21.99Z</time></trkpt><trkpt lat="42.2306267" lon="12.2589567"><ele>268.0</ele><time>2026-05-03T09:23:22.99Z</time></trkpt><trkpt lat="42.230685" lon="12.25877"><ele>268.25</ele><time>2026-05-03T09:23:23.99Z</time></trkpt><trkpt lat="42.2307417" lon="12.25859"><ele>268.5</ele><time>2026-05-03T09:23:24.989Z</time></trkpt><trkpt lat="42.230795" lon="12.2584067"><ele>268.75</ele><time>2026-05-03T09:23:25.989Z</time></trkpt><trkpt lat="42.2308483" lon="12.2582267"><ele>269.0</ele><time>2026-05-03T09:23:26.989Z</time></trkpt><trkpt lat="42.2308967" lon="12.2580433"><ele>269.75</ele><time>2026-05-03T09:23:27.986Z</time></trkpt><trkpt lat="42.2309317" lon="12.257855"><ele>270.5</ele><time>2026-05-03T09:23:28.99Z</time></trkpt><trkpt lat="42.2309517" lon="12.2576633"><ele>271.25</ele><time>2026-05-03T09:23:29.987Z</time></trkpt><trkpt lat="42.2309717" lon="12.2574667"><ele>272.0</ele><time>2026-05-03T09:23:30.993Z</time></trkpt><trkpt lat="42.230985" lon="12.2572633"><ele>272.5</ele><time>2026-05-03T09:23:31.992Z</time></trkpt><trkpt lat="42.2309917" lon="12.2570583"><ele>273.0</ele><time>2026-05-03T09:23:32.992Z</time></trkpt><trkpt lat="42.2309983" lon="12.25686"><ele>273.5</ele><time>2026-05-03T09:23:33.99Z</time></trkpt><trkpt lat="42.2310017" lon="12.2566583"><ele>274.0</ele><time>2026-05-03T09:23:34.99Z</time></trkpt><trkpt lat="42.231005" lon="12.2564467"><ele>274.0</ele><time>2026-05-03T09:23:35.982Z</time></trkpt><trkpt lat="42.231005" lon="12.2562433"><ele>274.0</ele><time>2026-05-03T09:23:36.987Z</time></trkpt><trkpt lat="42.2310033" lon="12.2560367"><ele>274.0</ele><time>2026-05-03T09:23:37.989Z</time></trkpt><trkpt lat="42.2310083" lon="12.2558333"><ele>274.0</ele><time>2026-05-03T09:23:38.991Z</time></trkpt><trkpt lat="42.2310133" lon="12.25563"><ele>274.0</ele><time>2026-05-03T09:23:39.994Z</time></trkpt><trkpt lat="42.2310183" lon="12.255425"><ele>274.0</ele><time>2026-05-03T09:23:40.987Z</time></trkpt><trkpt lat="42.23102" lon="12.2552233"><ele>274.3333333333333</ele><time>2026-05-03T09:23:41.984Z</time></trkpt><trkpt lat="42.231025" lon="12.25502"><ele>274.6666666666667</ele><time>2026-05-03T09:23:42.986Z</time></trkpt><trkpt lat="42.2310333" lon="12.2548167"><ele>275.0</ele><time>2026-05-03T09:23:43.988Z</time></trkpt><trkpt lat="42.23104" lon="12.25461"><ele>275.33333333333337</ele><time>2026-05-03T09:23:44.988Z</time></trkpt><trkpt lat="42.231045" lon="12.2544017"><ele>275.6666666666667</ele><time>2026-05-03T09:23:45.99Z</time></trkpt><trkpt lat="42.2310533" lon="12.2541917"><ele>276.0</ele><time>2026-05-03T09:23:46.988Z</time></trkpt><trkpt lat="42.2310717" lon="12.253985"><ele>276.0</ele><time>2026-05-03T09:23:47.99Z</time></trkpt><trkpt lat="42.2310933" lon="12.2537783"><ele>276.0</ele><time>2026-05-03T09:23:48.994Z</time></trkpt><trkpt lat="42.2311183" lon="12.2535733"><ele>276.0</ele><time>2026-05-03T09:23:49.991Z</time></trkpt><trkpt lat="42.2311417" lon="12.2533683"><ele>276.0</ele><time>2026-05-03T09:23:50.991Z</time></trkpt><trkpt lat="42.23117" lon="12.2531633"><ele>276.0</ele><time>2026-05-03T09:23:51.988Z</time></trkpt><trkpt lat="42.2311983" lon="12.25296"><ele>276.0</ele><time>2026-05-03T09:23:52.988Z</time></trkpt><trkpt lat="42.231235" lon="12.2527633"><ele>276.0</ele><time>2026-05-03T09:23:53.992Z</time></trkpt><trkpt lat="42.231275" lon="12.2525767"><ele>276.0</ele><time>2026-05-03T09:23:54.987Z</time></trkpt><trkpt lat="42.23132" lon="12.252395"><ele>276.0</ele><time>2026-05-03T09:23:55.988Z</time></trkpt><trkpt lat="42.2313683" lon="12.25222"><ele>276.0</ele><time>2026-05-03T09:23:56.988Z</time></trkpt><trkpt lat="42.2314183" lon="12.25205"><ele>276.0</ele><time>2026-05-03T09:23:57.989Z</time></trkpt><trkpt lat="42.231475" lon="12.2518767"><ele>276.0</ele><time>2026-05-03T09:23:58.986Z</time></trkpt><trkpt lat="42.2315333" lon="12.2517033"><ele>276.0</ele><time>2026-05-03T09:23:59.992Z</time></trkpt><trkpt lat="42.2315933" lon="12.2515283"><ele>276.0</ele><time>2026-05-03T09:24:00.985Z</time></trkpt><trkpt lat="42.2316533" lon="12.2513517"><ele>276.0</ele><time>2026-05-03T09:24:01.992Z</time></trkpt><trkpt lat="42.23171" lon="12.2511783"><ele>276.0</ele><time>2026-05-03T09:24:02.987Z</time></trkpt><trkpt lat="42.231765" lon="12.2509983"><ele>276.0</ele><time>2026-05-03T09:24:03.987Z</time></trkpt><trkpt lat="42.2318233" lon="12.25082"><ele>276.0</ele><time>2026-05-03T09:24:04.99Z</time></trkpt><trkpt lat="42.231885" lon="12.2506383"><ele>275.75</ele><time>2026-05-03T09:24:05.987Z</time></trkpt><trkpt lat="42.2319417" lon="12.2504567"><ele>275.5</ele><time>2026-05-03T09:24:06.988Z</time></trkpt><trkpt lat="42.232" lon="12.2502733"><ele>275.25</ele><time>2026-05-03T09:24:07.989Z</time></trkpt><trkpt lat="42.2320617" lon="12.250085"><ele>275.0</ele><time>2026-05-03T09:24:08.987Z</time></trkpt><trkpt lat="42.232125" lon="12.2498917"><ele>274.6666666666667</ele><time>2026-05-03T09:24:09.99Z</time></trkpt><trkpt lat="42.2321883" lon="12.2496983"><ele>274.3333333333333</ele><time>2026-05-03T09:24:10.989Z</time></trkpt><trkpt lat="42.232255" lon="12.2495033"><ele>274.0</ele><time>2026-05-03T09:24:11.991Z</time></trkpt><trkpt lat="42.23232" lon="12.2493067"><ele>274.0</ele><time>2026-05-03T09:24:12.988Z</time></trkpt><trkpt lat="42.232385" lon="12.2491117"><ele>274.0</ele><time>2026-05-03T09:24:13.993Z</time></trkpt><trkpt lat="42.23245" lon="12.2489167"><ele>274.0</ele><time>2026-05-03T09:24:14.984Z</time></trkpt><trkpt lat="42.2325133" lon="12.2487183"><ele>273.75</ele><time>2026-05-03T09:24:15.987Z</time></trkpt><trkpt lat="42.2325617" lon="12.2485283"><ele>273.5</ele><time>2026-05-03T09:24:16.989Z</time></trkpt><trkpt lat="42.2325983" lon="12.2483417"><ele>273.25</ele><time>2026-05-03T09:24:17.988Z</time></trkpt><trkpt lat="42.2326217" lon="12.2481683"><ele>273.0</ele><time>2026-05-03T09:24:18.99Z</time></trkpt><trkpt lat="42.2326417" lon="12.247995"><ele>273.0</ele><time>2026-05-03T09:24:19.996Z</time></trkpt><trkpt lat="42.2326583" lon="12.24783"><ele>273.0</ele><time>2026-05-03T09:24:20.987Z</time></trkpt><trkpt lat="42.2326733" lon="12.2476667"><ele>273.0</ele><time>2026-05-03T09:24:21.994Z</time></trkpt><trkpt lat="42.232685" lon="12.2475083"><ele>273.0</ele><time>2026-05-03T09:24:22.989Z</time></trkpt><trkpt lat="42.2327033" lon="12.2473317"><ele>273.75</ele><time>2026-05-03T09:24:23.99Z</time></trkpt><trkpt lat="42.232715" lon="12.2471667"><ele>274.5</ele><time>2026-05-03T09:24:24.992Z</time></trkpt><trkpt lat="42.2327283" lon="12.247"><ele>275.25</ele><time>2026-05-03T09:24:25.989Z</time></trkpt><trkpt lat="42.2327367" lon="12.24683"><ele>276.0</ele><time>2026-05-03T09:24:26.989Z</time></trkpt><trkpt lat="42.23275" lon="12.24667"><ele>276.0</ele><time>2026-05-03T09:24:27.99Z</time></trkpt><trkpt lat="42.2327683" lon="12.246495"><ele>276.0</ele><time>2026-05-03T09:24:28.987Z</time></trkpt><trkpt lat="42.2327883" lon="12.246325"><ele>276.0</ele><time>2026-05-03T09:24:29.99Z</time></trkpt><trkpt lat="42.232805" lon="12.2461767"><ele>276.0</ele><time>2026-05-03T09:24:30.988Z</time></trkpt><trkpt lat="42.23282" lon="12.2460183"><ele>276.25</ele><time>2026-05-03T09:24:31.987Z</time></trkpt><trkpt lat="42.2328333" lon="12.2458567"><ele>276.5</ele><time>2026-05-03T09:24:32.984Z</time></trkpt><trkpt lat="42.232845" lon="12.2456833"><ele>276.75</ele><time>2026-05-03T09:24:33.989Z</time></trkpt><trkpt lat="42.2328567" lon="12.245505"><ele>277.0</ele><time>2026-05-03T09:24:34.985Z</time></trkpt><trkpt lat="42.23287" lon="12.2453183"><ele>276.0</ele><time>2026-05-03T09:24:35.988Z</time></trkpt><trkpt lat="42.23288" lon="12.2451267"><ele>275.0</ele><time>2026-05-03T09:24:36.984Z</time></trkpt><trkpt lat="42.2328917" lon="12.2449333"><ele>274.0</ele><time>2026-05-03T09:24:37.989Z</time></trkpt><trkpt lat="42.232905" lon="12.244745"><ele>273.0</ele><time>2026-05-03T09:24:38.989Z</time></trkpt><trkpt lat="42.2329217" lon="12.24456"><ele>272.25</ele><time>2026-05-03T09:24:39.985Z</time></trkpt><trkpt lat="42.2329367" lon="12.24438"><ele>271.5</ele><time>2026-05-03T09:24:40.987Z</time></trkpt><trkpt lat="42.23295" lon="12.2441983"><ele>270.75</ele><time>2026-05-03T09:24:41.987Z</time></trkpt><trkpt lat="42.232965" lon="12.244015"><ele>270.0</ele><time>2026-05-03T09:24:42.993Z</time></trkpt><trkpt lat="42.2329833" lon="12.2438267"><ele>269.25</ele><time>2026-05-03T09:24:43.986Z</time></trkpt><trkpt lat="42.2330117" lon="12.2436317"><ele>268.5</ele><time>2026-05-03T09:24:44.987Z</time></trkpt><trkpt lat="42.233045" lon="12.2434433"><ele>267.75</ele><time>2026-05-03T09:24:45.985Z</time></trkpt><trkpt lat="42.23308" lon="12.24325"><ele>267.0</ele><time>2026-05-03T09:24:46.989Z</time></trkpt><trkpt lat="42.2331167" lon="12.243045"><ele>267.3333333333333</ele><time>2026-05-03T09:24:47.991Z</time></trkpt><trkpt lat="42.2331533" lon="12.24284"><ele>267.66666666666663</ele><time>2026-05-03T09:24:48.989Z</time></trkpt><trkpt lat="42.2331917" lon="12.2426333"><ele>268.0</ele><time>2026-05-03T09:24:49.99Z</time></trkpt><trkpt lat="42.2332333" lon="12.2424283"><ele>268.0</ele><time>2026-05-03T09:24:50.989Z</time></trkpt><trkpt lat="42.233275" lon="12.2422233"><ele>268.0</ele><time>2026-05-03T09:24:51.991Z</time></trkpt><trkpt lat="42.233315" lon="12.2420183"><ele>268.0</ele><time>2026-05-03T09:24:52.988Z</time></trkpt><trkpt lat="42.2333517" lon="12.2418167"><ele>268.0</ele><time>2026-05-03T09:24:53.99Z</time></trkpt><trkpt lat="42.2333817" lon="12.2416183"><ele>268.0</ele><time>2026-05-03T09:24:54.984Z</time></trkpt><trkpt lat="42.2334083" lon="12.2414183"><ele>268.0</ele><time>2026-05-03T09:24:55.986Z</time></trkpt><trkpt lat="42.2334267" lon="12.2412233"><ele>268.0</ele><time>2026-05-03T09:24:56.985Z</time></trkpt><trkpt lat="42.2334383" lon="12.2410267"><ele>267.75</ele><time>2026-05-03T09:24:57.992Z</time></trkpt><trkpt lat="42.2334367" lon="12.2408333"><ele>267.5</ele><time>2026-05-03T09:24:58.988Z</time></trkpt><trkpt lat="42.2334367" lon="12.2406467"><ele>267.25</ele><time>2026-05-03T09:24:59.987Z</time></trkpt><trkpt lat="42.2334233" lon="12.2404517"><ele>267.0</ele><time>2026-05-03T09:25:00.989Z</time></trkpt><trkpt lat="42.233405" lon="12.240255"><ele>267.0</ele><time>2026-05-03T09:25:01.99Z</time></trkpt><trkpt lat="42.2333783" lon="12.240055"><ele>267.0</ele><time>2026-05-03T09:25:02.986Z</time></trkpt><trkpt lat="42.2333517" lon="12.2398567"><ele>267.0</ele><time>2026-05-03T09:25:03.986Z</time></trkpt><trkpt lat="42.2333233" lon="12.23966"><ele>267.0</ele><time>2026-05-03T09:25:04.998Z</time></trkpt><trkpt lat="42.2332917" lon="12.239465"><ele>266.75</ele><time>2026-05-03T09:25:05.986Z</time></trkpt><trkpt lat="42.2332667" lon="12.2392733"><ele>266.5</ele><time>2026-05-03T09:25:06.986Z</time></trkpt><trkpt lat="42.2332433" lon="12.23909"><ele>266.25</ele><time>2026-05-03T09:25:07.989Z</time></trkpt><trkpt lat="42.2332233" lon="12.23892"><ele>266.0</ele><time>2026-05-03T09:25:08.993Z</time></trkpt><trkpt lat="42.2332083" lon="12.23876"><ele>265.83333333333337</ele><time>2026-05-03T09:25:09.984Z</time></trkpt><trkpt lat="42.233195" lon="12.2386067"><ele>265.6666666666667</ele><time>2026-05-03T09:25:10.993Z</time></trkpt><trkpt lat="42.233185" lon="12.238495"><ele>265.5</ele><time>2026-05-03T09:25:11.987Z</time></trkpt><trkpt lat="42.2331783" lon="12.2383833"><ele>265.3333333333333</ele><time>2026-05-03T09:25:13.993Z</time></trkpt><trkpt lat="42.233185" lon="12.2382467"><ele>265.16666666666663</ele><time>2026-05-03T09:25:16.988Z</time></trkpt><trkpt lat="42.2331917" lon="12.2381583"><ele>265.0</ele><time>2026-05-03T09:25:17.986Z</time></trkpt><trkpt lat="42.2332067" lon="12.2380533"><ele>265.66666666666663</ele><time>2026-05-03T09:25:18.994Z</time></trkpt><trkpt lat="42.2332233" lon="12.2379483"><ele>266.3333333333333</ele><time>2026-05-03T09:25:19.987Z</time></trkpt><trkpt lat="42.23324" lon="12.2378467"><ele>267.0</ele><time>2026-05-03T09:25:20.986Z</time></trkpt><trkpt lat="42.2332583" lon="12.2377633"><ele>267.6666666666667</ele><time>2026-05-03T09:25:21.983Z</time></trkpt><trkpt lat="42.2332833" lon="12.2376267"><ele>268.33333333333337</ele><time>2026-05-03T09:25:23.985Z</time></trkpt><trkpt lat="42.23327" lon="12.2375017"><ele>269.0</ele><time>2026-05-03T09:25:25.986Z</time></trkpt><trkpt lat="42.2331983" lon="12.237395"><ele>268.8</ele><time>2026-05-03T09:25:27.987Z</time></trkpt><trkpt lat="42.2331167" lon="12.2373183"><ele>268.59999999999997</ele><time>2026-05-03T09:25:29.983Z</time></trkpt><trkpt lat="42.2330467" lon="12.2372533"><ele>268.4</ele><time>2026-05-03T09:25:31.989Z</time></trkpt><trkpt lat="42.23297" lon="12.2371733"><ele>268.2</ele><time>2026-05-03T09:25:33.989Z</time></trkpt><trkpt lat="42.2328883" lon="12.2370517"><ele>268.0</ele><time>2026-05-03T09:25:35.987Z</time></trkpt><trkpt lat="42.2328267" lon="12.2369117"><ele>268.0</ele><time>2026-05-03T09:25:37.993Z</time></trkpt><trkpt lat="42.2328017" lon="12.2367533"><ele>268.0</ele><time>2026-05-03T09:25:39.984Z</time></trkpt><trkpt lat="42.2327883" lon="12.236655"><ele>268.0</ele><time>2026-05-03T09:25:40.986Z</time></trkpt><trkpt lat="42.23278" lon="12.2365383"><ele>268.0</ele><time>2026-05-03T09:25:41.987Z</time></trkpt><trkpt lat="42.23277" lon="12.2364017"><ele>268.0</ele><time>2026-05-03T09:25:42.987Z</time></trkpt><trkpt lat="42.232765" lon="12.236275"><ele>268.5</ele><time>2026-05-03T09:25:43.993Z</time></trkpt><trkpt lat="42.232755" lon="12.2361383"><ele>269.0</ele><time>2026-05-03T09:25:44.988Z</time></trkpt><trkpt lat="42.2327517" lon="12.23599"><ele>269.5</ele><time>2026-05-03T09:25:45.984Z</time></trkpt><trkpt lat="42.2327583" lon="12.23583"><ele>270.0</ele><time>2026-05-03T09:25:46.986Z</time></trkpt><trkpt lat="42.2327817" lon="12.2356617"><ele>269.75</ele><time>2026-05-03T09:25:47.986Z</time></trkpt><trkpt lat="42.23282" lon="12.2354867"><ele>269.5</ele><time>2026-05-03T09:25:48.984Z</time></trkpt><trkpt lat="42.2328583" lon="12.2353217"><ele>269.25</ele><time>2026-05-03T09:25:49.999Z</time></trkpt><trkpt lat="42.232895" lon="12.2351517"><ele>269.0</ele><time>2026-05-03T09:25:50.995Z</time></trkpt><trkpt lat="42.2329317" lon="12.2349717"><ele>268.5</ele><time>2026-05-03T09:25:51.992Z</time></trkpt><trkpt lat="42.2329683" lon="12.2347833"><ele>268.0</ele><time>2026-05-03T09:25:52.992Z</time></trkpt><trkpt lat="42.233005" lon="12.234585"><ele>267.5</ele><time>2026-05-03T09:25:53.986Z</time></trkpt><trkpt lat="42.2330467" lon="12.2343917"><ele>267.0</ele><time>2026-05-03T09:25:54.991Z</time></trkpt><trkpt lat="42.233105" lon="12.23421"><ele>268.25</ele><time>2026-05-03T09:25:55.993Z</time></trkpt><trkpt lat="42.2331767" lon="12.234035"><ele>269.5</ele><time>2026-05-03T09:25:56.988Z</time></trkpt><trkpt lat="42.2332583" lon="12.2338667"><ele>270.75</ele><time>2026-05-03T09:25:57.99Z</time></trkpt><trkpt lat="42.23334" lon="12.2336983"><ele>272.0</ele><time>2026-05-03T09:25:58.987Z</time></trkpt><trkpt lat="42.23342" lon="12.2335317"><ele>272.0</ele><time>2026-05-03T09:25:59.99Z</time></trkpt><trkpt lat="42.2334917" lon="12.2333767"><ele>272.0</ele><time>2026-05-03T09:26:00.987Z</time></trkpt><trkpt lat="42.2335633" lon="12.2332217"><ele>272.0</ele><time>2026-05-03T09:26:01.991Z</time></trkpt><trkpt lat="42.23362" lon="12.2330567"><ele>272.0</ele><time>2026-05-03T09:26:02.987Z</time></trkpt><trkpt lat="42.2336633" lon="12.232885"><ele>271.75</ele><time>2026-05-03T09:26:03.994Z</time></trkpt><trkpt lat="42.23368" lon="12.2327067"><ele>271.5</ele><time>2026-05-03T09:26:04.989Z</time></trkpt><trkpt lat="42.23367" lon="12.23253"><ele>271.25</ele><time>2026-05-03T09:26:05.987Z</time></trkpt><trkpt lat="42.2336433" lon="12.2323533"><ele>271.0</ele><time>2026-05-03T09:26:06.988Z</time></trkpt><trkpt lat="42.2336033" lon="12.232175"><ele>271.0</ele><time>2026-05-03T09:26:07.989Z</time></trkpt><trkpt lat="42.23357" lon="12.2319917"><ele>271.0</ele><time>2026-05-03T09:26:08.989Z</time></trkpt><trkpt lat="42.23355" lon="12.2318017"><ele>271.0</ele><time>2026-05-03T09:26:09.989Z</time></trkpt><trkpt lat="42.2335383" lon="12.23161"><ele>271.0</ele><time>2026-05-03T09:26:10.984Z</time></trkpt><trkpt lat="42.233545" lon="12.231415"><ele>271.3333333333333</ele><time>2026-05-03T09:26:11.988Z</time></trkpt><trkpt lat="42.23357" lon="12.2312133"><ele>271.6666666666667</ele><time>2026-05-03T09:26:12.989Z</time></trkpt><trkpt lat="42.2336033" lon="12.2310117"><ele>272.0</ele><time>2026-05-03T09:26:13.986Z</time></trkpt><trkpt lat="42.233645" lon="12.2308133"><ele>272.33333333333337</ele><time>2026-05-03T09:26:14.986Z</time></trkpt><trkpt lat="42.2336683" lon="12.2306067"><ele>272.6666666666667</ele><time>2026-05-03T09:26:15.987Z</time></trkpt><trkpt lat="42.2337" lon="12.230395"><ele>273.0</ele><time>2026-05-03T09:26:16.986Z</time></trkpt><trkpt lat="42.233735" lon="12.23017"><ele>273.0</ele><time>2026-05-03T09:26:17.988Z</time></trkpt><trkpt lat="42.233785" lon="12.2299433"><ele>273.0</ele><time>2026-05-03T09:26:18.986Z</time></trkpt><trkpt lat="42.2338417" lon="12.2297267"><ele>273.0</ele><time>2026-05-03T09:26:19.991Z</time></trkpt><trkpt lat="42.2338967" lon="12.2295117"><ele>272.3333333333333</ele><time>2026-05-03T09:26:20.989Z</time></trkpt><trkpt lat="42.2339567" lon="12.2292983"><ele>271.66666666666663</ele><time>2026-05-03T09:26:21.984Z</time></trkpt><trkpt lat="42.2340183" lon="12.2291"><ele>271.0</ele><time>2026-05-03T09:26:22.984Z</time></trkpt><trkpt lat="42.234075" lon="12.22892"><ele>273.25</ele><time>2026-05-03T09:26:23.988Z</time></trkpt><trkpt lat="42.2341117" lon="12.228735"><ele>275.5</ele><time>2026-05-03T09:26:24.992Z</time></trkpt><trkpt lat="42.234125" lon="12.22854"><ele>277.75</ele><time>2026-05-03T09:26:25.987Z</time></trkpt><trkpt lat="42.2341183" lon="12.228335"><ele>280.0</ele><time>2026-05-03T09:26:26.987Z</time></trkpt><trkpt lat="42.2341" lon="12.22812"><ele>280.3333333333333</ele><time>2026-05-03T09:26:27.984Z</time></trkpt><trkpt lat="42.234075" lon="12.2278933"><ele>280.6666666666667</ele><time>2026-05-03T09:26:28.989Z</time></trkpt><trkpt lat="42.2340567" lon="12.2276633"><ele>281.0</ele><time>2026-05-03T09:26:29.992Z</time></trkpt><trkpt lat="42.23405" lon="12.227435"><ele>280.6666666666667</ele><time>2026-05-03T09:26:30.987Z</time></trkpt><trkpt lat="42.234055" lon="12.2272067"><ele>280.3333333333333</ele><time>2026-05-03T09:26:31.986Z</time></trkpt><trkpt lat="42.2340717" lon="12.2269867"><ele>280.0</ele><time>2026-05-03T09:26:32.993Z</time></trkpt><trkpt lat="42.234105" lon="12.2267833"><ele>280.0</ele><time>2026-05-03T09:26:33.99Z</time></trkpt><trkpt lat="42.2341433" lon="12.2265967"><ele>280.0</ele><time>2026-05-03T09:26:34.984Z</time></trkpt><trkpt lat="42.234175" lon="12.22642"><ele>280.0</ele><time>2026-05-03T09:26:35.986Z</time></trkpt><trkpt lat="42.2341767" lon="12.226245"><ele>280.0</ele><time>2026-05-03T09:26:36.988Z</time></trkpt><trkpt lat="42.2341433" lon="12.2260733"><ele>279.5</ele><time>2026-05-03T09:26:37.989Z</time></trkpt><trkpt lat="42.2340833" lon="12.2259117"><ele>279.0</ele><time>2026-05-03T09:26:38.99Z</time></trkpt><trkpt lat="42.2340017" lon="12.2257567"><ele>278.5</ele><time>2026-05-03T09:26:39.989Z</time></trkpt><trkpt lat="42.2339083" lon="12.2256"><ele>278.0</ele><time>2026-05-03T09:26:40.985Z</time></trkpt><trkpt lat="42.2338033" lon="12.22545"><ele>278.0</ele><time>2026-05-03T09:26:41.985Z</time></trkpt><trkpt lat="42.2337067" lon="12.2252967"><ele>278.0</ele><time>2026-05-03T09:26:42.986Z</time></trkpt><trkpt lat="42.2336267" lon="12.22514"><ele>278.0</ele><time>2026-05-03T09:26:43.983Z</time></trkpt><trkpt lat="42.2335667" lon="12.2249633"><ele>278.0</ele><time>2026-05-03T09:26:44.985Z</time></trkpt><trkpt lat="42.23352" lon="12.2247667"><ele>279.0</ele><time>2026-05-03T09:26:45.99Z</time></trkpt><trkpt lat="42.2334733" lon="12.2245667"><ele>280.0</ele><time>2026-05-03T09:26:46.987Z</time></trkpt><trkpt lat="42.2334217" lon="12.22437"><ele>281.0</ele><time>2026-05-03T09:26:47.983Z</time></trkpt><trkpt lat="42.2333617" lon="12.2241783"><ele>281.0</ele><time>2026-05-03T09:26:48.985Z</time></trkpt><trkpt lat="42.2333" lon="12.2239867"><ele>281.0</ele><time>2026-05-03T09:26:49.993Z</time></trkpt><trkpt lat="42.2332333" lon="12.2237933"><ele>281.0</ele><time>2026-05-03T09:26:50.989Z</time></trkpt><trkpt lat="42.2331667" lon="12.2235983"><ele>281.33333333333337</ele><time>2026-05-03T09:26:51.99Z</time></trkpt><trkpt lat="42.2331017" lon="12.2233983"><ele>281.6666666666667</ele><time>2026-05-03T09:26:52.989Z</time></trkpt><trkpt lat="42.2330367" lon="12.2231933"><ele>282.0</ele><time>2026-05-03T09:26:53.983Z</time></trkpt><trkpt lat="42.2329583" lon="12.22299"><ele>280.3333333333333</ele><time>2026-05-03T09:26:54.983Z</time></trkpt><trkpt lat="42.2328633" lon="12.2227883"><ele>278.66666666666663</ele><time>2026-05-03T09:26:55.989Z</time></trkpt><trkpt lat="42.232755" lon="12.22259"><ele>277.0</ele><time>2026-05-03T09:26:56.99Z</time></trkpt><trkpt lat="42.232635" lon="12.2224033"><ele>278.66666666666663</ele><time>2026-05-03T09:26:57.99Z</time></trkpt><trkpt lat="42.23251" lon="12.22224"><ele>280.3333333333333</ele><time>2026-05-03T09:26:58.989Z</time></trkpt><trkpt lat="42.2323933" lon="12.222095"><ele>282.0</ele><time>2026-05-03T09:26:59.983Z</time></trkpt><trkpt lat="42.232285" lon="12.2219533"><ele>282.0</ele><time>2026-05-03T09:27:00.985Z</time></trkpt><trkpt lat="42.23219" lon="12.2218017"><ele>282.0</ele><time>2026-05-03T09:27:01.991Z</time></trkpt><trkpt lat="42.23212" lon="12.2216367"><ele>282.0</ele><time>2026-05-03T09:27:02.991Z</time></trkpt><trkpt lat="42.23208" lon="12.2214517"><ele>282.0</ele><time>2026-05-03T09:27:03.987Z</time></trkpt><trkpt lat="42.23207" lon="12.2212533"><ele>281.6666666666667</ele><time>2026-05-03T09:27:04.988Z</time></trkpt><trkpt lat="42.2320783" lon="12.2210517"><ele>281.33333333333337</ele><time>2026-05-03T09:27:05.985Z</time></trkpt><trkpt lat="42.23211" lon="12.22085"><ele>281.0</ele><time>2026-05-03T09:27:06.986Z</time></trkpt><trkpt lat="42.2321633" lon="12.2206617"><ele>282.0</ele><time>2026-05-03T09:27:07.988Z</time></trkpt><trkpt lat="42.23224" lon="12.22049"><ele>283.0</ele><time>2026-05-03T09:27:08.985Z</time></trkpt><trkpt lat="42.23233" lon="12.2203233"><ele>284.0</ele><time>2026-05-03T09:27:09.987Z</time></trkpt><trkpt lat="42.2324217" lon="12.2201583"><ele>284.0</ele><time>2026-05-03T09:27:10.987Z</time></trkpt><trkpt lat="42.2325" lon="12.2199867"><ele>284.0</ele><time>2026-05-03T09:27:11.988Z</time></trkpt><trkpt lat="42.2325533" lon="12.2198"><ele>284.0</ele><time>2026-05-03T09:27:12.988Z</time></trkpt><trkpt lat="42.23257" lon="12.2196083"><ele>284.0</ele><time>2026-05-03T09:27:13.984Z</time></trkpt><trkpt lat="42.2325517" lon="12.21941"><ele>284.0</ele><time>2026-05-03T09:27:14.987Z</time></trkpt><trkpt lat="42.2325067" lon="12.2192067"><ele>284.0</ele><time>2026-05-03T09:27:15.989Z</time></trkpt><trkpt lat="42.2324467" lon="12.2189983"><ele>284.0</ele><time>2026-05-03T09:27:16.987Z</time></trkpt><trkpt lat="42.2323783" lon="12.2187783"><ele>285.33333333333337</ele><time>2026-05-03T09:27:17.992Z</time></trkpt><trkpt lat="42.232315" lon="12.2185517"><ele>286.6666666666667</ele><time>2026-05-03T09:27:18.995Z</time></trkpt><trkpt lat="42.23227" lon="12.2183283"><ele>288.0</ele><time>2026-05-03T09:27:19.984Z</time></trkpt><trkpt lat="42.2322383" lon="12.2181033"><ele>289.0</ele><time>2026-05-03T09:27:20.987Z</time></trkpt><trkpt lat="42.2322217" lon="12.2178767"><ele>290.0</ele><time>2026-05-03T09:27:21.986Z</time></trkpt><trkpt lat="42.2322217" lon="12.2176467"><ele>291.0</ele><time>2026-05-03T09:27:22.989Z</time></trkpt><trkpt lat="42.232245" lon="12.2174183"><ele>290.0</ele><time>2026-05-03T09:27:23.991Z</time></trkpt><trkpt lat="42.2322783" lon="12.2171933"><ele>289.0</ele><time>2026-05-03T09:27:24.988Z</time></trkpt><trkpt lat="42.23233" lon="12.2169767"><ele>288.0</ele><time>2026-05-03T09:27:25.99Z</time></trkpt><trkpt lat="42.2324067" lon="12.21678"><ele>288.0</ele><time>2026-05-03T09:27:26.986Z</time></trkpt><trkpt lat="42.2325033" lon="12.2166033"><ele>288.0</ele><time>2026-05-03T09:27:27.987Z</time></trkpt><trkpt lat="42.23261" lon="12.2164383"><ele>288.0</ele><time>2026-05-03T09:27:28.986Z</time></trkpt><trkpt lat="42.23272" lon="12.216275"><ele>288.3333333333333</ele><time>2026-05-03T09:27:29.992Z</time></trkpt><trkpt lat="42.23284" lon="12.216115"><ele>288.66666666666663</ele><time>2026-05-03T09:27:30.986Z</time></trkpt><trkpt lat="42.2329767" lon="12.2159767"><ele>289.0</ele><time>2026-05-03T09:27:31.991Z</time></trkpt><trkpt lat="42.2331133" lon="12.2158383"><ele>289.66666666666663</ele><time>2026-05-03T09:27:32.99Z</time></trkpt><trkpt lat="42.233235" lon="12.2156867"><ele>290.3333333333333</ele><time>2026-05-03T09:27:33.986Z</time></trkpt><trkpt lat="42.233345" lon="12.215515"><ele>291.0</ele><time>2026-05-03T09:27:34.987Z</time></trkpt><trkpt lat="42.2334367" lon="12.2153233"><ele>291.0</ele><time>2026-05-03T09:27:35.993Z</time></trkpt><trkpt lat="42.23351" lon="12.215125"><ele>291.0</ele><time>2026-05-03T09:27:36.99Z</time></trkpt><trkpt lat="42.2335617" lon="12.2149267"><ele>291.0</ele><time>2026-05-03T09:27:37.992Z</time></trkpt><trkpt lat="42.23359" lon="12.2147367"><ele>290.5</ele><time>2026-05-03T09:27:38.983Z</time></trkpt><trkpt lat="42.2335883" lon="12.2145467"><ele>290.0</ele><time>2026-05-03T09:27:39.986Z</time></trkpt><trkpt lat="42.23355" lon="12.2143517"><ele>289.5</ele><time>2026-05-03T09:27:40.988Z</time></trkpt><trkpt lat="42.2334933" lon="12.214155"><ele>289.0</ele><time>2026-05-03T09:27:41.985Z</time></trkpt><trkpt lat="42.2334283" lon="12.21396"><ele>291.0</ele><time>2026-05-03T09:27:42.987Z</time></trkpt><trkpt lat="42.233355" lon="12.2137567"><ele>293.0</ele><time>2026-05-03T09:27:43.989Z</time></trkpt><trkpt lat="42.2332767" lon="12.2135467"><ele>295.0</ele><time>2026-05-03T09:27:44.985Z</time></trkpt><trkpt lat="42.2332017" lon="12.2133283"><ele>295.3333333333333</ele><time>2026-05-03T09:27:45.988Z</time></trkpt><trkpt lat="42.233135" lon="12.2131033"><ele>295.6666666666667</ele><time>2026-05-03T09:27:46.989Z</time></trkpt><trkpt lat="42.233085" lon="12.2128667"><ele>296.0</ele><time>2026-05-03T09:27:47.991Z</time></trkpt><trkpt lat="42.23305" lon="12.212625"><ele>296.0</ele><time>2026-05-03T09:27:48.988Z</time></trkpt><trkpt lat="42.2330133" lon="12.2123867"><ele>296.0</ele><time>2026-05-03T09:27:49.995Z</time></trkpt><trkpt lat="42.2329617" lon="12.2121567"><ele>296.0</ele><time>2026-05-03T09:27:50.988Z</time></trkpt><trkpt lat="42.2328933" lon="12.211935"><ele>295.0</ele><time>2026-05-03T09:27:51.985Z</time></trkpt><trkpt lat="42.232805" lon="12.2117283"><ele>294.0</ele><time>2026-05-03T09:27:52.986Z</time></trkpt><trkpt lat="42.2326983" lon="12.211545"><ele>293.0</ele><time>2026-05-03T09:27:53.987Z</time></trkpt><trkpt lat="42.2325667" lon="12.211385"><ele>292.6666666666667</ele><time>2026-05-03T09:27:54.989Z</time></trkpt><trkpt lat="42.232425" lon="12.2112267"><ele>292.3333333333333</ele><time>2026-05-03T09:27:55.988Z</time></trkpt><trkpt lat="42.2322767" lon="12.2110667"><ele>292.0</ele><time>2026-05-03T09:27:56.985Z</time></trkpt><trkpt lat="42.232125" lon="12.210905"><ele>293.0</ele><time>2026-05-03T09:27:57.989Z</time></trkpt><trkpt lat="42.231975" lon="12.2107333"><ele>294.0</ele><time>2026-05-03T09:27:58.987Z</time></trkpt><trkpt lat="42.231825" lon="12.2105567"><ele>295.0</ele><time>2026-05-03T09:27:59.986Z</time></trkpt><trkpt lat="42.2316783" lon="12.2103817"><ele>295.3333333333333</ele><time>2026-05-03T09:28:00.987Z</time></trkpt><trkpt lat="42.2315367" lon="12.210205"><ele>295.6666666666667</ele><time>2026-05-03T09:28:01.988Z</time></trkpt><trkpt lat="42.2314017" lon="12.2100217"><ele>296.0</ele><time>2026-05-03T09:28:02.983Z</time></trkpt><trkpt lat="42.23127" lon="12.2098367"><ele>296.33333333333337</ele><time>2026-05-03T09:28:03.988Z</time></trkpt><trkpt lat="42.2311417" lon="12.2096517"><ele>296.6666666666667</ele><time>2026-05-03T09:28:04.99Z</time></trkpt><trkpt lat="42.23102" lon="12.2094617"><ele>297.0</ele><time>2026-05-03T09:28:05.986Z</time></trkpt><trkpt lat="42.2309067" lon="12.209265"><ele>297.0</ele><time>2026-05-03T09:28:06.986Z</time></trkpt><trkpt lat="42.2307933" lon="12.209075"><ele>297.0</ele><time>2026-05-03T09:28:07.987Z</time></trkpt><trkpt lat="42.230675" lon="12.2088883"><ele>297.0</ele><time>2026-05-03T09:28:08.987Z</time></trkpt><trkpt lat="42.2305517" lon="12.20871"><ele>297.3333333333333</ele><time>2026-05-03T09:28:09.986Z</time></trkpt><trkpt lat="42.2304167" lon="12.2085533"><ele>297.66666666666663</ele><time>2026-05-03T09:28:10.99Z</time></trkpt><trkpt lat="42.2302567" lon="12.208425"><ele>298.0</ele><time>2026-05-03T09:28:11.986Z</time></trkpt><trkpt lat="42.2300933" lon="12.208295"><ele>298.66666666666663</ele><time>2026-05-03T09:28:12.99Z</time></trkpt><trkpt lat="42.2299467" lon="12.208145"><ele>299.3333333333333</ele><time>2026-05-03T09:28:13.994Z</time></trkpt><trkpt lat="42.22981" lon="12.207975"><ele>300.0</ele><time>2026-05-03T09:28:14.985Z</time></trkpt><trkpt lat="42.2296783" lon="12.2077883"><ele>300.0</ele><time>2026-05-03T09:28:15.988Z</time></trkpt><trkpt lat="42.22955" lon="12.2075983"><ele>300.0</ele><time>2026-05-03T09:28:16.987Z</time></trkpt><trkpt lat="42.2294217" lon="12.2074033"><ele>300.0</ele><time>2026-05-03T09:28:17.987Z</time></trkpt><trkpt lat="42.2292867" lon="12.2072083"><ele>302.0</ele><time>2026-05-03T09:28:18.991Z</time></trkpt><trkpt lat="42.2291483" lon="12.2070133"><ele>304.0</ele><time>2026-05-03T09:28:19.987Z</time></trkpt><trkpt lat="42.2290067" lon="12.2068233"><ele>306.0</ele><time>2026-05-03T09:28:20.987Z</time></trkpt><trkpt lat="42.22887" lon="12.2066383"><ele>304.3333333333333</ele><time>2026-05-03T09:28:21.987Z</time></trkpt><trkpt lat="42.228735" lon="12.206455"><ele>302.66666666666663</ele><time>2026-05-03T09:28:22.989Z</time></trkpt><trkpt lat="42.2285967" lon="12.2062817"><ele>301.0</ele><time>2026-05-03T09:28:23.992Z</time></trkpt><trkpt lat="42.22846" lon="12.2061117"><ele>301.0</ele><time>2026-05-03T09:28:24.985Z</time></trkpt><trkpt lat="42.2283117" lon="12.2059667"><ele>301.0</ele><time>2026-05-03T09:28:25.986Z</time></trkpt><trkpt lat="42.228165" lon="12.2058333"><ele>301.0</ele><time>2026-05-03T09:28:26.985Z</time></trkpt><trkpt lat="42.2280233" lon="12.2057133"><ele>303.75</ele><time>2026-05-03T09:28:27.987Z</time></trkpt><trkpt lat="42.2278917" lon="12.2056083"><ele>306.5</ele><time>2026-05-03T09:28:28.988Z</time></trkpt><trkpt lat="42.227775" lon="12.2054983"><ele>309.25</ele><time>2026-05-03T09:28:29.985Z</time></trkpt><trkpt lat="42.22768" lon="12.2053767"><ele>312.0</ele><time>2026-05-03T09:28:30.989Z</time></trkpt><trkpt lat="42.22761" lon="12.205235"><ele>312.0</ele><time>2026-05-03T09:28:31.992Z</time></trkpt><trkpt lat="42.2275683" lon="12.20508"><ele>312.0</ele><time>2026-05-03T09:28:32.989Z</time></trkpt><trkpt lat="42.2275533" lon="12.2049133"><ele>312.0</ele><time>2026-05-03T09:28:33.992Z</time></trkpt><trkpt lat="42.22756" lon="12.20474"><ele>312.0</ele><time>2026-05-03T09:28:34.986Z</time></trkpt><trkpt lat="42.227585" lon="12.2045483"><ele>312.3333333333333</ele><time>2026-05-03T09:28:35.989Z</time></trkpt><trkpt lat="42.22762" lon="12.204345"><ele>312.66666666666663</ele><time>2026-05-03T09:28:36.986Z</time></trkpt><trkpt lat="42.2276433" lon="12.20414"><ele>313.0</ele><time>2026-05-03T09:28:37.989Z</time></trkpt><trkpt lat="42.2276417" lon="12.2039333"><ele>313.0</ele><time>2026-05-03T09:28:38.984Z</time></trkpt><trkpt lat="42.2276" lon="12.20373"><ele>313.0</ele><time>2026-05-03T09:28:39.986Z</time></trkpt><trkpt lat="42.227515" lon="12.203535"><ele>313.0</ele><time>2026-05-03T09:28:40.989Z</time></trkpt><trkpt lat="42.2274067" lon="12.2033367"><ele>312.0</ele><time>2026-05-03T09:28:41.985Z</time></trkpt><trkpt lat="42.2272967" lon="12.2031333"><ele>311.0</ele><time>2026-05-03T09:28:42.989Z</time></trkpt><trkpt lat="42.2271883" lon="12.2029233"><ele>310.0</ele><time>2026-05-03T09:28:43.99Z</time></trkpt><trkpt lat="42.2270783" lon="12.20271"><ele>310.0</ele><time>2026-05-03T09:28:44.986Z</time></trkpt><trkpt lat="42.2269717" lon="12.202495"><ele>310.0</ele><time>2026-05-03T09:28:45.99Z</time></trkpt><trkpt lat="42.22687" lon="12.2022883"><ele>310.0</ele><time>2026-05-03T09:28:46.985Z</time></trkpt><trkpt lat="42.226775" lon="12.2020917"><ele>311.3333333333333</ele><time>2026-05-03T09:28:47.985Z</time></trkpt><trkpt lat="42.2266833" lon="12.2019033"><ele>312.6666666666667</ele><time>2026-05-03T09:28:48.987Z</time></trkpt><trkpt lat="42.2265933" lon="12.20172"><ele>314.0</ele><time>2026-05-03T09:28:49.986Z</time></trkpt><trkpt lat="42.2265033" lon="12.2015383"><ele>313.33333333333337</ele><time>2026-05-03T09:28:50.987Z</time></trkpt><trkpt lat="42.2264117" lon="12.2013567"><ele>312.6666666666667</ele><time>2026-05-03T09:28:51.989Z</time></trkpt><trkpt lat="42.22632" lon="12.2011717"><ele>312.0</ele><time>2026-05-03T09:28:52.99Z</time></trkpt><trkpt lat="42.2262317" lon="12.20099"><ele>312.0</ele><time>2026-05-03T09:28:53.987Z</time></trkpt><trkpt lat="42.2261433" lon="12.2008217"><ele>312.0</ele><time>2026-05-03T09:28:54.985Z</time></trkpt><trkpt lat="42.22606" lon="12.2006567"><ele>312.0</ele><time>2026-05-03T09:28:55.986Z</time></trkpt><trkpt lat="42.2259817" lon="12.200495"><ele>312.0</ele><time>2026-05-03T09:28:56.987Z</time></trkpt><trkpt lat="42.2259183" lon="12.2003333"><ele>314.25</ele><time>2026-05-03T09:28:57.986Z</time></trkpt><trkpt lat="42.2258733" lon="12.2001667"><ele>316.5</ele><time>2026-05-03T09:28:58.989Z</time></trkpt><trkpt lat="42.2258483" lon="12.1999983"><ele>318.75</ele><time>2026-05-03T09:28:59.99Z</time></trkpt><trkpt lat="42.22584" lon="12.1998283"><ele>321.0</ele><time>2026-05-03T09:29:00.986Z</time></trkpt><trkpt lat="42.225845" lon="12.199655"><ele>321.25</ele><time>2026-05-03T09:29:01.993Z</time></trkpt><trkpt lat="42.2258583" lon="12.1994833"><ele>321.5</ele><time>2026-05-03T09:29:02.985Z</time></trkpt><trkpt lat="42.225875" lon="12.1993083"><ele>321.75</ele><time>2026-05-03T09:29:03.989Z</time></trkpt><trkpt lat="42.225895" lon="12.1991333"><ele>322.0</ele><time>2026-05-03T09:29:04.991Z</time></trkpt><trkpt lat="42.2259133" lon="12.1989683"><ele>322.75</ele><time>2026-05-03T09:29:05.994Z</time></trkpt><trkpt lat="42.22593" lon="12.1988067"><ele>323.5</ele><time>2026-05-03T09:29:06.992Z</time></trkpt><trkpt lat="42.2259433" lon="12.1986467"><ele>324.25</ele><time>2026-05-03T09:29:07.983Z</time></trkpt><trkpt lat="42.22596" lon="12.19849"><ele>325.0</ele><time>2026-05-03T09:29:08.99Z</time></trkpt><trkpt lat="42.2259867" lon="12.1983317"><ele>325.0</ele><time>2026-05-03T09:29:09.987Z</time></trkpt><trkpt lat="42.2260183" lon="12.19817"><ele>325.0</ele><time>2026-05-03T09:29:10.983Z</time></trkpt><trkpt lat="42.2260483" lon="12.1980067"><ele>325.0</ele><time>2026-05-03T09:29:11.984Z</time></trkpt><trkpt lat="42.2260867" lon="12.1978467"><ele>325.0</ele><time>2026-05-03T09:29:12.987Z</time></trkpt><trkpt lat="42.2261317" lon="12.1976867"><ele>325.25</ele><time>2026-05-03T09:29:13.986Z</time></trkpt><trkpt lat="42.226195" lon="12.1975317"><ele>325.5</ele><time>2026-05-03T09:29:14.985Z</time></trkpt><trkpt lat="42.2262633" lon="12.19737"><ele>325.75</ele><time>2026-05-03T09:29:15.985Z</time></trkpt><trkpt lat="42.2263333" lon="12.1972"><ele>326.0</ele><time>2026-05-03T09:29:16.996Z</time></trkpt><trkpt lat="42.2264033" lon="12.1970233"><ele>326.6666666666667</ele><time>2026-05-03T09:29:17.991Z</time></trkpt><trkpt lat="42.2264717" lon="12.196835"><ele>327.3333333333333</ele><time>2026-05-03T09:29:18.99Z</time></trkpt><trkpt lat="42.2265317" lon="12.1966367"><ele>328.0</ele><time>2026-05-03T09:29:19.99Z</time></trkpt><trkpt lat="42.2265883" lon="12.1964417"><ele>331.0</ele><time>2026-05-03T09:29:20.986Z</time></trkpt><trkpt lat="42.2266433" lon="12.1962533"><ele>334.0</ele><time>2026-05-03T09:29:21.989Z</time></trkpt><trkpt lat="42.2266883" lon="12.19607"><ele>337.0</ele><time>2026-05-03T09:29:22.987Z</time></trkpt><trkpt lat="42.22672" lon="12.1958933"><ele>340.0</ele><time>2026-05-03T09:29:23.982Z</time></trkpt><trkpt lat="42.2267433" lon="12.1957317"><ele>341.5</ele><time>2026-05-03T09:29:24.987Z</time></trkpt><trkpt lat="42.2267417" lon="12.1955667"><ele>343.0</ele><time>2026-05-03T09:29:25.987Z</time></trkpt><trkpt lat="42.22672" lon="12.1954017"><ele>344.5</ele><time>2026-05-03T09:29:26.988Z</time></trkpt><trkpt lat="42.2266767" lon="12.19524"><ele>346.0</ele><time>2026-05-03T09:29:27.987Z</time></trkpt><trkpt lat="42.2266133" lon="12.1950867"><ele>346.0</ele><time>2026-05-03T09:29:28.984Z</time></trkpt><trkpt lat="42.226545" lon="12.1949483"><ele>346.0</ele><time>2026-05-03T09:29:29.988Z</time></trkpt><trkpt lat="42.226465" lon="12.1948217"><ele>346.0</ele><time>2026-05-03T09:29:30.987Z</time></trkpt><trkpt lat="42.226375" lon="12.1947017"><ele>346.0</ele><time>2026-05-03T09:29:31.986Z</time></trkpt><trkpt lat="42.2262817" lon="12.19459"><ele>349.0</ele><time>2026-05-03T09:29:32.988Z</time></trkpt><trkpt lat="42.22619" lon="12.1944833"><ele>352.0</ele><time>2026-05-03T09:29:33.985Z</time></trkpt><trkpt lat="42.226095" lon="12.194375"><ele>355.0</ele><time>2026-05-03T09:29:34.985Z</time></trkpt><trkpt lat="42.2259967" lon="12.19427"><ele>358.0</ele><time>2026-05-03T09:29:35.986Z</time></trkpt><trkpt lat="42.2259" lon="12.1941683"><ele>358.0</ele><time>2026-05-03T09:29:36.992Z</time></trkpt><trkpt lat="42.2258033" lon="12.1940633"><ele>358.0</ele><time>2026-05-03T09:29:37.984Z</time></trkpt><trkpt lat="42.22571" lon="12.1939533"><ele>358.0</ele><time>2026-05-03T09:29:38.986Z</time></trkpt><trkpt lat="42.2256217" lon="12.1938333"><ele>358.0</ele><time>2026-05-03T09:29:39.984Z</time></trkpt><trkpt lat="42.2255367" lon="12.1937167"><ele>360.0</ele><time>2026-05-03T09:29:40.984Z</time></trkpt><trkpt lat="42.2254517" lon="12.1936017"><ele>362.0</ele><time>2026-05-03T09:29:41.988Z</time></trkpt><trkpt lat="42.2253617" lon="12.1934967"><ele>364.0</ele><time>2026-05-03T09:29:42.985Z</time></trkpt><trkpt lat="42.2252633" lon="12.1934017"><ele>366.0</ele><time>2026-05-03T09:29:43.983Z</time></trkpt><trkpt lat="42.22516" lon="12.1933167"><ele>366.0</ele><time>2026-05-03T09:29:44.995Z</time></trkpt><trkpt lat="42.2250517" lon="12.1932433"><ele>366.0</ele><time>2026-05-03T09:29:45.987Z</time></trkpt><trkpt lat="42.2249383" lon="12.1931733"><ele>366.0</ele><time>2026-05-03T09:29:46.985Z</time></trkpt><trkpt lat="42.2248167" lon="12.1931133"><ele>366.0</ele><time>2026-05-03T09:29:47.986Z</time></trkpt><trkpt lat="42.2246967" lon="12.19305"><ele>367.25</ele><time>2026-05-03T09:29:48.995Z</time></trkpt><trkpt lat="42.2245717" lon="12.1929817"><ele>368.5</ele><time>2026-05-03T09:29:49.983Z</time></trkpt><trkpt lat="42.2244483" lon="12.1929117"><ele>369.75</ele><time>2026-05-03T09:29:50.992Z</time></trkpt><trkpt lat="42.2243283" lon="12.19282"><ele>371.0</ele><time>2026-05-03T09:29:51.985Z</time></trkpt><trkpt lat="42.224215" lon="12.1927367"><ele>371.0</ele><time>2026-05-03T09:29:52.99Z</time></trkpt><trkpt lat="42.2241033" lon="12.1926733"><ele>371.0</ele><time>2026-05-03T09:29:53.987Z</time></trkpt><trkpt lat="42.2240017" lon="12.1925983"><ele>371.0</ele><time>2026-05-03T09:29:54.989Z</time></trkpt><trkpt lat="42.2239017" lon="12.192525"><ele>371.0</ele><time>2026-05-03T09:29:55.989Z</time></trkpt><trkpt lat="42.2238067" lon="12.192455"><ele>371.6</ele><time>2026-05-03T09:29:56.985Z</time></trkpt><trkpt lat="42.22372" lon="12.192375"><ele>372.20000000000005</ele><time>2026-05-03T09:29:57.991Z</time></trkpt><trkpt lat="42.2236467" lon="12.1922933"><ele>372.79999999999995</ele><time>2026-05-03T09:29:58.989Z</time></trkpt><trkpt lat="42.2235833" lon="12.1922033"><ele>373.4</ele><time>2026-05-03T09:29:59.986Z</time></trkpt><trkpt lat="42.2235333" lon="12.19211"><ele>374.0</ele><time>2026-05-03T09:30:00.991Z</time></trkpt><trkpt lat="42.2234933" lon="12.1920183"><ele>374.2</ele><time>2026-05-03T09:30:02.001Z</time></trkpt><trkpt lat="42.223465" lon="12.1919333"><ele>374.4</ele><time>2026-05-03T09:30:02.989Z</time></trkpt><trkpt lat="42.2234233" lon="12.1918"><ele>374.6</ele><time>2026-05-03T09:30:04.986Z</time></trkpt><trkpt lat="42.2233933" lon="12.1916817"><ele>374.8</ele><time>2026-05-03T09:30:06.989Z</time></trkpt><trkpt lat="42.22336" lon="12.19155"><ele>375.0</ele><time>2026-05-03T09:30:08.991Z</time></trkpt><trkpt lat="42.2233217" lon="12.1913867"><ele>375.0</ele><time>2026-05-03T09:30:10.997Z</time></trkpt><trkpt lat="42.2232983" lon="12.191295"><ele>375.0</ele><time>2026-05-03T09:30:11.991Z</time></trkpt><trkpt lat="42.22327" lon="12.1912083"><ele>375.0</ele><time>2026-05-03T09:30:12.989Z</time></trkpt><trkpt lat="42.2232433" lon="12.1911233"><ele>375.0</ele><time>2026-05-03T09:30:13.989Z</time></trkpt><trkpt lat="42.2232167" lon="12.1910383"><ele>375.0</ele><time>2026-05-03T09:30:14.987Z</time></trkpt><trkpt lat="42.22319" lon="12.1909517"><ele>375.0</ele><time>2026-05-03T09:30:15.985Z</time></trkpt><trkpt lat="42.2231617" lon="12.1908617"><ele>375.0</ele><time>2026-05-03T09:30:16.989Z</time></trkpt><trkpt lat="42.2231317" lon="12.1907717"><ele>375.0</ele><time>2026-05-03T09:30:17.989Z</time></trkpt><trkpt lat="42.2231017" lon="12.1906817"><ele>375.0</ele><time>2026-05-03T09:30:18.988Z</time></trkpt><trkpt lat="42.2230667" lon="12.1905967"><ele>375.0</ele><time>2026-05-03T09:30:19.984Z</time></trkpt><trkpt lat="42.22303" lon="12.1905067"><ele>375.0</ele><time>2026-05-03T09:30:20.992Z</time></trkpt><trkpt lat="42.222985" lon="12.1904267"><ele>375.0</ele><time>2026-05-03T09:30:21.985Z</time></trkpt><trkpt lat="42.2229383" lon="12.190345"><ele>375.0</ele><time>2026-05-03T09:30:22.986Z</time></trkpt><trkpt lat="42.2228883" lon="12.1902733"><ele>375.0</ele><time>2026-05-03T09:30:23.993Z</time></trkpt><trkpt lat="42.222845" lon="12.1902033"><ele>375.3333333333333</ele><time>2026-05-03T09:30:24.986Z</time></trkpt><trkpt lat="42.2227967" lon="12.190145"><ele>375.6666666666667</ele><time>2026-05-03T09:30:25.988Z</time></trkpt><trkpt lat="42.22275" lon="12.1900867"><ele>376.0</ele><time>2026-05-03T09:30:26.994Z</time></trkpt><trkpt lat="42.222665" lon="12.1899933"><ele>376.33333333333337</ele><time>2026-05-03T09:30:28.985Z</time></trkpt><trkpt lat="42.2226067" lon="12.18992"><ele>376.6666666666667</ele><time>2026-05-03T09:30:30.983Z</time></trkpt><trkpt lat="42.22255" lon="12.189855"><ele>377.0</ele><time>2026-05-03T09:30:32.988Z</time></trkpt><trkpt lat="42.2224833" lon="12.1897717"><ele>376.6</ele><time>2026-05-03T09:30:35.986Z</time></trkpt><trkpt lat="42.2224167" lon="12.1896733"><ele>376.20000000000005</ele><time>2026-05-03T09:30:38.986Z</time></trkpt><trkpt lat="42.222345" lon="12.1896033"><ele>375.8</ele><time>2026-05-03T09:30:40.989Z</time></trkpt><trkpt lat="42.222265" lon="12.1895167"><ele>375.4</ele><time>2026-05-03T09:30:42.991Z</time></trkpt><trkpt lat="42.2221717" lon="12.1894183"><ele>375.0</ele><time>2026-05-03T09:30:44.987Z</time></trkpt><trkpt lat="42.2220883" lon="12.18931"><ele>375.0</ele><time>2026-05-03T09:30:46.983Z</time></trkpt><trkpt lat="42.222025" lon="12.1892033"><ele>375.0</ele><time>2026-05-03T09:30:48.98Z</time></trkpt><trkpt lat="42.22199" lon="12.1891"><ele>375.0</ele><time>2026-05-03T09:30:50.986Z</time></trkpt><trkpt lat="42.221965" lon="12.1889767"><ele>375.0</ele><time>2026-05-03T09:30:52.987Z</time></trkpt><trkpt lat="42.2219867" lon="12.1888283"><ele>375.0</ele><time>2026-05-03T09:30:54.986Z</time></trkpt><trkpt lat="42.2220083" lon="12.1887467"><ele>374.42857142857144</ele><time>2026-05-03T09:30:55.989Z</time></trkpt><trkpt lat="42.2220333" lon="12.1886683"><ele>373.85714285714283</ele><time>2026-05-03T09:30:56.992Z</time></trkpt><trkpt lat="42.222065" lon="12.1885933"><ele>373.2857142857143</ele><time>2026-05-03T09:30:57.982Z</time></trkpt><trkpt lat="42.2221" lon="12.1885117"><ele>372.7142857142857</ele><time>2026-05-03T09:30:58.985Z</time></trkpt><trkpt lat="42.2221367" lon="12.1884233"><ele>372.1428571428571</ele><time>2026-05-03T09:30:59.983Z</time></trkpt><trkpt lat="42.2221767" lon="12.188335"><ele>371.57142857142856</ele><time>2026-05-03T09:31:00.991Z</time></trkpt><trkpt lat="42.2222117" lon="12.18825"><ele>371.0</ele><time>2026-05-03T09:31:01.986Z</time></trkpt><trkpt lat="42.222245" lon="12.1881733"><ele>370.83333333333337</ele><time>2026-05-03T09:31:02.989Z</time></trkpt><trkpt lat="42.2223" lon="12.1880183"><ele>370.6666666666667</ele><time>2026-05-03T09:31:04.989Z</time></trkpt><trkpt lat="42.2223333" lon="12.187935"><ele>370.5</ele><time>2026-05-03T09:31:05.991Z</time></trkpt><trkpt lat="42.22237" lon="12.1878517"><ele>370.3333333333333</ele><time>2026-05-03T09:31:06.988Z</time></trkpt><trkpt lat="42.2224067" lon="12.1877633"><ele>370.16666666666663</ele><time>2026-05-03T09:31:07.986Z</time></trkpt><trkpt lat="42.22245" lon="12.1876767"><ele>370.0</ele><time>2026-05-03T09:31:08.991Z</time></trkpt><trkpt lat="42.22249" lon="12.1875917"><ele>370.66666666666663</ele><time>2026-05-03T09:31:09.984Z</time></trkpt><trkpt lat="42.2225333" lon="12.1875017"><ele>371.3333333333333</ele><time>2026-05-03T09:31:10.986Z</time></trkpt><trkpt lat="42.22258" lon="12.18741"><ele>372.0</ele><time>2026-05-03T09:31:11.989Z</time></trkpt><trkpt lat="42.2226283" lon="12.1873167"><ele>372.6666666666667</ele><time>2026-05-03T09:31:12.985Z</time></trkpt><trkpt lat="42.2226783" lon="12.1872233"><ele>373.33333333333337</ele><time>2026-05-03T09:31:13.988Z</time></trkpt><trkpt lat="42.2227283" lon="12.187125"><ele>374.0</ele><time>2026-05-03T09:31:14.988Z</time></trkpt><trkpt lat="42.2227833" lon="12.18702"><ele>374.2</ele><time>2026-05-03T09:31:15.986Z</time></trkpt><trkpt lat="42.2228367" lon="12.18691"><ele>374.4</ele><time>2026-05-03T09:31:16.988Z</time></trkpt><trkpt lat="42.2228917" lon="12.1867983"><ele>374.6</ele><time>2026-05-03T09:31:17.985Z</time></trkpt><trkpt lat="42.222945" lon="12.1866783"><ele>374.8</ele><time>2026-05-03T09:31:18.985Z</time></trkpt><trkpt lat="42.2230017" lon="12.1865567"><ele>375.0</ele><time>2026-05-03T09:31:19.988Z</time></trkpt><trkpt lat="42.2230583" lon="12.18644"><ele>375.4</ele><time>2026-05-03T09:31:20.983Z</time></trkpt><trkpt lat="42.22311" lon="12.1863217"><ele>375.8</ele><time>2026-05-03T09:31:21.986Z</time></trkpt><trkpt lat="42.2231633" lon="12.1862083"><ele>376.20000000000005</ele><time>2026-05-03T09:31:22.991Z</time></trkpt><trkpt lat="42.2232167" lon="12.1860983"><ele>376.6</ele><time>2026-05-03T09:31:23.986Z</time></trkpt><trkpt lat="42.2232667" lon="12.1859867"><ele>377.0</ele><time>2026-05-03T09:31:24.991Z</time></trkpt><trkpt lat="42.223315" lon="12.1858717"><ele>377.6</ele><time>2026-05-03T09:31:25.986Z</time></trkpt><trkpt lat="42.2233633" lon="12.185755"><ele>378.20000000000005</ele><time>2026-05-03T09:31:26.988Z</time></trkpt><trkpt lat="42.2234117" lon="12.185645"><ele>378.8</ele><time>2026-05-03T09:31:27.989Z</time></trkpt><trkpt lat="42.2234617" lon="12.1855417"><ele>379.4</ele><time>2026-05-03T09:31:28.99Z</time></trkpt><trkpt lat="42.2235067" lon="12.185445"><ele>380.0</ele><time>2026-05-03T09:31:29.986Z</time></trkpt><trkpt lat="42.223555" lon="12.1853583"><ele>380.42857142857144</ele><time>2026-05-03T09:31:30.985Z</time></trkpt><trkpt lat="42.2235983" lon="12.1852767"><ele>380.8571428571429</ele><time>2026-05-03T09:31:31.996Z</time></trkpt><trkpt lat="42.2236333" lon="12.1851933"><ele>381.2857142857143</ele><time>2026-05-03T09:31:32.986Z</time></trkpt><trkpt lat="42.2236717" lon="12.18512"><ele>381.7142857142857</ele><time>2026-05-03T09:31:33.989Z</time></trkpt><trkpt lat="42.2237067" lon="12.1850417"><ele>382.1428571428571</ele><time>2026-05-03T09:31:34.989Z</time></trkpt><trkpt lat="42.22374" lon="12.184955"><ele>382.57142857142856</ele><time>2026-05-03T09:31:35.991Z</time></trkpt><trkpt lat="42.2237767" lon="12.1848633"><ele>383.0</ele><time>2026-05-03T09:31:36.986Z</time></trkpt><trkpt lat="42.2238167" lon="12.18477"><ele>384.0</ele><time>2026-05-03T09:31:37.987Z</time></trkpt><trkpt lat="42.223865" lon="12.1846733"><ele>385.0</ele><time>2026-05-03T09:31:38.988Z</time></trkpt><trkpt lat="42.2239133" lon="12.1845733"><ele>386.0</ele><time>2026-05-03T09:31:39.985Z</time></trkpt><trkpt lat="42.2239483" lon="12.1844567"><ele>387.0</ele><time>2026-05-03T09:31:40.989Z</time></trkpt><trkpt lat="42.2239833" lon="12.18433"><ele>388.0</ele><time>2026-05-03T09:31:41.988Z</time></trkpt><trkpt lat="42.2240167" lon="12.1842017"><ele>388.0</ele><time>2026-05-03T09:31:42.986Z</time></trkpt><trkpt lat="42.2240317" lon="12.184065"><ele>388.0</ele><time>2026-05-03T09:31:43.987Z</time></trkpt><trkpt lat="42.2240467" lon="12.1839317"><ele>388.0</ele><time>2026-05-03T09:31:44.988Z</time></trkpt><trkpt lat="42.2240633" lon="12.18381"><ele>388.0</ele><time>2026-05-03T09:31:45.987Z</time></trkpt><trkpt lat="42.22407" lon="12.1836867"><ele>388.0</ele><time>2026-05-03T09:31:46.98Z</time></trkpt><trkpt lat="42.2240717" lon="12.1835683"><ele>388.6666666666667</ele><time>2026-05-03T09:31:47.982Z</time></trkpt><trkpt lat="42.2240733" lon="12.1834533"><ele>389.33333333333337</ele><time>2026-05-03T09:31:48.986Z</time></trkpt><trkpt lat="42.22408" lon="12.1833333"><ele>390.0</ele><time>2026-05-03T09:31:49.986Z</time></trkpt><trkpt lat="42.2240867" lon="12.1832133"><ele>390.66666666666663</ele><time>2026-05-03T09:31:50.982Z</time></trkpt><trkpt lat="42.22409" lon="12.1830933"><ele>391.3333333333333</ele><time>2026-05-03T09:31:51.996Z</time></trkpt><trkpt lat="42.22409" lon="12.1829717"><ele>392.0</ele><time>2026-05-03T09:31:52.985Z</time></trkpt><trkpt lat="42.224095" lon="12.18285"><ele>392.0</ele><time>2026-05-03T09:31:53.985Z</time></trkpt><trkpt lat="42.2240933" lon="12.1827233"><ele>392.0</ele><time>2026-05-03T09:31:54.989Z</time></trkpt><trkpt lat="42.224095" lon="12.1825933"><ele>392.0</ele><time>2026-05-03T09:31:55.991Z</time></trkpt><trkpt lat="42.2241" lon="12.1824567"><ele>392.0</ele><time>2026-05-03T09:31:56.987Z</time></trkpt><trkpt lat="42.2241033" lon="12.1823133"><ele>392.0</ele><time>2026-05-03T09:31:57.986Z</time></trkpt><trkpt lat="42.2241083" lon="12.1821667"><ele>392.40000000000003</ele><time>2026-05-03T09:31:58.986Z</time></trkpt><trkpt lat="42.2241183" lon="12.1820217"><ele>392.8</ele><time>2026-05-03T09:31:59.985Z</time></trkpt><trkpt lat="42.2241267" lon="12.1818767"><ele>393.2</ele><time>2026-05-03T09:32:00.985Z</time></trkpt><trkpt lat="42.2241333" lon="12.1817317"><ele>393.6</ele><time>2026-05-03T09:32:01.985Z</time></trkpt><trkpt lat="42.22414" lon="12.1815833"><ele>394.0</ele><time>2026-05-03T09:32:02.989Z</time></trkpt><trkpt lat="42.2241417" lon="12.1814367"><ele>395.2</ele><time>2026-05-03T09:32:03.986Z</time></trkpt><trkpt lat="42.2241467" lon="12.18129"><ele>396.4</ele><time>2026-05-03T09:32:04.987Z</time></trkpt><trkpt lat="42.2241533" lon="12.181145"><ele>397.6</ele><time>2026-05-03T09:32:05.993Z</time></trkpt><trkpt lat="42.2241583" lon="12.1809983"><ele>398.8</ele><time>2026-05-03T09:32:06.99Z</time></trkpt><trkpt lat="42.2241633" lon="12.180855"><ele>400.0</ele><time>2026-05-03T09:32:07.994Z</time></trkpt><trkpt lat="42.2241667" lon="12.1807117"><ele>401.2</ele><time>2026-05-03T09:32:08.99Z</time></trkpt><trkpt lat="42.2241683" lon="12.1805683"><ele>402.4</ele><time>2026-05-03T09:32:09.99Z</time></trkpt><trkpt lat="42.2241717" lon="12.1804233"><ele>403.6</ele><time>2026-05-03T09:32:10.99Z</time></trkpt><trkpt lat="42.2241683" lon="12.1802767"><ele>404.8</ele><time>2026-05-03T09:32:11.991Z</time></trkpt><trkpt lat="42.2241433" lon="12.18013"><ele>406.0</ele><time>2026-05-03T09:32:12.987Z</time></trkpt><trkpt lat="42.2241017" lon="12.1799917"><ele>406.0</ele><time>2026-05-03T09:32:13.988Z</time></trkpt><trkpt lat="42.2240433" lon="12.1798583"><ele>406.0</ele><time>2026-05-03T09:32:14.988Z</time></trkpt><trkpt lat="42.2239867" lon="12.1797233"><ele>406.0</ele><time>2026-05-03T09:32:15.989Z</time></trkpt><trkpt lat="42.2239217" lon="12.1795833"><ele>406.0</ele><time>2026-05-03T09:32:16.988Z</time></trkpt><trkpt lat="42.2238567" lon="12.17944"><ele>407.0</ele><time>2026-05-03T09:32:17.993Z</time></trkpt><trkpt lat="42.2237917" lon="12.1792983"><ele>408.0</ele><time>2026-05-03T09:32:18.988Z</time></trkpt><trkpt lat="42.22373" lon="12.17916"><ele>409.0</ele><time>2026-05-03T09:32:19.99Z</time></trkpt><trkpt lat="42.2236667" lon="12.1790267"><ele>410.0</ele><time>2026-05-03T09:32:20.988Z</time></trkpt><trkpt lat="42.223605" lon="12.1788967"><ele>411.4</ele><time>2026-05-03T09:32:21.991Z</time></trkpt><trkpt lat="42.2235517" lon="12.17878"><ele>412.8</ele><time>2026-05-03T09:32:22.986Z</time></trkpt><trkpt lat="42.2234967" lon="12.1786767"><ele>414.20000000000005</ele><time>2026-05-03T09:32:23.987Z</time></trkpt><trkpt lat="42.2234467" lon="12.1785783"><ele>415.6</ele><time>2026-05-03T09:32:24.981Z</time></trkpt><trkpt lat="42.2233967" lon="12.1784867"><ele>417.0</ele><time>2026-05-03T09:32:25.987Z</time></trkpt><trkpt lat="42.22335" lon="12.1783917"><ele>417.0</ele><time>2026-05-03T09:32:26.985Z</time></trkpt><trkpt lat="42.2233033" lon="12.1782883"><ele>417.0</ele><time>2026-05-03T09:32:27.99Z</time></trkpt><trkpt lat="42.2232583" lon="12.1781883"><ele>417.0</ele><time>2026-05-03T09:32:28.985Z</time></trkpt><trkpt lat="42.2232117" lon="12.178095"><ele>417.0</ele><time>2026-05-03T09:32:29.988Z</time></trkpt><trkpt lat="42.22317" lon="12.1780067"><ele>417.0</ele><time>2026-05-03T09:32:30.987Z</time></trkpt><trkpt lat="42.2231333" lon="12.1779167"><ele>417.0</ele><time>2026-05-03T09:32:31.993Z</time></trkpt><trkpt lat="42.223095" lon="12.177835"><ele>415.8333333333333</ele><time>2026-05-03T09:32:32.987Z</time></trkpt><trkpt lat="42.2230517" lon="12.17775"><ele>414.66666666666663</ele><time>2026-05-03T09:32:33.987Z</time></trkpt><trkpt lat="42.2230117" lon="12.1776617"><ele>413.5</ele><time>2026-05-03T09:32:34.989Z</time></trkpt><trkpt lat="42.2229733" lon="12.1775717"><ele>412.3333333333333</ele><time>2026-05-03T09:32:35.986Z</time></trkpt><trkpt lat="42.2229317" lon="12.17747"><ele>411.16666666666663</ele><time>2026-05-03T09:32:36.991Z</time></trkpt><trkpt lat="42.222885" lon="12.1773683"><ele>410.0</ele><time>2026-05-03T09:32:37.99Z</time></trkpt><trkpt lat="42.2228367" lon="12.1772717"><ele>409.99999999999994</ele><time>2026-05-03T09:32:38.985Z</time></trkpt><trkpt lat="42.22279" lon="12.1771767"><ele>410.0</ele><time>2026-05-03T09:32:39.985Z</time></trkpt><trkpt lat="42.2227467" lon="12.1770867"><ele>410.0</ele><time>2026-05-03T09:32:40.991Z</time></trkpt><trkpt lat="42.2227017" lon="12.177"><ele>410.0</ele><time>2026-05-03T09:32:41.986Z</time></trkpt><trkpt lat="42.22266" lon="12.17691"><ele>409.99999999999994</ele><time>2026-05-03T09:32:42.983Z</time></trkpt><trkpt lat="42.2226133" lon="12.1768133"><ele>410.0</ele><time>2026-05-03T09:32:43.986Z</time></trkpt><trkpt lat="42.2225667" lon="12.1767083"><ele>410.0</ele><time>2026-05-03T09:32:44.987Z</time></trkpt><trkpt lat="42.2225183" lon="12.1765917"><ele>410.0</ele><time>2026-05-03T09:32:45.987Z</time></trkpt><trkpt lat="42.2224633" lon="12.1764717"><ele>410.0</ele><time>2026-05-03T09:32:46.987Z</time></trkpt><trkpt lat="42.2224017" lon="12.1763533"><ele>410.0</ele><time>2026-05-03T09:32:47.987Z</time></trkpt><trkpt lat="42.2223383" lon="12.17623"><ele>410.0</ele><time>2026-05-03T09:32:48.986Z</time></trkpt><trkpt lat="42.222275" lon="12.176095"><ele>409.75</ele><time>2026-05-03T09:32:49.991Z</time></trkpt><trkpt lat="42.22221" lon="12.175955"><ele>409.5</ele><time>2026-05-03T09:32:50.987Z</time></trkpt><trkpt lat="42.2221467" lon="12.1758117"><ele>409.25</ele><time>2026-05-03T09:32:51.986Z</time></trkpt><trkpt lat="42.2220833" lon="12.1756667"><ele>409.0</ele><time>2026-05-03T09:32:52.993Z</time></trkpt><trkpt lat="42.2220117" lon="12.1755217"><ele>408.0</ele><time>2026-05-03T09:32:53.989Z</time></trkpt><trkpt lat="42.2219417" lon="12.1753733"><ele>407.0</ele><time>2026-05-03T09:32:54.991Z</time></trkpt><trkpt lat="42.2218733" lon="12.17522"><ele>406.0</ele><time>2026-05-03T09:32:55.99Z</time></trkpt><trkpt lat="42.2218133" lon="12.1750733"><ele>405.0</ele><time>2026-05-03T09:32:56.985Z</time></trkpt><trkpt lat="42.2217467" lon="12.1749283"><ele>404.75</ele><time>2026-05-03T09:32:57.988Z</time></trkpt><trkpt lat="42.22168" lon="12.1747917"><ele>404.5</ele><time>2026-05-03T09:32:58.989Z</time></trkpt><trkpt lat="42.2216117" lon="12.17465"><ele>404.25</ele><time>2026-05-03T09:32:59.986Z</time></trkpt><trkpt lat="42.2215467" lon="12.1745083"><ele>404.0</ele><time>2026-05-03T09:33:00.989Z</time></trkpt><trkpt lat="42.221485" lon="12.1743633"><ele>403.5</ele><time>2026-05-03T09:33:01.989Z</time></trkpt><trkpt lat="42.2214183" lon="12.17422"><ele>403.0</ele><time>2026-05-03T09:33:02.985Z</time></trkpt><trkpt lat="42.22135" lon="12.174075"><ele>402.5</ele><time>2026-05-03T09:33:03.985Z</time></trkpt><trkpt lat="42.2212783" lon="12.17392"><ele>402.0</ele><time>2026-05-03T09:33:04.984Z</time></trkpt><trkpt lat="42.22121" lon="12.1737683"><ele>402.0</ele><time>2026-05-03T09:33:05.988Z</time></trkpt><trkpt lat="42.2211433" lon="12.1736133"><ele>402.0</ele><time>2026-05-03T09:33:06.981Z</time></trkpt><trkpt lat="42.2210733" lon="12.173465"><ele>402.0</ele><time>2026-05-03T09:33:07.989Z</time></trkpt><trkpt lat="42.221005" lon="12.1733133"><ele>402.0</ele><time>2026-05-03T09:33:08.986Z</time></trkpt><trkpt lat="42.2209333" lon="12.1731617"><ele>401.75</ele><time>2026-05-03T09:33:09.985Z</time></trkpt><trkpt lat="42.2208617" lon="12.17301"><ele>401.5</ele><time>2026-05-03T09:33:10.988Z</time></trkpt><trkpt lat="42.2207917" lon="12.1728583"><ele>401.25</ele><time>2026-05-03T09:33:11.984Z</time></trkpt><trkpt lat="42.220725" lon="12.172705"><ele>401.0</ele><time>2026-05-03T09:33:12.991Z</time></trkpt><trkpt lat="42.220665" lon="12.17255"><ele>400.25</ele><time>2026-05-03T09:33:13.986Z</time></trkpt><trkpt lat="42.220615" lon="12.1723933"><ele>399.5</ele><time>2026-05-03T09:33:14.989Z</time></trkpt><trkpt lat="42.2205733" lon="12.1722383"><ele>398.75</ele><time>2026-05-03T09:33:15.99Z</time></trkpt><trkpt lat="42.220545" lon="12.1720817"><ele>398.0</ele><time>2026-05-03T09:33:16.988Z</time></trkpt><trkpt lat="42.2205233" lon="12.1719267"><ele>396.79999999999995</ele><time>2026-05-03T09:33:17.992Z</time></trkpt><trkpt lat="42.220505" lon="12.17178"><ele>395.6</ele><time>2026-05-03T09:33:18.994Z</time></trkpt><trkpt lat="42.22049" lon="12.17164"><ele>394.4</ele><time>2026-05-03T09:33:19.992Z</time></trkpt><trkpt lat="42.2204733" lon="12.171495"><ele>393.20000000000005</ele><time>2026-05-03T09:33:20.986Z</time></trkpt><trkpt lat="42.2204567" lon="12.1713483"><ele>392.0</ele><time>2026-05-03T09:33:21.988Z</time></trkpt><trkpt lat="42.22045" lon="12.1712"><ele>391.25</ele><time>2026-05-03T09:33:22.985Z</time></trkpt><trkpt lat="42.2204583" lon="12.1710467"><ele>390.5</ele><time>2026-05-03T09:33:23.987Z</time></trkpt><trkpt lat="42.220475" lon="12.1708917"><ele>389.75</ele><time>2026-05-03T09:33:24.986Z</time></trkpt><trkpt lat="42.2205017" lon="12.1707367"><ele>389.0</ele><time>2026-05-03T09:33:25.991Z</time></trkpt><trkpt lat="42.2205333" lon="12.17058"><ele>388.75</ele><time>2026-05-03T09:33:26.984Z</time></trkpt><trkpt lat="42.2205667" lon="12.1704217"><ele>388.5</ele><time>2026-05-03T09:33:27.986Z</time></trkpt><trkpt lat="42.220595" lon="12.1702567"><ele>388.25</ele><time>2026-05-03T09:33:28.986Z</time></trkpt><trkpt lat="42.220625" lon="12.17009"><ele>388.0</ele><time>2026-05-03T09:33:29.996Z</time></trkpt><trkpt lat="42.2206533" lon="12.1699267"><ele>389.0</ele><time>2026-05-03T09:33:30.993Z</time></trkpt><trkpt lat="42.2206817" lon="12.1697683"><ele>390.0</ele><time>2026-05-03T09:33:31.991Z</time></trkpt><trkpt lat="42.2207133" lon="12.1696067"><ele>391.0</ele><time>2026-05-03T09:33:32.988Z</time></trkpt><trkpt lat="42.2207433" lon="12.16945"><ele>392.0</ele><time>2026-05-03T09:33:33.987Z</time></trkpt><trkpt lat="42.220775" lon="12.1692983"><ele>392.0</ele><time>2026-05-03T09:33:35.004Z</time></trkpt><trkpt lat="42.2207983" lon="12.1691517"><ele>392.0</ele><time>2026-05-03T09:33:35.992Z</time></trkpt><trkpt lat="42.2208167" lon="12.1690133"><ele>392.0</ele><time>2026-05-03T09:33:36.989Z</time></trkpt><trkpt lat="42.220835" lon="12.168875"><ele>392.0</ele><time>2026-05-03T09:33:37.984Z</time></trkpt><trkpt lat="42.22086" lon="12.1687417"><ele>392.0</ele><time>2026-05-03T09:33:38.99Z</time></trkpt><trkpt lat="42.220885" lon="12.168605"><ele>391.20000000000005</ele><time>2026-05-03T09:33:39.989Z</time></trkpt><trkpt lat="42.2209133" lon="12.168465"><ele>390.4</ele><time>2026-05-03T09:33:40.986Z</time></trkpt><trkpt lat="42.2209367" lon="12.1683233"><ele>389.6</ele><time>2026-05-03T09:33:41.988Z</time></trkpt><trkpt lat="42.2209567" lon="12.1681817"><ele>388.79999999999995</ele><time>2026-05-03T09:33:42.989Z</time></trkpt><trkpt lat="42.2209767" lon="12.1680317"><ele>388.0</ele><time>2026-05-03T09:33:43.992Z</time></trkpt><trkpt lat="42.2210017" lon="12.167885"><ele>387.4</ele><time>2026-05-03T09:33:44.985Z</time></trkpt><trkpt lat="42.2210233" lon="12.167745"><ele>386.79999999999995</ele><time>2026-05-03T09:33:45.989Z</time></trkpt><trkpt lat="42.22104" lon="12.167605"><ele>386.2</ele><time>2026-05-03T09:33:46.987Z</time></trkpt><trkpt lat="42.22105" lon="12.1674717"><ele>385.6</ele><time>2026-05-03T09:33:47.984Z</time></trkpt><trkpt lat="42.2210433" lon="12.167335"><ele>385.0</ele><time>2026-05-03T09:33:48.988Z</time></trkpt><trkpt lat="42.2210267" lon="12.1671967"><ele>385.0</ele><time>2026-05-03T09:33:49.986Z</time></trkpt><trkpt lat="42.220995" lon="12.1670583"><ele>385.0</ele><time>2026-05-03T09:33:50.99Z</time></trkpt><trkpt lat="42.2209633" lon="12.1669183"><ele>385.0</ele><time>2026-05-03T09:33:51.994Z</time></trkpt><trkpt lat="42.220925" lon="12.1667783"><ele>385.0</ele><time>2026-05-03T09:33:52.984Z</time></trkpt><trkpt lat="42.2208817" lon="12.1666367"><ele>385.0</ele><time>2026-05-03T09:33:53.987Z</time></trkpt><trkpt lat="42.22084" lon="12.1664917"><ele>385.5</ele><time>2026-05-03T09:33:54.991Z</time></trkpt><trkpt lat="42.2207967" lon="12.1663467"><ele>386.0</ele><time>2026-05-03T09:33:55.989Z</time></trkpt><trkpt lat="42.2207517" lon="12.1662017"><ele>386.5</ele><time>2026-05-03T09:33:56.982Z</time></trkpt><trkpt lat="42.220705" lon="12.1660567"><ele>387.0</ele><time>2026-05-03T09:33:57.991Z</time></trkpt><trkpt lat="42.2206583" lon="12.1659083"><ele>385.5</ele><time>2026-05-03T09:33:58.986Z</time></trkpt><trkpt lat="42.2206133" lon="12.1657583"><ele>384.0</ele><time>2026-05-03T09:33:59.99Z</time></trkpt><trkpt lat="42.2205667" lon="12.1656083"><ele>382.5</ele><time>2026-05-03T09:34:00.99Z</time></trkpt><trkpt lat="42.22052" lon="12.16546"><ele>381.0</ele><time>2026-05-03T09:34:01.987Z</time></trkpt><trkpt lat="42.220475" lon="12.1653083"><ele>381.0</ele><time>2026-05-03T09:34:02.982Z</time></trkpt><trkpt lat="42.2204333" lon="12.1651583"><ele>381.0</ele><time>2026-05-03T09:34:03.984Z</time></trkpt><trkpt lat="42.2203933" lon="12.1650133"><ele>381.0</ele><time>2026-05-03T09:34:04.988Z</time></trkpt><trkpt lat="42.220355" lon="12.1648733"><ele>381.0</ele><time>2026-05-03T09:34:05.989Z</time></trkpt><trkpt lat="42.2203183" lon="12.1647367"><ele>381.0</ele><time>2026-05-03T09:34:06.987Z</time></trkpt><trkpt lat="42.22028" lon="12.1645983"><ele>381.0</ele><time>2026-05-03T09:34:07.99Z</time></trkpt><trkpt lat="42.2202367" lon="12.164455"><ele>381.0</ele><time>2026-05-03T09:34:08.986Z</time></trkpt><trkpt lat="42.220195" lon="12.1643067"><ele>381.0</ele><time>2026-05-03T09:34:09.99Z</time></trkpt><trkpt lat="42.22015" lon="12.1641533"><ele>381.25</ele><time>2026-05-03T09:34:10.99Z</time></trkpt><trkpt lat="42.220105" lon="12.16399"><ele>381.5</ele><time>2026-05-03T09:34:11.988Z</time></trkpt><trkpt lat="42.22006" lon="12.1638267"><ele>381.75</ele><time>2026-05-03T09:34:12.989Z</time></trkpt><trkpt lat="42.2200167" lon="12.1636617"><ele>382.0</ele><time>2026-05-03T09:34:13.987Z</time></trkpt><trkpt lat="42.2199717" lon="12.1634917"><ele>382.0</ele><time>2026-05-03T09:34:14.994Z</time></trkpt><trkpt lat="42.219925" lon="12.1633167"><ele>382.0</ele><time>2026-05-03T09:34:15.989Z</time></trkpt><trkpt lat="42.2198783" lon="12.1631383"><ele>382.0</ele><time>2026-05-03T09:34:16.988Z</time></trkpt><trkpt lat="42.2198283" lon="12.1629617"><ele>382.0</ele><time>2026-05-03T09:34:17.988Z</time></trkpt><trkpt lat="42.2197767" lon="12.1627833"><ele>381.0</ele><time>2026-05-03T09:34:18.99Z</time></trkpt><trkpt lat="42.21973" lon="12.1626067"><ele>380.0</ele><time>2026-05-03T09:34:19.992Z</time></trkpt><trkpt lat="42.2196817" lon="12.162435"><ele>379.0</ele><time>2026-05-03T09:34:20.987Z</time></trkpt><trkpt lat="42.2196333" lon="12.1622683"><ele>378.0</ele><time>2026-05-03T09:34:21.99Z</time></trkpt><trkpt lat="42.2195867" lon="12.1621033"><ele>378.0</ele><time>2026-05-03T09:34:22.988Z</time></trkpt><trkpt lat="42.2195433" lon="12.1619467"><ele>378.0</ele><time>2026-05-03T09:34:23.988Z</time></trkpt><trkpt lat="42.2195017" lon="12.1617917"><ele>378.0</ele><time>2026-05-03T09:34:24.987Z</time></trkpt><trkpt lat="42.21946" lon="12.1616383"><ele>378.0</ele><time>2026-05-03T09:34:25.988Z</time></trkpt><trkpt lat="42.2194167" lon="12.1614883"><ele>378.2</ele><time>2026-05-03T09:34:26.99Z</time></trkpt><trkpt lat="42.2193733" lon="12.161345"><ele>378.4</ele><time>2026-05-03T09:34:27.987Z</time></trkpt><trkpt lat="42.21933" lon="12.1612083"><ele>378.59999999999997</ele><time>2026-05-03T09:34:28.986Z</time></trkpt><trkpt lat="42.2192917" lon="12.161075"><ele>378.79999999999995</ele><time>2026-05-03T09:34:29.989Z</time></trkpt><trkpt lat="42.219255" lon="12.1609433"><ele>379.0</ele><time>2026-05-03T09:34:30.991Z</time></trkpt><trkpt lat="42.2192183" lon="12.1608133"><ele>379.79999999999995</ele><time>2026-05-03T09:34:31.986Z</time></trkpt><trkpt lat="42.2191817" lon="12.1606833"><ele>380.59999999999997</ele><time>2026-05-03T09:34:32.989Z</time></trkpt><trkpt lat="42.2191467" lon="12.16055"><ele>381.4</ele><time>2026-05-03T09:34:33.989Z</time></trkpt><trkpt lat="42.2191133" lon="12.1604133"><ele>382.2</ele><time>2026-05-03T09:34:34.991Z</time></trkpt><trkpt lat="42.21908" lon="12.16027"><ele>383.0</ele><time>2026-05-03T09:34:35.987Z</time></trkpt><trkpt lat="42.2190467" lon="12.16012"><ele>383.0</ele><time>2026-05-03T09:34:36.987Z</time></trkpt><trkpt lat="42.219015" lon="12.1599617"><ele>383.0</ele><time>2026-05-03T09:34:37.988Z</time></trkpt><trkpt lat="42.2189833" lon="12.1597983"><ele>383.0</ele><time>2026-05-03T09:34:38.988Z</time></trkpt><trkpt lat="42.21896" lon="12.15963"><ele>383.0</ele><time>2026-05-03T09:34:39.985Z</time></trkpt><trkpt lat="42.2189483" lon="12.1594583"><ele>381.5</ele><time>2026-05-03T09:34:40.984Z</time></trkpt><trkpt lat="42.2189467" lon="12.159285"><ele>380.0</ele><time>2026-05-03T09:34:41.99Z</time></trkpt><trkpt lat="42.2189467" lon="12.1591183"><ele>378.5</ele><time>2026-05-03T09:34:42.989Z</time></trkpt><trkpt lat="42.2189517" lon="12.158955"><ele>377.0</ele><time>2026-05-03T09:34:43.992Z</time></trkpt><trkpt lat="42.2189583" lon="12.1588"><ele>376.6</ele><time>2026-05-03T09:34:44.985Z</time></trkpt><trkpt lat="42.2189617" lon="12.1586517"><ele>376.20000000000005</ele><time>2026-05-03T09:34:45.987Z</time></trkpt><trkpt lat="42.2189633" lon="12.158505"><ele>375.8</ele><time>2026-05-03T09:34:46.991Z</time></trkpt><trkpt lat="42.2189617" lon="12.158355"><ele>375.4</ele><time>2026-05-03T09:34:47.988Z</time></trkpt><trkpt lat="42.21896" lon="12.1582017"><ele>375.0</ele><time>2026-05-03T09:34:48.991Z</time></trkpt><trkpt lat="42.2189583" lon="12.158045"><ele>375.0</ele><time>2026-05-03T09:34:49.99Z</time></trkpt><trkpt lat="42.2189583" lon="12.1578867"><ele>375.0</ele><time>2026-05-03T09:34:50.987Z</time></trkpt><trkpt lat="42.2189633" lon="12.1577267"><ele>375.0</ele><time>2026-05-03T09:34:51.986Z</time></trkpt><trkpt lat="42.2189733" lon="12.1575617"><ele>375.0</ele><time>2026-05-03T09:34:52.988Z</time></trkpt><trkpt lat="42.2189933" lon="12.15739"><ele>375.25</ele><time>2026-05-03T09:34:53.99Z</time></trkpt><trkpt lat="42.2190133" lon="12.157215"><ele>375.5</ele><time>2026-05-03T09:34:54.994Z</time></trkpt><trkpt lat="42.2190333" lon="12.157035"><ele>375.75</ele><time>2026-05-03T09:34:55.989Z</time></trkpt><trkpt lat="42.2190533" lon="12.1568533"><ele>376.0</ele><time>2026-05-03T09:34:56.987Z</time></trkpt><trkpt lat="42.219075" lon="12.1566767"><ele>375.5</ele><time>2026-05-03T09:34:57.986Z</time></trkpt><trkpt lat="42.2190933" lon="12.1565"><ele>375.0</ele><time>2026-05-03T09:34:58.994Z</time></trkpt><trkpt lat="42.2191167" lon="12.1563233"><ele>374.5</ele><time>2026-05-03T09:34:59.993Z</time></trkpt><trkpt lat="42.219135" lon="12.1561567"><ele>374.0</ele><time>2026-05-03T09:35:00.99Z</time></trkpt><trkpt lat="42.2191533" lon="12.156"><ele>374.0</ele><time>2026-05-03T09:35:01.983Z</time></trkpt><trkpt lat="42.21917" lon="12.1558467"><ele>374.0</ele><time>2026-05-03T09:35:02.99Z</time></trkpt><trkpt lat="42.2191883" lon="12.155695"><ele>374.0</ele><time>2026-05-03T09:35:03.983Z</time></trkpt><trkpt lat="42.2192083" lon="12.15554"><ele>374.0</ele><time>2026-05-03T09:35:04.984Z</time></trkpt><trkpt lat="42.2192283" lon="12.1553917"><ele>373.6</ele><time>2026-05-03T09:35:05.991Z</time></trkpt><trkpt lat="42.2192417" lon="12.155245"><ele>373.2</ele><time>2026-05-03T09:35:06.989Z</time></trkpt><trkpt lat="42.219255" lon="12.1551033"><ele>372.8</ele><time>2026-05-03T09:35:07.992Z</time></trkpt><trkpt lat="42.2192667" lon="12.1549667"><ele>372.40000000000003</ele><time>2026-05-03T09:35:08.986Z</time></trkpt><trkpt lat="42.2192783" lon="12.154835"><ele>372.0</ele><time>2026-05-03T09:35:09.99Z</time></trkpt><trkpt lat="42.219285" lon="12.15471"><ele>371.5</ele><time>2026-05-03T09:35:10.987Z</time></trkpt><trkpt lat="42.2192867" lon="12.1545933"><ele>371.0</ele><time>2026-05-03T09:35:11.991Z</time></trkpt><trkpt lat="42.2192767" lon="12.1544917"><ele>370.5</ele><time>2026-05-03T09:35:12.987Z</time></trkpt><trkpt lat="42.2192483" lon="12.1543967"><ele>370.0</ele><time>2026-05-03T09:35:13.988Z</time></trkpt><trkpt lat="42.2192133" lon="12.1543167"><ele>369.5</ele><time>2026-05-03T09:35:14.984Z</time></trkpt><trkpt lat="42.2191667" lon="12.154245"><ele>369.0</ele><time>2026-05-03T09:35:15.989Z</time></trkpt><trkpt lat="42.2191083" lon="12.154185"><ele>369.0</ele><time>2026-05-03T09:35:16.991Z</time></trkpt><trkpt lat="42.2190483" lon="12.1541367"><ele>369.0</ele><time>2026-05-03T09:35:17.995Z</time></trkpt><trkpt lat="42.218985" lon="12.1541017"><ele>369.0</ele><time>2026-05-03T09:35:18.995Z</time></trkpt><trkpt lat="42.2188833" lon="12.1540517"><ele>369.0</ele><time>2026-05-03T09:35:20.994Z</time></trkpt><trkpt lat="42.2188083" lon="12.1540117"><ele>369.0</ele><time>2026-05-03T09:35:22.989Z</time></trkpt><trkpt lat="42.2187617" lon="12.1539267"><ele>369.0</ele><time>2026-05-03T09:35:24.985Z</time></trkpt><trkpt lat="42.2187583" lon="12.153795"><ele>372.0</ele><time>2026-05-03T09:35:26.99Z</time></trkpt><trkpt lat="42.21878" lon="12.1536433"><ele>375.0</ele><time>2026-05-03T09:35:28.986Z</time></trkpt><trkpt lat="42.218815" lon="12.15352"><ele>378.0</ele><time>2026-05-03T09:35:30.985Z</time></trkpt><trkpt lat="42.2187983" lon="12.1533917"><ele>381.0</ele><time>2026-05-03T09:46:05.985Z</time></trkpt><trkpt lat="42.2188383" lon="12.1532367"><ele>384.0</ele><time>2026-05-03T09:46:07.992Z</time></trkpt><trkpt lat="42.2188517" lon="12.1531417"><ele>384.0</ele><time>2026-05-03T09:46:08.987Z</time></trkpt><trkpt lat="42.2188683" lon="12.1530383"><ele>384.0</ele><time>2026-05-03T09:46:09.991Z</time></trkpt><trkpt lat="42.21889" lon="12.1529217"><ele>384.0</ele><time>2026-05-03T09:46:10.989Z</time></trkpt><trkpt lat="42.2189017" lon="12.152775"><ele>384.0</ele><time>2026-05-03T09:46:11.996Z</time></trkpt><trkpt lat="42.2189" lon="12.15259"><ele>384.0</ele><time>2026-05-03T09:46:12.991Z</time></trkpt><trkpt lat="42.2188983" lon="12.1524117"><ele>382.75</ele><time>2026-05-03T09:46:13.993Z</time></trkpt><trkpt lat="42.2188967" lon="12.1522283"><ele>381.5</ele><time>2026-05-03T09:46:14.99Z</time></trkpt><trkpt lat="42.2189017" lon="12.1520383"><ele>380.25</ele><time>2026-05-03T09:46:15.987Z</time></trkpt><trkpt lat="42.2189" lon="12.151835"><ele>379.0</ele><time>2026-05-03T09:46:16.993Z</time></trkpt><trkpt lat="42.2188967" lon="12.15162"><ele>377.3333333333333</ele><time>2026-05-03T09:46:17.988Z</time></trkpt><trkpt lat="42.2188917" lon="12.1514083"><ele>375.6666666666667</ele><time>2026-05-03T09:46:18.987Z</time></trkpt><trkpt lat="42.2188883" lon="12.1512033"><ele>374.0</ele><time>2026-05-03T09:46:19.988Z</time></trkpt><trkpt lat="42.2188817" lon="12.1510083"><ele>374.0</ele><time>2026-05-03T09:46:20.99Z</time></trkpt><trkpt lat="42.2188583" lon="12.1508067"><ele>374.0</ele><time>2026-05-03T09:46:21.992Z</time></trkpt><trkpt lat="42.218825" lon="12.1506"><ele>374.0</ele><time>2026-05-03T09:46:22.993Z</time></trkpt><trkpt lat="42.2187783" lon="12.1503917"><ele>371.6666666666667</ele><time>2026-05-03T09:46:23.99Z</time></trkpt><trkpt lat="42.2187317" lon="12.1501883"><ele>369.3333333333333</ele><time>2026-05-03T09:46:24.989Z</time></trkpt><trkpt lat="42.21868" lon="12.1499967"><ele>367.0</ele><time>2026-05-03T09:46:25.994Z</time></trkpt><trkpt lat="42.2186233" lon="12.14982"><ele>365.75</ele><time>2026-05-03T09:46:26.988Z</time></trkpt><trkpt lat="42.218565" lon="12.1496633"><ele>364.5</ele><time>2026-05-03T09:46:27.987Z</time></trkpt><trkpt lat="42.218485" lon="12.14952"><ele>363.25</ele><time>2026-05-03T09:46:28.988Z</time></trkpt><trkpt lat="42.2183883" lon="12.1493883"><ele>362.0</ele><time>2026-05-03T09:46:29.99Z</time></trkpt><trkpt lat="42.2182683" lon="12.14928"><ele>361.0</ele><time>2026-05-03T09:46:30.991Z</time></trkpt><trkpt lat="42.21814" lon="12.1492033"><ele>360.0</ele><time>2026-05-03T09:46:31.992Z</time></trkpt><trkpt lat="42.217995" lon="12.1491417"><ele>359.0</ele><time>2026-05-03T09:46:32.989Z</time></trkpt><trkpt lat="42.2178417" lon="12.1491117"><ele>358.0</ele><time>2026-05-03T09:46:33.992Z</time></trkpt><trkpt lat="42.2176917" lon="12.1491117"><ele>358.0</ele><time>2026-05-03T09:46:34.989Z</time></trkpt><trkpt lat="42.2175433" lon="12.1491483"><ele>358.0</ele><time>2026-05-03T09:46:35.983Z</time></trkpt><trkpt lat="42.2174017" lon="12.1492167"><ele>358.0</ele><time>2026-05-03T09:46:36.987Z</time></trkpt><trkpt lat="42.2172667" lon="12.149305"><ele>357.66666666666663</ele><time>2026-05-03T09:46:37.991Z</time></trkpt><trkpt lat="42.2171317" lon="12.1494083"><ele>357.3333333333333</ele><time>2026-05-03T09:46:38.988Z</time></trkpt><trkpt lat="42.216995" lon="12.149515"><ele>357.0</ele><time>2026-05-03T09:46:39.987Z</time></trkpt><trkpt lat="42.216855" lon="12.149625"><ele>357.0</ele><time>2026-05-03T09:46:40.986Z</time></trkpt><trkpt lat="42.2167133" lon="12.1497367"><ele>357.0</ele><time>2026-05-03T09:46:41.991Z</time></trkpt><trkpt lat="42.216565" lon="12.1498517"><ele>357.0</ele><time>2026-05-03T09:46:42.988Z</time></trkpt><trkpt lat="42.2164133" lon="12.149975"><ele>357.6666666666667</ele><time>2026-05-03T09:46:43.987Z</time></trkpt><trkpt lat="42.2162533" lon="12.1501"><ele>358.33333333333337</ele><time>2026-05-03T09:46:44.988Z</time></trkpt><trkpt lat="42.216085" lon="12.1502333"><ele>359.0</ele><time>2026-05-03T09:46:45.99Z</time></trkpt><trkpt lat="42.2159117" lon="12.1503717"><ele>359.0</ele><time>2026-05-03T09:46:46.983Z</time></trkpt><trkpt lat="42.2157333" lon="12.1505117"><ele>359.0</ele><time>2026-05-03T09:46:47.988Z</time></trkpt><trkpt lat="42.2155517" lon="12.1506567"><ele>359.0</ele><time>2026-05-03T09:46:48.995Z</time></trkpt><trkpt lat="42.2153667" lon="12.1508017"><ele>360.6666666666667</ele><time>2026-05-03T09:46:49.991Z</time></trkpt><trkpt lat="42.2151833" lon="12.150945"><ele>362.3333333333333</ele><time>2026-05-03T09:46:50.989Z</time></trkpt><trkpt lat="42.2149983" lon="12.1510917"><ele>364.0</ele><time>2026-05-03T09:46:51.989Z</time></trkpt><trkpt lat="42.2148167" lon="12.15124"><ele>366.0</ele><time>2026-05-03T09:46:52.985Z</time></trkpt><trkpt lat="42.2146383" lon="12.15138"><ele>368.0</ele><time>2026-05-03T09:46:53.986Z</time></trkpt><trkpt lat="42.21447" lon="12.1515133"><ele>370.0</ele><time>2026-05-03T09:46:54.988Z</time></trkpt><trkpt lat="42.2143117" lon="12.1516333"><ele>370.0</ele><time>2026-05-03T09:46:55.993Z</time></trkpt><trkpt lat="42.2141633" lon="12.1517433"><ele>370.0</ele><time>2026-05-03T09:46:56.989Z</time></trkpt><trkpt lat="42.214015" lon="12.151845"><ele>370.0</ele><time>2026-05-03T09:46:57.985Z</time></trkpt><trkpt lat="42.2138567" lon="12.151935"><ele>369.3333333333333</ele><time>2026-05-03T09:46:58.993Z</time></trkpt><trkpt lat="42.213695" lon="12.1520183"><ele>368.6666666666667</ele><time>2026-05-03T09:46:59.99Z</time></trkpt><trkpt lat="42.2135417" lon="12.15208"><ele>368.0</ele><time>2026-05-03T09:47:00.99Z</time></trkpt><trkpt lat="42.2133933" lon="12.1521333"><ele>368.0</ele><time>2026-05-03T09:47:01.991Z</time></trkpt><trkpt lat="42.2132433" lon="12.1521717"><ele>368.0</ele><time>2026-05-03T09:47:02.986Z</time></trkpt><trkpt lat="42.2130867" lon="12.1521933"><ele>368.0</ele><time>2026-05-03T09:47:03.991Z</time></trkpt><trkpt lat="42.2129217" lon="12.1521967"><ele>370.0</ele><time>2026-05-03T09:47:04.991Z</time></trkpt><trkpt lat="42.2127533" lon="12.15218"><ele>372.0</ele><time>2026-05-03T09:47:05.989Z</time></trkpt><trkpt lat="42.2125817" lon="12.15215"><ele>374.0</ele><time>2026-05-03T09:47:06.988Z</time></trkpt><trkpt lat="42.212405" lon="12.1521183"><ele>373.0</ele><time>2026-05-03T09:47:07.986Z</time></trkpt><trkpt lat="42.2122267" lon="12.152085"><ele>372.0</ele><time>2026-05-03T09:47:08.988Z</time></trkpt><trkpt lat="42.2120433" lon="12.1520483"><ele>371.0</ele><time>2026-05-03T09:47:09.987Z</time></trkpt><trkpt lat="42.2118533" lon="12.15201"><ele>371.0</ele><time>2026-05-03T09:47:10.989Z</time></trkpt><trkpt lat="42.2116567" lon="12.151975"><ele>371.0</ele><time>2026-05-03T09:47:11.992Z</time></trkpt><trkpt lat="42.2114567" lon="12.1519417"><ele>371.0</ele><time>2026-05-03T09:47:12.989Z</time></trkpt><trkpt lat="42.2112583" lon="12.1519067"><ele>370.0</ele><time>2026-05-03T09:47:13.997Z</time></trkpt><trkpt lat="42.2110617" lon="12.1518717"><ele>369.0</ele><time>2026-05-03T09:47:14.989Z</time></trkpt><trkpt lat="42.21087" lon="12.1518333"><ele>368.0</ele><time>2026-05-03T09:47:15.987Z</time></trkpt><trkpt lat="42.2106733" lon="12.151795"><ele>367.6666666666667</ele><time>2026-05-03T09:47:16.99Z</time></trkpt><trkpt lat="42.2104717" lon="12.1517533"><ele>367.3333333333333</ele><time>2026-05-03T09:47:17.988Z</time></trkpt><trkpt lat="42.2102683" lon="12.15171"><ele>367.0</ele><time>2026-05-03T09:47:18.993Z</time></trkpt><trkpt lat="42.2100617" lon="12.1516617"><ele>367.0</ele><time>2026-05-03T09:47:19.988Z</time></trkpt><trkpt lat="42.2098533" lon="12.1516133"><ele>367.0</ele><time>2026-05-03T09:47:20.987Z</time></trkpt><trkpt lat="42.2096467" lon="12.1515617"><ele>367.0</ele><time>2026-05-03T09:47:21.988Z</time></trkpt><trkpt lat="42.2094367" lon="12.1515167"><ele>367.3333333333333</ele><time>2026-05-03T09:47:22.991Z</time></trkpt><trkpt lat="42.2092283" lon="12.1514667"><ele>367.6666666666667</ele><time>2026-05-03T09:47:23.992Z</time></trkpt><trkpt lat="42.2090233" lon="12.1514283"><ele>368.0</ele><time>2026-05-03T09:47:24.99Z</time></trkpt><trkpt lat="42.20882" lon="12.1513867"><ele>368.0</ele><time>2026-05-03T09:47:25.988Z</time></trkpt><trkpt lat="42.208625" lon="12.1513383"><ele>368.0</ele><time>2026-05-03T09:47:26.99Z</time></trkpt><trkpt lat="42.2084367" lon="12.151285"><ele>368.0</ele><time>2026-05-03T09:47:27.989Z</time></trkpt><trkpt lat="42.20826" lon="12.1512133"><ele>369.33333333333337</ele><time>2026-05-03T09:47:28.996Z</time></trkpt><trkpt lat="42.20809" lon="12.15111"><ele>370.6666666666667</ele><time>2026-05-03T09:47:29.988Z</time></trkpt><trkpt lat="42.2079267" lon="12.1509883"><ele>372.0</ele><time>2026-05-03T09:47:30.994Z</time></trkpt><trkpt lat="42.207765" lon="12.1508483"><ele>371.3333333333333</ele><time>2026-05-03T09:47:31.988Z</time></trkpt><trkpt lat="42.2076" lon="12.150705"><ele>370.66666666666663</ele><time>2026-05-03T09:47:32.989Z</time></trkpt><trkpt lat="42.2074283" lon="12.1505583"><ele>370.0</ele><time>2026-05-03T09:47:33.991Z</time></trkpt><trkpt lat="42.2072567" lon="12.1504117"><ele>371.3333333333333</ele><time>2026-05-03T09:47:34.989Z</time></trkpt><trkpt lat="42.2070833" lon="12.1502667"><ele>372.6666666666667</ele><time>2026-05-03T09:47:35.994Z</time></trkpt><trkpt lat="42.20691" lon="12.150125"><ele>374.0</ele><time>2026-05-03T09:47:36.989Z</time></trkpt><trkpt lat="42.2067383" lon="12.14998"><ele>373.6666666666667</ele><time>2026-05-03T09:47:37.991Z</time></trkpt><trkpt lat="42.206565" lon="12.1498317"><ele>373.3333333333333</ele><time>2026-05-03T09:47:38.998Z</time></trkpt><trkpt lat="42.2063917" lon="12.1496817"><ele>373.0</ele><time>2026-05-03T09:47:39.99Z</time></trkpt><trkpt lat="42.20622" lon="12.1495283"><ele>374.0</ele><time>2026-05-03T09:47:40.993Z</time></trkpt><trkpt lat="42.2060467" lon="12.149375"><ele>375.0</ele><time>2026-05-03T09:47:41.989Z</time></trkpt><trkpt lat="42.2058817" lon="12.1492317"><ele>376.0</ele><time>2026-05-03T09:47:43Z</time></trkpt><trkpt lat="42.2057267" lon="12.1490967"><ele>377.3333333333333</ele><time>2026-05-03T09:47:43.989Z</time></trkpt><trkpt lat="42.20558" lon="12.1489683"><ele>378.6666666666667</ele><time>2026-05-03T09:47:44.993Z</time></trkpt><trkpt lat="42.2054433" lon="12.148845"><ele>380.0</ele><time>2026-05-03T09:47:45.982Z</time></trkpt><trkpt lat="42.20531" lon="12.148725"><ele>380.0</ele><time>2026-05-03T09:47:46.991Z</time></trkpt><trkpt lat="42.2051783" lon="12.1486"><ele>380.0</ele><time>2026-05-03T09:47:47.988Z</time></trkpt><trkpt lat="42.205045" lon="12.148465"><ele>380.0</ele><time>2026-05-03T09:47:48.995Z</time></trkpt><trkpt lat="42.2049167" lon="12.1483217"><ele>378.33333333333337</ele><time>2026-05-03T09:47:49.992Z</time></trkpt><trkpt lat="42.2047867" lon="12.1481667"><ele>376.6666666666667</ele><time>2026-05-03T09:47:50.989Z</time></trkpt><trkpt lat="42.2046583" lon="12.1480017"><ele>375.0</ele><time>2026-05-03T09:47:51.991Z</time></trkpt><trkpt lat="42.2045317" lon="12.1478367"><ele>375.0</ele><time>2026-05-03T09:47:52.993Z</time></trkpt><trkpt lat="42.2044067" lon="12.14768"><ele>375.0</ele><time>2026-05-03T09:47:53.988Z</time></trkpt><trkpt lat="42.2042817" lon="12.14752"><ele>375.0</ele><time>2026-05-03T09:47:54.988Z</time></trkpt><trkpt lat="42.2041517" lon="12.1473583"><ele>374.3333333333333</ele><time>2026-05-03T09:47:55.991Z</time></trkpt><trkpt lat="42.2040217" lon="12.14719"><ele>373.66666666666663</ele><time>2026-05-03T09:47:56.992Z</time></trkpt><trkpt lat="42.203885" lon="12.1470233"><ele>373.0</ele><time>2026-05-03T09:47:57.99Z</time></trkpt><trkpt lat="42.2037483" lon="12.146855"><ele>370.66666666666663</ele><time>2026-05-03T09:47:58.989Z</time></trkpt><trkpt lat="42.2036083" lon="12.1466983"><ele>368.3333333333333</ele><time>2026-05-03T09:47:59.994Z</time></trkpt><trkpt lat="42.203465" lon="12.14654"><ele>366.0</ele><time>2026-05-03T09:48:00.991Z</time></trkpt><trkpt lat="42.2033083" lon="12.1464"><ele>365.0</ele><time>2026-05-03T09:48:01.99Z</time></trkpt><trkpt lat="42.2031417" lon="12.14628"><ele>364.0</ele><time>2026-05-03T09:48:02.988Z</time></trkpt><trkpt lat="42.2029717" lon="12.1461667"><ele>363.0</ele><time>2026-05-03T09:48:03.993Z</time></trkpt><trkpt lat="42.2027983" lon="12.1460533"><ele>363.0</ele><time>2026-05-03T09:48:04.985Z</time></trkpt><trkpt lat="42.2026283" lon="12.1459333"><ele>363.0</ele><time>2026-05-03T09:48:05.986Z</time></trkpt><trkpt lat="42.20246" lon="12.145825"><ele>363.0</ele><time>2026-05-03T09:48:06.992Z</time></trkpt><trkpt lat="42.2022883" lon="12.1457283"><ele>367.6666666666667</ele><time>2026-05-03T09:48:07.992Z</time></trkpt><trkpt lat="42.2021167" lon="12.1456417"><ele>372.33333333333337</ele><time>2026-05-03T09:48:08.994Z</time></trkpt><trkpt lat="42.2019433" lon="12.1455633"><ele>377.0</ele><time>2026-05-03T09:48:09.988Z</time></trkpt><trkpt lat="42.2017717" lon="12.1454967"><ele>377.0</ele><time>2026-05-03T09:48:10.985Z</time></trkpt><trkpt lat="42.2015983" lon="12.14544"><ele>377.0</ele><time>2026-05-03T09:48:11.994Z</time></trkpt><trkpt lat="42.2014267" lon="12.145385"><ele>377.0</ele><time>2026-05-03T09:48:12.989Z</time></trkpt><trkpt lat="42.2012567" lon="12.1453367"><ele>377.6666666666667</ele><time>2026-05-03T09:48:13.994Z</time></trkpt><trkpt lat="42.2010883" lon="12.1452883"><ele>378.3333333333333</ele><time>2026-05-03T09:48:14.997Z</time></trkpt><trkpt lat="42.2009167" lon="12.1452317"><ele>379.0</ele><time>2026-05-03T09:48:15.992Z</time></trkpt><trkpt lat="42.200745" lon="12.1451633"><ele>379.3333333333333</ele><time>2026-05-03T09:48:16.994Z</time></trkpt><trkpt lat="42.2005717" lon="12.1450917"><ele>379.6666666666667</ele><time>2026-05-03T09:48:17.995Z</time></trkpt><trkpt lat="42.2004017" lon="12.145015"><ele>380.0</ele><time>2026-05-03T09:48:18.995Z</time></trkpt><trkpt lat="42.2002333" lon="12.144935"><ele>381.0</ele><time>2026-05-03T09:48:19.995Z</time></trkpt><trkpt lat="42.2000683" lon="12.1448483"><ele>382.0</ele><time>2026-05-03T09:48:20.994Z</time></trkpt><trkpt lat="42.1999117" lon="12.1447667"><ele>383.0</ele><time>2026-05-03T09:48:21.993Z</time></trkpt><trkpt lat="42.1997567" lon="12.14469"><ele>383.33333333333337</ele><time>2026-05-03T09:48:22.991Z</time></trkpt><trkpt lat="42.1996067" lon="12.1446133"><ele>383.6666666666667</ele><time>2026-05-03T09:48:23.995Z</time></trkpt><trkpt lat="42.19946" lon="12.1445333"><ele>384.0</ele><time>2026-05-03T09:48:24.99Z</time></trkpt><trkpt lat="42.1993117" lon="12.1444533"><ele>384.0</ele><time>2026-05-03T09:48:25.994Z</time></trkpt><trkpt lat="42.1991617" lon="12.14437"><ele>384.0</ele><time>2026-05-03T09:48:26.994Z</time></trkpt><trkpt lat="42.1990133" lon="12.1442867"><ele>384.0</ele><time>2026-05-03T09:48:27.988Z</time></trkpt><trkpt lat="42.1988633" lon="12.1442067"><ele>386.0</ele><time>2026-05-03T09:48:28.989Z</time></trkpt><trkpt lat="42.1987133" lon="12.144125"><ele>388.0</ele><time>2026-05-03T09:48:29.993Z</time></trkpt><trkpt lat="42.198565" lon="12.1440433"><ele>390.0</ele><time>2026-05-03T09:48:30.991Z</time></trkpt><trkpt lat="42.1984167" lon="12.14396"><ele>390.66666666666663</ele><time>2026-05-03T09:48:31.996Z</time></trkpt><trkpt lat="42.1982667" lon="12.1438833"><ele>391.3333333333333</ele><time>2026-05-03T09:48:32.987Z</time></trkpt><trkpt lat="42.19812" lon="12.1438033"><ele>392.0</ele><time>2026-05-03T09:48:33.987Z</time></trkpt><trkpt lat="42.1979783" lon="12.1437283"><ele>392.0</ele><time>2026-05-03T09:48:34.99Z</time></trkpt><trkpt lat="42.1978367" lon="12.1436533"><ele>392.0</ele><time>2026-05-03T09:48:35.99Z</time></trkpt><trkpt lat="42.1976983" lon="12.14357"><ele>392.0</ele><time>2026-05-03T09:48:36.992Z</time></trkpt><trkpt lat="42.1975617" lon="12.14349"><ele>392.0</ele><time>2026-05-03T09:48:37.991Z</time></trkpt><trkpt lat="42.1974217" lon="12.1434083"><ele>392.0</ele><time>2026-05-03T09:48:38.993Z</time></trkpt><trkpt lat="42.19728" lon="12.143325"><ele>392.0</ele><time>2026-05-03T09:48:39.994Z</time></trkpt><trkpt lat="42.1971383" lon="12.1432383"><ele>394.66666666666663</ele><time>2026-05-03T09:48:40.992Z</time></trkpt><trkpt lat="42.196995" lon="12.1431583"><ele>397.33333333333337</ele><time>2026-05-03T09:48:41.992Z</time></trkpt><trkpt lat="42.19686" lon="12.143075"><ele>400.0</ele><time>2026-05-03T09:48:42.987Z</time></trkpt><trkpt lat="42.196725" lon="12.1429983"><ele>400.0</ele><time>2026-05-03T09:48:43.99Z</time></trkpt><trkpt lat="42.196585" lon="12.1429417"><ele>400.0</ele><time>2026-05-03T09:48:44.992Z</time></trkpt><trkpt lat="42.1964517" lon="12.142895"><ele>400.0</ele><time>2026-05-03T09:48:45.996Z</time></trkpt><trkpt lat="42.1963217" lon="12.1428517"><ele>400.0</ele><time>2026-05-03T09:48:46.997Z</time></trkpt><trkpt lat="42.196195" lon="12.142805"><ele>399.75</ele><time>2026-05-03T09:48:47.989Z</time></trkpt><trkpt lat="42.1960717" lon="12.1427567"><ele>399.5</ele><time>2026-05-03T09:48:48.995Z</time></trkpt><trkpt lat="42.1959517" lon="12.1427"><ele>399.25</ele><time>2026-05-03T09:48:49.992Z</time></trkpt><trkpt lat="42.19584" lon="12.1426233"><ele>399.0</ele><time>2026-05-03T09:48:50.997Z</time></trkpt><trkpt lat="42.1957317" lon="12.1425317"><ele>398.25</ele><time>2026-05-03T09:48:51.993Z</time></trkpt><trkpt lat="42.1956333" lon="12.1424283"><ele>397.5</ele><time>2026-05-03T09:48:52.995Z</time></trkpt><trkpt lat="42.19554" lon="12.1423167"><ele>396.75</ele><time>2026-05-03T09:48:53.991Z</time></trkpt><trkpt lat="42.1954417" lon="12.1422033"><ele>396.0</ele><time>2026-05-03T09:48:54.986Z</time></trkpt><trkpt lat="42.19534" lon="12.1420933"><ele>396.0</ele><time>2026-05-03T09:48:55.995Z</time></trkpt><trkpt lat="42.19524" lon="12.1419733"><ele>396.0</ele><time>2026-05-03T09:48:56.985Z</time></trkpt><trkpt lat="42.1951467" lon="12.14185"><ele>396.0</ele><time>2026-05-03T09:48:57.991Z</time></trkpt><trkpt lat="42.1950617" lon="12.1417167"><ele>396.0</ele><time>2026-05-03T09:48:58.991Z</time></trkpt><trkpt lat="42.19499" lon="12.14157"><ele>396.0</ele><time>2026-05-03T09:48:59.99Z</time></trkpt><trkpt lat="42.19493" lon="12.1414083"><ele>396.0</ele><time>2026-05-03T09:49:00.99Z</time></trkpt><trkpt lat="42.1948783" lon="12.14124"><ele>396.0</ele><time>2026-05-03T09:49:01.993Z</time></trkpt><trkpt lat="42.1948233" lon="12.1410667"><ele>396.0</ele><time>2026-05-03T09:49:02.991Z</time></trkpt><trkpt lat="42.19477" lon="12.140905"><ele>396.0</ele><time>2026-05-03T09:49:03.995Z</time></trkpt><trkpt lat="42.19471" lon="12.1407217"><ele>396.0</ele><time>2026-05-03T09:49:04.982Z</time></trkpt><trkpt lat="42.1946533" lon="12.1405383"><ele>396.0</ele><time>2026-05-03T09:49:05.989Z</time></trkpt><trkpt lat="42.1945983" lon="12.140355"><ele>396.0</ele><time>2026-05-03T09:49:06.989Z</time></trkpt><trkpt lat="42.1945467" lon="12.1401967"><ele>396.0</ele><time>2026-05-03T09:49:07.994Z</time></trkpt><trkpt lat="42.1944983" lon="12.1400333"><ele>396.0</ele><time>2026-05-03T09:49:08.989Z</time></trkpt><trkpt lat="42.19445" lon="12.1398767"><ele>396.0</ele><time>2026-05-03T09:49:09.987Z</time></trkpt><trkpt lat="42.1944017" lon="12.13972"><ele>396.0</ele><time>2026-05-03T09:49:10.989Z</time></trkpt><trkpt lat="42.1943383" lon="12.1395733"><ele>395.5</ele><time>2026-05-03T09:49:11.987Z</time></trkpt><trkpt lat="42.19425" lon="12.1394467"><ele>395.0</ele><time>2026-05-03T09:49:12.99Z</time></trkpt><trkpt lat="42.1941467" lon="12.1393433"><ele>394.5</ele><time>2026-05-03T09:49:13.988Z</time></trkpt><trkpt lat="42.194035" lon="12.1392567"><ele>394.0</ele><time>2026-05-03T09:49:14.986Z</time></trkpt><trkpt lat="42.19391" lon="12.1391917"><ele>394.0</ele><time>2026-05-03T09:49:15.991Z</time></trkpt><trkpt lat="42.1937867" lon="12.1391183"><ele>394.0</ele><time>2026-05-03T09:49:16.997Z</time></trkpt><trkpt lat="42.1936567" lon="12.139045"><ele>394.0</ele><time>2026-05-03T09:49:17.994Z</time></trkpt><trkpt lat="42.1935183" lon="12.1389683"><ele>394.0</ele><time>2026-05-03T09:49:18.987Z</time></trkpt><trkpt lat="42.1933767" lon="12.1388883"><ele>394.0</ele><time>2026-05-03T09:49:19.988Z</time></trkpt><trkpt lat="42.193225" lon="12.1388133"><ele>394.0</ele><time>2026-05-03T09:49:20.988Z</time></trkpt><trkpt lat="42.19306" lon="12.1387383"><ele>394.0</ele><time>2026-05-03T09:49:21.993Z</time></trkpt><trkpt lat="42.192885" lon="12.138655"><ele>394.0</ele><time>2026-05-03T09:49:22.994Z</time></trkpt><trkpt lat="42.1927017" lon="12.1385617"><ele>394.0</ele><time>2026-05-03T09:49:23.996Z</time></trkpt><trkpt lat="42.1925133" lon="12.1384583"><ele>394.0</ele><time>2026-05-03T09:49:24.994Z</time></trkpt><trkpt lat="42.1923383" lon="12.13836"><ele>393.6666666666667</ele><time>2026-05-03T09:49:25.99Z</time></trkpt><trkpt lat="42.192175" lon="12.1382717"><ele>393.33333333333337</ele><time>2026-05-03T09:49:26.992Z</time></trkpt><trkpt lat="42.192025" lon="12.138185"><ele>393.0</ele><time>2026-05-03T09:49:27.989Z</time></trkpt><trkpt lat="42.1918833" lon="12.1381067"><ele>393.75</ele><time>2026-05-03T09:49:28.996Z</time></trkpt><trkpt lat="42.191745" lon="12.1380317"><ele>394.5</ele><time>2026-05-03T09:49:29.986Z</time></trkpt><trkpt lat="42.1916117" lon="12.1379617"><ele>395.25</ele><time>2026-05-03T09:49:30.993Z</time></trkpt><trkpt lat="42.191475" lon="12.1378917"><ele>396.0</ele><time>2026-05-03T09:49:31.993Z</time></trkpt><trkpt lat="42.19134" lon="12.137825"><ele>396.25</ele><time>2026-05-03T09:49:32.986Z</time></trkpt><trkpt lat="42.191205" lon="12.1377617"><ele>396.5</ele><time>2026-05-03T09:49:34.002Z</time></trkpt><trkpt lat="42.1910733" lon="12.1377067"><ele>396.75</ele><time>2026-05-03T09:49:34.995Z</time></trkpt><trkpt lat="42.190945" lon="12.1376667"><ele>397.0</ele><time>2026-05-03T09:49:35.987Z</time></trkpt><trkpt lat="42.1908167" lon="12.1376317"><ele>397.0</ele><time>2026-05-03T09:49:36.987Z</time></trkpt><trkpt lat="42.1906867" lon="12.1375967"><ele>397.0</ele><time>2026-05-03T09:49:37.991Z</time></trkpt><trkpt lat="42.190555" lon="12.1375617"><ele>397.0</ele><time>2026-05-03T09:49:38.994Z</time></trkpt><trkpt lat="42.1904233" lon="12.13753"><ele>397.0</ele><time>2026-05-03T09:49:39.993Z</time></trkpt><trkpt lat="42.1902917" lon="12.1375"><ele>398.0</ele><time>2026-05-03T09:49:40.99Z</time></trkpt><trkpt lat="42.19016" lon="12.1374733"><ele>399.0</ele><time>2026-05-03T09:49:41.987Z</time></trkpt><trkpt lat="42.19003" lon="12.1374517"><ele>400.0</ele><time>2026-05-03T09:49:42.994Z</time></trkpt><trkpt lat="42.1899033" lon="12.1374317"><ele>401.0</ele><time>2026-05-03T09:49:43.991Z</time></trkpt><trkpt lat="42.189775" lon="12.137415"><ele>401.0</ele><time>2026-05-03T09:49:44.991Z</time></trkpt><trkpt lat="42.1896517" lon="12.1374067"><ele>401.0</ele><time>2026-05-03T09:49:45.992Z</time></trkpt><trkpt lat="42.18954" lon="12.1374117"><ele>401.0</ele><time>2026-05-03T09:49:46.989Z</time></trkpt><trkpt lat="42.1894267" lon="12.137415"><ele>401.0</ele><time>2026-05-03T09:49:47.992Z</time></trkpt><trkpt lat="42.1893183" lon="12.13742"><ele>401.0</ele><time>2026-05-03T09:49:48.991Z</time></trkpt><trkpt lat="42.1892183" lon="12.1374267"><ele>401.0</ele><time>2026-05-03T09:49:49.989Z</time></trkpt><trkpt lat="42.18912" lon="12.137435"><ele>401.0</ele><time>2026-05-03T09:49:50.989Z</time></trkpt><trkpt lat="42.1890283" lon="12.1374483"><ele>401.0</ele><time>2026-05-03T09:49:51.991Z</time></trkpt><trkpt lat="42.1889383" lon="12.1374567"><ele>401.0</ele><time>2026-05-03T09:49:52.987Z</time></trkpt><trkpt lat="42.1888533" lon="12.1374617"><ele>401.16666666666663</ele><time>2026-05-03T09:49:53.99Z</time></trkpt><trkpt lat="42.1887717" lon="12.1374683"><ele>401.3333333333333</ele><time>2026-05-03T09:49:54.992Z</time></trkpt><trkpt lat="42.1887" lon="12.1374767"><ele>401.5</ele><time>2026-05-03T09:49:55.988Z</time></trkpt><trkpt lat="42.18863" lon="12.13748"><ele>401.66666666666663</ele><time>2026-05-03T09:49:56.99Z</time></trkpt><trkpt lat="42.1885633" lon="12.13748"><ele>401.8333333333333</ele><time>2026-05-03T09:49:57.987Z</time></trkpt><trkpt lat="42.188455" lon="12.1374683"><ele>402.0</ele><time>2026-05-03T09:49:59.992Z</time></trkpt><trkpt lat="42.18839" lon="12.1374433"><ele>402.0</ele><time>2026-05-03T09:50:01.993Z</time></trkpt><trkpt lat="42.18831" lon="12.1373967"><ele>402.0</ele><time>2026-05-03T09:50:35.989Z</time></trkpt><trkpt lat="42.1882267" lon="12.1373733"><ele>402.0</ele><time>2026-05-03T09:50:37.991Z</time></trkpt><trkpt lat="42.18812" lon="12.1373917"><ele>402.0</ele><time>2026-05-03T09:50:39.983Z</time></trkpt><trkpt lat="42.1880567" lon="12.1374133"><ele>402.0</ele><time>2026-05-03T09:50:40.999Z</time></trkpt><trkpt lat="42.18794" lon="12.1374417"><ele>402.1666666666667</ele><time>2026-05-03T09:50:42.987Z</time></trkpt><trkpt lat="42.1878233" lon="12.13747"><ele>402.33333333333337</ele><time>2026-05-03T09:50:44.986Z</time></trkpt><trkpt lat="42.1877533" lon="12.137485"><ele>402.5</ele><time>2026-05-03T09:50:45.989Z</time></trkpt><trkpt lat="42.187675" lon="12.1374933"><ele>402.6666666666667</ele><time>2026-05-03T09:50:46.988Z</time></trkpt><trkpt lat="42.1875867" lon="12.1374983"><ele>402.83333333333337</ele><time>2026-05-03T09:50:47.985Z</time></trkpt><trkpt lat="42.1875" lon="12.1374983"><ele>403.0</ele><time>2026-05-03T09:50:48.991Z</time></trkpt><trkpt lat="42.1874083" lon="12.1374983"><ele>404.0</ele><time>2026-05-03T09:50:49.994Z</time></trkpt><trkpt lat="42.187315" lon="12.1375"><ele>405.0</ele><time>2026-05-03T09:50:50.989Z</time></trkpt><trkpt lat="42.18722" lon="12.1374983"><ele>406.0</ele><time>2026-05-03T09:50:51.988Z</time></trkpt><trkpt lat="42.1871183" lon="12.1374933"><ele>407.0</ele><time>2026-05-03T09:50:52.995Z</time></trkpt><trkpt lat="42.1870033" lon="12.1374767"><ele>408.0</ele><time>2026-05-03T09:50:53.995Z</time></trkpt><trkpt lat="42.186875" lon="12.1374483"><ele>408.0</ele><time>2026-05-03T09:50:54.986Z</time></trkpt><trkpt lat="42.186735" lon="12.1374033"><ele>408.0</ele><time>2026-05-03T09:50:55.991Z</time></trkpt><trkpt lat="42.186605" lon="12.1373567"><ele>408.0</ele><time>2026-05-03T09:50:56.982Z</time></trkpt><trkpt lat="42.1864767" lon="12.1373083"><ele>408.0</ele><time>2026-05-03T09:50:57.992Z</time></trkpt><trkpt lat="42.18634" lon="12.1372617"><ele>406.66666666666663</ele><time>2026-05-03T09:50:58.991Z</time></trkpt><trkpt lat="42.1861967" lon="12.1372117"><ele>405.3333333333333</ele><time>2026-05-03T09:50:59.995Z</time></trkpt><trkpt lat="42.1860433" lon="12.1371633"><ele>404.0</ele><time>2026-05-03T09:51:00.989Z</time></trkpt><trkpt lat="42.1858833" lon="12.13712"><ele>404.0</ele><time>2026-05-03T09:51:01.99Z</time></trkpt><trkpt lat="42.185715" lon="12.1370833"><ele>404.0</ele><time>2026-05-03T09:51:02.988Z</time></trkpt><trkpt lat="42.1855383" lon="12.137055"><ele>404.0</ele><time>2026-05-03T09:51:03.994Z</time></trkpt><trkpt lat="42.18535" lon="12.137035"><ele>404.3333333333333</ele><time>2026-05-03T09:51:04.987Z</time></trkpt><trkpt lat="42.18517" lon="12.1370333"><ele>404.66666666666663</ele><time>2026-05-03T09:51:05.985Z</time></trkpt><trkpt lat="42.1849833" lon="12.1370383"><ele>405.0</ele><time>2026-05-03T09:51:06.997Z</time></trkpt><trkpt lat="42.1847917" lon="12.1370417"><ele>405.0</ele><time>2026-05-03T09:51:07.989Z</time></trkpt><trkpt lat="42.1845867" lon="12.13704"><ele>405.0</ele><time>2026-05-03T09:51:08.996Z</time></trkpt><trkpt lat="42.184375" lon="12.1370417"><ele>405.0</ele><time>2026-05-03T09:51:09.984Z</time></trkpt><trkpt lat="42.1841567" lon="12.1370467"><ele>404.5</ele><time>2026-05-03T09:51:10.986Z</time></trkpt><trkpt lat="42.1839333" lon="12.1370533"><ele>404.0</ele><time>2026-05-03T09:51:11.985Z</time></trkpt><trkpt lat="42.1837017" lon="12.13706"><ele>404.0</ele><time>2026-05-03T09:51:12.986Z</time></trkpt><trkpt lat="42.1834783" lon="12.13706"><ele>404.0</ele><time>2026-05-03T09:51:13.988Z</time></trkpt><trkpt lat="42.1832533" lon="12.1370633"><ele>404.0</ele><time>2026-05-03T09:51:14.991Z</time></trkpt><trkpt lat="42.183025" lon="12.137065"><ele>403.5</ele><time>2026-05-03T09:51:15.988Z</time></trkpt><trkpt lat="42.1827917" lon="12.1370717"><ele>403.0</ele><time>2026-05-03T09:51:16.987Z</time></trkpt><trkpt lat="42.182555" lon="12.13708"><ele>402.0</ele><time>2026-05-03T09:51:17.985Z</time></trkpt><trkpt lat="42.1823167" lon="12.13709"><ele>401.0</ele><time>2026-05-03T09:51:18.988Z</time></trkpt><trkpt lat="42.182075" lon="12.1370983"><ele>401.0</ele><time>2026-05-03T09:51:19.993Z</time></trkpt><trkpt lat="42.181835" lon="12.1371017"><ele>401.0</ele><time>2026-05-03T09:51:20.987Z</time></trkpt><trkpt lat="42.181595" lon="12.1371067"><ele>401.5</ele><time>2026-05-03T09:51:21.99Z</time></trkpt><trkpt lat="42.1813567" lon="12.1371117"><ele>402.0</ele><time>2026-05-03T09:51:22.989Z</time></trkpt><trkpt lat="42.1811167" lon="12.1371117"><ele>402.0</ele><time>2026-05-03T09:51:23.994Z</time></trkpt><trkpt lat="42.18088" lon="12.1371167"><ele>402.0</ele><time>2026-05-03T09:51:24.993Z</time></trkpt><trkpt lat="42.1806417" lon="12.137115"><ele>403.0</ele><time>2026-05-03T09:51:25.991Z</time></trkpt><trkpt lat="42.180405" lon="12.1371217"><ele>404.0</ele><time>2026-05-03T09:51:26.993Z</time></trkpt><trkpt lat="42.1801733" lon="12.1371217"><ele>404.0</ele><time>2026-05-03T09:51:27.987Z</time></trkpt><trkpt lat="42.1799433" lon="12.137125"><ele>404.0</ele><time>2026-05-03T09:51:28.983Z</time></trkpt><trkpt lat="42.179715" lon="12.13713"><ele>405.0</ele><time>2026-05-03T09:51:29.988Z</time></trkpt><trkpt lat="42.17949" lon="12.1371317"><ele>406.0</ele><time>2026-05-03T09:51:30.988Z</time></trkpt><trkpt lat="42.1792633" lon="12.137135"><ele>406.0</ele><time>2026-05-03T09:51:31.998Z</time></trkpt><trkpt lat="42.1790383" lon="12.1371383"><ele>406.0</ele><time>2026-05-03T09:51:32.985Z</time></trkpt><trkpt lat="42.17881" lon="12.13714"><ele>406.5</ele><time>2026-05-03T09:51:33.993Z</time></trkpt><trkpt lat="42.1785783" lon="12.1371433"><ele>407.0</ele><time>2026-05-03T09:51:34.984Z</time></trkpt><trkpt lat="42.1783467" lon="12.13715"><ele>406.5</ele><time>2026-05-03T09:51:35.987Z</time></trkpt><trkpt lat="42.1781117" lon="12.13715"><ele>406.0</ele><time>2026-05-03T09:51:36.988Z</time></trkpt><trkpt lat="42.177875" lon="12.137155"><ele>406.0</ele><time>2026-05-03T09:51:37.996Z</time></trkpt><trkpt lat="42.1776367" lon="12.1371567"><ele>406.0</ele><time>2026-05-03T09:51:38.986Z</time></trkpt><trkpt lat="42.1774017" lon="12.1371617"><ele>407.0</ele><time>2026-05-03T09:51:39.986Z</time></trkpt><trkpt lat="42.1771683" lon="12.1371617"><ele>408.0</ele><time>2026-05-03T09:51:40.985Z</time></trkpt><trkpt lat="42.1769367" lon="12.1371617"><ele>408.0</ele><time>2026-05-03T09:51:41.986Z</time></trkpt><trkpt lat="42.176705" lon="12.1371617"><ele>408.0</ele><time>2026-05-03T09:51:42.988Z</time></trkpt><trkpt lat="42.1764717" lon="12.1371633"><ele>407.5</ele><time>2026-05-03T09:51:43.994Z</time></trkpt><trkpt lat="42.17624" lon="12.13716"><ele>407.0</ele><time>2026-05-03T09:51:44.991Z</time></trkpt><trkpt lat="42.1760117" lon="12.1371633"><ele>407.0</ele><time>2026-05-03T09:51:45.988Z</time></trkpt><trkpt lat="42.1757817" lon="12.1371683"><ele>407.0</ele><time>2026-05-03T09:51:46.986Z</time></trkpt><trkpt lat="42.1755533" lon="12.13718"><ele>407.5</ele><time>2026-05-03T09:51:47.988Z</time></trkpt><trkpt lat="42.175325" lon="12.1371867"><ele>408.0</ele><time>2026-05-03T09:51:48.996Z</time></trkpt><trkpt lat="42.175095" lon="12.1371917"><ele>408.0</ele><time>2026-05-03T09:51:49.995Z</time></trkpt><trkpt lat="42.1748667" lon="12.137195"><ele>408.0</ele><time>2026-05-03T09:51:50.996Z</time></trkpt><trkpt lat="42.174635" lon="12.1371983"><ele>409.0</ele><time>2026-05-03T09:51:51.992Z</time></trkpt><trkpt lat="42.174405" lon="12.1372017"><ele>410.0</ele><time>2026-05-03T09:51:52.989Z</time></trkpt><trkpt lat="42.1741733" lon="12.1372067"><ele>408.5</ele><time>2026-05-03T09:51:53.997Z</time></trkpt><trkpt lat="42.1739367" lon="12.1372133"><ele>407.0</ele><time>2026-05-03T09:51:54.989Z</time></trkpt><trkpt lat="42.1737017" lon="12.1372233"><ele>407.0</ele><time>2026-05-03T09:51:55.982Z</time></trkpt><trkpt lat="42.1734667" lon="12.1372283"><ele>407.0</ele><time>2026-05-03T09:51:57Z</time></trkpt><trkpt lat="42.1732317" lon="12.1372367"><ele>407.0</ele><time>2026-05-03T09:51:57.985Z</time></trkpt><trkpt lat="42.1729967" lon="12.1372383"><ele>407.0</ele><time>2026-05-03T09:51:58.985Z</time></trkpt><trkpt lat="42.1727617" lon="12.1372367"><ele>407.0</ele><time>2026-05-03T09:51:59.986Z</time></trkpt><trkpt lat="42.1725283" lon="12.1372367"><ele>407.0</ele><time>2026-05-03T09:52:00.989Z</time></trkpt><trkpt lat="42.172295" lon="12.13724"><ele>407.5</ele><time>2026-05-03T09:52:01.992Z</time></trkpt><trkpt lat="42.1720617" lon="12.1372417"><ele>408.0</ele><time>2026-05-03T09:52:02.985Z</time></trkpt><trkpt lat="42.1718283" lon="12.1372433"><ele>408.0</ele><time>2026-05-03T09:52:03.986Z</time></trkpt><trkpt lat="42.1715967" lon="12.1372483"><ele>408.0</ele><time>2026-05-03T09:52:04.986Z</time></trkpt><trkpt lat="42.171365" lon="12.1372467"><ele>408.33333333333337</ele><time>2026-05-03T09:52:05.986Z</time></trkpt><trkpt lat="42.1711383" lon="12.1372467"><ele>408.6666666666667</ele><time>2026-05-03T09:52:06.985Z</time></trkpt><trkpt lat="42.17092" lon="12.1372517"><ele>409.0</ele><time>2026-05-03T09:52:07.992Z</time></trkpt><trkpt lat="42.17071" lon="12.13726"><ele>409.6666666666667</ele><time>2026-05-03T09:52:08.989Z</time></trkpt><trkpt lat="42.17051" lon="12.137265"><ele>410.33333333333337</ele><time>2026-05-03T09:52:09.985Z</time></trkpt><trkpt lat="42.1703133" lon="12.1372733"><ele>411.0</ele><time>2026-05-03T09:52:10.988Z</time></trkpt><trkpt lat="42.1701183" lon="12.137285"><ele>411.0</ele><time>2026-05-03T09:52:11.989Z</time></trkpt><trkpt lat="42.1699217" lon="12.1373"><ele>411.0</ele><time>2026-05-03T09:52:12.987Z</time></trkpt><trkpt lat="42.1697267" lon="12.1373233"><ele>411.0</ele><time>2026-05-03T09:52:13.987Z</time></trkpt><trkpt lat="42.1695333" lon="12.137345"><ele>410.66666666666663</ele><time>2026-05-03T09:52:14.989Z</time></trkpt><trkpt lat="42.16934" lon="12.137375"><ele>410.3333333333333</ele><time>2026-05-03T09:52:15.988Z</time></trkpt><trkpt lat="42.1691483" lon="12.1374083"><ele>410.0</ele><time>2026-05-03T09:52:16.985Z</time></trkpt><trkpt lat="42.1689633" lon="12.137435"><ele>409.66666666666663</ele><time>2026-05-03T09:52:17.988Z</time></trkpt><trkpt lat="42.1687767" lon="12.1374567"><ele>409.33333333333337</ele><time>2026-05-03T09:52:18.994Z</time></trkpt><trkpt lat="42.16859" lon="12.1374783"><ele>409.0</ele><time>2026-05-03T09:52:19.988Z</time></trkpt><trkpt lat="42.1684033" lon="12.137505"><ele>409.0</ele><time>2026-05-03T09:52:20.991Z</time></trkpt><trkpt lat="42.1682217" lon="12.1375367"><ele>409.0</ele><time>2026-05-03T09:52:21.993Z</time></trkpt><trkpt lat="42.1680533" lon="12.137565"><ele>409.0</ele><time>2026-05-03T09:52:22.994Z</time></trkpt><trkpt lat="42.16789" lon="12.1375933"><ele>408.6666666666667</ele><time>2026-05-03T09:52:23.99Z</time></trkpt><trkpt lat="42.1677317" lon="12.1376233"><ele>408.33333333333337</ele><time>2026-05-03T09:52:25.002Z</time></trkpt><trkpt lat="42.167575" lon="12.1376533"><ele>408.0</ele><time>2026-05-03T09:52:25.996Z</time></trkpt><trkpt lat="42.16742" lon="12.1376767"><ele>407.66666666666663</ele><time>2026-05-03T09:52:26.988Z</time></trkpt><trkpt lat="42.1672683" lon="12.1376967"><ele>407.3333333333333</ele><time>2026-05-03T09:52:27.985Z</time></trkpt><trkpt lat="42.1671133" lon="12.13772"><ele>407.0</ele><time>2026-05-03T09:52:28.992Z</time></trkpt><trkpt lat="42.166965" lon="12.13774"><ele>407.0</ele><time>2026-05-03T09:52:29.989Z</time></trkpt><trkpt lat="42.1668233" lon="12.1377683"><ele>407.0</ele><time>2026-05-03T09:52:30.989Z</time></trkpt><trkpt lat="42.1666817" lon="12.1378"><ele>407.0</ele><time>2026-05-03T09:52:31.986Z</time></trkpt><trkpt lat="42.1665433" lon="12.13783"><ele>407.0</ele><time>2026-05-03T09:52:32.986Z</time></trkpt><trkpt lat="42.1664" lon="12.137855"><ele>406.66666666666663</ele><time>2026-05-03T09:52:33.989Z</time></trkpt><trkpt lat="42.166255" lon="12.13788"><ele>406.33333333333337</ele><time>2026-05-03T09:52:34.988Z</time></trkpt><trkpt lat="42.1661033" lon="12.1379083"><ele>406.0</ele><time>2026-05-03T09:52:35.981Z</time></trkpt><trkpt lat="42.16595" lon="12.137935"><ele>406.0</ele><time>2026-05-03T09:52:36.984Z</time></trkpt><trkpt lat="42.1658" lon="12.13796"><ele>406.0</ele><time>2026-05-03T09:52:37.985Z</time></trkpt><trkpt lat="42.1656517" lon="12.1379867"><ele>406.0</ele><time>2026-05-03T09:52:38.992Z</time></trkpt><trkpt lat="42.1655067" lon="12.1380133"><ele>406.0</ele><time>2026-05-03T09:52:39.99Z</time></trkpt><trkpt lat="42.1653683" lon="12.1380383"><ele>405.5</ele><time>2026-05-03T09:52:40.99Z</time></trkpt><trkpt lat="42.1652383" lon="12.1380617"><ele>405.0</ele><time>2026-05-03T09:52:41.985Z</time></trkpt><trkpt lat="42.165115" lon="12.138085"><ele>404.5</ele><time>2026-05-03T09:52:42.986Z</time></trkpt><trkpt lat="42.1650017" lon="12.138105"><ele>404.0</ele><time>2026-05-03T09:52:43.994Z</time></trkpt><trkpt lat="42.1649017" lon="12.13812"><ele>404.3333333333333</ele><time>2026-05-03T09:52:44.996Z</time></trkpt><trkpt lat="42.164815" lon="12.13814"><ele>404.66666666666663</ele><time>2026-05-03T09:52:45.985Z</time></trkpt><trkpt lat="42.16474" lon="12.1381633"><ele>405.0</ele><time>2026-05-03T09:52:46.987Z</time></trkpt><trkpt lat="42.1646633" lon="12.13817"><ele>405.33333333333337</ele><time>2026-05-03T09:52:47.988Z</time></trkpt><trkpt lat="42.1645817" lon="12.1381683"><ele>405.6666666666667</ele><time>2026-05-03T09:52:48.994Z</time></trkpt><trkpt lat="42.1644967" lon="12.138165"><ele>406.0</ele><time>2026-05-03T09:52:49.991Z</time></trkpt><trkpt lat="42.1644" lon="12.13817"><ele>406.0</ele><time>2026-05-03T09:52:50.992Z</time></trkpt><trkpt lat="42.1642883" lon="12.1381783"><ele>406.0</ele><time>2026-05-03T09:52:51.987Z</time></trkpt><trkpt lat="42.164175" lon="12.1381883"><ele>406.0</ele><time>2026-05-03T09:52:52.995Z</time></trkpt><trkpt lat="42.1640483" lon="12.1382033"><ele>406.0</ele><time>2026-05-03T09:52:53.996Z</time></trkpt><trkpt lat="42.16392" lon="12.1382217"><ele>406.5</ele><time>2026-05-03T09:52:54.989Z</time></trkpt><trkpt lat="42.1637833" lon="12.138245"><ele>407.0</ele><time>2026-05-03T09:52:55.988Z</time></trkpt><trkpt lat="42.1636417" lon="12.138275"><ele>407.5</ele><time>2026-05-03T09:52:56.987Z</time></trkpt><trkpt lat="42.1634917" lon="12.1383067"><ele>408.0</ele><time>2026-05-03T09:52:57.989Z</time></trkpt><trkpt lat="42.1633367" lon="12.138335"><ele>410.33333333333337</ele><time>2026-05-03T09:52:58.991Z</time></trkpt><trkpt lat="42.1631817" lon="12.138365"><ele>412.6666666666667</ele><time>2026-05-03T09:52:59.99Z</time></trkpt><trkpt lat="42.1630267" lon="12.1383917"><ele>415.0</ele><time>2026-05-03T09:53:00.993Z</time></trkpt><trkpt lat="42.162875" lon="12.1384183"><ele>415.0</ele><time>2026-05-03T09:53:01.989Z</time></trkpt><trkpt lat="42.1627217" lon="12.1384417"><ele>415.0</ele><time>2026-05-03T09:53:02.989Z</time></trkpt><trkpt lat="42.1625733" lon="12.13847"><ele>415.0</ele><time>2026-05-03T09:53:03.989Z</time></trkpt><trkpt lat="42.1624283" lon="12.1385"><ele>415.0</ele><time>2026-05-03T09:53:04.988Z</time></trkpt><trkpt lat="42.1622933" lon="12.138525"><ele>415.0</ele><time>2026-05-03T09:53:05.993Z</time></trkpt><trkpt lat="42.1621633" lon="12.1385483"><ele>415.0</ele><time>2026-05-03T09:53:06.988Z</time></trkpt><trkpt lat="42.1620317" lon="12.13857"><ele>415.0</ele><time>2026-05-03T09:53:07.996Z</time></trkpt><trkpt lat="42.1619067" lon="12.1385917"><ele>415.0</ele><time>2026-05-03T09:53:08.988Z</time></trkpt><trkpt lat="42.1617883" lon="12.138605"><ele>415.0</ele><time>2026-05-03T09:53:09.988Z</time></trkpt><trkpt lat="42.1616717" lon="12.1386183"><ele>415.0</ele><time>2026-05-03T09:53:10.988Z</time></trkpt><trkpt lat="42.16156" lon="12.1386317"><ele>415.0</ele><time>2026-05-03T09:53:11.987Z</time></trkpt><trkpt lat="42.1614517" lon="12.1386483"><ele>415.5</ele><time>2026-05-03T09:53:12.99Z</time></trkpt><trkpt lat="42.16134" lon="12.1386617"><ele>416.0</ele><time>2026-05-03T09:53:13.99Z</time></trkpt><trkpt lat="42.1612233" lon="12.1386817"><ele>416.5</ele><time>2026-05-03T09:53:14.992Z</time></trkpt><trkpt lat="42.1611033" lon="12.1386983"><ele>417.0</ele><time>2026-05-03T09:53:15.988Z</time></trkpt><trkpt lat="42.16098" lon="12.138715"><ele>417.0</ele><time>2026-05-03T09:53:16.986Z</time></trkpt><trkpt lat="42.1608617" lon="12.1387317"><ele>417.0</ele><time>2026-05-03T09:53:17.995Z</time></trkpt><trkpt lat="42.16075" lon="12.1387517"><ele>417.0</ele><time>2026-05-03T09:53:18.995Z</time></trkpt><trkpt lat="42.1606467" lon="12.1387617"><ele>417.0</ele><time>2026-05-03T09:53:19.992Z</time></trkpt><trkpt lat="42.16055" lon="12.1387683"><ele>417.0</ele><time>2026-05-03T09:53:20.992Z</time></trkpt><trkpt lat="42.16046" lon="12.1387783"><ele>418.1666666666667</ele><time>2026-05-03T09:53:21.994Z</time></trkpt><trkpt lat="42.1603767" lon="12.1387817"><ele>419.33333333333337</ele><time>2026-05-03T09:53:22.992Z</time></trkpt><trkpt lat="42.1603" lon="12.1387817"><ele>420.5</ele><time>2026-05-03T09:53:23.995Z</time></trkpt><trkpt lat="42.1602017" lon="12.138775"><ele>421.6666666666667</ele><time>2026-05-03T09:53:25.99Z</time></trkpt><trkpt lat="42.160125" lon="12.1387767"><ele>422.83333333333337</ele><time>2026-05-03T09:53:27.987Z</time></trkpt><trkpt lat="42.1600467" lon="12.138785"><ele>424.0</ele><time>2026-05-03T09:53:30.989Z</time></trkpt><trkpt lat="42.1599717" lon="12.1387917"><ele>424.0</ele><time>2026-05-03T09:53:33.997Z</time></trkpt><trkpt lat="42.1598817" lon="12.1388017"><ele>424.0</ele><time>2026-05-03T09:53:36.989Z</time></trkpt><trkpt lat="42.1597883" lon="12.13881"><ele>424.0</ele><time>2026-05-03T09:53:38.988Z</time></trkpt><trkpt lat="42.1597033" lon="12.1388133"><ele>424.0</ele><time>2026-05-03T09:53:40.991Z</time></trkpt><trkpt lat="42.1596083" lon="12.1388333"><ele>424.0</ele><time>2026-05-03T09:53:42.991Z</time></trkpt><trkpt lat="42.1595167" lon="12.1388483"><ele>424.33333333333337</ele><time>2026-05-03T09:53:44.987Z</time></trkpt><trkpt lat="42.159435" lon="12.1388683"><ele>424.6666666666667</ele><time>2026-05-03T09:53:46.993Z</time></trkpt><trkpt lat="42.1593417" lon="12.138895"><ele>425.0</ele><time>2026-05-03T09:53:49.987Z</time></trkpt><trkpt lat="42.15926" lon="12.1389067"><ele>425.33333333333337</ele><time>2026-05-03T09:53:52.995Z</time></trkpt><trkpt lat="42.1591867" lon="12.1388917"><ele>425.6666666666667</ele><time>2026-05-03T09:53:54.989Z</time></trkpt><trkpt lat="42.1590817" lon="12.1388883"><ele>426.0</ele><time>2026-05-03T09:53:56.987Z</time></trkpt><trkpt lat="42.1590167" lon="12.1388833"><ele>426.3333333333333</ele><time>2026-05-03T09:53:57.989Z</time></trkpt><trkpt lat="42.1589483" lon="12.1388817"><ele>426.66666666666663</ele><time>2026-05-03T09:53:58.987Z</time></trkpt><trkpt lat="42.1588817" lon="12.138885"><ele>427.0</ele><time>2026-05-03T09:53:59.989Z</time></trkpt><trkpt lat="42.158815" lon="12.1388883"><ele>427.3333333333333</ele><time>2026-05-03T09:54:00.986Z</time></trkpt><trkpt lat="42.1587483" lon="12.1388833"><ele>427.66666666666663</ele><time>2026-05-03T09:54:01.996Z</time></trkpt><trkpt lat="42.1586317" lon="12.1388717"><ele>428.0</ele><time>2026-05-03T09:54:03.989Z</time></trkpt><trkpt lat="42.1585217" lon="12.13887"><ele>427.99999999999994</ele><time>2026-05-03T09:54:05.99Z</time></trkpt><trkpt lat="42.1584067" lon="12.1388667"><ele>428.0</ele><time>2026-05-03T09:54:07.992Z</time></trkpt><trkpt lat="42.1582867" lon="12.13886"><ele>428.0</ele><time>2026-05-03T09:54:09.988Z</time></trkpt><trkpt lat="42.15822" lon="12.1388633"><ele>428.0</ele><time>2026-05-03T09:54:10.987Z</time></trkpt><trkpt lat="42.1581533" lon="12.138855"><ele>427.99999999999994</ele><time>2026-05-03T09:54:11.999Z</time></trkpt><trkpt lat="42.1580883" lon="12.1388533"><ele>428.0</ele><time>2026-05-03T09:54:12.985Z</time></trkpt><trkpt lat="42.158025" lon="12.1388483"><ele>428.14285714285717</ele><time>2026-05-03T09:54:13.991Z</time></trkpt><trkpt lat="42.15796" lon="12.13884"><ele>428.2857142857143</ele><time>2026-05-03T09:54:14.994Z</time></trkpt><trkpt lat="42.1578867" lon="12.1388367"><ele>428.42857142857144</ele><time>2026-05-03T09:54:15.991Z</time></trkpt><trkpt lat="42.15781" lon="12.1388333"><ele>428.57142857142856</ele><time>2026-05-03T09:54:16.989Z</time></trkpt><trkpt lat="42.157735" lon="12.1388317"><ele>428.7142857142857</ele><time>2026-05-03T09:54:17.989Z</time></trkpt><trkpt lat="42.1576617" lon="12.1388317"><ele>428.8571428571429</ele><time>2026-05-03T09:54:18.989Z</time></trkpt><trkpt lat="42.1575933" lon="12.138835"><ele>429.0</ele><time>2026-05-03T09:54:19.992Z</time></trkpt><trkpt lat="42.15753" lon="12.13884"><ele>429.0</ele><time>2026-05-03T09:54:20.991Z</time></trkpt><trkpt lat="42.1574367" lon="12.138835"><ele>429.0</ele><time>2026-05-03T09:54:22.994Z</time></trkpt><trkpt lat="42.1573417" lon="12.138825"><ele>429.0</ele><time>2026-05-03T09:54:24.988Z</time></trkpt><trkpt lat="42.1572617" lon="12.1388183"><ele>429.0</ele><time>2026-05-03T09:54:26.992Z</time></trkpt><trkpt lat="42.1571933" lon="12.1387783"><ele>429.0</ele><time>2026-05-03T09:54:29.984Z</time></trkpt><trkpt lat="42.1571317" lon="12.1387333"><ele>429.0</ele><time>2026-05-03T09:54:32.988Z</time></trkpt><trkpt lat="42.1570583" lon="12.1386633"><ele>428.2</ele><time>2026-05-03T09:54:34.99Z</time></trkpt><trkpt lat="42.157005" lon="12.1386167"><ele>427.4</ele><time>2026-05-03T09:54:35.989Z</time></trkpt><trkpt lat="42.1569417" lon="12.1385567"><ele>426.6</ele><time>2026-05-03T09:54:36.99Z</time></trkpt><trkpt lat="42.15686" lon="12.138485"><ele>425.8</ele><time>2026-05-03T09:54:37.992Z</time></trkpt><trkpt lat="42.1567683" lon="12.13841"><ele>425.0</ele><time>2026-05-03T09:54:38.987Z</time></trkpt><trkpt lat="42.1566617" lon="12.13833"><ele>425.0</ele><time>2026-05-03T09:54:39.991Z</time></trkpt><trkpt lat="42.156545" lon="12.1382467"><ele>425.0</ele><time>2026-05-03T09:54:40.99Z</time></trkpt><trkpt lat="42.156435" lon="12.1381733"><ele>425.0</ele><time>2026-05-03T09:54:41.991Z</time></trkpt><trkpt lat="42.15633" lon="12.1381"><ele>425.0</ele><time>2026-05-03T09:54:42.987Z</time></trkpt><trkpt lat="42.1562217" lon="12.1380283"><ele>424.75</ele><time>2026-05-03T09:54:43.989Z</time></trkpt><trkpt lat="42.1561117" lon="12.1379567"><ele>424.5</ele><time>2026-05-03T09:54:44.988Z</time></trkpt><trkpt lat="42.155995" lon="12.1378867"><ele>424.25</ele><time>2026-05-03T09:54:45.988Z</time></trkpt><trkpt lat="42.15587" lon="12.1378117"><ele>424.0</ele><time>2026-05-03T09:54:46.99Z</time></trkpt><trkpt lat="42.1557383" lon="12.1377367"><ele>422.75</ele><time>2026-05-03T09:54:47.988Z</time></trkpt><trkpt lat="42.1556017" lon="12.13765"><ele>421.5</ele><time>2026-05-03T09:54:48.988Z</time></trkpt><trkpt lat="42.1554733" lon="12.1375567"><ele>420.25</ele><time>2026-05-03T09:54:49.988Z</time></trkpt><trkpt lat="42.1553467" lon="12.13746"><ele>419.0</ele><time>2026-05-03T09:54:50.986Z</time></trkpt><trkpt lat="42.1552167" lon="12.13736"><ele>418.66666666666663</ele><time>2026-05-03T09:54:51.988Z</time></trkpt><trkpt lat="42.1550817" lon="12.1372517"><ele>418.33333333333337</ele><time>2026-05-03T09:54:52.986Z</time></trkpt><trkpt lat="42.1549383" lon="12.137135"><ele>418.0</ele><time>2026-05-03T09:54:53.985Z</time></trkpt><trkpt lat="42.15479" lon="12.13702"><ele>417.33333333333337</ele><time>2026-05-03T09:54:54.985Z</time></trkpt><trkpt lat="42.1546433" lon="12.1369067"><ele>416.66666666666663</ele><time>2026-05-03T09:54:55.987Z</time></trkpt><trkpt lat="42.1545017" lon="12.1367917"><ele>416.0</ele><time>2026-05-03T09:54:56.986Z</time></trkpt><trkpt lat="42.154355" lon="12.136675"><ele>416.0</ele><time>2026-05-03T09:54:57.99Z</time></trkpt><trkpt lat="42.154205" lon="12.1365567"><ele>416.0</ele><time>2026-05-03T09:54:58.989Z</time></trkpt><trkpt lat="42.1540533" lon="12.1364433"><ele>416.0</ele><time>2026-05-03T09:54:59.991Z</time></trkpt><trkpt lat="42.1539017" lon="12.1363267"><ele>415.0</ele><time>2026-05-03T09:55:00.985Z</time></trkpt><trkpt lat="42.153745" lon="12.1362083"><ele>414.0</ele><time>2026-05-03T09:55:01.983Z</time></trkpt><trkpt lat="42.1535933" lon="12.1360917"><ele>413.0</ele><time>2026-05-03T09:55:02.991Z</time></trkpt><trkpt lat="42.15343" lon="12.1359683"><ele>413.0</ele><time>2026-05-03T09:55:03.987Z</time></trkpt><trkpt lat="42.153265" lon="12.1358517"><ele>413.0</ele><time>2026-05-03T09:55:04.989Z</time></trkpt><trkpt lat="42.1531" lon="12.1357333"><ele>413.0</ele><time>2026-05-03T09:55:05.987Z</time></trkpt><trkpt lat="42.15293" lon="12.1356"><ele>413.0</ele><time>2026-05-03T09:55:06.991Z</time></trkpt><trkpt lat="42.152755" lon="12.1354617"><ele>413.0</ele><time>2026-05-03T09:55:07.987Z</time></trkpt><trkpt lat="42.1525733" lon="12.135325"><ele>413.0</ele><time>2026-05-03T09:55:08.988Z</time></trkpt><trkpt lat="42.1523883" lon="12.135185"><ele>413.0</ele><time>2026-05-03T09:55:09.985Z</time></trkpt><trkpt lat="42.1521983" lon="12.1350383"><ele>413.0</ele><time>2026-05-03T09:55:10.991Z</time></trkpt><trkpt lat="42.1520067" lon="12.1348867"><ele>413.0</ele><time>2026-05-03T09:55:11.989Z</time></trkpt><trkpt lat="42.1518183" lon="12.13473"><ele>413.3333333333333</ele><time>2026-05-03T09:55:12.986Z</time></trkpt><trkpt lat="42.1516283" lon="12.13458"><ele>413.66666666666663</ele><time>2026-05-03T09:55:13.991Z</time></trkpt><trkpt lat="42.15144" lon="12.1344333"><ele>414.0</ele><time>2026-05-03T09:55:14.984Z</time></trkpt><trkpt lat="42.15126" lon="12.1342933"><ele>414.0</ele><time>2026-05-03T09:55:15.989Z</time></trkpt><trkpt lat="42.151075" lon="12.1341517"><ele>414.0</ele><time>2026-05-03T09:55:16.988Z</time></trkpt><trkpt lat="42.15089" lon="12.1340167"><ele>414.0</ele><time>2026-05-03T09:55:17.985Z</time></trkpt><trkpt lat="42.1507" lon="12.13388"><ele>414.0</ele><time>2026-05-03T09:55:18.989Z</time></trkpt><trkpt lat="42.1505133" lon="12.13375"><ele>414.0</ele><time>2026-05-03T09:55:19.987Z</time></trkpt><trkpt lat="42.1503267" lon="12.1336283"><ele>414.0</ele><time>2026-05-03T09:55:20.988Z</time></trkpt><trkpt lat="42.150145" lon="12.133505"><ele>414.0</ele><time>2026-05-03T09:55:21.985Z</time></trkpt><trkpt lat="42.1499683" lon="12.1333867"><ele>414.0</ele><time>2026-05-03T09:55:22.984Z</time></trkpt><trkpt lat="42.1498033" lon="12.13328"><ele>414.0</ele><time>2026-05-03T09:55:23.991Z</time></trkpt><trkpt lat="42.1496483" lon="12.1331783"><ele>414.75</ele><time>2026-05-03T09:55:24.99Z</time></trkpt><trkpt lat="42.1495" lon="12.1330883"><ele>415.5</ele><time>2026-05-03T09:55:25.989Z</time></trkpt><trkpt lat="42.1493667" lon="12.1329967"><ele>416.25</ele><time>2026-05-03T09:55:26.984Z</time></trkpt><trkpt lat="42.1492533" lon="12.1329133"><ele>417.0</ele><time>2026-05-03T09:55:27.985Z</time></trkpt><trkpt lat="42.1491417" lon="12.1328267"><ele>417.0</ele><time>2026-05-03T09:55:28.988Z</time></trkpt><trkpt lat="42.1490333" lon="12.1327383"><ele>417.0</ele><time>2026-05-03T09:55:29.99Z</time></trkpt><trkpt lat="42.14892" lon="12.13265"><ele>417.0</ele><time>2026-05-03T09:55:30.99Z</time></trkpt><trkpt lat="42.1488033" lon="12.132555"><ele>417.0</ele><time>2026-05-03T09:55:31.984Z</time></trkpt><trkpt lat="42.1486783" lon="12.1324517"><ele>417.0</ele><time>2026-05-03T09:55:32.988Z</time></trkpt><trkpt lat="42.148545" lon="12.132335"><ele>417.0</ele><time>2026-05-03T09:55:33.985Z</time></trkpt><trkpt lat="42.1484033" lon="12.1322017"><ele>417.0</ele><time>2026-05-03T09:55:34.989Z</time></trkpt><trkpt lat="42.1482467" lon="12.132065"><ele>415.33333333333337</ele><time>2026-05-03T09:55:35.991Z</time></trkpt><trkpt lat="42.14808" lon="12.13192"><ele>413.6666666666667</ele><time>2026-05-03T09:55:36.988Z</time></trkpt><trkpt lat="42.147905" lon="12.13177"><ele>412.0</ele><time>2026-05-03T09:55:37.992Z</time></trkpt><trkpt lat="42.1477233" lon="12.131625"><ele>413.0</ele><time>2026-05-03T09:55:38.983Z</time></trkpt><trkpt lat="42.1475467" lon="12.131485"><ele>414.0</ele><time>2026-05-03T09:55:39.981Z</time></trkpt><trkpt lat="42.1473717" lon="12.1313467"><ele>415.0</ele><time>2026-05-03T09:55:40.981Z</time></trkpt><trkpt lat="42.1471967" lon="12.13119"><ele>415.0</ele><time>2026-05-03T09:55:41.982Z</time></trkpt><trkpt lat="42.1470267" lon="12.1310267"><ele>415.0</ele><time>2026-05-03T09:55:42.984Z</time></trkpt><trkpt lat="42.1468583" lon="12.1308633"><ele>415.0</ele><time>2026-05-03T09:55:43.988Z</time></trkpt><trkpt lat="42.1466933" lon="12.130695"><ele>417.33333333333337</ele><time>2026-05-03T09:55:44.989Z</time></trkpt><trkpt lat="42.14654" lon="12.1305433"><ele>419.66666666666663</ele><time>2026-05-03T09:55:45.99Z</time></trkpt><trkpt lat="42.1463867" lon="12.1304017"><ele>422.0</ele><time>2026-05-03T09:55:46.983Z</time></trkpt><trkpt lat="42.1462233" lon="12.1302833"><ele>422.0</ele><time>2026-05-03T09:55:47.99Z</time></trkpt><trkpt lat="42.14605" lon="12.1302"><ele>422.0</ele><time>2026-05-03T09:55:48.982Z</time></trkpt><trkpt lat="42.1458683" lon="12.13015"><ele>422.0</ele><time>2026-05-03T09:55:49.988Z</time></trkpt><trkpt lat="42.1456767" lon="12.1301317"><ele>424.3333333333333</ele><time>2026-05-03T09:55:50.989Z</time></trkpt><trkpt lat="42.1454817" lon="12.130125"><ele>426.66666666666663</ele><time>2026-05-03T09:55:51.983Z</time></trkpt><trkpt lat="42.1452883" lon="12.1301133"><ele>429.0</ele><time>2026-05-03T09:55:52.989Z</time></trkpt><trkpt lat="42.1451017" lon="12.1301"><ele>429.0</ele><time>2026-05-03T09:55:53.988Z</time></trkpt><trkpt lat="42.1449217" lon="12.130075"><ele>429.0</ele><time>2026-05-03T09:55:54.986Z</time></trkpt><trkpt lat="42.14474" lon="12.1300383"><ele>429.0</ele><time>2026-05-03T09:55:55.988Z</time></trkpt><trkpt lat="42.1445633" lon="12.1299967"><ele>428.33333333333337</ele><time>2026-05-03T09:55:56.987Z</time></trkpt><trkpt lat="42.1443933" lon="12.1299683"><ele>427.6666666666667</ele><time>2026-05-03T09:55:57.988Z</time></trkpt><trkpt lat="42.14422" lon="12.1299367"><ele>427.0</ele><time>2026-05-03T09:55:58.99Z</time></trkpt><trkpt lat="42.1440467" lon="12.129905"><ele>425.6666666666667</ele><time>2026-05-03T09:55:59.99Z</time></trkpt><trkpt lat="42.14388" lon="12.1298867"><ele>424.33333333333337</ele><time>2026-05-03T09:56:00.989Z</time></trkpt><trkpt lat="42.1437167" lon="12.1298717"><ele>423.0</ele><time>2026-05-03T09:56:01.986Z</time></trkpt><trkpt lat="42.1435533" lon="12.1298783"><ele>422.66666666666663</ele><time>2026-05-03T09:56:02.99Z</time></trkpt><trkpt lat="42.1433883" lon="12.1299067"><ele>422.3333333333333</ele><time>2026-05-03T09:56:03.989Z</time></trkpt><trkpt lat="42.1432233" lon="12.1299517"><ele>422.0</ele><time>2026-05-03T09:56:04.996Z</time></trkpt><trkpt lat="42.14306" lon="12.13"><ele>420.66666666666663</ele><time>2026-05-03T09:56:05.984Z</time></trkpt><trkpt lat="42.1428983" lon="12.1300517"><ele>419.33333333333337</ele><time>2026-05-03T09:56:06.988Z</time></trkpt><trkpt lat="42.142735" lon="12.1301033"><ele>418.0</ele><time>2026-05-03T09:56:07.991Z</time></trkpt><trkpt lat="42.14257" lon="12.13016"><ele>418.0</ele><time>2026-05-03T09:56:08.992Z</time></trkpt><trkpt lat="42.1424133" lon="12.130215"><ele>418.0</ele><time>2026-05-03T09:56:09.992Z</time></trkpt><trkpt lat="42.1422617" lon="12.1302633"><ele>418.0</ele><time>2026-05-03T09:56:10.987Z</time></trkpt><trkpt lat="42.142115" lon="12.1303067"><ele>417.75</ele><time>2026-05-03T09:56:11.991Z</time></trkpt><trkpt lat="42.1419717" lon="12.1303383"><ele>417.5</ele><time>2026-05-03T09:56:13.001Z</time></trkpt><trkpt lat="42.1418283" lon="12.1303533"><ele>417.25</ele><time>2026-05-03T09:56:13.988Z</time></trkpt><trkpt lat="42.1416867" lon="12.1303317"><ele>417.0</ele><time>2026-05-03T09:56:14.988Z</time></trkpt><trkpt lat="42.1415517" lon="12.1302817"><ele>416.25</ele><time>2026-05-03T09:56:15.984Z</time></trkpt><trkpt lat="42.1414217" lon="12.130205"><ele>415.5</ele><time>2026-05-03T09:56:16.992Z</time></trkpt><trkpt lat="42.1412983" lon="12.130115"><ele>414.75</ele><time>2026-05-03T09:56:17.987Z</time></trkpt><trkpt lat="42.1411933" lon="12.1300017"><ele>414.0</ele><time>2026-05-03T09:56:18.991Z</time></trkpt><trkpt lat="42.14109" lon="12.129855"><ele>414.0</ele><time>2026-05-03T09:56:19.996Z</time></trkpt><trkpt lat="42.1410017" lon="12.129715"><ele>414.0</ele><time>2026-05-03T09:56:20.994Z</time></trkpt><trkpt lat="42.1409083" lon="12.129565"><ele>414.0</ele><time>2026-05-03T09:56:21.99Z</time></trkpt><trkpt lat="42.1408167" lon="12.12942"><ele>414.0</ele><time>2026-05-03T09:56:22.998Z</time></trkpt><trkpt lat="42.140725" lon="12.1292617"><ele>413.25</ele><time>2026-05-03T09:56:23.988Z</time></trkpt><trkpt lat="42.14064" lon="12.1291183"><ele>412.5</ele><time>2026-05-03T09:56:24.995Z</time></trkpt><trkpt lat="42.1405433" lon="12.1289683"><ele>411.75</ele><time>2026-05-03T09:56:25.988Z</time></trkpt><trkpt lat="42.1404417" lon="12.1288283"><ele>411.0</ele><time>2026-05-03T09:56:26.991Z</time></trkpt><trkpt lat="42.1403417" lon="12.12871"><ele>411.0</ele><time>2026-05-03T09:56:27.987Z</time></trkpt><trkpt lat="42.1402433" lon="12.128605"><ele>411.0</ele><time>2026-05-03T09:56:28.991Z</time></trkpt><trkpt lat="42.1401467" lon="12.1285133"><ele>411.0</ele><time>2026-05-03T09:56:29.989Z</time></trkpt><trkpt lat="42.1400467" lon="12.1284383"><ele>411.0</ele><time>2026-05-03T09:56:30.989Z</time></trkpt><trkpt lat="42.1399383" lon="12.1283833"><ele>409.75</ele><time>2026-05-03T09:56:31.991Z</time></trkpt><trkpt lat="42.139825" lon="12.128325"><ele>408.5</ele><time>2026-05-03T09:56:32.988Z</time></trkpt><trkpt lat="42.139695" lon="12.1282733"><ele>407.25</ele><time>2026-05-03T09:56:33.987Z</time></trkpt><trkpt lat="42.1395617" lon="12.128225"><ele>406.0</ele><time>2026-05-03T09:56:34.985Z</time></trkpt><trkpt lat="42.1394217" lon="12.12817"><ele>405.75</ele><time>2026-05-03T09:56:35.988Z</time></trkpt><trkpt lat="42.1392817" lon="12.1281133"><ele>405.5</ele><time>2026-05-03T09:56:36.991Z</time></trkpt><trkpt lat="42.1391467" lon="12.128065"><ele>405.25</ele><time>2026-05-03T09:56:37.99Z</time></trkpt><trkpt lat="42.139015" lon="12.1280183"><ele>405.0</ele><time>2026-05-03T09:56:38.988Z</time></trkpt><trkpt lat="42.1388883" lon="12.1279767"><ele>405.0</ele><time>2026-05-03T09:56:39.989Z</time></trkpt><trkpt lat="42.1387617" lon="12.127935"><ele>405.0</ele><time>2026-05-03T09:56:40.989Z</time></trkpt><trkpt lat="42.1386383" lon="12.1278883"><ele>405.0</ele><time>2026-05-03T09:56:41.989Z</time></trkpt><trkpt lat="42.138515" lon="12.127845"><ele>405.0</ele><time>2026-05-03T09:56:42.986Z</time></trkpt><trkpt lat="42.13839" lon="12.1277983"><ele>405.0</ele><time>2026-05-03T09:56:43.989Z</time></trkpt><trkpt lat="42.1382567" lon="12.1277517"><ele>405.0</ele><time>2026-05-03T09:56:44.993Z</time></trkpt><trkpt lat="42.138125" lon="12.12771"><ele>405.0</ele><time>2026-05-03T09:56:45.995Z</time></trkpt><trkpt lat="42.1379933" lon="12.1276683"><ele>405.0</ele><time>2026-05-03T09:56:46.989Z</time></trkpt><trkpt lat="42.137865" lon="12.1276183"><ele>403.0</ele><time>2026-05-03T09:56:47.988Z</time></trkpt><trkpt lat="42.137735" lon="12.1275733"><ele>401.0</ele><time>2026-05-03T09:56:48.99Z</time></trkpt><trkpt lat="42.1376083" lon="12.1275267"><ele>399.0</ele><time>2026-05-03T09:56:49.992Z</time></trkpt><trkpt lat="42.13748" lon="12.1274783"><ele>397.0</ele><time>2026-05-03T09:56:50.99Z</time></trkpt><trkpt lat="42.1373483" lon="12.1274333"><ele>398.0</ele><time>2026-05-03T09:56:51.987Z</time></trkpt><trkpt lat="42.1372133" lon="12.1273883"><ele>399.0</ele><time>2026-05-03T09:56:52.986Z</time></trkpt><trkpt lat="42.137075" lon="12.127345"><ele>400.0</ele><time>2026-05-03T09:56:53.994Z</time></trkpt><trkpt lat="42.136935" lon="12.127295"><ele>401.0</ele><time>2026-05-03T09:56:54.987Z</time></trkpt><trkpt lat="42.1367967" lon="12.1272483"><ele>401.0</ele><time>2026-05-03T09:56:55.991Z</time></trkpt><trkpt lat="42.1366633" lon="12.1271983"><ele>401.0</ele><time>2026-05-03T09:56:56.991Z</time></trkpt><trkpt lat="42.13653" lon="12.12715"><ele>401.0</ele><time>2026-05-03T09:56:57.99Z</time></trkpt><trkpt lat="42.1364033" lon="12.12711"><ele>401.0</ele><time>2026-05-03T09:56:58.992Z</time></trkpt><trkpt lat="42.13628" lon="12.12707"><ele>399.25</ele><time>2026-05-03T09:56:59.987Z</time></trkpt><trkpt lat="42.1361567" lon="12.12703"><ele>397.5</ele><time>2026-05-03T09:57:00.988Z</time></trkpt><trkpt lat="42.1360383" lon="12.1269867"><ele>395.75</ele><time>2026-05-03T09:57:01.988Z</time></trkpt><trkpt lat="42.13592" lon="12.1269467"><ele>394.0</ele><time>2026-05-03T09:57:02.991Z</time></trkpt><trkpt lat="42.1357967" lon="12.1269033"><ele>392.25</ele><time>2026-05-03T09:57:03.993Z</time></trkpt><trkpt lat="42.1356767" lon="12.1268533"><ele>390.5</ele><time>2026-05-03T09:57:04.986Z</time></trkpt><trkpt lat="42.13556" lon="12.1268217"><ele>388.75</ele><time>2026-05-03T09:57:05.987Z</time></trkpt><trkpt lat="42.1354483" lon="12.1267917"><ele>387.0</ele><time>2026-05-03T09:57:06.994Z</time></trkpt><trkpt lat="42.13534" lon="12.1267617"><ele>387.0</ele><time>2026-05-03T09:57:07.988Z</time></trkpt><trkpt lat="42.1352317" lon="12.12673"><ele>387.0</ele><time>2026-05-03T09:57:08.992Z</time></trkpt><trkpt lat="42.1351267" lon="12.126695"><ele>387.0</ele><time>2026-05-03T09:57:09.983Z</time></trkpt><trkpt lat="42.13502" lon="12.1266617"><ele>387.0</ele><time>2026-05-03T09:57:10.996Z</time></trkpt><trkpt lat="42.1349133" lon="12.12663"><ele>387.0</ele><time>2026-05-03T09:57:11.988Z</time></trkpt><trkpt lat="42.134805" lon="12.1265967"><ele>384.5</ele><time>2026-05-03T09:57:12.989Z</time></trkpt><trkpt lat="42.134695" lon="12.1265583"><ele>382.0</ele><time>2026-05-03T09:57:13.987Z</time></trkpt><trkpt lat="42.1345833" lon="12.12652"><ele>379.5</ele><time>2026-05-03T09:57:14.989Z</time></trkpt><trkpt lat="42.1344717" lon="12.1264867"><ele>377.0</ele><time>2026-05-03T09:57:15.991Z</time></trkpt><trkpt lat="42.13436" lon="12.1264567"><ele>377.0</ele><time>2026-05-03T09:57:16.991Z</time></trkpt><trkpt lat="42.13425" lon="12.12642"><ele>377.0</ele><time>2026-05-03T09:57:17.993Z</time></trkpt><trkpt lat="42.13414" lon="12.1263867"><ele>377.0</ele><time>2026-05-03T09:57:18.985Z</time></trkpt><trkpt lat="42.13403" lon="12.126365"><ele>377.0</ele><time>2026-05-03T09:57:19.99Z</time></trkpt><trkpt lat="42.133925" lon="12.12635"><ele>377.0</ele><time>2026-05-03T09:57:20.988Z</time></trkpt><trkpt lat="42.1338233" lon="12.1263433"><ele>376.40000000000003</ele><time>2026-05-03T09:57:21.99Z</time></trkpt><trkpt lat="42.1337267" lon="12.1263417"><ele>375.8</ele><time>2026-05-03T09:57:22.991Z</time></trkpt><trkpt lat="42.133635" lon="12.1263467"><ele>375.2</ele><time>2026-05-03T09:57:23.991Z</time></trkpt><trkpt lat="42.13354" lon="12.1263567"><ele>374.6</ele><time>2026-05-03T09:57:24.995Z</time></trkpt><trkpt lat="42.1334467" lon="12.1263683"><ele>374.0</ele><time>2026-05-03T09:57:25.99Z</time></trkpt><trkpt lat="42.1333567" lon="12.1263883"><ele>374.0</ele><time>2026-05-03T09:57:26.994Z</time></trkpt><trkpt lat="42.1332683" lon="12.1264033"><ele>374.0</ele><time>2026-05-03T09:57:27.986Z</time></trkpt><trkpt lat="42.133175" lon="12.126415"><ele>374.0</ele><time>2026-05-03T09:57:28.993Z</time></trkpt><trkpt lat="42.1330667" lon="12.126425"><ele>374.0</ele><time>2026-05-03T09:57:29.984Z</time></trkpt><trkpt lat="42.1329667" lon="12.1264333"><ele>374.0</ele><time>2026-05-03T09:57:30.987Z</time></trkpt><trkpt lat="42.13288" lon="12.1264333"><ele>373.2857142857143</ele><time>2026-05-03T09:57:31.986Z</time></trkpt><trkpt lat="42.1328033" lon="12.1264367"><ele>372.5714285714286</ele><time>2026-05-03T09:57:32.988Z</time></trkpt><trkpt lat="42.1327333" lon="12.1264433"><ele>371.8571428571429</ele><time>2026-05-03T09:57:33.992Z</time></trkpt><trkpt lat="42.1326617" lon="12.12645"><ele>371.1428571428571</ele><time>2026-05-03T09:57:34.987Z</time></trkpt><trkpt lat="42.1325917" lon="12.126455"><ele>370.42857142857144</ele><time>2026-05-03T09:57:35.986Z</time></trkpt><trkpt lat="42.1325233" lon="12.1264517"><ele>369.7142857142857</ele><time>2026-05-03T09:57:36.991Z</time></trkpt><trkpt lat="42.1324583" lon="12.1264567"><ele>369.0</ele><time>2026-05-03T09:57:37.989Z</time></trkpt><trkpt lat="42.1323433" lon="12.1264733"><ele>368.8333333333333</ele><time>2026-05-03T09:57:39.994Z</time></trkpt><trkpt lat="42.1322517" lon="12.1264867"><ele>368.6666666666667</ele><time>2026-05-03T09:57:41.987Z</time></trkpt><trkpt lat="42.1321767" lon="12.126495"><ele>368.5</ele><time>2026-05-03T09:57:44.988Z</time></trkpt><trkpt lat="42.13206" lon="12.1265117"><ele>368.33333333333337</ele><time>2026-05-03T09:58:16.988Z</time></trkpt><trkpt lat="42.1319933" lon="12.1265233"><ele>368.1666666666667</ele><time>2026-05-03T09:58:17.986Z</time></trkpt><trkpt lat="42.1319067" lon="12.1265383"><ele>368.0</ele><time>2026-05-03T09:58:18.995Z</time></trkpt><trkpt lat="42.1318133" lon="12.1265483"><ele>368.0</ele><time>2026-05-03T09:58:19.989Z</time></trkpt><trkpt lat="42.1317267" lon="12.1265567"><ele>368.0</ele><time>2026-05-03T09:58:20.989Z</time></trkpt><trkpt lat="42.1316233" lon="12.12656"><ele>368.0</ele><time>2026-05-03T09:58:21.986Z</time></trkpt><trkpt lat="42.13151" lon="12.12657"><ele>368.0</ele><time>2026-05-03T09:58:22.992Z</time></trkpt><trkpt lat="42.1313833" lon="12.1265833"><ele>368.0</ele><time>2026-05-03T09:58:23.987Z</time></trkpt><trkpt lat="42.1312683" lon="12.12659"><ele>367.25</ele><time>2026-05-03T09:58:24.987Z</time></trkpt><trkpt lat="42.131145" lon="12.1266"><ele>366.5</ele><time>2026-05-03T09:58:25.991Z</time></trkpt><trkpt lat="42.1310117" lon="12.126615"><ele>365.75</ele><time>2026-05-03T09:58:26.991Z</time></trkpt><trkpt lat="42.1308667" lon="12.1266333"><ele>365.0</ele><time>2026-05-03T09:58:27.991Z</time></trkpt><trkpt lat="42.1307267" lon="12.1266533"><ele>364.5</ele><time>2026-05-03T09:58:28.986Z</time></trkpt><trkpt lat="42.1305833" lon="12.12667"><ele>364.0</ele><time>2026-05-03T09:58:29.987Z</time></trkpt><trkpt lat="42.1304417" lon="12.12669"><ele>363.5</ele><time>2026-05-03T09:58:30.986Z</time></trkpt><trkpt lat="42.1303" lon="12.1267083"><ele>363.0</ele><time>2026-05-03T09:58:31.986Z</time></trkpt><trkpt lat="42.1301583" lon="12.1267233"><ele>363.0</ele><time>2026-05-03T09:58:32.983Z</time></trkpt><trkpt lat="42.13002" lon="12.1267317"><ele>363.0</ele><time>2026-05-03T09:58:33.986Z</time></trkpt><trkpt lat="42.12988" lon="12.1267233"><ele>363.0</ele><time>2026-05-03T09:58:34.982Z</time></trkpt><trkpt lat="42.129755" lon="12.1267133"><ele>363.0</ele><time>2026-05-03T09:58:35.985Z</time></trkpt><trkpt lat="42.1296417" lon="12.1266967"><ele>362.4</ele><time>2026-05-03T09:58:36.99Z</time></trkpt><trkpt lat="42.1295367" lon="12.126675"><ele>361.79999999999995</ele><time>2026-05-03T09:58:37.987Z</time></trkpt><trkpt lat="42.1294433" lon="12.1266517"><ele>361.2</ele><time>2026-05-03T09:58:38.989Z</time></trkpt><trkpt lat="42.129345" lon="12.1266267"><ele>360.6</ele><time>2026-05-03T09:58:39.99Z</time></trkpt><trkpt lat="42.1292583" lon="12.1266"><ele>360.0</ele><time>2026-05-03T09:58:40.989Z</time></trkpt><trkpt lat="42.1291767" lon="12.1265717"><ele>359.4</ele><time>2026-05-03T09:58:41.987Z</time></trkpt><trkpt lat="42.1290967" lon="12.1265467"><ele>358.8</ele><time>2026-05-03T09:58:42.989Z</time></trkpt><trkpt lat="42.129005" lon="12.12652"><ele>358.20000000000005</ele><time>2026-05-03T09:58:43.984Z</time></trkpt><trkpt lat="42.1288983" lon="12.1264867"><ele>357.6</ele><time>2026-05-03T09:58:44.992Z</time></trkpt><trkpt lat="42.1288" lon="12.126455"><ele>357.0</ele><time>2026-05-03T09:58:45.985Z</time></trkpt><trkpt lat="42.1287033" lon="12.1264233"><ele>356.8</ele><time>2026-05-03T09:58:46.988Z</time></trkpt><trkpt lat="42.12861" lon="12.1263967"><ele>356.6</ele><time>2026-05-03T09:58:47.992Z</time></trkpt><trkpt lat="42.128515" lon="12.1263633"><ele>356.40000000000003</ele><time>2026-05-03T09:58:48.987Z</time></trkpt><trkpt lat="42.128425" lon="12.1263383"><ele>356.20000000000005</ele><time>2026-05-03T09:58:49.991Z</time></trkpt><trkpt lat="42.1283367" lon="12.12631"><ele>356.0</ele><time>2026-05-03T09:58:50.993Z</time></trkpt><trkpt lat="42.12824" lon="12.126275"><ele>355.6</ele><time>2026-05-03T09:58:51.985Z</time></trkpt><trkpt lat="42.1281433" lon="12.1262317"><ele>355.20000000000005</ele><time>2026-05-03T09:58:52.998Z</time></trkpt><trkpt lat="42.12805" lon="12.126175"><ele>354.79999999999995</ele><time>2026-05-03T09:58:53.992Z</time></trkpt><trkpt lat="42.127975" lon="12.12612"><ele>354.4</ele><time>2026-05-03T09:58:54.993Z</time></trkpt><trkpt lat="42.1279033" lon="12.1260583"><ele>354.0</ele><time>2026-05-03T09:58:55.989Z</time></trkpt><trkpt lat="42.1278367" lon="12.1259983"><ele>354.0</ele><time>2026-05-03T09:58:56.991Z</time></trkpt><trkpt lat="42.12778" lon="12.1259433"><ele>354.0</ele><time>2026-05-03T09:58:57.992Z</time></trkpt><trkpt lat="42.1277" lon="12.1258533"><ele>354.0</ele><time>2026-05-03T09:58:59.996Z</time></trkpt><trkpt lat="42.1275967" lon="12.12576"><ele>354.0</ele><time>2026-05-03T09:59:01.991Z</time></trkpt><trkpt lat="42.1275367" lon="12.1257"><ele>354.0</ele><time>2026-05-03T09:59:02.989Z</time></trkpt><trkpt lat="42.1274683" lon="12.125625"><ele>354.2</ele><time>2026-05-03T09:59:03.991Z</time></trkpt><trkpt lat="42.1273883" lon="12.125545"><ele>354.4</ele><time>2026-05-03T09:59:04.993Z</time></trkpt><trkpt lat="42.1273033" lon="12.125455"><ele>354.6</ele><time>2026-05-03T09:59:05.987Z</time></trkpt><trkpt lat="42.1272133" lon="12.1253583"><ele>354.8</ele><time>2026-05-03T09:59:06.985Z</time></trkpt><trkpt lat="42.127115" lon="12.12526"><ele>355.0</ele><time>2026-05-03T09:59:07.988Z</time></trkpt><trkpt lat="42.12701" lon="12.1251533"><ele>355.0</ele><time>2026-05-03T09:59:08.99Z</time></trkpt><trkpt lat="42.1269017" lon="12.1250383"><ele>355.0</ele><time>2026-05-03T09:59:09.994Z</time></trkpt><trkpt lat="42.1267917" lon="12.124925"><ele>355.0</ele><time>2026-05-03T09:59:10.991Z</time></trkpt><trkpt lat="42.1266833" lon="12.124815"><ele>355.0</ele><time>2026-05-03T09:59:11.991Z</time></trkpt><trkpt lat="42.1265833" lon="12.1247133"><ele>355.0</ele><time>2026-05-03T09:59:12.987Z</time></trkpt><trkpt lat="42.1264917" lon="12.1246167"><ele>355.0</ele><time>2026-05-03T09:59:13.988Z</time></trkpt><trkpt lat="42.1264083" lon="12.1245283"><ele>355.0</ele><time>2026-05-03T09:59:14.99Z</time></trkpt><trkpt lat="42.126325" lon="12.1244417"><ele>355.0</ele><time>2026-05-03T09:59:15.993Z</time></trkpt><trkpt lat="42.12624" lon="12.1243533"><ele>355.0</ele><time>2026-05-03T09:59:16.993Z</time></trkpt><trkpt lat="42.126145" lon="12.1242583"><ele>355.0</ele><time>2026-05-03T09:59:17.988Z</time></trkpt><trkpt lat="42.126045" lon="12.1241633"><ele>355.0</ele><time>2026-05-03T09:59:18.996Z</time></trkpt><trkpt lat="42.1259367" lon="12.1240683"><ele>355.0</ele><time>2026-05-03T09:59:19.987Z</time></trkpt><trkpt lat="42.1258233" lon="12.12397"><ele>355.0</ele><time>2026-05-03T09:59:20.994Z</time></trkpt><trkpt lat="42.1257117" lon="12.1238767"><ele>355.0</ele><time>2026-05-03T09:59:21.982Z</time></trkpt><trkpt lat="42.1255983" lon="12.12379"><ele>355.0</ele><time>2026-05-03T09:59:22.99Z</time></trkpt><trkpt lat="42.1254867" lon="12.1237083"><ele>355.0</ele><time>2026-05-03T09:59:23.986Z</time></trkpt><trkpt lat="42.125375" lon="12.1236283"><ele>355.0</ele><time>2026-05-03T09:59:24.99Z</time></trkpt><trkpt lat="42.125265" lon="12.1235533"><ele>355.0</ele><time>2026-05-03T09:59:25.997Z</time></trkpt><trkpt lat="42.1251583" lon="12.1234767"><ele>355.0</ele><time>2026-05-03T09:59:26.99Z</time></trkpt><trkpt lat="42.1250517" lon="12.1234033"><ele>355.0</ele><time>2026-05-03T09:59:27.993Z</time></trkpt><trkpt lat="42.1249467" lon="12.1233317"><ele>355.0</ele><time>2026-05-03T09:59:28.988Z</time></trkpt><trkpt lat="42.12484" lon="12.1232617"><ele>356.25</ele><time>2026-05-03T09:59:29.987Z</time></trkpt><trkpt lat="42.1247317" lon="12.1231933"><ele>357.5</ele><time>2026-05-03T09:59:30.989Z</time></trkpt><trkpt lat="42.1246217" lon="12.1231283"><ele>358.75</ele><time>2026-05-03T09:59:31.992Z</time></trkpt><trkpt lat="42.1245083" lon="12.1230683"><ele>360.0</ele><time>2026-05-03T09:59:32.995Z</time></trkpt><trkpt lat="42.1243933" lon="12.123015"><ele>360.0</ele><time>2026-05-03T09:59:33.992Z</time></trkpt><trkpt lat="42.1242733" lon="12.1229833"><ele>360.0</ele><time>2026-05-03T09:59:34.995Z</time></trkpt><trkpt lat="42.1241533" lon="12.1229583"><ele>360.0</ele><time>2026-05-03T09:59:35.995Z</time></trkpt><trkpt lat="42.124035" lon="12.1229333"><ele>360.0</ele><time>2026-05-03T09:59:36.998Z</time></trkpt><trkpt lat="42.1239117" lon="12.12292"><ele>362.0</ele><time>2026-05-03T09:59:37.991Z</time></trkpt><trkpt lat="42.123785" lon="12.1229167"><ele>364.0</ele><time>2026-05-03T09:59:38.991Z</time></trkpt><trkpt lat="42.123655" lon="12.1229283"><ele>366.0</ele><time>2026-05-03T09:59:39.994Z</time></trkpt><trkpt lat="42.123525" lon="12.12295"><ele>368.0</ele><time>2026-05-03T09:59:40.993Z</time></trkpt><trkpt lat="42.1233983" lon="12.1229833"><ele>368.0</ele><time>2026-05-03T09:59:41.99Z</time></trkpt><trkpt lat="42.123275" lon="12.1230333"><ele>368.0</ele><time>2026-05-03T09:59:42.99Z</time></trkpt><trkpt lat="42.1231583" lon="12.12309"><ele>368.0</ele><time>2026-05-03T09:59:43.993Z</time></trkpt><trkpt lat="42.1230467" lon="12.1231633"><ele>368.0</ele><time>2026-05-03T09:59:44.991Z</time></trkpt><trkpt lat="42.1229333" lon="12.123255"><ele>368.5</ele><time>2026-05-03T09:59:45.99Z</time></trkpt><trkpt lat="42.1228167" lon="12.12336"><ele>369.0</ele><time>2026-05-03T09:59:46.991Z</time></trkpt><trkpt lat="42.12271" lon="12.1234733"><ele>369.5</ele><time>2026-05-03T09:59:47.985Z</time></trkpt><trkpt lat="42.1226017" lon="12.12359"><ele>370.0</ele><time>2026-05-03T09:59:48.991Z</time></trkpt><trkpt lat="42.1224983" lon="12.123715"><ele>369.5</ele><time>2026-05-03T09:59:49.991Z</time></trkpt><trkpt lat="42.122395" lon="12.1238417"><ele>369.0</ele><time>2026-05-03T09:59:50.991Z</time></trkpt><trkpt lat="42.1222933" lon="12.123975"><ele>368.5</ele><time>2026-05-03T09:59:51.984Z</time></trkpt><trkpt lat="42.1221917" lon="12.1241067"><ele>368.0</ele><time>2026-05-03T09:59:52.99Z</time></trkpt><trkpt lat="42.1220967" lon="12.1242333"><ele>368.0</ele><time>2026-05-03T09:59:53.983Z</time></trkpt><trkpt lat="42.122" lon="12.124355"><ele>368.0</ele><time>2026-05-03T09:59:54.99Z</time></trkpt><trkpt lat="42.121905" lon="12.124475"><ele>368.0</ele><time>2026-05-03T09:59:55.992Z</time></trkpt><trkpt lat="42.1218133" lon="12.1246"><ele>368.0</ele><time>2026-05-03T09:59:56.994Z</time></trkpt><trkpt lat="42.1217233" lon="12.124725"><ele>368.0</ele><time>2026-05-03T09:59:57.995Z</time></trkpt><trkpt lat="42.1216333" lon="12.1248517"><ele>368.0</ele><time>2026-05-03T09:59:58.982Z</time></trkpt><trkpt lat="42.12154" lon="12.1249767"><ele>368.0</ele><time>2026-05-03T09:59:59.989Z</time></trkpt><trkpt lat="42.12145" lon="12.1250967"><ele>368.0</ele><time>2026-05-03T10:00:00.984Z</time></trkpt><trkpt lat="42.1213667" lon="12.1252167"><ele>367.2</ele><time>2026-05-03T10:00:01.991Z</time></trkpt><trkpt lat="42.1212817" lon="12.125325"><ele>366.4</ele><time>2026-05-03T10:00:02.988Z</time></trkpt><trkpt lat="42.1212033" lon="12.1254233"><ele>365.59999999999997</ele><time>2026-05-03T10:00:03.992Z</time></trkpt><trkpt lat="42.1211267" lon="12.12552"><ele>364.79999999999995</ele><time>2026-05-03T10:00:04.993Z</time></trkpt><trkpt lat="42.121045" lon="12.1256"><ele>364.0</ele><time>2026-05-03T10:00:05.982Z</time></trkpt><trkpt lat="42.120985" lon="12.1256417"><ele>364.0</ele><time>2026-05-03T10:00:06.987Z</time></trkpt><trkpt lat="42.120925" lon="12.1256983"><ele>364.0</ele><time>2026-05-03T10:00:08.992Z</time></trkpt><trkpt lat="42.120875" lon="12.1257517"><ele>364.0</ele><time>2026-05-03T10:00:13.992Z</time></trkpt><trkpt lat="42.1208167" lon="12.1257967"><ele>364.0</ele><time>2026-05-03T10:00:15.985Z</time></trkpt><trkpt lat="42.1207133" lon="12.1258467"><ele>364.0</ele><time>2026-05-03T10:00:17.984Z</time></trkpt><trkpt lat="42.1206433" lon="12.1258717"><ele>364.0</ele><time>2026-05-03T10:00:18.989Z</time></trkpt><trkpt lat="42.1205617" lon="12.125895"><ele>362.3333333333333</ele><time>2026-05-03T10:00:19.988Z</time></trkpt><trkpt lat="42.12048" lon="12.125915"><ele>360.66666666666663</ele><time>2026-05-03T10:00:20.988Z</time></trkpt><trkpt lat="42.1203983" lon="12.12593"><ele>359.0</ele><time>2026-05-03T10:00:21.987Z</time></trkpt><trkpt lat="42.1203133" lon="12.125935"><ele>357.3333333333333</ele><time>2026-05-03T10:00:22.993Z</time></trkpt><trkpt lat="42.1202283" lon="12.1259383"><ele>355.6666666666667</ele><time>2026-05-03T10:00:23.984Z</time></trkpt><trkpt lat="42.1201417" lon="12.1259367"><ele>354.0</ele><time>2026-05-03T10:00:24.989Z</time></trkpt><trkpt lat="42.1200517" lon="12.1259317"><ele>354.0</ele><time>2026-05-03T10:00:25.994Z</time></trkpt><trkpt lat="42.1199583" lon="12.1259217"><ele>354.0</ele><time>2026-05-03T10:00:26.992Z</time></trkpt><trkpt lat="42.1198617" lon="12.1259067"><ele>354.0</ele><time>2026-05-03T10:00:27.985Z</time></trkpt><trkpt lat="42.1197683" lon="12.1258867"><ele>354.0</ele><time>2026-05-03T10:00:28.988Z</time></trkpt><trkpt lat="42.1196783" lon="12.125865"><ele>354.0</ele><time>2026-05-03T10:00:29.99Z</time></trkpt><trkpt lat="42.1195883" lon="12.1258467"><ele>353.1666666666667</ele><time>2026-05-03T10:00:30.986Z</time></trkpt><trkpt lat="42.1195067" lon="12.12583"><ele>352.3333333333333</ele><time>2026-05-03T10:00:31.991Z</time></trkpt><trkpt lat="42.119435" lon="12.1258133"><ele>351.5</ele><time>2026-05-03T10:00:32.987Z</time></trkpt><trkpt lat="42.11935" lon="12.125795"><ele>350.66666666666663</ele><time>2026-05-03T10:00:34.989Z</time></trkpt><trkpt lat="42.119275" lon="12.125775"><ele>349.8333333333333</ele><time>2026-05-03T10:00:38.993Z</time></trkpt><trkpt lat="42.1191767" lon="12.125745"><ele>349.0</ele><time>2026-05-03T10:00:40.985Z</time></trkpt><trkpt lat="42.11911" lon="12.12573"><ele>349.79999999999995</ele><time>2026-05-03T10:00:41.989Z</time></trkpt><trkpt lat="42.11903" lon="12.1257083"><ele>350.59999999999997</ele><time>2026-05-03T10:00:42.991Z</time></trkpt><trkpt lat="42.11894" lon="12.1256817"><ele>351.4</ele><time>2026-05-03T10:00:43.988Z</time></trkpt><trkpt lat="42.1188417" lon="12.1256517"><ele>352.2</ele><time>2026-05-03T10:00:44.996Z</time></trkpt><trkpt lat="42.118735" lon="12.1256217"><ele>353.0</ele><time>2026-05-03T10:00:45.983Z</time></trkpt><trkpt lat="42.1186233" lon="12.12559"><ele>353.0</ele><time>2026-05-03T10:00:46.991Z</time></trkpt><trkpt lat="42.1185133" lon="12.1255583"><ele>353.0</ele><time>2026-05-03T10:00:47.988Z</time></trkpt><trkpt lat="42.1183933" lon="12.1255317"><ele>353.0</ele><time>2026-05-03T10:00:48.987Z</time></trkpt><trkpt lat="42.118265" lon="12.1254967"><ele>353.0</ele><time>2026-05-03T10:00:49.991Z</time></trkpt><trkpt lat="42.11813" lon="12.1254633"><ele>351.75</ele><time>2026-05-03T10:00:50.99Z</time></trkpt><trkpt lat="42.1179967" lon="12.12543"><ele>350.5</ele><time>2026-05-03T10:00:51.988Z</time></trkpt><trkpt lat="42.11786" lon="12.1254"><ele>349.25</ele><time>2026-05-03T10:00:52.985Z</time></trkpt><trkpt lat="42.1177233" lon="12.1253683"><ele>348.0</ele><time>2026-05-03T10:00:53.986Z</time></trkpt><trkpt lat="42.1175833" lon="12.1253317"><ele>348.0</ele><time>2026-05-03T10:00:54.99Z</time></trkpt><trkpt lat="42.117445" lon="12.1252883"><ele>348.0</ele><time>2026-05-03T10:00:55.991Z</time></trkpt><trkpt lat="42.117305" lon="12.12525"><ele>348.0</ele><time>2026-05-03T10:00:56.986Z</time></trkpt><trkpt lat="42.1171667" lon="12.1252117"><ele>348.0</ele><time>2026-05-03T10:00:57.991Z</time></trkpt><trkpt lat="42.1170283" lon="12.12517"><ele>345.5</ele><time>2026-05-03T10:00:58.984Z</time></trkpt><trkpt lat="42.1168933" lon="12.1251333"><ele>343.0</ele><time>2026-05-03T10:00:59.984Z</time></trkpt><trkpt lat="42.1167667" lon="12.1250983"><ele>340.5</ele><time>2026-05-03T10:01:00.994Z</time></trkpt><trkpt lat="42.11664" lon="12.1250617"><ele>338.0</ele><time>2026-05-03T10:01:01.986Z</time></trkpt><trkpt lat="42.1165133" lon="12.1250267"><ele>337.0</ele><time>2026-05-03T10:01:02.982Z</time></trkpt><trkpt lat="42.116385" lon="12.12499"><ele>336.0</ele><time>2026-05-03T10:01:03.987Z</time></trkpt><trkpt lat="42.116255" lon="12.1249517"><ele>335.0</ele><time>2026-05-03T10:01:04.991Z</time></trkpt><trkpt lat="42.1161183" lon="12.1249117"><ele>334.0</ele><time>2026-05-03T10:01:05.994Z</time></trkpt><trkpt lat="42.1159783" lon="12.1248683"><ele>333.5</ele><time>2026-05-03T10:01:06.987Z</time></trkpt><trkpt lat="42.1158367" lon="12.124825"><ele>333.0</ele><time>2026-05-03T10:01:07.992Z</time></trkpt><trkpt lat="42.1156967" lon="12.1247817"><ele>332.5</ele><time>2026-05-03T10:01:08.992Z</time></trkpt><trkpt lat="42.1155617" lon="12.12474"><ele>332.0</ele><time>2026-05-03T10:01:09.989Z</time></trkpt><trkpt lat="42.11543" lon="12.1246983"><ele>332.25</ele><time>2026-05-03T10:01:10.989Z</time></trkpt><trkpt lat="42.1152967" lon="12.124655"><ele>332.5</ele><time>2026-05-03T10:01:11.985Z</time></trkpt><trkpt lat="42.11516" lon="12.124615"><ele>332.75</ele><time>2026-05-03T10:01:12.992Z</time></trkpt><trkpt lat="42.1150267" lon="12.124575"><ele>333.0</ele><time>2026-05-03T10:01:13.992Z</time></trkpt><trkpt lat="42.1148917" lon="12.1245367"><ele>333.0</ele><time>2026-05-03T10:01:14.985Z</time></trkpt><trkpt lat="42.1147583" lon="12.1245017"><ele>333.0</ele><time>2026-05-03T10:01:15.984Z</time></trkpt><trkpt lat="42.1146217" lon="12.1244733"><ele>333.0</ele><time>2026-05-03T10:01:16.989Z</time></trkpt><trkpt lat="42.114485" lon="12.124455"><ele>333.0</ele><time>2026-05-03T10:01:17.991Z</time></trkpt><trkpt lat="42.1143433" lon="12.12445"><ele>333.0</ele><time>2026-05-03T10:01:18.986Z</time></trkpt><trkpt lat="42.1142017" lon="12.1244617"><ele>333.0</ele><time>2026-05-03T10:01:19.988Z</time></trkpt><trkpt lat="42.1140617" lon="12.1244833"><ele>333.0</ele><time>2026-05-03T10:01:20.992Z</time></trkpt><trkpt lat="42.1139217" lon="12.124515"><ele>333.0</ele><time>2026-05-03T10:01:21.985Z</time></trkpt><trkpt lat="42.1137883" lon="12.1245567"><ele>332.75</ele><time>2026-05-03T10:01:22.987Z</time></trkpt><trkpt lat="42.1136583" lon="12.124585"><ele>332.5</ele><time>2026-05-03T10:01:23.993Z</time></trkpt><trkpt lat="42.113535" lon="12.1245883"><ele>332.25</ele><time>2026-05-03T10:01:24.985Z</time></trkpt><trkpt lat="42.11342" lon="12.124565"><ele>332.0</ele><time>2026-05-03T10:01:25.988Z</time></trkpt><trkpt lat="42.1133083" lon="12.1245233"><ele>333.0</ele><time>2026-05-03T10:01:26.987Z</time></trkpt><trkpt lat="42.113195" lon="12.124455"><ele>334.0</ele><time>2026-05-03T10:01:27.991Z</time></trkpt><trkpt lat="42.1130783" lon="12.1243667"><ele>335.0</ele><time>2026-05-03T10:01:28.986Z</time></trkpt><trkpt lat="42.1129583" lon="12.1242733"><ele>336.0</ele><time>2026-05-03T10:01:29.991Z</time></trkpt><trkpt lat="42.1128317" lon="12.1241717"><ele>336.0</ele><time>2026-05-03T10:01:30.991Z</time></trkpt><trkpt lat="42.1127" lon="12.1240683"><ele>336.0</ele><time>2026-05-03T10:01:31.989Z</time></trkpt><trkpt lat="42.1125617" lon="12.1239667"><ele>336.0</ele><time>2026-05-03T10:01:32.994Z</time></trkpt><trkpt lat="42.1124183" lon="12.123855"><ele>337.3333333333333</ele><time>2026-05-03T10:01:33.984Z</time></trkpt><trkpt lat="42.1122717" lon="12.12374"><ele>338.66666666666663</ele><time>2026-05-03T10:01:34.989Z</time></trkpt><trkpt lat="42.112115" lon="12.1236217"><ele>340.0</ele><time>2026-05-03T10:01:35.991Z</time></trkpt><trkpt lat="42.11196" lon="12.1235083"><ele>340.0</ele><time>2026-05-03T10:01:36.99Z</time></trkpt><trkpt lat="42.1117967" lon="12.1233917"><ele>340.0</ele><time>2026-05-03T10:01:37.992Z</time></trkpt><trkpt lat="42.1116283" lon="12.12327"><ele>340.0</ele><time>2026-05-03T10:01:38.992Z</time></trkpt><trkpt lat="42.111455" lon="12.1231433"><ele>343.3333333333333</ele><time>2026-05-03T10:01:39.995Z</time></trkpt><trkpt lat="42.1112767" lon="12.1230167"><ele>346.6666666666667</ele><time>2026-05-03T10:01:40.989Z</time></trkpt><trkpt lat="42.1110917" lon="12.1228867"><ele>350.0</ele><time>2026-05-03T10:01:41.993Z</time></trkpt><trkpt lat="42.1109067" lon="12.1227483"><ele>350.33333333333337</ele><time>2026-05-03T10:01:42.989Z</time></trkpt><trkpt lat="42.11072" lon="12.1226067"><ele>350.6666666666667</ele><time>2026-05-03T10:01:43.994Z</time></trkpt><trkpt lat="42.1105367" lon="12.1224633"><ele>351.0</ele><time>2026-05-03T10:01:44.988Z</time></trkpt><trkpt lat="42.1103533" lon="12.1223167"><ele>351.0</ele><time>2026-05-03T10:01:45.988Z</time></trkpt><trkpt lat="42.1101717" lon="12.12217"><ele>351.0</ele><time>2026-05-03T10:01:46.989Z</time></trkpt><trkpt lat="42.1099917" lon="12.12201"><ele>351.0</ele><time>2026-05-03T10:01:47.985Z</time></trkpt><trkpt lat="42.1098133" lon="12.1218467"><ele>350.3333333333333</ele><time>2026-05-03T10:01:48.994Z</time></trkpt><trkpt lat="42.1096383" lon="12.121705"><ele>349.66666666666663</ele><time>2026-05-03T10:01:49.993Z</time></trkpt><trkpt lat="42.109465" lon="12.1215583"><ele>349.0</ele><time>2026-05-03T10:01:50.991Z</time></trkpt><trkpt lat="42.1092883" lon="12.1214067"><ele>349.0</ele><time>2026-05-03T10:01:51.987Z</time></trkpt><trkpt lat="42.1091117" lon="12.1212483"><ele>349.0</ele><time>2026-05-03T10:01:52.985Z</time></trkpt><trkpt lat="42.1089367" lon="12.1210867"><ele>349.0</ele><time>2026-05-03T10:01:53.992Z</time></trkpt><trkpt lat="42.10876" lon="12.1209317"><ele>348.3333333333333</ele><time>2026-05-03T10:01:54.987Z</time></trkpt><trkpt lat="42.108575" lon="12.120795"><ele>347.6666666666667</ele><time>2026-05-03T10:01:55.989Z</time></trkpt><trkpt lat="42.108395" lon="12.120675"><ele>347.0</ele><time>2026-05-03T10:01:56.993Z</time></trkpt><trkpt lat="42.1082067" lon="12.1205767"><ele>344.6666666666667</ele><time>2026-05-03T10:01:57.986Z</time></trkpt><trkpt lat="42.108015" lon="12.120475"><ele>342.3333333333333</ele><time>2026-05-03T10:01:58.99Z</time></trkpt><trkpt lat="42.1078383" lon="12.1203583"><ele>340.0</ele><time>2026-05-03T10:01:59.986Z</time></trkpt><trkpt lat="42.1076733" lon="12.1202217"><ele>340.0</ele><time>2026-05-03T10:02:00.994Z</time></trkpt><trkpt lat="42.1075083" lon="12.1200667"><ele>340.0</ele><time>2026-05-03T10:02:01.989Z</time></trkpt><trkpt lat="42.10734" lon="12.1198983"><ele>340.0</ele><time>2026-05-03T10:02:02.988Z</time></trkpt><trkpt lat="42.1071717" lon="12.11972"><ele>339.0</ele><time>2026-05-03T10:02:03.988Z</time></trkpt><trkpt lat="42.1070017" lon="12.1195367"><ele>338.0</ele><time>2026-05-03T10:02:04.983Z</time></trkpt><trkpt lat="42.1068317" lon="12.1193517"><ele>337.0</ele><time>2026-05-03T10:02:05.988Z</time></trkpt><trkpt lat="42.1066617" lon="12.1191683"><ele>336.3333333333333</ele><time>2026-05-03T10:02:06.987Z</time></trkpt><trkpt lat="42.10649" lon="12.1189917"><ele>335.6666666666667</ele><time>2026-05-03T10:02:07.991Z</time></trkpt><trkpt lat="42.1063133" lon="12.118815"><ele>335.0</ele><time>2026-05-03T10:02:08.993Z</time></trkpt><trkpt lat="42.10615" lon="12.1186183"><ele>335.0</ele><time>2026-05-03T10:02:09.988Z</time></trkpt><trkpt lat="42.1059967" lon="12.118405"><ele>335.0</ele><time>2026-05-03T10:02:10.987Z</time></trkpt><trkpt lat="42.1058483" lon="12.1181783"><ele>335.0</ele><time>2026-05-03T10:02:11.988Z</time></trkpt><trkpt lat="42.1057033" lon="12.1179517"><ele>334.33333333333337</ele><time>2026-05-03T10:02:12.992Z</time></trkpt><trkpt lat="42.1055533" lon="12.1177233"><ele>333.6666666666667</ele><time>2026-05-03T10:02:13.996Z</time></trkpt><trkpt lat="42.1054083" lon="12.117495"><ele>333.0</ele><time>2026-05-03T10:02:14.988Z</time></trkpt><trkpt lat="42.1052633" lon="12.1172683"><ele>333.0</ele><time>2026-05-03T10:02:15.984Z</time></trkpt><trkpt lat="42.1051233" lon="12.1170517"><ele>333.0</ele><time>2026-05-03T10:02:16.988Z</time></trkpt><trkpt lat="42.1049933" lon="12.116845"><ele>333.0</ele><time>2026-05-03T10:02:17.987Z</time></trkpt><trkpt lat="42.1048517" lon="12.11665"><ele>331.0</ele><time>2026-05-03T10:02:18.99Z</time></trkpt><trkpt lat="42.1046917" lon="12.1164783"><ele>329.0</ele><time>2026-05-03T10:02:19.995Z</time></trkpt><trkpt lat="42.104515" lon="12.1163183"><ele>327.0</ele><time>2026-05-03T10:02:20.984Z</time></trkpt><trkpt lat="42.1043333" lon="12.1161533"><ele>327.0</ele><time>2026-05-03T10:02:21.992Z</time></trkpt><trkpt lat="42.1041467" lon="12.116"><ele>327.0</ele><time>2026-05-03T10:02:22.984Z</time></trkpt><trkpt lat="42.1039583" lon="12.1158567"><ele>327.0</ele><time>2026-05-03T10:02:23.986Z</time></trkpt><trkpt lat="42.1037833" lon="12.1157167"><ele>326.3333333333333</ele><time>2026-05-03T10:02:24.987Z</time></trkpt><trkpt lat="42.1036167" lon="12.1155783"><ele>325.66666666666663</ele><time>2026-05-03T10:02:25.992Z</time></trkpt><trkpt lat="42.103455" lon="12.1154483"><ele>325.0</ele><time>2026-05-03T10:02:26.991Z</time></trkpt><trkpt lat="42.1033" lon="12.1153167"><ele>322.0</ele><time>2026-05-03T10:02:27.984Z</time></trkpt><trkpt lat="42.1031583" lon="12.1151983"><ele>319.0</ele><time>2026-05-03T10:02:28.987Z</time></trkpt><trkpt lat="42.1030317" lon="12.1150933"><ele>316.0</ele><time>2026-05-03T10:02:29.988Z</time></trkpt><trkpt lat="42.102935" lon="12.1149883"><ele>313.0</ele><time>2026-05-03T10:02:30.991Z</time></trkpt><trkpt lat="42.10286" lon="12.1148567"><ele>313.0</ele><time>2026-05-03T10:02:31.992Z</time></trkpt><trkpt lat="42.1028033" lon="12.11471"><ele>313.0</ele><time>2026-05-03T10:02:32.992Z</time></trkpt><trkpt lat="42.1027817" lon="12.1145433"><ele>313.0</ele><time>2026-05-03T10:02:33.983Z</time></trkpt><trkpt lat="42.102785" lon="12.1143833"><ele>313.0</ele><time>2026-05-03T10:02:34.991Z</time></trkpt><trkpt lat="42.1028167" lon="12.1142283"><ele>314.75</ele><time>2026-05-03T10:02:35.995Z</time></trkpt><trkpt lat="42.1028617" lon="12.1140683"><ele>316.5</ele><time>2026-05-03T10:02:36.989Z</time></trkpt><trkpt lat="42.102905" lon="12.1139033"><ele>318.25</ele><time>2026-05-03T10:02:37.992Z</time></trkpt><trkpt lat="42.102935" lon="12.1137183"><ele>320.0</ele><time>2026-05-03T10:02:38.988Z</time></trkpt><trkpt lat="42.1029567" lon="12.1135217"><ele>320.0</ele><time>2026-05-03T10:02:39.986Z</time></trkpt><trkpt lat="42.10295" lon="12.1133217"><ele>320.0</ele><time>2026-05-03T10:02:40.996Z</time></trkpt><trkpt lat="42.1029133" lon="12.1131283"><ele>320.0</ele><time>2026-05-03T10:02:41.988Z</time></trkpt><trkpt lat="42.10286" lon="12.1129433"><ele>320.0</ele><time>2026-05-03T10:02:42.984Z</time></trkpt><trkpt lat="42.102795" lon="12.1127733"><ele>321.0</ele><time>2026-05-03T10:02:43.989Z</time></trkpt><trkpt lat="42.1027133" lon="12.1126117"><ele>322.0</ele><time>2026-05-03T10:02:44.981Z</time></trkpt><trkpt lat="42.1026133" lon="12.112455"><ele>323.0</ele><time>2026-05-03T10:02:45.986Z</time></trkpt><trkpt lat="42.1025167" lon="12.1123017"><ele>324.0</ele><time>2026-05-03T10:02:46.984Z</time></trkpt><trkpt lat="42.102425" lon="12.1121517"><ele>323.0</ele><time>2026-05-03T10:02:47.993Z</time></trkpt><trkpt lat="42.1023433" lon="12.111985"><ele>322.0</ele><time>2026-05-03T10:02:48.984Z</time></trkpt><trkpt lat="42.1022783" lon="12.1118067"><ele>321.0</ele><time>2026-05-03T10:02:49.989Z</time></trkpt><trkpt lat="42.1022233" lon="12.1116133"><ele>320.0</ele><time>2026-05-03T10:02:50.988Z</time></trkpt><trkpt lat="42.1021717" lon="12.111415"><ele>320.0</ele><time>2026-05-03T10:02:51.982Z</time></trkpt><trkpt lat="42.10212" lon="12.1112117"><ele>320.0</ele><time>2026-05-03T10:02:52.986Z</time></trkpt><trkpt lat="42.10207" lon="12.1110033"><ele>320.0</ele><time>2026-05-03T10:02:53.985Z</time></trkpt><trkpt lat="42.10202" lon="12.1107917"><ele>320.0</ele><time>2026-05-03T10:02:54.985Z</time></trkpt><trkpt lat="42.10197" lon="12.11059"><ele>320.0</ele><time>2026-05-03T10:02:55.986Z</time></trkpt><trkpt lat="42.10192" lon="12.1103883"><ele>320.0</ele><time>2026-05-03T10:02:56.991Z</time></trkpt><trkpt lat="42.1018733" lon="12.1101883"><ele>320.0</ele><time>2026-05-03T10:02:57.988Z</time></trkpt><trkpt lat="42.1018283" lon="12.1099883"><ele>320.0</ele><time>2026-05-03T10:02:58.99Z</time></trkpt><trkpt lat="42.10179" lon="12.1097833"><ele>320.0</ele><time>2026-05-03T10:02:59.988Z</time></trkpt><trkpt lat="42.1017517" lon="12.10957"><ele>320.0</ele><time>2026-05-03T10:03:00.988Z</time></trkpt><trkpt lat="42.1017167" lon="12.1093533"><ele>320.0</ele><time>2026-05-03T10:03:01.992Z</time></trkpt><trkpt lat="42.1016817" lon="12.1091233"><ele>320.0</ele><time>2026-05-03T10:03:02.995Z</time></trkpt><trkpt lat="42.101645" lon="12.1088917"><ele>319.6666666666667</ele><time>2026-05-03T10:03:03.988Z</time></trkpt><trkpt lat="42.1016067" lon="12.1086583"><ele>319.3333333333333</ele><time>2026-05-03T10:03:04.991Z</time></trkpt><trkpt lat="42.1015733" lon="12.10843"><ele>319.0</ele><time>2026-05-03T10:03:05.991Z</time></trkpt><trkpt lat="42.10154" lon="12.1082017"><ele>318.0</ele><time>2026-05-03T10:03:06.994Z</time></trkpt><trkpt lat="42.1015033" lon="12.1079817"><ele>317.0</ele><time>2026-05-03T10:03:07.992Z</time></trkpt><trkpt lat="42.1014667" lon="12.1077667"><ele>316.0</ele><time>2026-05-03T10:03:08.988Z</time></trkpt><trkpt lat="42.1014317" lon="12.1075517"><ele>314.66666666666663</ele><time>2026-05-03T10:03:09.997Z</time></trkpt><trkpt lat="42.1014" lon="12.10734"><ele>313.3333333333333</ele><time>2026-05-03T10:03:10.988Z</time></trkpt><trkpt lat="42.101365" lon="12.107135"><ele>312.0</ele><time>2026-05-03T10:03:11.988Z</time></trkpt><trkpt lat="42.1013117" lon="12.1069367"><ele>312.0</ele><time>2026-05-03T10:03:12.99Z</time></trkpt><trkpt lat="42.10124" lon="12.1067433"><ele>312.0</ele><time>2026-05-03T10:03:13.986Z</time></trkpt><trkpt lat="42.10115" lon="12.1065567"><ele>312.0</ele><time>2026-05-03T10:03:14.992Z</time></trkpt><trkpt lat="42.1010567" lon="12.10638"><ele>311.3333333333333</ele><time>2026-05-03T10:03:15.986Z</time></trkpt><trkpt lat="42.1009617" lon="12.1062133"><ele>310.66666666666663</ele><time>2026-05-03T10:03:16.985Z</time></trkpt><trkpt lat="42.1008683" lon="12.10605"><ele>310.0</ele><time>2026-05-03T10:03:17.989Z</time></trkpt><trkpt lat="42.1007817" lon="12.105895"><ele>309.5</ele><time>2026-05-03T10:03:18.989Z</time></trkpt><trkpt lat="42.1007" lon="12.1057467"><ele>309.0</ele><time>2026-05-03T10:03:19.987Z</time></trkpt><trkpt lat="42.1006167" lon="12.1056033"><ele>308.5</ele><time>2026-05-03T10:03:20.99Z</time></trkpt><trkpt lat="42.1005333" lon="12.1054583"><ele>308.0</ele><time>2026-05-03T10:03:21.99Z</time></trkpt><trkpt lat="42.1004483" lon="12.1053133"><ele>307.75</ele><time>2026-05-03T10:03:22.986Z</time></trkpt><trkpt lat="42.1003633" lon="12.1051667"><ele>307.5</ele><time>2026-05-03T10:03:23.996Z</time></trkpt><trkpt lat="42.100275" lon="12.10502"><ele>307.25</ele><time>2026-05-03T10:03:25.002Z</time></trkpt><trkpt lat="42.1001867" lon="12.1048717"><ele>307.0</ele><time>2026-05-03T10:03:25.996Z</time></trkpt><trkpt lat="42.1001017" lon="12.1047217"><ele>307.0</ele><time>2026-05-03T10:03:26.995Z</time></trkpt><trkpt lat="42.100015" lon="12.1045733"><ele>307.0</ele><time>2026-05-03T10:03:27.994Z</time></trkpt><trkpt lat="42.0999233" lon="12.1044183"><ele>307.0</ele><time>2026-05-03T10:03:28.991Z</time></trkpt><trkpt lat="42.099825" lon="12.10426"><ele>307.0</ele><time>2026-05-03T10:03:29.986Z</time></trkpt><trkpt lat="42.0997233" lon="12.1040933"><ele>306.3333333333333</ele><time>2026-05-03T10:03:30.991Z</time></trkpt><trkpt lat="42.0996233" lon="12.1039217"><ele>305.6666666666667</ele><time>2026-05-03T10:03:31.988Z</time></trkpt><trkpt lat="42.0995217" lon="12.1037483"><ele>305.0</ele><time>2026-05-03T10:03:32.988Z</time></trkpt><trkpt lat="42.0994167" lon="12.103565"><ele>305.0</ele><time>2026-05-03T10:03:33.993Z</time></trkpt><trkpt lat="42.0993083" lon="12.10338"><ele>305.0</ele><time>2026-05-03T10:03:34.991Z</time></trkpt><trkpt lat="42.0991967" lon="12.1031917"><ele>305.0</ele><time>2026-05-03T10:03:35.989Z</time></trkpt><trkpt lat="42.0990867" lon="12.103"><ele>305.0</ele><time>2026-05-03T10:03:36.987Z</time></trkpt><trkpt lat="42.0989767" lon="12.1028083"><ele>305.0</ele><time>2026-05-03T10:03:37.989Z</time></trkpt><trkpt lat="42.0988717" lon="12.1026267"><ele>305.0</ele><time>2026-05-03T10:03:38.991Z</time></trkpt><trkpt lat="42.098765" lon="12.1024483"><ele>304.0</ele><time>2026-05-03T10:03:39.989Z</time></trkpt><trkpt lat="42.09866" lon="12.10227"><ele>303.0</ele><time>2026-05-03T10:03:40.986Z</time></trkpt><trkpt lat="42.0985567" lon="12.10209"><ele>302.0</ele><time>2026-05-03T10:03:41.993Z</time></trkpt><trkpt lat="42.0984567" lon="12.101915"><ele>302.0</ele><time>2026-05-03T10:03:42.989Z</time></trkpt><trkpt lat="42.09836" lon="12.1017417"><ele>302.0</ele><time>2026-05-03T10:03:43.989Z</time></trkpt><trkpt lat="42.0982617" lon="12.1015717"><ele>302.0</ele><time>2026-05-03T10:03:44.987Z</time></trkpt><trkpt lat="42.0981617" lon="12.1013967"><ele>301.0</ele><time>2026-05-03T10:03:45.992Z</time></trkpt><trkpt lat="42.0980667" lon="12.1012233"><ele>300.0</ele><time>2026-05-03T10:03:46.986Z</time></trkpt><trkpt lat="42.0979783" lon="12.1010333"><ele>299.0</ele><time>2026-05-03T10:03:47.99Z</time></trkpt><trkpt lat="42.0979" lon="12.100835"><ele>298.6666666666667</ele><time>2026-05-03T10:03:48.987Z</time></trkpt><trkpt lat="42.0978267" lon="12.1006317"><ele>298.3333333333333</ele><time>2026-05-03T10:03:49.992Z</time></trkpt><trkpt lat="42.097755" lon="12.10042"><ele>298.0</ele><time>2026-05-03T10:03:50.991Z</time></trkpt><trkpt lat="42.0976833" lon="12.100205"><ele>298.0</ele><time>2026-05-03T10:03:51.995Z</time></trkpt><trkpt lat="42.0976183" lon="12.0999917"><ele>298.0</ele><time>2026-05-03T10:03:52.992Z</time></trkpt><trkpt lat="42.0975517" lon="12.0997867"><ele>298.0</ele><time>2026-05-03T10:03:53.992Z</time></trkpt><trkpt lat="42.0974833" lon="12.0995783"><ele>296.3333333333333</ele><time>2026-05-03T10:03:54.993Z</time></trkpt><trkpt lat="42.097415" lon="12.0993733"><ele>294.6666666666667</ele><time>2026-05-03T10:03:55.999Z</time></trkpt><trkpt lat="42.0973483" lon="12.099155"><ele>293.0</ele><time>2026-05-03T10:03:56.988Z</time></trkpt><trkpt lat="42.0972833" lon="12.0989283"><ele>292.0</ele><time>2026-05-03T10:03:57.988Z</time></trkpt><trkpt lat="42.0972117" lon="12.09869"><ele>291.0</ele><time>2026-05-03T10:03:58.985Z</time></trkpt><trkpt lat="42.0971367" lon="12.0984467"><ele>290.0</ele><time>2026-05-03T10:03:59.983Z</time></trkpt><trkpt lat="42.0970517" lon="12.0981983"><ele>289.33333333333337</ele><time>2026-05-03T10:04:00.988Z</time></trkpt><trkpt lat="42.096965" lon="12.09794"><ele>288.6666666666667</ele><time>2026-05-03T10:04:01.99Z</time></trkpt><trkpt lat="42.0968783" lon="12.0976633"><ele>288.0</ele><time>2026-05-03T10:04:02.988Z</time></trkpt><trkpt lat="42.0967917" lon="12.0973783"><ele>287.0</ele><time>2026-05-03T10:04:03.987Z</time></trkpt><trkpt lat="42.09671" lon="12.0971067"><ele>286.0</ele><time>2026-05-03T10:04:04.992Z</time></trkpt><trkpt lat="42.0966367" lon="12.09684"><ele>285.0</ele><time>2026-05-03T10:04:05.999Z</time></trkpt><trkpt lat="42.0965617" lon="12.0965817"><ele>283.0</ele><time>2026-05-03T10:04:06.996Z</time></trkpt><trkpt lat="42.0964883" lon="12.096335"><ele>281.0</ele><time>2026-05-03T10:04:07.989Z</time></trkpt><trkpt lat="42.0964217" lon="12.0961"><ele>279.0</ele><time>2026-05-03T10:04:08.983Z</time></trkpt><trkpt lat="42.096355" lon="12.095875"><ele>278.3333333333333</ele><time>2026-05-03T10:04:09.987Z</time></trkpt><trkpt lat="42.0962917" lon="12.0956583"><ele>277.66666666666663</ele><time>2026-05-03T10:04:10.988Z</time></trkpt><trkpt lat="42.0962267" lon="12.0954467"><ele>277.0</ele><time>2026-05-03T10:04:11.987Z</time></trkpt><trkpt lat="42.0961533" lon="12.09524"><ele>277.0</ele><time>2026-05-03T10:04:12.993Z</time></trkpt><trkpt lat="42.096065" lon="12.09505"><ele>277.0</ele><time>2026-05-03T10:04:13.997Z</time></trkpt><trkpt lat="42.0959517" lon="12.09487"><ele>277.0</ele><time>2026-05-03T10:04:14.982Z</time></trkpt><trkpt lat="42.095825" lon="12.0947"><ele>277.66666666666663</ele><time>2026-05-03T10:04:15.983Z</time></trkpt><trkpt lat="42.09569" lon="12.0945367"><ele>278.3333333333333</ele><time>2026-05-03T10:04:16.996Z</time></trkpt><trkpt lat="42.095555" lon="12.0943833"><ele>279.0</ele><time>2026-05-03T10:04:17.993Z</time></trkpt><trkpt lat="42.095425" lon="12.0942383"><ele>279.6666666666667</ele><time>2026-05-03T10:04:18.986Z</time></trkpt><trkpt lat="42.0952933" lon="12.094085"><ele>280.33333333333337</ele><time>2026-05-03T10:04:19.992Z</time></trkpt><trkpt lat="42.0951617" lon="12.0939333"><ele>281.0</ele><time>2026-05-03T10:04:20.987Z</time></trkpt><trkpt lat="42.09503" lon="12.0937867"><ele>279.6666666666667</ele><time>2026-05-03T10:04:21.987Z</time></trkpt><trkpt lat="42.0949" lon="12.09364"><ele>278.3333333333333</ele><time>2026-05-03T10:04:22.99Z</time></trkpt><trkpt lat="42.0947683" lon="12.0934967"><ele>277.0</ele><time>2026-05-03T10:04:23.987Z</time></trkpt><trkpt lat="42.0946367" lon="12.09335"><ele>277.3333333333333</ele><time>2026-05-03T10:04:24.995Z</time></trkpt><trkpt lat="42.09451" lon="12.0932017"><ele>277.6666666666667</ele><time>2026-05-03T10:04:25.993Z</time></trkpt><trkpt lat="42.094385" lon="12.09306"><ele>278.0</ele><time>2026-05-03T10:04:26.99Z</time></trkpt><trkpt lat="42.0942633" lon="12.092925"><ele>278.0</ele><time>2026-05-03T10:04:27.994Z</time></trkpt><trkpt lat="42.0941433" lon="12.092785"><ele>278.0</ele><time>2026-05-03T10:04:28.988Z</time></trkpt><trkpt lat="42.0940217" lon="12.0926467"><ele>278.0</ele><time>2026-05-03T10:04:29.991Z</time></trkpt><trkpt lat="42.0938967" lon="12.092505"><ele>277.6666666666667</ele><time>2026-05-03T10:04:30.983Z</time></trkpt><trkpt lat="42.093765" lon="12.0923633"><ele>277.3333333333333</ele><time>2026-05-03T10:04:31.987Z</time></trkpt><trkpt lat="42.0936317" lon="12.0922167"><ele>277.0</ele><time>2026-05-03T10:04:32.986Z</time></trkpt><trkpt lat="42.0934933" lon="12.09206"><ele>277.0</ele><time>2026-05-03T10:04:33.985Z</time></trkpt><trkpt lat="42.093355" lon="12.0919033"><ele>277.0</ele><time>2026-05-03T10:04:34.99Z</time></trkpt><trkpt lat="42.09322" lon="12.0917517"><ele>277.0</ele><time>2026-05-03T10:04:35.991Z</time></trkpt><trkpt lat="42.093085" lon="12.0916017"><ele>276.66666666666663</ele><time>2026-05-03T10:04:36.989Z</time></trkpt><trkpt lat="42.092955" lon="12.09145"><ele>276.3333333333333</ele><time>2026-05-03T10:04:37.988Z</time></trkpt><trkpt lat="42.09282" lon="12.0912967"><ele>276.0</ele><time>2026-05-03T10:04:38.993Z</time></trkpt><trkpt lat="42.092685" lon="12.091145"><ele>276.0</ele><time>2026-05-03T10:04:39.99Z</time></trkpt><trkpt lat="42.0925483" lon="12.0909883"><ele>276.0</ele><time>2026-05-03T10:04:40.997Z</time></trkpt><trkpt lat="42.09241" lon="12.090835"><ele>276.0</ele><time>2026-05-03T10:04:41.989Z</time></trkpt><trkpt lat="42.0922717" lon="12.0906783"><ele>274.6666666666667</ele><time>2026-05-03T10:04:42.988Z</time></trkpt><trkpt lat="42.0921333" lon="12.0905233"><ele>273.33333333333337</ele><time>2026-05-03T10:04:43.994Z</time></trkpt><trkpt lat="42.0919967" lon="12.0903717"><ele>272.0</ele><time>2026-05-03T10:04:44.986Z</time></trkpt><trkpt lat="42.0918683" lon="12.09023"><ele>272.0</ele><time>2026-05-03T10:04:45.989Z</time></trkpt><trkpt lat="42.0917433" lon="12.0900933"><ele>272.0</ele><time>2026-05-03T10:04:46.989Z</time></trkpt><trkpt lat="42.09162" lon="12.0899567"><ele>272.0</ele><time>2026-05-03T10:04:47.992Z</time></trkpt><trkpt lat="42.0914967" lon="12.0898217"><ele>272.0</ele><time>2026-05-03T10:04:48.988Z</time></trkpt><trkpt lat="42.091375" lon="12.0896917"><ele>272.0</ele><time>2026-05-03T10:04:49.983Z</time></trkpt><trkpt lat="42.0912567" lon="12.0895583"><ele>272.0</ele><time>2026-05-03T10:04:50.99Z</time></trkpt><trkpt lat="42.09114" lon="12.089425"><ele>272.0</ele><time>2026-05-03T10:04:51.988Z</time></trkpt><trkpt lat="42.0910267" lon="12.08929"><ele>272.0</ele><time>2026-05-03T10:04:52.99Z</time></trkpt><trkpt lat="42.09092" lon="12.0891367"><ele>272.0</ele><time>2026-05-03T10:04:53.986Z</time></trkpt><trkpt lat="42.0908117" lon="12.0889717"><ele>271.33333333333337</ele><time>2026-05-03T10:04:54.987Z</time></trkpt><trkpt lat="42.0907017" lon="12.088795"><ele>270.6666666666667</ele><time>2026-05-03T10:04:55.994Z</time></trkpt><trkpt lat="42.09059" lon="12.0886083"><ele>270.0</ele><time>2026-05-03T10:04:56.997Z</time></trkpt><trkpt lat="42.090475" lon="12.08841"><ele>271.3333333333333</ele><time>2026-05-03T10:04:57.984Z</time></trkpt><trkpt lat="42.0903517" lon="12.0881967"><ele>272.66666666666663</ele><time>2026-05-03T10:04:58.99Z</time></trkpt><trkpt lat="42.0902167" lon="12.08797"><ele>274.0</ele><time>2026-05-03T10:04:59.99Z</time></trkpt><trkpt lat="42.090075" lon="12.08773"><ele>274.0</ele><time>2026-05-03T10:05:00.989Z</time></trkpt><trkpt lat="42.0899383" lon="12.0874917"><ele>274.0</ele><time>2026-05-03T10:05:01.989Z</time></trkpt><trkpt lat="42.0898083" lon="12.087265"><ele>274.0</ele><time>2026-05-03T10:05:02.991Z</time></trkpt><trkpt lat="42.08969" lon="12.0870483"><ele>273.66666666666663</ele><time>2026-05-03T10:05:03.996Z</time></trkpt><trkpt lat="42.0895833" lon="12.0868433"><ele>273.3333333333333</ele><time>2026-05-03T10:05:04.986Z</time></trkpt><trkpt lat="42.08948" lon="12.086645"><ele>273.0</ele><time>2026-05-03T10:05:05.99Z</time></trkpt><trkpt lat="42.08938" lon="12.0864533"><ele>272.3333333333333</ele><time>2026-05-03T10:05:06.99Z</time></trkpt><trkpt lat="42.089285" lon="12.086265"><ele>271.66666666666663</ele><time>2026-05-03T10:05:07.99Z</time></trkpt><trkpt lat="42.0891883" lon="12.0860867"><ele>271.0</ele><time>2026-05-03T10:05:08.988Z</time></trkpt><trkpt lat="42.08909" lon="12.08591"><ele>270.66666666666663</ele><time>2026-05-03T10:05:09.989Z</time></trkpt><trkpt lat="42.0889883" lon="12.0857233"><ele>270.3333333333333</ele><time>2026-05-03T10:05:10.989Z</time></trkpt><trkpt lat="42.0888817" lon="12.085535"><ele>270.0</ele><time>2026-05-03T10:05:11.992Z</time></trkpt><trkpt lat="42.0887717" lon="12.0853383"><ele>270.0</ele><time>2026-05-03T10:05:12.989Z</time></trkpt><trkpt lat="42.088665" lon="12.085145"><ele>270.0</ele><time>2026-05-03T10:05:13.989Z</time></trkpt><trkpt lat="42.0885583" lon="12.0849517"><ele>270.0</ele><time>2026-05-03T10:05:14.998Z</time></trkpt><trkpt lat="42.0884533" lon="12.0847567"><ele>270.0</ele><time>2026-05-03T10:05:15.989Z</time></trkpt><trkpt lat="42.0883383" lon="12.0845583"><ele>270.0</ele><time>2026-05-03T10:05:16.99Z</time></trkpt><trkpt lat="42.0882167" lon="12.0843467"><ele>270.0</ele><time>2026-05-03T10:05:17.994Z</time></trkpt><trkpt lat="42.0880933" lon="12.0841217"><ele>269.3333333333333</ele><time>2026-05-03T10:05:18.991Z</time></trkpt><trkpt lat="42.0879683" lon="12.0838917"><ele>268.66666666666663</ele><time>2026-05-03T10:05:19.991Z</time></trkpt><trkpt lat="42.087845" lon="12.0836667"><ele>268.0</ele><time>2026-05-03T10:05:20.991Z</time></trkpt><trkpt lat="42.087725" lon="12.083445"><ele>267.0</ele><time>2026-05-03T10:05:21.989Z</time></trkpt><trkpt lat="42.0876033" lon="12.0832317"><ele>266.0</ele><time>2026-05-03T10:05:22.991Z</time></trkpt><trkpt lat="42.08748" lon="12.0830317"><ele>265.0</ele><time>2026-05-03T10:05:23.993Z</time></trkpt><trkpt lat="42.0873683" lon="12.0828367"><ele>265.0</ele><time>2026-05-03T10:05:24.99Z</time></trkpt><trkpt lat="42.0872633" lon="12.082645"><ele>265.0</ele><time>2026-05-03T10:05:25.99Z</time></trkpt><trkpt lat="42.0871617" lon="12.0824533"><ele>265.0</ele><time>2026-05-03T10:05:26.99Z</time></trkpt><trkpt lat="42.0870633" lon="12.0822617"><ele>264.3333333333333</ele><time>2026-05-03T10:05:27.982Z</time></trkpt><trkpt lat="42.0869633" lon="12.0820717"><ele>263.6666666666667</ele><time>2026-05-03T10:05:28.993Z</time></trkpt><trkpt lat="42.0868683" lon="12.08188"><ele>263.0</ele><time>2026-05-03T10:05:29.988Z</time></trkpt><trkpt lat="42.0867717" lon="12.0816917"><ele>262.6666666666667</ele><time>2026-05-03T10:05:30.988Z</time></trkpt><trkpt lat="42.086675" lon="12.0815117"><ele>262.3333333333333</ele><time>2026-05-03T10:05:31.99Z</time></trkpt><trkpt lat="42.0865733" lon="12.08133"><ele>262.0</ele><time>2026-05-03T10:05:32.991Z</time></trkpt><trkpt lat="42.08647" lon="12.0811517"><ele>261.3333333333333</ele><time>2026-05-03T10:05:33.99Z</time></trkpt><trkpt lat="42.0863667" lon="12.08097"><ele>260.6666666666667</ele><time>2026-05-03T10:05:34.986Z</time></trkpt><trkpt lat="42.0862633" lon="12.0807867"><ele>260.0</ele><time>2026-05-03T10:05:35.993Z</time></trkpt><trkpt lat="42.0861633" lon="12.080605"><ele>260.0</ele><time>2026-05-03T10:05:36.983Z</time></trkpt><trkpt lat="42.0860633" lon="12.0804283"><ele>260.0</ele><time>2026-05-03T10:05:37.993Z</time></trkpt><trkpt lat="42.0859633" lon="12.0802567"><ele>260.0</ele><time>2026-05-03T10:05:38.99Z</time></trkpt><trkpt lat="42.08586" lon="12.080095"><ele>259.0</ele><time>2026-05-03T10:05:39.986Z</time></trkpt><trkpt lat="42.0857417" lon="12.0799483"><ele>258.0</ele><time>2026-05-03T10:05:40.992Z</time></trkpt><trkpt lat="42.0856133" lon="12.0798133"><ele>257.0</ele><time>2026-05-03T10:05:41.986Z</time></trkpt><trkpt lat="42.085475" lon="12.07971"><ele>257.0</ele><time>2026-05-03T10:05:42.988Z</time></trkpt><trkpt lat="42.0853267" lon="12.07964"><ele>257.0</ele><time>2026-05-03T10:05:43.987Z</time></trkpt><trkpt lat="42.0851733" lon="12.0796033"><ele>257.0</ele><time>2026-05-03T10:05:44.992Z</time></trkpt><trkpt lat="42.0850133" lon="12.0795967"><ele>256.0</ele><time>2026-05-03T10:05:45.989Z</time></trkpt><trkpt lat="42.0848483" lon="12.0795983"><ele>255.0</ele><time>2026-05-03T10:05:46.994Z</time></trkpt><trkpt lat="42.0846817" lon="12.0795867"><ele>254.0</ele><time>2026-05-03T10:05:47.989Z</time></trkpt><trkpt lat="42.08452" lon="12.0795617"><ele>254.0</ele><time>2026-05-03T10:05:48.985Z</time></trkpt><trkpt lat="42.084365" lon="12.079515"><ele>254.0</ele><time>2026-05-03T10:05:49.989Z</time></trkpt><trkpt lat="42.084215" lon="12.0794583"><ele>254.0</ele><time>2026-05-03T10:05:50.99Z</time></trkpt><trkpt lat="42.0840683" lon="12.0793817"><ele>254.0</ele><time>2026-05-03T10:05:51.989Z</time></trkpt><trkpt lat="42.0839217" lon="12.0792883"><ele>254.0</ele><time>2026-05-03T10:05:52.99Z</time></trkpt><trkpt lat="42.083775" lon="12.07918"><ele>254.0</ele><time>2026-05-03T10:05:53.997Z</time></trkpt><trkpt lat="42.0836233" lon="12.079055"><ele>254.0</ele><time>2026-05-03T10:05:54.993Z</time></trkpt><trkpt lat="42.08347" lon="12.0789167"><ele>254.0</ele><time>2026-05-03T10:05:55.988Z</time></trkpt><trkpt lat="42.0833067" lon="12.07877"><ele>254.0</ele><time>2026-05-03T10:05:56.989Z</time></trkpt><trkpt lat="42.083135" lon="12.0786183"><ele>254.0</ele><time>2026-05-03T10:05:57.985Z</time></trkpt><trkpt lat="42.0829567" lon="12.0784483"><ele>254.0</ele><time>2026-05-03T10:05:58.992Z</time></trkpt><trkpt lat="42.0827717" lon="12.0782667"><ele>254.0</ele><time>2026-05-03T10:05:59.99Z</time></trkpt><trkpt lat="42.0825783" lon="12.0780817"><ele>254.5</ele><time>2026-05-03T10:06:00.988Z</time></trkpt><trkpt lat="42.0823767" lon="12.0778883"><ele>255.0</ele><time>2026-05-03T10:06:01.991Z</time></trkpt><trkpt lat="42.08217" lon="12.0776867"><ele>255.0</ele><time>2026-05-03T10:06:02.991Z</time></trkpt><trkpt lat="42.08196" lon="12.07748"><ele>255.0</ele><time>2026-05-03T10:06:03.987Z</time></trkpt><trkpt lat="42.0817583" lon="12.0772767"><ele>254.0</ele><time>2026-05-03T10:06:04.991Z</time></trkpt><trkpt lat="42.081565" lon="12.07708"><ele>253.0</ele><time>2026-05-03T10:06:05.99Z</time></trkpt><trkpt lat="42.0813717" lon="12.0768867"><ele>253.0</ele><time>2026-05-03T10:06:06.991Z</time></trkpt><trkpt lat="42.0811817" lon="12.0767"><ele>253.0</ele><time>2026-05-03T10:06:07.994Z</time></trkpt><trkpt lat="42.0809933" lon="12.076515"><ele>253.0</ele><time>2026-05-03T10:06:08.986Z</time></trkpt><trkpt lat="42.080805" lon="12.0763317"><ele>253.0</ele><time>2026-05-03T10:06:09.988Z</time></trkpt><trkpt lat="42.0806183" lon="12.0761517"><ele>251.5</ele><time>2026-05-03T10:06:10.99Z</time></trkpt><trkpt lat="42.080435" lon="12.0759733"><ele>250.0</ele><time>2026-05-03T10:06:11.99Z</time></trkpt><trkpt lat="42.0802483" lon="12.075795"><ele>249.0</ele><time>2026-05-03T10:06:12.993Z</time></trkpt><trkpt lat="42.0800617" lon="12.07562"><ele>248.0</ele><time>2026-05-03T10:06:13.99Z</time></trkpt><trkpt lat="42.0798733" lon="12.0754433"><ele>248.0</ele><time>2026-05-03T10:06:14.995Z</time></trkpt><trkpt lat="42.0796867" lon="12.0752667"><ele>248.0</ele><time>2026-05-03T10:06:15.987Z</time></trkpt><trkpt lat="42.0795" lon="12.0750883"><ele>247.5</ele><time>2026-05-03T10:06:16.991Z</time></trkpt><trkpt lat="42.0793133" lon="12.0749083"><ele>247.0</ele><time>2026-05-03T10:06:17.989Z</time></trkpt><trkpt lat="42.0791283" lon="12.0747283"><ele>247.0</ele><time>2026-05-03T10:06:18.993Z</time></trkpt><trkpt lat="42.0789433" lon="12.0745483"><ele>247.0</ele><time>2026-05-03T10:06:19.99Z</time></trkpt><trkpt lat="42.078765" lon="12.07437"><ele>247.0</ele><time>2026-05-03T10:06:20.993Z</time></trkpt><trkpt lat="42.0785883" lon="12.0741933"><ele>247.0</ele><time>2026-05-03T10:06:21.992Z</time></trkpt><trkpt lat="42.07841" lon="12.0740183"><ele>247.0</ele><time>2026-05-03T10:06:22.991Z</time></trkpt><trkpt lat="42.0782333" lon="12.0738417"><ele>247.33333333333331</ele><time>2026-05-03T10:06:23.989Z</time></trkpt><trkpt lat="42.078055" lon="12.0736633"><ele>247.66666666666669</ele><time>2026-05-03T10:06:24.991Z</time></trkpt><trkpt lat="42.077875" lon="12.0734817"><ele>248.0</ele><time>2026-05-03T10:06:25.986Z</time></trkpt><trkpt lat="42.0776933" lon="12.0732983"><ele>248.0</ele><time>2026-05-03T10:06:26.989Z</time></trkpt><trkpt lat="42.0775083" lon="12.073115"><ele>248.0</ele><time>2026-05-03T10:06:27.995Z</time></trkpt><trkpt lat="42.0773233" lon="12.07293"><ele>248.0</ele><time>2026-05-03T10:06:28.996Z</time></trkpt><trkpt lat="42.0771383" lon="12.0727417"><ele>248.0</ele><time>2026-05-03T10:06:29.994Z</time></trkpt><trkpt lat="42.0769517" lon="12.0725483"><ele>248.0</ele><time>2026-05-03T10:06:30.991Z</time></trkpt><trkpt lat="42.0767617" lon="12.0723583"><ele>248.0</ele><time>2026-05-03T10:06:31.99Z</time></trkpt><trkpt lat="42.07657" lon="12.0721667"><ele>248.0</ele><time>2026-05-03T10:06:32.99Z</time></trkpt><trkpt lat="42.0763767" lon="12.0719733"><ele>248.0</ele><time>2026-05-03T10:06:33.985Z</time></trkpt><trkpt lat="42.0761833" lon="12.0717783"><ele>249.5</ele><time>2026-05-03T10:06:34.989Z</time></trkpt><trkpt lat="42.07599" lon="12.0715833"><ele>251.0</ele><time>2026-05-03T10:06:35.99Z</time></trkpt><trkpt lat="42.0757967" lon="12.0713867"><ele>250.0</ele><time>2026-05-03T10:06:36.994Z</time></trkpt><trkpt lat="42.0756033" lon="12.0711917"><ele>249.0</ele><time>2026-05-03T10:06:37.992Z</time></trkpt><trkpt lat="42.0754117" lon="12.0709983"><ele>249.0</ele><time>2026-05-03T10:06:38.99Z</time></trkpt><trkpt lat="42.075225" lon="12.0708117"><ele>249.0</ele><time>2026-05-03T10:06:39.988Z</time></trkpt><trkpt lat="42.0750417" lon="12.0706283"><ele>247.0</ele><time>2026-05-03T10:06:40.999Z</time></trkpt><trkpt lat="42.0748583" lon="12.0704433"><ele>245.0</ele><time>2026-05-03T10:06:41.992Z</time></trkpt><trkpt lat="42.0746733" lon="12.07026"><ele>245.0</ele><time>2026-05-03T10:06:42.988Z</time></trkpt><trkpt lat="42.07449" lon="12.070075"><ele>245.0</ele><time>2026-05-03T10:06:43.991Z</time></trkpt><trkpt lat="42.0743083" lon="12.06989"><ele>247.0</ele><time>2026-05-03T10:06:44.992Z</time></trkpt><trkpt lat="42.074125" lon="12.0697017"><ele>249.0</ele><time>2026-05-03T10:06:45.988Z</time></trkpt><trkpt lat="42.073945" lon="12.0695033"><ele>247.0</ele><time>2026-05-03T10:06:46.992Z</time></trkpt><trkpt lat="42.0737667" lon="12.0693067"><ele>245.0</ele><time>2026-05-03T10:06:47.982Z</time></trkpt><trkpt lat="42.07359" lon="12.0690983"><ele>245.0</ele><time>2026-05-03T10:06:48.989Z</time></trkpt><trkpt lat="42.0734217" lon="12.06888"><ele>245.0</ele><time>2026-05-03T10:06:49.983Z</time></trkpt><trkpt lat="42.0732533" lon="12.06866"><ele>243.0</ele><time>2026-05-03T10:06:50.985Z</time></trkpt><trkpt lat="42.07309" lon="12.0684367"><ele>241.0</ele><time>2026-05-03T10:06:51.987Z</time></trkpt><trkpt lat="42.07293" lon="12.0682067"><ele>241.0</ele><time>2026-05-03T10:06:52.987Z</time></trkpt><trkpt lat="42.0727767" lon="12.06797"><ele>241.0</ele><time>2026-05-03T10:06:53.986Z</time></trkpt><trkpt lat="42.072635" lon="12.067725"><ele>241.0</ele><time>2026-05-03T10:06:54.986Z</time></trkpt><trkpt lat="42.0725017" lon="12.0674717"><ele>241.0</ele><time>2026-05-03T10:06:55.991Z</time></trkpt><trkpt lat="42.0723717" lon="12.0672183"><ele>240.66666666666666</ele><time>2026-05-03T10:06:56.985Z</time></trkpt><trkpt lat="42.0722417" lon="12.06697"><ele>240.33333333333331</ele><time>2026-05-03T10:06:57.989Z</time></trkpt><trkpt lat="42.07211" lon="12.0667367"><ele>240.0</ele><time>2026-05-03T10:06:58.988Z</time></trkpt><trkpt lat="42.07198" lon="12.0665117"><ele>240.0</ele><time>2026-05-03T10:06:59.99Z</time></trkpt><trkpt lat="42.071855" lon="12.0662933"><ele>240.0</ele><time>2026-05-03T10:07:00.982Z</time></trkpt><trkpt lat="42.0717383" lon="12.0660833"><ele>240.0</ele><time>2026-05-03T10:07:01.992Z</time></trkpt><trkpt lat="42.0716433" lon="12.0658767"><ele>238.0</ele><time>2026-05-03T10:07:02.99Z</time></trkpt><trkpt lat="42.0715717" lon="12.0656617"><ele>236.0</ele><time>2026-05-03T10:07:03.99Z</time></trkpt><trkpt lat="42.071515" lon="12.0654317"><ele>234.0</ele><time>2026-05-03T10:07:04.992Z</time></trkpt><trkpt lat="42.0714717" lon="12.0651917"><ele>232.66666666666669</ele><time>2026-05-03T10:07:05.99Z</time></trkpt><trkpt lat="42.0714467" lon="12.0649417"><ele>231.33333333333334</ele><time>2026-05-03T10:07:06.989Z</time></trkpt><trkpt lat="42.0714467" lon="12.0646883"><ele>230.0</ele><time>2026-05-03T10:07:07.992Z</time></trkpt><trkpt lat="42.0714683" lon="12.0644317"><ele>230.0</ele><time>2026-05-03T10:07:08.996Z</time></trkpt><trkpt lat="42.0715033" lon="12.0641767"><ele>230.0</ele><time>2026-05-03T10:07:09.989Z</time></trkpt><trkpt lat="42.0715533" lon="12.063925"><ele>230.0</ele><time>2026-05-03T10:07:10.992Z</time></trkpt><trkpt lat="42.07161" lon="12.06367"><ele>233.66666666666669</ele><time>2026-05-03T10:07:11.991Z</time></trkpt><trkpt lat="42.0716667" lon="12.0634183"><ele>237.33333333333331</ele><time>2026-05-03T10:07:12.997Z</time></trkpt><trkpt lat="42.071725" lon="12.0631767"><ele>241.0</ele><time>2026-05-03T10:07:13.987Z</time></trkpt><trkpt lat="42.0717883" lon="12.0629467"><ele>241.0</ele><time>2026-05-03T10:07:14.992Z</time></trkpt><trkpt lat="42.0718483" lon="12.0627167"><ele>241.0</ele><time>2026-05-03T10:07:15.992Z</time></trkpt><trkpt lat="42.0719017" lon="12.062495"><ele>241.0</ele><time>2026-05-03T10:07:16.992Z</time></trkpt><trkpt lat="42.0719433" lon="12.062275"><ele>240.0</ele><time>2026-05-03T10:07:17.989Z</time></trkpt><trkpt lat="42.0719767" lon="12.06206"><ele>239.0</ele><time>2026-05-03T10:07:18.991Z</time></trkpt><trkpt lat="42.0719917" lon="12.06184"><ele>238.0</ele><time>2026-05-03T10:07:19.989Z</time></trkpt><trkpt lat="42.071985" lon="12.061615"><ele>238.0</ele><time>2026-05-03T10:07:20.988Z</time></trkpt><trkpt lat="42.071955" lon="12.0613917"><ele>238.0</ele><time>2026-05-03T10:07:21.99Z</time></trkpt><trkpt lat="42.0719067" lon="12.0611767"><ele>238.0</ele><time>2026-05-03T10:07:22.993Z</time></trkpt><trkpt lat="42.07185" lon="12.0609567"><ele>239.33333333333331</ele><time>2026-05-03T10:07:23.994Z</time></trkpt><trkpt lat="42.0717883" lon="12.06074"><ele>240.66666666666669</ele><time>2026-05-03T10:07:24.993Z</time></trkpt><trkpt lat="42.071715" lon="12.0605317"><ele>242.0</ele><time>2026-05-03T10:07:25.991Z</time></trkpt><trkpt lat="42.0716367" lon="12.0603267"><ele>241.0</ele><time>2026-05-03T10:07:26.988Z</time></trkpt><trkpt lat="42.0715517" lon="12.0601267"><ele>240.0</ele><time>2026-05-03T10:07:27.992Z</time></trkpt><trkpt lat="42.0714667" lon="12.059935"><ele>239.0</ele><time>2026-05-03T10:07:28.991Z</time></trkpt><trkpt lat="42.07138" lon="12.0597383"><ele>238.33333333333334</ele><time>2026-05-03T10:07:29.993Z</time></trkpt><trkpt lat="42.0712883" lon="12.0595383"><ele>237.66666666666669</ele><time>2026-05-03T10:07:30.994Z</time></trkpt><trkpt lat="42.0711933" lon="12.0593383"><ele>237.0</ele><time>2026-05-03T10:07:31.992Z</time></trkpt><trkpt lat="42.0710983" lon="12.0591367"><ele>236.33333333333331</ele><time>2026-05-03T10:07:32.989Z</time></trkpt><trkpt lat="42.0710033" lon="12.0589367"><ele>235.66666666666666</ele><time>2026-05-03T10:07:33.986Z</time></trkpt><trkpt lat="42.0709117" lon="12.0587383"><ele>235.0</ele><time>2026-05-03T10:07:34.991Z</time></trkpt><trkpt lat="42.07082" lon="12.058545"><ele>234.0</ele><time>2026-05-03T10:07:35.995Z</time></trkpt><trkpt lat="42.0707283" lon="12.0583467"><ele>233.0</ele><time>2026-05-03T10:07:36.989Z</time></trkpt><trkpt lat="42.07063" lon="12.0581517"><ele>232.0</ele><time>2026-05-03T10:07:37.991Z</time></trkpt><trkpt lat="42.070535" lon="12.05796"><ele>232.0</ele><time>2026-05-03T10:07:38.99Z</time></trkpt><trkpt lat="42.0704317" lon="12.0577683"><ele>232.0</ele><time>2026-05-03T10:07:39.988Z</time></trkpt><trkpt lat="42.0703267" lon="12.0575767"><ele>232.0</ele><time>2026-05-03T10:07:40.992Z</time></trkpt><trkpt lat="42.0702117" lon="12.05739"><ele>232.66666666666666</ele><time>2026-05-03T10:07:41.992Z</time></trkpt><trkpt lat="42.0700867" lon="12.0572"><ele>233.33333333333331</ele><time>2026-05-03T10:07:42.988Z</time></trkpt><trkpt lat="42.0699567" lon="12.0570217"><ele>234.0</ele><time>2026-05-03T10:07:43.993Z</time></trkpt><trkpt lat="42.0698217" lon="12.05685"><ele>234.0</ele><time>2026-05-03T10:07:44.994Z</time></trkpt><trkpt lat="42.0696867" lon="12.056685"><ele>234.0</ele><time>2026-05-03T10:07:45.992Z</time></trkpt><trkpt lat="42.0695533" lon="12.0565233"><ele>234.0</ele><time>2026-05-03T10:07:46.991Z</time></trkpt><trkpt lat="42.0694183" lon="12.0563567"><ele>235.33333333333331</ele><time>2026-05-03T10:07:47.995Z</time></trkpt><trkpt lat="42.0692867" lon="12.0561933"><ele>236.66666666666666</ele><time>2026-05-03T10:07:48.991Z</time></trkpt><trkpt lat="42.0691567" lon="12.05604"><ele>238.0</ele><time>2026-05-03T10:07:49.992Z</time></trkpt><trkpt lat="42.0690267" lon="12.0558983"><ele>240.66666666666666</ele><time>2026-05-03T10:07:50.991Z</time></trkpt><trkpt lat="42.0688917" lon="12.0557583"><ele>243.33333333333331</ele><time>2026-05-03T10:07:51.993Z</time></trkpt><trkpt lat="42.0687517" lon="12.055635"><ele>246.0</ele><time>2026-05-03T10:07:52.991Z</time></trkpt><trkpt lat="42.0686083" lon="12.05552"><ele>246.0</ele><time>2026-05-03T10:07:53.991Z</time></trkpt><trkpt lat="42.0684667" lon="12.05542"><ele>246.0</ele><time>2026-05-03T10:07:54.988Z</time></trkpt><trkpt lat="42.068325" lon="12.0553417"><ele>246.0</ele><time>2026-05-03T10:07:55.991Z</time></trkpt><trkpt lat="42.0681767" lon="12.05529"><ele>248.66666666666669</ele><time>2026-05-03T10:07:56.991Z</time></trkpt><trkpt lat="42.0680233" lon="12.055275"><ele>251.33333333333334</ele><time>2026-05-03T10:07:57.992Z</time></trkpt><trkpt lat="42.0678633" lon="12.0552817"><ele>254.0</ele><time>2026-05-03T10:07:58.985Z</time></trkpt><trkpt lat="42.0677017" lon="12.0553033"><ele>254.0</ele><time>2026-05-03T10:07:59.991Z</time></trkpt><trkpt lat="42.0675367" lon="12.0553283"><ele>254.0</ele><time>2026-05-03T10:08:00.995Z</time></trkpt><trkpt lat="42.06737" lon="12.05536"><ele>254.0</ele><time>2026-05-03T10:08:01.994Z</time></trkpt><trkpt lat="42.0672067" lon="12.0553933"><ele>259.6666666666667</ele><time>2026-05-03T10:08:02.991Z</time></trkpt><trkpt lat="42.06705" lon="12.0554217"><ele>265.3333333333333</ele><time>2026-05-03T10:08:03.983Z</time></trkpt><trkpt lat="42.0668983" lon="12.0554417"><ele>271.0</ele><time>2026-05-03T10:08:04.989Z</time></trkpt><trkpt lat="42.0667483" lon="12.055445"><ele>269.5</ele><time>2026-05-03T10:08:05.991Z</time></trkpt><trkpt lat="42.0666067" lon="12.0554133"><ele>268.0</ele><time>2026-05-03T10:08:06.991Z</time></trkpt><trkpt lat="42.0664733" lon="12.0553467"><ele>266.5</ele><time>2026-05-03T10:08:07.992Z</time></trkpt><trkpt lat="42.0663483" lon="12.0552483"><ele>265.0</ele><time>2026-05-03T10:08:08.99Z</time></trkpt><trkpt lat="42.0662317" lon="12.0551183"><ele>265.0</ele><time>2026-05-03T10:08:09.989Z</time></trkpt><trkpt lat="42.06612" lon="12.054965"><ele>265.0</ele><time>2026-05-03T10:08:10.99Z</time></trkpt><trkpt lat="42.06602" lon="12.0547883"><ele>265.0</ele><time>2026-05-03T10:08:11.992Z</time></trkpt><trkpt lat="42.06593" lon="12.0545933"><ele>267.3333333333333</ele><time>2026-05-03T10:08:12.99Z</time></trkpt><trkpt lat="42.06585" lon="12.05439"><ele>269.6666666666667</ele><time>2026-05-03T10:08:13.995Z</time></trkpt><trkpt lat="42.0657733" lon="12.0542"><ele>272.0</ele><time>2026-05-03T10:08:14.993Z</time></trkpt><trkpt lat="42.0656983" lon="12.0540217"><ele>274.33333333333337</ele><time>2026-05-03T10:08:15.991Z</time></trkpt><trkpt lat="42.06561" lon="12.0538433"><ele>276.6666666666667</ele><time>2026-05-03T10:08:16.992Z</time></trkpt><trkpt lat="42.06551" lon="12.0536683"><ele>279.0</ele><time>2026-05-03T10:08:17.99Z</time></trkpt><trkpt lat="42.0653983" lon="12.053495"><ele>279.0</ele><time>2026-05-03T10:08:18.993Z</time></trkpt><trkpt lat="42.0652717" lon="12.053335"><ele>279.0</ele><time>2026-05-03T10:08:19.989Z</time></trkpt><trkpt lat="42.065135" lon="12.0531883"><ele>279.0</ele><time>2026-05-03T10:08:20.989Z</time></trkpt><trkpt lat="42.0649967" lon="12.0530633"><ele>282.0</ele><time>2026-05-03T10:08:21.988Z</time></trkpt><trkpt lat="42.0648567" lon="12.0529517"><ele>285.0</ele><time>2026-05-03T10:08:22.987Z</time></trkpt><trkpt lat="42.0647133" lon="12.0528517"><ele>288.0</ele><time>2026-05-03T10:08:23.991Z</time></trkpt><trkpt lat="42.064565" lon="12.052765"><ele>288.0</ele><time>2026-05-03T10:08:24.993Z</time></trkpt><trkpt lat="42.064415" lon="12.0526783"><ele>288.0</ele><time>2026-05-03T10:08:25.99Z</time></trkpt><trkpt lat="42.06427" lon="12.05258"><ele>288.0</ele><time>2026-05-03T10:08:26.987Z</time></trkpt><trkpt lat="42.064125" lon="12.052475"><ele>284.6666666666667</ele><time>2026-05-03T10:08:27.988Z</time></trkpt><trkpt lat="42.0639933" lon="12.0523517"><ele>281.33333333333337</ele><time>2026-05-03T10:08:28.987Z</time></trkpt><trkpt lat="42.0638683" lon="12.05221"><ele>278.0</ele><time>2026-05-03T10:08:29.995Z</time></trkpt><trkpt lat="42.0637533" lon="12.0520467"><ele>278.0</ele><time>2026-05-03T10:08:30.991Z</time></trkpt><trkpt lat="42.0636433" lon="12.0518633"><ele>278.0</ele><time>2026-05-03T10:08:31.983Z</time></trkpt><trkpt lat="42.0635367" lon="12.0516733"><ele>278.0</ele><time>2026-05-03T10:08:32.994Z</time></trkpt><trkpt lat="42.0634267" lon="12.0514817"><ele>275.6666666666667</ele><time>2026-05-03T10:08:33.991Z</time></trkpt><trkpt lat="42.0633133" lon="12.0512967"><ele>273.3333333333333</ele><time>2026-05-03T10:08:34.988Z</time></trkpt><trkpt lat="42.0632033" lon="12.0510983"><ele>271.0</ele><time>2026-05-03T10:08:35.992Z</time></trkpt><trkpt lat="42.0631" lon="12.0509017"><ele>273.0</ele><time>2026-05-03T10:08:36.992Z</time></trkpt><trkpt lat="42.06301" lon="12.0507017"><ele>275.0</ele><time>2026-05-03T10:08:37.994Z</time></trkpt><trkpt lat="42.0629283" lon="12.0505"><ele>277.0</ele><time>2026-05-03T10:08:38.993Z</time></trkpt><trkpt lat="42.062865" lon="12.0502883"><ele>277.0</ele><time>2026-05-03T10:08:39.99Z</time></trkpt><trkpt lat="42.0628083" lon="12.050065"><ele>277.0</ele><time>2026-05-03T10:08:40.991Z</time></trkpt><trkpt lat="42.0627533" lon="12.0498267"><ele>277.0</ele><time>2026-05-03T10:08:41.986Z</time></trkpt><trkpt lat="42.06269" lon="12.0495767"><ele>278.0</ele><time>2026-05-03T10:08:42.992Z</time></trkpt><trkpt lat="42.0626317" lon="12.0493167"><ele>279.0</ele><time>2026-05-03T10:08:43.995Z</time></trkpt><trkpt lat="42.0625767" lon="12.049055"><ele>280.0</ele><time>2026-05-03T10:08:44.992Z</time></trkpt><trkpt lat="42.06252" lon="12.048795"><ele>282.0</ele><time>2026-05-03T10:08:45.994Z</time></trkpt><trkpt lat="42.0624667" lon="12.048535"><ele>284.0</ele><time>2026-05-03T10:08:46.989Z</time></trkpt><trkpt lat="42.0624183" lon="12.0482833"><ele>286.0</ele><time>2026-05-03T10:08:47.99Z</time></trkpt><trkpt lat="42.0623717" lon="12.048045"><ele>282.3333333333333</ele><time>2026-05-03T10:08:48.991Z</time></trkpt><trkpt lat="42.0623267" lon="12.0478067"><ele>278.6666666666667</ele><time>2026-05-03T10:08:49.995Z</time></trkpt><trkpt lat="42.0622783" lon="12.0475717"><ele>275.0</ele><time>2026-05-03T10:08:50.985Z</time></trkpt><trkpt lat="42.0622283" lon="12.04734"><ele>275.0</ele><time>2026-05-03T10:08:51.987Z</time></trkpt><trkpt lat="42.06218" lon="12.0471033"><ele>275.0</ele><time>2026-05-03T10:08:52.986Z</time></trkpt><trkpt lat="42.0621317" lon="12.0468683"><ele>275.0</ele><time>2026-05-03T10:08:53.991Z</time></trkpt><trkpt lat="42.062085" lon="12.0466467"><ele>276.33333333333337</ele><time>2026-05-03T10:08:54.995Z</time></trkpt><trkpt lat="42.0620433" lon="12.04644"><ele>277.6666666666667</ele><time>2026-05-03T10:08:55.99Z</time></trkpt><trkpt lat="42.0619983" lon="12.0462367"><ele>279.0</ele><time>2026-05-03T10:08:57.003Z</time></trkpt><trkpt lat="42.0619433" lon="12.0460333"><ele>279.0</ele><time>2026-05-03T10:08:57.991Z</time></trkpt><trkpt lat="42.0618783" lon="12.0458333"><ele>279.0</ele><time>2026-05-03T10:08:58.996Z</time></trkpt><trkpt lat="42.06179" lon="12.0456317"><ele>279.0</ele><time>2026-05-03T10:08:59.994Z</time></trkpt><trkpt lat="42.0616817" lon="12.0454383"><ele>277.6666666666667</ele><time>2026-05-03T10:09:00.992Z</time></trkpt><trkpt lat="42.06156" lon="12.0452483"><ele>276.33333333333337</ele><time>2026-05-03T10:09:01.991Z</time></trkpt><trkpt lat="42.06143" lon="12.045055"><ele>275.0</ele><time>2026-05-03T10:09:02.993Z</time></trkpt><trkpt lat="42.0612917" lon="12.0448617"><ele>278.0</ele><time>2026-05-03T10:09:03.991Z</time></trkpt><trkpt lat="42.06115" lon="12.0446683"><ele>281.0</ele><time>2026-05-03T10:09:04.986Z</time></trkpt><trkpt lat="42.060995" lon="12.0444717"><ele>284.0</ele><time>2026-05-03T10:09:05.991Z</time></trkpt><trkpt lat="42.060825" lon="12.0442667"><ele>285.5</ele><time>2026-05-03T10:09:06.991Z</time></trkpt><trkpt lat="42.0606467" lon="12.044045"><ele>287.0</ele><time>2026-05-03T10:09:07.995Z</time></trkpt><trkpt lat="42.060465" lon="12.0438117"><ele>287.0</ele><time>2026-05-03T10:09:08.992Z</time></trkpt><trkpt lat="42.0602917" lon="12.0435833"><ele>287.0</ele><time>2026-05-03T10:09:09.992Z</time></trkpt><trkpt lat="42.06012" lon="12.0433767"><ele>291.0</ele><time>2026-05-03T10:09:10.983Z</time></trkpt><trkpt lat="42.05994" lon="12.043195"><ele>295.0</ele><time>2026-05-03T10:09:11.983Z</time></trkpt><trkpt lat="42.0597567" lon="12.0430383"><ele>299.0</ele><time>2026-05-03T10:09:12.984Z</time></trkpt><trkpt lat="42.059575" lon="12.04291"><ele>299.0</ele><time>2026-05-03T10:09:13.985Z</time></trkpt><trkpt lat="42.0593933" lon="12.042815"><ele>299.0</ele><time>2026-05-03T10:09:14.987Z</time></trkpt><trkpt lat="42.0592067" lon="12.0427433"><ele>299.0</ele><time>2026-05-03T10:09:15.994Z</time></trkpt><trkpt lat="42.059005" lon="12.042705"><ele>301.33333333333337</ele><time>2026-05-03T10:09:16.99Z</time></trkpt><trkpt lat="42.0587967" lon="12.0426833"><ele>303.6666666666667</ele><time>2026-05-03T10:09:17.993Z</time></trkpt><trkpt lat="42.0585817" lon="12.0426683"><ele>306.0</ele><time>2026-05-03T10:09:18.989Z</time></trkpt><trkpt lat="42.05837" lon="12.0426567"><ele>307.0</ele><time>2026-05-03T10:09:19.988Z</time></trkpt><trkpt lat="42.0581617" lon="12.0426683"><ele>308.0</ele><time>2026-05-03T10:09:20.988Z</time></trkpt><trkpt lat="42.057955" lon="12.042705"><ele>309.0</ele><time>2026-05-03T10:09:21.984Z</time></trkpt><trkpt lat="42.0577417" lon="12.0427433"><ele>309.0</ele><time>2026-05-03T10:09:22.993Z</time></trkpt><trkpt lat="42.0575267" lon="12.04278"><ele>309.0</ele><time>2026-05-03T10:09:23.99Z</time></trkpt><trkpt lat="42.0573133" lon="12.0428167"><ele>309.0</ele><time>2026-05-03T10:09:24.99Z</time></trkpt><trkpt lat="42.0571" lon="12.0428633"><ele>311.0</ele><time>2026-05-03T10:09:25.986Z</time></trkpt><trkpt lat="42.056885" lon="12.0429183"><ele>313.0</ele><time>2026-05-03T10:09:26.991Z</time></trkpt><trkpt lat="42.056675" lon="12.0429833"><ele>315.0</ele><time>2026-05-03T10:09:27.991Z</time></trkpt><trkpt lat="42.0564683" lon="12.0430517"><ele>317.3333333333333</ele><time>2026-05-03T10:09:28.987Z</time></trkpt><trkpt lat="42.056255" lon="12.0431167"><ele>319.66666666666663</ele><time>2026-05-03T10:09:29.988Z</time></trkpt><trkpt lat="42.05604" lon="12.0431817"><ele>322.0</ele><time>2026-05-03T10:09:30.991Z</time></trkpt><trkpt lat="42.0558267" lon="12.0432467"><ele>318.66666666666663</ele><time>2026-05-03T10:09:31.997Z</time></trkpt><trkpt lat="42.0556133" lon="12.0433117"><ele>315.3333333333333</ele><time>2026-05-03T10:09:32.989Z</time></trkpt><trkpt lat="42.0553967" lon="12.0433767"><ele>312.0</ele><time>2026-05-03T10:09:33.995Z</time></trkpt><trkpt lat="42.0551867" lon="12.0434367"><ele>312.0</ele><time>2026-05-03T10:09:34.992Z</time></trkpt><trkpt lat="42.05498" lon="12.0434967"><ele>312.0</ele><time>2026-05-03T10:09:35.99Z</time></trkpt><trkpt lat="42.054785" lon="12.0435483"><ele>312.0</ele><time>2026-05-03T10:09:36.989Z</time></trkpt><trkpt lat="42.0546017" lon="12.043595"><ele>311.3333333333333</ele><time>2026-05-03T10:09:37.988Z</time></trkpt><trkpt lat="42.05443" lon="12.0436267"><ele>310.66666666666663</ele><time>2026-05-03T10:09:38.988Z</time></trkpt><trkpt lat="42.0542683" lon="12.0436383"><ele>310.0</ele><time>2026-05-03T10:09:39.989Z</time></trkpt><trkpt lat="42.0541083" lon="12.043625"><ele>310.0</ele><time>2026-05-03T10:09:40.989Z</time></trkpt><trkpt lat="42.0539567" lon="12.0435767"><ele>310.0</ele><time>2026-05-03T10:09:41.989Z</time></trkpt><trkpt lat="42.0537967" lon="12.043505"><ele>310.0</ele><time>2026-05-03T10:09:42.988Z</time></trkpt><trkpt lat="42.05363" lon="12.0434167"><ele>310.0</ele><time>2026-05-03T10:09:43.991Z</time></trkpt><trkpt lat="42.0534583" lon="12.0433233"><ele>310.0</ele><time>2026-05-03T10:09:44.994Z</time></trkpt><trkpt lat="42.0532783" lon="12.043225"><ele>310.0</ele><time>2026-05-03T10:09:45.992Z</time></trkpt><trkpt lat="42.053095" lon="12.04311"><ele>306.66666666666663</ele><time>2026-05-03T10:09:46.991Z</time></trkpt><trkpt lat="42.0529183" lon="12.042985"><ele>303.3333333333333</ele><time>2026-05-03T10:09:47.989Z</time></trkpt><trkpt lat="42.05275" lon="12.04286"><ele>300.0</ele><time>2026-05-03T10:09:48.99Z</time></trkpt><trkpt lat="42.0525883" lon="12.0427417"><ele>294.6666666666667</ele><time>2026-05-03T10:09:49.988Z</time></trkpt><trkpt lat="42.0524383" lon="12.0426267"><ele>289.33333333333337</ele><time>2026-05-03T10:09:50.991Z</time></trkpt><trkpt lat="42.0522967" lon="12.0425217"><ele>284.0</ele><time>2026-05-03T10:09:51.99Z</time></trkpt><trkpt lat="42.0521617" lon="12.0424067"><ele>284.0</ele><time>2026-05-03T10:09:52.993Z</time></trkpt><trkpt lat="42.0520317" lon="12.042275"><ele>284.0</ele><time>2026-05-03T10:09:53.988Z</time></trkpt><trkpt lat="42.0519117" lon="12.0421083"><ele>284.0</ele><time>2026-05-03T10:09:54.988Z</time></trkpt><trkpt lat="42.0518017" lon="12.041925"><ele>284.0</ele><time>2026-05-03T10:09:55.995Z</time></trkpt><trkpt lat="42.051695" lon="12.0417367"><ele>284.0</ele><time>2026-05-03T10:09:56.995Z</time></trkpt><trkpt lat="42.0515917" lon="12.0415383"><ele>284.0</ele><time>2026-05-03T10:09:57.99Z</time></trkpt><trkpt lat="42.0514933" lon="12.0413233"><ele>281.33333333333337</ele><time>2026-05-03T10:09:58.992Z</time></trkpt><trkpt lat="42.0513933" lon="12.0410917"><ele>278.6666666666667</ele><time>2026-05-03T10:09:59.985Z</time></trkpt><trkpt lat="42.0512933" lon="12.0408483"><ele>276.0</ele><time>2026-05-03T10:10:00.986Z</time></trkpt><trkpt lat="42.0511917" lon="12.0406083"><ele>276.0</ele><time>2026-05-03T10:10:01.988Z</time></trkpt><trkpt lat="42.05108" lon="12.0403833"><ele>276.0</ele><time>2026-05-03T10:10:02.992Z</time></trkpt><trkpt lat="42.0509617" lon="12.0401583"><ele>276.0</ele><time>2026-05-03T10:10:03.989Z</time></trkpt><trkpt lat="42.05084" lon="12.03993"><ele>271.6666666666667</ele><time>2026-05-03T10:10:04.99Z</time></trkpt><trkpt lat="42.0507183" lon="12.0397083"><ele>267.33333333333337</ele><time>2026-05-03T10:10:05.996Z</time></trkpt><trkpt lat="42.0505917" lon="12.0395"><ele>263.0</ele><time>2026-05-03T10:10:06.987Z</time></trkpt><trkpt lat="42.0504533" lon="12.0393067"><ele>267.0</ele><time>2026-05-03T10:10:07.991Z</time></trkpt><trkpt lat="42.0503167" lon="12.0391183"><ele>271.0</ele><time>2026-05-03T10:10:08.989Z</time></trkpt><trkpt lat="42.05019" lon="12.038935"><ele>275.0</ele><time>2026-05-03T10:10:09.994Z</time></trkpt><trkpt lat="42.0500683" lon="12.0387617"><ele>269.33333333333337</ele><time>2026-05-03T10:10:10.99Z</time></trkpt><trkpt lat="42.0499333" lon="12.038605"><ele>263.6666666666667</ele><time>2026-05-03T10:10:11.983Z</time></trkpt><trkpt lat="42.0497783" lon="12.0384683"><ele>258.0</ele><time>2026-05-03T10:10:12.988Z</time></trkpt><trkpt lat="42.0496183" lon="12.0383267"><ele>259.0</ele><time>2026-05-03T10:10:13.993Z</time></trkpt><trkpt lat="42.0494683" lon="12.0381733"><ele>260.0</ele><time>2026-05-03T10:10:14.992Z</time></trkpt><trkpt lat="42.04933" lon="12.03801"><ele>261.0</ele><time>2026-05-03T10:10:15.99Z</time></trkpt><trkpt lat="42.0492067" lon="12.0378467"><ele>256.5</ele><time>2026-05-03T10:10:16.989Z</time></trkpt><trkpt lat="42.049105" lon="12.0376817"><ele>252.0</ele><time>2026-05-03T10:10:17.988Z</time></trkpt><trkpt lat="42.0490333" lon="12.0375117"><ele>247.5</ele><time>2026-05-03T10:10:18.988Z</time></trkpt><trkpt lat="42.0489867" lon="12.0373267"><ele>243.0</ele><time>2026-05-03T10:10:19.991Z</time></trkpt><trkpt lat="42.0489517" lon="12.03712"><ele>243.0</ele><time>2026-05-03T10:10:20.988Z</time></trkpt><trkpt lat="42.0489183" lon="12.0368983"><ele>243.0</ele><time>2026-05-03T10:10:21.989Z</time></trkpt><trkpt lat="42.0488867" lon="12.0366683"><ele>243.0</ele><time>2026-05-03T10:10:22.988Z</time></trkpt><trkpt lat="42.0488583" lon="12.03644"><ele>242.66666666666669</ele><time>2026-05-03T10:10:23.989Z</time></trkpt><trkpt lat="42.04883" lon="12.0362167"><ele>242.33333333333334</ele><time>2026-05-03T10:10:24.99Z</time></trkpt><trkpt lat="42.0487967" lon="12.0360017"><ele>242.0</ele><time>2026-05-03T10:10:25.991Z</time></trkpt><trkpt lat="42.048755" lon="12.035795"><ele>240.33333333333334</ele><time>2026-05-03T10:10:26.984Z</time></trkpt><trkpt lat="42.0487017" lon="12.0355967"><ele>238.66666666666669</ele><time>2026-05-03T10:10:27.989Z</time></trkpt><trkpt lat="42.048625" lon="12.0354117"><ele>237.0</ele><time>2026-05-03T10:10:28.99Z</time></trkpt><trkpt lat="42.0485333" lon="12.0352583"><ele>237.0</ele><time>2026-05-03T10:10:29.986Z</time></trkpt><trkpt lat="42.048425" lon="12.035135"><ele>237.0</ele><time>2026-05-03T10:10:30.99Z</time></trkpt><trkpt lat="42.0482933" lon="12.0350383"><ele>237.0</ele><time>2026-05-03T10:10:31.993Z</time></trkpt><trkpt lat="42.0481383" lon="12.0349667"><ele>232.33333333333331</ele><time>2026-05-03T10:10:32.989Z</time></trkpt><trkpt lat="42.04797" lon="12.03493"><ele>227.66666666666666</ele><time>2026-05-03T10:10:33.992Z</time></trkpt><trkpt lat="42.0478" lon="12.0349083"><ele>223.0</ele><time>2026-05-03T10:10:34.985Z</time></trkpt><trkpt lat="42.0476367" lon="12.03492"><ele>223.0</ele><time>2026-05-03T10:10:35.989Z</time></trkpt><trkpt lat="42.04749" lon="12.0349617"><ele>223.0</ele><time>2026-05-03T10:10:36.992Z</time></trkpt><trkpt lat="42.0473617" lon="12.0350267"><ele>223.0</ele><time>2026-05-03T10:10:37.997Z</time></trkpt><trkpt lat="42.0472433" lon="12.035085"><ele>223.0</ele><time>2026-05-03T10:10:38.993Z</time></trkpt><trkpt lat="42.0471217" lon="12.03511"><ele>221.25</ele><time>2026-05-03T10:10:39.991Z</time></trkpt><trkpt lat="42.047" lon="12.0350983"><ele>219.5</ele><time>2026-05-03T10:10:40.99Z</time></trkpt><trkpt lat="42.04688" lon="12.0350483"><ele>217.75</ele><time>2026-05-03T10:10:41.992Z</time></trkpt><trkpt lat="42.0467617" lon="12.0349717"><ele>216.0</ele><time>2026-05-03T10:10:42.995Z</time></trkpt><trkpt lat="42.04664" lon="12.03487"><ele>211.0</ele><time>2026-05-03T10:10:43.988Z</time></trkpt><trkpt lat="42.04652" lon="12.0347417"><ele>206.0</ele><time>2026-05-03T10:10:44.991Z</time></trkpt><trkpt lat="42.0463967" lon="12.0345917"><ele>201.0</ele><time>2026-05-03T10:10:45.99Z</time></trkpt><trkpt lat="42.04627" lon="12.0344283"><ele>201.0</ele><time>2026-05-03T10:10:46.994Z</time></trkpt><trkpt lat="42.0461367" lon="12.0342683"><ele>201.0</ele><time>2026-05-03T10:10:47.992Z</time></trkpt><trkpt lat="42.045995" lon="12.0341167"><ele>201.0</ele><time>2026-05-03T10:10:48.991Z</time></trkpt><trkpt lat="42.0458383" lon="12.0339767"><ele>199.0</ele><time>2026-05-03T10:10:49.995Z</time></trkpt><trkpt lat="42.04567" lon="12.0338483"><ele>197.0</ele><time>2026-05-03T10:10:50.991Z</time></trkpt><trkpt lat="42.0455" lon="12.0337283"><ele>195.0</ele><time>2026-05-03T10:10:51.986Z</time></trkpt><trkpt lat="42.0453267" lon="12.0336167"><ele>195.0</ele><time>2026-05-03T10:10:52.985Z</time></trkpt><trkpt lat="42.045155" lon="12.033505"><ele>195.0</ele><time>2026-05-03T10:10:53.989Z</time></trkpt><trkpt lat="42.0449833" lon="12.03339"><ele>195.0</ele><time>2026-05-03T10:10:54.989Z</time></trkpt><trkpt lat="42.0448117" lon="12.0332733"><ele>191.33333333333334</ele><time>2026-05-03T10:10:55.998Z</time></trkpt><trkpt lat="42.0446433" lon="12.0331683"><ele>187.66666666666669</ele><time>2026-05-03T10:10:56.99Z</time></trkpt><trkpt lat="42.04448" lon="12.0330767"><ele>184.0</ele><time>2026-05-03T10:10:57.99Z</time></trkpt><trkpt lat="42.0443233" lon="12.0329967"><ele>184.0</ele><time>2026-05-03T10:10:58.99Z</time></trkpt><trkpt lat="42.0441633" lon="12.0329317"><ele>184.0</ele><time>2026-05-03T10:10:59.991Z</time></trkpt><trkpt lat="42.0439917" lon="12.032905"><ele>184.0</ele><time>2026-05-03T10:11:00.984Z</time></trkpt><trkpt lat="42.04381" lon="12.032905"><ele>182.33333333333334</ele><time>2026-05-03T10:11:01.992Z</time></trkpt><trkpt lat="42.04362" lon="12.032925"><ele>180.66666666666666</ele><time>2026-05-03T10:11:02.998Z</time></trkpt><trkpt lat="42.0434283" lon="12.0329467"><ele>179.0</ele><time>2026-05-03T10:11:03.988Z</time></trkpt><trkpt lat="42.04324" lon="12.0329683"><ele>175.66666666666666</ele><time>2026-05-03T10:11:04.991Z</time></trkpt><trkpt lat="42.0430567" lon="12.0329867"><ele>172.33333333333334</ele><time>2026-05-03T10:11:05.994Z</time></trkpt><trkpt lat="42.042875" lon="12.0330167"><ele>169.0</ele><time>2026-05-03T10:11:06.994Z</time></trkpt><trkpt lat="42.042705" lon="12.0330717"><ele>169.0</ele><time>2026-05-03T10:11:07.992Z</time></trkpt><trkpt lat="42.042545" lon="12.0331433"><ele>169.0</ele><time>2026-05-03T10:11:08.995Z</time></trkpt><trkpt lat="42.0423933" lon="12.0332233"><ele>169.0</ele><time>2026-05-03T10:11:09.984Z</time></trkpt><trkpt lat="42.0422483" lon="12.0332983"><ele>166.0</ele><time>2026-05-03T10:11:10.988Z</time></trkpt><trkpt lat="42.04212" lon="12.0333583"><ele>163.0</ele><time>2026-05-03T10:11:11.985Z</time></trkpt><trkpt lat="42.0419933" lon="12.0333983"><ele>160.0</ele><time>2026-05-03T10:11:12.99Z</time></trkpt><trkpt lat="42.0418633" lon="12.0333933"><ele>157.0</ele><time>2026-05-03T10:11:13.99Z</time></trkpt><trkpt lat="42.0417333" lon="12.0333417"><ele>152.33333333333334</ele><time>2026-05-03T10:11:14.991Z</time></trkpt><trkpt lat="42.0415967" lon="12.0332633"><ele>147.66666666666666</ele><time>2026-05-03T10:11:15.99Z</time></trkpt><trkpt lat="42.0414517" lon="12.03317"><ele>143.0</ele><time>2026-05-03T10:11:16.985Z</time></trkpt><trkpt lat="42.0413067" lon="12.0330633"><ele>143.0</ele><time>2026-05-03T10:11:17.988Z</time></trkpt><trkpt lat="42.04116" lon="12.0329583"><ele>143.0</ele><time>2026-05-03T10:11:18.991Z</time></trkpt><trkpt lat="42.04101" lon="12.032855"><ele>143.0</ele><time>2026-05-03T10:11:19.989Z</time></trkpt><trkpt lat="42.0408517" lon="12.0327533"><ele>140.0</ele><time>2026-05-03T10:11:20.989Z</time></trkpt><trkpt lat="42.040685" lon="12.0326583"><ele>137.0</ele><time>2026-05-03T10:11:21.985Z</time></trkpt><trkpt lat="42.0405067" lon="12.0325833"><ele>134.0</ele><time>2026-05-03T10:11:22.987Z</time></trkpt><trkpt lat="42.040325" lon="12.0325217"><ele>130.66666666666666</ele><time>2026-05-03T10:11:23.991Z</time></trkpt><trkpt lat="42.0401367" lon="12.03247"><ele>127.33333333333334</ele><time>2026-05-03T10:11:24.996Z</time></trkpt><trkpt lat="42.0399417" lon="12.0324183"><ele>124.0</ele><time>2026-05-03T10:11:25.997Z</time></trkpt><trkpt lat="42.03975" lon="12.0323667"><ele>121.33333333333334</ele><time>2026-05-03T10:11:26.987Z</time></trkpt><trkpt lat="42.0395667" lon="12.03232"><ele>118.66666666666666</ele><time>2026-05-03T10:11:27.99Z</time></trkpt><trkpt lat="42.039395" lon="12.03228"><ele>116.0</ele><time>2026-05-03T10:11:28.99Z</time></trkpt><trkpt lat="42.0392317" lon="12.0322533"><ele>113.33333333333333</ele><time>2026-05-03T10:11:29.993Z</time></trkpt><trkpt lat="42.0390733" lon="12.0322517"><ele>110.66666666666666</ele><time>2026-05-03T10:11:30.988Z</time></trkpt><trkpt lat="42.0389167" lon="12.032285"><ele>108.0</ele><time>2026-05-03T10:11:31.993Z</time></trkpt><trkpt lat="42.03876" lon="12.03235"><ele>108.0</ele><time>2026-05-03T10:11:32.985Z</time></trkpt><trkpt lat="42.0386017" lon="12.0324483"><ele>108.0</ele><time>2026-05-03T10:11:33.987Z</time></trkpt><trkpt lat="42.0384467" lon="12.0325783"><ele>108.0</ele><time>2026-05-03T10:11:34.987Z</time></trkpt><trkpt lat="42.0382933" lon="12.0327267"><ele>105.66666666666666</ele><time>2026-05-03T10:11:35.991Z</time></trkpt><trkpt lat="42.0381467" lon="12.032885"><ele>103.33333333333333</ele><time>2026-05-03T10:11:36.988Z</time></trkpt><trkpt lat="42.0380083" lon="12.0330467"><ele>101.0</ele><time>2026-05-03T10:11:37.991Z</time></trkpt><trkpt lat="42.03788" lon="12.0332117"><ele>102.0</ele><time>2026-05-03T10:11:38.984Z</time></trkpt><trkpt lat="42.0377583" lon="12.0333717"><ele>103.0</ele><time>2026-05-03T10:11:39.989Z</time></trkpt><trkpt lat="42.037645" lon="12.0335283"><ele>104.0</ele><time>2026-05-03T10:11:40.986Z</time></trkpt><trkpt lat="42.0375417" lon="12.0336733"><ele>101.75</ele><time>2026-05-03T10:11:41.987Z</time></trkpt><trkpt lat="42.0374417" lon="12.033795"><ele>99.5</ele><time>2026-05-03T10:11:42.988Z</time></trkpt><trkpt lat="42.0373383" lon="12.0338883"><ele>97.25</ele><time>2026-05-03T10:11:43.991Z</time></trkpt><trkpt lat="42.03722" lon="12.0339417"><ele>95.0</ele><time>2026-05-03T10:11:44.987Z</time></trkpt><trkpt lat="42.037105" lon="12.0339517"><ele>95.0</ele><time>2026-05-03T10:11:45.988Z</time></trkpt><trkpt lat="42.03699" lon="12.0339333"><ele>95.0</ele><time>2026-05-03T10:11:46.996Z</time></trkpt><trkpt lat="42.036875" lon="12.033885"><ele>95.0</ele><time>2026-05-03T10:11:47.99Z</time></trkpt><trkpt lat="42.036755" lon="12.0338167"><ele>95.0</ele><time>2026-05-03T10:11:48.987Z</time></trkpt><trkpt lat="42.0366233" lon="12.0337433"><ele>96.33333333333334</ele><time>2026-05-03T10:11:49.989Z</time></trkpt><trkpt lat="42.03648" lon="12.033675"><ele>97.66666666666667</ele><time>2026-05-03T10:11:50.992Z</time></trkpt><trkpt lat="42.0363283" lon="12.0336183"><ele>99.0</ele><time>2026-05-03T10:11:51.994Z</time></trkpt><trkpt lat="42.0361717" lon="12.0335667"><ele>99.0</ele><time>2026-05-03T10:11:52.99Z</time></trkpt><trkpt lat="42.03601" lon="12.03352"><ele>99.0</ele><time>2026-05-03T10:11:53.991Z</time></trkpt><trkpt lat="42.0358417" lon="12.033485"><ele>99.0</ele><time>2026-05-03T10:11:54.99Z</time></trkpt><trkpt lat="42.035665" lon="12.0334683"><ele>97.33333333333333</ele><time>2026-05-03T10:11:56.002Z</time></trkpt><trkpt lat="42.0354833" lon="12.03347"><ele>95.66666666666666</ele><time>2026-05-03T10:11:56.994Z</time></trkpt><trkpt lat="42.0353" lon="12.0334883"><ele>94.0</ele><time>2026-05-03T10:11:57.993Z</time></trkpt><trkpt lat="42.0351217" lon="12.03352"><ele>90.66666666666666</ele><time>2026-05-03T10:11:58.992Z</time></trkpt><trkpt lat="42.0349433" lon="12.0335717"><ele>87.33333333333333</ele><time>2026-05-03T10:11:59.993Z</time></trkpt><trkpt lat="42.034765" lon="12.0336433"><ele>84.0</ele><time>2026-05-03T10:12:00.987Z</time></trkpt><trkpt lat="42.034585" lon="12.033735"><ele>84.0</ele><time>2026-05-03T10:12:01.987Z</time></trkpt><trkpt lat="42.0344033" lon="12.0338417"><ele>84.0</ele><time>2026-05-03T10:12:02.994Z</time></trkpt><trkpt lat="42.0342233" lon="12.0339567"><ele>84.0</ele><time>2026-05-03T10:12:03.99Z</time></trkpt><trkpt lat="42.0340483" lon="12.0340683"><ele>86.0</ele><time>2026-05-03T10:12:04.992Z</time></trkpt><trkpt lat="42.03388" lon="12.03417"><ele>88.0</ele><time>2026-05-03T10:12:05.992Z</time></trkpt><trkpt lat="42.0337133" lon="12.0342467"><ele>90.0</ele><time>2026-05-03T10:12:06.987Z</time></trkpt><trkpt lat="42.03355" lon="12.0342917"><ele>90.0</ele><time>2026-05-03T10:12:07.992Z</time></trkpt><trkpt lat="42.0333833" lon="12.0343067"><ele>90.0</ele><time>2026-05-03T10:12:08.994Z</time></trkpt><trkpt lat="42.0332133" lon="12.034285"><ele>90.0</ele><time>2026-05-03T10:12:09.984Z</time></trkpt><trkpt lat="42.0330367" lon="12.034245"><ele>90.33333333333333</ele><time>2026-05-03T10:12:10.992Z</time></trkpt><trkpt lat="42.03285" lon="12.0342033"><ele>90.66666666666666</ele><time>2026-05-03T10:12:11.993Z</time></trkpt><trkpt lat="42.0326567" lon="12.0341617"><ele>91.0</ele><time>2026-05-03T10:12:12.989Z</time></trkpt><trkpt lat="42.0324583" lon="12.0341183"><ele>91.0</ele><time>2026-05-03T10:12:13.994Z</time></trkpt><trkpt lat="42.0322617" lon="12.034075"><ele>91.0</ele><time>2026-05-03T10:12:14.994Z</time></trkpt><trkpt lat="42.032075" lon="12.03403"><ele>91.0</ele><time>2026-05-03T10:12:15.994Z</time></trkpt><trkpt lat="42.0318967" lon="12.0339817"><ele>91.0</ele><time>2026-05-03T10:12:16.994Z</time></trkpt><trkpt lat="42.0317283" lon="12.0339183"><ele>91.0</ele><time>2026-05-03T10:12:17.991Z</time></trkpt><trkpt lat="42.03157" lon="12.033835"><ele>91.0</ele><time>2026-05-03T10:12:18.985Z</time></trkpt><trkpt lat="42.031415" lon="12.033725"><ele>88.0</ele><time>2026-05-03T10:12:19.995Z</time></trkpt><trkpt lat="42.0312567" lon="12.0336067"><ele>85.0</ele><time>2026-05-03T10:12:20.995Z</time></trkpt><trkpt lat="42.0310983" lon="12.033475"><ele>82.0</ele><time>2026-05-03T10:12:21.989Z</time></trkpt><trkpt lat="42.0309383" lon="12.033335"><ele>82.33333333333333</ele><time>2026-05-03T10:12:22.991Z</time></trkpt><trkpt lat="42.0307733" lon="12.0331883"><ele>82.66666666666667</ele><time>2026-05-03T10:12:23.983Z</time></trkpt><trkpt lat="42.0306083" lon="12.0330433"><ele>83.0</ele><time>2026-05-03T10:12:24.989Z</time></trkpt><trkpt lat="42.0304417" lon="12.0328983"><ele>83.0</ele><time>2026-05-03T10:12:25.991Z</time></trkpt><trkpt lat="42.0302733" lon="12.0327533"><ele>83.0</ele><time>2026-05-03T10:12:26.992Z</time></trkpt><trkpt lat="42.0301083" lon="12.0326117"><ele>83.0</ele><time>2026-05-03T10:12:27.988Z</time></trkpt><trkpt lat="42.0299517" lon="12.0324733"><ele>82.33333333333334</ele><time>2026-05-03T10:12:28.989Z</time></trkpt><trkpt lat="42.0298067" lon="12.0323333"><ele>81.66666666666667</ele><time>2026-05-03T10:12:29.994Z</time></trkpt><trkpt lat="42.0296767" lon="12.0321817"><ele>81.0</ele><time>2026-05-03T10:12:30.989Z</time></trkpt><trkpt lat="42.02956" lon="12.03201"><ele>81.0</ele><time>2026-05-03T10:12:31.994Z</time></trkpt><trkpt lat="42.0294583" lon="12.0318167"><ele>81.0</ele><time>2026-05-03T10:12:32.99Z</time></trkpt><trkpt lat="42.0293667" lon="12.0316033"><ele>81.0</ele><time>2026-05-03T10:12:33.985Z</time></trkpt><trkpt lat="42.029275" lon="12.0313883"><ele>80.0</ele><time>2026-05-03T10:12:34.989Z</time></trkpt><trkpt lat="42.02918" lon="12.0311867"><ele>79.0</ele><time>2026-05-03T10:12:35.993Z</time></trkpt><trkpt lat="42.0290783" lon="12.0309967"><ele>78.0</ele><time>2026-05-03T10:12:36.991Z</time></trkpt><trkpt lat="42.0289567" lon="12.0308333"><ele>75.66666666666667</ele><time>2026-05-03T10:12:37.989Z</time></trkpt><trkpt lat="42.0288183" lon="12.0306983"><ele>73.33333333333334</ele><time>2026-05-03T10:12:38.996Z</time></trkpt><trkpt lat="42.0286667" lon="12.0305867"><ele>71.0</ele><time>2026-05-03T10:12:39.993Z</time></trkpt><trkpt lat="42.0285017" lon="12.0304867"><ele>71.0</ele><time>2026-05-03T10:12:40.992Z</time></trkpt><trkpt lat="42.0283233" lon="12.0304017"><ele>71.0</ele><time>2026-05-03T10:12:41.991Z</time></trkpt><trkpt lat="42.0281333" lon="12.0303433"><ele>71.0</ele><time>2026-05-03T10:12:42.988Z</time></trkpt><trkpt lat="42.0279317" lon="12.0303033"><ele>70.0</ele><time>2026-05-03T10:12:43.99Z</time></trkpt><trkpt lat="42.0277233" lon="12.0302783"><ele>69.0</ele><time>2026-05-03T10:12:44.994Z</time></trkpt><trkpt lat="42.0275117" lon="12.030255"><ele>68.0</ele><time>2026-05-03T10:12:45.99Z</time></trkpt><trkpt lat="42.0272983" lon="12.0302267"><ele>67.66666666666667</ele><time>2026-05-03T10:12:46.99Z</time></trkpt><trkpt lat="42.02708" lon="12.030195"><ele>67.33333333333333</ele><time>2026-05-03T10:12:47.988Z</time></trkpt><trkpt lat="42.0268617" lon="12.0301667"><ele>67.0</ele><time>2026-05-03T10:12:48.988Z</time></trkpt><trkpt lat="42.0266433" lon="12.03014"><ele>65.33333333333333</ele><time>2026-05-03T10:12:49.988Z</time></trkpt><trkpt lat="42.0264317" lon="12.0301133"><ele>63.66666666666667</ele><time>2026-05-03T10:12:50.992Z</time></trkpt><trkpt lat="42.0262283" lon="12.030085"><ele>62.0</ele><time>2026-05-03T10:12:51.986Z</time></trkpt><trkpt lat="42.02603" lon="12.0300567"><ele>62.0</ele><time>2026-05-03T10:12:52.992Z</time></trkpt><trkpt lat="42.025835" lon="12.0300317"><ele>62.0</ele><time>2026-05-03T10:12:53.992Z</time></trkpt><trkpt lat="42.02564" lon="12.0300017"><ele>62.0</ele><time>2026-05-03T10:12:54.989Z</time></trkpt><trkpt lat="42.0254467" lon="12.0299617"><ele>61.0</ele><time>2026-05-03T10:12:55.995Z</time></trkpt><trkpt lat="42.0252533" lon="12.0299117"><ele>60.0</ele><time>2026-05-03T10:12:56.993Z</time></trkpt><trkpt lat="42.0250633" lon="12.0298433"><ele>59.0</ele><time>2026-05-03T10:12:57.992Z</time></trkpt><trkpt lat="42.0248717" lon="12.0297583"><ele>56.0</ele><time>2026-05-03T10:12:58.993Z</time></trkpt><trkpt lat="42.0246767" lon="12.0296683"><ele>53.0</ele><time>2026-05-03T10:12:59.992Z</time></trkpt><trkpt lat="42.0244783" lon="12.029585"><ele>50.0</ele><time>2026-05-03T10:13:00.998Z</time></trkpt><trkpt lat="42.0242783" lon="12.0295083"><ele>49.333333333333336</ele><time>2026-05-03T10:13:02.001Z</time></trkpt><trkpt lat="42.0240783" lon="12.0294333"><ele>48.66666666666667</ele><time>2026-05-03T10:13:02.992Z</time></trkpt><trkpt lat="42.0238783" lon="12.02936"><ele>48.0</ele><time>2026-05-03T10:13:03.992Z</time></trkpt><trkpt lat="42.02368" lon="12.0292867"><ele>48.0</ele><time>2026-05-03T10:13:04.991Z</time></trkpt><trkpt lat="42.02348" lon="12.029215"><ele>48.0</ele><time>2026-05-03T10:13:05.985Z</time></trkpt><trkpt lat="42.02328" lon="12.029145"><ele>48.0</ele><time>2026-05-03T10:13:06.992Z</time></trkpt><trkpt lat="42.0230817" lon="12.0290783"><ele>47.0</ele><time>2026-05-03T10:13:07.991Z</time></trkpt><trkpt lat="42.022885" lon="12.0290067"><ele>46.0</ele><time>2026-05-03T10:13:08.992Z</time></trkpt><trkpt lat="42.02269" lon="12.0289367"><ele>45.0</ele><time>2026-05-03T10:13:09.991Z</time></trkpt><trkpt lat="42.0224933" lon="12.0288617"><ele>44.0</ele><time>2026-05-03T10:13:10.984Z</time></trkpt><trkpt lat="42.0222983" lon="12.0287833"><ele>43.0</ele><time>2026-05-03T10:13:11.987Z</time></trkpt><trkpt lat="42.0220983" lon="12.0287067"><ele>42.0</ele><time>2026-05-03T10:13:12.988Z</time></trkpt><trkpt lat="42.0218967" lon="12.0286317"><ele>42.0</ele><time>2026-05-03T10:13:13.994Z</time></trkpt><trkpt lat="42.0216917" lon="12.0285567"><ele>42.0</ele><time>2026-05-03T10:13:14.987Z</time></trkpt><trkpt lat="42.0214867" lon="12.0284833"><ele>42.0</ele><time>2026-05-03T10:13:15.991Z</time></trkpt><trkpt lat="42.0212817" lon="12.0284067"><ele>41.333333333333336</ele><time>2026-05-03T10:13:16.987Z</time></trkpt><trkpt lat="42.0210783" lon="12.0283283"><ele>40.66666666666667</ele><time>2026-05-03T10:13:17.991Z</time></trkpt><trkpt lat="42.0208767" lon="12.02825"><ele>40.0</ele><time>2026-05-03T10:13:18.985Z</time></trkpt><trkpt lat="42.0206767" lon="12.02817"><ele>40.0</ele><time>2026-05-03T10:13:19.994Z</time></trkpt><trkpt lat="42.0204783" lon="12.0280917"><ele>40.0</ele><time>2026-05-03T10:13:20.986Z</time></trkpt><trkpt lat="42.0202817" lon="12.0280117"><ele>40.0</ele><time>2026-05-03T10:13:21.987Z</time></trkpt><trkpt lat="42.020085" lon="12.0279333"><ele>39.333333333333336</ele><time>2026-05-03T10:13:22.993Z</time></trkpt><trkpt lat="42.0198883" lon="12.0278533"><ele>38.666666666666664</ele><time>2026-05-03T10:13:23.994Z</time></trkpt><trkpt lat="42.01969" lon="12.027775"><ele>38.0</ele><time>2026-05-03T10:13:24.99Z</time></trkpt><trkpt lat="42.0194917" lon="12.0276983"><ele>38.0</ele><time>2026-05-03T10:13:25.992Z</time></trkpt><trkpt lat="42.019295" lon="12.02762"><ele>38.0</ele><time>2026-05-03T10:13:26.988Z</time></trkpt><trkpt lat="42.0190967" lon="12.0275383"><ele>38.0</ele><time>2026-05-03T10:13:27.986Z</time></trkpt><trkpt lat="42.0188983" lon="12.0274583"><ele>37.666666666666664</ele><time>2026-05-03T10:13:28.987Z</time></trkpt><trkpt lat="42.0186967" lon="12.0273767"><ele>37.333333333333336</ele><time>2026-05-03T10:13:29.992Z</time></trkpt><trkpt lat="42.0184933" lon="12.027295"><ele>37.0</ele><time>2026-05-03T10:13:30.99Z</time></trkpt><trkpt lat="42.0182867" lon="12.02721"><ele>37.0</ele><time>2026-05-03T10:13:31.996Z</time></trkpt><trkpt lat="42.018075" lon="12.0271217"><ele>37.0</ele><time>2026-05-03T10:13:32.989Z</time></trkpt><trkpt lat="42.0178633" lon="12.0270283"><ele>37.0</ele><time>2026-05-03T10:13:33.989Z</time></trkpt><trkpt lat="42.0176467" lon="12.0269317"><ele>36.0</ele><time>2026-05-03T10:13:34.994Z</time></trkpt><trkpt lat="42.017425" lon="12.026835"><ele>35.0</ele><time>2026-05-03T10:13:35.995Z</time></trkpt><trkpt lat="42.0172017" lon="12.02674"><ele>34.5</ele><time>2026-05-03T10:13:36.987Z</time></trkpt><trkpt lat="42.0169767" lon="12.0266417"><ele>34.0</ele><time>2026-05-03T10:13:37.993Z</time></trkpt><trkpt lat="42.0167517" lon="12.0265433"><ele>33.5</ele><time>2026-05-03T10:13:38.987Z</time></trkpt><trkpt lat="42.016525" lon="12.0264433"><ele>33.0</ele><time>2026-05-03T10:13:39.986Z</time></trkpt><trkpt lat="42.0163" lon="12.0263483"><ele>33.0</ele><time>2026-05-03T10:13:40.987Z</time></trkpt><trkpt lat="42.016075" lon="12.026255"><ele>33.0</ele><time>2026-05-03T10:13:41.991Z</time></trkpt><trkpt lat="42.01585" lon="12.02616"><ele>31.5</ele><time>2026-05-03T10:13:42.987Z</time></trkpt><trkpt lat="42.0156317" lon="12.026065"><ele>30.0</ele><time>2026-05-03T10:13:43.989Z</time></trkpt><trkpt lat="42.0154217" lon="12.025975"><ele>30.0</ele><time>2026-05-03T10:13:44.994Z</time></trkpt><trkpt lat="42.01522" lon="12.0258867"><ele>30.0</ele><time>2026-05-03T10:13:45.985Z</time></trkpt><trkpt lat="42.0150217" lon="12.025805"><ele>30.0</ele><time>2026-05-03T10:13:46.987Z</time></trkpt><trkpt lat="42.0148267" lon="12.0257217"><ele>29.333333333333336</ele><time>2026-05-03T10:13:47.99Z</time></trkpt><trkpt lat="42.0146417" lon="12.0256383"><ele>28.666666666666668</ele><time>2026-05-03T10:13:48.989Z</time></trkpt><trkpt lat="42.0144633" lon="12.0255617"><ele>28.0</ele><time>2026-05-03T10:13:49.991Z</time></trkpt><trkpt lat="42.014295" lon="12.0254867"><ele>28.333333333333336</ele><time>2026-05-03T10:13:50.987Z</time></trkpt><trkpt lat="42.01413" lon="12.0254167"><ele>28.666666666666664</ele><time>2026-05-03T10:13:51.988Z</time></trkpt><trkpt lat="42.0139767" lon="12.02535"><ele>29.0</ele><time>2026-05-03T10:13:52.99Z</time></trkpt><trkpt lat="42.013835" lon="12.0252883"><ele>29.0</ele><time>2026-05-03T10:13:53.99Z</time></trkpt><trkpt lat="42.0137067" lon="12.0252333"><ele>29.0</ele><time>2026-05-03T10:13:54.987Z</time></trkpt><trkpt lat="42.0135867" lon="12.0251867"><ele>29.0</ele><time>2026-05-03T10:13:55.992Z</time></trkpt><trkpt lat="42.0134783" lon="12.02514"><ele>29.0</ele><time>2026-05-03T10:13:56.985Z</time></trkpt><trkpt lat="42.0133833" lon="12.0250983"><ele>29.0</ele><time>2026-05-03T10:13:57.987Z</time></trkpt><trkpt lat="42.0132983" lon="12.0250633"><ele>29.0</ele><time>2026-05-03T10:13:58.99Z</time></trkpt><trkpt lat="42.0132133" lon="12.0250233"><ele>29.0</ele><time>2026-05-03T10:13:59.983Z</time></trkpt><trkpt lat="42.01312" lon="12.0249817"><ele>29.0</ele><time>2026-05-03T10:14:00.985Z</time></trkpt><trkpt lat="42.01302" lon="12.024935"><ele>29.0</ele><time>2026-05-03T10:14:01.989Z</time></trkpt><trkpt lat="42.01291" lon="12.024885"><ele>29.0</ele><time>2026-05-03T10:14:02.985Z</time></trkpt><trkpt lat="42.0127933" lon="12.0248317"><ele>29.0</ele><time>2026-05-03T10:14:03.989Z</time></trkpt><trkpt lat="42.0126733" lon="12.0247767"><ele>29.0</ele><time>2026-05-03T10:14:04.988Z</time></trkpt><trkpt lat="42.0125567" lon="12.0247233"><ele>29.0</ele><time>2026-05-03T10:14:05.99Z</time></trkpt><trkpt lat="42.01245" lon="12.0246767"><ele>28.799999999999997</ele><time>2026-05-03T10:14:06.992Z</time></trkpt><trkpt lat="42.0123483" lon="12.0246333"><ele>28.599999999999998</ele><time>2026-05-03T10:14:07.986Z</time></trkpt><trkpt lat="42.0122467" lon="12.0245917"><ele>28.4</ele><time>2026-05-03T10:14:08.988Z</time></trkpt><trkpt lat="42.0121383" lon="12.024545"><ele>28.2</ele><time>2026-05-03T10:14:09.986Z</time></trkpt><trkpt lat="42.0120267" lon="12.0244983"><ele>28.0</ele><time>2026-05-03T10:14:10.989Z</time></trkpt><trkpt lat="42.01191" lon="12.0244483"><ele>28.0</ele><time>2026-05-03T10:14:12.003Z</time></trkpt><trkpt lat="42.011795" lon="12.0244"><ele>28.0</ele><time>2026-05-03T10:14:12.989Z</time></trkpt><trkpt lat="42.0116833" lon="12.0243533"><ele>28.0</ele><time>2026-05-03T10:14:13.988Z</time></trkpt><trkpt lat="42.011575" lon="12.0243067"><ele>28.0</ele><time>2026-05-03T10:14:14.992Z</time></trkpt><trkpt lat="42.0114667" lon="12.0242583"><ele>27.25</ele><time>2026-05-03T10:14:15.986Z</time></trkpt><trkpt lat="42.0113567" lon="12.0242067"><ele>26.5</ele><time>2026-05-03T10:14:16.989Z</time></trkpt><trkpt lat="42.01124" lon="12.0241583"><ele>25.75</ele><time>2026-05-03T10:14:17.988Z</time></trkpt><trkpt lat="42.0111167" lon="12.0241067"><ele>25.0</ele><time>2026-05-03T10:14:18.994Z</time></trkpt><trkpt lat="42.0109867" lon="12.024055"><ele>24.75</ele><time>2026-05-03T10:14:19.987Z</time></trkpt><trkpt lat="42.0108467" lon="12.0240033"><ele>24.5</ele><time>2026-05-03T10:14:20.991Z</time></trkpt><trkpt lat="42.010705" lon="12.0239617"><ele>24.25</ele><time>2026-05-03T10:14:21.987Z</time></trkpt><trkpt lat="42.010565" lon="12.0239183"><ele>24.0</ele><time>2026-05-03T10:14:22.987Z</time></trkpt><trkpt lat="42.0104283" lon="12.0238717"><ele>24.0</ele><time>2026-05-03T10:14:23.989Z</time></trkpt><trkpt lat="42.010295" lon="12.0238083"><ele>24.0</ele><time>2026-05-03T10:14:24.995Z</time></trkpt><trkpt lat="42.010165" lon="12.023735"><ele>24.0</ele><time>2026-05-03T10:14:25.987Z</time></trkpt><trkpt lat="42.0100417" lon="12.0236533"><ele>24.0</ele><time>2026-05-03T10:14:26.99Z</time></trkpt><trkpt lat="42.0099167" lon="12.023565"><ele>24.25</ele><time>2026-05-03T10:14:27.989Z</time></trkpt><trkpt lat="42.0097917" lon="12.0234767"><ele>24.5</ele><time>2026-05-03T10:14:28.994Z</time></trkpt><trkpt lat="42.00966" lon="12.0233917"><ele>24.75</ele><time>2026-05-03T10:14:29.991Z</time></trkpt><trkpt lat="42.0095217" lon="12.0233183"><ele>25.0</ele><time>2026-05-03T10:14:30.992Z</time></trkpt><trkpt lat="42.00938" lon="12.0232567"><ele>24.25</ele><time>2026-05-03T10:14:31.993Z</time></trkpt><trkpt lat="42.0092367" lon="12.023205"><ele>23.5</ele><time>2026-05-03T10:14:32.986Z</time></trkpt><trkpt lat="42.0090917" lon="12.0231583"><ele>22.75</ele><time>2026-05-03T10:14:33.984Z</time></trkpt><trkpt lat="42.008945" lon="12.0231117"><ele>22.0</ele><time>2026-05-03T10:14:34.992Z</time></trkpt><trkpt lat="42.0087917" lon="12.0230617"><ele>21.666666666666664</ele><time>2026-05-03T10:14:35.989Z</time></trkpt><trkpt lat="42.0086317" lon="12.023005"><ele>21.333333333333332</ele><time>2026-05-03T10:14:36.988Z</time></trkpt><trkpt lat="42.00847" lon="12.0229383"><ele>21.0</ele><time>2026-05-03T10:14:37.988Z</time></trkpt><trkpt lat="42.00831" lon="12.0228683"><ele>21.0</ele><time>2026-05-03T10:14:38.986Z</time></trkpt><trkpt lat="42.008155" lon="12.0228"><ele>21.0</ele><time>2026-05-03T10:14:39.987Z</time></trkpt><trkpt lat="42.008005" lon="12.022735"><ele>21.0</ele><time>2026-05-03T10:14:40.981Z</time></trkpt><trkpt lat="42.0078667" lon="12.0226717"><ele>21.0</ele><time>2026-05-03T10:14:41.989Z</time></trkpt><trkpt lat="42.007735" lon="12.0226083"><ele>21.0</ele><time>2026-05-03T10:14:42.989Z</time></trkpt><trkpt lat="42.00761" lon="12.0225467"><ele>21.0</ele><time>2026-05-03T10:14:43.987Z</time></trkpt><trkpt lat="42.007485" lon="12.0224867"><ele>21.0</ele><time>2026-05-03T10:14:44.98Z</time></trkpt><trkpt lat="42.0073583" lon="12.02243"><ele>20.75</ele><time>2026-05-03T10:14:45.986Z</time></trkpt><trkpt lat="42.00723" lon="12.022375"><ele>20.5</ele><time>2026-05-03T10:14:46.985Z</time></trkpt><trkpt lat="42.0070967" lon="12.0223167"><ele>20.25</ele><time>2026-05-03T10:14:47.993Z</time></trkpt><trkpt lat="42.006955" lon="12.0222583"><ele>20.0</ele><time>2026-05-03T10:14:48.992Z</time></trkpt><trkpt lat="42.0068117" lon="12.0221967"><ele>20.0</ele><time>2026-05-03T10:14:49.988Z</time></trkpt><trkpt lat="42.006675" lon="12.02214"><ele>20.0</ele><time>2026-05-03T10:14:50.992Z</time></trkpt><trkpt lat="42.0065483" lon="12.022085"><ele>20.0</ele><time>2026-05-03T10:14:51.985Z</time></trkpt><trkpt lat="42.006435" lon="12.02203"><ele>20.0</ele><time>2026-05-03T10:14:52.985Z</time></trkpt><trkpt lat="42.0063233" lon="12.0219767"><ele>20.0</ele><time>2026-05-03T10:14:53.989Z</time></trkpt><trkpt lat="42.006215" lon="12.0219283"><ele>20.0</ele><time>2026-05-03T10:14:54.987Z</time></trkpt><trkpt lat="42.00611" lon="12.0218817"><ele>20.0</ele><time>2026-05-03T10:14:55.989Z</time></trkpt><trkpt lat="42.00601" lon="12.0218367"><ele>20.0</ele><time>2026-05-03T10:14:56.99Z</time></trkpt><trkpt lat="42.00591" lon="12.0217933"><ele>20.0</ele><time>2026-05-03T10:14:57.987Z</time></trkpt><trkpt lat="42.0058083" lon="12.0217467"><ele>19.5</ele><time>2026-05-03T10:14:58.989Z</time></trkpt><trkpt lat="42.0056983" lon="12.0216983"><ele>19.0</ele><time>2026-05-03T10:14:59.987Z</time></trkpt><trkpt lat="42.0055817" lon="12.02165"><ele>18.5</ele><time>2026-05-03T10:15:00.992Z</time></trkpt><trkpt lat="42.0054617" lon="12.0216033"><ele>18.0</ele><time>2026-05-03T10:15:01.987Z</time></trkpt><trkpt lat="42.00534" lon="12.0215517"><ele>17.75</ele><time>2026-05-03T10:15:02.988Z</time></trkpt><trkpt lat="42.00521" lon="12.0214967"><ele>17.5</ele><time>2026-05-03T10:15:03.987Z</time></trkpt><trkpt lat="42.0050683" lon="12.0214383"><ele>17.25</ele><time>2026-05-03T10:15:04.992Z</time></trkpt><trkpt lat="42.0049117" lon="12.021375"><ele>17.0</ele><time>2026-05-03T10:15:05.987Z</time></trkpt><trkpt lat="42.0047417" lon="12.0213067"><ele>16.666666666666668</ele><time>2026-05-03T10:15:06.986Z</time></trkpt><trkpt lat="42.0045517" lon="12.0212333"><ele>16.333333333333332</ele><time>2026-05-03T10:15:07.988Z</time></trkpt><trkpt lat="42.0043517" lon="12.0211483"><ele>16.0</ele><time>2026-05-03T10:15:08.986Z</time></trkpt><trkpt lat="42.0041467" lon="12.0210533"><ele>16.0</ele><time>2026-05-03T10:15:09.984Z</time></trkpt><trkpt lat="42.0039367" lon="12.0209517"><ele>16.0</ele><time>2026-05-03T10:15:10.992Z</time></trkpt><trkpt lat="42.0037317" lon="12.0208533"><ele>16.0</ele><time>2026-05-03T10:15:11.986Z</time></trkpt><trkpt lat="42.0035317" lon="12.02076"><ele>16.0</ele><time>2026-05-03T10:15:12.99Z</time></trkpt><trkpt lat="42.0033333" lon="12.02067"><ele>16.0</ele><time>2026-05-03T10:15:13.988Z</time></trkpt><trkpt lat="42.0031367" lon="12.0205817"><ele>16.0</ele><time>2026-05-03T10:15:14.988Z</time></trkpt><trkpt lat="42.0029383" lon="12.020495"><ele>15.0</ele><time>2026-05-03T10:15:15.988Z</time></trkpt><trkpt lat="42.00274" lon="12.0204067"><ele>14.0</ele><time>2026-05-03T10:15:16.992Z</time></trkpt><trkpt lat="42.0025417" lon="12.0203217"><ele>13.0</ele><time>2026-05-03T10:15:17.988Z</time></trkpt><trkpt lat="42.00234" lon="12.0202333"><ele>12.666666666666666</ele><time>2026-05-03T10:15:18.992Z</time></trkpt><trkpt lat="42.0021383" lon="12.0201433"><ele>12.333333333333332</ele><time>2026-05-03T10:15:19.992Z</time></trkpt><trkpt lat="42.0019367" lon="12.0200517"><ele>12.0</ele><time>2026-05-03T10:15:20.989Z</time></trkpt><trkpt lat="42.001735" lon="12.0199633"><ele>12.0</ele><time>2026-05-03T10:15:21.99Z</time></trkpt><trkpt lat="42.0015333" lon="12.019875"><ele>12.0</ele><time>2026-05-03T10:15:22.991Z</time></trkpt><trkpt lat="42.0013317" lon="12.0197883"><ele>12.0</ele><time>2026-05-03T10:15:23.99Z</time></trkpt><trkpt lat="42.0011367" lon="12.0197033"><ele>12.0</ele><time>2026-05-03T10:15:24.986Z</time></trkpt><trkpt lat="42.0009433" lon="12.0196183"><ele>12.0</ele><time>2026-05-03T10:15:25.987Z</time></trkpt><trkpt lat="42.0007583" lon="12.0195333"><ele>12.0</ele><time>2026-05-03T10:15:26.99Z</time></trkpt><trkpt lat="42.0005767" lon="12.0194533"><ele>11.333333333333334</ele><time>2026-05-03T10:15:27.99Z</time></trkpt><trkpt lat="42.0004017" lon="12.019375"><ele>10.666666666666668</ele><time>2026-05-03T10:15:28.987Z</time></trkpt><trkpt lat="42.000235" lon="12.0193"><ele>10.0</ele><time>2026-05-03T10:15:29.987Z</time></trkpt><trkpt lat="42.0000733" lon="12.0192267"><ele>10.0</ele><time>2026-05-03T10:15:30.992Z</time></trkpt><trkpt lat="41.9999133" lon="12.0191533"><ele>10.0</ele><time>2026-05-03T10:15:31.988Z</time></trkpt><trkpt lat="41.9997567" lon="12.01908"><ele>10.0</ele><time>2026-05-03T10:15:32.989Z</time></trkpt><trkpt lat="41.9996033" lon="12.0190083"><ele>9.666666666666668</ele><time>2026-05-03T10:15:33.986Z</time></trkpt><trkpt lat="41.9994517" lon="12.018945"><ele>9.333333333333334</ele><time>2026-05-03T10:15:34.988Z</time></trkpt><trkpt lat="41.9993083" lon="12.0188833"><ele>9.0</ele><time>2026-05-03T10:15:35.991Z</time></trkpt><trkpt lat="41.9991717" lon="12.0188233"><ele>9.0</ele><time>2026-05-03T10:15:36.988Z</time></trkpt><trkpt lat="41.9990367" lon="12.018765"><ele>9.0</ele><time>2026-05-03T10:15:37.989Z</time></trkpt><trkpt lat="41.9989067" lon="12.0187083"><ele>9.0</ele><time>2026-05-03T10:15:38.991Z</time></trkpt><trkpt lat="41.9987833" lon="12.01865"><ele>9.0</ele><time>2026-05-03T10:15:39.989Z</time></trkpt><trkpt lat="41.998665" lon="12.0185933"><ele>9.0</ele><time>2026-05-03T10:15:40.988Z</time></trkpt><trkpt lat="41.9985533" lon="12.01854"><ele>9.0</ele><time>2026-05-03T10:15:41.989Z</time></trkpt><trkpt lat="41.9984567" lon="12.0184833"><ele>9.0</ele><time>2026-05-03T10:15:42.99Z</time></trkpt><trkpt lat="41.9983817" lon="12.0184183"><ele>9.0</ele><time>2026-05-03T10:15:43.987Z</time></trkpt><trkpt lat="41.9983233" lon="12.0183417"><ele>9.0</ele><time>2026-05-03T10:15:44.994Z</time></trkpt><trkpt lat="41.9982867" lon="12.01825"><ele>9.166666666666666</ele><time>2026-05-03T10:15:45.988Z</time></trkpt><trkpt lat="41.9982683" lon="12.0181483"><ele>9.333333333333334</ele><time>2026-05-03T10:15:46.985Z</time></trkpt><trkpt lat="41.998265" lon="12.0180383"><ele>9.5</ele><time>2026-05-03T10:15:47.991Z</time></trkpt><trkpt lat="41.99828" lon="12.017925"><ele>9.666666666666668</ele><time>2026-05-03T10:15:48.991Z</time></trkpt><trkpt lat="41.9983067" lon="12.0178067"><ele>9.833333333333334</ele><time>2026-05-03T10:15:49.989Z</time></trkpt><trkpt lat="41.9983467" lon="12.0176883"><ele>10.0</ele><time>2026-05-03T10:15:50.988Z</time></trkpt><trkpt lat="41.9983933" lon="12.0175667"><ele>10.5</ele><time>2026-05-03T10:15:51.99Z</time></trkpt><trkpt lat="41.9984483" lon="12.0174383"><ele>11.0</ele><time>2026-05-03T10:15:52.993Z</time></trkpt><trkpt lat="41.9985067" lon="12.0173"><ele>11.5</ele><time>2026-05-03T10:15:53.988Z</time></trkpt><trkpt lat="41.99857" lon="12.0171533"><ele>12.0</ele><time>2026-05-03T10:15:54.992Z</time></trkpt><trkpt lat="41.99864" lon="12.0169983"><ele>12.0</ele><time>2026-05-03T10:15:55.991Z</time></trkpt><trkpt lat="41.9987183" lon="12.0168367"><ele>12.0</ele><time>2026-05-03T10:15:56.991Z</time></trkpt><trkpt lat="41.998795" lon="12.0166683"><ele>12.0</ele><time>2026-05-03T10:15:57.994Z</time></trkpt><trkpt lat="41.9988783" lon="12.0165"><ele>12.0</ele><time>2026-05-03T10:15:58.989Z</time></trkpt><trkpt lat="41.99896" lon="12.0163367"><ele>12.0</ele><time>2026-05-03T10:15:59.989Z</time></trkpt><trkpt lat="41.9990417" lon="12.016185"><ele>12.0</ele><time>2026-05-03T10:16:00.988Z</time></trkpt><trkpt lat="41.9991217" lon="12.0160333"><ele>12.0</ele><time>2026-05-03T10:16:01.993Z</time></trkpt><trkpt lat="41.9992017" lon="12.01588"><ele>12.0</ele><time>2026-05-03T10:16:02.988Z</time></trkpt><trkpt lat="41.9992817" lon="12.01572"><ele>12.0</ele><time>2026-05-03T10:16:03.991Z</time></trkpt><trkpt lat="41.999365" lon="12.01556"><ele>12.0</ele><time>2026-05-03T10:16:04.99Z</time></trkpt><trkpt lat="41.99945" lon="12.0153967"><ele>12.0</ele><time>2026-05-03T10:16:05.99Z</time></trkpt><trkpt lat="41.999535" lon="12.0152233"><ele>12.0</ele><time>2026-05-03T10:16:06.99Z</time></trkpt><trkpt lat="41.999625" lon="12.0150333"><ele>11.666666666666666</ele><time>2026-05-03T10:16:07.988Z</time></trkpt><trkpt lat="41.9997233" lon="12.0148267"><ele>11.333333333333332</ele><time>2026-05-03T10:16:08.985Z</time></trkpt><trkpt lat="41.999835" lon="12.0146"><ele>11.0</ele><time>2026-05-03T10:16:09.988Z</time></trkpt><trkpt lat="41.999955" lon="12.0143683"><ele>11.0</ele><time>2026-05-03T10:16:10.983Z</time></trkpt><trkpt lat="42.000075" lon="12.0141333"><ele>11.0</ele><time>2026-05-03T10:16:11.99Z</time></trkpt><trkpt lat="42.0001983" lon="12.0138933"><ele>11.0</ele><time>2026-05-03T10:16:12.993Z</time></trkpt><trkpt lat="42.0003233" lon="12.0136383"><ele>11.0</ele><time>2026-05-03T10:16:13.991Z</time></trkpt><trkpt lat="42.0004517" lon="12.01337"><ele>11.0</ele><time>2026-05-03T10:16:14.989Z</time></trkpt><trkpt lat="42.00059" lon="12.0130917"><ele>10.5</ele><time>2026-05-03T10:16:15.987Z</time></trkpt><trkpt lat="42.0007383" lon="12.012805"><ele>10.0</ele><time>2026-05-03T10:16:16.99Z</time></trkpt><trkpt lat="42.000895" lon="12.012515"><ele>10.0</ele><time>2026-05-03T10:16:17.992Z</time></trkpt><trkpt lat="42.001055" lon="12.0122133"><ele>10.0</ele><time>2026-05-03T10:16:18.99Z</time></trkpt><trkpt lat="42.0012183" lon="12.0119067"><ele>10.5</ele><time>2026-05-03T10:16:19.995Z</time></trkpt><trkpt lat="42.001375" lon="12.011605"><ele>11.0</ele><time>2026-05-03T10:16:21Z</time></trkpt><trkpt lat="42.0015267" lon="12.0113117"><ele>11.0</ele><time>2026-05-03T10:16:21.984Z</time></trkpt><trkpt lat="42.0016767" lon="12.0110317"><ele>11.0</ele><time>2026-05-03T10:16:22.988Z</time></trkpt><trkpt lat="42.001825" lon="12.0107683"><ele>11.0</ele><time>2026-05-03T10:16:23.989Z</time></trkpt><trkpt lat="42.0019683" lon="12.01052"><ele>11.0</ele><time>2026-05-03T10:16:24.991Z</time></trkpt><trkpt lat="42.0021083" lon="12.010285"><ele>11.0</ele><time>2026-05-03T10:16:25.997Z</time></trkpt><trkpt lat="42.0022483" lon="12.0100667"><ele>11.0</ele><time>2026-05-03T10:16:26.994Z</time></trkpt><trkpt lat="42.0023867" lon="12.0098583"><ele>11.0</ele><time>2026-05-03T10:16:27.981Z</time></trkpt><trkpt lat="42.0025217" lon="12.0096567"><ele>11.0</ele><time>2026-05-03T10:16:28.99Z</time></trkpt><trkpt lat="42.0026483" lon="12.00946"><ele>11.0</ele><time>2026-05-03T10:16:29.989Z</time></trkpt><trkpt lat="42.0027667" lon="12.0092717"><ele>11.0</ele><time>2026-05-03T10:16:30.99Z</time></trkpt><trkpt lat="42.002875" lon="12.0090883"><ele>11.0</ele><time>2026-05-03T10:16:31.989Z</time></trkpt><trkpt lat="42.002975" lon="12.008895"><ele>11.0</ele><time>2026-05-03T10:16:32.991Z</time></trkpt><trkpt lat="42.003065" lon="12.0086933"><ele>11.0</ele><time>2026-05-03T10:16:33.992Z</time></trkpt><trkpt lat="42.0031467" lon="12.0084767"><ele>10.0</ele><time>2026-05-03T10:16:34.99Z</time></trkpt><trkpt lat="42.0032183" lon="12.0082517"><ele>9.0</ele><time>2026-05-03T10:16:35.992Z</time></trkpt><trkpt lat="42.0032767" lon="12.0080333"><ele>8.0</ele><time>2026-05-03T10:16:36.991Z</time></trkpt><trkpt lat="42.0033267" lon="12.0078167"><ele>9.0</ele><time>2026-05-03T10:16:37.994Z</time></trkpt><trkpt lat="42.0033683" lon="12.007595"><ele>10.0</ele><time>2026-05-03T10:16:38.988Z</time></trkpt><trkpt lat="42.0033983" lon="12.0073733"><ele>11.0</ele><time>2026-05-03T10:16:39.992Z</time></trkpt><trkpt lat="42.003425" lon="12.0071533"><ele>11.0</ele><time>2026-05-03T10:16:40.988Z</time></trkpt><trkpt lat="42.0034517" lon="12.0069217"><ele>11.0</ele><time>2026-05-03T10:16:41.993Z</time></trkpt><trkpt lat="42.0034817" lon="12.0066683"><ele>11.0</ele><time>2026-05-03T10:16:42.998Z</time></trkpt><trkpt lat="42.0035167" lon="12.0063967"><ele>11.0</ele><time>2026-05-03T10:16:43.992Z</time></trkpt><trkpt lat="42.003555" lon="12.0061083"><ele>11.0</ele><time>2026-05-03T10:16:44.99Z</time></trkpt><trkpt lat="42.003595" lon="12.0058033"><ele>11.0</ele><time>2026-05-03T10:16:45.988Z</time></trkpt><trkpt lat="42.0036367" lon="12.0054783"><ele>11.0</ele><time>2026-05-03T10:16:46.987Z</time></trkpt><trkpt lat="42.0036867" lon="12.005135"><ele>11.0</ele><time>2026-05-03T10:16:47.99Z</time></trkpt><trkpt lat="42.0037383" lon="12.0047883"><ele>10.5</ele><time>2026-05-03T10:16:48.989Z</time></trkpt><trkpt lat="42.0037983" lon="12.0044433"><ele>10.0</ele><time>2026-05-03T10:16:49.991Z</time></trkpt><trkpt lat="42.0038667" lon="12.0040967"><ele>9.0</ele><time>2026-05-03T10:16:50.994Z</time></trkpt><trkpt lat="42.003945" lon="12.00375"><ele>8.0</ele><time>2026-05-03T10:16:51.989Z</time></trkpt><trkpt lat="42.0040317" lon="12.0034017"><ele>7.5</ele><time>2026-05-03T10:16:52.985Z</time></trkpt><trkpt lat="42.0041183" lon="12.0030633"><ele>7.0</ele><time>2026-05-03T10:16:53.989Z</time></trkpt><trkpt lat="42.00421" lon="12.0027317"><ele>7.0</ele><time>2026-05-03T10:16:54.992Z</time></trkpt><trkpt lat="42.0043117" lon="12.0024067"><ele>7.0</ele><time>2026-05-03T10:16:55.993Z</time></trkpt><trkpt lat="42.0044267" lon="12.0020867"><ele>7.0</ele><time>2026-05-03T10:16:56.991Z</time></trkpt><trkpt lat="42.00455" lon="12.001765"><ele>7.0</ele><time>2026-05-03T10:16:57.988Z</time></trkpt><trkpt lat="42.00468" lon="12.001445"><ele>6.5</ele><time>2026-05-03T10:16:58.993Z</time></trkpt><trkpt lat="42.0048067" lon="12.0011183"><ele>6.0</ele><time>2026-05-03T10:16:59.982Z</time></trkpt><trkpt lat="42.00494" lon="12.000795"><ele>6.0</ele><time>2026-05-03T10:17:00.988Z</time></trkpt><trkpt lat="42.00507" lon="12.00047"><ele>6.0</ele><time>2026-05-03T10:17:01.991Z</time></trkpt><trkpt lat="42.0052033" lon="12.0001433"><ele>6.0</ele><time>2026-05-03T10:17:02.992Z</time></trkpt><trkpt lat="42.0053333" lon="11.999815"><ele>6.0</ele><time>2026-05-03T10:17:03.992Z</time></trkpt><trkpt lat="42.0054633" lon="11.9994817"><ele>5.5</ele><time>2026-05-03T10:17:04.991Z</time></trkpt><trkpt lat="42.005595" lon="11.999145"><ele>5.0</ele><time>2026-05-03T10:17:05.99Z</time></trkpt><trkpt lat="42.0057283" lon="11.998805"><ele>5.0</ele><time>2026-05-03T10:17:06.989Z</time></trkpt><trkpt lat="42.005865" lon="11.9984617"><ele>5.0</ele><time>2026-05-03T10:17:07.987Z</time></trkpt><trkpt lat="42.0060017" lon="11.9981167"><ele>5.0</ele><time>2026-05-03T10:17:09.002Z</time></trkpt><trkpt lat="42.0061433" lon="11.9977683"><ele>5.0</ele><time>2026-05-03T10:17:09.998Z</time></trkpt><trkpt lat="42.006285" lon="11.9974217"><ele>5.5</ele><time>2026-05-03T10:17:10.987Z</time></trkpt><trkpt lat="42.0064233" lon="11.9970783"><ele>6.0</ele><time>2026-05-03T10:17:11.994Z</time></trkpt><trkpt lat="42.0065617" lon="11.9967433"><ele>6.0</ele><time>2026-05-03T10:17:12.989Z</time></trkpt><trkpt lat="42.0066983" lon="11.99641"><ele>6.0</ele><time>2026-05-03T10:17:13.991Z</time></trkpt><trkpt lat="42.0068367" lon="11.9960783"><ele>5.5</ele><time>2026-05-03T10:17:14.987Z</time></trkpt><trkpt lat="42.0069733" lon="11.9957467"><ele>5.0</ele><time>2026-05-03T10:17:15.993Z</time></trkpt><trkpt lat="42.00711" lon="11.9954133"><ele>5.0</ele><time>2026-05-03T10:17:16.991Z</time></trkpt><trkpt lat="42.00725" lon="11.99508"><ele>5.0</ele><time>2026-05-03T10:17:17.987Z</time></trkpt><trkpt lat="42.00739" lon="11.9947417"><ele>6.0</ele><time>2026-05-03T10:17:18.991Z</time></trkpt><trkpt lat="42.0075317" lon="11.9944017"><ele>7.0</ele><time>2026-05-03T10:17:19.988Z</time></trkpt><trkpt lat="42.007675" lon="11.994055"><ele>7.0</ele><time>2026-05-03T10:17:20.991Z</time></trkpt><trkpt lat="42.0078217" lon="11.9937033"><ele>7.0</ele><time>2026-05-03T10:17:21.995Z</time></trkpt><trkpt lat="42.0079633" lon="11.9933483"><ele>6.0</ele><time>2026-05-03T10:17:22.991Z</time></trkpt><trkpt lat="42.0081067" lon="11.992995"><ele>5.0</ele><time>2026-05-03T10:17:23.99Z</time></trkpt><trkpt lat="42.0082517" lon="11.992645"><ele>5.5</ele><time>2026-05-03T10:17:24.996Z</time></trkpt><trkpt lat="42.0083967" lon="11.9922967"><ele>6.0</ele><time>2026-05-03T10:17:25.986Z</time></trkpt><trkpt lat="42.00854" lon="11.99195"><ele>5.5</ele><time>2026-05-03T10:17:26.991Z</time></trkpt><trkpt lat="42.0086817" lon="11.9916"><ele>5.0</ele><time>2026-05-03T10:17:27.989Z</time></trkpt><trkpt lat="42.0088233" lon="11.9912517"><ele>5.0</ele><time>2026-05-03T10:17:28.988Z</time></trkpt><trkpt lat="42.0089617" lon="11.9909083"><ele>5.0</ele><time>2026-05-03T10:17:29.985Z</time></trkpt><trkpt lat="42.0091017" lon="11.9905717"><ele>6.0</ele><time>2026-05-03T10:17:30.987Z</time></trkpt><trkpt lat="42.0092367" lon="11.9902417"><ele>7.0</ele><time>2026-05-03T10:17:31.994Z</time></trkpt><trkpt lat="42.0093717" lon="11.9899167"><ele>7.5</ele><time>2026-05-03T10:17:32.99Z</time></trkpt><trkpt lat="42.0095067" lon="11.9895967"><ele>8.0</ele><time>2026-05-03T10:17:33.993Z</time></trkpt><trkpt lat="42.0096433" lon="11.9892783"><ele>7.5</ele><time>2026-05-03T10:17:34.991Z</time></trkpt><trkpt lat="42.009775" lon="11.9889617"><ele>7.0</ele><time>2026-05-03T10:17:35.988Z</time></trkpt><trkpt lat="42.0099067" lon="11.98865"><ele>7.0</ele><time>2026-05-03T10:17:36.986Z</time></trkpt><trkpt lat="42.0100383" lon="11.9883417"><ele>7.0</ele><time>2026-05-03T10:17:37.986Z</time></trkpt><trkpt lat="42.010175" lon="11.9880367"><ele>7.0</ele><time>2026-05-03T10:17:38.988Z</time></trkpt><trkpt lat="42.0103133" lon="11.9877317"><ele>7.0</ele><time>2026-05-03T10:17:39.991Z</time></trkpt><trkpt lat="42.010455" lon="11.9874317"><ele>6.0</ele><time>2026-05-03T10:17:40.981Z</time></trkpt><trkpt lat="42.0105983" lon="11.9871283"><ele>5.0</ele><time>2026-05-03T10:17:41.984Z</time></trkpt><trkpt lat="42.0107417" lon="11.9868267"><ele>6.0</ele><time>2026-05-03T10:17:42.992Z</time></trkpt><trkpt lat="42.010885" lon="11.986525"><ele>7.0</ele><time>2026-05-03T10:17:43.99Z</time></trkpt><trkpt lat="42.011025" lon="11.98622"><ele>7.0</ele><time>2026-05-03T10:17:44.992Z</time></trkpt><trkpt lat="42.0111617" lon="11.9859117"><ele>7.0</ele><time>2026-05-03T10:17:45.989Z</time></trkpt><trkpt lat="42.0112967" lon="11.9855983"><ele>6.0</ele><time>2026-05-03T10:17:46.992Z</time></trkpt><trkpt lat="42.0114283" lon="11.9852817"><ele>5.0</ele><time>2026-05-03T10:17:47.991Z</time></trkpt><trkpt lat="42.01156" lon="11.9849617"><ele>5.0</ele><time>2026-05-03T10:17:48.988Z</time></trkpt><trkpt lat="42.0116917" lon="11.9846417"><ele>5.0</ele><time>2026-05-03T10:17:49.989Z</time></trkpt><trkpt lat="42.0118233" lon="11.9843267"><ele>4.5</ele><time>2026-05-03T10:17:50.99Z</time></trkpt><trkpt lat="42.0119533" lon="11.9840117"><ele>4.0</ele><time>2026-05-03T10:17:51.99Z</time></trkpt><trkpt lat="42.012085" lon="11.983695"><ele>4.0</ele><time>2026-05-03T10:17:53.002Z</time></trkpt><trkpt lat="42.01222" lon="11.9833733"><ele>4.0</ele><time>2026-05-03T10:17:53.99Z</time></trkpt><trkpt lat="42.0123567" lon="11.98305"><ele>5.0</ele><time>2026-05-03T10:17:54.988Z</time></trkpt><trkpt lat="42.0124933" lon="11.982725"><ele>6.0</ele><time>2026-05-03T10:17:55.988Z</time></trkpt><trkpt lat="42.01263" lon="11.9824"><ele>6.5</ele><time>2026-05-03T10:17:56.986Z</time></trkpt><trkpt lat="42.01277" lon="11.9820733"><ele>7.0</ele><time>2026-05-03T10:17:57.991Z</time></trkpt><trkpt lat="42.0129083" lon="11.981745"><ele>7.0</ele><time>2026-05-03T10:17:58.989Z</time></trkpt><trkpt lat="42.0130433" lon="11.9814167"><ele>7.0</ele><time>2026-05-03T10:17:59.989Z</time></trkpt><trkpt lat="42.0131783" lon="11.9810917"><ele>7.0</ele><time>2026-05-03T10:18:00.989Z</time></trkpt><trkpt lat="42.0133117" lon="11.9807683"><ele>7.0</ele><time>2026-05-03T10:18:01.992Z</time></trkpt><trkpt lat="42.013445" lon="11.9804467"><ele>7.0</ele><time>2026-05-03T10:18:02.984Z</time></trkpt><trkpt lat="42.0135783" lon="11.9801267"><ele>7.0</ele><time>2026-05-03T10:18:03.99Z</time></trkpt><trkpt lat="42.01371" lon="11.97981"><ele>7.0</ele><time>2026-05-03T10:18:04.99Z</time></trkpt><trkpt lat="42.0138367" lon="11.97949"><ele>7.0</ele><time>2026-05-03T10:18:05.995Z</time></trkpt><trkpt lat="42.0139667" lon="11.9791767"><ele>7.5</ele><time>2026-05-03T10:18:06.985Z</time></trkpt><trkpt lat="42.0140933" lon="11.97886"><ele>8.0</ele><time>2026-05-03T10:18:07.99Z</time></trkpt><trkpt lat="42.014225" lon="11.978545"><ele>7.5</ele><time>2026-05-03T10:18:08.987Z</time></trkpt><trkpt lat="42.0143533" lon="11.97823"><ele>7.0</ele><time>2026-05-03T10:18:09.99Z</time></trkpt><trkpt lat="42.0144817" lon="11.977915"><ele>7.0</ele><time>2026-05-03T10:18:10.991Z</time></trkpt><trkpt lat="42.0146067" lon="11.9776033"><ele>7.0</ele><time>2026-05-03T10:18:11.991Z</time></trkpt><trkpt lat="42.0147267" lon="11.9772967"><ele>7.0</ele><time>2026-05-03T10:18:12.99Z</time></trkpt><trkpt lat="42.014845" lon="11.9769967"><ele>7.0</ele><time>2026-05-03T10:18:13.988Z</time></trkpt><trkpt lat="42.0149583" lon="11.9767017"><ele>8.0</ele><time>2026-05-03T10:18:14.99Z</time></trkpt><trkpt lat="42.01507" lon="11.9764117"><ele>9.0</ele><time>2026-05-03T10:18:15.991Z</time></trkpt><trkpt lat="42.015175" lon="11.9761283"><ele>9.0</ele><time>2026-05-03T10:18:16.99Z</time></trkpt><trkpt lat="42.0152733" lon="11.97586"><ele>9.0</ele><time>2026-05-03T10:18:17.988Z</time></trkpt><trkpt lat="42.01537" lon="11.9756"><ele>9.0</ele><time>2026-05-03T10:18:18.99Z</time></trkpt><trkpt lat="42.0154583" lon="11.9753517"><ele>9.0</ele><time>2026-05-03T10:18:19.991Z</time></trkpt><trkpt lat="42.0155483" lon="11.97511"><ele>9.0</ele><time>2026-05-03T10:18:20.988Z</time></trkpt><trkpt lat="42.0156367" lon="11.9748683"><ele>9.0</ele><time>2026-05-03T10:18:21.988Z</time></trkpt><trkpt lat="42.015725" lon="11.9746233"><ele>9.333333333333334</ele><time>2026-05-03T10:18:22.987Z</time></trkpt><trkpt lat="42.0158167" lon="11.9743767"><ele>9.666666666666668</ele><time>2026-05-03T10:18:23.992Z</time></trkpt><trkpt lat="42.01591" lon="11.9741233"><ele>10.0</ele><time>2026-05-03T10:18:24.992Z</time></trkpt><trkpt lat="42.016005" lon="11.9738617"><ele>9.333333333333334</ele><time>2026-05-03T10:18:25.994Z</time></trkpt><trkpt lat="42.0161083" lon="11.9735983"><ele>8.666666666666666</ele><time>2026-05-03T10:18:26.992Z</time></trkpt><trkpt lat="42.0162167" lon="11.9733283"><ele>8.0</ele><time>2026-05-03T10:18:27.99Z</time></trkpt><trkpt lat="42.0163267" lon="11.973055"><ele>7.0</ele><time>2026-05-03T10:18:28.99Z</time></trkpt><trkpt lat="42.01644" lon="11.9727817"><ele>6.0</ele><time>2026-05-03T10:18:29.994Z</time></trkpt><trkpt lat="42.0165533" lon="11.972505"><ele>6.5</ele><time>2026-05-03T10:18:30.994Z</time></trkpt><trkpt lat="42.016665" lon="11.9722317"><ele>7.0</ele><time>2026-05-03T10:18:31.989Z</time></trkpt><trkpt lat="42.016775" lon="11.971965"><ele>7.0</ele><time>2026-05-03T10:18:32.992Z</time></trkpt><trkpt lat="42.01688" lon="11.97171"><ele>7.0</ele><time>2026-05-03T10:18:33.989Z</time></trkpt><trkpt lat="42.0169817" lon="11.9714667"><ele>7.0</ele><time>2026-05-03T10:18:34.987Z</time></trkpt><trkpt lat="42.0170783" lon="11.9712317"><ele>7.0</ele><time>2026-05-03T10:18:35.992Z</time></trkpt><trkpt lat="42.0171733" lon="11.971005"><ele>7.0</ele><time>2026-05-03T10:18:36.991Z</time></trkpt><trkpt lat="42.0172667" lon="11.9707833"><ele>7.0</ele><time>2026-05-03T10:18:37.984Z</time></trkpt><trkpt lat="42.0173583" lon="11.9705683"><ele>8.0</ele><time>2026-05-03T10:18:38.992Z</time></trkpt><trkpt lat="42.0174467" lon="11.9703567"><ele>9.0</ele><time>2026-05-03T10:18:39.99Z</time></trkpt><trkpt lat="42.01754" lon="11.97015"><ele>10.0</ele><time>2026-05-03T10:18:40.993Z</time></trkpt><trkpt lat="42.0176317" lon="11.9699367"><ele>10.0</ele><time>2026-05-03T10:18:41.99Z</time></trkpt><trkpt lat="42.0177217" lon="11.9697233"><ele>10.0</ele><time>2026-05-03T10:18:42.993Z</time></trkpt><trkpt lat="42.017815" lon="11.96951"><ele>10.0</ele><time>2026-05-03T10:18:43.994Z</time></trkpt><trkpt lat="42.0179117" lon="11.9693017"><ele>9.333333333333334</ele><time>2026-05-03T10:18:44.989Z</time></trkpt><trkpt lat="42.018005" lon="11.9690883"><ele>8.666666666666666</ele><time>2026-05-03T10:18:45.983Z</time></trkpt><trkpt lat="42.0181" lon="11.9688783"><ele>8.0</ele><time>2026-05-03T10:18:46.993Z</time></trkpt><trkpt lat="42.0181933" lon="11.9686683"><ele>8.0</ele><time>2026-05-03T10:18:47.993Z</time></trkpt><trkpt lat="42.018285" lon="11.9684633"><ele>8.0</ele><time>2026-05-03T10:18:48.99Z</time></trkpt><trkpt lat="42.0183717" lon="11.9682667"><ele>8.0</ele><time>2026-05-03T10:18:49.987Z</time></trkpt><trkpt lat="42.0184533" lon="11.9680817"><ele>8.25</ele><time>2026-05-03T10:18:50.986Z</time></trkpt><trkpt lat="42.0185317" lon="11.9679083"><ele>8.5</ele><time>2026-05-03T10:18:51.988Z</time></trkpt><trkpt lat="42.0186067" lon="11.9677433"><ele>8.75</ele><time>2026-05-03T10:18:52.992Z</time></trkpt><trkpt lat="42.0186767" lon="11.967585"><ele>9.0</ele><time>2026-05-03T10:18:53.992Z</time></trkpt><trkpt lat="42.0187433" lon="11.9674333"><ele>8.25</ele><time>2026-05-03T10:18:54.989Z</time></trkpt><trkpt lat="42.0188067" lon="11.9672833"><ele>7.5</ele><time>2026-05-03T10:18:55.987Z</time></trkpt><trkpt lat="42.0188683" lon="11.9671367"><ele>6.75</ele><time>2026-05-03T10:18:56.995Z</time></trkpt><trkpt lat="42.01893" lon="11.9669967"><ele>6.0</ele><time>2026-05-03T10:18:57.987Z</time></trkpt><trkpt lat="42.0189883" lon="11.9668533"><ele>6.0</ele><time>2026-05-03T10:18:58.991Z</time></trkpt><trkpt lat="42.0190467" lon="11.9667117"><ele>6.0</ele><time>2026-05-03T10:18:59.99Z</time></trkpt><trkpt lat="42.0191067" lon="11.96657"><ele>6.0</ele><time>2026-05-03T10:19:00.984Z</time></trkpt><trkpt lat="42.019165" lon="11.9664267"><ele>6.0</ele><time>2026-05-03T10:19:01.987Z</time></trkpt><trkpt lat="42.0192233" lon="11.9662783"><ele>6.25</ele><time>2026-05-03T10:19:02.986Z</time></trkpt><trkpt lat="42.01928" lon="11.9661217"><ele>6.5</ele><time>2026-05-03T10:19:03.987Z</time></trkpt><trkpt lat="42.0193383" lon="11.965955"><ele>6.75</ele><time>2026-05-03T10:19:04.993Z</time></trkpt><trkpt lat="42.0194" lon="11.9657817"><ele>7.0</ele><time>2026-05-03T10:19:05.986Z</time></trkpt><trkpt lat="42.0194617" lon="11.9656"><ele>7.0</ele><time>2026-05-03T10:19:06.986Z</time></trkpt><trkpt lat="42.0195267" lon="11.965405"><ele>7.0</ele><time>2026-05-03T10:19:07.99Z</time></trkpt><trkpt lat="42.0195917" lon="11.9651983"><ele>7.0</ele><time>2026-05-03T10:19:08.987Z</time></trkpt><trkpt lat="42.0196633" lon="11.9649917"><ele>6.666666666666667</ele><time>2026-05-03T10:19:09.988Z</time></trkpt><trkpt lat="42.01973" lon="11.964795"><ele>6.333333333333334</ele><time>2026-05-03T10:19:10.987Z</time></trkpt><trkpt lat="42.019795" lon="11.9645983"><ele>6.0</ele><time>2026-05-03T10:19:11.992Z</time></trkpt><trkpt lat="42.0198617" lon="11.9644017"><ele>6.0</ele><time>2026-05-03T10:19:12.987Z</time></trkpt><trkpt lat="42.01993" lon="11.96421"><ele>6.0</ele><time>2026-05-03T10:19:13.992Z</time></trkpt><trkpt lat="42.0199983" lon="11.96403"><ele>6.0</ele><time>2026-05-03T10:19:14.997Z</time></trkpt><trkpt lat="42.0200583" lon="11.9638667"><ele>6.0</ele><time>2026-05-03T10:19:15.986Z</time></trkpt><trkpt lat="42.0201167" lon="11.9637117"><ele>6.25</ele><time>2026-05-03T10:19:16.986Z</time></trkpt><trkpt lat="42.02017" lon="11.9635617"><ele>6.5</ele><time>2026-05-03T10:19:17.989Z</time></trkpt><trkpt lat="42.0202217" lon="11.963415"><ele>6.75</ele><time>2026-05-03T10:19:18.987Z</time></trkpt><trkpt lat="42.02027" lon="11.9632767"><ele>7.0</ele><time>2026-05-03T10:19:19.994Z</time></trkpt><trkpt lat="42.0203217" lon="11.9631483"><ele>7.0</ele><time>2026-05-03T10:19:20.987Z</time></trkpt><trkpt lat="42.0203717" lon="11.963025"><ele>6.999999999999999</ele><time>2026-05-03T10:19:21.99Z</time></trkpt><trkpt lat="42.020425" lon="11.9628983"><ele>6.999999999999999</ele><time>2026-05-03T10:19:22.987Z</time></trkpt><trkpt lat="42.0204783" lon="11.9627733"><ele>7.0</ele><time>2026-05-03T10:19:23.988Z</time></trkpt><trkpt lat="42.020535" lon="11.9626483"><ele>7.0</ele><time>2026-05-03T10:19:24.988Z</time></trkpt><trkpt lat="42.02059" lon="11.9625167"><ele>6.75</ele><time>2026-05-03T10:19:25.987Z</time></trkpt><trkpt lat="42.02065" lon="11.9623817"><ele>6.5</ele><time>2026-05-03T10:19:26.986Z</time></trkpt><trkpt lat="42.02071" lon="11.9622383"><ele>6.25</ele><time>2026-05-03T10:19:27.988Z</time></trkpt><trkpt lat="42.0207717" lon="11.96209"><ele>6.0</ele><time>2026-05-03T10:19:28.986Z</time></trkpt><trkpt lat="42.0208333" lon="11.9619317"><ele>5.75</ele><time>2026-05-03T10:19:29.987Z</time></trkpt><trkpt lat="42.020895" lon="11.9617617"><ele>5.5</ele><time>2026-05-03T10:19:30.989Z</time></trkpt><trkpt lat="42.0209633" lon="11.9615833"><ele>5.25</ele><time>2026-05-03T10:19:31.987Z</time></trkpt><trkpt lat="42.0210367" lon="11.9613933"><ele>5.0</ele><time>2026-05-03T10:19:32.99Z</time></trkpt><trkpt lat="42.021115" lon="11.961195"><ele>5.0</ele><time>2026-05-03T10:19:33.987Z</time></trkpt><trkpt lat="42.0212" lon="11.9609917"><ele>5.0</ele><time>2026-05-03T10:19:34.989Z</time></trkpt><trkpt lat="42.021285" lon="11.96078"><ele>5.0</ele><time>2026-05-03T10:19:35.987Z</time></trkpt><trkpt lat="42.0213717" lon="11.9605683"><ele>5.0</ele><time>2026-05-03T10:19:36.99Z</time></trkpt><trkpt lat="42.0214567" lon="11.9603617"><ele>5.0</ele><time>2026-05-03T10:19:37.988Z</time></trkpt><trkpt lat="42.021535" lon="11.960165"><ele>5.0</ele><time>2026-05-03T10:19:38.987Z</time></trkpt><trkpt lat="42.02161" lon="11.9599783"><ele>6.333333333333334</ele><time>2026-05-03T10:19:39.992Z</time></trkpt><trkpt lat="42.0216833" lon="11.9597983"><ele>7.666666666666667</ele><time>2026-05-03T10:19:40.99Z</time></trkpt><trkpt lat="42.0217567" lon="11.95962"><ele>9.0</ele><time>2026-05-03T10:19:41.992Z</time></trkpt><trkpt lat="42.0218283" lon="11.9594417"><ele>9.0</ele><time>2026-05-03T10:19:42.988Z</time></trkpt><trkpt lat="42.0218983" lon="11.9592583"><ele>9.0</ele><time>2026-05-03T10:19:43.984Z</time></trkpt><trkpt lat="42.0219683" lon="11.9590717"><ele>9.0</ele><time>2026-05-03T10:19:44.989Z</time></trkpt><trkpt lat="42.02204" lon="11.9588867"><ele>9.25</ele><time>2026-05-03T10:19:45.987Z</time></trkpt><trkpt lat="42.02211" lon="11.9587083"><ele>9.5</ele><time>2026-05-03T10:19:46.996Z</time></trkpt><trkpt lat="42.0221783" lon="11.95854"><ele>9.75</ele><time>2026-05-03T10:19:47.997Z</time></trkpt><trkpt lat="42.022245" lon="11.9583767"><ele>10.0</ele><time>2026-05-03T10:19:48.99Z</time></trkpt><trkpt lat="42.0223067" lon="11.9582217"><ele>10.0</ele><time>2026-05-03T10:19:49.998Z</time></trkpt><trkpt lat="42.02237" lon="11.958075"><ele>10.0</ele><time>2026-05-03T10:19:50.988Z</time></trkpt><trkpt lat="42.0224333" lon="11.9579283"><ele>10.0</ele><time>2026-05-03T10:19:51.987Z</time></trkpt><trkpt lat="42.0224933" lon="11.9577817"><ele>10.0</ele><time>2026-05-03T10:19:52.984Z</time></trkpt><trkpt lat="42.0225567" lon="11.9576367"><ele>9.75</ele><time>2026-05-03T10:19:53.992Z</time></trkpt><trkpt lat="42.022615" lon="11.9574933"><ele>9.5</ele><time>2026-05-03T10:19:54.986Z</time></trkpt><trkpt lat="42.0226717" lon="11.95736"><ele>9.25</ele><time>2026-05-03T10:19:55.989Z</time></trkpt><trkpt lat="42.0227267" lon="11.9572283"><ele>9.0</ele><time>2026-05-03T10:19:56.99Z</time></trkpt><trkpt lat="42.02278" lon="11.9570967"><ele>9.0</ele><time>2026-05-03T10:19:57.981Z</time></trkpt><trkpt lat="42.0228317" lon="11.9569667"><ele>9.0</ele><time>2026-05-03T10:19:58.989Z</time></trkpt><trkpt lat="42.022885" lon="11.9568367"><ele>9.0</ele><time>2026-05-03T10:19:59.994Z</time></trkpt><trkpt lat="42.0229417" lon="11.9567017"><ele>9.0</ele><time>2026-05-03T10:20:00.99Z</time></trkpt><trkpt lat="42.0229983" lon="11.956565"><ele>9.2</ele><time>2026-05-03T10:20:01.988Z</time></trkpt><trkpt lat="42.0230517" lon="11.9564317"><ele>9.4</ele><time>2026-05-03T10:20:03Z</time></trkpt><trkpt lat="42.0231017" lon="11.95631"><ele>9.6</ele><time>2026-05-03T10:20:03.987Z</time></trkpt><trkpt lat="42.0231467" lon="11.9561983"><ele>9.8</ele><time>2026-05-03T10:20:04.988Z</time></trkpt><trkpt lat="42.0231867" lon="11.9560983"><ele>10.0</ele><time>2026-05-03T10:20:05.992Z</time></trkpt><trkpt lat="42.023225" lon="11.9560067"><ele>10.0</ele><time>2026-05-03T10:20:06.99Z</time></trkpt><trkpt lat="42.02326" lon="11.95592"><ele>10.0</ele><time>2026-05-03T10:20:07.99Z</time></trkpt><trkpt lat="42.0233133" lon="11.9557883"><ele>10.0</ele><time>2026-05-03T10:20:09.987Z</time></trkpt><trkpt lat="42.0233533" lon="11.9556867"><ele>10.0</ele><time>2026-05-03T10:20:11.985Z</time></trkpt><trkpt lat="42.023385" lon="11.95561"><ele>10.0</ele><time>2026-05-03T10:20:13.984Z</time></trkpt><trkpt lat="42.0234217" lon="11.9555133"><ele>10.0</ele><time>2026-05-03T10:20:16.991Z</time></trkpt><trkpt lat="42.0234617" lon="11.955415"><ele>9.8</ele><time>2026-05-03T10:20:18.989Z</time></trkpt><trkpt lat="42.02351" lon="11.95528"><ele>9.6</ele><time>2026-05-03T10:20:20.99Z</time></trkpt><trkpt lat="42.0235383" lon="11.9552017"><ele>9.4</ele><time>2026-05-03T10:20:21.99Z</time></trkpt><trkpt lat="42.0235733" lon="11.95511"><ele>9.2</ele><time>2026-05-03T10:20:22.99Z</time></trkpt><trkpt lat="42.0236117" lon="11.9549967"><ele>9.0</ele><time>2026-05-03T10:20:23.983Z</time></trkpt><trkpt lat="42.0236617" lon="11.9548683"><ele>9.0</ele><time>2026-05-03T10:20:24.987Z</time></trkpt><trkpt lat="42.02372" lon="11.9547217"><ele>9.0</ele><time>2026-05-03T10:20:25.988Z</time></trkpt><trkpt lat="42.02378" lon="11.9545583"><ele>9.0</ele><time>2026-05-03T10:20:26.99Z</time></trkpt><trkpt lat="42.023845" lon="11.9543867"><ele>9.0</ele><time>2026-05-03T10:20:27.989Z</time></trkpt><trkpt lat="42.023915" lon="11.95421"><ele>8.666666666666666</ele><time>2026-05-03T10:20:28.986Z</time></trkpt><trkpt lat="42.0239933" lon="11.9540233"><ele>8.333333333333332</ele><time>2026-05-03T10:20:29.99Z</time></trkpt><trkpt lat="42.02407" lon="11.9538317"><ele>8.0</ele><time>2026-05-03T10:20:30.984Z</time></trkpt><trkpt lat="42.0241417" lon="11.9536333"><ele>7.666666666666666</ele><time>2026-05-03T10:20:31.986Z</time></trkpt><trkpt lat="42.024215" lon="11.9534367"><ele>7.333333333333334</ele><time>2026-05-03T10:20:32.988Z</time></trkpt><trkpt lat="42.0242867" lon="11.953245"><ele>7.0</ele><time>2026-05-03T10:20:33.99Z</time></trkpt><trkpt lat="42.0243633" lon="11.9530533"><ele>7.0</ele><time>2026-05-03T10:20:34.99Z</time></trkpt><trkpt lat="42.0244367" lon="11.9528633"><ele>7.0</ele><time>2026-05-03T10:20:35.985Z</time></trkpt><trkpt lat="42.024515" lon="11.952675"><ele>7.0</ele><time>2026-05-03T10:20:36.985Z</time></trkpt><trkpt lat="42.024595" lon="11.9524883"><ele>7.25</ele><time>2026-05-03T10:20:37.987Z</time></trkpt><trkpt lat="42.0246683" lon="11.952315"><ele>7.5</ele><time>2026-05-03T10:20:38.986Z</time></trkpt><trkpt lat="42.0247367" lon="11.9521617"><ele>7.75</ele><time>2026-05-03T10:20:39.994Z</time></trkpt><trkpt lat="42.0247917" lon="11.9520317"><ele>8.0</ele><time>2026-05-03T10:20:40.989Z</time></trkpt><trkpt lat="42.024835" lon="11.9519317"><ele>8.0</ele><time>2026-05-03T10:20:41.994Z</time></trkpt><trkpt lat="42.0248867" lon="11.951815"><ele>8.0</ele><time>2026-05-03T10:20:43.991Z</time></trkpt><trkpt lat="42.02493" lon="11.951715"><ele>8.0</ele><time>2026-05-03T10:20:51.984Z</time></trkpt><trkpt lat="42.0249683" lon="11.9516267"><ele>8.0</ele><time>2026-05-03T10:20:52.989Z</time></trkpt><trkpt lat="42.0250117" lon="11.9515217"><ele>8.0</ele><time>2026-05-03T10:20:53.988Z</time></trkpt><trkpt lat="42.0250633" lon="11.9513983"><ele>8.25</ele><time>2026-05-03T10:20:54.992Z</time></trkpt><trkpt lat="42.02512" lon="11.951255"><ele>8.5</ele><time>2026-05-03T10:20:55.987Z</time></trkpt><trkpt lat="42.0251833" lon="11.951095"><ele>8.75</ele><time>2026-05-03T10:20:56.988Z</time></trkpt><trkpt lat="42.0252517" lon="11.9509233"><ele>9.0</ele><time>2026-05-03T10:20:57.986Z</time></trkpt><trkpt lat="42.025325" lon="11.9507433"><ele>8.333333333333334</ele><time>2026-05-03T10:20:58.989Z</time></trkpt><trkpt lat="42.0254067" lon="11.9505467"><ele>7.666666666666667</ele><time>2026-05-03T10:20:59.99Z</time></trkpt><trkpt lat="42.0254917" lon="11.9503283"><ele>7.0</ele><time>2026-05-03T10:21:00.987Z</time></trkpt><trkpt lat="42.0255883" lon="11.950095"><ele>7.0</ele><time>2026-05-03T10:21:01.989Z</time></trkpt><trkpt lat="42.0256917" lon="11.94984"><ele>7.0</ele><time>2026-05-03T10:21:02.986Z</time></trkpt><trkpt lat="42.0257967" lon="11.94958"><ele>7.0</ele><time>2026-05-03T10:21:03.988Z</time></trkpt><trkpt lat="42.0259017" lon="11.9493183"><ele>7.0</ele><time>2026-05-03T10:21:04.993Z</time></trkpt><trkpt lat="42.02601" lon="11.94905"><ele>7.0</ele><time>2026-05-03T10:21:05.989Z</time></trkpt><trkpt lat="42.0261217" lon="11.9487767"><ele>7.0</ele><time>2026-05-03T10:21:06.981Z</time></trkpt><trkpt lat="42.0262367" lon="11.948495"><ele>7.0</ele><time>2026-05-03T10:21:07.987Z</time></trkpt><trkpt lat="42.02635" lon="11.948215"><ele>7.0</ele><time>2026-05-03T10:21:08.988Z</time></trkpt><trkpt lat="42.02646" lon="11.94794"><ele>7.0</ele><time>2026-05-03T10:21:10.001Z</time></trkpt><trkpt lat="42.0265717" lon="11.9476617"><ele>6.0</ele><time>2026-05-03T10:21:10.991Z</time></trkpt><trkpt lat="42.0266833" lon="11.9473883"><ele>5.0</ele><time>2026-05-03T10:21:11.995Z</time></trkpt><trkpt lat="42.026795" lon="11.947125"><ele>5.0</ele><time>2026-05-03T10:21:12.991Z</time></trkpt><trkpt lat="42.0269017" lon="11.9468683"><ele>5.0</ele><time>2026-05-03T10:21:13.993Z</time></trkpt><trkpt lat="42.027005" lon="11.9466117"><ele>5.0</ele><time>2026-05-03T10:21:14.994Z</time></trkpt><trkpt lat="42.027105" lon="11.9463583"><ele>5.666666666666667</ele><time>2026-05-03T10:21:15.986Z</time></trkpt><trkpt lat="42.0272033" lon="11.9461117"><ele>6.333333333333334</ele><time>2026-05-03T10:21:16.986Z</time></trkpt><trkpt lat="42.0272983" lon="11.9458683"><ele>7.0</ele><time>2026-05-03T10:21:17.985Z</time></trkpt><trkpt lat="42.0273967" lon="11.9456283"><ele>6.666666666666667</ele><time>2026-05-03T10:21:18.992Z</time></trkpt><trkpt lat="42.027495" lon="11.9453833"><ele>6.333333333333334</ele><time>2026-05-03T10:21:19.988Z</time></trkpt><trkpt lat="42.027595" lon="11.945135"><ele>6.0</ele><time>2026-05-03T10:21:20.987Z</time></trkpt><trkpt lat="42.0276933" lon="11.9448883"><ele>6.0</ele><time>2026-05-03T10:21:21.99Z</time></trkpt><trkpt lat="42.0277883" lon="11.9446533"><ele>6.0</ele><time>2026-05-03T10:21:22.993Z</time></trkpt><trkpt lat="42.0278817" lon="11.9444433"><ele>6.0</ele><time>2026-05-03T10:21:23.989Z</time></trkpt><trkpt lat="42.0279667" lon="11.94426"><ele>5.75</ele><time>2026-05-03T10:21:24.989Z</time></trkpt><trkpt lat="42.028045" lon="11.9440983"><ele>5.5</ele><time>2026-05-03T10:21:25.992Z</time></trkpt><trkpt lat="42.0281233" lon="11.9439667"><ele>5.25</ele><time>2026-05-03T10:21:26.991Z</time></trkpt><trkpt lat="42.0282017" lon="11.94387"><ele>5.0</ele><time>2026-05-03T10:21:27.989Z</time></trkpt><trkpt lat="42.02828" lon="11.9438067"><ele>4.8</ele><time>2026-05-03T10:21:28.989Z</time></trkpt><trkpt lat="42.0283633" lon="11.943775"><ele>4.6</ele><time>2026-05-03T10:21:29.987Z</time></trkpt><trkpt lat="42.02845" lon="11.9437683"><ele>4.4</ele><time>2026-05-03T10:21:30.988Z</time></trkpt><trkpt lat="42.0285433" lon="11.9437917"><ele>4.2</ele><time>2026-05-03T10:21:31.99Z</time></trkpt><trkpt lat="42.028645" lon="11.94385"><ele>4.0</ele><time>2026-05-03T10:21:32.987Z</time></trkpt><trkpt lat="42.0287583" lon="11.9439183"><ele>4.0</ele><time>2026-05-03T10:21:33.984Z</time></trkpt><trkpt lat="42.0288783" lon="11.9439783"><ele>4.0</ele><time>2026-05-03T10:21:34.994Z</time></trkpt><trkpt lat="42.0290067" lon="11.9440133"><ele>4.0</ele><time>2026-05-03T10:21:35.988Z</time></trkpt><trkpt lat="42.02914" lon="11.9440183"><ele>4.0</ele><time>2026-05-03T10:21:36.99Z</time></trkpt><trkpt lat="42.0292733" lon="11.94399"><ele>4.25</ele><time>2026-05-03T10:21:37.988Z</time></trkpt><trkpt lat="42.0294033" lon="11.9439283"><ele>4.5</ele><time>2026-05-03T10:21:38.991Z</time></trkpt><trkpt lat="42.0295217" lon="11.94383"><ele>4.75</ele><time>2026-05-03T10:21:39.986Z</time></trkpt><trkpt lat="42.0296233" lon="11.9437033"><ele>5.0</ele><time>2026-05-03T10:21:40.986Z</time></trkpt><trkpt lat="42.0297033" lon="11.9435467"><ele>5.0</ele><time>2026-05-03T10:21:41.987Z</time></trkpt><trkpt lat="42.02977" lon="11.9433667"><ele>5.0</ele><time>2026-05-03T10:21:42.984Z</time></trkpt><trkpt lat="42.0298217" lon="11.9431633"><ele>5.0</ele><time>2026-05-03T10:21:43.987Z</time></trkpt><trkpt lat="42.0298667" lon="11.9429417"><ele>5.0</ele><time>2026-05-03T10:21:44.99Z</time></trkpt><trkpt lat="42.029915" lon="11.9427033"><ele>5.0</ele><time>2026-05-03T10:21:45.985Z</time></trkpt><trkpt lat="42.0299667" lon="11.94245"><ele>5.0</ele><time>2026-05-03T10:21:46.989Z</time></trkpt><trkpt lat="42.0300217" lon="11.9421883"><ele>5.0</ele><time>2026-05-03T10:21:47.986Z</time></trkpt><trkpt lat="42.03008" lon="11.9419183"><ele>5.0</ele><time>2026-05-03T10:21:48.989Z</time></trkpt><trkpt lat="42.03014" lon="11.9416367"><ele>5.0</ele><time>2026-05-03T10:21:49.988Z</time></trkpt><trkpt lat="42.0302" lon="11.941345"><ele>5.0</ele><time>2026-05-03T10:21:50.986Z</time></trkpt><trkpt lat="42.0302617" lon="11.9410433"><ele>5.0</ele><time>2026-05-03T10:21:51.986Z</time></trkpt><trkpt lat="42.0303233" lon="11.9407417"><ele>5.333333333333334</ele><time>2026-05-03T10:21:52.986Z</time></trkpt><trkpt lat="42.030385" lon="11.9404533"><ele>5.666666666666667</ele><time>2026-05-03T10:21:53.989Z</time></trkpt><trkpt lat="42.030445" lon="11.9401833"><ele>6.0</ele><time>2026-05-03T10:21:54.986Z</time></trkpt><trkpt lat="42.0305083" lon="11.9399267"><ele>7.0</ele><time>2026-05-03T10:21:55.988Z</time></trkpt><trkpt lat="42.0305767" lon="11.939675"><ele>8.0</ele><time>2026-05-03T10:21:56.985Z</time></trkpt><trkpt lat="42.030655" lon="11.9394367"><ele>9.0</ele><time>2026-05-03T10:21:57.992Z</time></trkpt><trkpt lat="42.0307367" lon="11.9392283"><ele>10.75</ele><time>2026-05-03T10:21:58.987Z</time></trkpt><trkpt lat="42.0308217" lon="11.9390617"><ele>12.5</ele><time>2026-05-03T10:21:59.985Z</time></trkpt><trkpt lat="42.0309133" lon="11.9389283"><ele>14.25</ele><time>2026-05-03T10:22:00.982Z</time></trkpt><trkpt lat="42.0310183" lon="11.938825"><ele>16.0</ele><time>2026-05-03T10:22:01.989Z</time></trkpt><trkpt lat="42.0311333" lon="11.938755"><ele>16.0</ele><time>2026-05-03T10:22:02.984Z</time></trkpt><trkpt lat="42.03125" lon="11.9387183"><ele>16.0</ele><time>2026-05-03T10:22:03.988Z</time></trkpt><trkpt lat="42.031365" lon="11.9387117"><ele>16.0</ele><time>2026-05-03T10:22:04.988Z</time></trkpt><trkpt lat="42.0314833" lon="11.9387283"><ele>16.0</ele><time>2026-05-03T10:22:05.986Z</time></trkpt><trkpt lat="42.0316133" lon="11.9387717"><ele>16.333333333333332</ele><time>2026-05-03T10:22:06.989Z</time></trkpt><trkpt lat="42.031755" lon="11.93883"><ele>16.666666666666668</ele><time>2026-05-03T10:22:07.991Z</time></trkpt><trkpt lat="42.0319067" lon="11.9388933"><ele>17.0</ele><time>2026-05-03T10:22:08.986Z</time></trkpt><trkpt lat="42.0320683" lon="11.9389633"><ele>17.0</ele><time>2026-05-03T10:22:09.988Z</time></trkpt><trkpt lat="42.0322333" lon="11.9390417"><ele>17.0</ele><time>2026-05-03T10:22:10.99Z</time></trkpt><trkpt lat="42.0323917" lon="11.93912"><ele>17.0</ele><time>2026-05-03T10:22:11.986Z</time></trkpt><trkpt lat="42.0325467" lon="11.9391867"><ele>16.666666666666668</ele><time>2026-05-03T10:22:12.994Z</time></trkpt><trkpt lat="42.0326983" lon="11.939245"><ele>16.333333333333332</ele><time>2026-05-03T10:22:13.988Z</time></trkpt><trkpt lat="42.03285" lon="11.93928"><ele>16.0</ele><time>2026-05-03T10:22:14.984Z</time></trkpt><trkpt lat="42.033005" lon="11.9392817"><ele>16.0</ele><time>2026-05-03T10:22:15.99Z</time></trkpt><trkpt lat="42.033165" lon="11.9392567"><ele>16.0</ele><time>2026-05-03T10:22:16.989Z</time></trkpt><trkpt lat="42.033325" lon="11.9392317"><ele>16.0</ele><time>2026-05-03T10:22:17.991Z</time></trkpt><trkpt lat="42.0334817" lon="11.9392167"><ele>16.5</ele><time>2026-05-03T10:22:18.991Z</time></trkpt><trkpt lat="42.0336283" lon="11.93922"><ele>17.0</ele><time>2026-05-03T10:22:19.991Z</time></trkpt><trkpt lat="42.0337667" lon="11.9392467"><ele>17.5</ele><time>2026-05-03T10:22:20.99Z</time></trkpt><trkpt lat="42.0338983" lon="11.9393017"><ele>18.0</ele><time>2026-05-03T10:22:21.989Z</time></trkpt><trkpt lat="42.03402" lon="11.93939"><ele>18.0</ele><time>2026-05-03T10:22:22.983Z</time></trkpt><trkpt lat="42.034135" lon="11.9395083"><ele>18.0</ele><time>2026-05-03T10:22:23.987Z</time></trkpt><trkpt lat="42.0342433" lon="11.9396533"><ele>18.0</ele><time>2026-05-03T10:22:24.994Z</time></trkpt><trkpt lat="42.0343483" lon="11.93982"><ele>18.333333333333332</ele><time>2026-05-03T10:22:25.989Z</time></trkpt><trkpt lat="42.0344567" lon="11.940005"><ele>18.666666666666664</ele><time>2026-05-03T10:22:26.991Z</time></trkpt><trkpt lat="42.0345717" lon="11.9402033"><ele>19.0</ele><time>2026-05-03T10:22:27.987Z</time></trkpt><trkpt lat="42.0346933" lon="11.9404117"><ele>19.0</ele><time>2026-05-03T10:22:28.996Z</time></trkpt><trkpt lat="42.0348217" lon="11.9406283"><ele>19.0</ele><time>2026-05-03T10:22:29.992Z</time></trkpt><trkpt lat="42.0349567" lon="11.9408533"><ele>19.0</ele><time>2026-05-03T10:22:30.988Z</time></trkpt><trkpt lat="42.0350967" lon="11.9410733"><ele>19.666666666666664</ele><time>2026-05-03T10:22:31.987Z</time></trkpt><trkpt lat="42.03525" lon="11.94128"><ele>20.333333333333332</ele><time>2026-05-03T10:22:32.989Z</time></trkpt><trkpt lat="42.0354167" lon="11.94147"><ele>21.0</ele><time>2026-05-03T10:22:33.983Z</time></trkpt><trkpt lat="42.0355933" lon="11.9416367"><ele>20.666666666666668</ele><time>2026-05-03T10:22:34.985Z</time></trkpt><trkpt lat="42.0357733" lon="11.9417917"><ele>20.333333333333336</ele><time>2026-05-03T10:22:35.983Z</time></trkpt><trkpt lat="42.035955" lon="11.9419383"><ele>20.0</ele><time>2026-05-03T10:22:36.987Z</time></trkpt><trkpt lat="42.0361367" lon="11.9420783"><ele>22.666666666666668</ele><time>2026-05-03T10:22:37.987Z</time></trkpt><trkpt lat="42.0363117" lon="11.9422117"><ele>25.333333333333336</ele><time>2026-05-03T10:22:38.987Z</time></trkpt><trkpt lat="42.036475" lon="11.9423367"><ele>28.0</ele><time>2026-05-03T10:22:39.994Z</time></trkpt><trkpt lat="42.036625" lon="11.94245"><ele>28.25</ele><time>2026-05-03T10:22:40.988Z</time></trkpt><trkpt lat="42.0367633" lon="11.9425583"><ele>28.5</ele><time>2026-05-03T10:22:41.99Z</time></trkpt><trkpt lat="42.0368917" lon="11.9426567"><ele>28.75</ele><time>2026-05-03T10:22:42.989Z</time></trkpt><trkpt lat="42.037005" lon="11.9427483"><ele>29.0</ele><time>2026-05-03T10:22:43.99Z</time></trkpt><trkpt lat="42.0371" lon="11.9428367"><ele>29.0</ele><time>2026-05-03T10:22:44.99Z</time></trkpt><trkpt lat="42.037175" lon="11.9429383"><ele>29.0</ele><time>2026-05-03T10:22:45.985Z</time></trkpt><trkpt lat="42.0372283" lon="11.9430517"><ele>29.0</ele><time>2026-05-03T10:22:46.995Z</time></trkpt><trkpt lat="42.0372567" lon="11.9431817"><ele>29.0</ele><time>2026-05-03T10:22:47.986Z</time></trkpt><trkpt lat="42.03726" lon="11.9433217"><ele>29.0</ele><time>2026-05-03T10:22:48.988Z</time></trkpt><trkpt lat="42.0372333" lon="11.9434567"><ele>28.6</ele><time>2026-05-03T10:22:49.987Z</time></trkpt><trkpt lat="42.03718" lon="11.9435767"><ele>28.2</ele><time>2026-05-03T10:22:50.987Z</time></trkpt><trkpt lat="42.0371017" lon="11.9436733"><ele>27.800000000000004</ele><time>2026-05-03T10:22:51.987Z</time></trkpt><trkpt lat="42.0370033" lon="11.9437417"><ele>27.400000000000002</ele><time>2026-05-03T10:22:52.992Z</time></trkpt><trkpt lat="42.0368933" lon="11.9437717"><ele>27.0</ele><time>2026-05-03T10:22:53.988Z</time></trkpt><trkpt lat="42.0367867" lon="11.9437583"><ele>27.0</ele><time>2026-05-03T10:22:54.983Z</time></trkpt><trkpt lat="42.0366883" lon="11.9437033"><ele>27.000000000000004</ele><time>2026-05-03T10:22:55.988Z</time></trkpt><trkpt lat="42.0366033" lon="11.9436183"><ele>27.000000000000004</ele><time>2026-05-03T10:22:56.993Z</time></trkpt><trkpt lat="42.0365417" lon="11.9435083"><ele>27.0</ele><time>2026-05-03T10:22:57.987Z</time></trkpt><trkpt lat="42.0365033" lon="11.94338"><ele>27.0</ele><time>2026-05-03T10:22:58.986Z</time></trkpt><trkpt lat="42.0364883" lon="11.9432333"><ele>26.0</ele><time>2026-05-03T10:22:59.985Z</time></trkpt><trkpt lat="42.036495" lon="11.9430783"><ele>25.0</ele><time>2026-05-03T10:23:00.984Z</time></trkpt><trkpt lat="42.0365183" lon="11.942915"><ele>24.0</ele><time>2026-05-03T10:23:01.989Z</time></trkpt><trkpt lat="42.0365617" lon="11.94275"><ele>23.0</ele><time>2026-05-03T10:23:02.985Z</time></trkpt><trkpt lat="42.0366183" lon="11.9425817"><ele>25.333333333333336</ele><time>2026-05-03T10:23:03.988Z</time></trkpt><trkpt lat="42.0366867" lon="11.9424133"><ele>27.666666666666668</ele><time>2026-05-03T10:23:04.989Z</time></trkpt><trkpt lat="42.0367667" lon="11.9422233"><ele>30.0</ele><time>2026-05-03T10:23:05.989Z</time></trkpt><trkpt lat="42.0368533" lon="11.942015"><ele>30.0</ele><time>2026-05-03T10:23:06.985Z</time></trkpt><trkpt lat="42.036945" lon="11.9417867"><ele>30.0</ele><time>2026-05-03T10:23:07.989Z</time></trkpt><trkpt lat="42.0370433" lon="11.9415383"><ele>30.0</ele><time>2026-05-03T10:23:08.987Z</time></trkpt><trkpt lat="42.0371483" lon="11.9412683"><ele>29.5</ele><time>2026-05-03T10:23:09.991Z</time></trkpt><trkpt lat="42.03726" lon="11.9409767"><ele>29.0</ele><time>2026-05-03T10:23:10.984Z</time></trkpt><trkpt lat="42.0373867" lon="11.9406683"><ele>28.5</ele><time>2026-05-03T10:23:11.995Z</time></trkpt><trkpt lat="42.0375183" lon="11.94035"><ele>28.0</ele><time>2026-05-03T10:23:12.989Z</time></trkpt><trkpt lat="42.0376533" lon="11.9400267"><ele>28.0</ele><time>2026-05-03T10:23:14.032Z</time></trkpt><trkpt lat="42.0377883" lon="11.9396917"><ele>28.0</ele><time>2026-05-03T10:23:14.985Z</time></trkpt><trkpt lat="42.0379317" lon="11.939345"><ele>26.5</ele><time>2026-05-03T10:23:15.988Z</time></trkpt><trkpt lat="42.03808" lon="11.93899"><ele>25.0</ele><time>2026-05-03T10:23:16.989Z</time></trkpt><trkpt lat="42.0382317" lon="11.9386367"><ele>24.0</ele><time>2026-05-03T10:23:17.988Z</time></trkpt><trkpt lat="42.038385" lon="11.9382817"><ele>23.0</ele><time>2026-05-03T10:23:18.987Z</time></trkpt><trkpt lat="42.038535" lon="11.9379233"><ele>23.0</ele><time>2026-05-03T10:23:19.99Z</time></trkpt><trkpt lat="42.0386867" lon="11.937565"><ele>23.0</ele><time>2026-05-03T10:23:20.987Z</time></trkpt><trkpt lat="42.0388367" lon="11.937205"><ele>22.0</ele><time>2026-05-03T10:23:21.985Z</time></trkpt><trkpt lat="42.0389883" lon="11.9368417"><ele>21.0</ele><time>2026-05-03T10:23:22.996Z</time></trkpt><trkpt lat="42.0391417" lon="11.9364767"><ele>21.0</ele><time>2026-05-03T10:23:23.988Z</time></trkpt><trkpt lat="42.0392983" lon="11.936105"><ele>21.0</ele><time>2026-05-03T10:23:24.986Z</time></trkpt><trkpt lat="42.0394583" lon="11.93573"><ele>20.5</ele><time>2026-05-03T10:23:25.985Z</time></trkpt><trkpt lat="42.0396183" lon="11.9353517"><ele>20.0</ele><time>2026-05-03T10:23:26.984Z</time></trkpt><trkpt lat="42.0397783" lon="11.9349767"><ele>19.5</ele><time>2026-05-03T10:23:27.988Z</time></trkpt><trkpt lat="42.0399383" lon="11.9346033"><ele>19.0</ele><time>2026-05-03T10:23:28.989Z</time></trkpt><trkpt lat="42.0400983" lon="11.9342283"><ele>20.5</ele><time>2026-05-03T10:23:29.987Z</time></trkpt><trkpt lat="42.0402583" lon="11.93385"><ele>22.0</ele><time>2026-05-03T10:23:30.987Z</time></trkpt><trkpt lat="42.04042" lon="11.9334733"><ele>21.0</ele><time>2026-05-03T10:23:31.999Z</time></trkpt><trkpt lat="42.0405817" lon="11.9330983"><ele>20.0</ele><time>2026-05-03T10:23:32.986Z</time></trkpt><trkpt lat="42.0407433" lon="11.932725"><ele>16.5</ele><time>2026-05-03T10:23:33.989Z</time></trkpt><trkpt lat="42.0409" lon="11.9323517"><ele>13.0</ele><time>2026-05-03T10:23:34.984Z</time></trkpt><trkpt lat="42.041055" lon="11.9319833"><ele>12.0</ele><time>2026-05-03T10:23:35.99Z</time></trkpt><trkpt lat="42.04121" lon="11.9316167"><ele>11.0</ele><time>2026-05-03T10:23:36.985Z</time></trkpt><trkpt lat="42.041365" lon="11.9312567"><ele>11.0</ele><time>2026-05-03T10:23:37.988Z</time></trkpt><trkpt lat="42.0415167" lon="11.930895"><ele>11.0</ele><time>2026-05-03T10:23:38.99Z</time></trkpt><trkpt lat="42.0416667" lon="11.9305383"><ele>11.5</ele><time>2026-05-03T10:23:39.986Z</time></trkpt><trkpt lat="42.0418183" lon="11.9301833"><ele>12.0</ele><time>2026-05-03T10:23:40.99Z</time></trkpt><trkpt lat="42.0419717" lon="11.92983"><ele>12.0</ele><time>2026-05-03T10:23:41.992Z</time></trkpt><trkpt lat="42.042125" lon="11.9294767"><ele>12.0</ele><time>2026-05-03T10:23:42.988Z</time></trkpt><trkpt lat="42.0422767" lon="11.9291217"><ele>11.5</ele><time>2026-05-03T10:23:43.986Z</time></trkpt><trkpt lat="42.0424267" lon="11.9287683"><ele>11.0</ele><time>2026-05-03T10:23:44.99Z</time></trkpt><trkpt lat="42.0425783" lon="11.9284133"><ele>12.5</ele><time>2026-05-03T10:23:45.989Z</time></trkpt><trkpt lat="42.042725" lon="11.9280583"><ele>14.0</ele><time>2026-05-03T10:23:46.986Z</time></trkpt><trkpt lat="42.04287" lon="11.9277033"><ele>14.5</ele><time>2026-05-03T10:23:47.991Z</time></trkpt><trkpt lat="42.04301" lon="11.9273433"><ele>15.0</ele><time>2026-05-03T10:23:48.99Z</time></trkpt><trkpt lat="42.04314" lon="11.9269817"><ele>15.0</ele><time>2026-05-03T10:23:49.99Z</time></trkpt><trkpt lat="42.0432617" lon="11.926615"><ele>15.0</ele><time>2026-05-03T10:23:50.985Z</time></trkpt><trkpt lat="42.0433733" lon="11.926245"><ele>17.5</ele><time>2026-05-03T10:23:51.988Z</time></trkpt><trkpt lat="42.043475" lon="11.925865"><ele>20.0</ele><time>2026-05-03T10:23:52.988Z</time></trkpt><trkpt lat="42.0435667" lon="11.925475"><ele>20.0</ele><time>2026-05-03T10:23:53.987Z</time></trkpt><trkpt lat="42.043645" lon="11.925085"><ele>20.0</ele><time>2026-05-03T10:23:54.987Z</time></trkpt><trkpt lat="42.0437117" lon="11.9246867"><ele>19.5</ele><time>2026-05-03T10:23:55.986Z</time></trkpt><trkpt lat="42.04377" lon="11.924285"><ele>19.0</ele><time>2026-05-03T10:23:56.992Z</time></trkpt><trkpt lat="42.0438117" lon="11.9238767"><ele>19.0</ele><time>2026-05-03T10:23:57.985Z</time></trkpt><trkpt lat="42.0438383" lon="11.9234617"><ele>19.0</ele><time>2026-05-03T10:23:58.984Z</time></trkpt><trkpt lat="42.043855" lon="11.923045"><ele>18.5</ele><time>2026-05-03T10:23:59.986Z</time></trkpt><trkpt lat="42.043865" lon="11.922625"><ele>18.0</ele><time>2026-05-03T10:24:00.987Z</time></trkpt><trkpt lat="42.04387" lon="11.9222067"><ele>18.0</ele><time>2026-05-03T10:24:01.983Z</time></trkpt><trkpt lat="42.0438733" lon="11.9217917"><ele>18.0</ele><time>2026-05-03T10:24:02.988Z</time></trkpt><trkpt lat="42.043875" lon="11.9213817"><ele>18.0</ele><time>2026-05-03T10:24:03.989Z</time></trkpt><trkpt lat="42.043875" lon="11.9209767"><ele>18.0</ele><time>2026-05-03T10:24:04.987Z</time></trkpt><trkpt lat="42.0438767" lon="11.92057"><ele>17.0</ele><time>2026-05-03T10:24:05.984Z</time></trkpt><trkpt lat="42.043875" lon="11.9201617"><ele>16.0</ele><time>2026-05-03T10:24:06.986Z</time></trkpt><trkpt lat="42.0438717" lon="11.91975"><ele>15.0</ele><time>2026-05-03T10:24:07.99Z</time></trkpt><trkpt lat="42.043865" lon="11.9193367"><ele>14.0</ele><time>2026-05-03T10:24:08.985Z</time></trkpt><trkpt lat="42.0438567" lon="11.918925"><ele>13.5</ele><time>2026-05-03T10:24:09.987Z</time></trkpt><trkpt lat="42.04385" lon="11.9185183"><ele>13.0</ele><time>2026-05-03T10:24:10.989Z</time></trkpt><trkpt lat="42.0438433" lon="11.918115"><ele>13.0</ele><time>2026-05-03T10:24:11.984Z</time></trkpt><trkpt lat="42.0438367" lon="11.9177117"><ele>13.0</ele><time>2026-05-03T10:24:12.986Z</time></trkpt><trkpt lat="42.0438333" lon="11.9173067"><ele>14.5</ele><time>2026-05-03T10:24:13.986Z</time></trkpt><trkpt lat="42.0438317" lon="11.9169017"><ele>16.0</ele><time>2026-05-03T10:24:14.989Z</time></trkpt><trkpt lat="42.04383" lon="11.9164967"><ele>17.0</ele><time>2026-05-03T10:24:15.988Z</time></trkpt><trkpt lat="42.0438283" lon="11.9160883"><ele>18.0</ele><time>2026-05-03T10:24:16.99Z</time></trkpt><trkpt lat="42.0438267" lon="11.9156767"><ele>20.0</ele><time>2026-05-03T10:24:17.986Z</time></trkpt><trkpt lat="42.0438233" lon="11.915265"><ele>22.0</ele><time>2026-05-03T10:24:18.985Z</time></trkpt><trkpt lat="42.0438183" lon="11.9148533"><ele>24.5</ele><time>2026-05-03T10:24:19.989Z</time></trkpt><trkpt lat="42.043815" lon="11.91444"><ele>27.0</ele><time>2026-05-03T10:24:20.986Z</time></trkpt><trkpt lat="42.0438133" lon="11.914025"><ele>28.5</ele><time>2026-05-03T10:24:21.984Z</time></trkpt><trkpt lat="42.04381" lon="11.9136133"><ele>30.0</ele><time>2026-05-03T10:24:22.992Z</time></trkpt><trkpt lat="42.043805" lon="11.9132017"><ele>30.0</ele><time>2026-05-03T10:24:23.988Z</time></trkpt><trkpt lat="42.0438017" lon="11.912785"><ele>30.0</ele><time>2026-05-03T10:24:24.983Z</time></trkpt><trkpt lat="42.043795" lon="11.9123633"><ele>31.0</ele><time>2026-05-03T10:24:25.987Z</time></trkpt><trkpt lat="42.043785" lon="11.9119383"><ele>32.0</ele><time>2026-05-03T10:24:26.987Z</time></trkpt><trkpt lat="42.0437767" lon="11.911515"><ele>32.5</ele><time>2026-05-03T10:24:27.99Z</time></trkpt><trkpt lat="42.0437717" lon="11.9110933"><ele>33.0</ele><time>2026-05-03T10:24:28.99Z</time></trkpt><trkpt lat="42.0437667" lon="11.9106717"><ele>33.0</ele><time>2026-05-03T10:24:29.988Z</time></trkpt><trkpt lat="42.0437617" lon="11.910255"><ele>33.0</ele><time>2026-05-03T10:24:30.985Z</time></trkpt><trkpt lat="42.0437583" lon="11.90984"><ele>33.0</ele><time>2026-05-03T10:24:31.984Z</time></trkpt><trkpt lat="42.0437533" lon="11.909425"><ele>33.0</ele><time>2026-05-03T10:24:32.987Z</time></trkpt><trkpt lat="42.0437517" lon="11.90901"><ele>32.5</ele><time>2026-05-03T10:24:33.985Z</time></trkpt><trkpt lat="42.0437483" lon="11.9085933"><ele>32.0</ele><time>2026-05-03T10:24:34.991Z</time></trkpt><trkpt lat="42.0437467" lon="11.908175"><ele>30.5</ele><time>2026-05-03T10:24:35.984Z</time></trkpt><trkpt lat="42.043745" lon="11.9077583"><ele>29.0</ele><time>2026-05-03T10:24:36.99Z</time></trkpt><trkpt lat="42.04374" lon="11.90734"><ele>27.5</ele><time>2026-05-03T10:24:37.989Z</time></trkpt><trkpt lat="42.043735" lon="11.906925"><ele>26.0</ele><time>2026-05-03T10:24:38.993Z</time></trkpt><trkpt lat="42.0437317" lon="11.9065083"><ele>26.0</ele><time>2026-05-03T10:24:39.988Z</time></trkpt><trkpt lat="42.0437283" lon="11.9060933"><ele>26.0</ele><time>2026-05-03T10:24:40.985Z</time></trkpt><trkpt lat="42.0437283" lon="11.9056733"><ele>26.0</ele><time>2026-05-03T10:24:41.991Z</time></trkpt><trkpt lat="42.04373" lon="11.9052517"><ele>26.0</ele><time>2026-05-03T10:24:42.995Z</time></trkpt><trkpt lat="42.0437367" lon="11.9048283"><ele>27.0</ele><time>2026-05-03T10:24:43.989Z</time></trkpt><trkpt lat="42.0437467" lon="11.90441"><ele>28.0</ele><time>2026-05-03T10:24:44.99Z</time></trkpt><trkpt lat="42.04376" lon="11.9039917"><ele>29.0</ele><time>2026-05-03T10:24:45.985Z</time></trkpt><trkpt lat="42.0437767" lon="11.903575"><ele>30.0</ele><time>2026-05-03T10:24:46.987Z</time></trkpt><trkpt lat="42.0437983" lon="11.9031567"><ele>30.5</ele><time>2026-05-03T10:24:47.985Z</time></trkpt><trkpt lat="42.0438217" lon="11.9027417"><ele>31.0</ele><time>2026-05-03T10:24:48.985Z</time></trkpt><trkpt lat="42.04385" lon="11.9023317"><ele>32.5</ele><time>2026-05-03T10:24:49.986Z</time></trkpt><trkpt lat="42.04388" lon="11.901925"><ele>34.0</ele><time>2026-05-03T10:24:50.987Z</time></trkpt><trkpt lat="42.0439133" lon="11.9015183"><ele>35.5</ele><time>2026-05-03T10:24:51.988Z</time></trkpt><trkpt lat="42.04395" lon="11.90111"><ele>37.0</ele><time>2026-05-03T10:24:52.99Z</time></trkpt><trkpt lat="42.0439883" lon="11.9006983"><ele>37.0</ele><time>2026-05-03T10:24:53.987Z</time></trkpt><trkpt lat="42.0440317" lon="11.9002867"><ele>37.0</ele><time>2026-05-03T10:24:54.989Z</time></trkpt><trkpt lat="42.0440767" lon="11.8998733"><ele>36.0</ele><time>2026-05-03T10:24:55.986Z</time></trkpt><trkpt lat="42.044125" lon="11.8994583"><ele>35.0</ele><time>2026-05-03T10:24:56.987Z</time></trkpt><trkpt lat="42.044175" lon="11.8990417"><ele>35.0</ele><time>2026-05-03T10:24:57.985Z</time></trkpt><trkpt lat="42.0442267" lon="11.8986183"><ele>35.0</ele><time>2026-05-03T10:24:58.983Z</time></trkpt><trkpt lat="42.0442767" lon="11.8981933"><ele>35.0</ele><time>2026-05-03T10:24:59.987Z</time></trkpt><trkpt lat="42.0443267" lon="11.897775"><ele>35.0</ele><time>2026-05-03T10:25:00.983Z</time></trkpt><trkpt lat="42.0443717" lon="11.8973583"><ele>33.0</ele><time>2026-05-03T10:25:01.987Z</time></trkpt><trkpt lat="42.0444133" lon="11.896945"><ele>31.0</ele><time>2026-05-03T10:25:02.985Z</time></trkpt><trkpt lat="42.044455" lon="11.8965333"><ele>29.0</ele><time>2026-05-03T10:25:03.988Z</time></trkpt><trkpt lat="42.0444983" lon="11.89613"><ele>27.0</ele><time>2026-05-03T10:25:04.984Z</time></trkpt><trkpt lat="42.04454" lon="11.89573"><ele>27.0</ele><time>2026-05-03T10:25:05.989Z</time></trkpt><trkpt lat="42.04458" lon="11.8953317"><ele>27.0</ele><time>2026-05-03T10:25:06.986Z</time></trkpt><trkpt lat="42.0446217" lon="11.8949333"><ele>27.0</ele><time>2026-05-03T10:25:07.987Z</time></trkpt><trkpt lat="42.0446633" lon="11.89453"><ele>27.0</ele><time>2026-05-03T10:25:08.986Z</time></trkpt><trkpt lat="42.0447033" lon="11.8941233"><ele>26.5</ele><time>2026-05-03T10:25:09.987Z</time></trkpt><trkpt lat="42.04474" lon="11.8937117"><ele>26.0</ele><time>2026-05-03T10:25:10.986Z</time></trkpt><trkpt lat="42.0447733" lon="11.8932967"><ele>26.0</ele><time>2026-05-03T10:25:11.984Z</time></trkpt><trkpt lat="42.0448017" lon="11.8928833"><ele>26.0</ele><time>2026-05-03T10:25:12.982Z</time></trkpt><trkpt lat="42.0448233" lon="11.8924633"><ele>25.0</ele><time>2026-05-03T10:25:13.984Z</time></trkpt><trkpt lat="42.0448417" lon="11.8920383"><ele>24.0</ele><time>2026-05-03T10:25:14.985Z</time></trkpt><trkpt lat="42.044855" lon="11.89161"><ele>21.5</ele><time>2026-05-03T10:25:15.984Z</time></trkpt><trkpt lat="42.044865" lon="11.8911817"><ele>19.0</ele><time>2026-05-03T10:25:16.988Z</time></trkpt><trkpt lat="42.0448667" lon="11.890755"><ele>16.5</ele><time>2026-05-03T10:25:17.99Z</time></trkpt><trkpt lat="42.044865" lon="11.8903333"><ele>14.0</ele><time>2026-05-03T10:25:18.985Z</time></trkpt><trkpt lat="42.0448617" lon="11.8899117"><ele>14.0</ele><time>2026-05-03T10:25:19.984Z</time></trkpt><trkpt lat="42.0448617" lon="11.8894917"><ele>14.0</ele><time>2026-05-03T10:25:20.995Z</time></trkpt><trkpt lat="42.0448583" lon="11.8890683"><ele>15.5</ele><time>2026-05-03T10:25:21.992Z</time></trkpt><trkpt lat="42.0448583" lon="11.888645"><ele>17.0</ele><time>2026-05-03T10:25:22.986Z</time></trkpt><trkpt lat="42.044855" lon="11.888215"><ele>19.0</ele><time>2026-05-03T10:25:23.99Z</time></trkpt><trkpt lat="42.0448517" lon="11.887785"><ele>21.0</ele><time>2026-05-03T10:25:24.987Z</time></trkpt><trkpt lat="42.0448483" lon="11.8873517"><ele>22.5</ele><time>2026-05-03T10:25:25.989Z</time></trkpt><trkpt lat="42.0448417" lon="11.8869217"><ele>24.0</ele><time>2026-05-03T10:25:26.989Z</time></trkpt><trkpt lat="42.044835" lon="11.8864917"><ele>24.0</ele><time>2026-05-03T10:25:27.989Z</time></trkpt><trkpt lat="42.0448383" lon="11.8860617"><ele>24.0</ele><time>2026-05-03T10:25:28.987Z</time></trkpt><trkpt lat="42.0448367" lon="11.8856267"><ele>21.5</ele><time>2026-05-03T10:25:29.982Z</time></trkpt><trkpt lat="42.0448317" lon="11.8851867"><ele>19.0</ele><time>2026-05-03T10:25:30.988Z</time></trkpt><trkpt lat="42.044825" lon="11.8847417"><ele>16.0</ele><time>2026-05-03T10:25:31.984Z</time></trkpt><trkpt lat="42.04482" lon="11.8843"><ele>13.0</ele><time>2026-05-03T10:25:32.986Z</time></trkpt><trkpt lat="42.0448117" lon="11.88386"><ele>11.5</ele><time>2026-05-03T10:25:33.985Z</time></trkpt><trkpt lat="42.044805" lon="11.8834233"><ele>10.0</ele><time>2026-05-03T10:25:34.985Z</time></trkpt><trkpt lat="42.0447967" lon="11.88299"><ele>10.5</ele><time>2026-05-03T10:25:35.987Z</time></trkpt><trkpt lat="42.0447917" lon="11.8825633"><ele>11.0</ele><time>2026-05-03T10:25:36.985Z</time></trkpt><trkpt lat="42.044785" lon="11.8821467"><ele>13.0</ele><time>2026-05-03T10:25:37.985Z</time></trkpt><trkpt lat="42.0447783" lon="11.881735"><ele>15.0</ele><time>2026-05-03T10:25:38.987Z</time></trkpt><trkpt lat="42.044765" lon="11.8813233"><ele>19.0</ele><time>2026-05-03T10:25:39.989Z</time></trkpt><trkpt lat="42.04475" lon="11.880915"><ele>23.0</ele><time>2026-05-03T10:25:40.986Z</time></trkpt><trkpt lat="42.0447317" lon="11.8805067"><ele>25.5</ele><time>2026-05-03T10:25:41.988Z</time></trkpt><trkpt lat="42.044715" lon="11.8800983"><ele>28.0</ele><time>2026-05-03T10:25:42.986Z</time></trkpt><trkpt lat="42.044695" lon="11.8796833"><ele>28.5</ele><time>2026-05-03T10:25:43.983Z</time></trkpt><trkpt lat="42.0446717" lon="11.8792667"><ele>29.0</ele><time>2026-05-03T10:25:44.989Z</time></trkpt><trkpt lat="42.0446467" lon="11.8788467"><ele>27.5</ele><time>2026-05-03T10:25:45.984Z</time></trkpt><trkpt lat="42.04462" lon="11.8784233"><ele>26.0</ele><time>2026-05-03T10:25:46.99Z</time></trkpt><trkpt lat="42.0445983" lon="11.8779933"><ele>25.0</ele><time>2026-05-03T10:25:47.988Z</time></trkpt><trkpt lat="42.0445717" lon="11.8775617"><ele>24.0</ele><time>2026-05-03T10:25:48.988Z</time></trkpt><trkpt lat="42.0445433" lon="11.87713"><ele>24.0</ele><time>2026-05-03T10:25:49.987Z</time></trkpt><trkpt lat="42.0445133" lon="11.8766967"><ele>24.0</ele><time>2026-05-03T10:25:50.987Z</time></trkpt><trkpt lat="42.0444817" lon="11.8762617"><ele>25.5</ele><time>2026-05-03T10:25:51.986Z</time></trkpt><trkpt lat="42.04445" lon="11.8758283"><ele>27.0</ele><time>2026-05-03T10:25:52.998Z</time></trkpt><trkpt lat="42.044415" lon="11.875395"><ele>29.0</ele><time>2026-05-03T10:25:53.985Z</time></trkpt><trkpt lat="42.0443783" lon="11.8749617"><ele>31.0</ele><time>2026-05-03T10:25:54.985Z</time></trkpt><trkpt lat="42.0443433" lon="11.87453"><ele>33.0</ele><time>2026-05-03T10:25:55.984Z</time></trkpt><trkpt lat="42.0443083" lon="11.8741"><ele>35.0</ele><time>2026-05-03T10:25:56.985Z</time></trkpt><trkpt lat="42.0442733" lon="11.87367"><ele>36.0</ele><time>2026-05-03T10:25:57.99Z</time></trkpt><trkpt lat="42.0442367" lon="11.8732383"><ele>37.0</ele><time>2026-05-03T10:25:58.986Z</time></trkpt><trkpt lat="42.0442" lon="11.8728067"><ele>37.0</ele><time>2026-05-03T10:25:59.984Z</time></trkpt><trkpt lat="42.0441633" lon="11.8723717"><ele>37.0</ele><time>2026-05-03T10:26:00.988Z</time></trkpt><trkpt lat="42.044125" lon="11.871935"><ele>35.0</ele><time>2026-05-03T10:26:01.987Z</time></trkpt><trkpt lat="42.0440883" lon="11.871495"><ele>33.0</ele><time>2026-05-03T10:26:02.992Z</time></trkpt><trkpt lat="42.04405" lon="11.871055"><ele>35.5</ele><time>2026-05-03T10:26:03.987Z</time></trkpt><trkpt lat="42.0440133" lon="11.87061"><ele>38.0</ele><time>2026-05-03T10:26:04.984Z</time></trkpt><trkpt lat="42.0439767" lon="11.8701633"><ele>36.0</ele><time>2026-05-03T10:26:05.988Z</time></trkpt><trkpt lat="42.043945" lon="11.869715"><ele>34.0</ele><time>2026-05-03T10:26:06.985Z</time></trkpt><trkpt lat="42.0439117" lon="11.8692683"><ele>33.0</ele><time>2026-05-03T10:26:07.988Z</time></trkpt><trkpt lat="42.0438783" lon="11.868825"><ele>32.0</ele><time>2026-05-03T10:26:08.989Z</time></trkpt><trkpt lat="42.043845" lon="11.8683883"><ele>37.5</ele><time>2026-05-03T10:26:09.982Z</time></trkpt><trkpt lat="42.0438167" lon="11.8679533"><ele>43.0</ele><time>2026-05-03T10:26:10.991Z</time></trkpt><trkpt lat="42.0437917" lon="11.8675233"><ele>48.0</ele><time>2026-05-03T10:26:11.987Z</time></trkpt><trkpt lat="42.04377" lon="11.8671"><ele>53.0</ele><time>2026-05-03T10:26:12.988Z</time></trkpt><trkpt lat="42.0437517" lon="11.8666717"><ele>56.0</ele><time>2026-05-03T10:26:13.988Z</time></trkpt><trkpt lat="42.0437267" lon="11.86624"><ele>59.0</ele><time>2026-05-03T10:26:14.982Z</time></trkpt><trkpt lat="42.043695" lon="11.8658083"><ele>64.0</ele><time>2026-05-03T10:26:15.985Z</time></trkpt><trkpt lat="42.0436617" lon="11.865375"><ele>69.0</ele><time>2026-05-03T10:26:16.986Z</time></trkpt><trkpt lat="42.0436283" lon="11.864945"><ele>73.0</ele><time>2026-05-03T10:26:17.983Z</time></trkpt><trkpt lat="42.043595" lon="11.864515"><ele>77.0</ele><time>2026-05-03T10:26:18.988Z</time></trkpt><trkpt lat="42.0433283" lon="11.8616017"><ele>77.0</ele><time>2026-05-03T10:26:25.988Z</time></trkpt><trkpt lat="42.043305" lon="11.86128"><ele>77.0</ele><time>2026-05-03T10:26:26.993Z</time></trkpt><trkpt lat="42.0432717" lon="11.860855"><ele>69.5</ele><time>2026-05-03T10:26:27.986Z</time></trkpt><trkpt lat="42.0432267" lon="11.8604317"><ele>62.0</ele><time>2026-05-03T10:26:28.989Z</time></trkpt><trkpt lat="42.04317" lon="11.860015"><ele>61.5</ele><time>2026-05-03T10:26:29.981Z</time></trkpt><trkpt lat="42.043115" lon="11.8595967"><ele>61.0</ele><time>2026-05-03T10:26:30.992Z</time></trkpt><trkpt lat="42.0430533" lon="11.8591967"><ele>61.0</ele><time>2026-05-03T10:26:31.988Z</time></trkpt><trkpt lat="42.0429817" lon="11.8588167"><ele>61.0</ele><time>2026-05-03T10:26:32.985Z</time></trkpt><trkpt lat="42.0428983" lon="11.85844"><ele>61.5</ele><time>2026-05-03T10:26:33.982Z</time></trkpt><trkpt lat="42.0427983" lon="11.8580717"><ele>62.0</ele><time>2026-05-03T10:26:34.984Z</time></trkpt><trkpt lat="42.04268" lon="11.8577083"><ele>62.0</ele><time>2026-05-03T10:26:35.985Z</time></trkpt><trkpt lat="42.042545" lon="11.8573567"><ele>62.0</ele><time>2026-05-03T10:26:36.984Z</time></trkpt><trkpt lat="42.0423917" lon="11.8570167"><ele>68.5</ele><time>2026-05-03T10:26:38Z</time></trkpt><trkpt lat="42.0422217" lon="11.8566833"><ele>75.0</ele><time>2026-05-03T10:26:38.984Z</time></trkpt><trkpt lat="42.042035" lon="11.8563567"><ele>75.0</ele><time>2026-05-03T10:26:39.988Z</time></trkpt><trkpt lat="42.0418283" lon="11.8560383"><ele>75.0</ele><time>2026-05-03T10:26:40.987Z</time></trkpt><trkpt lat="42.0416067" lon="11.8557233"><ele>75.0</ele><time>2026-05-03T10:26:41.983Z</time></trkpt><trkpt lat="42.0413833" lon="11.8554167"><ele>75.0</ele><time>2026-05-03T10:26:42.989Z</time></trkpt><trkpt lat="42.0411633" lon="11.8551133"><ele>74.0</ele><time>2026-05-03T10:26:43.985Z</time></trkpt><trkpt lat="42.0409433" lon="11.8548133"><ele>73.0</ele><time>2026-05-03T10:26:44.986Z</time></trkpt><trkpt lat="42.040725" lon="11.8545167"><ele>72.0</ele><time>2026-05-03T10:26:45.989Z</time></trkpt><trkpt lat="42.0405183" lon="11.85423"><ele>71.0</ele><time>2026-05-03T10:26:46.989Z</time></trkpt><trkpt lat="42.0403317" lon="11.8539467"><ele>71.0</ele><time>2026-05-03T10:26:47.99Z</time></trkpt><trkpt lat="42.040165" lon="11.85366"><ele>71.0</ele><time>2026-05-03T10:26:48.988Z</time></trkpt><trkpt lat="42.0400133" lon="11.8533617"><ele>67.5</ele><time>2026-05-03T10:26:49.99Z</time></trkpt><trkpt lat="42.03988" lon="11.8530533"><ele>64.0</ele><time>2026-05-03T10:26:50.987Z</time></trkpt><trkpt lat="42.0397633" lon="11.8527283"><ele>66.0</ele><time>2026-05-03T10:26:51.987Z</time></trkpt><trkpt lat="42.0396633" lon="11.85239"><ele>68.0</ele><time>2026-05-03T10:26:52.988Z</time></trkpt><trkpt lat="42.0395817" lon="11.8520367"><ele>68.0</ele><time>2026-05-03T10:26:54Z</time></trkpt><trkpt lat="42.03952" lon="11.85167"><ele>68.0</ele><time>2026-05-03T10:26:54.991Z</time></trkpt><trkpt lat="42.0394817" lon="11.8512983"><ele>65.0</ele><time>2026-05-03T10:26:55.991Z</time></trkpt><trkpt lat="42.039465" lon="11.850925"><ele>62.0</ele><time>2026-05-03T10:26:56.984Z</time></trkpt><trkpt lat="42.03947" lon="11.85055"><ele>62.0</ele><time>2026-05-03T10:26:57.984Z</time></trkpt><trkpt lat="42.0394967" lon="11.85018"><ele>62.0</ele><time>2026-05-03T10:26:58.987Z</time></trkpt><trkpt lat="42.0395483" lon="11.849815"><ele>55.0</ele><time>2026-05-03T10:26:59.989Z</time></trkpt><trkpt lat="42.0396167" lon="11.849455"><ele>48.0</ele><time>2026-05-03T10:27:00.982Z</time></trkpt><trkpt lat="42.03971" lon="11.849105"><ele>44.0</ele><time>2026-05-03T10:27:01.987Z</time></trkpt><trkpt lat="42.039825" lon="11.8487667"><ele>40.0</ele><time>2026-05-03T10:27:02.986Z</time></trkpt><trkpt lat="42.03996" lon="11.8484333"><ele>43.0</ele><time>2026-05-03T10:27:03.986Z</time></trkpt><trkpt lat="42.04011" lon="11.8481067"><ele>46.0</ele><time>2026-05-03T10:27:04.988Z</time></trkpt><trkpt lat="42.0402767" lon="11.8477817"><ele>41.5</ele><time>2026-05-03T10:27:05.987Z</time></trkpt><trkpt lat="42.0404583" lon="11.84746"><ele>37.0</ele><time>2026-05-03T10:27:06.985Z</time></trkpt><trkpt lat="42.040655" lon="11.84714"><ele>36.5</ele><time>2026-05-03T10:27:07.984Z</time></trkpt><trkpt lat="42.0408583" lon="11.8468133"><ele>36.0</ele><time>2026-05-03T10:27:08.985Z</time></trkpt><trkpt lat="42.0410667" lon="11.8464817"><ele>36.0</ele><time>2026-05-03T10:27:09.986Z</time></trkpt><trkpt lat="42.0412767" lon="11.846145"><ele>36.0</ele><time>2026-05-03T10:27:10.988Z</time></trkpt><trkpt lat="42.0414867" lon="11.8458033"><ele>36.0</ele><time>2026-05-03T10:27:11.99Z</time></trkpt><trkpt lat="42.0416983" lon="11.84546"><ele>36.0</ele><time>2026-05-03T10:27:12.982Z</time></trkpt><trkpt lat="42.04191" lon="11.8451133"><ele>36.0</ele><time>2026-05-03T10:27:13.994Z</time></trkpt><trkpt lat="42.0421233" lon="11.8447667"><ele>36.0</ele><time>2026-05-03T10:27:14.985Z</time></trkpt><trkpt lat="42.042335" lon="11.84442"><ele>37.5</ele><time>2026-05-03T10:27:15.987Z</time></trkpt><trkpt lat="42.0425417" lon="11.8440733"><ele>39.0</ele><time>2026-05-03T10:27:16.987Z</time></trkpt><trkpt lat="42.0427467" lon="11.8437333"><ele>38.5</ele><time>2026-05-03T10:27:17.99Z</time></trkpt><trkpt lat="42.04295" lon="11.843395"><ele>38.0</ele><time>2026-05-03T10:27:18.986Z</time></trkpt><trkpt lat="42.043155" lon="11.8430567"><ele>39.0</ele><time>2026-05-03T10:27:19.988Z</time></trkpt><trkpt lat="42.0433617" lon="11.8427167"><ele>40.0</ele><time>2026-05-03T10:27:20.984Z</time></trkpt><trkpt lat="42.0435683" lon="11.8423767"><ele>40.0</ele><time>2026-05-03T10:27:21.987Z</time></trkpt><trkpt lat="42.0437767" lon="11.842035"><ele>40.0</ele><time>2026-05-03T10:27:22.982Z</time></trkpt><trkpt lat="42.043985" lon="11.841695"><ele>39.5</ele><time>2026-05-03T10:27:23.989Z</time></trkpt><trkpt lat="42.0441917" lon="11.8413517"><ele>39.0</ele><time>2026-05-03T10:27:24.989Z</time></trkpt><trkpt lat="42.044395" lon="11.84101"><ele>36.5</ele><time>2026-05-03T10:27:25.989Z</time></trkpt><trkpt lat="42.0445983" lon="11.84067"><ele>34.0</ele><time>2026-05-03T10:27:26.99Z</time></trkpt><trkpt lat="42.0448017" lon="11.84033"><ele>34.0</ele><time>2026-05-03T10:27:27.987Z</time></trkpt><trkpt lat="42.0450067" lon="11.8399917"><ele>34.0</ele><time>2026-05-03T10:27:28.989Z</time></trkpt><trkpt lat="42.0452117" lon="11.8396517"><ele>34.0</ele><time>2026-05-03T10:27:29.99Z</time></trkpt><trkpt lat="42.0454183" lon="11.8393117"><ele>34.0</ele><time>2026-05-03T10:27:30.983Z</time></trkpt><trkpt lat="42.0456283" lon="11.8389667"><ele>34.5</ele><time>2026-05-03T10:27:31.99Z</time></trkpt><trkpt lat="42.0458383" lon="11.8386167"><ele>35.0</ele><time>2026-05-03T10:27:32.987Z</time></trkpt><trkpt lat="42.0460483" lon="11.83826"><ele>35.0</ele><time>2026-05-03T10:27:33.99Z</time></trkpt><trkpt lat="42.0462583" lon="11.8379"><ele>35.0</ele><time>2026-05-03T10:27:34.984Z</time></trkpt><trkpt lat="42.0464733" lon="11.837545"><ele>34.0</ele><time>2026-05-03T10:27:35.984Z</time></trkpt><trkpt lat="42.0466883" lon="11.83719"><ele>33.0</ele><time>2026-05-03T10:27:36.989Z</time></trkpt><trkpt lat="42.0469033" lon="11.836835"><ele>32.0</ele><time>2026-05-03T10:27:37.981Z</time></trkpt><trkpt lat="42.047115" lon="11.8364767"><ele>31.0</ele><time>2026-05-03T10:27:38.987Z</time></trkpt><trkpt lat="42.0473283" lon="11.8361233"><ele>30.0</ele><time>2026-05-03T10:27:39.99Z</time></trkpt><trkpt lat="42.0475383" lon="11.8357717"><ele>29.0</ele><time>2026-05-03T10:27:40.991Z</time></trkpt><trkpt lat="42.04775" lon="11.8354217"><ele>28.0</ele><time>2026-05-03T10:27:41.989Z</time></trkpt><trkpt lat="42.04796" lon="11.8350767"><ele>27.0</ele><time>2026-05-03T10:27:42.985Z</time></trkpt><trkpt lat="42.04817" lon="11.8347333"><ele>31.0</ele><time>2026-05-03T10:27:43.994Z</time></trkpt><trkpt lat="42.04838" lon="11.8343867"><ele>35.0</ele><time>2026-05-03T10:27:44.99Z</time></trkpt><trkpt lat="42.0485883" lon="11.8340367"><ele>35.0</ele><time>2026-05-03T10:27:45.989Z</time></trkpt><trkpt lat="42.0487983" lon="11.833685"><ele>35.0</ele><time>2026-05-03T10:27:46.988Z</time></trkpt><trkpt lat="42.04901" lon="11.833335"><ele>35.5</ele><time>2026-05-03T10:27:47.988Z</time></trkpt><trkpt lat="42.0492233" lon="11.832985"><ele>36.0</ele><time>2026-05-03T10:27:48.989Z</time></trkpt><trkpt lat="42.0494367" lon="11.832635"><ele>36.0</ele><time>2026-05-03T10:27:49.996Z</time></trkpt><trkpt lat="42.0496467" lon="11.8322867"><ele>36.0</ele><time>2026-05-03T10:27:50.99Z</time></trkpt><trkpt lat="42.0498567" lon="11.83194"><ele>40.5</ele><time>2026-05-03T10:27:51.99Z</time></trkpt><trkpt lat="42.050065" lon="11.83159"><ele>45.0</ele><time>2026-05-03T10:27:52.984Z</time></trkpt><trkpt lat="42.0502717" lon="11.8312417"><ele>43.0</ele><time>2026-05-03T10:27:53.992Z</time></trkpt><trkpt lat="42.050475" lon="11.8308983"><ele>41.0</ele><time>2026-05-03T10:27:54.989Z</time></trkpt><trkpt lat="42.0506767" lon="11.830565"><ele>40.5</ele><time>2026-05-03T10:27:55.995Z</time></trkpt><trkpt lat="42.0508733" lon="11.83024"><ele>40.0</ele><time>2026-05-03T10:27:56.992Z</time></trkpt><trkpt lat="42.0510633" lon="11.829925"><ele>40.0</ele><time>2026-05-03T10:27:57.991Z</time></trkpt><trkpt lat="42.0512517" lon="11.8296233"><ele>40.0</ele><time>2026-05-03T10:27:58.988Z</time></trkpt><trkpt lat="42.051435" lon="11.829325"><ele>38.5</ele><time>2026-05-03T10:27:59.982Z</time></trkpt><trkpt lat="42.05162" lon="11.8290317"><ele>37.0</ele><time>2026-05-03T10:28:00.987Z</time></trkpt><trkpt lat="42.0518133" lon="11.8287417"><ele>37.0</ele><time>2026-05-03T10:28:01.988Z</time></trkpt><trkpt lat="42.05202" lon="11.82846"><ele>37.0</ele><time>2026-05-03T10:28:02.988Z</time></trkpt><trkpt lat="42.052235" lon="11.8281833"><ele>37.5</ele><time>2026-05-03T10:28:03.985Z</time></trkpt><trkpt lat="42.05246" lon="11.827915"><ele>38.0</ele><time>2026-05-03T10:28:04.99Z</time></trkpt><trkpt lat="42.05269" lon="11.8276583"><ele>35.0</ele><time>2026-05-03T10:28:05.996Z</time></trkpt><trkpt lat="42.0529217" lon="11.8274167"><ele>32.0</ele><time>2026-05-03T10:28:06.988Z</time></trkpt><trkpt lat="42.05315" lon="11.8271883"><ele>33.5</ele><time>2026-05-03T10:28:07.986Z</time></trkpt><trkpt lat="42.0533783" lon="11.8269717"><ele>35.0</ele><time>2026-05-03T10:28:08.989Z</time></trkpt><trkpt lat="42.0536083" lon="11.8267667"><ele>32.0</ele><time>2026-05-03T10:28:09.99Z</time></trkpt><trkpt lat="42.053845" lon="11.826575"><ele>29.0</ele><time>2026-05-03T10:28:10.984Z</time></trkpt><trkpt lat="42.0540867" lon="11.826395"><ele>32.0</ele><time>2026-05-03T10:28:11.993Z</time></trkpt><trkpt lat="42.0543317" lon="11.826225"><ele>35.0</ele><time>2026-05-03T10:28:12.985Z</time></trkpt><trkpt lat="42.0545783" lon="11.826065"><ele>33.5</ele><time>2026-05-03T10:28:13.985Z</time></trkpt><trkpt lat="42.0548217" lon="11.8259183"><ele>32.0</ele><time>2026-05-03T10:28:14.986Z</time></trkpt><trkpt lat="42.0550633" lon="11.825785"><ele>32.0</ele><time>2026-05-03T10:28:15.993Z</time></trkpt><trkpt lat="42.0552983" lon="11.8256667"><ele>32.0</ele><time>2026-05-03T10:28:16.984Z</time></trkpt><trkpt lat="42.0555317" lon="11.8255617"><ele>32.0</ele><time>2026-05-03T10:28:17.989Z</time></trkpt><trkpt lat="42.055765" lon="11.8254717"><ele>32.0</ele><time>2026-05-03T10:28:18.991Z</time></trkpt><trkpt lat="42.055995" lon="11.8253867"><ele>30.0</ele><time>2026-05-03T10:28:19.991Z</time></trkpt><trkpt lat="42.0562183" lon="11.82531"><ele>28.0</ele><time>2026-05-03T10:28:20.987Z</time></trkpt><trkpt lat="42.05643" lon="11.825245"><ele>26.0</ele><time>2026-05-03T10:28:21.984Z</time></trkpt><trkpt lat="42.0566283" lon="11.8251867"><ele>24.0</ele><time>2026-05-03T10:28:22.988Z</time></trkpt><trkpt lat="42.0568183" lon="11.82513"><ele>22.0</ele><time>2026-05-03T10:28:23.989Z</time></trkpt><trkpt lat="42.0570033" lon="11.8250733"><ele>20.0</ele><time>2026-05-03T10:28:24.99Z</time></trkpt><trkpt lat="42.0571867" lon="11.8250183"><ele>20.0</ele><time>2026-05-03T10:28:25.99Z</time></trkpt><trkpt lat="42.0573717" lon="11.82497"><ele>20.0</ele><time>2026-05-03T10:28:26.989Z</time></trkpt><trkpt lat="42.0575567" lon="11.8249283"><ele>20.0</ele><time>2026-05-03T10:28:27.985Z</time></trkpt><trkpt lat="42.0577367" lon="11.82489"><ele>20.0</ele><time>2026-05-03T10:28:28.982Z</time></trkpt><trkpt lat="42.0579083" lon="11.8248567"><ele>20.0</ele><time>2026-05-03T10:28:29.986Z</time></trkpt><trkpt lat="42.0580717" lon="11.82482"><ele>20.0</ele><time>2026-05-03T10:28:30.987Z</time></trkpt><trkpt lat="42.0582233" lon="11.824785"><ele>19.75</ele><time>2026-05-03T10:28:31.998Z</time></trkpt><trkpt lat="42.058365" lon="11.824755"><ele>19.5</ele><time>2026-05-03T10:28:32.989Z</time></trkpt><trkpt lat="42.0584983" lon="11.824725"><ele>19.25</ele><time>2026-05-03T10:28:33.99Z</time></trkpt><trkpt lat="42.058625" lon="11.8247067"><ele>19.0</ele><time>2026-05-03T10:28:34.991Z</time></trkpt><trkpt lat="42.0587433" lon="11.8247"><ele>19.0</ele><time>2026-05-03T10:28:35.985Z</time></trkpt><trkpt lat="42.0588533" lon="11.82471"><ele>19.0</ele><time>2026-05-03T10:28:36.984Z</time></trkpt><trkpt lat="42.058955" lon="11.82474"><ele>19.0</ele><time>2026-05-03T10:28:37.983Z</time></trkpt><trkpt lat="42.0590483" lon="11.8248"><ele>19.0</ele><time>2026-05-03T10:28:38.989Z</time></trkpt><trkpt lat="42.059125" lon="11.8248833"><ele>19.0</ele><time>2026-05-03T10:28:39.986Z</time></trkpt><trkpt lat="42.05918" lon="11.824985"><ele>18.599999999999998</ele><time>2026-05-03T10:28:40.989Z</time></trkpt><trkpt lat="42.0592133" lon="11.8251017"><ele>18.2</ele><time>2026-05-03T10:28:41.987Z</time></trkpt><trkpt lat="42.0592233" lon="11.8252333"><ele>17.799999999999997</ele><time>2026-05-03T10:28:42.985Z</time></trkpt><trkpt lat="42.05921" lon="11.825365"><ele>17.4</ele><time>2026-05-03T10:28:43.989Z</time></trkpt><trkpt lat="42.0591717" lon="11.82549"><ele>17.0</ele><time>2026-05-03T10:28:44.986Z</time></trkpt><trkpt lat="42.05911" lon="11.8256"><ele>18.4</ele><time>2026-05-03T10:28:45.989Z</time></trkpt><trkpt lat="42.0590267" lon="11.825685"><ele>19.799999999999997</ele><time>2026-05-03T10:28:46.984Z</time></trkpt><trkpt lat="42.0589317" lon="11.8257417"><ele>21.2</ele><time>2026-05-03T10:28:47.988Z</time></trkpt><trkpt lat="42.0588267" lon="11.825755"><ele>22.599999999999998</ele><time>2026-05-03T10:28:48.989Z</time></trkpt><trkpt lat="42.0587217" lon="11.8257283"><ele>24.0</ele><time>2026-05-03T10:28:49.988Z</time></trkpt><trkpt lat="42.0586233" lon="11.8256633"><ele>24.0</ele><time>2026-05-03T10:28:50.991Z</time></trkpt><trkpt lat="42.0585433" lon="11.8255633"><ele>24.0</ele><time>2026-05-03T10:28:51.989Z</time></trkpt><trkpt lat="42.05848" lon="11.82543"><ele>24.0</ele><time>2026-05-03T10:28:52.986Z</time></trkpt><trkpt lat="42.0584333" lon="11.825275"><ele>24.0</ele><time>2026-05-03T10:28:53.991Z</time></trkpt><trkpt lat="42.0584" lon="11.8250967"><ele>22.333333333333332</ele><time>2026-05-03T10:28:54.988Z</time></trkpt><trkpt lat="42.0583767" lon="11.8249067"><ele>20.666666666666664</ele><time>2026-05-03T10:28:55.991Z</time></trkpt><trkpt lat="42.05836" lon="11.8247067"><ele>19.0</ele><time>2026-05-03T10:28:56.987Z</time></trkpt><trkpt lat="42.0583433" lon="11.82449"><ele>18.666666666666664</ele><time>2026-05-03T10:28:57.989Z</time></trkpt><trkpt lat="42.0583417" lon="11.824255"><ele>18.333333333333332</ele><time>2026-05-03T10:28:58.994Z</time></trkpt><trkpt lat="42.0583267" lon="11.8240117"><ele>18.0</ele><time>2026-05-03T10:28:59.988Z</time></trkpt><trkpt lat="42.05831" lon="11.8237717"><ele>18.0</ele><time>2026-05-03T10:29:00.992Z</time></trkpt><trkpt lat="42.0582983" lon="11.8235383"><ele>18.0</ele><time>2026-05-03T10:29:01.99Z</time></trkpt><trkpt lat="42.0582783" lon="11.82331"><ele>18.0</ele><time>2026-05-03T10:29:02.987Z</time></trkpt><trkpt lat="42.0582533" lon="11.8231033"><ele>18.0</ele><time>2026-05-03T10:29:03.988Z</time></trkpt><trkpt lat="42.058215" lon="11.8229067"><ele>18.0</ele><time>2026-05-03T10:29:04.988Z</time></trkpt><trkpt lat="42.0581633" lon="11.8227133"><ele>18.0</ele><time>2026-05-03T10:29:05.986Z</time></trkpt><trkpt lat="42.058105" lon="11.8225283"><ele>18.0</ele><time>2026-05-03T10:29:06.99Z</time></trkpt><trkpt lat="42.0580483" lon="11.8223633"><ele>18.0</ele><time>2026-05-03T10:29:07.99Z</time></trkpt><trkpt lat="42.057995" lon="11.8222183"><ele>18.0</ele><time>2026-05-03T10:29:08.989Z</time></trkpt><trkpt lat="42.0579483" lon="11.8220983"><ele>18.0</ele><time>2026-05-03T10:29:09.987Z</time></trkpt><trkpt lat="42.057915" lon="11.8220033"><ele>18.0</ele><time>2026-05-03T10:29:10.989Z</time></trkpt><trkpt lat="42.0578667" lon="11.8218933"><ele>17.5</ele><time>2026-05-03T10:29:12.987Z</time></trkpt><trkpt lat="42.0578417" lon="11.8217233"><ele>17.0</ele><time>2026-05-03T10:29:56.989Z</time></trkpt><trkpt lat="42.0577867" lon="11.8215817"><ele>16.5</ele><time>2026-05-03T10:29:57.99Z</time></trkpt><trkpt lat="42.057735" lon="11.8214317"><ele>16.0</ele><time>2026-05-03T10:29:58.988Z</time></trkpt><trkpt lat="42.0576817" lon="11.8212683"><ele>16.0</ele><time>2026-05-03T10:29:59.99Z</time></trkpt><trkpt lat="42.0576233" lon="11.8210917"><ele>16.0</ele><time>2026-05-03T10:30:00.988Z</time></trkpt><trkpt lat="42.0575617" lon="11.8209067"><ele>16.0</ele><time>2026-05-03T10:30:01.988Z</time></trkpt><trkpt lat="42.0575" lon="11.8207333"><ele>16.0</ele><time>2026-05-03T10:30:02.984Z</time></trkpt><trkpt lat="42.05744" lon="11.820575"><ele>14.0</ele><time>2026-05-03T10:30:03.985Z</time></trkpt><trkpt lat="42.05737" lon="11.8204333"><ele>12.0</ele><time>2026-05-03T10:30:04.988Z</time></trkpt><trkpt lat="42.0572883" lon="11.8202983"><ele>10.0</ele><time>2026-05-03T10:30:05.984Z</time></trkpt><trkpt lat="42.0571917" lon="11.820185"><ele>8.0</ele><time>2026-05-03T10:30:06.988Z</time></trkpt><trkpt lat="42.0570833" lon="11.8200917"><ele>7.75</ele><time>2026-05-03T10:30:07.988Z</time></trkpt><trkpt lat="42.0569633" lon="11.82003"><ele>7.5</ele><time>2026-05-03T10:30:08.988Z</time></trkpt><trkpt lat="42.05683" lon="11.8200067"><ele>7.25</ele><time>2026-05-03T10:30:09.987Z</time></trkpt><trkpt lat="42.0566867" lon="11.82002"><ele>7.0</ele><time>2026-05-03T10:30:10.987Z</time></trkpt><trkpt lat="42.0565333" lon="11.8200683"><ele>7.0</ele><time>2026-05-03T10:30:11.987Z</time></trkpt><trkpt lat="42.0563833" lon="11.8201367"><ele>7.0</ele><time>2026-05-03T10:30:12.986Z</time></trkpt><trkpt lat="42.05624" lon="11.820215"><ele>7.0</ele><time>2026-05-03T10:30:13.988Z</time></trkpt><trkpt lat="42.0560983" lon="11.8202967"><ele>7.0</ele><time>2026-05-03T10:30:14.986Z</time></trkpt><trkpt lat="42.055965" lon="11.820375"><ele>7.0</ele><time>2026-05-03T10:30:15.987Z</time></trkpt><trkpt lat="42.05584" lon="11.8204417"><ele>7.0</ele><time>2026-05-03T10:30:16.984Z</time></trkpt><trkpt lat="42.0557333" lon="11.820495"><ele>7.0</ele><time>2026-05-03T10:30:17.986Z</time></trkpt><trkpt lat="42.0556417" lon="11.8205317"><ele>7.000000000000001</ele><time>2026-05-03T10:30:18.981Z</time></trkpt><trkpt lat="42.055555" lon="11.82054"><ele>7.0</ele><time>2026-05-03T10:30:19.988Z</time></trkpt><trkpt lat="42.0554733" lon="11.820525"><ele>7.0</ele><time>2026-05-03T10:30:20.987Z</time></trkpt><trkpt lat="42.0554117" lon="11.8204783"><ele>7.0</ele><time>2026-05-03T10:30:21.987Z</time></trkpt><trkpt lat="42.0553767" lon="11.8204017"><ele>7.000000000000001</ele><time>2026-05-03T10:30:22.986Z</time></trkpt><trkpt lat="42.0553633" lon="11.8203067"><ele>7.0</ele><time>2026-05-03T10:30:23.985Z</time></trkpt><trkpt lat="42.0553667" lon="11.8202033"><ele>6.666666666666667</ele><time>2026-05-03T10:30:24.985Z</time></trkpt><trkpt lat="42.0553767" lon="11.8201033"><ele>6.333333333333334</ele><time>2026-05-03T10:30:25.988Z</time></trkpt><trkpt lat="42.0554433" lon="11.81998"><ele>6.0</ele><time>2026-05-03T10:30:27.987Z</time></trkpt><trkpt lat="42.0554983" lon="11.8199367"><ele>5.666666666666667</ele><time>2026-05-03T10:30:28.986Z</time></trkpt><trkpt lat="42.055575" lon="11.8199033"><ele>5.333333333333334</ele><time>2026-05-03T10:30:29.988Z</time></trkpt><trkpt lat="42.0556767" lon="11.8198783"><ele>5.0</ele><time>2026-05-03T10:30:30.988Z</time></trkpt><trkpt lat="42.0557983" lon="11.8198483"><ele>4.333333333333334</ele><time>2026-05-03T10:30:31.989Z</time></trkpt><trkpt lat="42.0559417" lon="11.8198133"><ele>3.666666666666667</ele><time>2026-05-03T10:30:32.982Z</time></trkpt><trkpt lat="42.0560933" lon="11.8197817"><ele>3.0</ele><time>2026-05-03T10:30:33.987Z</time></trkpt><trkpt lat="42.0562483" lon="11.8197517"><ele>3.0</ele><time>2026-05-03T10:30:34.988Z</time></trkpt><trkpt lat="42.056415" lon="11.819725"><ele>3.0</ele><time>2026-05-03T10:30:35.988Z</time></trkpt><trkpt lat="42.0565883" lon="11.819695"><ele>3.0</ele><time>2026-05-03T10:30:36.989Z</time></trkpt><trkpt lat="42.056765" lon="11.8196533"><ele>4.333333333333334</ele><time>2026-05-03T10:30:37.988Z</time></trkpt><trkpt lat="42.05693" lon="11.8195917"><ele>5.666666666666667</ele><time>2026-05-03T10:30:38.988Z</time></trkpt><trkpt lat="42.0570783" lon="11.8195033"><ele>7.0</ele><time>2026-05-03T10:30:39.987Z</time></trkpt><trkpt lat="42.0572133" lon="11.8193867"><ele>5.0</ele><time>2026-05-03T10:30:40.987Z</time></trkpt><trkpt lat="42.05734" lon="11.8192533"><ele>3.0</ele><time>2026-05-03T10:30:41.986Z</time></trkpt><trkpt lat="42.0574583" lon="11.81912"><ele>1.0</ele><time>2026-05-03T10:30:42.986Z</time></trkpt><trkpt lat="42.05757" lon="11.818995"><ele>1.0</ele><time>2026-05-03T10:30:43.988Z</time></trkpt><trkpt lat="42.057675" lon="11.8188717"><ele>1.0</ele><time>2026-05-03T10:30:44.986Z</time></trkpt><trkpt lat="42.0577783" lon="11.8187483"><ele>1.0</ele><time>2026-05-03T10:30:45.986Z</time></trkpt><trkpt lat="42.057885" lon="11.8186267"><ele>1.0</ele><time>2026-05-03T10:30:46.986Z</time></trkpt><trkpt lat="42.0579917" lon="11.8185083"><ele>1.0</ele><time>2026-05-03T10:30:47.988Z</time></trkpt><trkpt lat="42.0580983" lon="11.818395"><ele>1.0</ele><time>2026-05-03T10:30:48.988Z</time></trkpt><trkpt lat="42.058205" lon="11.81828"><ele>1.0</ele><time>2026-05-03T10:30:49.989Z</time></trkpt><trkpt lat="42.05831" lon="11.818165"><ele>1.0</ele><time>2026-05-03T10:30:50.986Z</time></trkpt><trkpt lat="42.0584133" lon="11.818045"><ele>1.75</ele><time>2026-05-03T10:30:51.987Z</time></trkpt><trkpt lat="42.0585167" lon="11.817925"><ele>2.5</ele><time>2026-05-03T10:30:52.986Z</time></trkpt><trkpt lat="42.0586183" lon="11.8178133"><ele>3.25</ele><time>2026-05-03T10:30:53.987Z</time></trkpt><trkpt lat="42.0587183" lon="11.8177017"><ele>4.0</ele><time>2026-05-03T10:30:54.986Z</time></trkpt><trkpt lat="42.0588217" lon="11.81759"><ele>4.25</ele><time>2026-05-03T10:30:55.987Z</time></trkpt><trkpt lat="42.0589283" lon="11.81748"><ele>4.5</ele><time>2026-05-03T10:30:56.987Z</time></trkpt><trkpt lat="42.059045" lon="11.81738"><ele>4.75</ele><time>2026-05-03T10:30:57.986Z</time></trkpt><trkpt lat="42.0591683" lon="11.817295"><ele>5.0</ele><time>2026-05-03T10:30:58.988Z</time></trkpt><trkpt lat="42.0593" lon="11.81722"><ele>6.333333333333334</ele><time>2026-05-03T10:30:59.989Z</time></trkpt><trkpt lat="42.05944" lon="11.8171533"><ele>7.666666666666667</ele><time>2026-05-03T10:31:00.982Z</time></trkpt><trkpt lat="42.05959" lon="11.8170933"><ele>9.0</ele><time>2026-05-03T10:31:01.988Z</time></trkpt><trkpt lat="42.0597433" lon="11.8170383"><ele>9.0</ele><time>2026-05-03T10:31:02.987Z</time></trkpt><trkpt lat="42.0598967" lon="11.816985"><ele>9.0</ele><time>2026-05-03T10:31:03.99Z</time></trkpt><trkpt lat="42.06005" lon="11.81694"><ele>9.0</ele><time>2026-05-03T10:31:04.988Z</time></trkpt><trkpt lat="42.060205" lon="11.8168983"><ele>10.0</ele><time>2026-05-03T10:31:05.985Z</time></trkpt><trkpt lat="42.0603567" lon="11.81685"><ele>11.0</ele><time>2026-05-03T10:31:06.988Z</time></trkpt><trkpt lat="42.0605033" lon="11.8167933"><ele>12.0</ele><time>2026-05-03T10:31:07.988Z</time></trkpt><trkpt lat="42.06064" lon="11.8167267"><ele>11.0</ele><time>2026-05-03T10:31:08.985Z</time></trkpt><trkpt lat="42.060765" lon="11.8166533"><ele>10.0</ele><time>2026-05-03T10:31:09.988Z</time></trkpt><trkpt lat="42.060885" lon="11.8165733"><ele>9.0</ele><time>2026-05-03T10:31:10.988Z</time></trkpt><trkpt lat="42.0610017" lon="11.81649"><ele>8.0</ele><time>2026-05-03T10:31:11.984Z</time></trkpt><trkpt lat="42.06111" lon="11.8164083"><ele>8.0</ele><time>2026-05-03T10:31:12.987Z</time></trkpt><trkpt lat="42.0612167" lon="11.8163267"><ele>8.0</ele><time>2026-05-03T10:31:13.983Z</time></trkpt><trkpt lat="42.06132" lon="11.8162517"><ele>8.0</ele><time>2026-05-03T10:31:14.987Z</time></trkpt><trkpt lat="42.0614233" lon="11.8161767"><ele>8.0</ele><time>2026-05-03T10:31:15.987Z</time></trkpt><trkpt lat="42.06153" lon="11.816095"><ele>8.0</ele><time>2026-05-03T10:31:16.986Z</time></trkpt><trkpt lat="42.0616383" lon="11.8160083"><ele>8.0</ele><time>2026-05-03T10:31:17.988Z</time></trkpt><trkpt lat="42.0617517" lon="11.8159133"><ele>8.0</ele><time>2026-05-03T10:31:18.986Z</time></trkpt><trkpt lat="42.0618733" lon="11.81581"><ele>8.0</ele><time>2026-05-03T10:31:19.988Z</time></trkpt><trkpt lat="42.0620067" lon="11.815695"><ele>7.666666666666666</ele><time>2026-05-03T10:31:20.987Z</time></trkpt><trkpt lat="42.0621567" lon="11.8155717"><ele>7.333333333333334</ele><time>2026-05-03T10:31:21.988Z</time></trkpt><trkpt lat="42.0623217" lon="11.8154433"><ele>7.0</ele><time>2026-05-03T10:31:22.988Z</time></trkpt><trkpt lat="42.0625017" lon="11.81531"><ele>7.0</ele><time>2026-05-03T10:31:23.986Z</time></trkpt><trkpt lat="42.0626917" lon="11.815175"><ele>7.0</ele><time>2026-05-03T10:31:24.987Z</time></trkpt><trkpt lat="42.0628783" lon="11.81504"><ele>7.0</ele><time>2026-05-03T10:31:25.988Z</time></trkpt><trkpt lat="42.0630683" lon="11.8149"><ele>6.0</ele><time>2026-05-03T10:31:26.986Z</time></trkpt><trkpt lat="42.0632633" lon="11.8147533"><ele>5.0</ele><time>2026-05-03T10:31:27.987Z</time></trkpt><trkpt lat="42.06346" lon="11.8146067"><ele>4.0</ele><time>2026-05-03T10:31:28.987Z</time></trkpt><trkpt lat="42.0636483" lon="11.81447"><ele>4.0</ele><time>2026-05-03T10:31:29.989Z</time></trkpt><trkpt lat="42.0638283" lon="11.8143433"><ele>4.0</ele><time>2026-05-03T10:31:30.988Z</time></trkpt><trkpt lat="42.0640033" lon="11.81423"><ele>4.0</ele><time>2026-05-03T10:31:31.987Z</time></trkpt><trkpt lat="42.0641833" lon="11.814135"><ele>4.0</ele><time>2026-05-03T10:31:32.988Z</time></trkpt><trkpt lat="42.06437" lon="11.8140633"><ele>4.0</ele><time>2026-05-03T10:31:33.989Z</time></trkpt><trkpt lat="42.0645583" lon="11.814"><ele>4.0</ele><time>2026-05-03T10:31:34.991Z</time></trkpt><trkpt lat="42.064745" lon="11.81395"><ele>4.0</ele><time>2026-05-03T10:31:35.987Z</time></trkpt><trkpt lat="42.064925" lon="11.8139117"><ele>4.0</ele><time>2026-05-03T10:31:36.986Z</time></trkpt><trkpt lat="42.065095" lon="11.8138867"><ele>4.0</ele><time>2026-05-03T10:31:37.988Z</time></trkpt><trkpt lat="42.0652567" lon="11.8138733"><ele>4.25</ele><time>2026-05-03T10:31:38.99Z</time></trkpt><trkpt lat="42.0654067" lon="11.81388"><ele>4.5</ele><time>2026-05-03T10:31:39.988Z</time></trkpt><trkpt lat="42.0655467" lon="11.8139133"><ele>4.75</ele><time>2026-05-03T10:31:40.986Z</time></trkpt><trkpt lat="42.0656783" lon="11.8139667"><ele>5.0</ele><time>2026-05-03T10:31:41.987Z</time></trkpt><trkpt lat="42.0657967" lon="11.81403"><ele>5.0</ele><time>2026-05-03T10:31:42.986Z</time></trkpt><trkpt lat="42.0659017" lon="11.8140883"><ele>5.0</ele><time>2026-05-03T10:31:43.988Z</time></trkpt><trkpt lat="42.0660017" lon="11.8141467"><ele>5.0</ele><time>2026-05-03T10:31:44.988Z</time></trkpt><trkpt lat="42.0660983" lon="11.8142017"><ele>5.0</ele><time>2026-05-03T10:31:45.987Z</time></trkpt><trkpt lat="42.0661917" lon="11.8142567"><ele>5.0</ele><time>2026-05-03T10:31:46.987Z</time></trkpt><trkpt lat="42.0662767" lon="11.8143067"><ele>5.6</ele><time>2026-05-03T10:31:47.987Z</time></trkpt><trkpt lat="42.06636" lon="11.814365"><ele>6.2</ele><time>2026-05-03T10:31:48.987Z</time></trkpt><trkpt lat="42.06644" lon="11.8144467"><ele>6.800000000000001</ele><time>2026-05-03T10:31:49.99Z</time></trkpt><trkpt lat="42.066515" lon="11.8145533"><ele>7.4</ele><time>2026-05-03T10:31:50.986Z</time></trkpt><trkpt lat="42.0665883" lon="11.814685"><ele>8.0</ele><time>2026-05-03T10:31:51.988Z</time></trkpt><trkpt lat="42.0666767" lon="11.8148283"><ele>8.0</ele><time>2026-05-03T10:31:52.986Z</time></trkpt><trkpt lat="42.0667833" lon="11.814965"><ele>8.0</ele><time>2026-05-03T10:31:53.988Z</time></trkpt><trkpt lat="42.0669133" lon="11.8151033"><ele>8.0</ele><time>2026-05-03T10:31:54.985Z</time></trkpt><trkpt lat="42.0670517" lon="11.81525"><ele>8.333333333333332</ele><time>2026-05-03T10:31:55.988Z</time></trkpt><trkpt lat="42.067185" lon="11.8153983"><ele>8.666666666666666</ele><time>2026-05-03T10:31:56.986Z</time></trkpt><trkpt lat="42.0673083" lon="11.8155333"><ele>9.0</ele><time>2026-05-03T10:31:57.988Z</time></trkpt><trkpt lat="42.0674233" lon="11.8156633"><ele>9.75</ele><time>2026-05-03T10:31:58.988Z</time></trkpt><trkpt lat="42.0675317" lon="11.81579"><ele>10.5</ele><time>2026-05-03T10:31:59.989Z</time></trkpt><trkpt lat="42.0676367" lon="11.8159117"><ele>11.25</ele><time>2026-05-03T10:32:00.989Z</time></trkpt><trkpt lat="42.0677367" lon="11.8160267"><ele>12.0</ele><time>2026-05-03T10:32:01.988Z</time></trkpt><trkpt lat="42.0678333" lon="11.816145"><ele>12.5</ele><time>2026-05-03T10:32:02.997Z</time></trkpt><trkpt lat="42.06793" lon="11.8162617"><ele>13.0</ele><time>2026-05-03T10:32:03.988Z</time></trkpt><trkpt lat="42.06802" lon="11.8163733"><ele>13.5</ele><time>2026-05-03T10:32:04.989Z</time></trkpt><trkpt lat="42.0680917" lon="11.81649"><ele>14.0</ele><time>2026-05-03T10:32:05.99Z</time></trkpt><trkpt lat="42.068155" lon="11.8166167"><ele>14.0</ele><time>2026-05-03T10:32:06.989Z</time></trkpt><trkpt lat="42.06821" lon="11.81676"><ele>14.0</ele><time>2026-05-03T10:32:07.99Z</time></trkpt><trkpt lat="42.0682567" lon="11.8169133"><ele>14.0</ele><time>2026-05-03T10:32:08.989Z</time></trkpt><trkpt lat="42.0683017" lon="11.8170667"><ele>14.0</ele><time>2026-05-03T10:32:09.988Z</time></trkpt><trkpt lat="42.0683433" lon="11.8172217"><ele>15.0</ele><time>2026-05-03T10:32:10.987Z</time></trkpt><trkpt lat="42.0683867" lon="11.8173833"><ele>16.0</ele><time>2026-05-03T10:32:11.987Z</time></trkpt><trkpt lat="42.06844" lon="11.8175583"><ele>17.0</ele><time>2026-05-03T10:32:12.986Z</time></trkpt><trkpt lat="42.0685" lon="11.81775"><ele>18.0</ele><time>2026-05-03T10:32:13.989Z</time></trkpt><trkpt lat="42.0685633" lon="11.8179617"><ele>18.0</ele><time>2026-05-03T10:32:14.986Z</time></trkpt><trkpt lat="42.06863" lon="11.818185"><ele>18.0</ele><time>2026-05-03T10:32:15.986Z</time></trkpt><trkpt lat="42.0686933" lon="11.8183983"><ele>18.0</ele><time>2026-05-03T10:32:16.988Z</time></trkpt><trkpt lat="42.06875" lon="11.8186033"><ele>17.0</ele><time>2026-05-03T10:32:17.987Z</time></trkpt><trkpt lat="42.0688033" lon="11.81879"><ele>16.0</ele><time>2026-05-03T10:32:18.985Z</time></trkpt><trkpt lat="42.06886" lon="11.8189583"><ele>15.0</ele><time>2026-05-03T10:32:19.987Z</time></trkpt><trkpt lat="42.06891" lon="11.8191117"><ele>14.0</ele><time>2026-05-03T10:32:20.986Z</time></trkpt><trkpt lat="42.0689517" lon="11.8192433"><ele>13.833333333333334</ele><time>2026-05-03T10:32:21.984Z</time></trkpt><trkpt lat="42.068985" lon="11.8193583"><ele>13.666666666666668</ele><time>2026-05-03T10:32:22.986Z</time></trkpt><trkpt lat="42.069005" lon="11.8194617"><ele>13.5</ele><time>2026-05-03T10:32:23.986Z</time></trkpt><trkpt lat="42.0690117" lon="11.8195567"><ele>13.333333333333332</ele><time>2026-05-03T10:32:24.989Z</time></trkpt><trkpt lat="42.069055" lon="11.819695"><ele>13.166666666666666</ele><time>2026-05-03T10:32:26.988Z</time></trkpt><trkpt lat="42.0691333" lon="11.8197317"><ele>13.0</ele><time>2026-05-03T10:32:28.99Z</time></trkpt><trkpt lat="42.06919" lon="11.8196933"><ele>14.0</ele><time>2026-05-03T10:32:29.99Z</time></trkpt><trkpt lat="42.0692533" lon="11.8196367"><ele>15.0</ele><time>2026-05-03T10:32:30.988Z</time></trkpt><trkpt lat="42.0693333" lon="11.8195567"><ele>16.0</ele><time>2026-05-03T10:32:31.988Z</time></trkpt><trkpt lat="42.0694317" lon="11.8194733"><ele>17.0</ele><time>2026-05-03T10:32:32.987Z</time></trkpt><trkpt lat="42.06954" lon="11.8193817"><ele>18.0</ele><time>2026-05-03T10:32:33.986Z</time></trkpt><trkpt lat="42.069665" lon="11.8192867"><ele>19.25</ele><time>2026-05-03T10:32:34.986Z</time></trkpt><trkpt lat="42.0697967" lon="11.8191917"><ele>20.5</ele><time>2026-05-03T10:32:35.989Z</time></trkpt><trkpt lat="42.0699283" lon="11.8190967"><ele>21.75</ele><time>2026-05-03T10:32:36.988Z</time></trkpt><trkpt lat="42.0700583" lon="11.819005"><ele>23.0</ele><time>2026-05-03T10:32:37.99Z</time></trkpt><trkpt lat="42.0701917" lon="11.81891"><ele>23.75</ele><time>2026-05-03T10:32:38.989Z</time></trkpt><trkpt lat="42.070325" lon="11.8188133"><ele>24.5</ele><time>2026-05-03T10:32:39.986Z</time></trkpt><trkpt lat="42.0704533" lon="11.8187233"><ele>25.25</ele><time>2026-05-03T10:32:40.987Z</time></trkpt><trkpt lat="42.0705733" lon="11.8186383"><ele>26.0</ele><time>2026-05-03T10:32:41.99Z</time></trkpt><trkpt lat="42.0706783" lon="11.8185583"><ele>25.999999999999996</ele><time>2026-05-03T10:32:42.988Z</time></trkpt><trkpt lat="42.0707733" lon="11.8184883"><ele>26.0</ele><time>2026-05-03T10:32:43.989Z</time></trkpt><trkpt lat="42.0708533" lon="11.81843"><ele>26.0</ele><time>2026-05-03T10:32:44.991Z</time></trkpt><trkpt lat="42.070925" lon="11.8183783"><ele>26.0</ele><time>2026-05-03T10:32:45.986Z</time></trkpt><trkpt lat="42.0709933" lon="11.8183383"><ele>25.999999999999996</ele><time>2026-05-03T10:32:46.988Z</time></trkpt><trkpt lat="42.071055" lon="11.8182983"><ele>26.0</ele><time>2026-05-03T10:32:47.988Z</time></trkpt><trkpt lat="42.071115" lon="11.8182633"><ele>27.0</ele><time>2026-05-03T10:32:48.987Z</time></trkpt><trkpt lat="42.0711783" lon="11.8182167"><ele>28.0</ele><time>2026-05-03T10:32:49.989Z</time></trkpt><trkpt lat="42.0712467" lon="11.8181517"><ele>29.0</ele><time>2026-05-03T10:32:50.986Z</time></trkpt><trkpt lat="42.07132" lon="11.8180767"><ele>30.0</ele><time>2026-05-03T10:32:51.988Z</time></trkpt><trkpt lat="42.0714" lon="11.8179917"><ele>31.0</ele><time>2026-05-03T10:32:52.987Z</time></trkpt><trkpt lat="42.0714917" lon="11.8179033"><ele>31.0</ele><time>2026-05-03T10:32:53.987Z</time></trkpt><trkpt lat="42.0715983" lon="11.817805"><ele>31.0</ele><time>2026-05-03T10:32:54.986Z</time></trkpt><trkpt lat="42.0717167" lon="11.8177"><ele>31.0</ele><time>2026-05-03T10:32:55.987Z</time></trkpt><trkpt lat="42.0718517" lon="11.81759"><ele>31.0</ele><time>2026-05-03T10:32:56.987Z</time></trkpt><trkpt lat="42.071995" lon="11.8174833"><ele>31.333333333333336</ele><time>2026-05-03T10:32:57.986Z</time></trkpt><trkpt lat="42.0721417" lon="11.81737"><ele>31.666666666666664</ele><time>2026-05-03T10:32:58.987Z</time></trkpt><trkpt lat="42.0722917" lon="11.8172517"><ele>32.0</ele><time>2026-05-03T10:32:59.987Z</time></trkpt><trkpt lat="42.0724367" lon="11.8171317"><ele>33.0</ele><time>2026-05-03T10:33:00.987Z</time></trkpt><trkpt lat="42.0725767" lon="11.8170167"><ele>34.0</ele><time>2026-05-03T10:33:01.989Z</time></trkpt><trkpt lat="42.0727117" lon="11.8169133"><ele>35.0</ele><time>2026-05-03T10:33:02.988Z</time></trkpt><trkpt lat="42.072845" lon="11.8168217"><ele>34.5</ele><time>2026-05-03T10:33:03.988Z</time></trkpt><trkpt lat="42.0729767" lon="11.816745"><ele>34.0</ele><time>2026-05-03T10:33:04.988Z</time></trkpt><trkpt lat="42.0731067" lon="11.8166833"><ele>33.5</ele><time>2026-05-03T10:33:05.985Z</time></trkpt><trkpt lat="42.0732283" lon="11.8166383"><ele>33.0</ele><time>2026-05-03T10:33:06.988Z</time></trkpt><trkpt lat="42.0733417" lon="11.81661"><ele>33.0</ele><time>2026-05-03T10:33:07.989Z</time></trkpt><trkpt lat="42.0734483" lon="11.8165867"><ele>33.0</ele><time>2026-05-03T10:33:08.988Z</time></trkpt><trkpt lat="42.073555" lon="11.8165717"><ele>33.0</ele><time>2026-05-03T10:33:09.991Z</time></trkpt><trkpt lat="42.073655" lon="11.8165633"><ele>33.0</ele><time>2026-05-03T10:33:10.989Z</time></trkpt><trkpt lat="42.0737517" lon="11.816565"><ele>33.0</ele><time>2026-05-03T10:33:11.988Z</time></trkpt><trkpt lat="42.07384" lon="11.81657"><ele>33.0</ele><time>2026-05-03T10:33:12.987Z</time></trkpt><trkpt lat="42.0739283" lon="11.816575"><ele>33.0</ele><time>2026-05-03T10:33:13.987Z</time></trkpt><trkpt lat="42.0740217" lon="11.8165783"><ele>33.0</ele><time>2026-05-03T10:33:14.987Z</time></trkpt><trkpt lat="42.0741217" lon="11.8165817"><ele>33.0</ele><time>2026-05-03T10:33:15.988Z</time></trkpt><trkpt lat="42.0742233" lon="11.8165817"><ele>33.0</ele><time>2026-05-03T10:33:16.987Z</time></trkpt><trkpt lat="42.07433" lon="11.81658"><ele>33.0</ele><time>2026-05-03T10:33:17.986Z</time></trkpt><trkpt lat="42.07444" lon="11.8165817"><ele>33.0</ele><time>2026-05-03T10:33:18.987Z</time></trkpt><trkpt lat="42.0745517" lon="11.8165833"><ele>33.0</ele><time>2026-05-03T10:33:19.987Z</time></trkpt><trkpt lat="42.0746617" lon="11.8165883"><ele>33.0</ele><time>2026-05-03T10:33:20.988Z</time></trkpt><trkpt lat="42.07477" lon="11.816595"><ele>33.0</ele><time>2026-05-03T10:33:21.987Z</time></trkpt><trkpt lat="42.0748767" lon="11.8166"><ele>32.8</ele><time>2026-05-03T10:33:22.986Z</time></trkpt><trkpt lat="42.0749833" lon="11.8166033"><ele>32.599999999999994</ele><time>2026-05-03T10:33:23.989Z</time></trkpt><trkpt lat="42.07509" lon="11.8165967"><ele>32.400000000000006</ele><time>2026-05-03T10:33:24.988Z</time></trkpt><trkpt lat="42.0751983" lon="11.816585"><ele>32.2</ele><time>2026-05-03T10:33:25.988Z</time></trkpt><trkpt lat="42.0753033" lon="11.8165683"><ele>32.0</ele><time>2026-05-03T10:33:26.989Z</time></trkpt><trkpt lat="42.0754033" lon="11.81655"><ele>32.0</ele><time>2026-05-03T10:33:27.99Z</time></trkpt><trkpt lat="42.0754933" lon="11.8165267"><ele>32.0</ele><time>2026-05-03T10:33:28.99Z</time></trkpt><trkpt lat="42.075565" lon="11.8165"><ele>32.0</ele><time>2026-05-03T10:33:29.991Z</time></trkpt><trkpt lat="42.0756233" lon="11.81646"><ele>32.0</ele><time>2026-05-03T10:33:30.986Z</time></trkpt><trkpt lat="42.07569" lon="11.8163367"><ele>32.0</ele><time>2026-05-03T10:33:32.984Z</time></trkpt><trkpt lat="42.07569" lon="11.81617"><ele>31.999999999999996</ele><time>2026-05-03T10:33:34.989Z</time></trkpt><trkpt lat="42.075675" lon="11.8160833"><ele>32.0</ele><time>2026-05-03T10:33:35.988Z</time></trkpt><trkpt lat="42.0756583" lon="11.81595"><ele>32.0</ele><time>2026-05-03T10:33:37.991Z</time></trkpt><trkpt lat="42.0756467" lon="11.8158433"><ele>32.0</ele><time>2026-05-03T10:33:39.989Z</time></trkpt><trkpt lat="42.075605" lon="11.8157217"><ele>31.999999999999996</ele><time>2026-05-03T10:34:36.987Z</time></trkpt><trkpt lat="42.0756" lon="11.81562"><ele>32.0</ele><time>2026-05-03T10:34:45.988Z</time></trkpt><trkpt lat="42.0755417" lon="11.8155867"><ele>31.857142857142854</ele><time>2026-05-03T10:34:51.987Z</time></trkpt><trkpt lat="42.0755267" lon="11.8156817"><ele>31.71428571428571</ele><time>2026-05-03T10:35:05.991Z</time></trkpt><trkpt lat="42.0755183" lon="11.8157667"><ele>31.57142857142857</ele><time>2026-05-03T10:35:11.989Z</time></trkpt><trkpt lat="42.0754733" lon="11.8156983"><ele>31.42857142857143</ele><time>2026-05-03T10:55:23.988Z</time></trkpt><trkpt lat="42.0754883" lon="11.8156067"><ele>31.28571428571429</ele><time>2026-05-03T10:55:27.992Z</time></trkpt><trkpt lat="42.0755417" lon="11.8155567"><ele>31.142857142857146</ele><time>2026-05-03T10:55:30.987Z</time></trkpt><trkpt lat="42.0756127" lon="11.8155493"><ele>31.0</ele><time>2026-05-03T10:55:38.985Z</time></trkpt><trkpt lat="42.0756368" lon="11.8156369"><ele>31.000000000000004</ele><time>2026-05-03T10:55:41.988Z</time></trkpt><trkpt lat="42.0756399" lon="11.8157268"><ele>31.0</ele><time>2026-05-03T10:55:46.987Z</time></trkpt><trkpt lat="42.0756268" lon="11.8158185"><ele>31.0</ele><time>2026-05-03T10:55:52.022Z</time></trkpt><trkpt lat="42.0756533" lon="11.8158983"><ele>31.0</ele><time>2026-05-03T10:57:30.988Z</time></trkpt><trkpt lat="42.0756533" lon="11.81602"><ele>31.000000000000004</ele><time>2026-05-03T10:57:32.988Z</time></trkpt><trkpt lat="42.0756533" lon="11.8161633"><ele>31.0</ele><time>2026-05-03T10:57:34.986Z</time></trkpt><trkpt lat="42.0756567" lon="11.81628"><ele>31.166666666666668</ele><time>2026-05-03T10:57:36.986Z</time></trkpt><trkpt lat="42.0756717" lon="11.8163683"><ele>31.333333333333336</ele><time>2026-05-03T10:57:39.987Z</time></trkpt><trkpt lat="42.0757317" lon="11.816395"><ele>31.5</ele><time>2026-05-03T10:57:41.988Z</time></trkpt><trkpt lat="42.0758233" lon="11.81634"><ele>31.666666666666664</ele><time>2026-05-03T10:57:43.99Z</time></trkpt><trkpt lat="42.075945" lon="11.8162467"><ele>31.833333333333332</ele><time>2026-05-03T10:57:45.988Z</time></trkpt><trkpt lat="42.07601" lon="11.8161917"><ele>32.0</ele><time>2026-05-03T10:57:46.987Z</time></trkpt><trkpt lat="42.0760767" lon="11.8161317"><ele>32.0</ele><time>2026-05-03T10:57:47.988Z</time></trkpt><trkpt lat="42.076155" lon="11.8160633"><ele>32.0</ele><time>2026-05-03T10:57:48.987Z</time></trkpt><trkpt lat="42.0762417" lon="11.815985"><ele>32.0</ele><time>2026-05-03T10:57:49.989Z</time></trkpt><trkpt lat="42.076335" lon="11.8159"><ele>32.0</ele><time>2026-05-03T10:57:50.988Z</time></trkpt><trkpt lat="42.0764367" lon="11.815815"><ele>32.0</ele><time>2026-05-03T10:57:51.987Z</time></trkpt><trkpt lat="42.076545" lon="11.8157317"><ele>32.0</ele><time>2026-05-03T10:57:52.987Z</time></trkpt><trkpt lat="42.0766533" lon="11.8156583"><ele>32.0</ele><time>2026-05-03T10:57:53.987Z</time></trkpt><trkpt lat="42.076765" lon="11.8155833"><ele>32.0</ele><time>2026-05-03T10:57:54.986Z</time></trkpt><trkpt lat="42.0768833" lon="11.8155083"><ele>32.0</ele><time>2026-05-03T10:57:55.988Z</time></trkpt><trkpt lat="42.0770083" lon="11.8154333"><ele>32.0</ele><time>2026-05-03T10:57:56.986Z</time></trkpt><trkpt lat="42.0771367" lon="11.8153633"><ele>32.0</ele><time>2026-05-03T10:57:57.986Z</time></trkpt><trkpt lat="42.0772633" lon="11.8152917"><ele>32.0</ele><time>2026-05-03T10:57:58.988Z</time></trkpt><trkpt lat="42.07739" lon="11.8152133"><ele>32.0</ele><time>2026-05-03T10:57:59.988Z</time></trkpt><trkpt lat="42.0775167" lon="11.8151283"><ele>30.75</ele><time>2026-05-03T10:58:00.986Z</time></trkpt><trkpt lat="42.0776433" lon="11.81504"><ele>29.5</ele><time>2026-05-03T10:58:01.988Z</time></trkpt><trkpt lat="42.0777717" lon="11.8149483"><ele>28.25</ele><time>2026-05-03T10:58:02.988Z</time></trkpt><trkpt lat="42.0778983" lon="11.814855"><ele>27.0</ele><time>2026-05-03T10:58:03.987Z</time></trkpt><trkpt lat="42.0780233" lon="11.8147617"><ele>27.0</ele><time>2026-05-03T10:58:04.988Z</time></trkpt><trkpt lat="42.078145" lon="11.814665"><ele>27.0</ele><time>2026-05-03T10:58:05.988Z</time></trkpt><trkpt lat="42.0782683" lon="11.81457"><ele>27.0</ele><time>2026-05-03T10:58:06.987Z</time></trkpt><trkpt lat="42.0783917" lon="11.8144733"><ele>27.0</ele><time>2026-05-03T10:58:07.988Z</time></trkpt><trkpt lat="42.0785167" lon="11.814375"><ele>25.75</ele><time>2026-05-03T10:58:08.988Z</time></trkpt><trkpt lat="42.0786367" lon="11.8142817"><ele>24.5</ele><time>2026-05-03T10:58:09.986Z</time></trkpt><trkpt lat="42.078755" lon="11.8141967"><ele>23.25</ele><time>2026-05-03T10:58:10.988Z</time></trkpt><trkpt lat="42.07887" lon="11.8141317"><ele>22.0</ele><time>2026-05-03T10:58:11.982Z</time></trkpt><trkpt lat="42.0789833" lon="11.81408"><ele>22.0</ele><time>2026-05-03T10:58:12.992Z</time></trkpt><trkpt lat="42.079095" lon="11.81404"><ele>22.0</ele><time>2026-05-03T10:58:13.987Z</time></trkpt><trkpt lat="42.07921" lon="11.81401"><ele>22.0</ele><time>2026-05-03T10:58:14.987Z</time></trkpt><trkpt lat="42.0793283" lon="11.813995"><ele>22.0</ele><time>2026-05-03T10:58:15.986Z</time></trkpt><trkpt lat="42.0794483" lon="11.8139933"><ele>23.25</ele><time>2026-05-03T10:58:16.989Z</time></trkpt><trkpt lat="42.0795633" lon="11.8140033"><ele>24.5</ele><time>2026-05-03T10:58:17.984Z</time></trkpt><trkpt lat="42.0796733" lon="11.8140233"><ele>25.75</ele><time>2026-05-03T10:58:18.988Z</time></trkpt><trkpt lat="42.0797833" lon="11.8140483"><ele>27.0</ele><time>2026-05-03T10:58:19.988Z</time></trkpt><trkpt lat="42.0799" lon="11.814075"><ele>26.0</ele><time>2026-05-03T10:58:20.988Z</time></trkpt><trkpt lat="42.0800233" lon="11.8140983"><ele>25.0</ele><time>2026-05-03T10:58:21.986Z</time></trkpt><trkpt lat="42.0801467" lon="11.8141133"><ele>24.0</ele><time>2026-05-03T10:58:22.986Z</time></trkpt><trkpt lat="42.0802717" lon="11.8141233"><ele>23.0</ele><time>2026-05-03T10:58:23.989Z</time></trkpt><trkpt lat="42.080395" lon="11.81413"><ele>23.0</ele><time>2026-05-03T10:58:24.984Z</time></trkpt><trkpt lat="42.0805167" lon="11.81413"><ele>23.0</ele><time>2026-05-03T10:58:25.988Z</time></trkpt><trkpt lat="42.0806333" lon="11.8141233"><ele>23.0</ele><time>2026-05-03T10:58:26.989Z</time></trkpt><trkpt lat="42.0807367" lon="11.81411"><ele>23.0</ele><time>2026-05-03T10:58:27.986Z</time></trkpt><trkpt lat="42.0808267" lon="11.8140933"><ele>23.0</ele><time>2026-05-03T10:58:28.987Z</time></trkpt><trkpt lat="42.0809117" lon="11.8140683"><ele>23.599999999999998</ele><time>2026-05-03T10:58:29.987Z</time></trkpt><trkpt lat="42.080995" lon="11.8140333"><ele>24.2</ele><time>2026-05-03T10:58:30.986Z</time></trkpt><trkpt lat="42.0810817" lon="11.8139867"><ele>24.8</ele><time>2026-05-03T10:58:31.988Z</time></trkpt><trkpt lat="42.0811667" lon="11.8139317"><ele>25.4</ele><time>2026-05-03T10:58:32.987Z</time></trkpt><trkpt lat="42.0812533" lon="11.813875"><ele>26.0</ele><time>2026-05-03T10:58:33.988Z</time></trkpt><trkpt lat="42.0813417" lon="11.813825"><ele>25.999999999999996</ele><time>2026-05-03T10:58:34.987Z</time></trkpt><trkpt lat="42.0814167" lon="11.8137767"><ele>26.0</ele><time>2026-05-03T10:58:35.987Z</time></trkpt><trkpt lat="42.0814883" lon="11.8137367"><ele>26.0</ele><time>2026-05-03T10:58:36.985Z</time></trkpt><trkpt lat="42.0815633" lon="11.8137033"><ele>26.0</ele><time>2026-05-03T10:58:37.988Z</time></trkpt><trkpt lat="42.0816417" lon="11.8136717"><ele>25.999999999999996</ele><time>2026-05-03T10:58:38.986Z</time></trkpt><trkpt lat="42.08172" lon="11.8136367"><ele>26.0</ele><time>2026-05-03T10:58:39.986Z</time></trkpt><trkpt lat="42.0817933" lon="11.8135983"><ele>26.333333333333332</ele><time>2026-05-03T10:58:40.988Z</time></trkpt><trkpt lat="42.08186" lon="11.813555"><ele>26.666666666666664</ele><time>2026-05-03T10:58:41.987Z</time></trkpt><trkpt lat="42.0819217" lon="11.8135083"><ele>27.0</ele><time>2026-05-03T10:58:42.987Z</time></trkpt><trkpt lat="42.08198" lon="11.8134483"><ele>27.333333333333336</ele><time>2026-05-03T10:58:43.988Z</time></trkpt><trkpt lat="42.0820333" lon="11.81337"><ele>27.666666666666668</ele><time>2026-05-03T10:58:44.989Z</time></trkpt><trkpt lat="42.0820783" lon="11.8132883"><ele>28.0</ele><time>2026-05-03T10:58:45.987Z</time></trkpt><trkpt lat="42.082115" lon="11.8131933"><ele>28.000000000000004</ele><time>2026-05-03T10:58:46.988Z</time></trkpt><trkpt lat="42.0821367" lon="11.813095"><ele>28.0</ele><time>2026-05-03T10:58:47.989Z</time></trkpt><trkpt lat="42.0821483" lon="11.8129917"><ele>28.0</ele><time>2026-05-03T10:58:48.987Z</time></trkpt><trkpt lat="42.08215" lon="11.8128917"><ele>28.0</ele><time>2026-05-03T10:58:49.989Z</time></trkpt><trkpt lat="42.0821383" lon="11.8128033"><ele>28.000000000000004</ele><time>2026-05-03T10:58:50.987Z</time></trkpt><trkpt lat="42.0821067" lon="11.8126983"><ele>28.0</ele><time>2026-05-03T10:58:51.986Z</time></trkpt><trkpt lat="42.082055" lon="11.81259"><ele>27.4</ele><time>2026-05-03T10:58:52.986Z</time></trkpt><trkpt lat="42.0820083" lon="11.8124667"><ele>26.799999999999997</ele><time>2026-05-03T10:58:53.986Z</time></trkpt><trkpt lat="42.0819617" lon="11.8123333"><ele>26.2</ele><time>2026-05-03T10:58:54.987Z</time></trkpt><trkpt lat="42.081915" lon="11.8122"><ele>25.6</ele><time>2026-05-03T10:58:55.988Z</time></trkpt><trkpt lat="42.0818767" lon="11.8120667"><ele>25.0</ele><time>2026-05-03T10:58:56.989Z</time></trkpt><trkpt lat="42.08183" lon="11.8119317"><ele>25.0</ele><time>2026-05-03T10:58:57.987Z</time></trkpt><trkpt lat="42.08178" lon="11.8117983"><ele>25.0</ele><time>2026-05-03T10:58:58.987Z</time></trkpt><trkpt lat="42.0817267" lon="11.8116633"><ele>25.0</ele><time>2026-05-03T10:58:59.988Z</time></trkpt><trkpt lat="42.081675" lon="11.8115283"><ele>25.0</ele><time>2026-05-03T10:59:00.988Z</time></trkpt><trkpt lat="42.081615" lon="11.81139"><ele>24.5</ele><time>2026-05-03T10:59:01.985Z</time></trkpt><trkpt lat="42.0815617" lon="11.81125"><ele>24.0</ele><time>2026-05-03T10:59:02.986Z</time></trkpt><trkpt lat="42.08151" lon="11.81111"><ele>23.5</ele><time>2026-05-03T10:59:03.988Z</time></trkpt><trkpt lat="42.0814533" lon="11.81097"><ele>23.0</ele><time>2026-05-03T10:59:04.987Z</time></trkpt><trkpt lat="42.081395" lon="11.81083"><ele>22.75</ele><time>2026-05-03T10:59:05.986Z</time></trkpt><trkpt lat="42.081335" lon="11.8106933"><ele>22.5</ele><time>2026-05-03T10:59:06.987Z</time></trkpt><trkpt lat="42.0812783" lon="11.810555"><ele>22.25</ele><time>2026-05-03T10:59:07.989Z</time></trkpt><trkpt lat="42.0812233" lon="11.8104133"><ele>22.0</ele><time>2026-05-03T10:59:08.988Z</time></trkpt><trkpt lat="42.0811717" lon="11.81027"><ele>20.75</ele><time>2026-05-03T10:59:09.986Z</time></trkpt><trkpt lat="42.0811317" lon="11.81013"><ele>19.5</ele><time>2026-05-03T10:59:10.987Z</time></trkpt><trkpt lat="42.0810983" lon="11.809985"><ele>18.25</ele><time>2026-05-03T10:59:11.988Z</time></trkpt><trkpt lat="42.0810717" lon="11.8098333"><ele>17.0</ele><time>2026-05-03T10:59:12.987Z</time></trkpt><trkpt lat="42.08106" lon="11.8096833"><ele>17.0</ele><time>2026-05-03T10:59:13.989Z</time></trkpt><trkpt lat="42.081055" lon="11.809535"><ele>17.0</ele><time>2026-05-03T10:59:14.988Z</time></trkpt><trkpt lat="42.0810517" lon="11.80939"><ele>17.0</ele><time>2026-05-03T10:59:15.988Z</time></trkpt><trkpt lat="42.08105" lon="11.809255"><ele>17.0</ele><time>2026-05-03T10:59:16.986Z</time></trkpt><trkpt lat="42.0810533" lon="11.8091333"><ele>17.0</ele><time>2026-05-03T10:59:17.987Z</time></trkpt><trkpt lat="42.0810533" lon="11.8090283"><ele>16.8</ele><time>2026-05-03T10:59:18.987Z</time></trkpt><trkpt lat="42.0810483" lon="11.808895"><ele>16.6</ele><time>2026-05-03T10:59:20.987Z</time></trkpt><trkpt lat="42.0810333" lon="11.8087633"><ele>16.400000000000002</ele><time>2026-05-03T11:00:17.99Z</time></trkpt><trkpt lat="42.0810283" lon="11.8086367"><ele>16.2</ele><time>2026-05-03T11:00:19.991Z</time></trkpt><trkpt lat="42.08103" lon="11.8084917"><ele>16.0</ele><time>2026-05-03T11:00:21.99Z</time></trkpt><trkpt lat="42.08106" lon="11.80838"><ele>15.200000000000001</ele><time>2026-05-03T11:00:23.987Z</time></trkpt><trkpt lat="42.081135" lon="11.808325"><ele>14.400000000000002</ele><time>2026-05-03T11:00:25.988Z</time></trkpt><trkpt lat="42.081255" lon="11.808325"><ele>13.6</ele><time>2026-05-03T11:00:27.988Z</time></trkpt><trkpt lat="42.081345" lon="11.8083367"><ele>12.8</ele><time>2026-05-03T11:00:28.989Z</time></trkpt><trkpt lat="42.0814483" lon="11.8083517"><ele>12.0</ele><time>2026-05-03T11:00:29.99Z</time></trkpt><trkpt lat="42.08156" lon="11.8083683"><ele>11.75</ele><time>2026-05-03T11:00:30.988Z</time></trkpt><trkpt lat="42.0816867" lon="11.80839"><ele>11.5</ele><time>2026-05-03T11:00:31.989Z</time></trkpt><trkpt lat="42.0818183" lon="11.8084083"><ele>11.25</ele><time>2026-05-03T11:00:32.989Z</time></trkpt><trkpt lat="42.0819483" lon="11.8084283"><ele>11.0</ele><time>2026-05-03T11:00:33.989Z</time></trkpt><trkpt lat="42.0820833" lon="11.80845"><ele>11.0</ele><time>2026-05-03T11:00:34.991Z</time></trkpt><trkpt lat="42.0822267" lon="11.80847"><ele>11.0</ele><time>2026-05-03T11:00:35.99Z</time></trkpt><trkpt lat="42.0823733" lon="11.808495"><ele>11.0</ele><time>2026-05-03T11:00:36.989Z</time></trkpt><trkpt lat="42.082525" lon="11.8085233"><ele>11.0</ele><time>2026-05-03T11:00:37.989Z</time></trkpt><trkpt lat="42.0826767" lon="11.80855"><ele>11.333333333333332</ele><time>2026-05-03T11:00:38.99Z</time></trkpt><trkpt lat="42.0828283" lon="11.8085783"><ele>11.666666666666666</ele><time>2026-05-03T11:00:39.99Z</time></trkpt><trkpt lat="42.08299" lon="11.8086117"><ele>12.0</ele><time>2026-05-03T11:00:40.987Z</time></trkpt><trkpt lat="42.0831617" lon="11.8086417"><ele>12.0</ele><time>2026-05-03T11:00:41.988Z</time></trkpt><trkpt lat="42.08334" lon="11.808675"><ele>12.0</ele><time>2026-05-03T11:00:42.988Z</time></trkpt><trkpt lat="42.08351" lon="11.8087083"><ele>12.0</ele><time>2026-05-03T11:00:43.987Z</time></trkpt><trkpt lat="42.0836783" lon="11.8087433"><ele>12.0</ele><time>2026-05-03T11:00:44.988Z</time></trkpt><trkpt lat="42.08385" lon="11.8087767"><ele>12.0</ele><time>2026-05-03T11:00:45.988Z</time></trkpt><trkpt lat="42.0840167" lon="11.8088117"><ele>12.0</ele><time>2026-05-03T11:00:46.988Z</time></trkpt><trkpt lat="42.0841733" lon="11.8088433"><ele>12.0</ele><time>2026-05-03T11:00:47.988Z</time></trkpt><trkpt lat="42.0843233" lon="11.8088733"><ele>12.0</ele><time>2026-05-03T11:00:48.987Z</time></trkpt><trkpt lat="42.08446" lon="11.808895"><ele>12.0</ele><time>2026-05-03T11:00:49.987Z</time></trkpt><trkpt lat="42.0845833" lon="11.8089067"><ele>12.0</ele><time>2026-05-03T11:00:50.988Z</time></trkpt><trkpt lat="42.0846867" lon="11.808905"><ele>12.0</ele><time>2026-05-03T11:00:51.987Z</time></trkpt><trkpt lat="42.084775" lon="11.808875"><ele>12.0</ele><time>2026-05-03T11:00:52.989Z</time></trkpt><trkpt lat="42.0848517" lon="11.808825"><ele>12.0</ele><time>2026-05-03T11:00:53.986Z</time></trkpt><trkpt lat="42.0849133" lon="11.8087617"><ele>12.0</ele><time>2026-05-03T11:00:54.987Z</time></trkpt><trkpt lat="42.0849683" lon="11.80868"><ele>12.0</ele><time>2026-05-03T11:00:55.988Z</time></trkpt><trkpt lat="42.0850217" lon="11.80858"><ele>12.0</ele><time>2026-05-03T11:00:56.989Z</time></trkpt><trkpt lat="42.0850817" lon="11.8084617"><ele>14.25</ele><time>2026-05-03T11:00:57.986Z</time></trkpt><trkpt lat="42.0851517" lon="11.8083217"><ele>16.5</ele><time>2026-05-03T11:00:58.987Z</time></trkpt><trkpt lat="42.085225" lon="11.8081683"><ele>18.75</ele><time>2026-05-03T11:00:59.989Z</time></trkpt><trkpt lat="42.0853017" lon="11.8080067"><ele>21.0</ele><time>2026-05-03T11:01:00.987Z</time></trkpt><trkpt lat="42.08538" lon="11.80785"><ele>21.0</ele><time>2026-05-03T11:01:01.987Z</time></trkpt><trkpt lat="42.0854567" lon="11.8077017"><ele>21.0</ele><time>2026-05-03T11:01:02.987Z</time></trkpt><trkpt lat="42.0855317" lon="11.8075483"><ele>21.0</ele><time>2026-05-03T11:01:03.986Z</time></trkpt><trkpt lat="42.085605" lon="11.807395"><ele>21.0</ele><time>2026-05-03T11:01:04.984Z</time></trkpt><trkpt lat="42.085675" lon="11.807235"><ele>21.25</ele><time>2026-05-03T11:01:05.982Z</time></trkpt><trkpt lat="42.0857433" lon="11.8070817"><ele>21.5</ele><time>2026-05-03T11:01:06.982Z</time></trkpt><trkpt lat="42.085815" lon="11.8069267"><ele>21.75</ele><time>2026-05-03T11:01:07.983Z</time></trkpt><trkpt lat="42.0858883" lon="11.80677"><ele>22.0</ele><time>2026-05-03T11:01:08.988Z</time></trkpt><trkpt lat="42.0859667" lon="11.806615"><ele>21.5</ele><time>2026-05-03T11:01:09.984Z</time></trkpt><trkpt lat="42.0860383" lon="11.8064683"><ele>21.0</ele><time>2026-05-03T11:01:10.986Z</time></trkpt><trkpt lat="42.0861083" lon="11.8063317"><ele>20.5</ele><time>2026-05-03T11:01:11.989Z</time></trkpt><trkpt lat="42.0861733" lon="11.806195"><ele>20.0</ele><time>2026-05-03T11:01:12.989Z</time></trkpt><trkpt lat="42.08623" lon="11.8060767"><ele>20.0</ele><time>2026-05-03T11:01:13.989Z</time></trkpt><trkpt lat="42.086275" lon="11.8059817"><ele>20.0</ele><time>2026-05-03T11:01:14.986Z</time></trkpt><trkpt lat="42.08631" lon="11.8059083"><ele>20.0</ele><time>2026-05-03T11:01:15.987Z</time></trkpt><trkpt lat="42.0863567" lon="11.8058317"><ele>20.0</ele><time>2026-05-03T11:01:17.988Z</time></trkpt><trkpt lat="42.086415" lon="11.8057733"><ele>20.0</ele><time>2026-05-03T11:01:23.988Z</time></trkpt><trkpt lat="42.0864883" lon="11.8057317"><ele>20.0</ele><time>2026-05-03T11:01:25.995Z</time></trkpt><trkpt lat="42.0865333" lon="11.805665"><ele>20.0</ele><time>2026-05-03T11:01:27.989Z</time></trkpt><trkpt lat="42.08651" lon="11.80558"><ele>20.0</ele><time>2026-05-03T11:01:29.99Z</time></trkpt><trkpt lat="42.086445" lon="11.8054817"><ele>20.0</ele><time>2026-05-03T11:01:31.99Z</time></trkpt><trkpt lat="42.08639" lon="11.8053383"><ele>20.0</ele><time>2026-05-03T11:01:33.988Z</time></trkpt><trkpt lat="42.0863783" lon="11.8051833"><ele>20.0</ele><time>2026-05-03T11:01:35.987Z</time></trkpt><trkpt lat="42.08639" lon="11.8050333"><ele>20.0</ele><time>2026-05-03T11:01:37.988Z</time></trkpt><trkpt lat="42.0864467" lon="11.804925"><ele>20.0</ele><time>2026-05-03T11:01:39.988Z</time></trkpt><trkpt lat="42.0865533" lon="11.80488"><ele>20.0</ele><time>2026-05-03T11:01:41.989Z</time></trkpt><trkpt lat="42.0866267" lon="11.8048783"><ele>20.0</ele><time>2026-05-03T11:01:42.988Z</time></trkpt><trkpt lat="42.086705" lon="11.8048633"><ele>20.0</ele><time>2026-05-03T11:01:43.987Z</time></trkpt><trkpt lat="42.0867933" lon="11.8048567"><ele>20.0</ele><time>2026-05-03T11:01:44.987Z</time></trkpt><trkpt lat="42.086895" lon="11.80485"><ele>20.0</ele><time>2026-05-03T11:01:45.987Z</time></trkpt><trkpt lat="42.0869933" lon="11.8048367"><ele>20.0</ele><time>2026-05-03T11:01:46.988Z</time></trkpt><trkpt lat="42.0870883" lon="11.80482"><ele>20.0</ele><time>2026-05-03T11:01:47.989Z</time></trkpt><trkpt lat="42.0871867" lon="11.8048017"><ele>20.0</ele><time>2026-05-03T11:01:48.987Z</time></trkpt><trkpt lat="42.0872917" lon="11.80478"><ele>20.0</ele><time>2026-05-03T11:01:49.989Z</time></trkpt><trkpt lat="42.0874" lon="11.8047617"><ele>20.25</ele><time>2026-05-03T11:01:50.986Z</time></trkpt><trkpt lat="42.087515" lon="11.80474"><ele>20.5</ele><time>2026-05-03T11:01:51.986Z</time></trkpt><trkpt lat="42.087635" lon="11.80472"><ele>20.75</ele><time>2026-05-03T11:01:52.986Z</time></trkpt><trkpt lat="42.0877567" lon="11.8047017"><ele>21.0</ele><time>2026-05-03T11:01:53.988Z</time></trkpt><trkpt lat="42.08787" lon="11.8046733"><ele>21.0</ele><time>2026-05-03T11:01:54.986Z</time></trkpt><trkpt lat="42.08798" lon="11.8046467"><ele>21.0</ele><time>2026-05-03T11:01:55.988Z</time></trkpt><trkpt lat="42.0880883" lon="11.8046117"><ele>21.0</ele><time>2026-05-03T11:01:56.984Z</time></trkpt><trkpt lat="42.0881867" lon="11.8045733"><ele>21.0</ele><time>2026-05-03T11:01:57.987Z</time></trkpt><trkpt lat="42.0882683" lon="11.80453"><ele>21.0</ele><time>2026-05-03T11:01:58.99Z</time></trkpt><trkpt lat="42.0883417" lon="11.8044867"><ele>21.0</ele><time>2026-05-03T11:01:59.988Z</time></trkpt><trkpt lat="42.0884083" lon="11.80445"><ele>21.0</ele><time>2026-05-03T11:02:00.988Z</time></trkpt><trkpt lat="42.0884733" lon="11.8044183"><ele>21.0</ele><time>2026-05-03T11:02:01.989Z</time></trkpt><trkpt lat="42.08858" lon="11.8043917"><ele>21.0</ele><time>2026-05-03T11:02:03.986Z</time></trkpt><trkpt lat="42.0886733" lon="11.8043683"><ele>21.0</ele><time>2026-05-03T11:02:05.986Z</time></trkpt><trkpt lat="42.08874" lon="11.804285"><ele>21.0</ele><time>2026-05-03T11:02:07.99Z</time></trkpt><trkpt lat="42.0888033" lon="11.8041483"><ele>21.0</ele><time>2026-05-03T11:02:09.987Z</time></trkpt><trkpt lat="42.0888517" lon="11.804085"><ele>21.0</ele><time>2026-05-03T11:02:10.985Z</time></trkpt><trkpt lat="42.08891" lon="11.80402"><ele>21.0</ele><time>2026-05-03T11:02:11.988Z</time></trkpt><trkpt lat="42.0889783" lon="11.8039567"><ele>21.0</ele><time>2026-05-03T11:02:12.989Z</time></trkpt><trkpt lat="42.0890467" lon="11.8038883"><ele>21.0</ele><time>2026-05-03T11:02:13.989Z</time></trkpt><trkpt lat="42.0891133" lon="11.80382"><ele>21.0</ele><time>2026-05-03T11:02:14.987Z</time></trkpt><trkpt lat="42.0891817" lon="11.8037567"><ele>21.166666666666668</ele><time>2026-05-03T11:02:15.987Z</time></trkpt><trkpt lat="42.0892483" lon="11.8036917"><ele>21.333333333333332</ele><time>2026-05-03T11:02:16.986Z</time></trkpt><trkpt lat="42.0893117" lon="11.8036233"><ele>21.5</ele><time>2026-05-03T11:02:17.987Z</time></trkpt><trkpt lat="42.0893667" lon="11.8035367"><ele>21.666666666666664</ele><time>2026-05-03T11:02:18.988Z</time></trkpt><trkpt lat="42.089415" lon="11.803425"><ele>21.833333333333332</ele><time>2026-05-03T11:02:19.989Z</time></trkpt><trkpt lat="42.089465" lon="11.803305"><ele>22.0</ele><time>2026-05-03T11:02:20.988Z</time></trkpt><trkpt lat="42.0895033" lon="11.8031933"><ele>22.0</ele><time>2026-05-03T11:02:21.987Z</time></trkpt><trkpt lat="42.0895467" lon="11.8030817"><ele>22.0</ele><time>2026-05-03T11:02:22.986Z</time></trkpt><trkpt lat="42.0895967" lon="11.802965"><ele>22.0</ele><time>2026-05-03T11:02:23.988Z</time></trkpt><trkpt lat="42.0896533" lon="11.802845"><ele>22.0</ele><time>2026-05-03T11:02:24.988Z</time></trkpt><trkpt lat="42.0897133" lon="11.80273"><ele>22.0</ele><time>2026-05-03T11:02:25.988Z</time></trkpt><trkpt lat="42.0897717" lon="11.8026183"><ele>22.0</ele><time>2026-05-03T11:02:26.987Z</time></trkpt><trkpt lat="42.0898317" lon="11.80251"><ele>22.0</ele><time>2026-05-03T11:02:27.984Z</time></trkpt><trkpt lat="42.089885" lon="11.8024017"><ele>22.0</ele><time>2026-05-03T11:02:28.989Z</time></trkpt><trkpt lat="42.08994" lon="11.8022817"><ele>22.0</ele><time>2026-05-03T11:02:29.986Z</time></trkpt><trkpt lat="42.0900017" lon="11.8021567"><ele>22.0</ele><time>2026-05-03T11:02:30.986Z</time></trkpt><trkpt lat="42.0900633" lon="11.802025"><ele>22.25</ele><time>2026-05-03T11:02:31.988Z</time></trkpt><trkpt lat="42.0901267" lon="11.8018867"><ele>22.5</ele><time>2026-05-03T11:02:32.988Z</time></trkpt><trkpt lat="42.0901917" lon="11.801745"><ele>22.75</ele><time>2026-05-03T11:02:33.987Z</time></trkpt><trkpt lat="42.090255" lon="11.8016083"><ele>23.0</ele><time>2026-05-03T11:02:34.986Z</time></trkpt><trkpt lat="42.0903167" lon="11.80149"><ele>23.0</ele><time>2026-05-03T11:02:35.986Z</time></trkpt><trkpt lat="42.0903633" lon="11.8013883"><ele>23.0</ele><time>2026-05-03T11:02:36.987Z</time></trkpt><trkpt lat="42.0904067" lon="11.8012933"><ele>23.0</ele><time>2026-05-03T11:02:37.99Z</time></trkpt><trkpt lat="42.0904517" lon="11.8011983"><ele>23.0</ele><time>2026-05-03T11:02:38.987Z</time></trkpt><trkpt lat="42.0904983" lon="11.8011"><ele>23.0</ele><time>2026-05-03T11:02:39.987Z</time></trkpt><trkpt lat="42.0905517" lon="11.8010033"><ele>23.0</ele><time>2026-05-03T11:02:40.989Z</time></trkpt><trkpt lat="42.09061" lon="11.8009033"><ele>23.0</ele><time>2026-05-03T11:02:41.986Z</time></trkpt><trkpt lat="42.0906617" lon="11.8007933"><ele>23.0</ele><time>2026-05-03T11:02:42.987Z</time></trkpt><trkpt lat="42.0907133" lon="11.80069"><ele>23.0</ele><time>2026-05-03T11:02:43.988Z</time></trkpt><trkpt lat="42.0907633" lon="11.800595"><ele>23.0</ele><time>2026-05-03T11:02:44.986Z</time></trkpt><trkpt lat="42.0908083" lon="11.8004967"><ele>23.0</ele><time>2026-05-03T11:02:45.987Z</time></trkpt><trkpt lat="42.0908517" lon="11.8004067"><ele>23.0</ele><time>2026-05-03T11:02:46.986Z</time></trkpt><trkpt lat="42.0908917" lon="11.800315"><ele>23.0</ele><time>2026-05-03T11:02:47.986Z</time></trkpt><trkpt lat="42.090935" lon="11.80022"><ele>23.0</ele><time>2026-05-03T11:02:48.988Z</time></trkpt><trkpt lat="42.0909683" lon="11.8001267"><ele>23.0</ele><time>2026-05-03T11:02:49.988Z</time></trkpt><trkpt lat="42.0910083" lon="11.8000417"><ele>23.0</ele><time>2026-05-03T11:02:50.988Z</time></trkpt><trkpt lat="42.0910483" lon="11.7999683"><ele>23.0</ele><time>2026-05-03T11:02:51.987Z</time></trkpt><trkpt lat="42.09112" lon="11.799845"><ele>23.0</ele><time>2026-05-03T11:02:53.986Z</time></trkpt><trkpt lat="42.09119" lon="11.7997967"><ele>22.5</ele><time>2026-05-03T11:02:55.987Z</time></trkpt><trkpt lat="42.0912633" lon="11.7998117"><ele>22.0</ele><time>2026-05-03T11:02:57.987Z</time></trkpt><trkpt lat="42.09133" lon="11.7998533"><ele>21.5</ele><time>2026-05-03T11:03:00.989Z</time></trkpt><trkpt lat="42.0913767" lon="11.7999167"><ele>21.0</ele><time>2026-05-03T11:03:05.989Z</time></trkpt><trkpt lat="42.091435" lon="11.7999967"><ele>20.5</ele><time>2026-05-03T11:03:11.988Z</time></trkpt><trkpt lat="42.0914733" lon="11.8000833"><ele>20.0</ele><time>2026-05-03T11:03:14.987Z</time></trkpt><trkpt lat="42.09156" lon="11.8000504"><ele>20.0</ele><time>2026-05-03T11:08:43.03Z</time></trkpt><trkpt lat="42.0914956" lon="11.8000688"><ele>20.0</ele><time>2026-05-03T11:12:23.026Z</time></trkpt><trkpt lat="42.0915917" lon="11.7999967"><ele>20.0</ele><time>2026-05-03T11:16:09.99Z</time></trkpt><trkpt lat="42.0916317" lon="11.8000867"><ele>20.0</ele><time>2026-05-03T11:16:13.991Z</time></trkpt><trkpt lat="42.091695" lon="11.8001917"><ele>20.0</ele><time>2026-05-03T11:16:16.992Z</time></trkpt><trkpt lat="42.09175" lon="11.8002583"><ele>20.0</ele><time>2026-05-03T11:16:18.991Z</time></trkpt><trkpt lat="42.0918217" lon="11.800335"><ele>20.5</ele><time>2026-05-03T11:16:21.989Z</time></trkpt><trkpt lat="42.091875" lon="11.8003917"><ele>21.0</ele><time>2026-05-03T11:16:25.991Z</time></trkpt><trkpt lat="42.0918233" lon="11.8004667"><ele>21.5</ele><time>2026-05-03T11:16:27.99Z</time></trkpt><trkpt lat="42.0917367" lon="11.8005867"><ele>22.0</ele><time>2026-05-03T11:16:29.989Z</time></trkpt><trkpt lat="42.0916767" lon="11.8006567"><ele>22.5</ele><time>2026-05-03T11:16:30.989Z</time></trkpt><trkpt lat="42.0916267" lon="11.8007267"><ele>23.0</ele><time>2026-05-03T11:16:31.988Z</time></trkpt><trkpt lat="42.0915733" lon="11.8008017"><ele>23.0</ele><time>2026-05-03T11:16:32.989Z</time></trkpt><trkpt lat="42.0915217" lon="11.8008817"><ele>23.0</ele><time>2026-05-03T11:16:33.986Z</time></trkpt><trkpt lat="42.0914683" lon="11.800965"><ele>23.0</ele><time>2026-05-03T11:16:34.99Z</time></trkpt><trkpt lat="42.0914133" lon="11.8010467"><ele>23.0</ele><time>2026-05-03T11:16:35.987Z</time></trkpt><trkpt lat="42.0913583" lon="11.8011233"><ele>23.0</ele><time>2026-05-03T11:16:36.99Z</time></trkpt><trkpt lat="42.091315" lon="11.801195"><ele>23.0</ele><time>2026-05-03T11:16:37.991Z</time></trkpt><trkpt lat="42.0912683" lon="11.801265"><ele>23.2</ele><time>2026-05-03T11:16:38.99Z</time></trkpt><trkpt lat="42.09118" lon="11.801385"><ele>23.4</ele><time>2026-05-03T11:16:40.989Z</time></trkpt><trkpt lat="42.09112" lon="11.8014617"><ele>23.599999999999998</ele><time>2026-05-03T11:16:41.989Z</time></trkpt><trkpt lat="42.0910533" lon="11.801555"><ele>23.799999999999997</ele><time>2026-05-03T11:16:42.991Z</time></trkpt><trkpt lat="42.0909867" lon="11.8016383"><ele>24.0</ele><time>2026-05-03T11:16:43.99Z</time></trkpt><trkpt lat="42.0909217" lon="11.801725"><ele>24.0</ele><time>2026-05-03T11:16:44.989Z</time></trkpt><trkpt lat="42.0908617" lon="11.801815"><ele>24.0</ele><time>2026-05-03T11:16:45.987Z</time></trkpt><trkpt lat="42.0907983" lon="11.8019"><ele>24.0</ele><time>2026-05-03T11:16:46.989Z</time></trkpt><trkpt lat="42.0907233" lon="11.80198"><ele>24.0</ele><time>2026-05-03T11:16:47.989Z</time></trkpt><trkpt lat="42.0906567" lon="11.80208"><ele>24.0</ele><time>2026-05-03T11:16:48.99Z</time></trkpt><trkpt lat="42.0905933" lon="11.80217"><ele>24.166666666666668</ele><time>2026-05-03T11:16:49.989Z</time></trkpt><trkpt lat="42.090525" lon="11.802245"><ele>24.333333333333336</ele><time>2026-05-03T11:16:50.988Z</time></trkpt><trkpt lat="42.0904467" lon="11.8023417"><ele>24.5</ele><time>2026-05-03T11:16:52.986Z</time></trkpt><trkpt lat="42.090395" lon="11.8024033"><ele>24.666666666666668</ele><time>2026-05-03T11:16:53.987Z</time></trkpt><trkpt lat="42.0903533" lon="11.8024683"><ele>24.833333333333336</ele><time>2026-05-03T11:16:54.988Z</time></trkpt><trkpt lat="42.090295" lon="11.8025467"><ele>25.0</ele><time>2026-05-03T11:16:55.988Z</time></trkpt><trkpt lat="42.0902367" lon="11.8026333"><ele>25.000000000000004</ele><time>2026-05-03T11:16:56.989Z</time></trkpt><trkpt lat="42.0901617" lon="11.8027133"><ele>25.0</ele><time>2026-05-03T11:16:57.987Z</time></trkpt><trkpt lat="42.0900817" lon="11.8027967"><ele>25.0</ele><time>2026-05-03T11:16:58.987Z</time></trkpt><trkpt lat="42.0900133" lon="11.8028833"><ele>25.0</ele><time>2026-05-03T11:16:59.989Z</time></trkpt><trkpt lat="42.089955" lon="11.8029633"><ele>25.000000000000004</ele><time>2026-05-03T11:17:00.989Z</time></trkpt><trkpt lat="42.08991" lon="11.8030417"><ele>25.0</ele><time>2026-05-03T11:17:01.988Z</time></trkpt><trkpt lat="42.0898483" lon="11.8031733"><ele>24.6</ele><time>2026-05-03T11:17:03.989Z</time></trkpt><trkpt lat="42.08978" lon="11.80326"><ele>24.2</ele><time>2026-05-03T11:17:05.987Z</time></trkpt><trkpt lat="42.0897017" lon="11.8033117"><ele>23.799999999999997</ele><time>2026-05-03T11:17:07.988Z</time></trkpt><trkpt lat="42.089625" lon="11.8033633"><ele>23.4</ele><time>2026-05-03T11:17:09.988Z</time></trkpt><trkpt lat="42.0895367" lon="11.8034517"><ele>23.0</ele><time>2026-05-03T11:17:11.988Z</time></trkpt><trkpt lat="42.08943" lon="11.803545"><ele>23.0</ele><time>2026-05-03T11:17:13.99Z</time></trkpt><trkpt lat="42.0893667" lon="11.8036033"><ele>23.0</ele><time>2026-05-03T11:17:14.989Z</time></trkpt><trkpt lat="42.0893" lon="11.8036683"><ele>23.0</ele><time>2026-05-03T11:17:15.988Z</time></trkpt><trkpt lat="42.0892533" lon="11.803735"><ele>23.0</ele><time>2026-05-03T11:17:16.989Z</time></trkpt><trkpt lat="42.0891917" lon="11.8038067"><ele>23.0</ele><time>2026-05-03T11:17:17.989Z</time></trkpt><trkpt lat="42.08913" lon="11.8038633"><ele>23.0</ele><time>2026-05-03T11:17:18.989Z</time></trkpt><trkpt lat="42.08907" lon="11.8039233"><ele>22.714285714285715</ele><time>2026-05-03T11:17:19.987Z</time></trkpt><trkpt lat="42.0890067" lon="11.8039883"><ele>22.428571428571427</ele><time>2026-05-03T11:17:20.989Z</time></trkpt><trkpt lat="42.0889383" lon="11.8040517"><ele>22.142857142857142</ele><time>2026-05-03T11:17:21.987Z</time></trkpt><trkpt lat="42.0888833" lon="11.8041067"><ele>21.857142857142858</ele><time>2026-05-03T11:17:22.988Z</time></trkpt><trkpt lat="42.08883" lon="11.8041583"><ele>21.57142857142857</ele><time>2026-05-03T11:17:23.988Z</time></trkpt><trkpt lat="42.08877" lon="11.8042"><ele>21.285714285714285</ele><time>2026-05-03T11:17:24.988Z</time></trkpt><trkpt lat="42.0887033" lon="11.8042433"><ele>21.0</ele><time>2026-05-03T11:17:25.989Z</time></trkpt><trkpt lat="42.08863" lon="11.8042883"><ele>21.0</ele><time>2026-05-03T11:17:26.988Z</time></trkpt><trkpt lat="42.088555" lon="11.8043283"><ele>21.0</ele><time>2026-05-03T11:17:27.988Z</time></trkpt><trkpt lat="42.0884683" lon="11.8043833"><ele>21.0</ele><time>2026-05-03T11:17:28.989Z</time></trkpt><trkpt lat="42.0883883" lon="11.8044267"><ele>21.0</ele><time>2026-05-03T11:17:29.983Z</time></trkpt><trkpt lat="42.0883017" lon="11.80449"><ele>21.0</ele><time>2026-05-03T11:17:30.982Z</time></trkpt><trkpt lat="42.0882117" lon="11.80455"><ele>21.0</ele><time>2026-05-03T11:17:31.982Z</time></trkpt><trkpt lat="42.08811" lon="11.8046067"><ele>21.0</ele><time>2026-05-03T11:17:32.982Z</time></trkpt><trkpt lat="42.0880017" lon="11.8046517"><ele>21.0</ele><time>2026-05-03T11:17:33.983Z</time></trkpt><trkpt lat="42.0878967" lon="11.8047033"><ele>21.0</ele><time>2026-05-03T11:17:34.982Z</time></trkpt><trkpt lat="42.087785" lon="11.8047467"><ele>21.0</ele><time>2026-05-03T11:17:35.982Z</time></trkpt><trkpt lat="42.08767" lon="11.8047867"><ele>21.0</ele><time>2026-05-03T11:17:36.99Z</time></trkpt><trkpt lat="42.0875633" lon="11.80482"><ele>21.0</ele><time>2026-05-03T11:17:37.989Z</time></trkpt><trkpt lat="42.0874483" lon="11.8048533"><ele>21.0</ele><time>2026-05-03T11:17:38.988Z</time></trkpt><trkpt lat="42.0873367" lon="11.8048667"><ele>20.8</ele><time>2026-05-03T11:17:39.989Z</time></trkpt><trkpt lat="42.0872233" lon="11.8048767"><ele>20.6</ele><time>2026-05-03T11:17:40.984Z</time></trkpt><trkpt lat="42.08711" lon="11.8048983"><ele>20.4</ele><time>2026-05-03T11:17:41.989Z</time></trkpt><trkpt lat="42.0870133" lon="11.8049217"><ele>20.2</ele><time>2026-05-03T11:17:42.989Z</time></trkpt><trkpt lat="42.086915" lon="11.804945"><ele>20.0</ele><time>2026-05-03T11:17:43.988Z</time></trkpt><trkpt lat="42.0868233" lon="11.8049633"><ele>20.0</ele><time>2026-05-03T11:17:44.988Z</time></trkpt><trkpt lat="42.0867433" lon="11.8049933"><ele>20.0</ele><time>2026-05-03T11:17:45.986Z</time></trkpt><trkpt lat="42.08667" lon="11.8050217"><ele>20.0</ele><time>2026-05-03T11:17:46.988Z</time></trkpt><trkpt lat="42.0865717" lon="11.8050683"><ele>20.0</ele><time>2026-05-03T11:17:48.989Z</time></trkpt><trkpt lat="42.086485" lon="11.8050417"><ele>20.0</ele><time>2026-05-03T11:17:51.99Z</time></trkpt><trkpt lat="42.08638" lon="11.8050617"><ele>19.666666666666668</ele><time>2026-05-03T11:17:53.989Z</time></trkpt><trkpt lat="42.086315" lon="11.8050683"><ele>19.333333333333336</ele><time>2026-05-03T11:17:54.988Z</time></trkpt><trkpt lat="42.086245" lon="11.8050767"><ele>19.0</ele><time>2026-05-03T11:17:55.987Z</time></trkpt><trkpt lat="42.086165" lon="11.80508"><ele>18.666666666666668</ele><time>2026-05-03T11:17:56.99Z</time></trkpt><trkpt lat="42.08608" lon="11.8050867"><ele>18.333333333333332</ele><time>2026-05-03T11:17:57.99Z</time></trkpt><trkpt lat="42.08599" lon="11.8051033"><ele>18.0</ele><time>2026-05-03T11:17:58.988Z</time></trkpt><trkpt lat="42.085895" lon="11.80512"><ele>18.0</ele><time>2026-05-03T11:17:59.991Z</time></trkpt><trkpt lat="42.0858117" lon="11.8051333"><ele>18.0</ele><time>2026-05-03T11:18:00.988Z</time></trkpt><trkpt lat="42.0857267" lon="11.80515"><ele>18.0</ele><time>2026-05-03T11:18:01.989Z</time></trkpt><trkpt lat="42.0856467" lon="11.8051667"><ele>18.0</ele><time>2026-05-03T11:18:02.989Z</time></trkpt><trkpt lat="42.0855517" lon="11.805185"><ele>18.0</ele><time>2026-05-03T11:18:03.989Z</time></trkpt><trkpt lat="42.0854517" lon="11.8051967"><ele>18.0</ele><time>2026-05-03T11:18:04.987Z</time></trkpt><trkpt lat="42.0853433" lon="11.8052117"><ele>18.2</ele><time>2026-05-03T11:18:05.99Z</time></trkpt><trkpt lat="42.0852333" lon="11.80523"><ele>18.4</ele><time>2026-05-03T11:18:06.988Z</time></trkpt><trkpt lat="42.085125" lon="11.8052517"><ele>18.599999999999998</ele><time>2026-05-03T11:18:07.988Z</time></trkpt><trkpt lat="42.08502" lon="11.805265"><ele>18.8</ele><time>2026-05-03T11:18:08.991Z</time></trkpt><trkpt lat="42.0849167" lon="11.8052717"><ele>19.0</ele><time>2026-05-03T11:18:09.988Z</time></trkpt><trkpt lat="42.08482" lon="11.8052633"><ele>18.4</ele><time>2026-05-03T11:18:10.989Z</time></trkpt><trkpt lat="42.0847267" lon="11.80524"><ele>17.799999999999997</ele><time>2026-05-03T11:18:11.988Z</time></trkpt><trkpt lat="42.0846267" lon="11.8051883"><ele>17.200000000000003</ele><time>2026-05-03T11:18:12.988Z</time></trkpt><trkpt lat="42.0845267" lon="11.8051033"><ele>16.6</ele><time>2026-05-03T11:18:13.987Z</time></trkpt><trkpt lat="42.08442" lon="11.8050083"><ele>16.0</ele><time>2026-05-03T11:18:14.987Z</time></trkpt><trkpt lat="42.0843233" lon="11.8049267"><ele>15.200000000000001</ele><time>2026-05-03T11:18:15.988Z</time></trkpt><trkpt lat="42.0842417" lon="11.8048633"><ele>14.400000000000002</ele><time>2026-05-03T11:18:16.987Z</time></trkpt><trkpt lat="42.08416" lon="11.8048"><ele>13.6</ele><time>2026-05-03T11:18:17.984Z</time></trkpt><trkpt lat="42.0840583" lon="11.804755"><ele>12.8</ele><time>2026-05-03T11:18:18.989Z</time></trkpt><trkpt lat="42.08397" lon="11.80476"><ele>12.0</ele><time>2026-05-03T11:18:19.99Z</time></trkpt><trkpt lat="42.083895" lon="11.8048"><ele>12.0</ele><time>2026-05-03T11:18:20.988Z</time></trkpt><trkpt lat="42.0838233" lon="11.804865"><ele>12.0</ele><time>2026-05-03T11:18:21.986Z</time></trkpt><trkpt lat="42.08374" lon="11.80493"><ele>12.0</ele><time>2026-05-03T11:18:22.989Z</time></trkpt><trkpt lat="42.0836767" lon="11.8050067"><ele>12.0</ele><time>2026-05-03T11:18:23.988Z</time></trkpt><trkpt lat="42.0836217" lon="11.8050733"><ele>12.0</ele><time>2026-05-03T11:18:24.988Z</time></trkpt><trkpt lat="42.08357" lon="11.8051333"><ele>12.0</ele><time>2026-05-03T11:18:25.989Z</time></trkpt><trkpt lat="42.083485" lon="11.8052267"><ele>12.0</ele><time>2026-05-03T11:18:27.987Z</time></trkpt><trkpt lat="42.0833867" lon="11.805325"><ele>12.0</ele><time>2026-05-03T11:18:29.988Z</time></trkpt><trkpt lat="42.0833" lon="11.8054083"><ele>12.0</ele><time>2026-05-03T11:18:31.991Z</time></trkpt><trkpt lat="42.0832233" lon="11.8055033"><ele>12.0</ele><time>2026-05-03T11:18:33.987Z</time></trkpt><trkpt lat="42.0831733" lon="11.8055633"><ele>12.0</ele><time>2026-05-03T11:18:34.988Z</time></trkpt><trkpt lat="42.083105" lon="11.8056283"><ele>11.75</ele><time>2026-05-03T11:18:35.988Z</time></trkpt><trkpt lat="42.0830217" lon="11.8057"><ele>11.5</ele><time>2026-05-03T11:18:36.987Z</time></trkpt><trkpt lat="42.0829317" lon="11.8057867"><ele>11.25</ele><time>2026-05-03T11:18:37.989Z</time></trkpt><trkpt lat="42.0828283" lon="11.8058783"><ele>11.0</ele><time>2026-05-03T11:18:38.987Z</time></trkpt><trkpt lat="42.08272" lon="11.8059717"><ele>11.0</ele><time>2026-05-03T11:18:39.988Z</time></trkpt><trkpt lat="42.0826067" lon="11.8060633"><ele>11.0</ele><time>2026-05-03T11:18:40.988Z</time></trkpt><trkpt lat="42.0824883" lon="11.806145"><ele>11.0</ele><time>2026-05-03T11:18:41.988Z</time></trkpt><trkpt lat="42.0823733" lon="11.80622"><ele>11.0</ele><time>2026-05-03T11:18:42.988Z</time></trkpt><trkpt lat="42.0822633" lon="11.8062833"><ele>10.25</ele><time>2026-05-03T11:18:43.989Z</time></trkpt><trkpt lat="42.0821633" lon="11.806335"><ele>9.5</ele><time>2026-05-03T11:18:44.989Z</time></trkpt><trkpt lat="42.08206" lon="11.8063983"><ele>8.75</ele><time>2026-05-03T11:18:45.988Z</time></trkpt><trkpt lat="42.0819517" lon="11.8064617"><ele>8.0</ele><time>2026-05-03T11:18:46.988Z</time></trkpt><trkpt lat="42.0818417" lon="11.8065267"><ele>8.0</ele><time>2026-05-03T11:18:47.988Z</time></trkpt><trkpt lat="42.0817267" lon="11.8065967"><ele>8.0</ele><time>2026-05-03T11:18:48.99Z</time></trkpt><trkpt lat="42.081605" lon="11.8066717"><ele>8.0</ele><time>2026-05-03T11:18:49.991Z</time></trkpt><trkpt lat="42.0814783" lon="11.8067433"><ele>8.0</ele><time>2026-05-03T11:18:50.988Z</time></trkpt><trkpt lat="42.0813483" lon="11.8068083"><ele>8.0</ele><time>2026-05-03T11:18:51.986Z</time></trkpt><trkpt lat="42.0812133" lon="11.806875"><ele>8.0</ele><time>2026-05-03T11:18:52.988Z</time></trkpt><trkpt lat="42.0810783" lon="11.806945"><ele>8.0</ele><time>2026-05-03T11:18:53.988Z</time></trkpt><trkpt lat="42.080935" lon="11.8070167"><ele>8.0</ele><time>2026-05-03T11:18:54.988Z</time></trkpt><trkpt lat="42.0807967" lon="11.8070917"><ele>8.25</ele><time>2026-05-03T11:18:55.99Z</time></trkpt><trkpt lat="42.0806617" lon="11.8071583"><ele>8.5</ele><time>2026-05-03T11:18:56.988Z</time></trkpt><trkpt lat="42.0805283" lon="11.807225"><ele>8.75</ele><time>2026-05-03T11:18:57.989Z</time></trkpt><trkpt lat="42.0803883" lon="11.8072867"><ele>9.0</ele><time>2026-05-03T11:18:58.991Z</time></trkpt><trkpt lat="42.0802467" lon="11.8073417"><ele>9.0</ele><time>2026-05-03T11:18:59.99Z</time></trkpt><trkpt lat="42.0801217" lon="11.8073933"><ele>9.0</ele><time>2026-05-03T11:19:00.988Z</time></trkpt><trkpt lat="42.080015" lon="11.8074383"><ele>9.0</ele><time>2026-05-03T11:19:01.989Z</time></trkpt><trkpt lat="42.0799117" lon="11.8074733"><ele>9.0</ele><time>2026-05-03T11:19:02.988Z</time></trkpt><trkpt lat="42.07981" lon="11.8075033"><ele>8.5</ele><time>2026-05-03T11:19:03.987Z</time></trkpt><trkpt lat="42.079705" lon="11.80754"><ele>8.0</ele><time>2026-05-03T11:19:04.987Z</time></trkpt><trkpt lat="42.0795867" lon="11.8075833"><ele>7.5</ele><time>2026-05-03T11:19:05.989Z</time></trkpt><trkpt lat="42.0794617" lon="11.80763"><ele>7.0</ele><time>2026-05-03T11:19:06.987Z</time></trkpt><trkpt lat="42.079325" lon="11.807685"><ele>7.0</ele><time>2026-05-03T11:19:07.987Z</time></trkpt><trkpt lat="42.0791817" lon="11.8077417"><ele>7.0</ele><time>2026-05-03T11:19:08.987Z</time></trkpt><trkpt lat="42.0790333" lon="11.8077967"><ele>7.0</ele><time>2026-05-03T11:19:09.989Z</time></trkpt><trkpt lat="42.0788867" lon="11.80785"><ele>7.25</ele><time>2026-05-03T11:19:10.989Z</time></trkpt><trkpt lat="42.0787433" lon="11.8078967"><ele>7.5</ele><time>2026-05-03T11:19:11.989Z</time></trkpt><trkpt lat="42.0786033" lon="11.8079383"><ele>7.75</ele><time>2026-05-03T11:19:12.989Z</time></trkpt><trkpt lat="42.0784633" lon="11.807975"><ele>8.0</ele><time>2026-05-03T11:19:13.99Z</time></trkpt><trkpt lat="42.0783317" lon="11.8080067"><ele>7.2</ele><time>2026-05-03T11:19:14.99Z</time></trkpt><trkpt lat="42.0782083" lon="11.8080317"><ele>6.4</ele><time>2026-05-03T11:19:15.988Z</time></trkpt><trkpt lat="42.0780967" lon="11.8080533"><ele>5.6000000000000005</ele><time>2026-05-03T11:19:16.989Z</time></trkpt><trkpt lat="42.0779933" lon="11.8080717"><ele>4.800000000000001</ele><time>2026-05-03T11:19:17.988Z</time></trkpt><trkpt lat="42.0779017" lon="11.80809"><ele>4.0</ele><time>2026-05-03T11:19:18.985Z</time></trkpt><trkpt lat="42.0778233" lon="11.808105"><ele>3.9999999999999996</ele><time>2026-05-03T11:19:19.988Z</time></trkpt><trkpt lat="42.0777567" lon="11.80812"><ele>4.0</ele><time>2026-05-03T11:19:20.988Z</time></trkpt><trkpt lat="42.0776683" lon="11.808155"><ele>4.0</ele><time>2026-05-03T11:19:22.989Z</time></trkpt><trkpt lat="42.0775867" lon="11.8081783"><ele>4.0</ele><time>2026-05-03T11:19:30.99Z</time></trkpt><trkpt lat="42.07752" lon="11.8082083"><ele>3.9999999999999996</ele><time>2026-05-03T11:19:31.992Z</time></trkpt><trkpt lat="42.0774333" lon="11.8082533"><ele>4.0</ele><time>2026-05-03T11:19:32.988Z</time></trkpt><trkpt lat="42.07734" lon="11.8082933"><ele>4.0</ele><time>2026-05-03T11:19:33.989Z</time></trkpt><trkpt lat="42.0772467" lon="11.8083317"><ele>4.0</ele><time>2026-05-03T11:19:34.988Z</time></trkpt><trkpt lat="42.0771383" lon="11.8083767"><ele>4.0</ele><time>2026-05-03T11:19:35.989Z</time></trkpt><trkpt lat="42.0770117" lon="11.8084217"><ele>4.0</ele><time>2026-05-03T11:19:36.988Z</time></trkpt><trkpt lat="42.0768783" lon="11.8084617"><ele>5.0</ele><time>2026-05-03T11:19:37.989Z</time></trkpt><trkpt lat="42.0767533" lon="11.8084933"><ele>6.0</ele><time>2026-05-03T11:19:38.988Z</time></trkpt><trkpt lat="42.0766183" lon="11.8085317"><ele>7.0</ele><time>2026-05-03T11:19:39.99Z</time></trkpt><trkpt lat="42.0764783" lon="11.8085717"><ele>8.0</ele><time>2026-05-03T11:19:40.989Z</time></trkpt><trkpt lat="42.0763367" lon="11.8086117"><ele>9.25</ele><time>2026-05-03T11:19:41.989Z</time></trkpt><trkpt lat="42.0761883" lon="11.8086533"><ele>10.5</ele><time>2026-05-03T11:19:42.987Z</time></trkpt><trkpt lat="42.0760417" lon="11.8086983"><ele>11.75</ele><time>2026-05-03T11:19:43.989Z</time></trkpt><trkpt lat="42.0758983" lon="11.80874"><ele>13.0</ele><time>2026-05-03T11:19:44.989Z</time></trkpt><trkpt lat="42.075755" lon="11.80878"><ele>13.5</ele><time>2026-05-03T11:19:45.989Z</time></trkpt><trkpt lat="42.0756133" lon="11.8088183"><ele>14.0</ele><time>2026-05-03T11:19:46.989Z</time></trkpt><trkpt lat="42.07547" lon="11.8088533"><ele>14.5</ele><time>2026-05-03T11:19:47.987Z</time></trkpt><trkpt lat="42.0753267" lon="11.808895"><ele>15.0</ele><time>2026-05-03T11:19:48.988Z</time></trkpt><trkpt lat="42.0751833" lon="11.8089333"><ele>15.0</ele><time>2026-05-03T11:19:49.989Z</time></trkpt><trkpt lat="42.0750417" lon="11.808975"><ele>15.0</ele><time>2026-05-03T11:19:50.989Z</time></trkpt><trkpt lat="42.0749033" lon="11.80902"><ele>15.0</ele><time>2026-05-03T11:19:51.99Z</time></trkpt><trkpt lat="42.0747733" lon="11.80906"><ele>15.0</ele><time>2026-05-03T11:19:52.988Z</time></trkpt><trkpt lat="42.0746583" lon="11.809095"><ele>14.833333333333334</ele><time>2026-05-03T11:19:53.987Z</time></trkpt><trkpt lat="42.07456" lon="11.8091233"><ele>14.666666666666668</ele><time>2026-05-03T11:19:54.988Z</time></trkpt><trkpt lat="42.0744767" lon="11.8091533"><ele>14.5</ele><time>2026-05-03T11:19:55.988Z</time></trkpt><trkpt lat="42.0744117" lon="11.8091683"><ele>14.333333333333334</ele><time>2026-05-03T11:19:56.988Z</time></trkpt><trkpt lat="42.0743367" lon="11.80918"><ele>14.166666666666668</ele><time>2026-05-03T11:19:58.989Z</time></trkpt><trkpt lat="42.0742717" lon="11.8090883"><ele>14.0</ele><time>2026-05-03T11:20:02.989Z</time></trkpt><trkpt lat="42.07423" lon="11.80897"><ele>14.0</ele><time>2026-05-03T11:20:04.99Z</time></trkpt><trkpt lat="42.0741983" lon="11.80886"><ele>14.0</ele><time>2026-05-03T11:20:06.989Z</time></trkpt><trkpt lat="42.0741717" lon="11.8087767"><ele>14.0</ele><time>2026-05-03T11:20:08.991Z</time></trkpt><trkpt lat="42.0741417" lon="11.80867"><ele>14.0</ele><time>2026-05-03T11:20:10.989Z</time></trkpt><trkpt lat="42.0741133" lon="11.80858"><ele>14.0</ele><time>2026-05-03T11:20:13.99Z</time></trkpt></trkseg></trk></gpx>